<?xml version='1.0' encoding='UTF-8'?><gpx version="1.1" creator="JPX - https://github.com/jenetics/jpx" xmlns="http://www.topografix.com/GPX/1/1"><trk><trkseg><trkpt lat="44.1343416" lon="12.243669"><ele>44.0</ele><time>2026-04-26T07:11:55.995Z</time></trkpt><trkpt lat="44.134264" lon="12.2437212"><ele>44.0</ele><time>2026-04-26T07:12:07.569Z</time></trkpt><trkpt lat="44.1341313" lon="12.2437799"><ele>44.0</ele><time>2026-04-26T07:12:09.052Z</time></trkpt><trkpt lat="44.1340557" lon="12.2438218"><ele>44.0</ele><time>2026-04-26T07:12:10.014Z</time></trkpt><trkpt lat="44.1339718" lon="12.2438632"><ele>44.0</ele><time>2026-04-26T07:12:11.011Z</time></trkpt><trkpt lat="44.1338636" lon="12.2439208"><ele>44.0</ele><time>2026-04-26T07:12:12.016Z</time></trkpt><trkpt lat="44.1337377" lon="12.2439847"><ele>44.0</ele><time>2026-04-26T07:12:13.003Z</time></trkpt><trkpt lat="44.1336109" lon="12.2440491"><ele>44.0</ele><time>2026-04-26T07:12:14.002Z</time></trkpt><trkpt lat="44.1335043" lon="12.2440973"><ele>44.0</ele><time>2026-04-26T07:12:15.002Z</time></trkpt><trkpt lat="44.1334193" lon="12.2441407"><ele>44.0</ele><time>2026-04-26T07:12:16.001Z</time></trkpt><trkpt lat="44.1333409" lon="12.2441663"><ele>44.0</ele><time>2026-04-26T07:12:16.994Z</time></trkpt><trkpt lat="44.1332642" lon="12.2441913"><ele>44.0</ele><time>2026-04-26T07:12:18.004Z</time></trkpt><trkpt lat="44.1331927" lon="12.2442189"><ele>44.0</ele><time>2026-04-26T07:12:18.996Z</time></trkpt><trkpt lat="44.133126" lon="12.2442586"><ele>44.0</ele><time>2026-04-26T07:12:19.998Z</time></trkpt><trkpt lat="44.1330523" lon="12.2443945"><ele>44.0</ele><time>2026-04-26T07:12:22.003Z</time></trkpt><trkpt lat="44.133047" lon="12.2444929"><ele>44.0</ele><time>2026-04-26T07:12:23Z</time></trkpt><trkpt lat="44.1330524" lon="12.2445924"><ele>44.0</ele><time>2026-04-26T07:12:24.001Z</time></trkpt><trkpt lat="44.1330591" lon="12.244683"><ele>44.0</ele><time>2026-04-26T07:12:25.002Z</time></trkpt><trkpt lat="44.1330595" lon="12.2447712"><ele>44.0</ele><time>2026-04-26T07:12:26.01Z</time></trkpt><trkpt lat="44.1330439" lon="12.2448839"><ele>44.0</ele><time>2026-04-26T07:12:28.001Z</time></trkpt><trkpt lat="44.1330882" lon="12.2448017"><ele>44.0</ele><time>2026-04-26T07:12:31.004Z</time></trkpt><trkpt lat="44.1330519" lon="12.2446264"><ele>44.0</ele><time>2026-04-26T07:12:32.996Z</time></trkpt><trkpt lat="44.1330382" lon="12.2445236"><ele>44.0</ele><time>2026-04-26T07:12:34.002Z</time></trkpt><trkpt lat="44.1330448" lon="12.2444318"><ele>44.0</ele><time>2026-04-26T07:12:35.001Z</time></trkpt><trkpt lat="44.1330609" lon="12.2443463"><ele>44.0</ele><time>2026-04-26T07:12:36.009Z</time></trkpt><trkpt lat="44.1331092" lon="12.2442805"><ele>44.0</ele><time>2026-04-26T07:12:37.055Z</time></trkpt><trkpt lat="44.1331818" lon="12.2442499"><ele>44.0</ele><time>2026-04-26T07:12:38.052Z</time></trkpt><trkpt lat="44.1332638" lon="12.2442168"><ele>44.0</ele><time>2026-04-26T07:12:39.03Z</time></trkpt><trkpt lat="44.1333409" lon="12.2441863"><ele>44.0</ele><time>2026-04-26T07:12:40.008Z</time></trkpt><trkpt lat="44.1334164" lon="12.2441438"><ele>44.0</ele><time>2026-04-26T07:12:41Z</time></trkpt><trkpt lat="44.1335138" lon="12.2440882"><ele>44.0</ele><time>2026-04-26T07:12:41.996Z</time></trkpt><trkpt lat="44.1336194" lon="12.2440368"><ele>44.0</ele><time>2026-04-26T07:12:42.994Z</time></trkpt><trkpt lat="44.133711" lon="12.2439955"><ele>44.0</ele><time>2026-04-26T07:12:44.007Z</time></trkpt><trkpt lat="44.1337849" lon="12.2439583"><ele>44.6</ele><time>2026-04-26T07:12:44.997Z</time></trkpt><trkpt lat="44.1338491" lon="12.2439178"><ele>45.2</ele><time>2026-04-26T07:12:46.003Z</time></trkpt><trkpt lat="44.1339382" lon="12.2438185"><ele>45.800000000000004</ele><time>2026-04-26T07:12:48.013Z</time></trkpt><trkpt lat="44.1339461" lon="12.2437213"><ele>46.400000000000006</ele><time>2026-04-26T07:12:49.004Z</time></trkpt><trkpt lat="44.1339301" lon="12.2435927"><ele>47.0</ele><time>2026-04-26T07:12:49.999Z</time></trkpt><trkpt lat="44.133908" lon="12.2434095"><ele>47.0</ele><time>2026-04-26T07:12:51.001Z</time></trkpt><trkpt lat="44.1338912" lon="12.2431994"><ele>47.0</ele><time>2026-04-26T07:12:52.013Z</time></trkpt><trkpt lat="44.1338738" lon="12.2430336"><ele>47.0</ele><time>2026-04-26T07:12:53.007Z</time></trkpt><trkpt lat="44.1338617" lon="12.2428914"><ele>47.0</ele><time>2026-04-26T07:12:54Z</time></trkpt><trkpt lat="44.1338498" lon="12.2427741"><ele>47.6</ele><time>2026-04-26T07:12:55.001Z</time></trkpt><trkpt lat="44.1338496" lon="12.2426169"><ele>48.2</ele><time>2026-04-26T07:12:57.023Z</time></trkpt><trkpt lat="44.1338381" lon="12.2425278"><ele>48.8</ele><time>2026-04-26T07:12:59.016Z</time></trkpt><trkpt lat="44.1337572" lon="12.2424689"><ele>49.4</ele><time>2026-04-26T07:13:09.012Z</time></trkpt><trkpt lat="44.1336687" lon="12.2424794"><ele>50.0</ele><time>2026-04-26T07:13:10.014Z</time></trkpt><trkpt lat="44.1335662" lon="12.2425027"><ele>50.0</ele><time>2026-04-26T07:13:11.022Z</time></trkpt><trkpt lat="44.1334579" lon="12.242515"><ele>50.0</ele><time>2026-04-26T07:13:12.007Z</time></trkpt><trkpt lat="44.1333353" lon="12.2425281"><ele>50.0</ele><time>2026-04-26T07:13:13.017Z</time></trkpt><trkpt lat="44.133223" lon="12.2425328"><ele>50.0</ele><time>2026-04-26T07:13:14.01Z</time></trkpt><trkpt lat="44.1331214" lon="12.2425481"><ele>50.0</ele><time>2026-04-26T07:13:15.011Z</time></trkpt><trkpt lat="44.133037" lon="12.2425621"><ele>50.333333333333336</ele><time>2026-04-26T07:13:16.009Z</time></trkpt><trkpt lat="44.1329566" lon="12.2425698"><ele>50.66666666666667</ele><time>2026-04-26T07:13:17.01Z</time></trkpt><trkpt lat="44.1328884" lon="12.2425514"><ele>51.0</ele><time>2026-04-26T07:13:18.021Z</time></trkpt><trkpt lat="44.1328099" lon="12.2424385"><ele>51.33333333333333</ele><time>2026-04-26T07:13:20.015Z</time></trkpt><trkpt lat="44.1328026" lon="12.2423475"><ele>51.666666666666664</ele><time>2026-04-26T07:13:21.02Z</time></trkpt><trkpt lat="44.1328143" lon="12.2422536"><ele>52.0</ele><time>2026-04-26T07:13:22.024Z</time></trkpt><trkpt lat="44.1328399" lon="12.2421505"><ele>52.0</ele><time>2026-04-26T07:13:23.015Z</time></trkpt><trkpt lat="44.1328637" lon="12.2420575"><ele>52.0</ele><time>2026-04-26T07:13:24.023Z</time></trkpt><trkpt lat="44.1328788" lon="12.2419622"><ele>52.0</ele><time>2026-04-26T07:13:25.025Z</time></trkpt><trkpt lat="44.1328904" lon="12.2418315"><ele>52.0</ele><time>2026-04-26T07:13:26.023Z</time></trkpt><trkpt lat="44.1329052" lon="12.2416628"><ele>52.0</ele><time>2026-04-26T07:13:27.016Z</time></trkpt><trkpt lat="44.1329383" lon="12.2414708"><ele>55.0</ele><time>2026-04-26T07:13:28.036Z</time></trkpt><trkpt lat="44.13298" lon="12.2412253"><ele>58.0</ele><time>2026-04-26T07:13:29.03Z</time></trkpt><trkpt lat="44.1330121" lon="12.2409647"><ele>61.0</ele><time>2026-04-26T07:13:30.036Z</time></trkpt><trkpt lat="44.1330424" lon="12.2406958"><ele>66.33333333333333</ele><time>2026-04-26T07:13:31.035Z</time></trkpt><trkpt lat="44.1330666" lon="12.2404553"><ele>71.66666666666667</ele><time>2026-04-26T07:13:32.02Z</time></trkpt><trkpt lat="44.1330984" lon="12.2402411"><ele>77.0</ele><time>2026-04-26T07:13:33.012Z</time></trkpt><trkpt lat="44.1331629" lon="12.2395647"><ele>78.0</ele><time>2026-04-26T07:13:37.017Z</time></trkpt><trkpt lat="44.1332097" lon="12.2394501"><ele>79.0</ele><time>2026-04-26T07:13:38.028Z</time></trkpt><trkpt lat="44.1332774" lon="12.2393469"><ele>80.0</ele><time>2026-04-26T07:13:39.009Z</time></trkpt><trkpt lat="44.1333514" lon="12.2392615"><ele>81.0</ele><time>2026-04-26T07:13:40.032Z</time></trkpt><trkpt lat="44.1334487" lon="12.2392213"><ele>82.0</ele><time>2026-04-26T07:13:41.027Z</time></trkpt><trkpt lat="44.1335669" lon="12.2392296"><ele>72.33333333333333</ele><time>2026-04-26T07:13:42.02Z</time></trkpt><trkpt lat="44.133703" lon="12.2392367"><ele>62.66666666666667</ele><time>2026-04-26T07:13:43.01Z</time></trkpt><trkpt lat="44.1338638" lon="12.2392647"><ele>53.0</ele><time>2026-04-26T07:13:44.016Z</time></trkpt><trkpt lat="44.1340348" lon="12.2392973"><ele>51.0</ele><time>2026-04-26T07:13:45.024Z</time></trkpt><trkpt lat="44.1341908" lon="12.2393211"><ele>49.0</ele><time>2026-04-26T07:13:46.024Z</time></trkpt><trkpt lat="44.1343333" lon="12.2393399"><ele>47.0</ele><time>2026-04-26T07:13:47.022Z</time></trkpt><trkpt lat="44.1344812" lon="12.2393348"><ele>45.0</ele><time>2026-04-26T07:13:48.022Z</time></trkpt><trkpt lat="44.1346276" lon="12.2393092"><ele>45.0</ele><time>2026-04-26T07:13:49.023Z</time></trkpt><trkpt lat="44.1347508" lon="12.2392815"><ele>45.0</ele><time>2026-04-26T07:13:50.022Z</time></trkpt><trkpt lat="44.1348677" lon="12.2392377"><ele>45.0</ele><time>2026-04-26T07:13:51.025Z</time></trkpt><trkpt lat="44.1349789" lon="12.2391692"><ele>45.0</ele><time>2026-04-26T07:13:52.019Z</time></trkpt><trkpt lat="44.1350944" lon="12.2390709"><ele>43.4</ele><time>2026-04-26T07:13:53.016Z</time></trkpt><trkpt lat="44.1352104" lon="12.2389659"><ele>41.8</ele><time>2026-04-26T07:13:54.027Z</time></trkpt><trkpt lat="44.1353016" lon="12.2388737"><ele>40.2</ele><time>2026-04-26T07:13:55.029Z</time></trkpt><trkpt lat="44.1353883" lon="12.2387834"><ele>38.6</ele><time>2026-04-26T07:13:56.031Z</time></trkpt><trkpt lat="44.1354594" lon="12.2387125"><ele>37.0</ele><time>2026-04-26T07:13:57.015Z</time></trkpt><trkpt lat="44.135512" lon="12.2386519"><ele>37.0</ele><time>2026-04-26T07:13:58.018Z</time></trkpt><trkpt lat="44.1355572" lon="12.2385804"><ele>37.0</ele><time>2026-04-26T07:13:59.024Z</time></trkpt><trkpt lat="44.13555" lon="12.2384302"><ele>37.0</ele><time>2026-04-26T07:14:01.036Z</time></trkpt><trkpt lat="44.1354338" lon="12.2383343"><ele>37.0</ele><time>2026-04-26T07:14:03.018Z</time></trkpt><trkpt lat="44.1353447" lon="12.2383167"><ele>37.0</ele><time>2026-04-26T07:14:04.037Z</time></trkpt><trkpt lat="44.1352331" lon="12.2382744"><ele>37.0</ele><time>2026-04-26T07:14:05.02Z</time></trkpt><trkpt lat="44.1351206" lon="12.2382227"><ele>37.0</ele><time>2026-04-26T07:14:06.024Z</time></trkpt><trkpt lat="44.135043" lon="12.2381419"><ele>37.0</ele><time>2026-04-26T07:14:07.024Z</time></trkpt><trkpt lat="44.1349771" lon="12.2380674"><ele>37.0</ele><time>2026-04-26T07:14:08.033Z</time></trkpt><trkpt lat="44.134908" lon="12.2379758"><ele>37.0</ele><time>2026-04-26T07:14:09.029Z</time></trkpt><trkpt lat="44.1348359" lon="12.237877"><ele>36.25</ele><time>2026-04-26T07:14:10.037Z</time></trkpt><trkpt lat="44.134761" lon="12.2377738"><ele>35.5</ele><time>2026-04-26T07:14:11.024Z</time></trkpt><trkpt lat="44.1346848" lon="12.2376595"><ele>34.75</ele><time>2026-04-26T07:14:12.02Z</time></trkpt><trkpt lat="44.1345943" lon="12.2375446"><ele>34.0</ele><time>2026-04-26T07:14:13.028Z</time></trkpt><trkpt lat="44.1345008" lon="12.2374113"><ele>34.0</ele><time>2026-04-26T07:14:14.029Z</time></trkpt><trkpt lat="44.1344046" lon="12.2372781"><ele>34.0</ele><time>2026-04-26T07:14:15.025Z</time></trkpt><trkpt lat="44.1343092" lon="12.2371497"><ele>34.0</ele><time>2026-04-26T07:14:16.02Z</time></trkpt><trkpt lat="44.1342211" lon="12.23704"><ele>34.0</ele><time>2026-04-26T07:14:17.027Z</time></trkpt><trkpt lat="44.1341537" lon="12.2369392"><ele>34.0</ele><time>2026-04-26T07:14:18.025Z</time></trkpt><trkpt lat="44.1341055" lon="12.2368269"><ele>34.0</ele><time>2026-04-26T07:14:19.029Z</time></trkpt><trkpt lat="44.1340833" lon="12.236687"><ele>34.0</ele><time>2026-04-26T07:14:20.02Z</time></trkpt><trkpt lat="44.1340843" lon="12.2365249"><ele>34.0</ele><time>2026-04-26T07:14:21.041Z</time></trkpt><trkpt lat="44.1340792" lon="12.2363449"><ele>34.0</ele><time>2026-04-26T07:14:22.02Z</time></trkpt><trkpt lat="44.1340663" lon="12.2361758"><ele>34.0</ele><time>2026-04-26T07:14:23.026Z</time></trkpt><trkpt lat="44.1340597" lon="12.2360116"><ele>34.0</ele><time>2026-04-26T07:14:24.029Z</time></trkpt><trkpt lat="44.1340522" lon="12.2358765"><ele>34.0</ele><time>2026-04-26T07:14:25.031Z</time></trkpt><trkpt lat="44.1340431" lon="12.2357482"><ele>34.0</ele><time>2026-04-26T07:14:26.03Z</time></trkpt><trkpt lat="44.1340352" lon="12.2356274"><ele>34.0</ele><time>2026-04-26T07:14:27.031Z</time></trkpt><trkpt lat="44.1340397" lon="12.2355307"><ele>34.0</ele><time>2026-04-26T07:14:28.034Z</time></trkpt><trkpt lat="44.1340805" lon="12.2353773"><ele>34.0</ele><time>2026-04-26T07:14:30.036Z</time></trkpt><trkpt lat="44.1341173" lon="12.2352946"><ele>34.0</ele><time>2026-04-26T07:14:31.028Z</time></trkpt><trkpt lat="44.1341425" lon="12.2352134"><ele>34.0</ele><time>2026-04-26T07:14:32.035Z</time></trkpt><trkpt lat="44.1341337" lon="12.2350886"><ele>34.0</ele><time>2026-04-26T07:14:34.026Z</time></trkpt><trkpt lat="44.1340568" lon="12.2350167"><ele>34.0</ele><time>2026-04-26T07:14:36.027Z</time></trkpt><trkpt lat="44.1339945" lon="12.2349975"><ele>34.0</ele><time>2026-04-26T07:14:37.029Z</time></trkpt><trkpt lat="44.1339059" lon="12.2349631"><ele>34.0</ele><time>2026-04-26T07:14:38.031Z</time></trkpt><trkpt lat="44.1337872" lon="12.2349573"><ele>34.0</ele><time>2026-04-26T07:14:39.031Z</time></trkpt><trkpt lat="44.1336695" lon="12.2349464"><ele>34.0</ele><time>2026-04-26T07:14:40.022Z</time></trkpt><trkpt lat="44.1335552" lon="12.2349336"><ele>34.0</ele><time>2026-04-26T07:14:41.02Z</time></trkpt><trkpt lat="44.1334413" lon="12.2349305"><ele>34.0</ele><time>2026-04-26T07:14:42.036Z</time></trkpt><trkpt lat="44.1333275" lon="12.2349135"><ele>34.0</ele><time>2026-04-26T07:14:43.034Z</time></trkpt><trkpt lat="44.1332205" lon="12.2348621"><ele>34.0</ele><time>2026-04-26T07:14:44.03Z</time></trkpt><trkpt lat="44.1330969" lon="12.2347893"><ele>34.0</ele><time>2026-04-26T07:14:45.027Z</time></trkpt><trkpt lat="44.1329669" lon="12.2346998"><ele>33.0</ele><time>2026-04-26T07:14:46.034Z</time></trkpt><trkpt lat="44.1328236" lon="12.234592"><ele>32.0</ele><time>2026-04-26T07:14:47.032Z</time></trkpt><trkpt lat="44.1326775" lon="12.2344884"><ele>31.0</ele><time>2026-04-26T07:14:48.023Z</time></trkpt><trkpt lat="44.1325367" lon="12.2343875"><ele>31.0</ele><time>2026-04-26T07:14:49.028Z</time></trkpt><trkpt lat="44.1323938" lon="12.2342684"><ele>31.0</ele><time>2026-04-26T07:14:50.029Z</time></trkpt><trkpt lat="44.1322348" lon="12.2341358"><ele>31.0</ele><time>2026-04-26T07:14:51.031Z</time></trkpt><trkpt lat="44.1320602" lon="12.2340086"><ele>30.666666666666668</ele><time>2026-04-26T07:14:52.034Z</time></trkpt><trkpt lat="44.1318755" lon="12.2338813"><ele>30.333333333333336</ele><time>2026-04-26T07:14:53.033Z</time></trkpt><trkpt lat="44.1317009" lon="12.2337489"><ele>30.0</ele><time>2026-04-26T07:14:54.04Z</time></trkpt><trkpt lat="44.1315387" lon="12.2336231"><ele>30.0</ele><time>2026-04-26T07:14:55.026Z</time></trkpt><trkpt lat="44.1313847" lon="12.2334965"><ele>30.0</ele><time>2026-04-26T07:14:56.024Z</time></trkpt><trkpt lat="44.1312477" lon="12.2333711"><ele>30.0</ele><time>2026-04-26T07:14:57.028Z</time></trkpt><trkpt lat="44.1311167" lon="12.2332386"><ele>29.333333333333336</ele><time>2026-04-26T07:14:58.037Z</time></trkpt><trkpt lat="44.1309922" lon="12.2330974"><ele>28.666666666666668</ele><time>2026-04-26T07:14:59.028Z</time></trkpt><trkpt lat="44.1308667" lon="12.2329504"><ele>28.0</ele><time>2026-04-26T07:15:00.033Z</time></trkpt><trkpt lat="44.1307413" lon="12.2328165"><ele>29.0</ele><time>2026-04-26T07:15:01.027Z</time></trkpt><trkpt lat="44.1306224" lon="12.232687"><ele>30.0</ele><time>2026-04-26T07:15:02.035Z</time></trkpt><trkpt lat="44.1305127" lon="12.2325678"><ele>31.0</ele><time>2026-04-26T07:15:03.036Z</time></trkpt><trkpt lat="44.1304089" lon="12.2324501"><ele>32.0</ele><time>2026-04-26T07:15:04.033Z</time></trkpt><trkpt lat="44.1303085" lon="12.2323328"><ele>31.5</ele><time>2026-04-26T07:15:05.035Z</time></trkpt><trkpt lat="44.1302101" lon="12.232226"><ele>31.0</ele><time>2026-04-26T07:15:06.035Z</time></trkpt><trkpt lat="44.1301063" lon="12.2321248"><ele>30.5</ele><time>2026-04-26T07:15:07.027Z</time></trkpt><trkpt lat="44.1299996" lon="12.2320323"><ele>30.0</ele><time>2026-04-26T07:15:08.029Z</time></trkpt><trkpt lat="44.1298973" lon="12.2319456"><ele>30.2</ele><time>2026-04-26T07:15:09.019Z</time></trkpt><trkpt lat="44.1297963" lon="12.2318705"><ele>30.4</ele><time>2026-04-26T07:15:10.037Z</time></trkpt><trkpt lat="44.1296982" lon="12.2317924"><ele>30.6</ele><time>2026-04-26T07:15:11.021Z</time></trkpt><trkpt lat="44.1296044" lon="12.2317289"><ele>30.8</ele><time>2026-04-26T07:15:12.024Z</time></trkpt><trkpt lat="44.1295174" lon="12.2316721"><ele>31.0</ele><time>2026-04-26T07:15:13.034Z</time></trkpt><trkpt lat="44.1294374" lon="12.2316128"><ele>31.000000000000004</ele><time>2026-04-26T07:15:14.029Z</time></trkpt><trkpt lat="44.1293659" lon="12.231597"><ele>31.0</ele><time>2026-04-26T07:15:15.026Z</time></trkpt><trkpt lat="44.1293058" lon="12.2316252"><ele>31.0</ele><time>2026-04-26T07:15:16.032Z</time></trkpt><trkpt lat="44.1292493" lon="12.2316945"><ele>31.0</ele><time>2026-04-26T07:15:17.027Z</time></trkpt><trkpt lat="44.1291987" lon="12.231806"><ele>31.000000000000004</ele><time>2026-04-26T07:15:18.041Z</time></trkpt><trkpt lat="44.1291495" lon="12.2319325"><ele>31.0</ele><time>2026-04-26T07:15:19.011Z</time></trkpt><trkpt lat="44.1290954" lon="12.2320714"><ele>31.200000000000003</ele><time>2026-04-26T07:15:20.033Z</time></trkpt><trkpt lat="44.1290413" lon="12.2322058"><ele>31.400000000000002</ele><time>2026-04-26T07:15:21.03Z</time></trkpt><trkpt lat="44.1289802" lon="12.2323128"><ele>31.6</ele><time>2026-04-26T07:15:22.034Z</time></trkpt><trkpt lat="44.1289081" lon="12.2323895"><ele>31.8</ele><time>2026-04-26T07:15:23.025Z</time></trkpt><trkpt lat="44.1288232" lon="12.2324425"><ele>32.0</ele><time>2026-04-26T07:15:24.035Z</time></trkpt><trkpt lat="44.1287295" lon="12.2324735"><ele>32.5</ele><time>2026-04-26T07:15:25.027Z</time></trkpt><trkpt lat="44.1286259" lon="12.2324842"><ele>33.0</ele><time>2026-04-26T07:15:26.019Z</time></trkpt><trkpt lat="44.1285181" lon="12.2324962"><ele>33.5</ele><time>2026-04-26T07:15:27.041Z</time></trkpt><trkpt lat="44.1283978" lon="12.2324962"><ele>34.0</ele><time>2026-04-26T07:15:28.02Z</time></trkpt><trkpt lat="44.1282638" lon="12.2324993"><ele>34.66666666666667</ele><time>2026-04-26T07:15:29.02Z</time></trkpt><trkpt lat="44.1281189" lon="12.2325005"><ele>35.333333333333336</ele><time>2026-04-26T07:15:30.028Z</time></trkpt><trkpt lat="44.1279644" lon="12.232505"><ele>36.0</ele><time>2026-04-26T07:15:31.017Z</time></trkpt><trkpt lat="44.1278064" lon="12.2325153"><ele>36.0</ele><time>2026-04-26T07:15:32.027Z</time></trkpt><trkpt lat="44.1276504" lon="12.2325225"><ele>36.0</ele><time>2026-04-26T07:15:33.029Z</time></trkpt><trkpt lat="44.1274974" lon="12.2325239"><ele>36.0</ele><time>2026-04-26T07:15:34.029Z</time></trkpt><trkpt lat="44.1273443" lon="12.2325083"><ele>37.0</ele><time>2026-04-26T07:15:35.019Z</time></trkpt><trkpt lat="44.127193" lon="12.2324771"><ele>38.0</ele><time>2026-04-26T07:15:36.021Z</time></trkpt><trkpt lat="44.1270338" lon="12.232426"><ele>39.0</ele><time>2026-04-26T07:15:37.026Z</time></trkpt><trkpt lat="44.1268621" lon="12.2323585"><ele>38.0</ele><time>2026-04-26T07:15:38.025Z</time></trkpt><trkpt lat="44.1266726" lon="12.2322784"><ele>37.0</ele><time>2026-04-26T07:15:39.028Z</time></trkpt><trkpt lat="44.1264611" lon="12.2321915"><ele>36.0</ele><time>2026-04-26T07:15:40.036Z</time></trkpt><trkpt lat="44.1262316" lon="12.2321044"><ele>36.0</ele><time>2026-04-26T07:15:41.027Z</time></trkpt><trkpt lat="44.1259874" lon="12.2320068"><ele>36.0</ele><time>2026-04-26T07:15:42.012Z</time></trkpt><trkpt lat="44.1257417" lon="12.2319027"><ele>36.0</ele><time>2026-04-26T07:15:43.029Z</time></trkpt><trkpt lat="44.1255038" lon="12.2318054"><ele>36.0</ele><time>2026-04-26T07:15:44.022Z</time></trkpt><trkpt lat="44.1252683" lon="12.2317074"><ele>36.0</ele><time>2026-04-26T07:15:45.021Z</time></trkpt><trkpt lat="44.125042" lon="12.2316095"><ele>36.0</ele><time>2026-04-26T07:15:46.025Z</time></trkpt><trkpt lat="44.1248263" lon="12.2315114"><ele>35.333333333333336</ele><time>2026-04-26T07:15:47.01Z</time></trkpt><trkpt lat="44.1246131" lon="12.2314246"><ele>34.66666666666667</ele><time>2026-04-26T07:15:48.016Z</time></trkpt><trkpt lat="44.1244017" lon="12.2313372"><ele>34.0</ele><time>2026-04-26T07:15:49.014Z</time></trkpt><trkpt lat="44.1241947" lon="12.2312495"><ele>34.333333333333336</ele><time>2026-04-26T07:15:50.018Z</time></trkpt><trkpt lat="44.12399" lon="12.2311646"><ele>34.666666666666664</ele><time>2026-04-26T07:15:51.033Z</time></trkpt><trkpt lat="44.1237906" lon="12.231097"><ele>35.0</ele><time>2026-04-26T07:15:52.024Z</time></trkpt><trkpt lat="44.1236006" lon="12.2310255"><ele>35.0</ele><time>2026-04-26T07:15:53.014Z</time></trkpt><trkpt lat="44.1234209" lon="12.2309726"><ele>35.0</ele><time>2026-04-26T07:15:54.025Z</time></trkpt><trkpt lat="44.1232343" lon="12.2309257"><ele>35.0</ele><time>2026-04-26T07:15:55.026Z</time></trkpt><trkpt lat="44.1230307" lon="12.2308985"><ele>37.33333333333333</ele><time>2026-04-26T07:15:56.024Z</time></trkpt><trkpt lat="44.1228313" lon="12.2308746"><ele>39.666666666666664</ele><time>2026-04-26T07:15:57.016Z</time></trkpt><trkpt lat="44.1226427" lon="12.2308448"><ele>42.0</ele><time>2026-04-26T07:15:58.024Z</time></trkpt><trkpt lat="44.1224542" lon="12.2307674"><ele>39.666666666666664</ele><time>2026-04-26T07:15:59.023Z</time></trkpt><trkpt lat="44.1222733" lon="12.2306656"><ele>37.33333333333333</ele><time>2026-04-26T07:16:00.038Z</time></trkpt><trkpt lat="44.12208" lon="12.2305531"><ele>35.0</ele><time>2026-04-26T07:16:01.021Z</time></trkpt><trkpt lat="44.1218999" lon="12.230443"><ele>35.0</ele><time>2026-04-26T07:16:02.025Z</time></trkpt><trkpt lat="44.1217366" lon="12.2303491"><ele>35.0</ele><time>2026-04-26T07:16:03.033Z</time></trkpt><trkpt lat="44.1215888" lon="12.2302526"><ele>35.0</ele><time>2026-04-26T07:16:04.029Z</time></trkpt><trkpt lat="44.1214482" lon="12.2301762"><ele>36.666666666666664</ele><time>2026-04-26T07:16:05.019Z</time></trkpt><trkpt lat="44.1213173" lon="12.230105"><ele>38.333333333333336</ele><time>2026-04-26T07:16:06.025Z</time></trkpt><trkpt lat="44.1211664" lon="12.2300628"><ele>40.0</ele><time>2026-04-26T07:16:07.02Z</time></trkpt><trkpt lat="44.120994" lon="12.2300498"><ele>40.0</ele><time>2026-04-26T07:16:08.028Z</time></trkpt><trkpt lat="44.1208182" lon="12.230038"><ele>40.0</ele><time>2026-04-26T07:16:09.023Z</time></trkpt><trkpt lat="44.120628" lon="12.2300073"><ele>40.0</ele><time>2026-04-26T07:16:10.014Z</time></trkpt><trkpt lat="44.1204275" lon="12.2299498"><ele>39.333333333333336</ele><time>2026-04-26T07:16:11.014Z</time></trkpt><trkpt lat="44.120215" lon="12.2298824"><ele>38.666666666666664</ele><time>2026-04-26T07:16:12.021Z</time></trkpt><trkpt lat="44.1200067" lon="12.2298231"><ele>38.0</ele><time>2026-04-26T07:16:13.011Z</time></trkpt><trkpt lat="44.1197936" lon="12.2297794"><ele>38.0</ele><time>2026-04-26T07:16:14.017Z</time></trkpt><trkpt lat="44.1196094" lon="12.2297466"><ele>38.0</ele><time>2026-04-26T07:16:15.014Z</time></trkpt><trkpt lat="44.1194276" lon="12.2297246"><ele>38.0</ele><time>2026-04-26T07:16:16.013Z</time></trkpt><trkpt lat="44.1192674" lon="12.2297004"><ele>38.0</ele><time>2026-04-26T07:16:17.015Z</time></trkpt><trkpt lat="44.1191085" lon="12.2296614"><ele>38.0</ele><time>2026-04-26T07:16:18.027Z</time></trkpt><trkpt lat="44.118959" lon="12.2295926"><ele>38.0</ele><time>2026-04-26T07:16:19.012Z</time></trkpt><trkpt lat="44.1188087" lon="12.2294932"><ele>39.666666666666664</ele><time>2026-04-26T07:16:20.019Z</time></trkpt><trkpt lat="44.1186455" lon="12.2294046"><ele>41.333333333333336</ele><time>2026-04-26T07:16:21.022Z</time></trkpt><trkpt lat="44.1184952" lon="12.2293342"><ele>43.0</ele><time>2026-04-26T07:16:22.021Z</time></trkpt><trkpt lat="44.1183742" lon="12.2292426"><ele>43.0</ele><time>2026-04-26T07:16:23.019Z</time></trkpt><trkpt lat="44.118267" lon="12.2291194"><ele>43.0</ele><time>2026-04-26T07:16:24.019Z</time></trkpt><trkpt lat="44.1181684" lon="12.2289708"><ele>43.0</ele><time>2026-04-26T07:16:25.016Z</time></trkpt><trkpt lat="44.1180626" lon="12.2288071"><ele>43.0</ele><time>2026-04-26T07:16:26.026Z</time></trkpt><trkpt lat="44.1179576" lon="12.2286102"><ele>42.0</ele><time>2026-04-26T07:16:27.011Z</time></trkpt><trkpt lat="44.1178558" lon="12.2283913"><ele>41.0</ele><time>2026-04-26T07:16:28.026Z</time></trkpt><trkpt lat="44.1177416" lon="12.2281681"><ele>40.0</ele><time>2026-04-26T07:16:29.019Z</time></trkpt><trkpt lat="44.1176101" lon="12.2279589"><ele>39.333333333333336</ele><time>2026-04-26T07:16:30.022Z</time></trkpt><trkpt lat="44.1174756" lon="12.2277487"><ele>38.666666666666664</ele><time>2026-04-26T07:16:31.029Z</time></trkpt><trkpt lat="44.1173383" lon="12.2275506"><ele>38.0</ele><time>2026-04-26T07:16:32.027Z</time></trkpt><trkpt lat="44.1172096" lon="12.2273622"><ele>38.0</ele><time>2026-04-26T07:16:33.019Z</time></trkpt><trkpt lat="44.1170653" lon="12.2271856"><ele>38.0</ele><time>2026-04-26T07:16:34.032Z</time></trkpt><trkpt lat="44.1169077" lon="12.227018"><ele>38.0</ele><time>2026-04-26T07:16:35.014Z</time></trkpt><trkpt lat="44.1167333" lon="12.2268537"><ele>39.33333333333333</ele><time>2026-04-26T07:16:36.03Z</time></trkpt><trkpt lat="44.1165595" lon="12.2267041"><ele>40.666666666666664</ele><time>2026-04-26T07:16:37.025Z</time></trkpt><trkpt lat="44.116385" lon="12.2265555"><ele>42.0</ele><time>2026-04-26T07:16:38.033Z</time></trkpt><trkpt lat="44.1162071" lon="12.226407"><ele>42.0</ele><time>2026-04-26T07:16:39.025Z</time></trkpt><trkpt lat="44.1160462" lon="12.2262552"><ele>42.0</ele><time>2026-04-26T07:16:40.025Z</time></trkpt><trkpt lat="44.1159121" lon="12.2261049"><ele>42.0</ele><time>2026-04-26T07:16:41.026Z</time></trkpt><trkpt lat="44.1157969" lon="12.2259565"><ele>42.25</ele><time>2026-04-26T07:16:42.032Z</time></trkpt><trkpt lat="44.1156967" lon="12.2258099"><ele>42.5</ele><time>2026-04-26T07:16:43.028Z</time></trkpt><trkpt lat="44.1156068" lon="12.2256489"><ele>42.75</ele><time>2026-04-26T07:16:44.028Z</time></trkpt><trkpt lat="44.115541" lon="12.2254861"><ele>43.0</ele><time>2026-04-26T07:16:45.023Z</time></trkpt><trkpt lat="44.1154852" lon="12.2253048"><ele>43.0</ele><time>2026-04-26T07:16:46.034Z</time></trkpt><trkpt lat="44.1154215" lon="12.2251061"><ele>43.0</ele><time>2026-04-26T07:16:47.025Z</time></trkpt><trkpt lat="44.1153455" lon="12.2248918"><ele>43.0</ele><time>2026-04-26T07:16:48.026Z</time></trkpt><trkpt lat="44.1152615" lon="12.2246814"><ele>42.66666666666667</ele><time>2026-04-26T07:16:49.024Z</time></trkpt><trkpt lat="44.1151742" lon="12.2244575"><ele>42.333333333333336</ele><time>2026-04-26T07:16:50.017Z</time></trkpt><trkpt lat="44.1150864" lon="12.2242384"><ele>42.0</ele><time>2026-04-26T07:16:51.034Z</time></trkpt><trkpt lat="44.1149965" lon="12.2240247"><ele>42.666666666666664</ele><time>2026-04-26T07:16:52.022Z</time></trkpt><trkpt lat="44.1149066" lon="12.2238215"><ele>43.33333333333333</ele><time>2026-04-26T07:16:53.02Z</time></trkpt><trkpt lat="44.1148317" lon="12.22362"><ele>44.0</ele><time>2026-04-26T07:16:54.035Z</time></trkpt><trkpt lat="44.1147696" lon="12.223424"><ele>44.0</ele><time>2026-04-26T07:16:55.024Z</time></trkpt><trkpt lat="44.1147268" lon="12.2232339"><ele>44.0</ele><time>2026-04-26T07:16:56.027Z</time></trkpt><trkpt lat="44.1146917" lon="12.2230556"><ele>44.0</ele><time>2026-04-26T07:16:57.018Z</time></trkpt><trkpt lat="44.1146493" lon="12.222902"><ele>44.0</ele><time>2026-04-26T07:16:58.026Z</time></trkpt><trkpt lat="44.1145943" lon="12.2227705"><ele>43.83333333333333</ele><time>2026-04-26T07:16:59.018Z</time></trkpt><trkpt lat="44.1145348" lon="12.2226552"><ele>43.666666666666664</ele><time>2026-04-26T07:17:00.026Z</time></trkpt><trkpt lat="44.1144858" lon="12.2225453"><ele>43.5</ele><time>2026-04-26T07:17:01.034Z</time></trkpt><trkpt lat="44.1144377" lon="12.2224405"><ele>43.333333333333336</ele><time>2026-04-26T07:17:02.04Z</time></trkpt><trkpt lat="44.1143866" lon="12.2223431"><ele>43.16666666666667</ele><time>2026-04-26T07:17:03.031Z</time></trkpt><trkpt lat="44.1143359" lon="12.222261"><ele>43.0</ele><time>2026-04-26T07:17:04.032Z</time></trkpt><trkpt lat="44.1142875" lon="12.2221884"><ele>43.0</ele><time>2026-04-26T07:17:05.026Z</time></trkpt><trkpt lat="44.1142405" lon="12.2221189"><ele>43.0</ele><time>2026-04-26T07:17:06.026Z</time></trkpt><trkpt lat="44.1141848" lon="12.2220771"><ele>43.0</ele><time>2026-04-26T07:17:07.031Z</time></trkpt><trkpt lat="44.1140688" lon="12.2220294"><ele>43.0</ele><time>2026-04-26T07:17:09.024Z</time></trkpt><trkpt lat="44.1139636" lon="12.222026"><ele>43.0</ele><time>2026-04-26T07:17:11.03Z</time></trkpt><trkpt lat="44.1138731" lon="12.2220271"><ele>43.0</ele><time>2026-04-26T07:17:13.033Z</time></trkpt><trkpt lat="44.1137898" lon="12.222047"><ele>43.0</ele><time>2026-04-26T07:17:15.028Z</time></trkpt><trkpt lat="44.1137186" lon="12.2220793"><ele>43.0</ele><time>2026-04-26T07:17:17.023Z</time></trkpt><trkpt lat="44.1136547" lon="12.2221108"><ele>43.0</ele><time>2026-04-26T07:17:19.026Z</time></trkpt><trkpt lat="44.1135689" lon="12.2221322"><ele>43.0</ele><time>2026-04-26T07:17:21.028Z</time></trkpt><trkpt lat="44.1134549" lon="12.2221747"><ele>43.0</ele><time>2026-04-26T07:17:23.029Z</time></trkpt><trkpt lat="44.1133535" lon="12.2222268"><ele>43.0</ele><time>2026-04-26T07:17:25.032Z</time></trkpt><trkpt lat="44.1132593" lon="12.2222609"><ele>43.0</ele><time>2026-04-26T07:17:27.039Z</time></trkpt><trkpt lat="44.1131705" lon="12.2222922"><ele>43.0</ele><time>2026-04-26T07:17:29.035Z</time></trkpt><trkpt lat="44.1130891" lon="12.2223237"><ele>43.0</ele><time>2026-04-26T07:17:31.036Z</time></trkpt><trkpt lat="44.1129963" lon="12.2223486"><ele>43.0</ele><time>2026-04-26T07:17:33.035Z</time></trkpt><trkpt lat="44.112923" lon="12.2223682"><ele>43.0</ele><time>2026-04-26T07:17:34.042Z</time></trkpt><trkpt lat="44.1128396" lon="12.2223911"><ele>43.2</ele><time>2026-04-26T07:17:35.032Z</time></trkpt><trkpt lat="44.1127328" lon="12.2224096"><ele>43.4</ele><time>2026-04-26T07:17:36.034Z</time></trkpt><trkpt lat="44.112623" lon="12.2224186"><ele>43.6</ele><time>2026-04-26T07:17:37.028Z</time></trkpt><trkpt lat="44.1125135" lon="12.2223974"><ele>43.800000000000004</ele><time>2026-04-26T07:17:38.038Z</time></trkpt><trkpt lat="44.1124051" lon="12.2223411"><ele>44.0</ele><time>2026-04-26T07:17:39.026Z</time></trkpt><trkpt lat="44.1123074" lon="12.2222584"><ele>44.25</ele><time>2026-04-26T07:17:40.028Z</time></trkpt><trkpt lat="44.1122021" lon="12.222154"><ele>44.5</ele><time>2026-04-26T07:17:41.032Z</time></trkpt><trkpt lat="44.1121003" lon="12.2220236"><ele>44.75</ele><time>2026-04-26T07:17:42.038Z</time></trkpt><trkpt lat="44.1119993" lon="12.2219015"><ele>45.0</ele><time>2026-04-26T07:17:43.03Z</time></trkpt><trkpt lat="44.1119127" lon="12.2217849"><ele>45.0</ele><time>2026-04-26T07:17:44.039Z</time></trkpt><trkpt lat="44.1118259" lon="12.2216645"><ele>45.0</ele><time>2026-04-26T07:17:45.019Z</time></trkpt><trkpt lat="44.1117391" lon="12.2215433"><ele>45.0</ele><time>2026-04-26T07:17:46.027Z</time></trkpt><trkpt lat="44.1116469" lon="12.2214182"><ele>45.0</ele><time>2026-04-26T07:17:47.025Z</time></trkpt><trkpt lat="44.1115525" lon="12.2212882"><ele>45.5</ele><time>2026-04-26T07:17:48.03Z</time></trkpt><trkpt lat="44.1114571" lon="12.2211483"><ele>46.0</ele><time>2026-04-26T07:17:49.024Z</time></trkpt><trkpt lat="44.1113646" lon="12.2210099"><ele>46.5</ele><time>2026-04-26T07:17:50.028Z</time></trkpt><trkpt lat="44.1112772" lon="12.2208637"><ele>47.0</ele><time>2026-04-26T07:17:51.019Z</time></trkpt><trkpt lat="44.1112078" lon="12.220724"><ele>46.75</ele><time>2026-04-26T07:17:52.04Z</time></trkpt><trkpt lat="44.1111381" lon="12.2205876"><ele>46.5</ele><time>2026-04-26T07:17:53.028Z</time></trkpt><trkpt lat="44.1110693" lon="12.2204535"><ele>46.25</ele><time>2026-04-26T07:17:54.031Z</time></trkpt><trkpt lat="44.1110013" lon="12.2203278"><ele>46.0</ele><time>2026-04-26T07:17:55.029Z</time></trkpt><trkpt lat="44.110937" lon="12.2202072"><ele>46.0</ele><time>2026-04-26T07:17:56.03Z</time></trkpt><trkpt lat="44.1108749" lon="12.2201058"><ele>46.0</ele><time>2026-04-26T07:17:57.021Z</time></trkpt><trkpt lat="44.1108038" lon="12.2200234"><ele>46.0</ele><time>2026-04-26T07:17:58.047Z</time></trkpt><trkpt lat="44.1107312" lon="12.219976"><ele>46.0</ele><time>2026-04-26T07:17:59.028Z</time></trkpt><trkpt lat="44.1106637" lon="12.2199267"><ele>46.0</ele><time>2026-04-26T07:18:00.04Z</time></trkpt><trkpt lat="44.1105877" lon="12.2198734"><ele>46.0</ele><time>2026-04-26T07:18:01.031Z</time></trkpt><trkpt lat="44.110504" lon="12.2198108"><ele>46.0</ele><time>2026-04-26T07:18:02.031Z</time></trkpt><trkpt lat="44.1104033" lon="12.2197434"><ele>46.0</ele><time>2026-04-26T07:18:03.023Z</time></trkpt><trkpt lat="44.1103068" lon="12.2196765"><ele>46.0</ele><time>2026-04-26T07:18:04.033Z</time></trkpt><trkpt lat="44.1102167" lon="12.2196172"><ele>46.0</ele><time>2026-04-26T07:18:05.022Z</time></trkpt><trkpt lat="44.110133" lon="12.2195716"><ele>46.0</ele><time>2026-04-26T07:18:06.029Z</time></trkpt><trkpt lat="44.1100567" lon="12.2195441"><ele>46.0</ele><time>2026-04-26T07:18:07.023Z</time></trkpt><trkpt lat="44.1099829" lon="12.2195162"><ele>46.0</ele><time>2026-04-26T07:18:08.037Z</time></trkpt><trkpt lat="44.1099125" lon="12.2194962"><ele>46.0</ele><time>2026-04-26T07:18:09.027Z</time></trkpt><trkpt lat="44.1098312" lon="12.2194694"><ele>46.0</ele><time>2026-04-26T07:18:10.035Z</time></trkpt><trkpt lat="44.1097432" lon="12.2194538"><ele>46.0</ele><time>2026-04-26T07:18:11.023Z</time></trkpt><trkpt lat="44.1096449" lon="12.2194291"><ele>46.0</ele><time>2026-04-26T07:18:12.028Z</time></trkpt><trkpt lat="44.1095321" lon="12.2194047"><ele>46.0</ele><time>2026-04-26T07:18:13.031Z</time></trkpt><trkpt lat="44.1094205" lon="12.2193681"><ele>46.0</ele><time>2026-04-26T07:18:14.034Z</time></trkpt><trkpt lat="44.109309" lon="12.2193346"><ele>46.0</ele><time>2026-04-26T07:18:15.032Z</time></trkpt><trkpt lat="44.1092065" lon="12.2192985"><ele>46.0</ele><time>2026-04-26T07:18:16.028Z</time></trkpt><trkpt lat="44.1091057" lon="12.2192534"><ele>46.0</ele><time>2026-04-26T07:18:17.033Z</time></trkpt><trkpt lat="44.109014" lon="12.2191951"><ele>45.833333333333336</ele><time>2026-04-26T07:18:18.021Z</time></trkpt><trkpt lat="44.1089316" lon="12.2191399"><ele>45.66666666666667</ele><time>2026-04-26T07:18:19.026Z</time></trkpt><trkpt lat="44.108846" lon="12.2190827"><ele>45.5</ele><time>2026-04-26T07:18:20.032Z</time></trkpt><trkpt lat="44.1087672" lon="12.2190235"><ele>45.333333333333336</ele><time>2026-04-26T07:18:21.025Z</time></trkpt><trkpt lat="44.1087065" lon="12.2189725"><ele>45.166666666666664</ele><time>2026-04-26T07:18:22.04Z</time></trkpt><trkpt lat="44.1086473" lon="12.2189203"><ele>45.0</ele><time>2026-04-26T07:18:23.027Z</time></trkpt><trkpt lat="44.1085874" lon="12.2188687"><ele>45.0</ele><time>2026-04-26T07:18:24.043Z</time></trkpt><trkpt lat="44.1085289" lon="12.2188204"><ele>45.0</ele><time>2026-04-26T07:18:25.028Z</time></trkpt><trkpt lat="44.1084678" lon="12.2187673"><ele>45.0</ele><time>2026-04-26T07:18:26.031Z</time></trkpt><trkpt lat="44.1083424" lon="12.2187114"><ele>45.0</ele><time>2026-04-26T07:18:28.03Z</time></trkpt><trkpt lat="44.1082652" lon="12.218707"><ele>45.0</ele><time>2026-04-26T07:18:29.038Z</time></trkpt><trkpt lat="44.1081873" lon="12.2187079"><ele>45.0</ele><time>2026-04-26T07:18:30.029Z</time></trkpt><trkpt lat="44.1081108" lon="12.2187181"><ele>44.833333333333336</ele><time>2026-04-26T07:18:31.027Z</time></trkpt><trkpt lat="44.1080425" lon="12.2187204"><ele>44.666666666666664</ele><time>2026-04-26T07:18:32.028Z</time></trkpt><trkpt lat="44.1079671" lon="12.218725"><ele>44.5</ele><time>2026-04-26T07:18:33.03Z</time></trkpt><trkpt lat="44.1078983" lon="12.218738"><ele>44.33333333333333</ele><time>2026-04-26T07:18:34.039Z</time></trkpt><trkpt lat="44.1078263" lon="12.2187457"><ele>44.166666666666664</ele><time>2026-04-26T07:18:35.03Z</time></trkpt><trkpt lat="44.1077432" lon="12.2187512"><ele>44.0</ele><time>2026-04-26T07:18:36.034Z</time></trkpt><trkpt lat="44.107633" lon="12.2187728"><ele>44.0</ele><time>2026-04-26T07:18:37.028Z</time></trkpt><trkpt lat="44.1074905" lon="12.2187886"><ele>44.0</ele><time>2026-04-26T07:18:38.052Z</time></trkpt><trkpt lat="44.1073543" lon="12.2187998"><ele>44.0</ele><time>2026-04-26T07:18:39.034Z</time></trkpt><trkpt lat="44.1072301" lon="12.218807"><ele>44.0</ele><time>2026-04-26T07:18:40.031Z</time></trkpt><trkpt lat="44.1070934" lon="12.2188191"><ele>44.0</ele><time>2026-04-26T07:18:41.035Z</time></trkpt><trkpt lat="44.1069297" lon="12.2188385"><ele>44.0</ele><time>2026-04-26T07:18:42.03Z</time></trkpt><trkpt lat="44.1067631" lon="12.2188696"><ele>44.0</ele><time>2026-04-26T07:18:43.029Z</time></trkpt><trkpt lat="44.1065985" lon="12.2188835"><ele>44.75</ele><time>2026-04-26T07:18:44.028Z</time></trkpt><trkpt lat="44.1064434" lon="12.2188726"><ele>45.5</ele><time>2026-04-26T07:18:45.032Z</time></trkpt><trkpt lat="44.1062932" lon="12.218832"><ele>46.25</ele><time>2026-04-26T07:18:46.031Z</time></trkpt><trkpt lat="44.1061574" lon="12.2187938"><ele>47.0</ele><time>2026-04-26T07:18:47.029Z</time></trkpt><trkpt lat="44.1060228" lon="12.2187485"><ele>47.0</ele><time>2026-04-26T07:18:48.027Z</time></trkpt><trkpt lat="44.1058908" lon="12.2186765"><ele>47.0</ele><time>2026-04-26T07:18:49.03Z</time></trkpt><trkpt lat="44.1057608" lon="12.2185642"><ele>47.0</ele><time>2026-04-26T07:18:50.038Z</time></trkpt><trkpt lat="44.1056411" lon="12.2184448"><ele>47.0</ele><time>2026-04-26T07:18:51.031Z</time></trkpt><trkpt lat="44.1055221" lon="12.2183116"><ele>48.0</ele><time>2026-04-26T07:18:52.03Z</time></trkpt><trkpt lat="44.1054208" lon="12.2182054"><ele>49.0</ele><time>2026-04-26T07:18:53.032Z</time></trkpt><trkpt lat="44.1053227" lon="12.218104"><ele>50.0</ele><time>2026-04-26T07:18:54.03Z</time></trkpt><trkpt lat="44.1052354" lon="12.2179993"><ele>51.0</ele><time>2026-04-26T07:18:55.041Z</time></trkpt><trkpt lat="44.1051461" lon="12.2178975"><ele>51.0</ele><time>2026-04-26T07:18:56.025Z</time></trkpt><trkpt lat="44.1050498" lon="12.2178011"><ele>51.0</ele><time>2026-04-26T07:18:57.031Z</time></trkpt><trkpt lat="44.1049536" lon="12.2176999"><ele>51.0</ele><time>2026-04-26T07:18:58.033Z</time></trkpt><trkpt lat="44.1048607" lon="12.2175963"><ele>51.0</ele><time>2026-04-26T07:18:59.03Z</time></trkpt><trkpt lat="44.1047661" lon="12.2174956"><ele>52.0</ele><time>2026-04-26T07:19:00.034Z</time></trkpt><trkpt lat="44.1046717" lon="12.2173993"><ele>53.0</ele><time>2026-04-26T07:19:01.03Z</time></trkpt><trkpt lat="44.1045722" lon="12.2173019"><ele>54.0</ele><time>2026-04-26T07:19:02.043Z</time></trkpt><trkpt lat="44.1044761" lon="12.2172052"><ele>55.0</ele><time>2026-04-26T07:19:03.031Z</time></trkpt><trkpt lat="44.1043819" lon="12.2171112"><ele>55.0</ele><time>2026-04-26T07:19:04.034Z</time></trkpt><trkpt lat="44.1042859" lon="12.217013"><ele>55.0</ele><time>2026-04-26T07:19:05.023Z</time></trkpt><trkpt lat="44.1041906" lon="12.2169156"><ele>55.0</ele><time>2026-04-26T07:19:06.034Z</time></trkpt><trkpt lat="44.1040967" lon="12.2168082"><ele>55.0</ele><time>2026-04-26T07:19:07.031Z</time></trkpt><trkpt lat="44.1040029" lon="12.2167012"><ele>55.25</ele><time>2026-04-26T07:19:08.026Z</time></trkpt><trkpt lat="44.1039076" lon="12.2165999"><ele>55.5</ele><time>2026-04-26T07:19:09.027Z</time></trkpt><trkpt lat="44.1038162" lon="12.2164909"><ele>55.75</ele><time>2026-04-26T07:19:10.04Z</time></trkpt><trkpt lat="44.1037243" lon="12.2163854"><ele>56.0</ele><time>2026-04-26T07:19:11.039Z</time></trkpt><trkpt lat="44.1036316" lon="12.2162802"><ele>56.0</ele><time>2026-04-26T07:19:12.037Z</time></trkpt><trkpt lat="44.103538" lon="12.2161711"><ele>56.0</ele><time>2026-04-26T07:19:13.03Z</time></trkpt><trkpt lat="44.1034486" lon="12.2160627"><ele>56.0</ele><time>2026-04-26T07:19:14.032Z</time></trkpt><trkpt lat="44.1033599" lon="12.2159448"><ele>56.0</ele><time>2026-04-26T07:19:15.025Z</time></trkpt><trkpt lat="44.1032743" lon="12.2158312"><ele>56.199999999999996</ele><time>2026-04-26T07:19:16.028Z</time></trkpt><trkpt lat="44.1031877" lon="12.2157118"><ele>56.39999999999999</ele><time>2026-04-26T07:19:17.025Z</time></trkpt><trkpt lat="44.1031022" lon="12.2156061"><ele>56.6</ele><time>2026-04-26T07:19:18.035Z</time></trkpt><trkpt lat="44.1030283" lon="12.2155049"><ele>56.8</ele><time>2026-04-26T07:19:19.026Z</time></trkpt><trkpt lat="44.1029532" lon="12.2154058"><ele>57.0</ele><time>2026-04-26T07:19:20.032Z</time></trkpt><trkpt lat="44.1028729" lon="12.2153014"><ele>57.0</ele><time>2026-04-26T07:19:21.023Z</time></trkpt><trkpt lat="44.1027905" lon="12.215197"><ele>57.0</ele><time>2026-04-26T07:19:22.033Z</time></trkpt><trkpt lat="44.1027104" lon="12.2151001"><ele>57.0</ele><time>2026-04-26T07:19:23.029Z</time></trkpt><trkpt lat="44.1026356" lon="12.2150138"><ele>57.0</ele><time>2026-04-26T07:19:24.025Z</time></trkpt><trkpt lat="44.1025604" lon="12.2149273"><ele>57.0</ele><time>2026-04-26T07:19:25.033Z</time></trkpt><trkpt lat="44.1024842" lon="12.2148334"><ele>56.166666666666664</ele><time>2026-04-26T07:19:26.035Z</time></trkpt><trkpt lat="44.1024155" lon="12.2147445"><ele>55.33333333333333</ele><time>2026-04-26T07:19:27.028Z</time></trkpt><trkpt lat="44.1023458" lon="12.2146664"><ele>54.5</ele><time>2026-04-26T07:19:28.039Z</time></trkpt><trkpt lat="44.1022814" lon="12.2145932"><ele>53.666666666666664</ele><time>2026-04-26T07:19:29.023Z</time></trkpt><trkpt lat="44.1022211" lon="12.2145255"><ele>52.83333333333333</ele><time>2026-04-26T07:19:30.031Z</time></trkpt><trkpt lat="44.1021579" lon="12.2144736"><ele>52.0</ele><time>2026-04-26T07:19:31.023Z</time></trkpt><trkpt lat="44.1020904" lon="12.2144357"><ele>51.83333333333333</ele><time>2026-04-26T07:19:32.038Z</time></trkpt><trkpt lat="44.1020216" lon="12.2143884"><ele>51.666666666666664</ele><time>2026-04-26T07:19:33.025Z</time></trkpt><trkpt lat="44.1019379" lon="12.2143587"><ele>51.5</ele><time>2026-04-26T07:19:34.028Z</time></trkpt><trkpt lat="44.1018561" lon="12.2143426"><ele>51.33333333333333</ele><time>2026-04-26T07:19:35.021Z</time></trkpt><trkpt lat="44.1017642" lon="12.2143299"><ele>51.166666666666664</ele><time>2026-04-26T07:19:36.033Z</time></trkpt><trkpt lat="44.1016617" lon="12.2143166"><ele>51.0</ele><time>2026-04-26T07:19:37.031Z</time></trkpt><trkpt lat="44.1015569" lon="12.2143172"><ele>50.199999999999996</ele><time>2026-04-26T07:19:38.041Z</time></trkpt><trkpt lat="44.1014463" lon="12.2143162"><ele>49.4</ele><time>2026-04-26T07:19:39.04Z</time></trkpt><trkpt lat="44.1013483" lon="12.2143153"><ele>48.6</ele><time>2026-04-26T07:19:40.027Z</time></trkpt><trkpt lat="44.1012544" lon="12.2143095"><ele>47.8</ele><time>2026-04-26T07:19:41.031Z</time></trkpt><trkpt lat="44.1011599" lon="12.2142987"><ele>47.0</ele><time>2026-04-26T07:19:42.026Z</time></trkpt><trkpt lat="44.1010702" lon="12.2142764"><ele>47.0</ele><time>2026-04-26T07:19:43.03Z</time></trkpt><trkpt lat="44.1009777" lon="12.2142364"><ele>47.0</ele><time>2026-04-26T07:19:44.029Z</time></trkpt><trkpt lat="44.1008939" lon="12.2141873"><ele>47.0</ele><time>2026-04-26T07:19:45.032Z</time></trkpt><trkpt lat="44.1008194" lon="12.2141285"><ele>47.0</ele><time>2026-04-26T07:19:46.025Z</time></trkpt><trkpt lat="44.1007548" lon="12.2140694"><ele>47.0</ele><time>2026-04-26T07:19:47.034Z</time></trkpt><trkpt lat="44.1006909" lon="12.2140068"><ele>47.0</ele><time>2026-04-26T07:19:48.031Z</time></trkpt><trkpt lat="44.1006275" lon="12.2139516"><ele>48.5</ele><time>2026-04-26T07:19:49.031Z</time></trkpt><trkpt lat="44.1005637" lon="12.2139121"><ele>50.0</ele><time>2026-04-26T07:19:50.033Z</time></trkpt><trkpt lat="44.1004826" lon="12.213903"><ele>51.5</ele><time>2026-04-26T07:19:51.029Z</time></trkpt><trkpt lat="44.100391" lon="12.2139048"><ele>53.0</ele><time>2026-04-26T07:19:52.032Z</time></trkpt><trkpt lat="44.1002965" lon="12.21393"><ele>54.50000000000001</ele><time>2026-04-26T07:19:53.031Z</time></trkpt><trkpt lat="44.1002042" lon="12.2139642"><ele>56.0</ele><time>2026-04-26T07:19:54.027Z</time></trkpt><trkpt lat="44.1001158" lon="12.2140078"><ele>56.00000000000001</ele><time>2026-04-26T07:19:55.04Z</time></trkpt><trkpt lat="44.1000282" lon="12.2140607"><ele>56.0</ele><time>2026-04-26T07:19:56.025Z</time></trkpt><trkpt lat="44.0999528" lon="12.2141115"><ele>56.0</ele><time>2026-04-26T07:19:57.033Z</time></trkpt><trkpt lat="44.099881" lon="12.2141732"><ele>56.0</ele><time>2026-04-26T07:19:58.022Z</time></trkpt><trkpt lat="44.0998069" lon="12.2142297"><ele>56.00000000000001</ele><time>2026-04-26T07:19:59.026Z</time></trkpt><trkpt lat="44.0997334" lon="12.2142638"><ele>56.0</ele><time>2026-04-26T07:20:00.038Z</time></trkpt><trkpt lat="44.0996679" lon="12.2142808"><ele>57.599999999999994</ele><time>2026-04-26T07:20:01.031Z</time></trkpt><trkpt lat="44.099589" lon="12.2142836"><ele>59.199999999999996</ele><time>2026-04-26T07:20:02.033Z</time></trkpt><trkpt lat="44.0995005" lon="12.2142642"><ele>60.800000000000004</ele><time>2026-04-26T07:20:03.029Z</time></trkpt><trkpt lat="44.0993894" lon="12.2142468"><ele>62.400000000000006</ele><time>2026-04-26T07:20:04.036Z</time></trkpt><trkpt lat="44.0992625" lon="12.214211"><ele>64.0</ele><time>2026-04-26T07:20:05.039Z</time></trkpt><trkpt lat="44.099119" lon="12.2141564"><ele>64.33333333333333</ele><time>2026-04-26T07:20:06.028Z</time></trkpt><trkpt lat="44.0989464" lon="12.2140839"><ele>64.66666666666667</ele><time>2026-04-26T07:20:07.022Z</time></trkpt><trkpt lat="44.0987376" lon="12.2139909"><ele>65.0</ele><time>2026-04-26T07:20:08.026Z</time></trkpt><trkpt lat="44.0985244" lon="12.2138971"><ele>62.333333333333336</ele><time>2026-04-26T07:20:09.02Z</time></trkpt><trkpt lat="44.0983306" lon="12.2138168"><ele>59.66666666666667</ele><time>2026-04-26T07:20:10.025Z</time></trkpt><trkpt lat="44.0981493" lon="12.2137389"><ele>57.0</ele><time>2026-04-26T07:20:11.023Z</time></trkpt><trkpt lat="44.0979745" lon="12.2136662"><ele>56.66666666666667</ele><time>2026-04-26T07:20:12.028Z</time></trkpt><trkpt lat="44.097811" lon="12.2135976"><ele>56.333333333333336</ele><time>2026-04-26T07:20:13.024Z</time></trkpt><trkpt lat="44.0976473" lon="12.213532"><ele>56.0</ele><time>2026-04-26T07:20:14.033Z</time></trkpt><trkpt lat="44.0974883" lon="12.213454"><ele>57.333333333333336</ele><time>2026-04-26T07:20:15.024Z</time></trkpt><trkpt lat="44.0973273" lon="12.2133798"><ele>58.66666666666667</ele><time>2026-04-26T07:20:16.033Z</time></trkpt><trkpt lat="44.0971579" lon="12.2133039"><ele>60.0</ele><time>2026-04-26T07:20:17.028Z</time></trkpt><trkpt lat="44.0969954" lon="12.2132131"><ele>60.0</ele><time>2026-04-26T07:20:18.021Z</time></trkpt><trkpt lat="44.0968376" lon="12.2131203"><ele>60.0</ele><time>2026-04-26T07:20:19.032Z</time></trkpt><trkpt lat="44.0966897" lon="12.2130406"><ele>60.0</ele><time>2026-04-26T07:20:20.021Z</time></trkpt><trkpt lat="44.0965493" lon="12.2129648"><ele>60.0</ele><time>2026-04-26T07:20:21.026Z</time></trkpt><trkpt lat="44.0964071" lon="12.2128886"><ele>60.0</ele><time>2026-04-26T07:20:22.036Z</time></trkpt><trkpt lat="44.0962632" lon="12.2128115"><ele>60.0</ele><time>2026-04-26T07:20:23.028Z</time></trkpt><trkpt lat="44.0961277" lon="12.2127427"><ele>60.0</ele><time>2026-04-26T07:20:24.023Z</time></trkpt><trkpt lat="44.0959947" lon="12.2126691"><ele>60.0</ele><time>2026-04-26T07:20:25.026Z</time></trkpt><trkpt lat="44.0958716" lon="12.2126042"><ele>60.0</ele><time>2026-04-26T07:20:26.036Z</time></trkpt><trkpt lat="44.0957524" lon="12.2125444"><ele>60.0</ele><time>2026-04-26T07:20:27.031Z</time></trkpt><trkpt lat="44.0956479" lon="12.2124968"><ele>60.5</ele><time>2026-04-26T07:20:28.03Z</time></trkpt><trkpt lat="44.0955597" lon="12.212454"><ele>61.0</ele><time>2026-04-26T07:20:29.025Z</time></trkpt><trkpt lat="44.0954793" lon="12.2124126"><ele>61.5</ele><time>2026-04-26T07:20:30.041Z</time></trkpt><trkpt lat="44.0954104" lon="12.2123692"><ele>62.0</ele><time>2026-04-26T07:20:31.032Z</time></trkpt><trkpt lat="44.0953207" lon="12.2123603"><ele>62.5</ele><time>2026-04-26T07:20:33.036Z</time></trkpt><trkpt lat="44.095284" lon="12.2124339"><ele>63.0</ele><time>2026-04-26T07:20:36.032Z</time></trkpt><trkpt lat="44.0953233" lon="12.2123574"><ele>63.0</ele><time>2026-04-26T07:23:10.031Z</time></trkpt><trkpt lat="44.0952364" lon="12.2122225"><ele>63.0</ele><time>2026-04-26T07:23:13.023Z</time></trkpt><trkpt lat="44.0951662" lon="12.2121584"><ele>63.0</ele><time>2026-04-26T07:23:14.027Z</time></trkpt><trkpt lat="44.0950689" lon="12.2120577"><ele>63.0</ele><time>2026-04-26T07:23:15.023Z</time></trkpt><trkpt lat="44.0949644" lon="12.2119517"><ele>65.5</ele><time>2026-04-26T07:23:16.023Z</time></trkpt><trkpt lat="44.0948545" lon="12.211837"><ele>68.0</ele><time>2026-04-26T07:23:17.024Z</time></trkpt><trkpt lat="44.0947521" lon="12.2117201"><ele>70.5</ele><time>2026-04-26T07:23:18.034Z</time></trkpt><trkpt lat="44.0946644" lon="12.2115983"><ele>73.0</ele><time>2026-04-26T07:23:19.037Z</time></trkpt><trkpt lat="44.0945818" lon="12.2114547"><ele>73.0</ele><time>2026-04-26T07:23:20.031Z</time></trkpt><trkpt lat="44.0944865" lon="12.2112851"><ele>73.0</ele><time>2026-04-26T07:23:21.018Z</time></trkpt><trkpt lat="44.0943732" lon="12.2110873"><ele>73.0</ele><time>2026-04-26T07:23:22.034Z</time></trkpt><trkpt lat="44.0942673" lon="12.2108738"><ele>73.0</ele><time>2026-04-26T07:23:23.018Z</time></trkpt><trkpt lat="44.0941771" lon="12.2106634"><ele>73.0</ele><time>2026-04-26T07:23:24.027Z</time></trkpt><trkpt lat="44.09408" lon="12.2104795"><ele>73.0</ele><time>2026-04-26T07:23:25.017Z</time></trkpt><trkpt lat="44.0939586" lon="12.2102998"><ele>72.0</ele><time>2026-04-26T07:23:26.029Z</time></trkpt><trkpt lat="44.093835" lon="12.2101342"><ele>71.0</ele><time>2026-04-26T07:23:27.022Z</time></trkpt><trkpt lat="44.0937372" lon="12.2099529"><ele>70.0</ele><time>2026-04-26T07:23:28.011Z</time></trkpt><trkpt lat="44.0936662" lon="12.2097237"><ele>70.0</ele><time>2026-04-26T07:23:29.028Z</time></trkpt><trkpt lat="44.0935956" lon="12.2094753"><ele>70.0</ele><time>2026-04-26T07:23:30.018Z</time></trkpt><trkpt lat="44.0935252" lon="12.2092454"><ele>70.0</ele><time>2026-04-26T07:23:31.029Z</time></trkpt><trkpt lat="44.0934598" lon="12.2090344"><ele>70.33333333333333</ele><time>2026-04-26T07:23:32.014Z</time></trkpt><trkpt lat="44.0933748" lon="12.2088113"><ele>70.66666666666667</ele><time>2026-04-26T07:23:33.016Z</time></trkpt><trkpt lat="44.0932556" lon="12.2085725"><ele>71.0</ele><time>2026-04-26T07:23:34.024Z</time></trkpt><trkpt lat="44.0931163" lon="12.2082975"><ele>68.33333333333334</ele><time>2026-04-26T07:23:35.023Z</time></trkpt><trkpt lat="44.0929912" lon="12.2080423"><ele>65.66666666666667</ele><time>2026-04-26T07:23:36.026Z</time></trkpt><trkpt lat="44.0928751" lon="12.2078178"><ele>63.0</ele><time>2026-04-26T07:23:37.036Z</time></trkpt><trkpt lat="44.092771" lon="12.2076048"><ele>63.0</ele><time>2026-04-26T07:23:38.033Z</time></trkpt><trkpt lat="44.0926481" lon="12.2074036"><ele>63.0</ele><time>2026-04-26T07:23:39.016Z</time></trkpt><trkpt lat="44.0925103" lon="12.2071923"><ele>63.0</ele><time>2026-04-26T07:23:40.021Z</time></trkpt><trkpt lat="44.0923634" lon="12.2069682"><ele>63.33333333333333</ele><time>2026-04-26T07:23:41.025Z</time></trkpt><trkpt lat="44.0922118" lon="12.2067418"><ele>63.666666666666664</ele><time>2026-04-26T07:23:42.023Z</time></trkpt><trkpt lat="44.0920672" lon="12.2065281"><ele>64.0</ele><time>2026-04-26T07:23:43.019Z</time></trkpt><trkpt lat="44.0919284" lon="12.2063347"><ele>63.33333333333333</ele><time>2026-04-26T07:23:44.042Z</time></trkpt><trkpt lat="44.0918017" lon="12.2061565"><ele>62.66666666666667</ele><time>2026-04-26T07:23:45.018Z</time></trkpt><trkpt lat="44.0916723" lon="12.205994"><ele>62.0</ele><time>2026-04-26T07:23:46.025Z</time></trkpt><trkpt lat="44.0915486" lon="12.2058249"><ele>62.0</ele><time>2026-04-26T07:23:47.025Z</time></trkpt><trkpt lat="44.0914275" lon="12.2056679"><ele>62.0</ele><time>2026-04-26T07:23:48.035Z</time></trkpt><trkpt lat="44.0913087" lon="12.2055215"><ele>62.0</ele><time>2026-04-26T07:23:49.035Z</time></trkpt><trkpt lat="44.0912014" lon="12.2053884"><ele>61.5</ele><time>2026-04-26T07:23:50.04Z</time></trkpt><trkpt lat="44.0911007" lon="12.2052557"><ele>61.0</ele><time>2026-04-26T07:23:51.025Z</time></trkpt><trkpt lat="44.0910181" lon="12.2051232"><ele>60.5</ele><time>2026-04-26T07:23:52.028Z</time></trkpt><trkpt lat="44.0909714" lon="12.2050017"><ele>60.0</ele><time>2026-04-26T07:23:53.029Z</time></trkpt><trkpt lat="44.0909432" lon="12.2048742"><ele>60.0</ele><time>2026-04-26T07:23:54.045Z</time></trkpt><trkpt lat="44.0909382" lon="12.2047478"><ele>60.0</ele><time>2026-04-26T07:23:55.02Z</time></trkpt><trkpt lat="44.0909638" lon="12.2046006"><ele>60.0</ele><time>2026-04-26T07:23:56.011Z</time></trkpt><trkpt lat="44.0910098" lon="12.204429"><ele>60.0</ele><time>2026-04-26T07:23:57.026Z</time></trkpt><trkpt lat="44.0910403" lon="12.2042506"><ele>60.0</ele><time>2026-04-26T07:23:58.023Z</time></trkpt><trkpt lat="44.0910562" lon="12.2040605"><ele>60.0</ele><time>2026-04-26T07:23:59.035Z</time></trkpt><trkpt lat="44.0910428" lon="12.2038454"><ele>60.0</ele><time>2026-04-26T07:24:00.021Z</time></trkpt><trkpt lat="44.0910078" lon="12.2036121"><ele>58.66666666666667</ele><time>2026-04-26T07:24:01.037Z</time></trkpt><trkpt lat="44.090972" lon="12.2033685"><ele>57.333333333333336</ele><time>2026-04-26T07:24:02.027Z</time></trkpt><trkpt lat="44.0909383" lon="12.2031096"><ele>56.0</ele><time>2026-04-26T07:24:03.026Z</time></trkpt><trkpt lat="44.0909114" lon="12.2028568"><ele>56.0</ele><time>2026-04-26T07:24:04.017Z</time></trkpt><trkpt lat="44.0908832" lon="12.202622"><ele>56.0</ele><time>2026-04-26T07:24:05.027Z</time></trkpt><trkpt lat="44.0908582" lon="12.2024239"><ele>56.0</ele><time>2026-04-26T07:24:06.034Z</time></trkpt><trkpt lat="44.0908348" lon="12.2022353"><ele>55.25</ele><time>2026-04-26T07:24:07.043Z</time></trkpt><trkpt lat="44.0908138" lon="12.2020528"><ele>54.5</ele><time>2026-04-26T07:24:08.05Z</time></trkpt><trkpt lat="44.09079" lon="12.2018867"><ele>53.75</ele><time>2026-04-26T07:24:09.027Z</time></trkpt><trkpt lat="44.0907684" lon="12.2017415"><ele>53.0</ele><time>2026-04-26T07:24:10.025Z</time></trkpt><trkpt lat="44.0907505" lon="12.2015861"><ele>51.2</ele><time>2026-04-26T07:24:11.064Z</time></trkpt><trkpt lat="44.0907388" lon="12.2014263"><ele>49.4</ele><time>2026-04-26T07:24:12.028Z</time></trkpt><trkpt lat="44.0907285" lon="12.2012719"><ele>47.6</ele><time>2026-04-26T07:24:13.034Z</time></trkpt><trkpt lat="44.0907245" lon="12.2011386"><ele>45.800000000000004</ele><time>2026-04-26T07:24:14.027Z</time></trkpt><trkpt lat="44.0907242" lon="12.2010158"><ele>44.0</ele><time>2026-04-26T07:24:15.032Z</time></trkpt><trkpt lat="44.0907331" lon="12.20089"><ele>44.0</ele><time>2026-04-26T07:24:16.025Z</time></trkpt><trkpt lat="44.0907496" lon="12.2007404"><ele>44.0</ele><time>2026-04-26T07:24:17.026Z</time></trkpt><trkpt lat="44.0907769" lon="12.2005816"><ele>44.0</ele><time>2026-04-26T07:24:18.032Z</time></trkpt><trkpt lat="44.0908328" lon="12.200408"><ele>44.0</ele><time>2026-04-26T07:24:19.028Z</time></trkpt><trkpt lat="44.0909059" lon="12.2002253"><ele>44.666666666666664</ele><time>2026-04-26T07:24:20.031Z</time></trkpt><trkpt lat="44.0909846" lon="12.2000391"><ele>45.333333333333336</ele><time>2026-04-26T07:24:21.033Z</time></trkpt><trkpt lat="44.0910659" lon="12.1998384"><ele>46.0</ele><time>2026-04-26T07:24:22.042Z</time></trkpt><trkpt lat="44.0911348" lon="12.1996467"><ele>47.0</ele><time>2026-04-26T07:24:23.032Z</time></trkpt><trkpt lat="44.091193" lon="12.1994808"><ele>48.0</ele><time>2026-04-26T07:24:24.033Z</time></trkpt><trkpt lat="44.0912452" lon="12.1993211"><ele>49.0</ele><time>2026-04-26T07:24:25.037Z</time></trkpt><trkpt lat="44.0912988" lon="12.1991398"><ele>50.0</ele><time>2026-04-26T07:24:26.034Z</time></trkpt><trkpt lat="44.0913452" lon="12.1989743"><ele>50.8</ele><time>2026-04-26T07:24:27.028Z</time></trkpt><trkpt lat="44.0913785" lon="12.1988272"><ele>51.6</ele><time>2026-04-26T07:24:28.021Z</time></trkpt><trkpt lat="44.0914623" lon="12.1986916"><ele>52.400000000000006</ele><time>2026-04-26T07:24:30.024Z</time></trkpt><trkpt lat="44.0915244" lon="12.1986516"><ele>53.2</ele><time>2026-04-26T07:24:31.021Z</time></trkpt><trkpt lat="44.0915994" lon="12.1986374"><ele>54.0</ele><time>2026-04-26T07:24:32.032Z</time></trkpt><trkpt lat="44.0917136" lon="12.1985983"><ele>54.800000000000004</ele><time>2026-04-26T07:24:34.041Z</time></trkpt><trkpt lat="44.0917969" lon="12.1984612"><ele>55.60000000000001</ele><time>2026-04-26T07:24:36.038Z</time></trkpt><trkpt lat="44.0918345" lon="12.1983426"><ele>56.4</ele><time>2026-04-26T07:24:37.027Z</time></trkpt><trkpt lat="44.0918702" lon="12.1982019"><ele>57.2</ele><time>2026-04-26T07:24:38.005Z</time></trkpt><trkpt lat="44.0919023" lon="12.1980598"><ele>58.0</ele><time>2026-04-26T07:24:39.032Z</time></trkpt><trkpt lat="44.091939" lon="12.1979075"><ele>58.0</ele><time>2026-04-26T07:24:40.026Z</time></trkpt><trkpt lat="44.0919765" lon="12.1977415"><ele>58.0</ele><time>2026-04-26T07:24:41.043Z</time></trkpt><trkpt lat="44.0920199" lon="12.1975898"><ele>58.0</ele><time>2026-04-26T07:24:42.032Z</time></trkpt><trkpt lat="44.0920721" lon="12.1974246"><ele>58.0</ele><time>2026-04-26T07:24:43.027Z</time></trkpt><trkpt lat="44.0921169" lon="12.1972621"><ele>58.0</ele><time>2026-04-26T07:24:44.035Z</time></trkpt><trkpt lat="44.0921474" lon="12.1970871"><ele>58.0</ele><time>2026-04-26T07:24:45.029Z</time></trkpt><trkpt lat="44.0921701" lon="12.1969305"><ele>58.0</ele><time>2026-04-26T07:24:46.025Z</time></trkpt><trkpt lat="44.0921952" lon="12.1967934"><ele>58.0</ele><time>2026-04-26T07:24:47.029Z</time></trkpt><trkpt lat="44.0922442" lon="12.1966703"><ele>58.0</ele><time>2026-04-26T07:24:48.033Z</time></trkpt><trkpt lat="44.0923101" lon="12.1965543"><ele>58.5</ele><time>2026-04-26T07:24:49.023Z</time></trkpt><trkpt lat="44.0923956" lon="12.1964434"><ele>59.0</ele><time>2026-04-26T07:24:50.034Z</time></trkpt><trkpt lat="44.0924944" lon="12.1963129"><ele>59.5</ele><time>2026-04-26T07:24:51.037Z</time></trkpt><trkpt lat="44.092596" lon="12.1961496"><ele>60.0</ele><time>2026-04-26T07:24:52.037Z</time></trkpt><trkpt lat="44.0927125" lon="12.1959843"><ele>60.75</ele><time>2026-04-26T07:24:53.026Z</time></trkpt><trkpt lat="44.0928192" lon="12.1958353"><ele>61.5</ele><time>2026-04-26T07:24:54.035Z</time></trkpt><trkpt lat="44.0929059" lon="12.1957002"><ele>62.25</ele><time>2026-04-26T07:24:55.024Z</time></trkpt><trkpt lat="44.0929991" lon="12.1955703"><ele>63.0</ele><time>2026-04-26T07:24:56.03Z</time></trkpt><trkpt lat="44.093085" lon="12.195437"><ele>63.5</ele><time>2026-04-26T07:24:57.027Z</time></trkpt><trkpt lat="44.0931737" lon="12.1953067"><ele>64.0</ele><time>2026-04-26T07:24:58.026Z</time></trkpt><trkpt lat="44.0932627" lon="12.1951804"><ele>64.5</ele><time>2026-04-26T07:24:59.022Z</time></trkpt><trkpt lat="44.0933483" lon="12.1950524"><ele>65.0</ele><time>2026-04-26T07:25:00.037Z</time></trkpt><trkpt lat="44.093432" lon="12.1949308"><ele>65.5</ele><time>2026-04-26T07:25:01.025Z</time></trkpt><trkpt lat="44.0935177" lon="12.1948058"><ele>66.0</ele><time>2026-04-26T07:25:02.027Z</time></trkpt><trkpt lat="44.0936001" lon="12.1946772"><ele>66.5</ele><time>2026-04-26T07:25:03.027Z</time></trkpt><trkpt lat="44.0936716" lon="12.1945598"><ele>67.0</ele><time>2026-04-26T07:25:04.051Z</time></trkpt><trkpt lat="44.0937382" lon="12.1944527"><ele>67.0</ele><time>2026-04-26T07:25:05.031Z</time></trkpt><trkpt lat="44.0937965" lon="12.1943529"><ele>67.0</ele><time>2026-04-26T07:25:06.031Z</time></trkpt><trkpt lat="44.093853" lon="12.1942702"><ele>67.0</ele><time>2026-04-26T07:25:07.024Z</time></trkpt><trkpt lat="44.0939027" lon="12.1941914"><ele>67.0</ele><time>2026-04-26T07:25:08.035Z</time></trkpt><trkpt lat="44.0939454" lon="12.1941242"><ele>67.0</ele><time>2026-04-26T07:25:09.029Z</time></trkpt><trkpt lat="44.0940151" lon="12.1940105"><ele>67.0</ele><time>2026-04-26T07:25:11.034Z</time></trkpt><trkpt lat="44.0940547" lon="12.1939348"><ele>67.2</ele><time>2026-04-26T07:25:13.023Z</time></trkpt><trkpt lat="44.0940338" lon="12.1938255"><ele>67.4</ele><time>2026-04-26T07:25:21.025Z</time></trkpt><trkpt lat="44.0939261" lon="12.1937362"><ele>67.6</ele><time>2026-04-26T07:25:23.034Z</time></trkpt><trkpt lat="44.093827" lon="12.1936825"><ele>67.8</ele><time>2026-04-26T07:25:24.041Z</time></trkpt><trkpt lat="44.0937278" lon="12.1936249"><ele>68.0</ele><time>2026-04-26T07:25:25.029Z</time></trkpt><trkpt lat="44.09362" lon="12.1935555"><ele>68.0</ele><time>2026-04-26T07:25:26.024Z</time></trkpt><trkpt lat="44.0935023" lon="12.1934901"><ele>68.0</ele><time>2026-04-26T07:25:27.024Z</time></trkpt><trkpt lat="44.0933841" lon="12.1934248"><ele>68.0</ele><time>2026-04-26T07:25:28.048Z</time></trkpt><trkpt lat="44.093281" lon="12.1933637"><ele>68.0</ele><time>2026-04-26T07:25:29.028Z</time></trkpt><trkpt lat="44.0931881" lon="12.19332"><ele>68.16666666666667</ele><time>2026-04-26T07:25:30.051Z</time></trkpt><trkpt lat="44.0931019" lon="12.1932679"><ele>68.33333333333334</ele><time>2026-04-26T07:25:31.027Z</time></trkpt><trkpt lat="44.0930193" lon="12.1932232"><ele>68.5</ele><time>2026-04-26T07:25:32.027Z</time></trkpt><trkpt lat="44.0929508" lon="12.1931768"><ele>68.66666666666667</ele><time>2026-04-26T07:25:33.035Z</time></trkpt><trkpt lat="44.0929072" lon="12.1931051"><ele>68.83333333333333</ele><time>2026-04-26T07:25:34.04Z</time></trkpt><trkpt lat="44.0929213" lon="12.1929378"><ele>69.0</ele><time>2026-04-26T07:25:36.037Z</time></trkpt><trkpt lat="44.0929607" lon="12.1928417"><ele>70.0</ele><time>2026-04-26T07:25:37.021Z</time></trkpt><trkpt lat="44.0930182" lon="12.192724"><ele>71.0</ele><time>2026-04-26T07:25:38.023Z</time></trkpt><trkpt lat="44.0930961" lon="12.1925852"><ele>72.0</ele><time>2026-04-26T07:25:39.046Z</time></trkpt><trkpt lat="44.0931676" lon="12.1923923"><ele>73.0</ele><time>2026-04-26T07:25:40.024Z</time></trkpt><trkpt lat="44.0932458" lon="12.1922201"><ele>73.5</ele><time>2026-04-26T07:25:41.028Z</time></trkpt><trkpt lat="44.0933097" lon="12.1920832"><ele>74.0</ele><time>2026-04-26T07:25:42.034Z</time></trkpt><trkpt lat="44.0933717" lon="12.1919298"><ele>74.5</ele><time>2026-04-26T07:25:43.025Z</time></trkpt><trkpt lat="44.0934437" lon="12.1917881"><ele>75.0</ele><time>2026-04-26T07:25:44.028Z</time></trkpt><trkpt lat="44.0935267" lon="12.1916015"><ele>75.66666666666667</ele><time>2026-04-26T07:25:45.025Z</time></trkpt><trkpt lat="44.0936149" lon="12.1913882"><ele>76.33333333333334</ele><time>2026-04-26T07:25:46.028Z</time></trkpt><trkpt lat="44.0937172" lon="12.1911645"><ele>77.0</ele><time>2026-04-26T07:25:47.031Z</time></trkpt><trkpt lat="44.0938109" lon="12.1909722"><ele>77.0</ele><time>2026-04-26T07:25:48.028Z</time></trkpt><trkpt lat="44.0938964" lon="12.1907825"><ele>77.0</ele><time>2026-04-26T07:25:49.045Z</time></trkpt><trkpt lat="44.0939727" lon="12.1905921"><ele>77.0</ele><time>2026-04-26T07:25:50.028Z</time></trkpt><trkpt lat="44.094049" lon="12.1904258"><ele>77.5</ele><time>2026-04-26T07:25:51.037Z</time></trkpt><trkpt lat="44.0941187" lon="12.1902584"><ele>78.0</ele><time>2026-04-26T07:25:52.029Z</time></trkpt><trkpt lat="44.0941845" lon="12.1900969"><ele>78.5</ele><time>2026-04-26T07:25:53.03Z</time></trkpt><trkpt lat="44.0942443" lon="12.1899546"><ele>79.0</ele><time>2026-04-26T07:25:54.042Z</time></trkpt><trkpt lat="44.0943042" lon="12.1898196"><ele>80.0</ele><time>2026-04-26T07:25:55.025Z</time></trkpt><trkpt lat="44.0943493" lon="12.1897036"><ele>81.0</ele><time>2026-04-26T07:25:56.033Z</time></trkpt><trkpt lat="44.0943835" lon="12.1896074"><ele>82.0</ele><time>2026-04-26T07:25:57.041Z</time></trkpt><trkpt lat="44.0944603" lon="12.1895332"><ele>83.0</ele><time>2026-04-26T07:25:59.018Z</time></trkpt><trkpt lat="44.0945737" lon="12.1895832"><ele>84.0</ele><time>2026-04-26T07:26:01.025Z</time></trkpt><trkpt lat="44.0946524" lon="12.1896526"><ele>84.0</ele><time>2026-04-26T07:26:02.036Z</time></trkpt><trkpt lat="44.0947509" lon="12.1897307"><ele>84.0</ele><time>2026-04-26T07:26:03.025Z</time></trkpt><trkpt lat="44.0948748" lon="12.189828"><ele>84.0</ele><time>2026-04-26T07:26:04.027Z</time></trkpt><trkpt lat="44.0950071" lon="12.1899304"><ele>84.0</ele><time>2026-04-26T07:26:05.038Z</time></trkpt><trkpt lat="44.0951427" lon="12.1900432"><ele>81.0</ele><time>2026-04-26T07:26:06.043Z</time></trkpt><trkpt lat="44.0952759" lon="12.1901513"><ele>78.0</ele><time>2026-04-26T07:26:07.038Z</time></trkpt><trkpt lat="44.0954167" lon="12.1902645"><ele>75.0</ele><time>2026-04-26T07:26:08.055Z</time></trkpt><trkpt lat="44.0955558" lon="12.1903728"><ele>75.0</ele><time>2026-04-26T07:26:09.023Z</time></trkpt><trkpt lat="44.0956881" lon="12.1904769"><ele>75.0</ele><time>2026-04-26T07:26:10.031Z</time></trkpt><trkpt lat="44.0958275" lon="12.1905862"><ele>75.0</ele><time>2026-04-26T07:26:11.021Z</time></trkpt><trkpt lat="44.0959589" lon="12.1906869"><ele>74.5</ele><time>2026-04-26T07:26:12.025Z</time></trkpt><trkpt lat="44.0960826" lon="12.190792"><ele>74.0</ele><time>2026-04-26T07:26:13.029Z</time></trkpt><trkpt lat="44.0962062" lon="12.1908929"><ele>73.5</ele><time>2026-04-26T07:26:14.062Z</time></trkpt><trkpt lat="44.0963294" lon="12.1909975"><ele>73.0</ele><time>2026-04-26T07:26:15.024Z</time></trkpt><trkpt lat="44.0964603" lon="12.1911074"><ele>72.33333333333333</ele><time>2026-04-26T07:26:16.027Z</time></trkpt><trkpt lat="44.0965979" lon="12.1912218"><ele>71.66666666666667</ele><time>2026-04-26T07:26:17.041Z</time></trkpt><trkpt lat="44.0967368" lon="12.1913347"><ele>71.0</ele><time>2026-04-26T07:26:18.041Z</time></trkpt><trkpt lat="44.0968739" lon="12.1914459"><ele>71.0</ele><time>2026-04-26T07:26:19.023Z</time></trkpt><trkpt lat="44.0970047" lon="12.1915469"><ele>71.0</ele><time>2026-04-26T07:26:20.041Z</time></trkpt><trkpt lat="44.0971258" lon="12.1916406"><ele>71.0</ele><time>2026-04-26T07:26:21.04Z</time></trkpt><trkpt lat="44.0972292" lon="12.1917258"><ele>71.0</ele><time>2026-04-26T07:26:22.035Z</time></trkpt><trkpt lat="44.0973211" lon="12.1918003"><ele>71.0</ele><time>2026-04-26T07:26:23.028Z</time></trkpt><trkpt lat="44.0974101" lon="12.1918698"><ele>71.0</ele><time>2026-04-26T07:26:24.047Z</time></trkpt><trkpt lat="44.0974962" lon="12.191936"><ele>71.0</ele><time>2026-04-26T07:26:25.053Z</time></trkpt><trkpt lat="44.0975879" lon="12.192008"><ele>71.0</ele><time>2026-04-26T07:26:26.033Z</time></trkpt><trkpt lat="44.0976776" lon="12.1920683"><ele>71.0</ele><time>2026-04-26T07:26:27.034Z</time></trkpt><trkpt lat="44.0977606" lon="12.1921053"><ele>70.83333333333334</ele><time>2026-04-26T07:26:28.043Z</time></trkpt><trkpt lat="44.0978504" lon="12.192125"><ele>70.66666666666667</ele><time>2026-04-26T07:26:29.039Z</time></trkpt><trkpt lat="44.0979415" lon="12.1921346"><ele>70.5</ele><time>2026-04-26T07:26:30.04Z</time></trkpt><trkpt lat="44.098039" lon="12.1921523"><ele>70.33333333333333</ele><time>2026-04-26T07:26:31.023Z</time></trkpt><trkpt lat="44.0981254" lon="12.1921605"><ele>70.16666666666666</ele><time>2026-04-26T07:26:32.059Z</time></trkpt><trkpt lat="44.0981959" lon="12.192148"><ele>70.0</ele><time>2026-04-26T07:26:33.026Z</time></trkpt><trkpt lat="44.0982657" lon="12.1921139"><ele>70.0</ele><time>2026-04-26T07:26:34.035Z</time></trkpt><trkpt lat="44.0983213" lon="12.1920594"><ele>70.0</ele><time>2026-04-26T07:26:35.035Z</time></trkpt><trkpt lat="44.0983715" lon="12.191978"><ele>70.0</ele><time>2026-04-26T07:26:36.025Z</time></trkpt><trkpt lat="44.0984265" lon="12.1918802"><ele>70.0</ele><time>2026-04-26T07:26:37.029Z</time></trkpt><trkpt lat="44.0984912" lon="12.1917743"><ele>70.0</ele><time>2026-04-26T07:26:38.027Z</time></trkpt><trkpt lat="44.0985513" lon="12.1916645"><ele>70.0</ele><time>2026-04-26T07:26:39.018Z</time></trkpt><trkpt lat="44.0986108" lon="12.191543"><ele>70.0</ele><time>2026-04-26T07:26:40.035Z</time></trkpt><trkpt lat="44.0986709" lon="12.1913979"><ele>70.0</ele><time>2026-04-26T07:26:41.014Z</time></trkpt><trkpt lat="44.0987488" lon="12.1912339"><ele>70.0</ele><time>2026-04-26T07:26:42.03Z</time></trkpt><trkpt lat="44.0988295" lon="12.1910486"><ele>70.0</ele><time>2026-04-26T07:26:43.026Z</time></trkpt><trkpt lat="44.0989065" lon="12.1908553"><ele>70.5</ele><time>2026-04-26T07:26:44.032Z</time></trkpt><trkpt lat="44.0989675" lon="12.1906721"><ele>71.0</ele><time>2026-04-26T07:26:45.037Z</time></trkpt><trkpt lat="44.0990192" lon="12.1905123"><ele>71.5</ele><time>2026-04-26T07:26:46.032Z</time></trkpt><trkpt lat="44.0990764" lon="12.1903571"><ele>72.0</ele><time>2026-04-26T07:26:47.042Z</time></trkpt><trkpt lat="44.0991325" lon="12.1902219"><ele>73.33333333333333</ele><time>2026-04-26T07:26:48.048Z</time></trkpt><trkpt lat="44.0991912" lon="12.1900994"><ele>74.66666666666667</ele><time>2026-04-26T07:26:49.048Z</time></trkpt><trkpt lat="44.0992469" lon="12.1900026"><ele>76.0</ele><time>2026-04-26T07:26:50.035Z</time></trkpt><trkpt lat="44.0993038" lon="12.1899413"><ele>77.33333333333334</ele><time>2026-04-26T07:26:51.028Z</time></trkpt><trkpt lat="44.0993677" lon="12.1899387"><ele>78.66666666666667</ele><time>2026-04-26T07:26:52.032Z</time></trkpt><trkpt lat="44.0994376" lon="12.1899518"><ele>80.0</ele><time>2026-04-26T07:26:53.04Z</time></trkpt><trkpt lat="44.0995327" lon="12.1900262"><ele>80.0</ele><time>2026-04-26T07:26:55.03Z</time></trkpt><trkpt lat="44.0995894" lon="12.1901091"><ele>80.0</ele><time>2026-04-26T07:26:58.036Z</time></trkpt><trkpt lat="44.0996383" lon="12.1901791"><ele>80.0</ele><time>2026-04-26T07:27:04.027Z</time></trkpt><trkpt lat="44.0997123" lon="12.1902469"><ele>80.0</ele><time>2026-04-26T07:27:08.057Z</time></trkpt><trkpt lat="44.0997804" lon="12.1903189"><ele>80.0</ele><time>2026-04-26T07:27:11.027Z</time></trkpt><trkpt lat="44.0998543" lon="12.1903914"><ele>80.0</ele><time>2026-04-26T07:27:14.03Z</time></trkpt><trkpt lat="44.0999175" lon="12.1904458"><ele>80.6</ele><time>2026-04-26T07:27:16.047Z</time></trkpt><trkpt lat="44.0999939" lon="12.1905394"><ele>81.2</ele><time>2026-04-26T07:27:18.046Z</time></trkpt><trkpt lat="44.1000802" lon="12.1906451"><ele>81.80000000000001</ele><time>2026-04-26T07:27:20.022Z</time></trkpt><trkpt lat="44.1001402" lon="12.1907088"><ele>82.4</ele><time>2026-04-26T07:27:21.021Z</time></trkpt><trkpt lat="44.1002198" lon="12.1907966"><ele>83.0</ele><time>2026-04-26T07:27:22.029Z</time></trkpt><trkpt lat="44.100312" lon="12.1909042"><ele>81.25</ele><time>2026-04-26T07:27:23.026Z</time></trkpt><trkpt lat="44.1004119" lon="12.191013"><ele>79.5</ele><time>2026-04-26T07:27:24.034Z</time></trkpt><trkpt lat="44.1005121" lon="12.1911174"><ele>77.75</ele><time>2026-04-26T07:27:25.035Z</time></trkpt><trkpt lat="44.1006084" lon="12.1912099"><ele>76.0</ele><time>2026-04-26T07:27:26.029Z</time></trkpt><trkpt lat="44.1006933" lon="12.1913046"><ele>75.5</ele><time>2026-04-26T07:27:27.042Z</time></trkpt><trkpt lat="44.1007715" lon="12.1913919"><ele>75.0</ele><time>2026-04-26T07:27:28.02Z</time></trkpt><trkpt lat="44.1008458" lon="12.1914776"><ele>74.5</ele><time>2026-04-26T07:27:29.03Z</time></trkpt><trkpt lat="44.1009211" lon="12.1915446"><ele>74.0</ele><time>2026-04-26T07:27:30.031Z</time></trkpt><trkpt lat="44.1009908" lon="12.1915843"><ele>73.5</ele><time>2026-04-26T07:27:31.026Z</time></trkpt><trkpt lat="44.1010518" lon="12.191627"><ele>73.0</ele><time>2026-04-26T07:27:32.025Z</time></trkpt><trkpt lat="44.1011612" lon="12.1916851"><ele>73.0</ele><time>2026-04-26T07:27:34.024Z</time></trkpt><trkpt lat="44.1012402" lon="12.1917436"><ele>73.0</ele><time>2026-04-26T07:27:35.048Z</time></trkpt><trkpt lat="44.1013358" lon="12.1918155"><ele>73.0</ele><time>2026-04-26T07:27:36.047Z</time></trkpt><trkpt lat="44.1014312" lon="12.1918774"><ele>73.0</ele><time>2026-04-26T07:27:37.02Z</time></trkpt><trkpt lat="44.1015347" lon="12.1919599"><ele>73.0</ele><time>2026-04-26T07:27:38.041Z</time></trkpt><trkpt lat="44.10166" lon="12.1920489"><ele>71.0</ele><time>2026-04-26T07:27:39.024Z</time></trkpt><trkpt lat="44.1017967" lon="12.1921485"><ele>69.0</ele><time>2026-04-26T07:27:40.025Z</time></trkpt><trkpt lat="44.1019415" lon="12.1922541"><ele>67.0</ele><time>2026-04-26T07:27:41.033Z</time></trkpt><trkpt lat="44.1020889" lon="12.1923544"><ele>65.66666666666666</ele><time>2026-04-26T07:27:42.027Z</time></trkpt><trkpt lat="44.1022321" lon="12.1924688"><ele>64.33333333333333</ele><time>2026-04-26T07:27:43.022Z</time></trkpt><trkpt lat="44.1023803" lon="12.192583"><ele>63.0</ele><time>2026-04-26T07:27:44.026Z</time></trkpt><trkpt lat="44.102526" lon="12.1926961"><ele>62.66666666666667</ele><time>2026-04-26T07:27:45.021Z</time></trkpt><trkpt lat="44.1026687" lon="12.1928044"><ele>62.333333333333336</ele><time>2026-04-26T07:27:46.033Z</time></trkpt><trkpt lat="44.1028088" lon="12.1929059"><ele>62.0</ele><time>2026-04-26T07:27:47.035Z</time></trkpt><trkpt lat="44.1029442" lon="12.193007"><ele>62.0</ele><time>2026-04-26T07:27:48.039Z</time></trkpt><trkpt lat="44.1030722" lon="12.1931051"><ele>62.0</ele><time>2026-04-26T07:27:49.027Z</time></trkpt><trkpt lat="44.1031905" lon="12.1931915"><ele>62.0</ele><time>2026-04-26T07:27:50.035Z</time></trkpt><trkpt lat="44.1033053" lon="12.1932808"><ele>62.0</ele><time>2026-04-26T07:27:51.029Z</time></trkpt><trkpt lat="44.1034285" lon="12.193375"><ele>62.6</ele><time>2026-04-26T07:27:52.017Z</time></trkpt><trkpt lat="44.1035451" lon="12.1934695"><ele>63.2</ele><time>2026-04-26T07:27:53.034Z</time></trkpt><trkpt lat="44.1036419" lon="12.1935551"><ele>63.8</ele><time>2026-04-26T07:27:54.027Z</time></trkpt><trkpt lat="44.1037256" lon="12.1936289"><ele>64.4</ele><time>2026-04-26T07:27:55.01Z</time></trkpt><trkpt lat="44.103792" lon="12.1936957"><ele>65.0</ele><time>2026-04-26T07:27:56.05Z</time></trkpt><trkpt lat="44.1039034" lon="12.1937663"><ele>65.0</ele><time>2026-04-26T07:27:58.038Z</time></trkpt><trkpt lat="44.1039761" lon="12.19383"><ele>65.0</ele><time>2026-04-26T07:27:59.024Z</time></trkpt><trkpt lat="44.1040634" lon="12.1939221"><ele>65.0</ele><time>2026-04-26T07:28:00.053Z</time></trkpt><trkpt lat="44.1041619" lon="12.1940304"><ele>65.0</ele><time>2026-04-26T07:28:01.031Z</time></trkpt><trkpt lat="44.1042549" lon="12.1941367"><ele>65.0</ele><time>2026-04-26T07:28:02.022Z</time></trkpt><trkpt lat="44.1043544" lon="12.194249"><ele>64.75</ele><time>2026-04-26T07:28:03.033Z</time></trkpt><trkpt lat="44.1044432" lon="12.1943595"><ele>64.5</ele><time>2026-04-26T07:28:04.024Z</time></trkpt><trkpt lat="44.104535" lon="12.1944595"><ele>64.25</ele><time>2026-04-26T07:28:05.024Z</time></trkpt><trkpt lat="44.1046265" lon="12.194565"><ele>64.0</ele><time>2026-04-26T07:28:06.021Z</time></trkpt><trkpt lat="44.10472" lon="12.1946784"><ele>64.0</ele><time>2026-04-26T07:28:07.02Z</time></trkpt><trkpt lat="44.1048083" lon="12.1947801"><ele>64.0</ele><time>2026-04-26T07:28:08.029Z</time></trkpt><trkpt lat="44.1049008" lon="12.1948727"><ele>64.0</ele><time>2026-04-26T07:28:09.021Z</time></trkpt><trkpt lat="44.1049852" lon="12.194968"><ele>64.0</ele><time>2026-04-26T07:28:10.029Z</time></trkpt><trkpt lat="44.1050713" lon="12.1950687"><ele>63.49999999999999</ele><time>2026-04-26T07:28:11.017Z</time></trkpt><trkpt lat="44.1051486" lon="12.1951604"><ele>63.0</ele><time>2026-04-26T07:28:12.041Z</time></trkpt><trkpt lat="44.1052113" lon="12.1952307"><ele>62.5</ele><time>2026-04-26T07:28:13.027Z</time></trkpt><trkpt lat="44.105263" lon="12.1953017"><ele>62.0</ele><time>2026-04-26T07:28:14.03Z</time></trkpt><trkpt lat="44.1053292" lon="12.1954169"><ele>61.49999999999999</ele><time>2026-04-26T07:28:16.036Z</time></trkpt><trkpt lat="44.1053954" lon="12.1954975"><ele>61.0</ele><time>2026-04-26T07:28:18.037Z</time></trkpt><trkpt lat="44.1054372" lon="12.1955704"><ele>61.0</ele><time>2026-04-26T07:28:53.005Z</time></trkpt><trkpt lat="44.1054956" lon="12.1956064"><ele>60.99999999999999</ele><time>2026-04-26T07:28:56.026Z</time></trkpt><trkpt lat="44.105418" lon="12.1955301"><ele>60.99999999999999</ele><time>2026-04-26T07:28:59.028Z</time></trkpt><trkpt lat="44.1053292" lon="12.1954576"><ele>61.0</ele><time>2026-04-26T07:29:00.031Z</time></trkpt><trkpt lat="44.1052437" lon="12.1953668"><ele>61.0</ele><time>2026-04-26T07:29:01.026Z</time></trkpt><trkpt lat="44.1051733" lon="12.1952678"><ele>61.0</ele><time>2026-04-26T07:29:02.033Z</time></trkpt><trkpt lat="44.1050787" lon="12.1951524"><ele>61.0</ele><time>2026-04-26T07:29:03.026Z</time></trkpt><trkpt lat="44.1049556" lon="12.1950051"><ele>61.0</ele><time>2026-04-26T07:29:04.027Z</time></trkpt><trkpt lat="44.1048127" lon="12.1948434"><ele>62.0</ele><time>2026-04-26T07:29:05.02Z</time></trkpt><trkpt lat="44.1046574" lon="12.1946522"><ele>63.0</ele><time>2026-04-26T07:29:06.028Z</time></trkpt><trkpt lat="44.1045187" lon="12.1944653"><ele>64.0</ele><time>2026-04-26T07:29:07.016Z</time></trkpt><trkpt lat="44.1043864" lon="12.1943114"><ele>64.0</ele><time>2026-04-26T07:29:08.021Z</time></trkpt><trkpt lat="44.1042791" lon="12.1941808"><ele>64.0</ele><time>2026-04-26T07:29:09.023Z</time></trkpt><trkpt lat="44.1041828" lon="12.1940736"><ele>64.0</ele><time>2026-04-26T07:29:10.027Z</time></trkpt><trkpt lat="44.1041005" lon="12.1939749"><ele>64.0</ele><time>2026-04-26T07:29:11.027Z</time></trkpt><trkpt lat="44.1040305" lon="12.1939039"><ele>64.0</ele><time>2026-04-26T07:29:12.03Z</time></trkpt><trkpt lat="44.1039771" lon="12.19384"><ele>64.0</ele><time>2026-04-26T07:29:13.022Z</time></trkpt><trkpt lat="44.1039558" lon="12.1937191"><ele>64.0</ele><time>2026-04-26T07:29:15.019Z</time></trkpt><trkpt lat="44.1040522" lon="12.1935907"><ele>64.0</ele><time>2026-04-26T07:29:17.02Z</time></trkpt><trkpt lat="44.1041232" lon="12.1935146"><ele>64.0</ele><time>2026-04-26T07:29:18.025Z</time></trkpt><trkpt lat="44.104199" lon="12.1934081"><ele>64.0</ele><time>2026-04-26T07:29:19.012Z</time></trkpt><trkpt lat="44.1042991" lon="12.1932681"><ele>64.0</ele><time>2026-04-26T07:29:20.016Z</time></trkpt><trkpt lat="44.1043997" lon="12.193118"><ele>64.0</ele><time>2026-04-26T07:29:21.019Z</time></trkpt><trkpt lat="44.1044995" lon="12.1929837"><ele>64.0</ele><time>2026-04-26T07:29:22.028Z</time></trkpt><trkpt lat="44.1045722" lon="12.1928653"><ele>64.5</ele><time>2026-04-26T07:29:23.046Z</time></trkpt><trkpt lat="44.10464" lon="12.1927703"><ele>65.0</ele><time>2026-04-26T07:29:24.025Z</time></trkpt><trkpt lat="44.1047051" lon="12.1926768"><ele>65.5</ele><time>2026-04-26T07:29:25.028Z</time></trkpt><trkpt lat="44.1047494" lon="12.1925956"><ele>66.0</ele><time>2026-04-26T07:29:26.016Z</time></trkpt><trkpt lat="44.1047899" lon="12.1924984"><ele>66.5</ele><time>2026-04-26T07:29:27.023Z</time></trkpt><trkpt lat="44.1047785" lon="12.1923972"><ele>67.0</ele><time>2026-04-26T07:29:28.023Z</time></trkpt><trkpt lat="44.104742" lon="12.1922857"><ele>69.0</ele><time>2026-04-26T07:29:29.023Z</time></trkpt><trkpt lat="44.104674" lon="12.1921498"><ele>71.0</ele><time>2026-04-26T07:29:30.028Z</time></trkpt><trkpt lat="44.1045912" lon="12.1919804"><ele>73.0</ele><time>2026-04-26T07:29:31.025Z</time></trkpt><trkpt lat="44.104504" lon="12.191789"><ele>75.0</ele><time>2026-04-26T07:29:32.024Z</time></trkpt><trkpt lat="44.1044102" lon="12.1915658"><ele>76.33333333333333</ele><time>2026-04-26T07:29:33.022Z</time></trkpt><trkpt lat="44.1043126" lon="12.1913399"><ele>77.66666666666666</ele><time>2026-04-26T07:29:34.026Z</time></trkpt><trkpt lat="44.1042341" lon="12.1911533"><ele>79.0</ele><time>2026-04-26T07:29:35.017Z</time></trkpt><trkpt lat="44.1041612" lon="12.1909893"><ele>79.0</ele><time>2026-04-26T07:29:36.024Z</time></trkpt><trkpt lat="44.1041025" lon="12.1908403"><ele>79.0</ele><time>2026-04-26T07:29:37.018Z</time></trkpt><trkpt lat="44.104067" lon="12.1906941"><ele>79.0</ele><time>2026-04-26T07:29:38.019Z</time></trkpt><trkpt lat="44.1040603" lon="12.1905359"><ele>79.0</ele><time>2026-04-26T07:29:39.031Z</time></trkpt><trkpt lat="44.1040786" lon="12.1903698"><ele>79.75</ele><time>2026-04-26T07:29:40.024Z</time></trkpt><trkpt lat="44.1040954" lon="12.1901998"><ele>80.5</ele><time>2026-04-26T07:29:41.039Z</time></trkpt><trkpt lat="44.104113" lon="12.1899899"><ele>81.25</ele><time>2026-04-26T07:29:42.024Z</time></trkpt><trkpt lat="44.104133" lon="12.1897629"><ele>82.0</ele><time>2026-04-26T07:29:43.023Z</time></trkpt><trkpt lat="44.104152" lon="12.1895486"><ele>82.33333333333333</ele><time>2026-04-26T07:29:44.032Z</time></trkpt><trkpt lat="44.1041686" lon="12.1893228"><ele>82.66666666666667</ele><time>2026-04-26T07:29:45.023Z</time></trkpt><trkpt lat="44.1041903" lon="12.1890857"><ele>83.0</ele><time>2026-04-26T07:29:46.024Z</time></trkpt><trkpt lat="44.1042144" lon="12.1888504"><ele>83.0</ele><time>2026-04-26T07:29:47.019Z</time></trkpt><trkpt lat="44.1042296" lon="12.188622"><ele>83.0</ele><time>2026-04-26T07:29:48.026Z</time></trkpt><trkpt lat="44.1042522" lon="12.188421"><ele>83.0</ele><time>2026-04-26T07:29:49.027Z</time></trkpt><trkpt lat="44.1042619" lon="12.1882343"><ele>83.0</ele><time>2026-04-26T07:29:50.026Z</time></trkpt><trkpt lat="44.1042688" lon="12.1880547"><ele>83.0</ele><time>2026-04-26T07:29:51.031Z</time></trkpt><trkpt lat="44.104279" lon="12.1878757"><ele>83.0</ele><time>2026-04-26T07:29:52.019Z</time></trkpt><trkpt lat="44.1042921" lon="12.1877044"><ele>83.0</ele><time>2026-04-26T07:29:53.028Z</time></trkpt><trkpt lat="44.1043055" lon="12.187546"><ele>83.0</ele><time>2026-04-26T07:29:54.03Z</time></trkpt><trkpt lat="44.1043173" lon="12.1874067"><ele>83.0</ele><time>2026-04-26T07:29:55.031Z</time></trkpt><trkpt lat="44.1043186" lon="12.1872717"><ele>83.0</ele><time>2026-04-26T07:29:56.026Z</time></trkpt><trkpt lat="44.1043087" lon="12.1871333"><ele>83.0</ele><time>2026-04-26T07:29:57.018Z</time></trkpt><trkpt lat="44.104293" lon="12.1869807"><ele>83.0</ele><time>2026-04-26T07:29:58.028Z</time></trkpt><trkpt lat="44.1042687" lon="12.186834"><ele>83.0</ele><time>2026-04-26T07:29:59.02Z</time></trkpt><trkpt lat="44.1042405" lon="12.1866962"><ele>83.0</ele><time>2026-04-26T07:30:00.029Z</time></trkpt><trkpt lat="44.1042034" lon="12.1865492"><ele>83.0</ele><time>2026-04-26T07:30:01.022Z</time></trkpt><trkpt lat="44.104158" lon="12.1863931"><ele>83.0</ele><time>2026-04-26T07:30:02.024Z</time></trkpt><trkpt lat="44.1041095" lon="12.1862362"><ele>83.0</ele><time>2026-04-26T07:30:03.028Z</time></trkpt><trkpt lat="44.1040503" lon="12.1860802"><ele>82.75</ele><time>2026-04-26T07:30:04.022Z</time></trkpt><trkpt lat="44.103991" lon="12.1859191"><ele>82.5</ele><time>2026-04-26T07:30:05.023Z</time></trkpt><trkpt lat="44.1039322" lon="12.1857632"><ele>82.25</ele><time>2026-04-26T07:30:06.03Z</time></trkpt><trkpt lat="44.1038733" lon="12.1856069"><ele>82.0</ele><time>2026-04-26T07:30:07.025Z</time></trkpt><trkpt lat="44.1038136" lon="12.1854564"><ele>82.0</ele><time>2026-04-26T07:30:08.022Z</time></trkpt><trkpt lat="44.1037573" lon="12.18532"><ele>82.0</ele><time>2026-04-26T07:30:09.022Z</time></trkpt><trkpt lat="44.1037097" lon="12.1851616"><ele>82.0</ele><time>2026-04-26T07:30:10.024Z</time></trkpt><trkpt lat="44.1036677" lon="12.1849803"><ele>82.0</ele><time>2026-04-26T07:30:11.023Z</time></trkpt><trkpt lat="44.1036404" lon="12.1847979"><ele>82.25</ele><time>2026-04-26T07:30:12.029Z</time></trkpt><trkpt lat="44.1036254" lon="12.1846116"><ele>82.5</ele><time>2026-04-26T07:30:13.016Z</time></trkpt><trkpt lat="44.1036303" lon="12.184428"><ele>82.75</ele><time>2026-04-26T07:30:14.032Z</time></trkpt><trkpt lat="44.1036464" lon="12.1842465"><ele>83.0</ele><time>2026-04-26T07:30:15.021Z</time></trkpt><trkpt lat="44.1036708" lon="12.1840728"><ele>83.0</ele><time>2026-04-26T07:30:16.022Z</time></trkpt><trkpt lat="44.1036912" lon="12.1839114"><ele>83.0</ele><time>2026-04-26T07:30:17.019Z</time></trkpt><trkpt lat="44.1037013" lon="12.1837477"><ele>83.0</ele><time>2026-04-26T07:30:18.03Z</time></trkpt><trkpt lat="44.1037021" lon="12.1835749"><ele>83.0</ele><time>2026-04-26T07:30:19.015Z</time></trkpt><trkpt lat="44.1037077" lon="12.1833967"><ele>83.0</ele><time>2026-04-26T07:30:20.022Z</time></trkpt><trkpt lat="44.1037119" lon="12.1832457"><ele>83.0</ele><time>2026-04-26T07:30:21.025Z</time></trkpt><trkpt lat="44.1037176" lon="12.1831132"><ele>83.0</ele><time>2026-04-26T07:30:22.023Z</time></trkpt><trkpt lat="44.1037317" lon="12.1829917"><ele>83.0</ele><time>2026-04-26T07:30:23.022Z</time></trkpt><trkpt lat="44.1037466" lon="12.1828445"><ele>83.0</ele><time>2026-04-26T07:30:24.031Z</time></trkpt><trkpt lat="44.1037626" lon="12.1826631"><ele>82.75</ele><time>2026-04-26T07:30:25.023Z</time></trkpt><trkpt lat="44.1037811" lon="12.1824742"><ele>82.5</ele><time>2026-04-26T07:30:26.019Z</time></trkpt><trkpt lat="44.1038164" lon="12.1822873"><ele>82.25</ele><time>2026-04-26T07:30:27.009Z</time></trkpt><trkpt lat="44.1038629" lon="12.1820857"><ele>82.0</ele><time>2026-04-26T07:30:28.02Z</time></trkpt><trkpt lat="44.1039155" lon="12.1818663"><ele>82.0</ele><time>2026-04-26T07:30:29.009Z</time></trkpt><trkpt lat="44.1039562" lon="12.1816413"><ele>82.0</ele><time>2026-04-26T07:30:30.014Z</time></trkpt><trkpt lat="44.1039869" lon="12.1814261"><ele>82.0</ele><time>2026-04-26T07:30:31.017Z</time></trkpt><trkpt lat="44.104018" lon="12.1812376"><ele>82.0</ele><time>2026-04-26T07:30:32.015Z</time></trkpt><trkpt lat="44.1040574" lon="12.181074"><ele>82.0</ele><time>2026-04-26T07:30:33.015Z</time></trkpt><trkpt lat="44.1041038" lon="12.1809167"><ele>82.0</ele><time>2026-04-26T07:30:34.023Z</time></trkpt><trkpt lat="44.1041656" lon="12.1807634"><ele>82.0</ele><time>2026-04-26T07:30:35.013Z</time></trkpt><trkpt lat="44.1042443" lon="12.1805986"><ele>83.8</ele><time>2026-04-26T07:30:36.016Z</time></trkpt><trkpt lat="44.104321" lon="12.1804552"><ele>85.6</ele><time>2026-04-26T07:30:37.031Z</time></trkpt><trkpt lat="44.1043738" lon="12.1803379"><ele>87.39999999999999</ele><time>2026-04-26T07:30:38.015Z</time></trkpt><trkpt lat="44.1044118" lon="12.180226"><ele>89.19999999999999</ele><time>2026-04-26T07:30:39.026Z</time></trkpt><trkpt lat="44.1044444" lon="12.1801224"><ele>91.0</ele><time>2026-04-26T07:30:40.02Z</time></trkpt><trkpt lat="44.1044692" lon="12.1800306"><ele>91.0</ele><time>2026-04-26T07:30:41.011Z</time></trkpt><trkpt lat="44.1045203" lon="12.1798639"><ele>91.0</ele><time>2026-04-26T07:30:43.015Z</time></trkpt><trkpt lat="44.1045565" lon="12.179764"><ele>91.0</ele><time>2026-04-26T07:30:44.023Z</time></trkpt><trkpt lat="44.104586" lon="12.179657"><ele>91.0</ele><time>2026-04-26T07:30:45.024Z</time></trkpt><trkpt lat="44.1046198" lon="12.179564"><ele>91.0</ele><time>2026-04-26T07:30:46.028Z</time></trkpt><trkpt lat="44.1046694" lon="12.179456"><ele>90.6</ele><time>2026-04-26T07:30:47.018Z</time></trkpt><trkpt lat="44.1047296" lon="12.1793319"><ele>90.19999999999999</ele><time>2026-04-26T07:30:48.016Z</time></trkpt><trkpt lat="44.1047855" lon="12.1791978"><ele>89.80000000000001</ele><time>2026-04-26T07:30:49.016Z</time></trkpt><trkpt lat="44.1048369" lon="12.1790585"><ele>89.4</ele><time>2026-04-26T07:30:50.016Z</time></trkpt><trkpt lat="44.1048712" lon="12.1789054"><ele>89.0</ele><time>2026-04-26T07:30:51.018Z</time></trkpt><trkpt lat="44.1048957" lon="12.1787575"><ele>88.4</ele><time>2026-04-26T07:30:52.025Z</time></trkpt><trkpt lat="44.1049134" lon="12.1786269"><ele>87.80000000000001</ele><time>2026-04-26T07:30:53.018Z</time></trkpt><trkpt lat="44.1049212" lon="12.1785109"><ele>87.19999999999999</ele><time>2026-04-26T07:30:54.019Z</time></trkpt><trkpt lat="44.1049166" lon="12.1783915"><ele>86.6</ele><time>2026-04-26T07:30:55.018Z</time></trkpt><trkpt lat="44.1048854" lon="12.1782767"><ele>86.0</ele><time>2026-04-26T07:30:56.023Z</time></trkpt><trkpt lat="44.1048254" lon="12.1781481"><ele>86.0</ele><time>2026-04-26T07:30:57.012Z</time></trkpt><trkpt lat="44.1047619" lon="12.178008"><ele>86.0</ele><time>2026-04-26T07:30:58.023Z</time></trkpt><trkpt lat="44.1047178" lon="12.1778703"><ele>86.0</ele><time>2026-04-26T07:30:59.012Z</time></trkpt><trkpt lat="44.1046952" lon="12.1777165"><ele>86.0</ele><time>2026-04-26T07:31:00.025Z</time></trkpt><trkpt lat="44.1046783" lon="12.1775616"><ele>86.0</ele><time>2026-04-26T07:31:01.019Z</time></trkpt><trkpt lat="44.1046597" lon="12.1773969"><ele>86.0</ele><time>2026-04-26T07:31:02.021Z</time></trkpt><trkpt lat="44.1046381" lon="12.1772492"><ele>86.0</ele><time>2026-04-26T07:31:03.02Z</time></trkpt><trkpt lat="44.1046089" lon="12.1771148"><ele>86.0</ele><time>2026-04-26T07:31:04.014Z</time></trkpt><trkpt lat="44.1045817" lon="12.1769745"><ele>86.0</ele><time>2026-04-26T07:31:05.01Z</time></trkpt><trkpt lat="44.1045535" lon="12.1768397"><ele>86.8</ele><time>2026-04-26T07:31:06.014Z</time></trkpt><trkpt lat="44.1045231" lon="12.1767001"><ele>87.6</ele><time>2026-04-26T07:31:07.011Z</time></trkpt><trkpt lat="44.1044926" lon="12.176553"><ele>88.4</ele><time>2026-04-26T07:31:08.011Z</time></trkpt><trkpt lat="44.1044951" lon="12.1764071"><ele>89.2</ele><time>2026-04-26T07:31:09.017Z</time></trkpt><trkpt lat="44.1045139" lon="12.1762496"><ele>90.0</ele><time>2026-04-26T07:31:10.012Z</time></trkpt><trkpt lat="44.1045478" lon="12.1761021"><ele>90.2</ele><time>2026-04-26T07:31:11.015Z</time></trkpt><trkpt lat="44.1045868" lon="12.1759721"><ele>90.4</ele><time>2026-04-26T07:31:12.016Z</time></trkpt><trkpt lat="44.1046026" lon="12.1758561"><ele>90.6</ele><time>2026-04-26T07:31:13.018Z</time></trkpt><trkpt lat="44.1046076" lon="12.1757351"><ele>90.8</ele><time>2026-04-26T07:31:14.017Z</time></trkpt><trkpt lat="44.1045788" lon="12.1755779"><ele>91.0</ele><time>2026-04-26T07:31:15.022Z</time></trkpt><trkpt lat="44.1045375" lon="12.1754122"><ele>92.0</ele><time>2026-04-26T07:31:16.018Z</time></trkpt><trkpt lat="44.104508" lon="12.1752518"><ele>93.0</ele><time>2026-04-26T07:31:17.024Z</time></trkpt><trkpt lat="44.104507" lon="12.1751047"><ele>94.0</ele><time>2026-04-26T07:31:18.019Z</time></trkpt><trkpt lat="44.104525" lon="12.174949"><ele>95.0</ele><time>2026-04-26T07:31:19.02Z</time></trkpt><trkpt lat="44.1045603" lon="12.1747874"><ele>95.33333333333334</ele><time>2026-04-26T07:31:20.018Z</time></trkpt><trkpt lat="44.1046074" lon="12.1746133"><ele>95.66666666666667</ele><time>2026-04-26T07:31:21.015Z</time></trkpt><trkpt lat="44.1046588" lon="12.1744072"><ele>96.0</ele><time>2026-04-26T07:31:22.024Z</time></trkpt><trkpt lat="44.1047124" lon="12.1741739"><ele>100.33333333333334</ele><time>2026-04-26T07:31:23.017Z</time></trkpt><trkpt lat="44.1047647" lon="12.173926"><ele>104.66666666666667</ele><time>2026-04-26T07:31:24.019Z</time></trkpt><trkpt lat="44.1048225" lon="12.1736887"><ele>109.0</ele><time>2026-04-26T07:31:25.015Z</time></trkpt><trkpt lat="44.1048712" lon="12.1734546"><ele>104.0</ele><time>2026-04-26T07:31:26.025Z</time></trkpt><trkpt lat="44.1049221" lon="12.1732382"><ele>99.0</ele><time>2026-04-26T07:31:27.021Z</time></trkpt><trkpt lat="44.1049728" lon="12.1730299"><ele>94.0</ele><time>2026-04-26T07:31:28.021Z</time></trkpt><trkpt lat="44.1050214" lon="12.1728469"><ele>94.0</ele><time>2026-04-26T07:31:29.019Z</time></trkpt><trkpt lat="44.1050689" lon="12.1726691"><ele>94.0</ele><time>2026-04-26T07:31:30.019Z</time></trkpt><trkpt lat="44.105104" lon="12.1724944"><ele>94.0</ele><time>2026-04-26T07:31:31.031Z</time></trkpt><trkpt lat="44.1051138" lon="12.1723158"><ele>94.0</ele><time>2026-04-26T07:31:32.019Z</time></trkpt><trkpt lat="44.1050977" lon="12.1721226"><ele>94.5</ele><time>2026-04-26T07:31:33.018Z</time></trkpt><trkpt lat="44.1050789" lon="12.1719464"><ele>95.0</ele><time>2026-04-26T07:31:34.021Z</time></trkpt><trkpt lat="44.1050704" lon="12.171786"><ele>95.5</ele><time>2026-04-26T07:31:35.016Z</time></trkpt><trkpt lat="44.1050771" lon="12.1716306"><ele>96.0</ele><time>2026-04-26T07:31:36.018Z</time></trkpt><trkpt lat="44.1050923" lon="12.1714863"><ele>96.8</ele><time>2026-04-26T07:31:37.019Z</time></trkpt><trkpt lat="44.105118" lon="12.1713534"><ele>97.6</ele><time>2026-04-26T07:31:38.025Z</time></trkpt><trkpt lat="44.1051465" lon="12.1712313"><ele>98.4</ele><time>2026-04-26T07:31:39.019Z</time></trkpt><trkpt lat="44.1051689" lon="12.171115"><ele>99.2</ele><time>2026-04-26T07:31:40.024Z</time></trkpt><trkpt lat="44.1052019" lon="12.1709663"><ele>100.0</ele><time>2026-04-26T07:31:42.032Z</time></trkpt><trkpt lat="44.1052893" lon="12.1709092"><ele>100.0</ele><time>2026-04-26T07:31:44.039Z</time></trkpt><trkpt lat="44.1054113" lon="12.1709437"><ele>100.0</ele><time>2026-04-26T07:31:46.033Z</time></trkpt><trkpt lat="44.1054872" lon="12.1709486"><ele>100.0</ele><time>2026-04-26T07:31:47.023Z</time></trkpt><trkpt lat="44.105569" lon="12.1709539"><ele>100.0</ele><time>2026-04-26T07:31:48.021Z</time></trkpt><trkpt lat="44.1056618" lon="12.1709614"><ele>100.0</ele><time>2026-04-26T07:31:49.02Z</time></trkpt><trkpt lat="44.1057594" lon="12.170976"><ele>98.5</ele><time>2026-04-26T07:31:50.019Z</time></trkpt><trkpt lat="44.1058632" lon="12.1709918"><ele>97.0</ele><time>2026-04-26T07:31:51.026Z</time></trkpt><trkpt lat="44.1059711" lon="12.1710192"><ele>95.5</ele><time>2026-04-26T07:31:52.018Z</time></trkpt><trkpt lat="44.1060882" lon="12.1710414"><ele>94.0</ele><time>2026-04-26T07:31:53.012Z</time></trkpt><trkpt lat="44.1062091" lon="12.171054"><ele>94.0</ele><time>2026-04-26T07:31:54.023Z</time></trkpt><trkpt lat="44.1063285" lon="12.1710624"><ele>94.0</ele><time>2026-04-26T07:31:55.031Z</time></trkpt><trkpt lat="44.1064454" lon="12.1710736"><ele>94.0</ele><time>2026-04-26T07:31:56.008Z</time></trkpt><trkpt lat="44.1065621" lon="12.1710767"><ele>94.0</ele><time>2026-04-26T07:31:57.012Z</time></trkpt><trkpt lat="44.1066762" lon="12.1710822"><ele>97.6</ele><time>2026-04-26T07:31:58.037Z</time></trkpt><trkpt lat="44.1067796" lon="12.1710899"><ele>101.2</ele><time>2026-04-26T07:31:59.016Z</time></trkpt><trkpt lat="44.1068684" lon="12.1710847"><ele>104.79999999999998</ele><time>2026-04-26T07:32:00.034Z</time></trkpt><trkpt lat="44.1069511" lon="12.1710803"><ele>108.39999999999999</ele><time>2026-04-26T07:32:01.009Z</time></trkpt><trkpt lat="44.1070275" lon="12.1710557"><ele>112.0</ele><time>2026-04-26T07:32:02.023Z</time></trkpt><trkpt lat="44.1071204" lon="12.1709591"><ele>112.0</ele><time>2026-04-26T07:32:04.004Z</time></trkpt><trkpt lat="44.1071625" lon="12.1708697"><ele>111.99999999999999</ele><time>2026-04-26T07:32:05.007Z</time></trkpt><trkpt lat="44.1071737" lon="12.170719"><ele>111.99999999999999</ele><time>2026-04-26T07:32:07.01Z</time></trkpt><trkpt lat="44.1070646" lon="12.170637"><ele>112.0</ele><time>2026-04-26T07:32:09.008Z</time></trkpt><trkpt lat="44.1069897" lon="12.1706101"><ele>112.0</ele><time>2026-04-26T07:32:10.006Z</time></trkpt><trkpt lat="44.1069062" lon="12.1705794"><ele>112.83333333333334</ele><time>2026-04-26T07:32:11.016Z</time></trkpt><trkpt lat="44.1068148" lon="12.1705638"><ele>113.66666666666667</ele><time>2026-04-26T07:32:12.015Z</time></trkpt><trkpt lat="44.1067281" lon="12.1705289"><ele>114.5</ele><time>2026-04-26T07:32:13.024Z</time></trkpt><trkpt lat="44.1066431" lon="12.1705021"><ele>115.33333333333334</ele><time>2026-04-26T07:32:14.022Z</time></trkpt><trkpt lat="44.1065843" lon="12.1704578"><ele>116.16666666666667</ele><time>2026-04-26T07:32:15.024Z</time></trkpt><trkpt lat="44.1065384" lon="12.1703668"><ele>117.0</ele><time>2026-04-26T07:32:17.046Z</time></trkpt><trkpt lat="44.1065959" lon="12.1702837"><ele>117.0</ele><time>2026-04-26T07:32:19.053Z</time></trkpt><trkpt lat="44.1066952" lon="12.1702881"><ele>117.0</ele><time>2026-04-26T07:32:21.016Z</time></trkpt><trkpt lat="44.1068151" lon="12.1703205"><ele>117.0</ele><time>2026-04-26T07:32:23.022Z</time></trkpt><trkpt lat="44.1068783" lon="12.1703098"><ele>117.0</ele><time>2026-04-26T07:32:24.022Z</time></trkpt><trkpt lat="44.1069453" lon="12.1702642"><ele>117.0</ele><time>2026-04-26T07:32:25.017Z</time></trkpt><trkpt lat="44.1070223" lon="12.1702102"><ele>117.0</ele><time>2026-04-26T07:32:26.029Z</time></trkpt><trkpt lat="44.107107" lon="12.1701506"><ele>117.0</ele><time>2026-04-26T07:32:27.023Z</time></trkpt><trkpt lat="44.1071956" lon="12.1700999"><ele>116.99999999999999</ele><time>2026-04-26T07:32:28.025Z</time></trkpt><trkpt lat="44.1072948" lon="12.1700603"><ele>116.99999999999999</ele><time>2026-04-26T07:32:29.025Z</time></trkpt><trkpt lat="44.1074067" lon="12.1700287"><ele>117.0</ele><time>2026-04-26T07:32:30.031Z</time></trkpt><trkpt lat="44.1075112" lon="12.1700011"><ele>117.0</ele><time>2026-04-26T07:32:31.027Z</time></trkpt><trkpt lat="44.1076019" lon="12.1699622"><ele>120.6</ele><time>2026-04-26T07:32:32.026Z</time></trkpt><trkpt lat="44.1076988" lon="12.1699095"><ele>124.19999999999999</ele><time>2026-04-26T07:32:33.026Z</time></trkpt><trkpt lat="44.1077954" lon="12.1698628"><ele>127.8</ele><time>2026-04-26T07:32:34.018Z</time></trkpt><trkpt lat="44.1079022" lon="12.1698093"><ele>131.4</ele><time>2026-04-26T07:32:35.014Z</time></trkpt><trkpt lat="44.108011" lon="12.169743"><ele>135.0</ele><time>2026-04-26T07:32:36.021Z</time></trkpt><trkpt lat="44.1081159" lon="12.1696871"><ele>135.0</ele><time>2026-04-26T07:32:37.016Z</time></trkpt><trkpt lat="44.1082164" lon="12.1696349"><ele>135.0</ele><time>2026-04-26T07:32:38.02Z</time></trkpt><trkpt lat="44.1083226" lon="12.1695966"><ele>135.0</ele><time>2026-04-26T07:32:39.024Z</time></trkpt><trkpt lat="44.1084394" lon="12.1695535"><ele>135.0</ele><time>2026-04-26T07:32:40.018Z</time></trkpt><trkpt lat="44.1085621" lon="12.1694988"><ele>137.0</ele><time>2026-04-26T07:32:41.028Z</time></trkpt><trkpt lat="44.108689" lon="12.1694497"><ele>139.0</ele><time>2026-04-26T07:32:42.026Z</time></trkpt><trkpt lat="44.1088022" lon="12.1694206"><ele>141.0</ele><time>2026-04-26T07:32:43.026Z</time></trkpt><trkpt lat="44.1089012" lon="12.1694013"><ele>143.0</ele><time>2026-04-26T07:32:44.024Z</time></trkpt><trkpt lat="44.1090016" lon="12.1693915"><ele>145.0</ele><time>2026-04-26T07:32:45.024Z</time></trkpt><trkpt lat="44.1090967" lon="12.1693829"><ele>147.0</ele><time>2026-04-26T07:32:46.025Z</time></trkpt><trkpt lat="44.1091849" lon="12.1693828"><ele>149.0</ele><time>2026-04-26T07:32:47.034Z</time></trkpt><trkpt lat="44.1092769" lon="12.1693987"><ele>151.0</ele><time>2026-04-26T07:32:48.021Z</time></trkpt><trkpt lat="44.1093893" lon="12.1694282"><ele>153.0</ele><time>2026-04-26T07:32:49.015Z</time></trkpt><trkpt lat="44.1095085" lon="12.1694682"><ele>155.0</ele><time>2026-04-26T07:32:50.026Z</time></trkpt><trkpt lat="44.1096325" lon="12.1695105"><ele>155.0</ele><time>2026-04-26T07:32:51.025Z</time></trkpt><trkpt lat="44.1097478" lon="12.1695443"><ele>155.0</ele><time>2026-04-26T07:32:52.023Z</time></trkpt><trkpt lat="44.1098455" lon="12.1695841"><ele>155.0</ele><time>2026-04-26T07:32:53.029Z</time></trkpt><trkpt lat="44.1099299" lon="12.1696243"><ele>155.0</ele><time>2026-04-26T07:32:54.025Z</time></trkpt><trkpt lat="44.1100354" lon="12.169705"><ele>155.0</ele><time>2026-04-26T07:32:56.028Z</time></trkpt><trkpt lat="44.1100899" lon="12.1697516"><ele>156.8</ele><time>2026-04-26T07:32:57.026Z</time></trkpt><trkpt lat="44.1101519" lon="12.1697751"><ele>158.6</ele><time>2026-04-26T07:32:58.021Z</time></trkpt><trkpt lat="44.1102658" lon="12.1697358"><ele>160.39999999999998</ele><time>2026-04-26T07:33:00.029Z</time></trkpt><trkpt lat="44.1103215" lon="12.1696729"><ele>162.2</ele><time>2026-04-26T07:33:01.022Z</time></trkpt><trkpt lat="44.1103999" lon="12.1695208"><ele>164.0</ele><time>2026-04-26T07:33:03.019Z</time></trkpt><trkpt lat="44.110439" lon="12.1694408"><ele>164.0</ele><time>2026-04-26T07:33:04.024Z</time></trkpt><trkpt lat="44.1104953" lon="12.1693645"><ele>164.0</ele><time>2026-04-26T07:33:05.019Z</time></trkpt><trkpt lat="44.1105689" lon="12.1692954"><ele>164.0</ele><time>2026-04-26T07:33:06.025Z</time></trkpt><trkpt lat="44.1106535" lon="12.1692622"><ele>164.0</ele><time>2026-04-26T07:33:07.041Z</time></trkpt><trkpt lat="44.110741" lon="12.1692383"><ele>164.0</ele><time>2026-04-26T07:33:08.035Z</time></trkpt><trkpt lat="44.1108289" lon="12.1692437"><ele>164.0</ele><time>2026-04-26T07:33:09.021Z</time></trkpt><trkpt lat="44.1109266" lon="12.1692654"><ele>167.39999999999998</ele><time>2026-04-26T07:33:10.017Z</time></trkpt><trkpt lat="44.1110322" lon="12.1693214"><ele>170.8</ele><time>2026-04-26T07:33:11.021Z</time></trkpt><trkpt lat="44.1111344" lon="12.1693866"><ele>174.2</ele><time>2026-04-26T07:33:12.025Z</time></trkpt><trkpt lat="44.1112252" lon="12.1694484"><ele>177.60000000000002</ele><time>2026-04-26T07:33:13.019Z</time></trkpt><trkpt lat="44.1113158" lon="12.1694972"><ele>181.0</ele><time>2026-04-26T07:33:14.018Z</time></trkpt><trkpt lat="44.1114075" lon="12.1695361"><ele>181.0</ele><time>2026-04-26T07:33:15.018Z</time></trkpt><trkpt lat="44.1115074" lon="12.1695829"><ele>181.0</ele><time>2026-04-26T07:33:16.019Z</time></trkpt><trkpt lat="44.1116046" lon="12.1696373"><ele>181.0</ele><time>2026-04-26T07:33:17.011Z</time></trkpt><trkpt lat="44.1116891" lon="12.1697012"><ele>181.0</ele><time>2026-04-26T07:33:18.022Z</time></trkpt><trkpt lat="44.1117406" lon="12.1697646"><ele>181.0</ele><time>2026-04-26T07:33:19.024Z</time></trkpt><trkpt lat="44.1117737" lon="12.1698403"><ele>181.0</ele><time>2026-04-26T07:33:20.023Z</time></trkpt><trkpt lat="44.1118015" lon="12.1699249"><ele>183.66666666666669</ele><time>2026-04-26T07:33:21.026Z</time></trkpt><trkpt lat="44.1118253" lon="12.1700205"><ele>186.33333333333334</ele><time>2026-04-26T07:33:22.028Z</time></trkpt><trkpt lat="44.1118749" lon="12.1700833"><ele>189.0</ele><time>2026-04-26T07:33:23.017Z</time></trkpt><trkpt lat="44.1119348" lon="12.1701128"><ele>191.66666666666669</ele><time>2026-04-26T07:33:24.023Z</time></trkpt><trkpt lat="44.1120164" lon="12.1701296"><ele>194.33333333333334</ele><time>2026-04-26T07:33:25.032Z</time></trkpt><trkpt lat="44.1121146" lon="12.1701449"><ele>197.0</ele><time>2026-04-26T07:33:26.03Z</time></trkpt><trkpt lat="44.1122104" lon="12.1701808"><ele>197.0</ele><time>2026-04-26T07:33:27.024Z</time></trkpt><trkpt lat="44.1123151" lon="12.1702281"><ele>197.0</ele><time>2026-04-26T07:33:28.008Z</time></trkpt><trkpt lat="44.1124174" lon="12.1702924"><ele>197.0</ele><time>2026-04-26T07:33:29.017Z</time></trkpt><trkpt lat="44.1125154" lon="12.1703779"><ele>197.0</ele><time>2026-04-26T07:33:30.024Z</time></trkpt><trkpt lat="44.1126129" lon="12.170472"><ele>198.75</ele><time>2026-04-26T07:33:31.021Z</time></trkpt><trkpt lat="44.1127169" lon="12.1705746"><ele>200.5</ele><time>2026-04-26T07:33:32.028Z</time></trkpt><trkpt lat="44.1128269" lon="12.1706919"><ele>202.25</ele><time>2026-04-26T07:33:33.022Z</time></trkpt><trkpt lat="44.1129331" lon="12.1708123"><ele>204.0</ele><time>2026-04-26T07:33:34.028Z</time></trkpt><trkpt lat="44.1130311" lon="12.1709365"><ele>204.2</ele><time>2026-04-26T07:33:35.022Z</time></trkpt><trkpt lat="44.1131224" lon="12.1710421"><ele>204.39999999999998</ele><time>2026-04-26T07:33:36.025Z</time></trkpt><trkpt lat="44.1131951" lon="12.171138"><ele>204.6</ele><time>2026-04-26T07:33:37.011Z</time></trkpt><trkpt lat="44.1132551" lon="12.1712281"><ele>204.8</ele><time>2026-04-26T07:33:38.022Z</time></trkpt><trkpt lat="44.1133029" lon="12.1713014"><ele>205.0</ele><time>2026-04-26T07:33:39.024Z</time></trkpt><trkpt lat="44.113362" lon="12.1713695"><ele>206.2</ele><time>2026-04-26T07:33:41.022Z</time></trkpt><trkpt lat="44.1134016" lon="12.1712452"><ele>207.4</ele><time>2026-04-26T07:33:44.048Z</time></trkpt><trkpt lat="44.1134159" lon="12.171147"><ele>208.60000000000002</ele><time>2026-04-26T07:33:45.013Z</time></trkpt><trkpt lat="44.1134334" lon="12.1710153"><ele>209.8</ele><time>2026-04-26T07:33:46.022Z</time></trkpt><trkpt lat="44.1134599" lon="12.170854"><ele>211.0</ele><time>2026-04-26T07:33:47.014Z</time></trkpt><trkpt lat="44.1134947" lon="12.1706591"><ele>211.0</ele><time>2026-04-26T07:33:48.024Z</time></trkpt><trkpt lat="44.1135114" lon="12.1704684"><ele>211.0</ele><time>2026-04-26T07:33:49.017Z</time></trkpt><trkpt lat="44.1135018" lon="12.1702655"><ele>211.0</ele><time>2026-04-26T07:33:50.019Z</time></trkpt><trkpt lat="44.1134779" lon="12.170097"><ele>211.0</ele><time>2026-04-26T07:33:51.022Z</time></trkpt><trkpt lat="44.113448" lon="12.1699466"><ele>210.75</ele><time>2026-04-26T07:33:52.022Z</time></trkpt><trkpt lat="44.1134112" lon="12.1697993"><ele>210.5</ele><time>2026-04-26T07:33:53.027Z</time></trkpt><trkpt lat="44.1133783" lon="12.1696434"><ele>210.25</ele><time>2026-04-26T07:33:54.025Z</time></trkpt><trkpt lat="44.1133488" lon="12.1694883"><ele>210.0</ele><time>2026-04-26T07:33:55.021Z</time></trkpt><trkpt lat="44.1133318" lon="12.1693426"><ele>210.0</ele><time>2026-04-26T07:33:56.023Z</time></trkpt><trkpt lat="44.1133165" lon="12.1692079"><ele>210.0</ele><time>2026-04-26T07:33:57.014Z</time></trkpt><trkpt lat="44.1133175" lon="12.169073"><ele>210.0</ele><time>2026-04-26T07:33:58.017Z</time></trkpt><trkpt lat="44.1133286" lon="12.1689557"><ele>210.0</ele><time>2026-04-26T07:33:59.011Z</time></trkpt><trkpt lat="44.1133466" lon="12.1688433"><ele>210.0</ele><time>2026-04-26T07:34:00.018Z</time></trkpt><trkpt lat="44.1133663" lon="12.1687356"><ele>210.0</ele><time>2026-04-26T07:34:01.022Z</time></trkpt><trkpt lat="44.1133795" lon="12.1686427"><ele>209.8</ele><time>2026-04-26T07:34:02.029Z</time></trkpt><trkpt lat="44.113393" lon="12.168548"><ele>209.6</ele><time>2026-04-26T07:34:03.037Z</time></trkpt><trkpt lat="44.113402" lon="12.1684569"><ele>209.39999999999998</ele><time>2026-04-26T07:34:04.018Z</time></trkpt><trkpt lat="44.1134199" lon="12.1682941"><ele>209.2</ele><time>2026-04-26T07:34:06.039Z</time></trkpt><trkpt lat="44.1134391" lon="12.168101"><ele>209.0</ele><time>2026-04-26T07:34:08.037Z</time></trkpt><trkpt lat="44.1134446" lon="12.1679875"><ele>210.0</ele><time>2026-04-26T07:34:09.024Z</time></trkpt><trkpt lat="44.1134317" lon="12.1678735"><ele>211.0</ele><time>2026-04-26T07:34:10.027Z</time></trkpt><trkpt lat="44.1133964" lon="12.1677284"><ele>212.0</ele><time>2026-04-26T07:34:11.028Z</time></trkpt><trkpt lat="44.1133466" lon="12.1675478"><ele>213.0</ele><time>2026-04-26T07:34:12.022Z</time></trkpt><trkpt lat="44.113277" lon="12.167357"><ele>212.25</ele><time>2026-04-26T07:34:13.017Z</time></trkpt><trkpt lat="44.1131972" lon="12.1671763"><ele>211.5</ele><time>2026-04-26T07:34:14.018Z</time></trkpt><trkpt lat="44.1131078" lon="12.167023"><ele>210.75</ele><time>2026-04-26T07:34:15.02Z</time></trkpt><trkpt lat="44.1130163" lon="12.1668763"><ele>210.0</ele><time>2026-04-26T07:34:16.021Z</time></trkpt><trkpt lat="44.112926" lon="12.1667176"><ele>210.0</ele><time>2026-04-26T07:34:17.018Z</time></trkpt><trkpt lat="44.1128497" lon="12.1665668"><ele>210.0</ele><time>2026-04-26T07:34:18.018Z</time></trkpt><trkpt lat="44.1127771" lon="12.1664153"><ele>210.0</ele><time>2026-04-26T07:34:19.011Z</time></trkpt><trkpt lat="44.112717" lon="12.1662706"><ele>210.0</ele><time>2026-04-26T07:34:20.019Z</time></trkpt><trkpt lat="44.1126831" lon="12.1661377"><ele>209.2</ele><time>2026-04-26T07:34:21.022Z</time></trkpt><trkpt lat="44.1126796" lon="12.1660081"><ele>208.4</ele><time>2026-04-26T07:34:22.015Z</time></trkpt><trkpt lat="44.1126997" lon="12.1658861"><ele>207.60000000000002</ele><time>2026-04-26T07:34:23.017Z</time></trkpt><trkpt lat="44.1127477" lon="12.1657808"><ele>206.8</ele><time>2026-04-26T07:34:24.025Z</time></trkpt><trkpt lat="44.1128208" lon="12.1656834"><ele>206.0</ele><time>2026-04-26T07:34:25.016Z</time></trkpt><trkpt lat="44.1129143" lon="12.1655894"><ele>206.0</ele><time>2026-04-26T07:34:26.027Z</time></trkpt><trkpt lat="44.113031" lon="12.1654831"><ele>206.0</ele><time>2026-04-26T07:34:27.025Z</time></trkpt><trkpt lat="44.1131491" lon="12.1653791"><ele>206.0</ele><time>2026-04-26T07:34:28.021Z</time></trkpt><trkpt lat="44.1132506" lon="12.1652695"><ele>206.0</ele><time>2026-04-26T07:34:29.021Z</time></trkpt><trkpt lat="44.1133324" lon="12.1651446"><ele>209.25</ele><time>2026-04-26T07:34:30.015Z</time></trkpt><trkpt lat="44.1133963" lon="12.1649992"><ele>212.5</ele><time>2026-04-26T07:34:31.024Z</time></trkpt><trkpt lat="44.1134243" lon="12.1648498"><ele>215.75</ele><time>2026-04-26T07:34:32.025Z</time></trkpt><trkpt lat="44.1134242" lon="12.1646889"><ele>219.0</ele><time>2026-04-26T07:34:33.014Z</time></trkpt><trkpt lat="44.1133979" lon="12.1645364"><ele>219.0</ele><time>2026-04-26T07:34:34.021Z</time></trkpt><trkpt lat="44.1133518" lon="12.1643991"><ele>219.0</ele><time>2026-04-26T07:34:35.041Z</time></trkpt><trkpt lat="44.1132741" lon="12.1642676"><ele>219.0</ele><time>2026-04-26T07:34:36.021Z</time></trkpt><trkpt lat="44.1131679" lon="12.1641603"><ele>219.0</ele><time>2026-04-26T07:34:37.02Z</time></trkpt><trkpt lat="44.1130445" lon="12.1640473"><ele>219.33333333333331</ele><time>2026-04-26T07:34:38.022Z</time></trkpt><trkpt lat="44.1129078" lon="12.1639156"><ele>219.66666666666666</ele><time>2026-04-26T07:34:39.025Z</time></trkpt><trkpt lat="44.1127898" lon="12.1637787"><ele>220.0</ele><time>2026-04-26T07:34:40.023Z</time></trkpt><trkpt lat="44.1126898" lon="12.1636471"><ele>220.0</ele><time>2026-04-26T07:34:41.017Z</time></trkpt><trkpt lat="44.1126057" lon="12.1635158"><ele>220.0</ele><time>2026-04-26T07:34:42.026Z</time></trkpt><trkpt lat="44.1125391" lon="12.1634067"><ele>220.0</ele><time>2026-04-26T07:34:43.017Z</time></trkpt><trkpt lat="44.1124901" lon="12.1632854"><ele>220.0</ele><time>2026-04-26T07:34:44.017Z</time></trkpt><trkpt lat="44.1124834" lon="12.1631514"><ele>220.0</ele><time>2026-04-26T07:34:45.018Z</time></trkpt><trkpt lat="44.1125145" lon="12.1629992"><ele>219.75</ele><time>2026-04-26T07:34:46.021Z</time></trkpt><trkpt lat="44.1125672" lon="12.1628535"><ele>219.5</ele><time>2026-04-26T07:34:47.015Z</time></trkpt><trkpt lat="44.1126524" lon="12.1627251"><ele>219.25</ele><time>2026-04-26T07:34:48.02Z</time></trkpt><trkpt lat="44.1127507" lon="12.1626196"><ele>219.0</ele><time>2026-04-26T07:34:49.021Z</time></trkpt><trkpt lat="44.1128749" lon="12.1625273"><ele>219.0</ele><time>2026-04-26T07:34:50.019Z</time></trkpt><trkpt lat="44.1130214" lon="12.162449"><ele>219.0</ele><time>2026-04-26T07:34:51.014Z</time></trkpt><trkpt lat="44.1131644" lon="12.1623779"><ele>219.0</ele><time>2026-04-26T07:34:52.032Z</time></trkpt><trkpt lat="44.1132863" lon="12.1622909"><ele>219.0</ele><time>2026-04-26T07:34:53.025Z</time></trkpt><trkpt lat="44.1134022" lon="12.1621809"><ele>220.0</ele><time>2026-04-26T07:34:54.027Z</time></trkpt><trkpt lat="44.1135115" lon="12.1620351"><ele>221.0</ele><time>2026-04-26T07:34:55.032Z</time></trkpt><trkpt lat="44.1135913" lon="12.1618677"><ele>222.0</ele><time>2026-04-26T07:34:56.026Z</time></trkpt><trkpt lat="44.1136435" lon="12.1616848"><ele>223.0</ele><time>2026-04-26T07:34:57.021Z</time></trkpt><trkpt lat="44.1136778" lon="12.1614816"><ele>225.0</ele><time>2026-04-26T07:34:58.023Z</time></trkpt><trkpt lat="44.1137111" lon="12.1612492"><ele>227.0</ele><time>2026-04-26T07:34:59.026Z</time></trkpt><trkpt lat="44.1137512" lon="12.1609889"><ele>229.0</ele><time>2026-04-26T07:35:00.02Z</time></trkpt><trkpt lat="44.1138051" lon="12.1606914"><ele>231.66666666666666</ele><time>2026-04-26T07:35:01.007Z</time></trkpt><trkpt lat="44.1138547" lon="12.1604189"><ele>234.33333333333331</ele><time>2026-04-26T07:35:02.02Z</time></trkpt><trkpt lat="44.1139062" lon="12.1601603"><ele>237.0</ele><time>2026-04-26T07:35:03.024Z</time></trkpt><trkpt lat="44.1139633" lon="12.1599027"><ele>236.66666666666669</ele><time>2026-04-26T07:35:04.029Z</time></trkpt><trkpt lat="44.1140567" lon="12.1596205"><ele>236.33333333333334</ele><time>2026-04-26T07:35:05.023Z</time></trkpt><trkpt lat="44.1141631" lon="12.1593507"><ele>236.0</ele><time>2026-04-26T07:35:06.022Z</time></trkpt><trkpt lat="44.1142529" lon="12.1591128"><ele>236.0</ele><time>2026-04-26T07:35:07.022Z</time></trkpt><trkpt lat="44.1143243" lon="12.158908"><ele>236.0</ele><time>2026-04-26T07:35:08.025Z</time></trkpt><trkpt lat="44.1143872" lon="12.1587213"><ele>236.0</ele><time>2026-04-26T07:35:09.034Z</time></trkpt><trkpt lat="44.1144324" lon="12.1585578"><ele>236.0</ele><time>2026-04-26T07:35:10.026Z</time></trkpt><trkpt lat="44.1144558" lon="12.1583948"><ele>236.0</ele><time>2026-04-26T07:35:11.033Z</time></trkpt><trkpt lat="44.1144482" lon="12.1582194"><ele>236.0</ele><time>2026-04-26T07:35:12.016Z</time></trkpt><trkpt lat="44.1144193" lon="12.1580435"><ele>236.0</ele><time>2026-04-26T07:35:13.019Z</time></trkpt><trkpt lat="44.1143647" lon="12.157863"><ele>236.0</ele><time>2026-04-26T07:35:14.025Z</time></trkpt><trkpt lat="44.1142877" lon="12.157674"><ele>235.33333333333334</ele><time>2026-04-26T07:35:15.038Z</time></trkpt><trkpt lat="44.114191" lon="12.1574586"><ele>234.66666666666669</ele><time>2026-04-26T07:35:16.027Z</time></trkpt><trkpt lat="44.1140978" lon="12.1572269"><ele>234.0</ele><time>2026-04-26T07:35:17.013Z</time></trkpt><trkpt lat="44.1140206" lon="12.1570386"><ele>234.0</ele><time>2026-04-26T07:35:18.017Z</time></trkpt><trkpt lat="44.1139619" lon="12.1569016"><ele>233.99999999999997</ele><time>2026-04-26T07:35:19.028Z</time></trkpt><trkpt lat="44.1139279" lon="12.1567778"><ele>233.99999999999997</ele><time>2026-04-26T07:35:20.024Z</time></trkpt><trkpt lat="44.1139338" lon="12.1566712"><ele>234.0</ele><time>2026-04-26T07:35:21.012Z</time></trkpt><trkpt lat="44.1139762" lon="12.1565701"><ele>234.0</ele><time>2026-04-26T07:35:22.027Z</time></trkpt><trkpt lat="44.114029" lon="12.1564861"><ele>237.6</ele><time>2026-04-26T07:35:23.021Z</time></trkpt><trkpt lat="44.1141029" lon="12.1564222"><ele>241.2</ele><time>2026-04-26T07:35:24.027Z</time></trkpt><trkpt lat="44.1142071" lon="12.1563605"><ele>244.79999999999998</ele><time>2026-04-26T07:35:25.02Z</time></trkpt><trkpt lat="44.1143168" lon="12.1562915"><ele>248.39999999999998</ele><time>2026-04-26T07:35:26.011Z</time></trkpt><trkpt lat="44.1144281" lon="12.1562108"><ele>252.0</ele><time>2026-04-26T07:35:27.028Z</time></trkpt><trkpt lat="44.114524" lon="12.1561081"><ele>252.0</ele><time>2026-04-26T07:35:28.023Z</time></trkpt><trkpt lat="44.114593" lon="12.1559826"><ele>252.0</ele><time>2026-04-26T07:35:29.025Z</time></trkpt><trkpt lat="44.1146489" lon="12.1558366"><ele>252.0</ele><time>2026-04-26T07:35:30.018Z</time></trkpt><trkpt lat="44.1146895" lon="12.1556739"><ele>252.0</ele><time>2026-04-26T07:35:31.022Z</time></trkpt><trkpt lat="44.1147215" lon="12.1555274"><ele>250.0</ele><time>2026-04-26T07:35:32.019Z</time></trkpt><trkpt lat="44.1147609" lon="12.1554097"><ele>248.0</ele><time>2026-04-26T07:35:33.028Z</time></trkpt><trkpt lat="44.1148349" lon="12.1552932"><ele>246.0</ele><time>2026-04-26T07:35:34.025Z</time></trkpt><trkpt lat="44.1149345" lon="12.1551995"><ele>244.0</ele><time>2026-04-26T07:35:35.026Z</time></trkpt><trkpt lat="44.1150517" lon="12.1550824"><ele>250.75</ele><time>2026-04-26T07:35:36.023Z</time></trkpt><trkpt lat="44.1151602" lon="12.1549758"><ele>257.5</ele><time>2026-04-26T07:35:37.024Z</time></trkpt><trkpt lat="44.1152574" lon="12.1548849"><ele>264.25</ele><time>2026-04-26T07:35:38.021Z</time></trkpt><trkpt lat="44.1153463" lon="12.1547964"><ele>271.0</ele><time>2026-04-26T07:35:39.02Z</time></trkpt><trkpt lat="44.1154223" lon="12.1547076"><ele>271.3333333333333</ele><time>2026-04-26T07:35:40.024Z</time></trkpt><trkpt lat="44.1154956" lon="12.1546166"><ele>271.66666666666663</ele><time>2026-04-26T07:35:41.027Z</time></trkpt><trkpt lat="44.1155674" lon="12.1545224"><ele>272.0</ele><time>2026-04-26T07:35:42.038Z</time></trkpt><trkpt lat="44.1156281" lon="12.1544237"><ele>272.3333333333333</ele><time>2026-04-26T07:35:43.023Z</time></trkpt><trkpt lat="44.1156451" lon="12.1543261"><ele>272.6666666666667</ele><time>2026-04-26T07:35:44.039Z</time></trkpt><trkpt lat="44.1156433" lon="12.1542174"><ele>273.0</ele><time>2026-04-26T07:35:45.017Z</time></trkpt><trkpt lat="44.1156066" lon="12.1540774"><ele>276.6</ele><time>2026-04-26T07:35:46.019Z</time></trkpt><trkpt lat="44.1155491" lon="12.1539572"><ele>280.20000000000005</ele><time>2026-04-26T07:35:47.023Z</time></trkpt><trkpt lat="44.1154732" lon="12.1538495"><ele>283.8</ele><time>2026-04-26T07:35:48.014Z</time></trkpt><trkpt lat="44.1153982" lon="12.1537562"><ele>287.40000000000003</ele><time>2026-04-26T07:35:49.017Z</time></trkpt><trkpt lat="44.1153238" lon="12.1536719"><ele>291.0</ele><time>2026-04-26T07:35:50.024Z</time></trkpt><trkpt lat="44.1152501" lon="12.1535978"><ele>291.0</ele><time>2026-04-26T07:35:51.018Z</time></trkpt><trkpt lat="44.1151768" lon="12.1535285"><ele>291.0</ele><time>2026-04-26T07:35:52.027Z</time></trkpt><trkpt lat="44.1150992" lon="12.1534579"><ele>291.0</ele><time>2026-04-26T07:35:53.019Z</time></trkpt><trkpt lat="44.1150211" lon="12.1533905"><ele>291.0</ele><time>2026-04-26T07:35:54.034Z</time></trkpt><trkpt lat="44.1149212" lon="12.1533259"><ele>291.0</ele><time>2026-04-26T07:35:55.02Z</time></trkpt><trkpt lat="44.1147893" lon="12.1532699"><ele>292.75</ele><time>2026-04-26T07:35:56.022Z</time></trkpt><trkpt lat="44.1146459" lon="12.1532021"><ele>294.5</ele><time>2026-04-26T07:35:57.017Z</time></trkpt><trkpt lat="44.1145148" lon="12.1531389"><ele>296.25</ele><time>2026-04-26T07:35:58.016Z</time></trkpt><trkpt lat="44.1144051" lon="12.1530629"><ele>298.0</ele><time>2026-04-26T07:35:59.027Z</time></trkpt><trkpt lat="44.1143154" lon="12.1529563"><ele>298.0</ele><time>2026-04-26T07:36:00.022Z</time></trkpt><trkpt lat="44.1142402" lon="12.1528224"><ele>298.0</ele><time>2026-04-26T07:36:01.013Z</time></trkpt><trkpt lat="44.1141809" lon="12.1526764"><ele>298.0</ele><time>2026-04-26T07:36:02.035Z</time></trkpt><trkpt lat="44.1141408" lon="12.1525203"><ele>298.0</ele><time>2026-04-26T07:36:03.022Z</time></trkpt><trkpt lat="44.1141093" lon="12.15237"><ele>297.8</ele><time>2026-04-26T07:36:04.03Z</time></trkpt><trkpt lat="44.1140969" lon="12.152248"><ele>297.6</ele><time>2026-04-26T07:36:05.018Z</time></trkpt><trkpt lat="44.114096" lon="12.1521341"><ele>297.4</ele><time>2026-04-26T07:36:06.028Z</time></trkpt><trkpt lat="44.1141336" lon="12.1520066"><ele>297.2</ele><time>2026-04-26T07:36:07.024Z</time></trkpt><trkpt lat="44.1142031" lon="12.1518739"><ele>297.0</ele><time>2026-04-26T07:36:08.051Z</time></trkpt><trkpt lat="44.1142965" lon="12.1517261"><ele>297.0</ele><time>2026-04-26T07:36:09.024Z</time></trkpt><trkpt lat="44.1144047" lon="12.1515673"><ele>297.0</ele><time>2026-04-26T07:36:10.019Z</time></trkpt><trkpt lat="44.1145246" lon="12.1513941"><ele>297.0</ele><time>2026-04-26T07:36:11.023Z</time></trkpt><trkpt lat="44.1146474" lon="12.1512258"><ele>298.0</ele><time>2026-04-26T07:36:12.037Z</time></trkpt><trkpt lat="44.1147657" lon="12.151068"><ele>299.0</ele><time>2026-04-26T07:36:13.024Z</time></trkpt><trkpt lat="44.1148745" lon="12.1509211"><ele>300.0</ele><time>2026-04-26T07:36:14.018Z</time></trkpt><trkpt lat="44.1149786" lon="12.1507823"><ele>298.0</ele><time>2026-04-26T07:36:15.027Z</time></trkpt><trkpt lat="44.1150825" lon="12.1506395"><ele>296.0</ele><time>2026-04-26T07:36:16.027Z</time></trkpt><trkpt lat="44.1151812" lon="12.1504923"><ele>294.0</ele><time>2026-04-26T07:36:17.023Z</time></trkpt><trkpt lat="44.115276" lon="12.1503332"><ele>292.0</ele><time>2026-04-26T07:36:18.026Z</time></trkpt><trkpt lat="44.1153625" lon="12.1501717"><ele>292.0</ele><time>2026-04-26T07:36:19.025Z</time></trkpt><trkpt lat="44.1154424" lon="12.1500074"><ele>292.0</ele><time>2026-04-26T07:36:20.019Z</time></trkpt><trkpt lat="44.1155152" lon="12.1498494"><ele>292.0</ele><time>2026-04-26T07:36:21.014Z</time></trkpt><trkpt lat="44.1155798" lon="12.1497077"><ele>292.0</ele><time>2026-04-26T07:36:22.017Z</time></trkpt><trkpt lat="44.1156466" lon="12.1495729"><ele>291.6</ele><time>2026-04-26T07:36:23.021Z</time></trkpt><trkpt lat="44.1157109" lon="12.1494346"><ele>291.2</ele><time>2026-04-26T07:36:24.018Z</time></trkpt><trkpt lat="44.1157749" lon="12.1493028"><ele>290.8</ele><time>2026-04-26T07:36:25.019Z</time></trkpt><trkpt lat="44.115841" lon="12.149188"><ele>290.4</ele><time>2026-04-26T07:36:26.016Z</time></trkpt><trkpt lat="44.1159066" lon="12.1490638"><ele>290.0</ele><time>2026-04-26T07:36:27.023Z</time></trkpt><trkpt lat="44.115956" lon="12.1489428"><ele>289.2</ele><time>2026-04-26T07:36:28.021Z</time></trkpt><trkpt lat="44.1159876" lon="12.1488175"><ele>288.4</ele><time>2026-04-26T07:36:29.021Z</time></trkpt><trkpt lat="44.1159969" lon="12.148674"><ele>287.6</ele><time>2026-04-26T07:36:30.025Z</time></trkpt><trkpt lat="44.1159854" lon="12.1485199"><ele>286.8</ele><time>2026-04-26T07:36:31.018Z</time></trkpt><trkpt lat="44.1159592" lon="12.1483451"><ele>286.0</ele><time>2026-04-26T07:36:32.021Z</time></trkpt><trkpt lat="44.1159299" lon="12.1481327"><ele>286.0</ele><time>2026-04-26T07:36:33.018Z</time></trkpt><trkpt lat="44.1158952" lon="12.1478906"><ele>286.0</ele><time>2026-04-26T07:36:34.023Z</time></trkpt><trkpt lat="44.1158582" lon="12.1476473"><ele>286.0</ele><time>2026-04-26T07:36:35.024Z</time></trkpt><trkpt lat="44.1158272" lon="12.1474271"><ele>285.75</ele><time>2026-04-26T07:36:36.025Z</time></trkpt><trkpt lat="44.1158071" lon="12.1472403"><ele>285.5</ele><time>2026-04-26T07:36:37.026Z</time></trkpt><trkpt lat="44.1157977" lon="12.1470579"><ele>285.25</ele><time>2026-04-26T07:36:38.021Z</time></trkpt><trkpt lat="44.1157905" lon="12.1468927"><ele>285.0</ele><time>2026-04-26T07:36:39.021Z</time></trkpt><trkpt lat="44.1157934" lon="12.1467489"><ele>285.0</ele><time>2026-04-26T07:36:40.024Z</time></trkpt><trkpt lat="44.1157984" lon="12.1466315"><ele>285.0</ele><time>2026-04-26T07:36:41.018Z</time></trkpt><trkpt lat="44.1157974" lon="12.1465407"><ele>285.0</ele><time>2026-04-26T07:36:42.022Z</time></trkpt><trkpt lat="44.1157702" lon="12.1463562"><ele>285.0</ele><time>2026-04-26T07:36:44.018Z</time></trkpt><trkpt lat="44.1157145" lon="12.1462364"><ele>285.0</ele><time>2026-04-26T07:36:45.015Z</time></trkpt><trkpt lat="44.1156302" lon="12.1461025"><ele>284.3333333333333</ele><time>2026-04-26T07:36:46.024Z</time></trkpt><trkpt lat="44.1155584" lon="12.1459419"><ele>283.66666666666663</ele><time>2026-04-26T07:36:47.013Z</time></trkpt><trkpt lat="44.115501" lon="12.1457342"><ele>283.0</ele><time>2026-04-26T07:36:48.024Z</time></trkpt><trkpt lat="44.1154531" lon="12.1455097"><ele>283.0</ele><time>2026-04-26T07:36:49.013Z</time></trkpt><trkpt lat="44.1154156" lon="12.14528"><ele>283.0</ele><time>2026-04-26T07:36:50.023Z</time></trkpt><trkpt lat="44.1153828" lon="12.145079"><ele>283.0</ele><time>2026-04-26T07:36:51.023Z</time></trkpt><trkpt lat="44.1153611" lon="12.1449252"><ele>283.0</ele><time>2026-04-26T07:36:52.017Z</time></trkpt><trkpt lat="44.1153334" lon="12.1447774"><ele>287.0</ele><time>2026-04-26T07:36:53.013Z</time></trkpt><trkpt lat="44.1152907" lon="12.1446411"><ele>291.0</ele><time>2026-04-26T07:36:54.022Z</time></trkpt><trkpt lat="44.1152214" lon="12.1445108"><ele>295.0</ele><time>2026-04-26T07:36:55.022Z</time></trkpt><trkpt lat="44.1151198" lon="12.1444024"><ele>299.0</ele><time>2026-04-26T07:36:56.016Z</time></trkpt><trkpt lat="44.1149939" lon="12.1442968"><ele>298.25</ele><time>2026-04-26T07:36:57.026Z</time></trkpt><trkpt lat="44.1148571" lon="12.144207"><ele>297.5</ele><time>2026-04-26T07:36:58.024Z</time></trkpt><trkpt lat="44.1147224" lon="12.1441286"><ele>296.75</ele><time>2026-04-26T07:36:59.018Z</time></trkpt><trkpt lat="44.114607" lon="12.1440529"><ele>296.0</ele><time>2026-04-26T07:37:00.027Z</time></trkpt><trkpt lat="44.1145167" lon="12.1439684"><ele>296.0</ele><time>2026-04-26T07:37:01.025Z</time></trkpt><trkpt lat="44.1144715" lon="12.1438587"><ele>296.0</ele><time>2026-04-26T07:37:02.029Z</time></trkpt><trkpt lat="44.1144592" lon="12.1437332"><ele>296.0</ele><time>2026-04-26T07:37:03.019Z</time></trkpt><trkpt lat="44.1144705" lon="12.1435871"><ele>296.0</ele><time>2026-04-26T07:37:04.028Z</time></trkpt><trkpt lat="44.1145061" lon="12.1434068"><ele>296.0</ele><time>2026-04-26T07:37:05.019Z</time></trkpt><trkpt lat="44.1145469" lon="12.1431945"><ele>295.0</ele><time>2026-04-26T07:37:06.018Z</time></trkpt><trkpt lat="44.1145763" lon="12.1429878"><ele>294.0</ele><time>2026-04-26T07:37:07.037Z</time></trkpt><trkpt lat="44.1145991" lon="12.1428184"><ele>293.0</ele><time>2026-04-26T07:37:08.015Z</time></trkpt><trkpt lat="44.1146148" lon="12.1426877"><ele>292.0</ele><time>2026-04-26T07:37:09.018Z</time></trkpt><trkpt lat="44.114629" lon="12.1425815"><ele>291.0</ele><time>2026-04-26T07:37:10.026Z</time></trkpt><trkpt lat="44.1146357" lon="12.1424926"><ele>292.75</ele><time>2026-04-26T07:37:11.021Z</time></trkpt><trkpt lat="44.11458" lon="12.1423445"><ele>294.5</ele><time>2026-04-26T07:37:13.025Z</time></trkpt><trkpt lat="44.1144923" lon="12.142277"><ele>296.25</ele><time>2026-04-26T07:37:14.026Z</time></trkpt><trkpt lat="44.1143814" lon="12.1422069"><ele>298.0</ele><time>2026-04-26T07:37:15.007Z</time></trkpt><trkpt lat="44.1142545" lon="12.1420939"><ele>298.0</ele><time>2026-04-26T07:37:16.022Z</time></trkpt><trkpt lat="44.1141167" lon="12.1419549"><ele>298.0</ele><time>2026-04-26T07:37:17.014Z</time></trkpt><trkpt lat="44.1139778" lon="12.1418119"><ele>298.0</ele><time>2026-04-26T07:37:18.023Z</time></trkpt><trkpt lat="44.1138558" lon="12.1416904"><ele>296.0</ele><time>2026-04-26T07:37:19.031Z</time></trkpt><trkpt lat="44.1137444" lon="12.1415774"><ele>294.0</ele><time>2026-04-26T07:37:20.024Z</time></trkpt><trkpt lat="44.1136375" lon="12.1414802"><ele>292.0</ele><time>2026-04-26T07:37:21.02Z</time></trkpt><trkpt lat="44.1135134" lon="12.1413962"><ele>290.0</ele><time>2026-04-26T07:37:22.03Z</time></trkpt><trkpt lat="44.1133679" lon="12.1413559"><ele>291.33333333333337</ele><time>2026-04-26T07:37:23.028Z</time></trkpt><trkpt lat="44.1132076" lon="12.1413371"><ele>292.6666666666667</ele><time>2026-04-26T07:37:24.018Z</time></trkpt><trkpt lat="44.1130463" lon="12.1413414"><ele>294.0</ele><time>2026-04-26T07:37:25.014Z</time></trkpt><trkpt lat="44.1128937" lon="12.1413489"><ele>294.0</ele><time>2026-04-26T07:37:26.035Z</time></trkpt><trkpt lat="44.1127586" lon="12.1413473"><ele>294.0</ele><time>2026-04-26T07:37:27.023Z</time></trkpt><trkpt lat="44.112636" lon="12.1413549"><ele>294.0</ele><time>2026-04-26T07:37:28.028Z</time></trkpt><trkpt lat="44.112518" lon="12.141403"><ele>294.0</ele><time>2026-04-26T07:37:29.02Z</time></trkpt><trkpt lat="44.1123922" lon="12.1414997"><ele>291.5</ele><time>2026-04-26T07:37:30.027Z</time></trkpt><trkpt lat="44.1122684" lon="12.1416208"><ele>289.0</ele><time>2026-04-26T07:37:31.016Z</time></trkpt><trkpt lat="44.1121585" lon="12.1417458"><ele>286.5</ele><time>2026-04-26T07:37:32.026Z</time></trkpt><trkpt lat="44.112046" lon="12.1418399"><ele>284.0</ele><time>2026-04-26T07:37:33.035Z</time></trkpt><trkpt lat="44.1119258" lon="12.1419035"><ele>284.0</ele><time>2026-04-26T07:37:34.028Z</time></trkpt><trkpt lat="44.1118092" lon="12.1419547"><ele>284.0</ele><time>2026-04-26T07:37:35.024Z</time></trkpt><trkpt lat="44.111688" lon="12.1419637"><ele>284.0</ele><time>2026-04-26T07:37:36.015Z</time></trkpt><trkpt lat="44.1115573" lon="12.1419332"><ele>284.0</ele><time>2026-04-26T07:37:37.03Z</time></trkpt><trkpt lat="44.1114145" lon="12.1418791"><ele>281.6666666666667</ele><time>2026-04-26T07:37:38.026Z</time></trkpt><trkpt lat="44.1112691" lon="12.1418351"><ele>279.3333333333333</ele><time>2026-04-26T07:37:39.024Z</time></trkpt><trkpt lat="44.1111034" lon="12.1417805"><ele>277.0</ele><time>2026-04-26T07:37:40.027Z</time></trkpt><trkpt lat="44.1109206" lon="12.1417324"><ele>276.66666666666663</ele><time>2026-04-26T07:37:41.022Z</time></trkpt><trkpt lat="44.1107391" lon="12.1416892"><ele>276.3333333333333</ele><time>2026-04-26T07:37:42.021Z</time></trkpt><trkpt lat="44.1105607" lon="12.1416621"><ele>276.0</ele><time>2026-04-26T07:37:43.027Z</time></trkpt><trkpt lat="44.1103803" lon="12.1416297"><ele>276.0</ele><time>2026-04-26T07:37:44.026Z</time></trkpt><trkpt lat="44.1102052" lon="12.1415999"><ele>276.0</ele><time>2026-04-26T07:37:45.021Z</time></trkpt><trkpt lat="44.1100352" lon="12.1415762"><ele>276.0</ele><time>2026-04-26T07:37:46.039Z</time></trkpt><trkpt lat="44.1098814" lon="12.1415475"><ele>274.0</ele><time>2026-04-26T07:37:47.023Z</time></trkpt><trkpt lat="44.109738" lon="12.141513"><ele>272.0</ele><time>2026-04-26T07:37:48.023Z</time></trkpt><trkpt lat="44.1096029" lon="12.1414836"><ele>270.0</ele><time>2026-04-26T07:37:49.015Z</time></trkpt><trkpt lat="44.109469" lon="12.1414457"><ele>268.0</ele><time>2026-04-26T07:37:50.023Z</time></trkpt><trkpt lat="44.1093414" lon="12.1414167"><ele>268.0</ele><time>2026-04-26T07:37:51.017Z</time></trkpt><trkpt lat="44.1092039" lon="12.1413968"><ele>268.0</ele><time>2026-04-26T07:37:52.031Z</time></trkpt><trkpt lat="44.1090583" lon="12.1414056"><ele>268.0</ele><time>2026-04-26T07:37:53.015Z</time></trkpt><trkpt lat="44.1089005" lon="12.1414189"><ele>268.0</ele><time>2026-04-26T07:37:54.013Z</time></trkpt><trkpt lat="44.1087426" lon="12.1414463"><ele>269.0</ele><time>2026-04-26T07:37:55.026Z</time></trkpt><trkpt lat="44.1085879" lon="12.1414698"><ele>270.0</ele><time>2026-04-26T07:37:56.057Z</time></trkpt><trkpt lat="44.1084451" lon="12.1414952"><ele>271.0</ele><time>2026-04-26T07:37:57.026Z</time></trkpt><trkpt lat="44.1083172" lon="12.14152"><ele>272.0</ele><time>2026-04-26T07:37:58.025Z</time></trkpt><trkpt lat="44.1081998" lon="12.1415402"><ele>272.0</ele><time>2026-04-26T07:37:59.022Z</time></trkpt><trkpt lat="44.1081008" lon="12.1415617"><ele>272.0</ele><time>2026-04-26T07:38:00.029Z</time></trkpt><trkpt lat="44.1080145" lon="12.141577"><ele>272.0</ele><time>2026-04-26T07:38:01.025Z</time></trkpt><trkpt lat="44.1079443" lon="12.1415959"><ele>272.0</ele><time>2026-04-26T07:38:02.027Z</time></trkpt><trkpt lat="44.107841" lon="12.1416084"><ele>272.0</ele><time>2026-04-26T07:38:04.022Z</time></trkpt><trkpt lat="44.1077744" lon="12.1416042"><ele>272.0</ele><time>2026-04-26T07:38:34.026Z</time></trkpt><trkpt lat="44.1076898" lon="12.1416311"><ele>272.0</ele><time>2026-04-26T07:38:36.026Z</time></trkpt><trkpt lat="44.1076241" lon="12.1416778"><ele>272.0</ele><time>2026-04-26T07:38:37.026Z</time></trkpt><trkpt lat="44.1075373" lon="12.1417114"><ele>272.0</ele><time>2026-04-26T07:38:38.03Z</time></trkpt><trkpt lat="44.1074255" lon="12.1417561"><ele>272.0</ele><time>2026-04-26T07:38:39.021Z</time></trkpt><trkpt lat="44.1073005" lon="12.1417973"><ele>272.0</ele><time>2026-04-26T07:38:40.019Z</time></trkpt><trkpt lat="44.1071723" lon="12.1418249"><ele>270.33333333333337</ele><time>2026-04-26T07:38:41.021Z</time></trkpt><trkpt lat="44.1070369" lon="12.1418125"><ele>268.6666666666667</ele><time>2026-04-26T07:38:42.029Z</time></trkpt><trkpt lat="44.106881" lon="12.1417791"><ele>267.0</ele><time>2026-04-26T07:38:43.028Z</time></trkpt><trkpt lat="44.1067147" lon="12.1417307"><ele>264.6666666666667</ele><time>2026-04-26T07:38:44.036Z</time></trkpt><trkpt lat="44.1065605" lon="12.1416644"><ele>262.33333333333337</ele><time>2026-04-26T07:38:45.018Z</time></trkpt><trkpt lat="44.1064158" lon="12.1416004"><ele>260.0</ele><time>2026-04-26T07:38:46.018Z</time></trkpt><trkpt lat="44.1062743" lon="12.1415514"><ele>260.0</ele><time>2026-04-26T07:38:47.025Z</time></trkpt><trkpt lat="44.1061244" lon="12.1415433"><ele>260.0</ele><time>2026-04-26T07:38:48.024Z</time></trkpt><trkpt lat="44.1059701" lon="12.1415697"><ele>260.0</ele><time>2026-04-26T07:38:49.021Z</time></trkpt><trkpt lat="44.1058196" lon="12.141604"><ele>262.0</ele><time>2026-04-26T07:38:50.017Z</time></trkpt><trkpt lat="44.1056774" lon="12.1416435"><ele>264.0</ele><time>2026-04-26T07:38:51.025Z</time></trkpt><trkpt lat="44.1055391" lon="12.1416942"><ele>266.0</ele><time>2026-04-26T07:38:52.023Z</time></trkpt><trkpt lat="44.1053986" lon="12.1417564"><ele>268.0</ele><time>2026-04-26T07:38:53.02Z</time></trkpt><trkpt lat="44.1052593" lon="12.1418444"><ele>268.0</ele><time>2026-04-26T07:38:54.024Z</time></trkpt><trkpt lat="44.1051302" lon="12.1419315"><ele>268.0</ele><time>2026-04-26T07:38:55.022Z</time></trkpt><trkpt lat="44.1050038" lon="12.142017"><ele>268.0</ele><time>2026-04-26T07:38:56.01Z</time></trkpt><trkpt lat="44.1048833" lon="12.1420953"><ele>268.0</ele><time>2026-04-26T07:38:57.027Z</time></trkpt><trkpt lat="44.1047602" lon="12.1421512"><ele>270.3333333333333</ele><time>2026-04-26T07:38:58.021Z</time></trkpt><trkpt lat="44.104622" lon="12.1421859"><ele>272.6666666666667</ele><time>2026-04-26T07:38:59.017Z</time></trkpt><trkpt lat="44.1044643" lon="12.1422015"><ele>275.0</ele><time>2026-04-26T07:39:00.018Z</time></trkpt><trkpt lat="44.1042845" lon="12.1421958"><ele>275.0</ele><time>2026-04-26T07:39:01.026Z</time></trkpt><trkpt lat="44.1040983" lon="12.1421919"><ele>275.0</ele><time>2026-04-26T07:39:02.017Z</time></trkpt><trkpt lat="44.1039259" lon="12.1421939"><ele>275.0</ele><time>2026-04-26T07:39:03.017Z</time></trkpt><trkpt lat="44.103762" lon="12.142191"><ele>273.0</ele><time>2026-04-26T07:39:04.019Z</time></trkpt><trkpt lat="44.1036026" lon="12.1421878"><ele>271.0</ele><time>2026-04-26T07:39:05.034Z</time></trkpt><trkpt lat="44.1034431" lon="12.1422128"><ele>269.0</ele><time>2026-04-26T07:39:06.025Z</time></trkpt><trkpt lat="44.1032868" lon="12.1422505"><ele>269.0</ele><time>2026-04-26T07:39:07.019Z</time></trkpt><trkpt lat="44.1031281" lon="12.1422965"><ele>269.0</ele><time>2026-04-26T07:39:08.023Z</time></trkpt><trkpt lat="44.1029899" lon="12.1423368"><ele>269.0</ele><time>2026-04-26T07:39:09.019Z</time></trkpt><trkpt lat="44.1028589" lon="12.1423707"><ele>269.0</ele><time>2026-04-26T07:39:10.03Z</time></trkpt><trkpt lat="44.1027411" lon="12.1424005"><ele>269.0</ele><time>2026-04-26T07:39:11.018Z</time></trkpt><trkpt lat="44.1026352" lon="12.1424333"><ele>269.0</ele><time>2026-04-26T07:39:12.019Z</time></trkpt><trkpt lat="44.1025382" lon="12.1424629"><ele>269.0</ele><time>2026-04-26T07:39:13.023Z</time></trkpt><trkpt lat="44.102448" lon="12.1424786"><ele>269.0</ele><time>2026-04-26T07:39:14.025Z</time></trkpt><trkpt lat="44.1023617" lon="12.1424976"><ele>269.0</ele><time>2026-04-26T07:39:15.013Z</time></trkpt><trkpt lat="44.1022812" lon="12.142511"><ele>270.8</ele><time>2026-04-26T07:39:16.02Z</time></trkpt><trkpt lat="44.1021959" lon="12.1425289"><ele>272.59999999999997</ele><time>2026-04-26T07:39:17.011Z</time></trkpt><trkpt lat="44.1021065" lon="12.1425422"><ele>274.4</ele><time>2026-04-26T07:39:18.018Z</time></trkpt><trkpt lat="44.1019965" lon="12.1425449"><ele>276.2</ele><time>2026-04-26T07:39:19.02Z</time></trkpt><trkpt lat="44.1018711" lon="12.1425295"><ele>278.0</ele><time>2026-04-26T07:39:20.018Z</time></trkpt><trkpt lat="44.1017451" lon="12.1424795"><ele>278.0</ele><time>2026-04-26T07:39:21.015Z</time></trkpt><trkpt lat="44.1016187" lon="12.1424058"><ele>278.0</ele><time>2026-04-26T07:39:22.023Z</time></trkpt><trkpt lat="44.1014801" lon="12.1423207"><ele>278.0</ele><time>2026-04-26T07:39:23.016Z</time></trkpt><trkpt lat="44.1013406" lon="12.1422202"><ele>278.0</ele><time>2026-04-26T07:39:24.021Z</time></trkpt><trkpt lat="44.1012035" lon="12.1421167"><ele>280.0</ele><time>2026-04-26T07:39:25.019Z</time></trkpt><trkpt lat="44.1010535" lon="12.142039"><ele>282.0</ele><time>2026-04-26T07:39:26.018Z</time></trkpt><trkpt lat="44.100894" lon="12.1419651"><ele>284.0</ele><time>2026-04-26T07:39:27.022Z</time></trkpt><trkpt lat="44.1007421" lon="12.1418972"><ele>285.25</ele><time>2026-04-26T07:39:28.018Z</time></trkpt><trkpt lat="44.1006176" lon="12.1418314"><ele>286.5</ele><time>2026-04-26T07:39:29.021Z</time></trkpt><trkpt lat="44.10051" lon="12.1417524"><ele>287.75</ele><time>2026-04-26T07:39:30.022Z</time></trkpt><trkpt lat="44.1004254" lon="12.1416623"><ele>289.0</ele><time>2026-04-26T07:39:31.018Z</time></trkpt><trkpt lat="44.1003752" lon="12.1415479"><ele>289.0</ele><time>2026-04-26T07:39:32.019Z</time></trkpt><trkpt lat="44.1003403" lon="12.1414133"><ele>289.0</ele><time>2026-04-26T07:39:33.017Z</time></trkpt><trkpt lat="44.1002814" lon="12.1413005"><ele>289.0</ele><time>2026-04-26T07:39:34.019Z</time></trkpt><trkpt lat="44.1001984" lon="12.1412388"><ele>289.0</ele><time>2026-04-26T07:39:35.012Z</time></trkpt><trkpt lat="44.1001175" lon="12.1412183"><ele>289.0</ele><time>2026-04-26T07:39:36.02Z</time></trkpt><trkpt lat="44.1000308" lon="12.1412355"><ele>289.0</ele><time>2026-04-26T07:39:37.015Z</time></trkpt><trkpt lat="44.0999403" lon="12.1412785"><ele>289.0</ele><time>2026-04-26T07:39:38.021Z</time></trkpt><trkpt lat="44.0998215" lon="12.1413351"><ele>289.0</ele><time>2026-04-26T07:39:39.021Z</time></trkpt><trkpt lat="44.099679" lon="12.1413578"><ele>289.0</ele><time>2026-04-26T07:39:40.022Z</time></trkpt><trkpt lat="44.0995222" lon="12.1413557"><ele>291.0</ele><time>2026-04-26T07:39:41.017Z</time></trkpt><trkpt lat="44.0993596" lon="12.1413242"><ele>293.0</ele><time>2026-04-26T07:39:42.022Z</time></trkpt><trkpt lat="44.0991956" lon="12.1412675"><ele>295.0</ele><time>2026-04-26T07:39:43.033Z</time></trkpt><trkpt lat="44.0990503" lon="12.1411922"><ele>296.75</ele><time>2026-04-26T07:39:44.019Z</time></trkpt><trkpt lat="44.0989219" lon="12.1411279"><ele>298.5</ele><time>2026-04-26T07:39:45.035Z</time></trkpt><trkpt lat="44.0988124" lon="12.1410556"><ele>300.25</ele><time>2026-04-26T07:39:46.026Z</time></trkpt><trkpt lat="44.0987074" lon="12.1410101"><ele>302.0</ele><time>2026-04-26T07:39:47.022Z</time></trkpt><trkpt lat="44.0985933" lon="12.1410131"><ele>302.0</ele><time>2026-04-26T07:39:48.022Z</time></trkpt><trkpt lat="44.0984724" lon="12.1410491"><ele>302.0</ele><time>2026-04-26T07:39:49.038Z</time></trkpt><trkpt lat="44.098348" lon="12.1411124"><ele>302.0</ele><time>2026-04-26T07:39:50.026Z</time></trkpt><trkpt lat="44.0982098" lon="12.1412072"><ele>302.0</ele><time>2026-04-26T07:39:51.022Z</time></trkpt><trkpt lat="44.0980765" lon="12.1413022"><ele>304.75</ele><time>2026-04-26T07:39:52.031Z</time></trkpt><trkpt lat="44.0979601" lon="12.1413809"><ele>307.5</ele><time>2026-04-26T07:39:53.02Z</time></trkpt><trkpt lat="44.0978584" lon="12.1414436"><ele>310.25</ele><time>2026-04-26T07:39:54.032Z</time></trkpt><trkpt lat="44.0977539" lon="12.1414819"><ele>313.0</ele><time>2026-04-26T07:39:55.022Z</time></trkpt><trkpt lat="44.0976522" lon="12.1414909"><ele>313.0</ele><time>2026-04-26T07:39:56.018Z</time></trkpt><trkpt lat="44.0975553" lon="12.1414494"><ele>313.0</ele><time>2026-04-26T07:39:57.017Z</time></trkpt><trkpt lat="44.0974597" lon="12.1413813"><ele>313.0</ele><time>2026-04-26T07:39:58.014Z</time></trkpt><trkpt lat="44.0973617" lon="12.1413064"><ele>313.0</ele><time>2026-04-26T07:39:59.026Z</time></trkpt><trkpt lat="44.0972722" lon="12.1412712"><ele>313.0</ele><time>2026-04-26T07:40:00.031Z</time></trkpt><trkpt lat="44.0971978" lon="12.1412827"><ele>313.2</ele><time>2026-04-26T07:40:01.013Z</time></trkpt><trkpt lat="44.0971414" lon="12.1413268"><ele>313.4</ele><time>2026-04-26T07:40:02.016Z</time></trkpt><trkpt lat="44.0970901" lon="12.1413883"><ele>313.59999999999997</ele><time>2026-04-26T07:40:03.021Z</time></trkpt><trkpt lat="44.0970371" lon="12.1414939"><ele>313.8</ele><time>2026-04-26T07:40:04.019Z</time></trkpt><trkpt lat="44.0969882" lon="12.1416343"><ele>314.0</ele><time>2026-04-26T07:40:05.022Z</time></trkpt><trkpt lat="44.0969351" lon="12.1417958"><ele>313.5</ele><time>2026-04-26T07:40:06.026Z</time></trkpt><trkpt lat="44.0968822" lon="12.1419744"><ele>313.0</ele><time>2026-04-26T07:40:07.024Z</time></trkpt><trkpt lat="44.0968333" lon="12.1421737"><ele>312.5</ele><time>2026-04-26T07:40:08.022Z</time></trkpt><trkpt lat="44.096809" lon="12.1423662"><ele>312.0</ele><time>2026-04-26T07:40:09.024Z</time></trkpt><trkpt lat="44.0967883" lon="12.1425404"><ele>313.0</ele><time>2026-04-26T07:40:10.019Z</time></trkpt><trkpt lat="44.096745" lon="12.142699"><ele>314.0</ele><time>2026-04-26T07:40:11.024Z</time></trkpt><trkpt lat="44.0966631" lon="12.1428539"><ele>315.0</ele><time>2026-04-26T07:40:12.022Z</time></trkpt><trkpt lat="44.0965665" lon="12.142992"><ele>316.0</ele><time>2026-04-26T07:40:13.017Z</time></trkpt><trkpt lat="44.0964733" lon="12.1431121"><ele>313.40000000000003</ele><time>2026-04-26T07:40:14.022Z</time></trkpt><trkpt lat="44.0964058" lon="12.1432182"><ele>310.8</ele><time>2026-04-26T07:40:15.02Z</time></trkpt><trkpt lat="44.0963769" lon="12.143327"><ele>308.20000000000005</ele><time>2026-04-26T07:40:16.03Z</time></trkpt><trkpt lat="44.0963762" lon="12.1434543"><ele>305.6</ele><time>2026-04-26T07:40:17.029Z</time></trkpt><trkpt lat="44.0963903" lon="12.143596"><ele>303.0</ele><time>2026-04-26T07:40:18.026Z</time></trkpt><trkpt lat="44.0964157" lon="12.1437485"><ele>303.0</ele><time>2026-04-26T07:40:19.018Z</time></trkpt><trkpt lat="44.0964363" lon="12.1439059"><ele>303.0</ele><time>2026-04-26T07:40:20.024Z</time></trkpt><trkpt lat="44.0964318" lon="12.1440663"><ele>303.0</ele><time>2026-04-26T07:40:21.026Z</time></trkpt><trkpt lat="44.0964083" lon="12.1442404"><ele>303.0</ele><time>2026-04-26T07:40:22.035Z</time></trkpt><trkpt lat="44.0963676" lon="12.1444015"><ele>305.6</ele><time>2026-04-26T07:40:23.035Z</time></trkpt><trkpt lat="44.0963108" lon="12.1445387"><ele>308.20000000000005</ele><time>2026-04-26T07:40:24.033Z</time></trkpt><trkpt lat="44.0962497" lon="12.1446402"><ele>310.8</ele><time>2026-04-26T07:40:25.022Z</time></trkpt><trkpt lat="44.0961659" lon="12.1447237"><ele>313.40000000000003</ele><time>2026-04-26T07:40:26.032Z</time></trkpt><trkpt lat="44.0960605" lon="12.1447735"><ele>316.0</ele><time>2026-04-26T07:40:27.025Z</time></trkpt><trkpt lat="44.0959378" lon="12.1448091"><ele>316.0</ele><time>2026-04-26T07:40:28.023Z</time></trkpt><trkpt lat="44.0958086" lon="12.1448231"><ele>316.0</ele><time>2026-04-26T07:40:29.02Z</time></trkpt><trkpt lat="44.0956781" lon="12.1448154"><ele>316.0</ele><time>2026-04-26T07:40:30.012Z</time></trkpt><trkpt lat="44.095537" lon="12.1448026"><ele>316.0</ele><time>2026-04-26T07:40:31.021Z</time></trkpt><trkpt lat="44.095388" lon="12.1447798"><ele>314.66666666666663</ele><time>2026-04-26T07:40:32.025Z</time></trkpt><trkpt lat="44.0952344" lon="12.144782"><ele>313.3333333333333</ele><time>2026-04-26T07:40:33.024Z</time></trkpt><trkpt lat="44.0950861" lon="12.1448201"><ele>312.0</ele><time>2026-04-26T07:40:34.031Z</time></trkpt><trkpt lat="44.0949309" lon="12.1449103"><ele>313.6666666666667</ele><time>2026-04-26T07:40:35.039Z</time></trkpt><trkpt lat="44.0947876" lon="12.1450028"><ele>315.33333333333337</ele><time>2026-04-26T07:40:36.044Z</time></trkpt><trkpt lat="44.0946446" lon="12.1450941"><ele>317.0</ele><time>2026-04-26T07:40:37.035Z</time></trkpt><trkpt lat="44.0944969" lon="12.1451595"><ele>317.0</ele><time>2026-04-26T07:40:38.039Z</time></trkpt><trkpt lat="44.0943498" lon="12.1452282"><ele>317.0</ele><time>2026-04-26T07:40:39.028Z</time></trkpt><trkpt lat="44.0942164" lon="12.145321"><ele>317.0</ele><time>2026-04-26T07:40:40.046Z</time></trkpt><trkpt lat="44.0940975" lon="12.1454419"><ele>320.33333333333337</ele><time>2026-04-26T07:40:41.03Z</time></trkpt><trkpt lat="44.0939772" lon="12.1455966"><ele>323.6666666666667</ele><time>2026-04-26T07:40:42.024Z</time></trkpt><trkpt lat="44.0938491" lon="12.1457566"><ele>327.0</ele><time>2026-04-26T07:40:43.018Z</time></trkpt><trkpt lat="44.0937127" lon="12.1459224"><ele>328.3333333333333</ele><time>2026-04-26T07:40:44.029Z</time></trkpt><trkpt lat="44.0935745" lon="12.1461"><ele>329.66666666666663</ele><time>2026-04-26T07:40:45.023Z</time></trkpt><trkpt lat="44.093444" lon="12.1462621"><ele>331.0</ele><time>2026-04-26T07:40:46.04Z</time></trkpt><trkpt lat="44.0933229" lon="12.1464129"><ele>334.0</ele><time>2026-04-26T07:40:47.022Z</time></trkpt><trkpt lat="44.0932138" lon="12.1465547"><ele>337.0</ele><time>2026-04-26T07:40:48.027Z</time></trkpt><trkpt lat="44.093122" lon="12.1466957"><ele>340.0</ele><time>2026-04-26T07:40:49.026Z</time></trkpt><trkpt lat="44.0930514" lon="12.1468377"><ele>343.0</ele><time>2026-04-26T07:40:50.031Z</time></trkpt><trkpt lat="44.0930003" lon="12.1470033"><ele>343.0</ele><time>2026-04-26T07:40:51.02Z</time></trkpt><trkpt lat="44.0929559" lon="12.1472026"><ele>343.0</ele><time>2026-04-26T07:40:52.033Z</time></trkpt><trkpt lat="44.0929378" lon="12.1474075"><ele>343.0</ele><time>2026-04-26T07:40:53.022Z</time></trkpt><trkpt lat="44.0929399" lon="12.147602"><ele>343.0</ele><time>2026-04-26T07:40:54.022Z</time></trkpt><trkpt lat="44.0929452" lon="12.1477986"><ele>342.75</ele><time>2026-04-26T07:40:55.025Z</time></trkpt><trkpt lat="44.092954" lon="12.1479704"><ele>342.5</ele><time>2026-04-26T07:40:56.025Z</time></trkpt><trkpt lat="44.0929671" lon="12.1481316"><ele>342.25</ele><time>2026-04-26T07:40:57.02Z</time></trkpt><trkpt lat="44.0929703" lon="12.1482865"><ele>342.0</ele><time>2026-04-26T07:40:58.023Z</time></trkpt><trkpt lat="44.0929687" lon="12.1484326"><ele>341.3333333333333</ele><time>2026-04-26T07:40:59.025Z</time></trkpt><trkpt lat="44.0929642" lon="12.1485468"><ele>340.6666666666667</ele><time>2026-04-26T07:41:00.038Z</time></trkpt><trkpt lat="44.0929661" lon="12.1486443"><ele>340.0</ele><time>2026-04-26T07:41:01.026Z</time></trkpt><trkpt lat="44.0929676" lon="12.1487773"><ele>339.33333333333337</ele><time>2026-04-26T07:41:03.031Z</time></trkpt><trkpt lat="44.0928982" lon="12.1487918"><ele>338.6666666666667</ele><time>2026-04-26T07:41:06.022Z</time></trkpt><trkpt lat="44.0928636" lon="12.1487152"><ele>338.0</ele><time>2026-04-26T07:41:08.043Z</time></trkpt><trkpt lat="44.0928503" lon="12.1485583"><ele>338.0</ele><time>2026-04-26T07:41:10.046Z</time></trkpt><trkpt lat="44.092853" lon="12.1484606"><ele>338.0</ele><time>2026-04-26T07:41:11.027Z</time></trkpt><trkpt lat="44.092844" lon="12.1483577"><ele>338.0</ele><time>2026-04-26T07:41:12.027Z</time></trkpt><trkpt lat="44.0928262" lon="12.1482531"><ele>338.0</ele><time>2026-04-26T07:41:13.023Z</time></trkpt><trkpt lat="44.092807" lon="12.1481599"><ele>338.0</ele><time>2026-04-26T07:41:14.036Z</time></trkpt><trkpt lat="44.0927911" lon="12.1480699"><ele>338.0</ele><time>2026-04-26T07:41:15.026Z</time></trkpt><trkpt lat="44.092765" lon="12.1479821"><ele>338.0</ele><time>2026-04-26T07:41:16.028Z</time></trkpt><trkpt lat="44.0927308" lon="12.1479022"><ele>338.79999999999995</ele><time>2026-04-26T07:41:17.024Z</time></trkpt><trkpt lat="44.0926497" lon="12.1478046"><ele>339.6</ele><time>2026-04-26T07:41:19.025Z</time></trkpt><trkpt lat="44.092574" lon="12.147739"><ele>340.4</ele><time>2026-04-26T07:41:21.018Z</time></trkpt><trkpt lat="44.0924755" lon="12.1476648"><ele>341.20000000000005</ele><time>2026-04-26T07:41:23.016Z</time></trkpt><trkpt lat="44.0923677" lon="12.1475805"><ele>342.0</ele><time>2026-04-26T07:41:25.019Z</time></trkpt><trkpt lat="44.0923094" lon="12.1475359"><ele>342.1666666666667</ele><time>2026-04-26T07:41:26.016Z</time></trkpt><trkpt lat="44.0922513" lon="12.1474906"><ele>342.3333333333333</ele><time>2026-04-26T07:41:27.018Z</time></trkpt><trkpt lat="44.0921951" lon="12.1474504"><ele>342.5</ele><time>2026-04-26T07:41:28.014Z</time></trkpt><trkpt lat="44.0920945" lon="12.1473927"><ele>342.66666666666663</ele><time>2026-04-26T07:41:30.017Z</time></trkpt><trkpt lat="44.0919671" lon="12.1473876"><ele>342.8333333333333</ele><time>2026-04-26T07:41:32.029Z</time></trkpt><trkpt lat="44.0918928" lon="12.1473895"><ele>343.0</ele><time>2026-04-26T07:41:33.015Z</time></trkpt><trkpt lat="44.0918138" lon="12.1473672"><ele>343.0</ele><time>2026-04-26T07:41:34.014Z</time></trkpt><trkpt lat="44.0917283" lon="12.1473233"><ele>343.0</ele><time>2026-04-26T07:41:35.015Z</time></trkpt><trkpt lat="44.0916384" lon="12.1472718"><ele>343.0</ele><time>2026-04-26T07:41:36.03Z</time></trkpt><trkpt lat="44.0915528" lon="12.1472146"><ele>343.0</ele><time>2026-04-26T07:41:37.008Z</time></trkpt><trkpt lat="44.0914613" lon="12.1471538"><ele>343.0</ele><time>2026-04-26T07:41:38.014Z</time></trkpt><trkpt lat="44.0913742" lon="12.1471016"><ele>340.4</ele><time>2026-04-26T07:41:39.018Z</time></trkpt><trkpt lat="44.0912834" lon="12.1470629"><ele>337.79999999999995</ele><time>2026-04-26T07:41:40.021Z</time></trkpt><trkpt lat="44.0911904" lon="12.147032"><ele>335.2</ele><time>2026-04-26T07:41:41.014Z</time></trkpt><trkpt lat="44.0910932" lon="12.1470116"><ele>332.6</ele><time>2026-04-26T07:41:42.051Z</time></trkpt><trkpt lat="44.090997" lon="12.1469898"><ele>330.0</ele><time>2026-04-26T07:41:43.022Z</time></trkpt><trkpt lat="44.0908924" lon="12.146975"><ele>330.0</ele><time>2026-04-26T07:41:44.033Z</time></trkpt><trkpt lat="44.0907845" lon="12.1469616"><ele>330.0</ele><time>2026-04-26T07:41:45.016Z</time></trkpt><trkpt lat="44.0906734" lon="12.1469636"><ele>330.0</ele><time>2026-04-26T07:41:46.02Z</time></trkpt><trkpt lat="44.0905626" lon="12.1469611"><ele>330.0</ele><time>2026-04-26T07:41:47.013Z</time></trkpt><trkpt lat="44.0904627" lon="12.1469689"><ele>330.0</ele><time>2026-04-26T07:41:48.015Z</time></trkpt><trkpt lat="44.0903691" lon="12.1469683"><ele>328.5</ele><time>2026-04-26T07:41:49.021Z</time></trkpt><trkpt lat="44.0902868" lon="12.1469688"><ele>327.0</ele><time>2026-04-26T07:41:50.016Z</time></trkpt><trkpt lat="44.0902128" lon="12.1469719"><ele>325.5</ele><time>2026-04-26T07:41:51.01Z</time></trkpt><trkpt lat="44.0901462" lon="12.1469601"><ele>324.0</ele><time>2026-04-26T07:41:52.025Z</time></trkpt><trkpt lat="44.0900751" lon="12.1469268"><ele>322.5</ele><time>2026-04-26T07:41:53.016Z</time></trkpt><trkpt lat="44.0899959" lon="12.1468729"><ele>321.0</ele><time>2026-04-26T07:41:54.024Z</time></trkpt><trkpt lat="44.0899158" lon="12.1467931"><ele>316.2</ele><time>2026-04-26T07:41:55.011Z</time></trkpt><trkpt lat="44.0898364" lon="12.1466963"><ele>311.40000000000003</ele><time>2026-04-26T07:41:56.025Z</time></trkpt><trkpt lat="44.0897597" lon="12.1466262"><ele>306.6</ele><time>2026-04-26T07:41:57.008Z</time></trkpt><trkpt lat="44.089694" lon="12.1465807"><ele>301.8</ele><time>2026-04-26T07:41:58.016Z</time></trkpt><trkpt lat="44.0896392" lon="12.1464481"><ele>297.0</ele><time>2026-04-26T07:42:00.019Z</time></trkpt><trkpt lat="44.0896397" lon="12.1463474"><ele>297.0</ele><time>2026-04-26T07:42:01.029Z</time></trkpt><trkpt lat="44.0896576" lon="12.1462369"><ele>297.0</ele><time>2026-04-26T07:42:02.031Z</time></trkpt><trkpt lat="44.0896948" lon="12.1461132"><ele>297.0</ele><time>2026-04-26T07:42:03.037Z</time></trkpt><trkpt lat="44.0897417" lon="12.1459981"><ele>297.0</ele><time>2026-04-26T07:42:04.028Z</time></trkpt><trkpt lat="44.0897927" lon="12.1459001"><ele>297.0</ele><time>2026-04-26T07:42:05.016Z</time></trkpt><trkpt lat="44.0898533" lon="12.1458043"><ele>297.0</ele><time>2026-04-26T07:42:06.034Z</time></trkpt><trkpt lat="44.0899151" lon="12.1457159"><ele>297.0</ele><time>2026-04-26T07:42:07.032Z</time></trkpt><trkpt lat="44.0899762" lon="12.1456333"><ele>297.0</ele><time>2026-04-26T07:42:08.031Z</time></trkpt><trkpt lat="44.0900371" lon="12.1455607"><ele>297.0</ele><time>2026-04-26T07:42:09.033Z</time></trkpt><trkpt lat="44.0900841" lon="12.1454829"><ele>297.0</ele><time>2026-04-26T07:42:10.025Z</time></trkpt><trkpt lat="44.0901166" lon="12.1453985"><ele>297.0</ele><time>2026-04-26T07:42:11.021Z</time></trkpt><trkpt lat="44.0901367" lon="12.1452953"><ele>297.6666666666667</ele><time>2026-04-26T07:42:12.021Z</time></trkpt><trkpt lat="44.0901544" lon="12.1451774"><ele>298.3333333333333</ele><time>2026-04-26T07:42:13.046Z</time></trkpt><trkpt lat="44.0901627" lon="12.1450501"><ele>299.0</ele><time>2026-04-26T07:42:14.045Z</time></trkpt><trkpt lat="44.0901753" lon="12.1449206"><ele>299.66666666666663</ele><time>2026-04-26T07:42:15.03Z</time></trkpt><trkpt lat="44.0901876" lon="12.1447979"><ele>300.3333333333333</ele><time>2026-04-26T07:42:16.038Z</time></trkpt><trkpt lat="44.0901963" lon="12.1446887"><ele>301.0</ele><time>2026-04-26T07:42:17.034Z</time></trkpt><trkpt lat="44.0901976" lon="12.1445771"><ele>301.0</ele><time>2026-04-26T07:42:18.013Z</time></trkpt><trkpt lat="44.0901973" lon="12.1444668"><ele>301.0</ele><time>2026-04-26T07:42:19.014Z</time></trkpt><trkpt lat="44.090195" lon="12.1443667"><ele>301.0</ele><time>2026-04-26T07:42:20.019Z</time></trkpt><trkpt lat="44.0901927" lon="12.1442781"><ele>301.0</ele><time>2026-04-26T07:42:21.022Z</time></trkpt><trkpt lat="44.090181" lon="12.1440991"><ele>301.0</ele><time>2026-04-26T07:42:23.031Z</time></trkpt><trkpt lat="44.0901831" lon="12.1439928"><ele>301.0</ele><time>2026-04-26T07:42:24.017Z</time></trkpt><trkpt lat="44.0901776" lon="12.1438902"><ele>300.16666666666663</ele><time>2026-04-26T07:42:25.017Z</time></trkpt><trkpt lat="44.0901586" lon="12.1437923"><ele>299.3333333333333</ele><time>2026-04-26T07:42:26.016Z</time></trkpt><trkpt lat="44.0901243" lon="12.1436826"><ele>298.5</ele><time>2026-04-26T07:42:27.018Z</time></trkpt><trkpt lat="44.0900795" lon="12.1435746"><ele>297.6666666666667</ele><time>2026-04-26T07:42:28.015Z</time></trkpt><trkpt lat="44.0900346" lon="12.1434698"><ele>296.83333333333337</ele><time>2026-04-26T07:42:29.03Z</time></trkpt><trkpt lat="44.0899974" lon="12.1433668"><ele>296.0</ele><time>2026-04-26T07:42:30.029Z</time></trkpt><trkpt lat="44.0899566" lon="12.1432658"><ele>293.0</ele><time>2026-04-26T07:42:31.021Z</time></trkpt><trkpt lat="44.0899226" lon="12.1431837"><ele>290.0</ele><time>2026-04-26T07:42:32.024Z</time></trkpt><trkpt lat="44.0898645" lon="12.1430527"><ele>287.0</ele><time>2026-04-26T07:42:34.019Z</time></trkpt><trkpt lat="44.0898014" lon="12.1429901"><ele>284.0</ele><time>2026-04-26T07:42:36.042Z</time></trkpt><trkpt lat="44.0897569" lon="12.1429204"><ele>281.0</ele><time>2026-04-26T07:42:38.028Z</time></trkpt><trkpt lat="44.0896841" lon="12.1428397"><ele>278.0</ele><time>2026-04-26T07:42:40.039Z</time></trkpt><trkpt lat="44.0896049" lon="12.1427607"><ele>278.0</ele><time>2026-04-26T07:42:42.037Z</time></trkpt><trkpt lat="44.0895191" lon="12.1426771"><ele>278.0</ele><time>2026-04-26T07:42:44.018Z</time></trkpt><trkpt lat="44.0894374" lon="12.1425936"><ele>278.0</ele><time>2026-04-26T07:42:46.038Z</time></trkpt><trkpt lat="44.0893445" lon="12.1425139"><ele>278.0</ele><time>2026-04-26T07:42:48.032Z</time></trkpt><trkpt lat="44.0892474" lon="12.1424322"><ele>278.0</ele><time>2026-04-26T07:42:50.023Z</time></trkpt><trkpt lat="44.0891597" lon="12.1423633"><ele>276.1666666666667</ele><time>2026-04-26T07:42:52.035Z</time></trkpt><trkpt lat="44.0890755" lon="12.1422871"><ele>274.33333333333337</ele><time>2026-04-26T07:42:54.029Z</time></trkpt><trkpt lat="44.0889977" lon="12.1422207"><ele>272.5</ele><time>2026-04-26T07:42:56.035Z</time></trkpt><trkpt lat="44.0889361" lon="12.1421724"><ele>270.6666666666667</ele><time>2026-04-26T07:42:58.032Z</time></trkpt><trkpt lat="44.0888725" lon="12.1421225"><ele>268.8333333333333</ele><time>2026-04-26T07:43:00.032Z</time></trkpt><trkpt lat="44.0888173" lon="12.1420697"><ele>267.0</ele><time>2026-04-26T07:43:02.038Z</time></trkpt><trkpt lat="44.088743" lon="12.1420067"><ele>267.0</ele><time>2026-04-26T07:43:05.039Z</time></trkpt><trkpt lat="44.0886686" lon="12.1419421"><ele>267.0</ele><time>2026-04-26T07:43:08.036Z</time></trkpt><trkpt lat="44.088585" lon="12.1418736"><ele>267.0</ele><time>2026-04-26T07:43:11.023Z</time></trkpt><trkpt lat="44.0885124" lon="12.1418085"><ele>267.0</ele><time>2026-04-26T07:43:14.04Z</time></trkpt><trkpt lat="44.0884231" lon="12.1417753"><ele>267.0</ele><time>2026-04-26T07:43:17.018Z</time></trkpt><trkpt lat="44.0883392" lon="12.141762"><ele>267.0</ele><time>2026-04-26T07:43:19.031Z</time></trkpt><trkpt lat="44.0882432" lon="12.141719"><ele>264.6</ele><time>2026-04-26T07:43:21.034Z</time></trkpt><trkpt lat="44.0881447" lon="12.1416541"><ele>262.2</ele><time>2026-04-26T07:43:23.037Z</time></trkpt><trkpt lat="44.0880618" lon="12.1416296"><ele>259.8</ele><time>2026-04-26T07:43:25.039Z</time></trkpt><trkpt lat="44.087955" lon="12.1415648"><ele>257.4</ele><time>2026-04-26T07:43:27.03Z</time></trkpt><trkpt lat="44.087834" lon="12.1415473"><ele>255.0</ele><time>2026-04-26T07:43:29.027Z</time></trkpt><trkpt lat="44.0877136" lon="12.1415507"><ele>255.0</ele><time>2026-04-26T07:43:31.021Z</time></trkpt><trkpt lat="44.0876401" lon="12.1415528"><ele>255.00000000000003</ele><time>2026-04-26T07:43:32.035Z</time></trkpt><trkpt lat="44.0875697" lon="12.1415607"><ele>255.0</ele><time>2026-04-26T07:43:33.025Z</time></trkpt><trkpt lat="44.0875004" lon="12.1415785"><ele>255.0</ele><time>2026-04-26T07:43:34.029Z</time></trkpt><trkpt lat="44.0874371" lon="12.1416012"><ele>255.00000000000003</ele><time>2026-04-26T07:43:35.021Z</time></trkpt><trkpt lat="44.0873744" lon="12.1416431"><ele>255.0</ele><time>2026-04-26T07:43:36.026Z</time></trkpt><trkpt lat="44.0873179" lon="12.1416871"><ele>255.0</ele><time>2026-04-26T07:43:37.026Z</time></trkpt><trkpt lat="44.0872129" lon="12.1417418"><ele>255.16666666666666</ele><time>2026-04-26T07:43:39.04Z</time></trkpt><trkpt lat="44.087136" lon="12.1417475"><ele>255.33333333333331</ele><time>2026-04-26T07:43:41.028Z</time></trkpt><trkpt lat="44.0870721" lon="12.1417513"><ele>255.5</ele><time>2026-04-26T07:43:43.04Z</time></trkpt><trkpt lat="44.0869744" lon="12.141747"><ele>255.66666666666666</ele><time>2026-04-26T07:43:45.017Z</time></trkpt><trkpt lat="44.0868721" lon="12.1417211"><ele>255.83333333333331</ele><time>2026-04-26T07:43:47.02Z</time></trkpt><trkpt lat="44.0867742" lon="12.1416714"><ele>256.0</ele><time>2026-04-26T07:43:49.023Z</time></trkpt><trkpt lat="44.0866906" lon="12.1416186"><ele>255.99999999999997</ele><time>2026-04-26T07:43:51.052Z</time></trkpt><trkpt lat="44.086613" lon="12.1415749"><ele>256.0</ele><time>2026-04-26T07:43:54.041Z</time></trkpt><trkpt lat="44.0865455" lon="12.1415841"><ele>256.0</ele><time>2026-04-26T07:43:57.023Z</time></trkpt><trkpt lat="44.0864636" lon="12.1415561"><ele>256.0</ele><time>2026-04-26T07:44:00.032Z</time></trkpt><trkpt lat="44.0863694" lon="12.1414642"><ele>255.99999999999997</ele><time>2026-04-26T07:44:02.022Z</time></trkpt><trkpt lat="44.0863205" lon="12.1413817"><ele>256.0</ele><time>2026-04-26T07:44:03.024Z</time></trkpt><trkpt lat="44.0862736" lon="12.1413018"><ele>255.99999999999997</ele><time>2026-04-26T07:44:04.017Z</time></trkpt><trkpt lat="44.086222" lon="12.1412383"><ele>256.0</ele><time>2026-04-26T07:44:05.011Z</time></trkpt><trkpt lat="44.0861643" lon="12.1411811"><ele>256.0</ele><time>2026-04-26T07:44:06.023Z</time></trkpt><trkpt lat="44.0860522" lon="12.1411012"><ele>256.0</ele><time>2026-04-26T07:44:08.019Z</time></trkpt><trkpt lat="44.0859753" lon="12.1410767"><ele>255.99999999999997</ele><time>2026-04-26T07:44:09.027Z</time></trkpt><trkpt lat="44.0858919" lon="12.141051"><ele>256.0</ele><time>2026-04-26T07:44:10.011Z</time></trkpt><trkpt lat="44.085821" lon="12.1410292"><ele>255.16666666666666</ele><time>2026-04-26T07:44:11.014Z</time></trkpt><trkpt lat="44.08576" lon="12.1409961"><ele>254.33333333333331</ele><time>2026-04-26T07:44:12.024Z</time></trkpt><trkpt lat="44.0857057" lon="12.1409494"><ele>253.5</ele><time>2026-04-26T07:44:13.036Z</time></trkpt><trkpt lat="44.0856038" lon="12.1408387"><ele>252.66666666666669</ele><time>2026-04-26T07:44:15.033Z</time></trkpt><trkpt lat="44.0855441" lon="12.1407846"><ele>251.83333333333334</ele><time>2026-04-26T07:44:16.035Z</time></trkpt><trkpt lat="44.0854725" lon="12.14073"><ele>251.0</ele><time>2026-04-26T07:44:17.015Z</time></trkpt><trkpt lat="44.0854002" lon="12.1406822"><ele>251.00000000000003</ele><time>2026-04-26T07:44:18.02Z</time></trkpt><trkpt lat="44.0853311" lon="12.1406418"><ele>251.0</ele><time>2026-04-26T07:44:19.025Z</time></trkpt><trkpt lat="44.0852742" lon="12.1405996"><ele>251.0</ele><time>2026-04-26T07:44:20.029Z</time></trkpt><trkpt lat="44.0851469" lon="12.1405206"><ele>251.0</ele><time>2026-04-26T07:44:22.026Z</time></trkpt><trkpt lat="44.0850729" lon="12.1404799"><ele>251.00000000000003</ele><time>2026-04-26T07:44:23.022Z</time></trkpt><trkpt lat="44.085" lon="12.1404345"><ele>251.0</ele><time>2026-04-26T07:44:24.024Z</time></trkpt><trkpt lat="44.0849193" lon="12.1404033"><ele>250.00000000000003</ele><time>2026-04-26T07:44:25.026Z</time></trkpt><trkpt lat="44.0848434" lon="12.1403768"><ele>249.0</ele><time>2026-04-26T07:44:26.035Z</time></trkpt><trkpt lat="44.0847728" lon="12.1403612"><ele>248.0</ele><time>2026-04-26T07:44:27.023Z</time></trkpt><trkpt lat="44.0847087" lon="12.1403435"><ele>247.0</ele><time>2026-04-26T07:44:28.026Z</time></trkpt><trkpt lat="44.0846119" lon="12.1403277"><ele>246.00000000000003</ele><time>2026-04-26T07:44:30.046Z</time></trkpt><trkpt lat="44.0845053" lon="12.1403509"><ele>245.0</ele><time>2026-04-26T07:44:32.025Z</time></trkpt><trkpt lat="44.0844372" lon="12.1403492"><ele>245.00000000000003</ele><time>2026-04-26T07:44:33.034Z</time></trkpt><trkpt lat="44.0843617" lon="12.1403218"><ele>245.0</ele><time>2026-04-26T07:44:34.029Z</time></trkpt><trkpt lat="44.0842687" lon="12.1403025"><ele>245.0</ele><time>2026-04-26T07:44:35.012Z</time></trkpt><trkpt lat="44.0841778" lon="12.14029"><ele>245.0</ele><time>2026-04-26T07:44:36.04Z</time></trkpt><trkpt lat="44.0840953" lon="12.1402841"><ele>245.00000000000003</ele><time>2026-04-26T07:44:37.028Z</time></trkpt><trkpt lat="44.084016" lon="12.1402891"><ele>245.0</ele><time>2026-04-26T07:44:38.052Z</time></trkpt><trkpt lat="44.0839182" lon="12.1402955"><ele>245.75</ele><time>2026-04-26T07:44:39.035Z</time></trkpt><trkpt lat="44.0838087" lon="12.1403004"><ele>246.5</ele><time>2026-04-26T07:44:40.03Z</time></trkpt><trkpt lat="44.0836861" lon="12.1403035"><ele>247.25</ele><time>2026-04-26T07:44:41.022Z</time></trkpt><trkpt lat="44.0835474" lon="12.1403114"><ele>248.0</ele><time>2026-04-26T07:44:42.029Z</time></trkpt><trkpt lat="44.0834073" lon="12.1403113"><ele>249.75</ele><time>2026-04-26T07:44:43.021Z</time></trkpt><trkpt lat="44.0832614" lon="12.1402995"><ele>251.5</ele><time>2026-04-26T07:44:44.028Z</time></trkpt><trkpt lat="44.0831142" lon="12.1402778"><ele>253.25</ele><time>2026-04-26T07:44:45.018Z</time></trkpt><trkpt lat="44.0829671" lon="12.1402507"><ele>255.0</ele><time>2026-04-26T07:44:46.066Z</time></trkpt><trkpt lat="44.0828363" lon="12.1402074"><ele>255.0</ele><time>2026-04-26T07:44:47.014Z</time></trkpt><trkpt lat="44.0827226" lon="12.1401829"><ele>255.0</ele><time>2026-04-26T07:44:48.023Z</time></trkpt><trkpt lat="44.0826084" lon="12.1401745"><ele>255.0</ele><time>2026-04-26T07:44:49.014Z</time></trkpt><trkpt lat="44.0824875" lon="12.140192"><ele>255.0</ele><time>2026-04-26T07:44:50.026Z</time></trkpt><trkpt lat="44.0823581" lon="12.1402243"><ele>255.75</ele><time>2026-04-26T07:44:51.028Z</time></trkpt><trkpt lat="44.0822171" lon="12.140261"><ele>256.5</ele><time>2026-04-26T07:44:52.023Z</time></trkpt><trkpt lat="44.0820914" lon="12.1402906"><ele>257.25</ele><time>2026-04-26T07:44:53.037Z</time></trkpt><trkpt lat="44.0819793" lon="12.1403108"><ele>258.0</ele><time>2026-04-26T07:44:54.025Z</time></trkpt><trkpt lat="44.0818638" lon="12.1403076"><ele>258.0</ele><time>2026-04-26T07:44:55.023Z</time></trkpt><trkpt lat="44.0817433" lon="12.1402793"><ele>258.0</ele><time>2026-04-26T07:44:56.023Z</time></trkpt><trkpt lat="44.0816185" lon="12.1402331"><ele>258.0</ele><time>2026-04-26T07:44:57.014Z</time></trkpt><trkpt lat="44.0814782" lon="12.1401606"><ele>258.0</ele><time>2026-04-26T07:44:58.047Z</time></trkpt><trkpt lat="44.0813263" lon="12.140075"><ele>256.5</ele><time>2026-04-26T07:44:59.02Z</time></trkpt><trkpt lat="44.0811839" lon="12.1399916"><ele>255.0</ele><time>2026-04-26T07:45:00.027Z</time></trkpt><trkpt lat="44.081048" lon="12.1399259"><ele>253.5</ele><time>2026-04-26T07:45:01.022Z</time></trkpt><trkpt lat="44.0809187" lon="12.1398714"><ele>252.0</ele><time>2026-04-26T07:45:02.023Z</time></trkpt><trkpt lat="44.080799" lon="12.139825"><ele>251.75</ele><time>2026-04-26T07:45:03.018Z</time></trkpt><trkpt lat="44.0806762" lon="12.1397479"><ele>251.5</ele><time>2026-04-26T07:45:04.049Z</time></trkpt><trkpt lat="44.0805533" lon="12.1396513"><ele>251.25</ele><time>2026-04-26T07:45:05.028Z</time></trkpt><trkpt lat="44.0804276" lon="12.1395287"><ele>251.0</ele><time>2026-04-26T07:45:06.023Z</time></trkpt><trkpt lat="44.080282" lon="12.1393674"><ele>251.0</ele><time>2026-04-26T07:45:07.044Z</time></trkpt><trkpt lat="44.0801236" lon="12.1391943"><ele>251.0</ele><time>2026-04-26T07:45:08.046Z</time></trkpt><trkpt lat="44.0799655" lon="12.1390185"><ele>251.0</ele><time>2026-04-26T07:45:09.029Z</time></trkpt><trkpt lat="44.0798076" lon="12.1388546"><ele>254.0</ele><time>2026-04-26T07:45:10.013Z</time></trkpt><trkpt lat="44.0796628" lon="12.1386958"><ele>257.0</ele><time>2026-04-26T07:45:11.031Z</time></trkpt><trkpt lat="44.0795255" lon="12.138553"><ele>260.0</ele><time>2026-04-26T07:45:12.028Z</time></trkpt><trkpt lat="44.0793991" lon="12.1384252"><ele>260.0</ele><time>2026-04-26T07:45:13.036Z</time></trkpt><trkpt lat="44.0792735" lon="12.1383119"><ele>260.0</ele><time>2026-04-26T07:45:14.033Z</time></trkpt><trkpt lat="44.0791629" lon="12.1382245"><ele>260.0</ele><time>2026-04-26T07:45:15.031Z</time></trkpt><trkpt lat="44.0790509" lon="12.1381693"><ele>260.0</ele><time>2026-04-26T07:45:16.017Z</time></trkpt><trkpt lat="44.0789355" lon="12.1381462"><ele>261.25</ele><time>2026-04-26T07:45:17.037Z</time></trkpt><trkpt lat="44.0788085" lon="12.1381365"><ele>262.5</ele><time>2026-04-26T07:45:18.022Z</time></trkpt><trkpt lat="44.0786746" lon="12.1381517"><ele>263.75</ele><time>2026-04-26T07:45:19.023Z</time></trkpt><trkpt lat="44.0785369" lon="12.1381633"><ele>265.0</ele><time>2026-04-26T07:45:20.01Z</time></trkpt><trkpt lat="44.0783939" lon="12.1381735"><ele>264.3333333333333</ele><time>2026-04-26T07:45:21.023Z</time></trkpt><trkpt lat="44.0782489" lon="12.1381792"><ele>263.6666666666667</ele><time>2026-04-26T07:45:22.027Z</time></trkpt><trkpt lat="44.0781" lon="12.1381947"><ele>263.0</ele><time>2026-04-26T07:45:23.027Z</time></trkpt><trkpt lat="44.0779449" lon="12.1382139"><ele>265.0</ele><time>2026-04-26T07:45:24.012Z</time></trkpt><trkpt lat="44.077784" lon="12.1382297"><ele>267.0</ele><time>2026-04-26T07:45:25.027Z</time></trkpt><trkpt lat="44.0776208" lon="12.1382524"><ele>269.0</ele><time>2026-04-26T07:45:26.028Z</time></trkpt><trkpt lat="44.0774585" lon="12.1382712"><ele>271.0</ele><time>2026-04-26T07:45:27.02Z</time></trkpt><trkpt lat="44.0773005" lon="12.1382822"><ele>273.0</ele><time>2026-04-26T07:45:28.025Z</time></trkpt><trkpt lat="44.0771494" lon="12.1382953"><ele>275.0</ele><time>2026-04-26T07:45:29.028Z</time></trkpt><trkpt lat="44.0770011" lon="12.1383141"><ele>275.0</ele><time>2026-04-26T07:45:30.024Z</time></trkpt><trkpt lat="44.076857" lon="12.1383252"><ele>275.0</ele><time>2026-04-26T07:45:31.034Z</time></trkpt><trkpt lat="44.0767158" lon="12.1383348"><ele>275.0</ele><time>2026-04-26T07:45:32.037Z</time></trkpt><trkpt lat="44.0765746" lon="12.1383419"><ele>275.0</ele><time>2026-04-26T07:45:33.041Z</time></trkpt><trkpt lat="44.0764435" lon="12.138348"><ele>276.75</ele><time>2026-04-26T07:45:34.025Z</time></trkpt><trkpt lat="44.076316" lon="12.1383513"><ele>278.5</ele><time>2026-04-26T07:45:35.029Z</time></trkpt><trkpt lat="44.0761917" lon="12.1383465"><ele>280.25</ele><time>2026-04-26T07:45:36.031Z</time></trkpt><trkpt lat="44.0760732" lon="12.1383305"><ele>282.0</ele><time>2026-04-26T07:45:37.053Z</time></trkpt><trkpt lat="44.0759586" lon="12.1383024"><ele>282.0</ele><time>2026-04-26T07:45:38.035Z</time></trkpt><trkpt lat="44.0758427" lon="12.1382541"><ele>282.0</ele><time>2026-04-26T07:45:39.025Z</time></trkpt><trkpt lat="44.0757316" lon="12.1381923"><ele>282.0</ele><time>2026-04-26T07:45:40.034Z</time></trkpt><trkpt lat="44.0756235" lon="12.1381237"><ele>282.0</ele><time>2026-04-26T07:45:41.025Z</time></trkpt><trkpt lat="44.0755231" lon="12.1380476"><ele>284.2</ele><time>2026-04-26T07:45:42.026Z</time></trkpt><trkpt lat="44.0754306" lon="12.1379517"><ele>286.4</ele><time>2026-04-26T07:45:43.019Z</time></trkpt><trkpt lat="44.0753558" lon="12.1378478"><ele>288.6</ele><time>2026-04-26T07:45:44.017Z</time></trkpt><trkpt lat="44.0752896" lon="12.1377357"><ele>290.8</ele><time>2026-04-26T07:45:45.029Z</time></trkpt><trkpt lat="44.0752426" lon="12.1376264"><ele>293.0</ele><time>2026-04-26T07:45:46.039Z</time></trkpt><trkpt lat="44.0751924" lon="12.1375184"><ele>293.0</ele><time>2026-04-26T07:45:47.019Z</time></trkpt><trkpt lat="44.0751465" lon="12.1373976"><ele>293.0</ele><time>2026-04-26T07:45:48.019Z</time></trkpt><trkpt lat="44.0750999" lon="12.137282"><ele>293.0</ele><time>2026-04-26T07:45:49.017Z</time></trkpt><trkpt lat="44.0750475" lon="12.1371591"><ele>293.0</ele><time>2026-04-26T07:45:50.027Z</time></trkpt><trkpt lat="44.0749824" lon="12.1370434"><ele>293.0</ele><time>2026-04-26T07:45:51.027Z</time></trkpt><trkpt lat="44.07491" lon="12.1369448"><ele>294.75</ele><time>2026-04-26T07:45:52.037Z</time></trkpt><trkpt lat="44.074823" lon="12.1368739"><ele>296.5</ele><time>2026-04-26T07:45:53.023Z</time></trkpt><trkpt lat="44.074724" lon="12.1368287"><ele>298.25</ele><time>2026-04-26T07:45:54.025Z</time></trkpt><trkpt lat="44.0746132" lon="12.1368033"><ele>300.0</ele><time>2026-04-26T07:45:55.053Z</time></trkpt><trkpt lat="44.07448" lon="12.1367907"><ele>300.0</ele><time>2026-04-26T07:45:56.025Z</time></trkpt><trkpt lat="44.0743434" lon="12.1367854"><ele>300.0</ele><time>2026-04-26T07:45:57.017Z</time></trkpt><trkpt lat="44.0742088" lon="12.1368059"><ele>300.0</ele><time>2026-04-26T07:45:58.048Z</time></trkpt><trkpt lat="44.0740777" lon="12.1368627"><ele>300.0</ele><time>2026-04-26T07:45:59.02Z</time></trkpt><trkpt lat="44.0739512" lon="12.1369426"><ele>305.5</ele><time>2026-04-26T07:46:00.036Z</time></trkpt><trkpt lat="44.0738256" lon="12.1370426"><ele>311.0</ele><time>2026-04-26T07:46:01.018Z</time></trkpt><trkpt lat="44.0736924" lon="12.1371242"><ele>316.5</ele><time>2026-04-26T07:46:02.018Z</time></trkpt><trkpt lat="44.0735671" lon="12.1371755"><ele>322.0</ele><time>2026-04-26T07:46:03.015Z</time></trkpt><trkpt lat="44.073428" lon="12.1372037"><ele>322.0</ele><time>2026-04-26T07:46:04.017Z</time></trkpt><trkpt lat="44.0732996" lon="12.137226"><ele>322.0</ele><time>2026-04-26T07:46:05.018Z</time></trkpt><trkpt lat="44.0731909" lon="12.137219"><ele>322.0</ele><time>2026-04-26T07:46:06.02Z</time></trkpt><trkpt lat="44.0730726" lon="12.1371771"><ele>322.0</ele><time>2026-04-26T07:46:07.015Z</time></trkpt><trkpt lat="44.0729476" lon="12.1371092"><ele>327.75</ele><time>2026-04-26T07:46:08.022Z</time></trkpt><trkpt lat="44.0728136" lon="12.1370286"><ele>333.5</ele><time>2026-04-26T07:46:09.024Z</time></trkpt><trkpt lat="44.0726843" lon="12.1369354"><ele>339.25</ele><time>2026-04-26T07:46:10.024Z</time></trkpt><trkpt lat="44.0725748" lon="12.13682"><ele>345.0</ele><time>2026-04-26T07:46:11.029Z</time></trkpt><trkpt lat="44.0724979" lon="12.1367037"><ele>345.0</ele><time>2026-04-26T07:46:12.023Z</time></trkpt><trkpt lat="44.0724527" lon="12.1366069"><ele>345.0</ele><time>2026-04-26T07:46:13.015Z</time></trkpt><trkpt lat="44.0724218" lon="12.1365241"><ele>345.0</ele><time>2026-04-26T07:46:14.024Z</time></trkpt><trkpt lat="44.0724037" lon="12.1364286"><ele>345.0</ele><time>2026-04-26T07:46:15.011Z</time></trkpt><trkpt lat="44.0723974" lon="12.136335"><ele>345.0</ele><time>2026-04-26T07:46:16.014Z</time></trkpt><trkpt lat="44.0723892" lon="12.1362188"><ele>345.0</ele><time>2026-04-26T07:46:17.012Z</time></trkpt><trkpt lat="44.072376" lon="12.1360667"><ele>350.75</ele><time>2026-04-26T07:46:18.013Z</time></trkpt><trkpt lat="44.07235" lon="12.1358936"><ele>356.5</ele><time>2026-04-26T07:46:19.042Z</time></trkpt><trkpt lat="44.0723309" lon="12.1356993"><ele>362.25</ele><time>2026-04-26T07:46:20.01Z</time></trkpt><trkpt lat="44.0722928" lon="12.13551"><ele>368.0</ele><time>2026-04-26T07:46:21.009Z</time></trkpt><trkpt lat="44.0722542" lon="12.135315"><ele>372.25</ele><time>2026-04-26T07:46:22.011Z</time></trkpt><trkpt lat="44.0722154" lon="12.1351221"><ele>376.5</ele><time>2026-04-26T07:46:23.015Z</time></trkpt><trkpt lat="44.0721963" lon="12.1349158"><ele>380.75</ele><time>2026-04-26T07:46:24.019Z</time></trkpt><trkpt lat="44.0721801" lon="12.1347043"><ele>385.0</ele><time>2026-04-26T07:46:25.035Z</time></trkpt><trkpt lat="44.072162" lon="12.1345035"><ele>388.0</ele><time>2026-04-26T07:46:26.033Z</time></trkpt><trkpt lat="44.0721388" lon="12.1343559"><ele>391.0</ele><time>2026-04-26T07:46:27.027Z</time></trkpt><trkpt lat="44.0721193" lon="12.1342392"><ele>394.0</ele><time>2026-04-26T07:46:28.017Z</time></trkpt><trkpt lat="44.0720892" lon="12.1341146"><ele>397.0</ele><time>2026-04-26T07:46:29.032Z</time></trkpt><trkpt lat="44.0720549" lon="12.1340012"><ele>400.0</ele><time>2026-04-26T07:46:30.043Z</time></trkpt><trkpt lat="44.072033" lon="12.1338961"><ele>402.6</ele><time>2026-04-26T07:46:31.023Z</time></trkpt><trkpt lat="44.0720611" lon="12.1337979"><ele>405.2</ele><time>2026-04-26T07:46:32.012Z</time></trkpt><trkpt lat="44.072124" lon="12.133706"><ele>407.79999999999995</ele><time>2026-04-26T07:46:33.032Z</time></trkpt><trkpt lat="44.0722022" lon="12.1336196"><ele>410.4</ele><time>2026-04-26T07:46:34.029Z</time></trkpt><trkpt lat="44.0722872" lon="12.1335183"><ele>413.0</ele><time>2026-04-26T07:46:35.026Z</time></trkpt><trkpt lat="44.072361" lon="12.1333969"><ele>413.0</ele><time>2026-04-26T07:46:36.027Z</time></trkpt><trkpt lat="44.0724285" lon="12.1332349"><ele>413.0</ele><time>2026-04-26T07:46:37.028Z</time></trkpt><trkpt lat="44.0724946" lon="12.1330451"><ele>413.0</ele><time>2026-04-26T07:46:38.034Z</time></trkpt><trkpt lat="44.0725555" lon="12.1328439"><ele>413.0</ele><time>2026-04-26T07:46:39.047Z</time></trkpt><trkpt lat="44.0725925" lon="12.1326753"><ele>411.99999999999994</ele><time>2026-04-26T07:46:40.013Z</time></trkpt><trkpt lat="44.0726084" lon="12.1325596"><ele>411.0</ele><time>2026-04-26T07:46:41.023Z</time></trkpt><trkpt lat="44.0725971" lon="12.1324568"><ele>410.0</ele><time>2026-04-26T07:46:42.037Z</time></trkpt><trkpt lat="44.0725296" lon="12.1323658"><ele>409.0</ele><time>2026-04-26T07:46:44.021Z</time></trkpt><trkpt lat="44.0724545" lon="12.1324126"><ele>407.99999999999994</ele><time>2026-04-26T07:46:46.025Z</time></trkpt><trkpt lat="44.0724061" lon="12.132482"><ele>407.0</ele><time>2026-04-26T07:46:47.009Z</time></trkpt><trkpt lat="44.0723485" lon="12.132524"><ele>411.25</ele><time>2026-04-26T07:46:48.017Z</time></trkpt><trkpt lat="44.0722339" lon="12.132571"><ele>415.5</ele><time>2026-04-26T07:46:50.03Z</time></trkpt><trkpt lat="44.0721618" lon="12.1326068"><ele>419.75</ele><time>2026-04-26T07:46:51.024Z</time></trkpt><trkpt lat="44.0720686" lon="12.1327053"><ele>424.0</ele><time>2026-04-26T07:46:52.031Z</time></trkpt><trkpt lat="44.0719686" lon="12.1328465"><ele>424.0</ele><time>2026-04-26T07:46:53.023Z</time></trkpt><trkpt lat="44.0718552" lon="12.1330045"><ele>424.0</ele><time>2026-04-26T07:46:54.032Z</time></trkpt><trkpt lat="44.0717324" lon="12.133153"><ele>424.0</ele><time>2026-04-26T07:46:55.018Z</time></trkpt><trkpt lat="44.0716167" lon="12.1333083"><ele>428.0</ele><time>2026-04-26T07:46:56.023Z</time></trkpt><trkpt lat="44.0715137" lon="12.1334645"><ele>432.0</ele><time>2026-04-26T07:46:57.028Z</time></trkpt><trkpt lat="44.0714295" lon="12.1336325"><ele>436.0</ele><time>2026-04-26T07:46:58.016Z</time></trkpt><trkpt lat="44.0713651" lon="12.1338039"><ele>440.0</ele><time>2026-04-26T07:46:59.029Z</time></trkpt><trkpt lat="44.0713162" lon="12.1339424"><ele>439.99999999999994</ele><time>2026-04-26T07:47:00.027Z</time></trkpt><trkpt lat="44.0712671" lon="12.1340502"><ele>440.0</ele><time>2026-04-26T07:47:01.013Z</time></trkpt><trkpt lat="44.0712246" lon="12.1341404"><ele>440.0</ele><time>2026-04-26T07:47:02.035Z</time></trkpt><trkpt lat="44.0711464" lon="12.1342304"><ele>440.0</ele><time>2026-04-26T07:47:04.044Z</time></trkpt><trkpt lat="44.0710671" lon="12.1342853"><ele>439.99999999999994</ele><time>2026-04-26T07:47:06.04Z</time></trkpt><trkpt lat="44.0709879" lon="12.134329"><ele>440.0</ele><time>2026-04-26T07:47:08.013Z</time></trkpt><trkpt lat="44.0708781" lon="12.134392"><ele>439.66666666666663</ele><time>2026-04-26T07:47:10.016Z</time></trkpt><trkpt lat="44.0708157" lon="12.1344308"><ele>439.3333333333333</ele><time>2026-04-26T07:47:11.025Z</time></trkpt><trkpt lat="44.0707503" lon="12.1344688"><ele>439.0</ele><time>2026-04-26T07:47:12.02Z</time></trkpt><trkpt lat="44.0706722" lon="12.1345095"><ele>438.66666666666663</ele><time>2026-04-26T07:47:13.023Z</time></trkpt><trkpt lat="44.070597" lon="12.1345517"><ele>438.3333333333333</ele><time>2026-04-26T07:47:14.02Z</time></trkpt><trkpt lat="44.0705116" lon="12.1345905"><ele>438.0</ele><time>2026-04-26T07:47:15.023Z</time></trkpt><trkpt lat="44.0704105" lon="12.1346277"><ele>438.0</ele><time>2026-04-26T07:47:16.024Z</time></trkpt><trkpt lat="44.0703026" lon="12.1346849"><ele>438.0</ele><time>2026-04-26T07:47:17.007Z</time></trkpt><trkpt lat="44.0701987" lon="12.1347784"><ele>438.0</ele><time>2026-04-26T07:47:18.044Z</time></trkpt><trkpt lat="44.0700944" lon="12.1348785"><ele>438.0</ele><time>2026-04-26T07:47:19.032Z</time></trkpt><trkpt lat="44.0699926" lon="12.1349711"><ele>436.75</ele><time>2026-04-26T07:47:20.036Z</time></trkpt><trkpt lat="44.0698913" lon="12.1350487"><ele>435.5</ele><time>2026-04-26T07:47:21.027Z</time></trkpt><trkpt lat="44.0697802" lon="12.1351001"><ele>434.25</ele><time>2026-04-26T07:47:22.05Z</time></trkpt><trkpt lat="44.0696649" lon="12.1351355"><ele>433.0</ele><time>2026-04-26T07:47:23.022Z</time></trkpt><trkpt lat="44.0695507" lon="12.1351628"><ele>433.0</ele><time>2026-04-26T07:47:24.032Z</time></trkpt><trkpt lat="44.0694513" lon="12.1351752"><ele>433.0</ele><time>2026-04-26T07:47:25.045Z</time></trkpt><trkpt lat="44.06934" lon="12.1351669"><ele>433.0</ele><time>2026-04-26T07:47:26.034Z</time></trkpt><trkpt lat="44.0692107" lon="12.135163"><ele>433.0</ele><time>2026-04-26T07:47:27.023Z</time></trkpt><trkpt lat="44.0690652" lon="12.1351646"><ele>432.25</ele><time>2026-04-26T07:47:28.032Z</time></trkpt><trkpt lat="44.0689294" lon="12.135165"><ele>431.5</ele><time>2026-04-26T07:47:29.045Z</time></trkpt><trkpt lat="44.068807" lon="12.1351627"><ele>430.75</ele><time>2026-04-26T07:47:30.041Z</time></trkpt><trkpt lat="44.0686965" lon="12.1351486"><ele>430.0</ele><time>2026-04-26T07:47:31.034Z</time></trkpt><trkpt lat="44.068599" lon="12.1351347"><ele>430.0</ele><time>2026-04-26T07:47:32.03Z</time></trkpt><trkpt lat="44.0685328" lon="12.1351099"><ele>430.0</ele><time>2026-04-26T07:47:33.014Z</time></trkpt><trkpt lat="44.06846" lon="12.1350223"><ele>430.0</ele><time>2026-04-26T07:47:35.037Z</time></trkpt><trkpt lat="44.0684466" lon="12.134831"><ele>430.0</ele><time>2026-04-26T07:47:37.012Z</time></trkpt><trkpt lat="44.0684595" lon="12.1346745"><ele>430.0</ele><time>2026-04-26T07:47:38.01Z</time></trkpt><trkpt lat="44.0684728" lon="12.1344788"><ele>429.75</ele><time>2026-04-26T07:47:39.021Z</time></trkpt><trkpt lat="44.0684772" lon="12.1342738"><ele>429.5</ele><time>2026-04-26T07:47:40.034Z</time></trkpt><trkpt lat="44.0684959" lon="12.1340841"><ele>429.25</ele><time>2026-04-26T07:47:41.015Z</time></trkpt><trkpt lat="44.068546" lon="12.1339029"><ele>429.0</ele><time>2026-04-26T07:47:42.022Z</time></trkpt><trkpt lat="44.068592" lon="12.1337174"><ele>430.25</ele><time>2026-04-26T07:47:43.02Z</time></trkpt><trkpt lat="44.0686138" lon="12.1335309"><ele>431.5</ele><time>2026-04-26T07:47:44.027Z</time></trkpt><trkpt lat="44.068602" lon="12.1333359"><ele>432.75</ele><time>2026-04-26T07:47:45.017Z</time></trkpt><trkpt lat="44.0685792" lon="12.1331443"><ele>434.0</ele><time>2026-04-26T07:47:46.049Z</time></trkpt><trkpt lat="44.0685338" lon="12.1329363"><ele>435.5</ele><time>2026-04-26T07:47:47.021Z</time></trkpt><trkpt lat="44.0684814" lon="12.1327281"><ele>437.0</ele><time>2026-04-26T07:47:48.014Z</time></trkpt><trkpt lat="44.068445" lon="12.1325472"><ele>438.5</ele><time>2026-04-26T07:47:49.016Z</time></trkpt><trkpt lat="44.0684266" lon="12.1323566"><ele>440.0</ele><time>2026-04-26T07:47:50.016Z</time></trkpt><trkpt lat="44.0684259" lon="12.1321496"><ele>440.0</ele><time>2026-04-26T07:47:51.02Z</time></trkpt><trkpt lat="44.0684227" lon="12.1319376"><ele>440.0</ele><time>2026-04-26T07:47:52.024Z</time></trkpt><trkpt lat="44.0684187" lon="12.1317416"><ele>440.0</ele><time>2026-04-26T07:47:53.018Z</time></trkpt><trkpt lat="44.0684148" lon="12.1315674"><ele>440.0</ele><time>2026-04-26T07:47:54.019Z</time></trkpt><trkpt lat="44.0684054" lon="12.1314"><ele>440.0</ele><time>2026-04-26T07:47:55.02Z</time></trkpt><trkpt lat="44.0683964" lon="12.1312414"><ele>440.0</ele><time>2026-04-26T07:47:56.038Z</time></trkpt><trkpt lat="44.0684032" lon="12.1310747"><ele>440.0</ele><time>2026-04-26T07:47:57.018Z</time></trkpt><trkpt lat="44.0684372" lon="12.1308876"><ele>440.0</ele><time>2026-04-26T07:47:58.028Z</time></trkpt><trkpt lat="44.0684888" lon="12.1306759"><ele>440.0</ele><time>2026-04-26T07:47:59.016Z</time></trkpt><trkpt lat="44.0685217" lon="12.1304476"><ele>440.0</ele><time>2026-04-26T07:48:00.046Z</time></trkpt><trkpt lat="44.0685267" lon="12.130219"><ele>440.0</ele><time>2026-04-26T07:48:01.012Z</time></trkpt><trkpt lat="44.068514" lon="12.129969"><ele>441.66666666666663</ele><time>2026-04-26T07:48:02.024Z</time></trkpt><trkpt lat="44.0684821" lon="12.1297068"><ele>443.33333333333337</ele><time>2026-04-26T07:48:03.023Z</time></trkpt><trkpt lat="44.0684351" lon="12.1294601"><ele>445.0</ele><time>2026-04-26T07:48:04.012Z</time></trkpt><trkpt lat="44.0683745" lon="12.1292419"><ele>445.5</ele><time>2026-04-26T07:48:05.032Z</time></trkpt><trkpt lat="44.068313" lon="12.1290337"><ele>446.0</ele><time>2026-04-26T07:48:06.024Z</time></trkpt><trkpt lat="44.0682436" lon="12.1288521"><ele>446.5</ele><time>2026-04-26T07:48:07.026Z</time></trkpt><trkpt lat="44.0681757" lon="12.1287062"><ele>447.0</ele><time>2026-04-26T07:48:08.022Z</time></trkpt><trkpt lat="44.0681117" lon="12.1285703"><ele>444.3333333333333</ele><time>2026-04-26T07:48:09.01Z</time></trkpt><trkpt lat="44.0680624" lon="12.1284592"><ele>441.66666666666663</ele><time>2026-04-26T07:48:10.014Z</time></trkpt><trkpt lat="44.0680316" lon="12.1283414"><ele>439.0</ele><time>2026-04-26T07:48:11.026Z</time></trkpt><trkpt lat="44.0680323" lon="12.1282425"><ele>436.3333333333333</ele><time>2026-04-26T07:48:12.029Z</time></trkpt><trkpt lat="44.0680576" lon="12.1281432"><ele>433.66666666666663</ele><time>2026-04-26T07:48:13.013Z</time></trkpt><trkpt lat="44.0681194" lon="12.1280412"><ele>431.0</ele><time>2026-04-26T07:48:14.029Z</time></trkpt><trkpt lat="44.0682213" lon="12.1279299"><ele>433.3333333333333</ele><time>2026-04-26T07:48:15.027Z</time></trkpt><trkpt lat="44.0683401" lon="12.1278166"><ele>435.66666666666663</ele><time>2026-04-26T07:48:16.035Z</time></trkpt><trkpt lat="44.0684788" lon="12.1276866"><ele>438.0</ele><time>2026-04-26T07:48:17.025Z</time></trkpt><trkpt lat="44.0685978" lon="12.1275216"><ele>434.25</ele><time>2026-04-26T07:48:18.027Z</time></trkpt><trkpt lat="44.0686845" lon="12.1273329"><ele>430.5</ele><time>2026-04-26T07:48:19.037Z</time></trkpt><trkpt lat="44.0687609" lon="12.1271606"><ele>426.75</ele><time>2026-04-26T07:48:20.037Z</time></trkpt><trkpt lat="44.0688357" lon="12.127"><ele>423.0</ele><time>2026-04-26T07:48:21.036Z</time></trkpt><trkpt lat="44.0689014" lon="12.1268299"><ele>423.0</ele><time>2026-04-26T07:48:22.014Z</time></trkpt><trkpt lat="44.0689512" lon="12.1266564"><ele>423.0</ele><time>2026-04-26T07:48:23.024Z</time></trkpt><trkpt lat="44.0689823" lon="12.1264732"><ele>423.0</ele><time>2026-04-26T07:48:24.028Z</time></trkpt><trkpt lat="44.0690019" lon="12.1262799"><ele>423.0</ele><time>2026-04-26T07:48:25.005Z</time></trkpt><trkpt lat="44.0690072" lon="12.1260691"><ele>421.0</ele><time>2026-04-26T07:48:26.008Z</time></trkpt><trkpt lat="44.0689977" lon="12.1258597"><ele>419.0</ele><time>2026-04-26T07:48:27.003Z</time></trkpt><trkpt lat="44.0689856" lon="12.1256848"><ele>417.0</ele><time>2026-04-26T07:48:28.015Z</time></trkpt><trkpt lat="44.0689901" lon="12.1255374"><ele>415.0</ele><time>2026-04-26T07:48:28.994Z</time></trkpt><trkpt lat="44.0690166" lon="12.125395"><ele>415.00000000000006</ele><time>2026-04-26T07:48:30.016Z</time></trkpt><trkpt lat="44.0690469" lon="12.1252499"><ele>415.0</ele><time>2026-04-26T07:48:31.024Z</time></trkpt><trkpt lat="44.069097" lon="12.1251303"><ele>415.0</ele><time>2026-04-26T07:48:32.007Z</time></trkpt><trkpt lat="44.0691518" lon="12.1250441"><ele>415.0</ele><time>2026-04-26T07:48:33.004Z</time></trkpt><trkpt lat="44.0692062" lon="12.1249719"><ele>415.00000000000006</ele><time>2026-04-26T07:48:34.032Z</time></trkpt><trkpt lat="44.0692403" lon="12.1248951"><ele>415.0</ele><time>2026-04-26T07:48:35.011Z</time></trkpt><trkpt lat="44.0692489" lon="12.1248055"><ele>417.2</ele><time>2026-04-26T07:48:36.024Z</time></trkpt><trkpt lat="44.0692495" lon="12.1246935"><ele>419.4</ele><time>2026-04-26T07:48:37.026Z</time></trkpt><trkpt lat="44.0692239" lon="12.1245684"><ele>421.6</ele><time>2026-04-26T07:48:38.035Z</time></trkpt><trkpt lat="44.0691772" lon="12.1244261"><ele>423.8</ele><time>2026-04-26T07:48:39.013Z</time></trkpt><trkpt lat="44.0691332" lon="12.1242445"><ele>426.0</ele><time>2026-04-26T07:48:40.025Z</time></trkpt><trkpt lat="44.0690835" lon="12.1240379"><ele>426.0</ele><time>2026-04-26T07:48:41.012Z</time></trkpt><trkpt lat="44.0690097" lon="12.1238033"><ele>426.0</ele><time>2026-04-26T07:48:42.022Z</time></trkpt><trkpt lat="44.0689272" lon="12.1235676"><ele>426.0</ele><time>2026-04-26T07:48:43.012Z</time></trkpt><trkpt lat="44.0688436" lon="12.1233687"><ele>427.25</ele><time>2026-04-26T07:48:44.019Z</time></trkpt><trkpt lat="44.068773" lon="12.1232074"><ele>428.5</ele><time>2026-04-26T07:48:45.015Z</time></trkpt><trkpt lat="44.068711" lon="12.1230645"><ele>429.75</ele><time>2026-04-26T07:48:46.029Z</time></trkpt><trkpt lat="44.0686744" lon="12.1229211"><ele>431.0</ele><time>2026-04-26T07:48:47.016Z</time></trkpt><trkpt lat="44.0686489" lon="12.1227711"><ele>431.0</ele><time>2026-04-26T07:48:48.019Z</time></trkpt><trkpt lat="44.0686377" lon="12.1225969"><ele>431.0</ele><time>2026-04-26T07:48:49.021Z</time></trkpt><trkpt lat="44.0686349" lon="12.1223962"><ele>431.0</ele><time>2026-04-26T07:48:50.03Z</time></trkpt><trkpt lat="44.0686287" lon="12.1221742"><ele>431.0</ele><time>2026-04-26T07:48:51.022Z</time></trkpt><trkpt lat="44.0686178" lon="12.1219622"><ele>431.0</ele><time>2026-04-26T07:48:52.027Z</time></trkpt><trkpt lat="44.0685908" lon="12.121762"><ele>431.0</ele><time>2026-04-26T07:48:53.018Z</time></trkpt><trkpt lat="44.0685581" lon="12.1215753"><ele>431.0</ele><time>2026-04-26T07:48:54.021Z</time></trkpt><trkpt lat="44.0685223" lon="12.1213987"><ele>431.0</ele><time>2026-04-26T07:48:55.017Z</time></trkpt><trkpt lat="44.0684783" lon="12.1212227"><ele>430.6</ele><time>2026-04-26T07:48:56.025Z</time></trkpt><trkpt lat="44.0684395" lon="12.121068"><ele>430.20000000000005</ele><time>2026-04-26T07:48:57.012Z</time></trkpt><trkpt lat="44.0684088" lon="12.1209357"><ele>429.79999999999995</ele><time>2026-04-26T07:48:58.031Z</time></trkpt><trkpt lat="44.0683883" lon="12.1208112"><ele>429.4</ele><time>2026-04-26T07:48:59.022Z</time></trkpt><trkpt lat="44.0683644" lon="12.120695"><ele>429.0</ele><time>2026-04-26T07:49:00.018Z</time></trkpt><trkpt lat="44.0683217" lon="12.1205948"><ele>425.3333333333333</ele><time>2026-04-26T07:49:01.017Z</time></trkpt><trkpt lat="44.0682659" lon="12.1205048"><ele>421.66666666666663</ele><time>2026-04-26T07:49:02.025Z</time></trkpt><trkpt lat="44.0681939" lon="12.1204421"><ele>418.0</ele><time>2026-04-26T07:49:03.024Z</time></trkpt><trkpt lat="44.0681176" lon="12.1203834"><ele>414.3333333333333</ele><time>2026-04-26T07:49:04.022Z</time></trkpt><trkpt lat="44.0680529" lon="12.1203524"><ele>410.66666666666663</ele><time>2026-04-26T07:49:05.018Z</time></trkpt><trkpt lat="44.0679843" lon="12.1203595"><ele>407.0</ele><time>2026-04-26T07:49:06.019Z</time></trkpt><trkpt lat="44.0679271" lon="12.1204051"><ele>407.00000000000006</ele><time>2026-04-26T07:49:07.03Z</time></trkpt><trkpt lat="44.0678858" lon="12.1204829"><ele>407.0</ele><time>2026-04-26T07:49:08.011Z</time></trkpt><trkpt lat="44.0678642" lon="12.1205774"><ele>407.0</ele><time>2026-04-26T07:49:09.019Z</time></trkpt><trkpt lat="44.0678384" lon="12.120674"><ele>407.0</ele><time>2026-04-26T07:49:10.036Z</time></trkpt><trkpt lat="44.0677852" lon="12.1207388"><ele>407.0</ele><time>2026-04-26T07:49:11.032Z</time></trkpt><trkpt lat="44.0677181" lon="12.1207611"><ele>407.00000000000006</ele><time>2026-04-26T07:49:12.028Z</time></trkpt><trkpt lat="44.0676499" lon="12.1207398"><ele>407.0</ele><time>2026-04-26T07:49:13.025Z</time></trkpt><trkpt lat="44.0676033" lon="12.1206766"><ele>407.0</ele><time>2026-04-26T07:49:14.025Z</time></trkpt><trkpt lat="44.0675604" lon="12.1205752"><ele>407.0</ele><time>2026-04-26T07:49:15.023Z</time></trkpt><trkpt lat="44.067514" lon="12.1204471"><ele>407.0</ele><time>2026-04-26T07:49:16.018Z</time></trkpt><trkpt lat="44.0674586" lon="12.1203162"><ele>407.0</ele><time>2026-04-26T07:49:17.027Z</time></trkpt><trkpt lat="44.0673784" lon="12.1202241"><ele>407.0</ele><time>2026-04-26T07:49:18.029Z</time></trkpt><trkpt lat="44.0672693" lon="12.1201681"><ele>407.40000000000003</ele><time>2026-04-26T07:49:19.029Z</time></trkpt><trkpt lat="44.0671612" lon="12.1201205"><ele>407.8</ele><time>2026-04-26T07:49:20.031Z</time></trkpt><trkpt lat="44.0670711" lon="12.12009"><ele>408.2</ele><time>2026-04-26T07:49:21.019Z</time></trkpt><trkpt lat="44.0669888" lon="12.1200435"><ele>408.6</ele><time>2026-04-26T07:49:22.025Z</time></trkpt><trkpt lat="44.066935" lon="12.1199592"><ele>409.0</ele><time>2026-04-26T07:49:23.021Z</time></trkpt><trkpt lat="44.0669021" lon="12.1198483"><ele>409.0</ele><time>2026-04-26T07:49:24.029Z</time></trkpt><trkpt lat="44.0668988" lon="12.1197118"><ele>409.0</ele><time>2026-04-26T07:49:25.024Z</time></trkpt><trkpt lat="44.0668938" lon="12.1195993"><ele>409.0</ele><time>2026-04-26T07:49:26.022Z</time></trkpt><trkpt lat="44.0668112" lon="12.1194689"><ele>409.0</ele><time>2026-04-26T07:49:28.019Z</time></trkpt><trkpt lat="44.0667399" lon="12.1194143"><ele>409.0</ele><time>2026-04-26T07:49:29.018Z</time></trkpt><trkpt lat="44.0666518" lon="12.1194003"><ele>411.83333333333337</ele><time>2026-04-26T07:49:30.015Z</time></trkpt><trkpt lat="44.0665661" lon="12.1194155"><ele>414.6666666666667</ele><time>2026-04-26T07:49:31.014Z</time></trkpt><trkpt lat="44.0664851" lon="12.1194744"><ele>417.5</ele><time>2026-04-26T07:49:32.033Z</time></trkpt><trkpt lat="44.0664157" lon="12.1195344"><ele>420.33333333333337</ele><time>2026-04-26T07:49:33.018Z</time></trkpt><trkpt lat="44.0663497" lon="12.1195964"><ele>423.1666666666667</ele><time>2026-04-26T07:49:34.035Z</time></trkpt><trkpt lat="44.066274" lon="12.1196475"><ele>426.0</ele><time>2026-04-26T07:49:35.029Z</time></trkpt><trkpt lat="44.0661953" lon="12.1196995"><ele>426.0</ele><time>2026-04-26T07:49:36.029Z</time></trkpt><trkpt lat="44.0661064" lon="12.1197493"><ele>426.0</ele><time>2026-04-26T07:49:37.015Z</time></trkpt><trkpt lat="44.0660154" lon="12.1198034"><ele>426.0</ele><time>2026-04-26T07:49:38.017Z</time></trkpt><trkpt lat="44.0659166" lon="12.1198609"><ele>426.0</ele><time>2026-04-26T07:49:39.018Z</time></trkpt><trkpt lat="44.0658137" lon="12.1199233"><ele>426.0</ele><time>2026-04-26T07:49:40.023Z</time></trkpt><trkpt lat="44.0657019" lon="12.1199903"><ele>427.0</ele><time>2026-04-26T07:49:41.027Z</time></trkpt><trkpt lat="44.0655786" lon="12.1200607"><ele>428.0</ele><time>2026-04-26T07:49:42.02Z</time></trkpt><trkpt lat="44.0654662" lon="12.1201291"><ele>429.0</ele><time>2026-04-26T07:49:43.042Z</time></trkpt><trkpt lat="44.0653617" lon="12.1201733"><ele>430.0</ele><time>2026-04-26T07:49:44.032Z</time></trkpt><trkpt lat="44.0652554" lon="12.1201924"><ele>430.0</ele><time>2026-04-26T07:49:45.018Z</time></trkpt><trkpt lat="44.065138" lon="12.1201716"><ele>430.0</ele><time>2026-04-26T07:49:46.041Z</time></trkpt><trkpt lat="44.0650135" lon="12.1201292"><ele>430.0</ele><time>2026-04-26T07:49:47.018Z</time></trkpt><trkpt lat="44.064888" lon="12.1200697"><ele>430.0</ele><time>2026-04-26T07:49:48.032Z</time></trkpt><trkpt lat="44.064768" lon="12.1199698"><ele>430.0</ele><time>2026-04-26T07:49:49.049Z</time></trkpt><trkpt lat="44.0646417" lon="12.1198626"><ele>430.0</ele><time>2026-04-26T07:49:50.014Z</time></trkpt><trkpt lat="44.0645337" lon="12.1197519"><ele>430.0</ele><time>2026-04-26T07:49:51.031Z</time></trkpt><trkpt lat="44.0644507" lon="12.119651"><ele>430.0</ele><time>2026-04-26T07:49:52.036Z</time></trkpt><trkpt lat="44.0644019" lon="12.1195546"><ele>430.0</ele><time>2026-04-26T07:49:53.042Z</time></trkpt><trkpt lat="44.0643668" lon="12.1194411"><ele>430.0</ele><time>2026-04-26T07:49:54.042Z</time></trkpt><trkpt lat="44.0643553" lon="12.119293"><ele>430.0</ele><time>2026-04-26T07:49:55.03Z</time></trkpt><trkpt lat="44.0643502" lon="12.1191354"><ele>430.0</ele><time>2026-04-26T07:49:56.031Z</time></trkpt><trkpt lat="44.0643442" lon="12.1189549"><ele>430.0</ele><time>2026-04-26T07:49:57.023Z</time></trkpt><trkpt lat="44.0643275" lon="12.1187816"><ele>430.75</ele><time>2026-04-26T07:49:58.043Z</time></trkpt><trkpt lat="44.0642836" lon="12.1185888"><ele>431.5</ele><time>2026-04-26T07:49:59.042Z</time></trkpt><trkpt lat="44.0642252" lon="12.1183998"><ele>432.25</ele><time>2026-04-26T07:50:00.022Z</time></trkpt><trkpt lat="44.0641715" lon="12.1182272"><ele>433.0</ele><time>2026-04-26T07:50:01.028Z</time></trkpt><trkpt lat="44.0641354" lon="12.1180758"><ele>432.50000000000006</ele><time>2026-04-26T07:50:02.044Z</time></trkpt><trkpt lat="44.0641183" lon="12.1179473"><ele>432.0</ele><time>2026-04-26T07:50:03.026Z</time></trkpt><trkpt lat="44.0640968" lon="12.1178269"><ele>431.5</ele><time>2026-04-26T07:50:04.041Z</time></trkpt><trkpt lat="44.0640506" lon="12.1177446"><ele>431.0</ele><time>2026-04-26T07:50:05.038Z</time></trkpt><trkpt lat="44.063978" lon="12.1176709"><ele>430.50000000000006</ele><time>2026-04-26T07:50:06.03Z</time></trkpt><trkpt lat="44.0638904" lon="12.1176326"><ele>430.0</ele><time>2026-04-26T07:50:07.018Z</time></trkpt><trkpt lat="44.063774" lon="12.117602"><ele>430.0</ele><time>2026-04-26T07:50:08.018Z</time></trkpt><trkpt lat="44.0636651" lon="12.1175489"><ele>430.0</ele><time>2026-04-26T07:50:09.022Z</time></trkpt><trkpt lat="44.0635649" lon="12.1174748"><ele>430.0</ele><time>2026-04-26T07:50:10.029Z</time></trkpt><trkpt lat="44.0634649" lon="12.1173872"><ele>430.0</ele><time>2026-04-26T07:50:11.038Z</time></trkpt><trkpt lat="44.0633639" lon="12.1172696"><ele>430.33333333333337</ele><time>2026-04-26T07:50:12.034Z</time></trkpt><trkpt lat="44.0632634" lon="12.1171016"><ele>430.66666666666663</ele><time>2026-04-26T07:50:13.032Z</time></trkpt><trkpt lat="44.0631477" lon="12.1169258"><ele>431.0</ele><time>2026-04-26T07:50:14.025Z</time></trkpt><trkpt lat="44.063047" lon="12.1167585"><ele>431.0</ele><time>2026-04-26T07:50:15.025Z</time></trkpt><trkpt lat="44.0629508" lon="12.1165975"><ele>431.0</ele><time>2026-04-26T07:50:16.032Z</time></trkpt><trkpt lat="44.0628523" lon="12.1164715"><ele>431.0</ele><time>2026-04-26T07:50:17.025Z</time></trkpt><trkpt lat="44.0627579" lon="12.1163623"><ele>431.0</ele><time>2026-04-26T07:50:18.035Z</time></trkpt><trkpt lat="44.0626584" lon="12.1162749"><ele>430.6</ele><time>2026-04-26T07:50:19.019Z</time></trkpt><trkpt lat="44.0625569" lon="12.1162086"><ele>430.20000000000005</ele><time>2026-04-26T07:50:20.027Z</time></trkpt><trkpt lat="44.0624572" lon="12.1161819"><ele>429.79999999999995</ele><time>2026-04-26T07:50:21.026Z</time></trkpt><trkpt lat="44.0623481" lon="12.1161932"><ele>429.4</ele><time>2026-04-26T07:50:22.042Z</time></trkpt><trkpt lat="44.062237" lon="12.1162357"><ele>429.0</ele><time>2026-04-26T07:50:23.02Z</time></trkpt><trkpt lat="44.0621292" lon="12.1162959"><ele>431.0</ele><time>2026-04-26T07:50:24.018Z</time></trkpt><trkpt lat="44.062023" lon="12.1163739"><ele>433.0</ele><time>2026-04-26T07:50:25.043Z</time></trkpt><trkpt lat="44.0619347" lon="12.1164215"><ele>435.0</ele><time>2026-04-26T07:50:26.03Z</time></trkpt><trkpt lat="44.0618205" lon="12.1163877"><ele>437.0</ele><time>2026-04-26T07:50:28.044Z</time></trkpt><trkpt lat="44.0617808" lon="12.1162507"><ele>439.0</ele><time>2026-04-26T07:50:30.024Z</time></trkpt><trkpt lat="44.0617946" lon="12.1161515"><ele>439.00000000000006</ele><time>2026-04-26T07:50:31.017Z</time></trkpt><trkpt lat="44.0618166" lon="12.1160306"><ele>439.0</ele><time>2026-04-26T07:50:32.016Z</time></trkpt><trkpt lat="44.0618234" lon="12.1159208"><ele>439.0</ele><time>2026-04-26T07:50:33.012Z</time></trkpt><trkpt lat="44.0617914" lon="12.1158262"><ele>439.0</ele><time>2026-04-26T07:50:34.022Z</time></trkpt><trkpt lat="44.0617263" lon="12.1157569"><ele>439.00000000000006</ele><time>2026-04-26T07:50:35.021Z</time></trkpt><trkpt lat="44.0616443" lon="12.1156742"><ele>439.0</ele><time>2026-04-26T07:50:36.019Z</time></trkpt><trkpt lat="44.0615247" lon="12.1155789"><ele>439.0</ele><time>2026-04-26T07:50:37.017Z</time></trkpt><trkpt lat="44.0613805" lon="12.1154816"><ele>439.0</ele><time>2026-04-26T07:50:38.023Z</time></trkpt><trkpt lat="44.0612529" lon="12.1153769"><ele>439.0</ele><time>2026-04-26T07:50:39.018Z</time></trkpt><trkpt lat="44.0611333" lon="12.1152703"><ele>439.0</ele><time>2026-04-26T07:50:40.025Z</time></trkpt><trkpt lat="44.0610315" lon="12.115151"><ele>439.0</ele><time>2026-04-26T07:50:41.018Z</time></trkpt><trkpt lat="44.0609371" lon="12.1149939"><ele>439.0</ele><time>2026-04-26T07:50:42.015Z</time></trkpt><trkpt lat="44.0608717" lon="12.1148359"><ele>439.0</ele><time>2026-04-26T07:50:43.019Z</time></trkpt><trkpt lat="44.0608231" lon="12.1147178"><ele>440.4</ele><time>2026-04-26T07:50:44.025Z</time></trkpt><trkpt lat="44.0607778" lon="12.1146167"><ele>441.79999999999995</ele><time>2026-04-26T07:50:45.004Z</time></trkpt><trkpt lat="44.0607224" lon="12.1145409"><ele>443.20000000000005</ele><time>2026-04-26T07:50:46.022Z</time></trkpt><trkpt lat="44.0606497" lon="12.1144821"><ele>444.6</ele><time>2026-04-26T07:50:47.015Z</time></trkpt><trkpt lat="44.0605591" lon="12.1144398"><ele>446.0</ele><time>2026-04-26T07:50:48.016Z</time></trkpt><trkpt lat="44.0604523" lon="12.1144362"><ele>446.0</ele><time>2026-04-26T07:50:49.019Z</time></trkpt><trkpt lat="44.060334" lon="12.1144692"><ele>446.0</ele><time>2026-04-26T07:50:50.023Z</time></trkpt><trkpt lat="44.0602121" lon="12.1145229"><ele>446.0</ele><time>2026-04-26T07:50:51.027Z</time></trkpt><trkpt lat="44.0600737" lon="12.1145778"><ele>446.0</ele><time>2026-04-26T07:50:52.022Z</time></trkpt><trkpt lat="44.0598982" lon="12.1146204"><ele>444.3333333333333</ele><time>2026-04-26T07:50:53.02Z</time></trkpt><trkpt lat="44.0597157" lon="12.1146646"><ele>442.66666666666663</ele><time>2026-04-26T07:50:54.032Z</time></trkpt><trkpt lat="44.0595643" lon="12.1147186"><ele>441.0</ele><time>2026-04-26T07:50:55.023Z</time></trkpt><trkpt lat="44.0594317" lon="12.1147877"><ele>441.0</ele><time>2026-04-26T07:50:56.018Z</time></trkpt><trkpt lat="44.0593218" lon="12.1148563"><ele>441.0</ele><time>2026-04-26T07:50:57.009Z</time></trkpt><trkpt lat="44.0592262" lon="12.114914"><ele>441.0</ele><time>2026-04-26T07:50:58.032Z</time></trkpt><trkpt lat="44.0591469" lon="12.1149631"><ele>441.0</ele><time>2026-04-26T07:50:59.023Z</time></trkpt><trkpt lat="44.0590688" lon="12.1150045"><ele>441.0</ele><time>2026-04-26T07:51:00.016Z</time></trkpt><trkpt lat="44.0589727" lon="12.1150468"><ele>441.33333333333337</ele><time>2026-04-26T07:51:01.03Z</time></trkpt><trkpt lat="44.0588514" lon="12.1151179"><ele>441.6666666666667</ele><time>2026-04-26T07:51:02.018Z</time></trkpt><trkpt lat="44.0587029" lon="12.1152173"><ele>442.0</ele><time>2026-04-26T07:51:03.023Z</time></trkpt><trkpt lat="44.0585471" lon="12.1153274"><ele>442.0</ele><time>2026-04-26T07:51:04.024Z</time></trkpt><trkpt lat="44.0583954" lon="12.1154276"><ele>442.0</ele><time>2026-04-26T07:51:05.027Z</time></trkpt><trkpt lat="44.0582608" lon="12.1155244"><ele>442.0</ele><time>2026-04-26T07:51:06.026Z</time></trkpt><trkpt lat="44.0581233" lon="12.1156117"><ele>440.5</ele><time>2026-04-26T07:51:07.025Z</time></trkpt><trkpt lat="44.0579958" lon="12.1157064"><ele>439.0</ele><time>2026-04-26T07:51:08.017Z</time></trkpt><trkpt lat="44.057899" lon="12.1158092"><ele>437.5</ele><time>2026-04-26T07:51:09.013Z</time></trkpt><trkpt lat="44.0578074" lon="12.1159179"><ele>436.0</ele><time>2026-04-26T07:51:10.03Z</time></trkpt><trkpt lat="44.0577173" lon="12.1160139"><ele>436.0</ele><time>2026-04-26T07:51:11.025Z</time></trkpt><trkpt lat="44.0576219" lon="12.1160907"><ele>436.0</ele><time>2026-04-26T07:51:12.021Z</time></trkpt><trkpt lat="44.0575177" lon="12.1161582"><ele>436.0</ele><time>2026-04-26T07:51:13.015Z</time></trkpt><trkpt lat="44.0574162" lon="12.1162269"><ele>436.0</ele><time>2026-04-26T07:51:14.021Z</time></trkpt><trkpt lat="44.0573298" lon="12.1162913"><ele>436.0</ele><time>2026-04-26T07:51:15.023Z</time></trkpt><trkpt lat="44.0572635" lon="12.116371"><ele>433.6</ele><time>2026-04-26T07:51:16.018Z</time></trkpt><trkpt lat="44.0572147" lon="12.1164662"><ele>431.20000000000005</ele><time>2026-04-26T07:51:17.022Z</time></trkpt><trkpt lat="44.0571837" lon="12.1165729"><ele>428.79999999999995</ele><time>2026-04-26T07:51:18.032Z</time></trkpt><trkpt lat="44.0571678" lon="12.1166993"><ele>426.4</ele><time>2026-04-26T07:51:19.034Z</time></trkpt><trkpt lat="44.0571757" lon="12.1168765"><ele>424.0</ele><time>2026-04-26T07:51:20.058Z</time></trkpt><trkpt lat="44.0571843" lon="12.1170612"><ele>424.0</ele><time>2026-04-26T07:51:21.021Z</time></trkpt><trkpt lat="44.0571755" lon="12.1172368"><ele>424.0</ele><time>2026-04-26T07:51:22.021Z</time></trkpt><trkpt lat="44.0571523" lon="12.1174005"><ele>424.0</ele><time>2026-04-26T07:51:23.026Z</time></trkpt><trkpt lat="44.0571026" lon="12.1175495"><ele>424.0</ele><time>2026-04-26T07:51:24.033Z</time></trkpt><trkpt lat="44.0570277" lon="12.117697"><ele>423.6666666666667</ele><time>2026-04-26T07:51:25.027Z</time></trkpt><trkpt lat="44.0569283" lon="12.1178223"><ele>423.33333333333337</ele><time>2026-04-26T07:51:26.033Z</time></trkpt><trkpt lat="44.0568077" lon="12.1179665"><ele>423.0</ele><time>2026-04-26T07:51:27.035Z</time></trkpt><trkpt lat="44.0566593" lon="12.1181464"><ele>422.33333333333337</ele><time>2026-04-26T07:51:28.027Z</time></trkpt><trkpt lat="44.0564984" lon="12.1183364"><ele>421.6666666666667</ele><time>2026-04-26T07:51:29.034Z</time></trkpt><trkpt lat="44.056358" lon="12.1185325"><ele>421.0</ele><time>2026-04-26T07:51:30.017Z</time></trkpt><trkpt lat="44.056231" lon="12.1186849"><ele>421.0</ele><time>2026-04-26T07:51:31.025Z</time></trkpt><trkpt lat="44.0560941" lon="12.1188067"><ele>421.0</ele><time>2026-04-26T07:51:32.035Z</time></trkpt><trkpt lat="44.0559455" lon="12.1188916"><ele>421.0</ele><time>2026-04-26T07:51:33.022Z</time></trkpt><trkpt lat="44.0557848" lon="12.1189339"><ele>419.6666666666667</ele><time>2026-04-26T07:51:34.038Z</time></trkpt><trkpt lat="44.0556019" lon="12.1189693"><ele>418.33333333333337</ele><time>2026-04-26T07:51:35.036Z</time></trkpt><trkpt lat="44.0554083" lon="12.1190381"><ele>417.0</ele><time>2026-04-26T07:51:36.031Z</time></trkpt><trkpt lat="44.0552085" lon="12.1191288"><ele>420.33333333333337</ele><time>2026-04-26T07:51:37.027Z</time></trkpt><trkpt lat="44.0550119" lon="12.1192285"><ele>423.6666666666667</ele><time>2026-04-26T07:51:38.049Z</time></trkpt><trkpt lat="44.054821" lon="12.1192864"><ele>427.0</ele><time>2026-04-26T07:51:39.023Z</time></trkpt><trkpt lat="44.0546776" lon="12.1193245"><ele>427.0</ele><time>2026-04-26T07:51:40.02Z</time></trkpt><trkpt lat="44.0545738" lon="12.1193479"><ele>427.00000000000006</ele><time>2026-04-26T07:51:41.035Z</time></trkpt><trkpt lat="44.0544884" lon="12.1193958"><ele>427.00000000000006</ele><time>2026-04-26T07:51:42.031Z</time></trkpt><trkpt lat="44.0544116" lon="12.1195016"><ele>427.0</ele><time>2026-04-26T07:51:43.02Z</time></trkpt><trkpt lat="44.0543456" lon="12.1196532"><ele>427.0</ele><time>2026-04-26T07:51:44.016Z</time></trkpt><trkpt lat="44.0542729" lon="12.1198354"><ele>429.33333333333337</ele><time>2026-04-26T07:51:45.039Z</time></trkpt><trkpt lat="44.0541737" lon="12.1200674"><ele>431.66666666666663</ele><time>2026-04-26T07:51:46.051Z</time></trkpt><trkpt lat="44.0540688" lon="12.1202832"><ele>434.0</ele><time>2026-04-26T07:51:47.038Z</time></trkpt><trkpt lat="44.0539763" lon="12.1204729"><ele>432.79999999999995</ele><time>2026-04-26T07:51:48.039Z</time></trkpt><trkpt lat="44.0538966" lon="12.1206373"><ele>431.59999999999997</ele><time>2026-04-26T07:51:49.02Z</time></trkpt><trkpt lat="44.0538318" lon="12.1207767"><ele>430.4</ele><time>2026-04-26T07:51:50.022Z</time></trkpt><trkpt lat="44.0537783" lon="12.1208864"><ele>429.2</ele><time>2026-04-26T07:51:51.023Z</time></trkpt><trkpt lat="44.0537227" lon="12.1209766"><ele>428.0</ele><time>2026-04-26T07:51:52.02Z</time></trkpt><trkpt lat="44.0536535" lon="12.1210434"><ele>428.0</ele><time>2026-04-26T07:51:53.017Z</time></trkpt><trkpt lat="44.0535683" lon="12.1210916"><ele>427.99999999999994</ele><time>2026-04-26T07:51:54.031Z</time></trkpt><trkpt lat="44.0534797" lon="12.1211121"><ele>427.99999999999994</ele><time>2026-04-26T07:51:55.017Z</time></trkpt><trkpt lat="44.0533685" lon="12.1211143"><ele>428.0</ele><time>2026-04-26T07:51:56.028Z</time></trkpt><trkpt lat="44.0532686" lon="12.1210842"><ele>428.0</ele><time>2026-04-26T07:51:57.025Z</time></trkpt><trkpt lat="44.0531637" lon="12.1210403"><ele>426.5</ele><time>2026-04-26T07:51:58.02Z</time></trkpt><trkpt lat="44.053045" lon="12.1209692"><ele>425.0</ele><time>2026-04-26T07:51:59.025Z</time></trkpt><trkpt lat="44.0529348" lon="12.1208833"><ele>423.5</ele><time>2026-04-26T07:52:00.035Z</time></trkpt><trkpt lat="44.0528396" lon="12.120807"><ele>422.0</ele><time>2026-04-26T07:52:01.024Z</time></trkpt><trkpt lat="44.0527453" lon="12.120744"><ele>420.0</ele><time>2026-04-26T07:52:02.02Z</time></trkpt><trkpt lat="44.0526559" lon="12.1206823"><ele>418.0</ele><time>2026-04-26T07:52:03.019Z</time></trkpt><trkpt lat="44.0525714" lon="12.1206235"><ele>416.0</ele><time>2026-04-26T07:52:04.022Z</time></trkpt><trkpt lat="44.0524939" lon="12.1205672"><ele>414.0</ele><time>2026-04-26T07:52:05.022Z</time></trkpt><trkpt lat="44.0524213" lon="12.1205057"><ele>412.0</ele><time>2026-04-26T07:52:06.025Z</time></trkpt><trkpt lat="44.0523437" lon="12.1204368"><ele>411.0</ele><time>2026-04-26T07:52:07.025Z</time></trkpt><trkpt lat="44.052271" lon="12.1203681"><ele>410.0</ele><time>2026-04-26T07:52:08.041Z</time></trkpt><trkpt lat="44.0522029" lon="12.1202847"><ele>409.0</ele><time>2026-04-26T07:52:09.015Z</time></trkpt><trkpt lat="44.0521371" lon="12.1201938"><ele>408.0</ele><time>2026-04-26T07:52:10.024Z</time></trkpt><trkpt lat="44.052077" lon="12.1200902"><ele>407.0</ele><time>2026-04-26T07:52:11.014Z</time></trkpt><trkpt lat="44.0520202" lon="12.1199918"><ele>404.66666666666663</ele><time>2026-04-26T07:52:12.019Z</time></trkpt><trkpt lat="44.0519664" lon="12.1198939"><ele>402.3333333333333</ele><time>2026-04-26T07:52:13.005Z</time></trkpt><trkpt lat="44.0519109" lon="12.1198039"><ele>400.0</ele><time>2026-04-26T07:52:14.015Z</time></trkpt><trkpt lat="44.0518461" lon="12.1197203"><ele>397.66666666666663</ele><time>2026-04-26T07:52:15.014Z</time></trkpt><trkpt lat="44.0517707" lon="12.1196546"><ele>395.3333333333333</ele><time>2026-04-26T07:52:16.015Z</time></trkpt><trkpt lat="44.0516986" lon="12.1196037"><ele>393.0</ele><time>2026-04-26T07:52:17.042Z</time></trkpt><trkpt lat="44.0516242" lon="12.1195711"><ele>392.0</ele><time>2026-04-26T07:52:18.104Z</time></trkpt><trkpt lat="44.0515408" lon="12.119556"><ele>391.0</ele><time>2026-04-26T07:52:19.026Z</time></trkpt><trkpt lat="44.0514519" lon="12.119566"><ele>390.0</ele><time>2026-04-26T07:52:20.043Z</time></trkpt><trkpt lat="44.0513728" lon="12.1195961"><ele>389.0</ele><time>2026-04-26T07:52:21.014Z</time></trkpt><trkpt lat="44.0513012" lon="12.1196312"><ele>388.0</ele><time>2026-04-26T07:52:22.029Z</time></trkpt><trkpt lat="44.0512323" lon="12.119642"><ele>387.0</ele><time>2026-04-26T07:52:23.022Z</time></trkpt><trkpt lat="44.0511645" lon="12.1196158"><ele>387.0</ele><time>2026-04-26T07:52:24.029Z</time></trkpt><trkpt lat="44.0511015" lon="12.1195468"><ele>387.0</ele><time>2026-04-26T07:52:25.015Z</time></trkpt><trkpt lat="44.0510536" lon="12.1194609"><ele>387.0</ele><time>2026-04-26T07:52:26.035Z</time></trkpt><trkpt lat="44.051012" lon="12.119337"><ele>387.0</ele><time>2026-04-26T07:52:27.02Z</time></trkpt><trkpt lat="44.0509681" lon="12.1191818"><ele>387.0</ele><time>2026-04-26T07:52:28.024Z</time></trkpt><trkpt lat="44.0509235" lon="12.1190248"><ele>385.0</ele><time>2026-04-26T07:52:29.021Z</time></trkpt><trkpt lat="44.0508882" lon="12.1188734"><ele>383.0</ele><time>2026-04-26T07:52:30.015Z</time></trkpt><trkpt lat="44.0508589" lon="12.1187206"><ele>381.0</ele><time>2026-04-26T07:52:31.019Z</time></trkpt><trkpt lat="44.0508263" lon="12.1185725"><ele>379.0</ele><time>2026-04-26T07:52:32.021Z</time></trkpt><trkpt lat="44.0507899" lon="12.1184204"><ele>377.2</ele><time>2026-04-26T07:52:33.022Z</time></trkpt><trkpt lat="44.0507492" lon="12.1182687"><ele>375.4</ele><time>2026-04-26T07:52:34.05Z</time></trkpt><trkpt lat="44.0506941" lon="12.11813"><ele>373.6</ele><time>2026-04-26T07:52:35.025Z</time></trkpt><trkpt lat="44.0506386" lon="12.117997"><ele>371.8</ele><time>2026-04-26T07:52:36.018Z</time></trkpt><trkpt lat="44.0505869" lon="12.1178789"><ele>370.0</ele><time>2026-04-26T07:52:37.01Z</time></trkpt><trkpt lat="44.0505356" lon="12.1177738"><ele>369.0</ele><time>2026-04-26T07:52:38.019Z</time></trkpt><trkpt lat="44.0504587" lon="12.1176702"><ele>368.0</ele><time>2026-04-26T07:52:39.013Z</time></trkpt><trkpt lat="44.0503882" lon="12.1175885"><ele>367.0</ele><time>2026-04-26T07:52:40.015Z</time></trkpt><trkpt lat="44.0503051" lon="12.1175125"><ele>366.0</ele><time>2026-04-26T07:52:41.005Z</time></trkpt><trkpt lat="44.0502293" lon="12.1174498"><ele>365.0</ele><time>2026-04-26T07:52:42.014Z</time></trkpt><trkpt lat="44.0501523" lon="12.1174014"><ele>362.6</ele><time>2026-04-26T07:52:43.011Z</time></trkpt><trkpt lat="44.0500708" lon="12.1173665"><ele>360.2</ele><time>2026-04-26T07:52:44.022Z</time></trkpt><trkpt lat="44.0499779" lon="12.1173477"><ele>357.79999999999995</ele><time>2026-04-26T07:52:45.013Z</time></trkpt><trkpt lat="44.0498817" lon="12.1173461"><ele>355.4</ele><time>2026-04-26T07:52:46.015Z</time></trkpt><trkpt lat="44.0497848" lon="12.1173569"><ele>353.0</ele><time>2026-04-26T07:52:47.02Z</time></trkpt><trkpt lat="44.049685" lon="12.1173682"><ele>351.25</ele><time>2026-04-26T07:52:48.021Z</time></trkpt><trkpt lat="44.0495749" lon="12.117352"><ele>349.5</ele><time>2026-04-26T07:52:49.008Z</time></trkpt><trkpt lat="44.0494705" lon="12.1172985"><ele>347.75</ele><time>2026-04-26T07:52:50.015Z</time></trkpt><trkpt lat="44.0493589" lon="12.1172296"><ele>346.0</ele><time>2026-04-26T07:52:51.011Z</time></trkpt><trkpt lat="44.0492256" lon="12.1171344"><ele>342.66666666666663</ele><time>2026-04-26T07:52:52.023Z</time></trkpt><trkpt lat="44.0490759" lon="12.1170182"><ele>339.3333333333333</ele><time>2026-04-26T07:52:53.012Z</time></trkpt><trkpt lat="44.0489183" lon="12.1169012"><ele>336.0</ele><time>2026-04-26T07:52:54.017Z</time></trkpt><trkpt lat="44.0487617" lon="12.116782"><ele>336.0</ele><time>2026-04-26T07:52:55.007Z</time></trkpt><trkpt lat="44.0486116" lon="12.1166622"><ele>336.0</ele><time>2026-04-26T07:52:56.007Z</time></trkpt><trkpt lat="44.0484583" lon="12.1165451"><ele>336.0</ele><time>2026-04-26T07:52:57.013Z</time></trkpt><trkpt lat="44.0483094" lon="12.1163922"><ele>334.6666666666667</ele><time>2026-04-26T07:52:58.01Z</time></trkpt><trkpt lat="44.0481652" lon="12.1162281"><ele>333.33333333333337</ele><time>2026-04-26T07:52:59.009Z</time></trkpt><trkpt lat="44.0480367" lon="12.1160644"><ele>332.0</ele><time>2026-04-26T07:53:00.013Z</time></trkpt><trkpt lat="44.0479158" lon="12.1159213"><ele>332.0</ele><time>2026-04-26T07:53:01.027Z</time></trkpt><trkpt lat="44.0477937" lon="12.1157763"><ele>332.0</ele><time>2026-04-26T07:53:02.019Z</time></trkpt><trkpt lat="44.0476612" lon="12.1156385"><ele>332.0</ele><time>2026-04-26T07:53:03.021Z</time></trkpt><trkpt lat="44.0475174" lon="12.1155021"><ele>329.6666666666667</ele><time>2026-04-26T07:53:04.005Z</time></trkpt><trkpt lat="44.0473721" lon="12.1153622"><ele>327.3333333333333</ele><time>2026-04-26T07:53:05.007Z</time></trkpt><trkpt lat="44.0472398" lon="12.1152461"><ele>325.0</ele><time>2026-04-26T07:53:06.01Z</time></trkpt><trkpt lat="44.0471253" lon="12.115141"><ele>325.0</ele><time>2026-04-26T07:53:07.006Z</time></trkpt><trkpt lat="44.0470183" lon="12.1150365"><ele>325.0</ele><time>2026-04-26T07:53:08.015Z</time></trkpt><trkpt lat="44.0469157" lon="12.1149397"><ele>325.0</ele><time>2026-04-26T07:53:09.012Z</time></trkpt><trkpt lat="44.0468093" lon="12.1148629"><ele>325.0</ele><time>2026-04-26T07:53:10.015Z</time></trkpt><trkpt lat="44.0467028" lon="12.114808"><ele>322.4</ele><time>2026-04-26T07:53:11.027Z</time></trkpt><trkpt lat="44.0465931" lon="12.1147791"><ele>319.8</ele><time>2026-04-26T07:53:12.015Z</time></trkpt><trkpt lat="44.04648" lon="12.1147433"><ele>317.2</ele><time>2026-04-26T07:53:13.023Z</time></trkpt><trkpt lat="44.0463791" lon="12.1147107"><ele>314.6</ele><time>2026-04-26T07:53:14.03Z</time></trkpt><trkpt lat="44.0462745" lon="12.1146813"><ele>312.0</ele><time>2026-04-26T07:53:15.011Z</time></trkpt><trkpt lat="44.0461659" lon="12.1146388"><ele>312.0</ele><time>2026-04-26T07:53:16.031Z</time></trkpt><trkpt lat="44.0460608" lon="12.1145826"><ele>312.0</ele><time>2026-04-26T07:53:17.01Z</time></trkpt><trkpt lat="44.0459603" lon="12.1145186"><ele>312.0</ele><time>2026-04-26T07:53:18.018Z</time></trkpt><trkpt lat="44.045872" lon="12.1144395"><ele>312.0</ele><time>2026-04-26T07:53:19.007Z</time></trkpt><trkpt lat="44.0457904" lon="12.1143511"><ele>312.0</ele><time>2026-04-26T07:53:20.016Z</time></trkpt><trkpt lat="44.0457251" lon="12.1142474"><ele>310.0</ele><time>2026-04-26T07:53:21.011Z</time></trkpt><trkpt lat="44.045657" lon="12.1141487"><ele>308.0</ele><time>2026-04-26T07:53:22.018Z</time></trkpt><trkpt lat="44.0455731" lon="12.1140588"><ele>306.0</ele><time>2026-04-26T07:53:23.014Z</time></trkpt><trkpt lat="44.0454717" lon="12.1139719"><ele>304.0</ele><time>2026-04-26T07:53:24.029Z</time></trkpt><trkpt lat="44.0453516" lon="12.1139145"><ele>302.66666666666663</ele><time>2026-04-26T07:53:25.023Z</time></trkpt><trkpt lat="44.0452209" lon="12.1138672"><ele>301.3333333333333</ele><time>2026-04-26T07:53:26.016Z</time></trkpt><trkpt lat="44.0450653" lon="12.1138296"><ele>300.0</ele><time>2026-04-26T07:53:27.015Z</time></trkpt><trkpt lat="44.0448915" lon="12.1137994"><ele>300.0</ele><time>2026-04-26T07:53:28.015Z</time></trkpt><trkpt lat="44.0447316" lon="12.1137576"><ele>300.0</ele><time>2026-04-26T07:53:29.019Z</time></trkpt><trkpt lat="44.0445784" lon="12.113728"><ele>300.0</ele><time>2026-04-26T07:53:30.015Z</time></trkpt><trkpt lat="44.0444309" lon="12.1137068"><ele>300.0</ele><time>2026-04-26T07:53:31.015Z</time></trkpt><trkpt lat="44.0442918" lon="12.1136753"><ele>300.0</ele><time>2026-04-26T07:53:32.019Z</time></trkpt><trkpt lat="44.0441423" lon="12.1136313"><ele>300.0</ele><time>2026-04-26T07:53:32.993Z</time></trkpt><trkpt lat="44.0439953" lon="12.1135649"><ele>300.0</ele><time>2026-04-26T07:53:34.015Z</time></trkpt><trkpt lat="44.0438596" lon="12.1134882"><ele>300.0</ele><time>2026-04-26T07:53:35.016Z</time></trkpt><trkpt lat="44.0437292" lon="12.1134032"><ele>300.0</ele><time>2026-04-26T07:53:36.013Z</time></trkpt><trkpt lat="44.043616" lon="12.1133064"><ele>300.0</ele><time>2026-04-26T07:53:37.022Z</time></trkpt><trkpt lat="44.0435153" lon="12.1132026"><ele>300.0</ele><time>2026-04-26T07:53:38.016Z</time></trkpt><trkpt lat="44.0434174" lon="12.113078"><ele>300.0</ele><time>2026-04-26T07:53:39.012Z</time></trkpt><trkpt lat="44.0433325" lon="12.1129397"><ele>300.0</ele><time>2026-04-26T07:53:40.019Z</time></trkpt><trkpt lat="44.0432537" lon="12.1128099"><ele>300.0</ele><time>2026-04-26T07:53:41.02Z</time></trkpt><trkpt lat="44.0431843" lon="12.112686"><ele>300.0</ele><time>2026-04-26T07:53:42.022Z</time></trkpt><trkpt lat="44.0431213" lon="12.112558"><ele>300.4</ele><time>2026-04-26T07:53:43.008Z</time></trkpt><trkpt lat="44.0430594" lon="12.1124313"><ele>300.8</ele><time>2026-04-26T07:53:44.012Z</time></trkpt><trkpt lat="44.0429936" lon="12.1123097"><ele>301.2</ele><time>2026-04-26T07:53:45.031Z</time></trkpt><trkpt lat="44.0429251" lon="12.1122033"><ele>301.6</ele><time>2026-04-26T07:53:46.015Z</time></trkpt><trkpt lat="44.0428479" lon="12.1121122"><ele>302.0</ele><time>2026-04-26T07:53:47.022Z</time></trkpt><trkpt lat="44.0427629" lon="12.1120359"><ele>299.5</ele><time>2026-04-26T07:53:48.02Z</time></trkpt><trkpt lat="44.0426572" lon="12.111983"><ele>297.0</ele><time>2026-04-26T07:53:49.017Z</time></trkpt><trkpt lat="44.0425375" lon="12.1119433"><ele>294.5</ele><time>2026-04-26T07:53:50.018Z</time></trkpt><trkpt lat="44.0424109" lon="12.1119212"><ele>292.0</ele><time>2026-04-26T07:53:51.008Z</time></trkpt><trkpt lat="44.0422847" lon="12.1118914"><ele>291.75</ele><time>2026-04-26T07:53:52.035Z</time></trkpt><trkpt lat="44.0421664" lon="12.1118582"><ele>291.5</ele><time>2026-04-26T07:53:53.031Z</time></trkpt><trkpt lat="44.042049" lon="12.1118109"><ele>291.25</ele><time>2026-04-26T07:53:54.014Z</time></trkpt><trkpt lat="44.0419361" lon="12.1117472"><ele>291.0</ele><time>2026-04-26T07:53:55.038Z</time></trkpt><trkpt lat="44.0418367" lon="12.1116741"><ele>291.0</ele><time>2026-04-26T07:53:56.014Z</time></trkpt><trkpt lat="44.0417507" lon="12.1115757"><ele>291.0</ele><time>2026-04-26T07:53:57.018Z</time></trkpt><trkpt lat="44.0416684" lon="12.1114472"><ele>291.0</ele><time>2026-04-26T07:53:58.014Z</time></trkpt><trkpt lat="44.0415937" lon="12.1112636"><ele>291.0</ele><time>2026-04-26T07:53:59.007Z</time></trkpt><trkpt lat="44.0415151" lon="12.1110725"><ele>291.75</ele><time>2026-04-26T07:54:00.016Z</time></trkpt><trkpt lat="44.0414426" lon="12.1108988"><ele>292.5</ele><time>2026-04-26T07:54:01.009Z</time></trkpt><trkpt lat="44.0413629" lon="12.1107583"><ele>293.25</ele><time>2026-04-26T07:54:02.032Z</time></trkpt><trkpt lat="44.0412856" lon="12.1106388"><ele>294.0</ele><time>2026-04-26T07:54:03.012Z</time></trkpt><trkpt lat="44.0411985" lon="12.1105424"><ele>294.6666666666667</ele><time>2026-04-26T07:54:04.013Z</time></trkpt><trkpt lat="44.0410837" lon="12.1104597"><ele>295.33333333333337</ele><time>2026-04-26T07:54:05.016Z</time></trkpt><trkpt lat="44.0409402" lon="12.1103741"><ele>296.0</ele><time>2026-04-26T07:54:06.015Z</time></trkpt><trkpt lat="44.0407766" lon="12.1102787"><ele>298.6666666666667</ele><time>2026-04-26T07:54:07.017Z</time></trkpt><trkpt lat="44.0406054" lon="12.110188"><ele>301.3333333333333</ele><time>2026-04-26T07:54:08.025Z</time></trkpt><trkpt lat="44.0404607" lon="12.1101173"><ele>304.0</ele><time>2026-04-26T07:54:09.018Z</time></trkpt><trkpt lat="44.0403357" lon="12.1100734"><ele>304.0</ele><time>2026-04-26T07:54:10.014Z</time></trkpt><trkpt lat="44.0402329" lon="12.1100253"><ele>304.0</ele><time>2026-04-26T07:54:11.037Z</time></trkpt><trkpt lat="44.0401332" lon="12.1099716"><ele>304.0</ele><time>2026-04-26T07:54:12.032Z</time></trkpt><trkpt lat="44.0400322" lon="12.1099057"><ele>304.0</ele><time>2026-04-26T07:54:13.006Z</time></trkpt><trkpt lat="44.0399157" lon="12.1098278"><ele>304.75</ele><time>2026-04-26T07:54:14.031Z</time></trkpt><trkpt lat="44.0397873" lon="12.109728"><ele>305.5</ele><time>2026-04-26T07:54:15.027Z</time></trkpt><trkpt lat="44.0396569" lon="12.109623"><ele>306.25</ele><time>2026-04-26T07:54:16.032Z</time></trkpt><trkpt lat="44.0395227" lon="12.1095254"><ele>307.0</ele><time>2026-04-26T07:54:17.034Z</time></trkpt><trkpt lat="44.0393836" lon="12.1094227"><ele>307.0</ele><time>2026-04-26T07:54:18.033Z</time></trkpt><trkpt lat="44.039242" lon="12.1093163"><ele>307.0</ele><time>2026-04-26T07:54:19.023Z</time></trkpt><trkpt lat="44.0391146" lon="12.1092248"><ele>307.0</ele><time>2026-04-26T07:54:20.036Z</time></trkpt><trkpt lat="44.0390053" lon="12.1091479"><ele>307.0</ele><time>2026-04-26T07:54:21.016Z</time></trkpt><trkpt lat="44.0389058" lon="12.1090855"><ele>308.16666666666663</ele><time>2026-04-26T07:54:22.023Z</time></trkpt><trkpt lat="44.0388169" lon="12.1090512"><ele>309.3333333333333</ele><time>2026-04-26T07:54:23.018Z</time></trkpt><trkpt lat="44.0387461" lon="12.1090373"><ele>310.5</ele><time>2026-04-26T07:54:24.042Z</time></trkpt><trkpt lat="44.0386768" lon="12.1090558"><ele>311.6666666666667</ele><time>2026-04-26T07:54:25.036Z</time></trkpt><trkpt lat="44.0386067" lon="12.1091152"><ele>312.83333333333337</ele><time>2026-04-26T07:54:26.024Z</time></trkpt><trkpt lat="44.0385515" lon="12.1092148"><ele>314.0</ele><time>2026-04-26T07:54:27.015Z</time></trkpt><trkpt lat="44.0384928" lon="12.1093141"><ele>315.0</ele><time>2026-04-26T07:54:28.023Z</time></trkpt><trkpt lat="44.0384149" lon="12.1094286"><ele>316.0</ele><time>2026-04-26T07:54:29.016Z</time></trkpt><trkpt lat="44.0383087" lon="12.1095414"><ele>317.0</ele><time>2026-04-26T07:54:30.026Z</time></trkpt><trkpt lat="44.0381899" lon="12.1096565"><ele>318.0</ele><time>2026-04-26T07:54:31.015Z</time></trkpt><trkpt lat="44.0380646" lon="12.1097751"><ele>320.5</ele><time>2026-04-26T07:54:32.032Z</time></trkpt><trkpt lat="44.0379383" lon="12.109887"><ele>323.0</ele><time>2026-04-26T07:54:33.014Z</time></trkpt><trkpt lat="44.0378199" lon="12.1099796"><ele>325.5</ele><time>2026-04-26T07:54:34.026Z</time></trkpt><trkpt lat="44.0377209" lon="12.1100352"><ele>328.0</ele><time>2026-04-26T07:54:35.014Z</time></trkpt><trkpt lat="44.037624" lon="12.1100708"><ele>328.0</ele><time>2026-04-26T07:54:36.033Z</time></trkpt><trkpt lat="44.0375133" lon="12.1100755"><ele>328.0</ele><time>2026-04-26T07:54:37.024Z</time></trkpt><trkpt lat="44.0373955" lon="12.1100779"><ele>328.0</ele><time>2026-04-26T07:54:38.027Z</time></trkpt><trkpt lat="44.0372733" lon="12.1100702"><ele>328.0</ele><time>2026-04-26T07:54:39.015Z</time></trkpt><trkpt lat="44.0371474" lon="12.1100706"><ele>329.79999999999995</ele><time>2026-04-26T07:54:40.04Z</time></trkpt><trkpt lat="44.0370342" lon="12.1100681"><ele>331.6</ele><time>2026-04-26T07:54:41.016Z</time></trkpt><trkpt lat="44.0369327" lon="12.1100634"><ele>333.4</ele><time>2026-04-26T07:54:42.008Z</time></trkpt><trkpt lat="44.0368439" lon="12.1100523"><ele>335.20000000000005</ele><time>2026-04-26T07:54:43.016Z</time></trkpt><trkpt lat="44.0367665" lon="12.1100417"><ele>337.0</ele><time>2026-04-26T07:54:44.026Z</time></trkpt><trkpt lat="44.0366948" lon="12.110044"><ele>337.8</ele><time>2026-04-26T07:54:45.025Z</time></trkpt><trkpt lat="44.0366201" lon="12.1100651"><ele>338.6</ele><time>2026-04-26T07:54:46.03Z</time></trkpt><trkpt lat="44.0365383" lon="12.110086"><ele>339.40000000000003</ele><time>2026-04-26T07:54:47.008Z</time></trkpt><trkpt lat="44.0364443" lon="12.1101093"><ele>340.20000000000005</ele><time>2026-04-26T07:54:48.025Z</time></trkpt><trkpt lat="44.0363406" lon="12.1101334"><ele>341.0</ele><time>2026-04-26T07:54:49.027Z</time></trkpt><trkpt lat="44.0362229" lon="12.110159"><ele>341.0</ele><time>2026-04-26T07:54:50.039Z</time></trkpt><trkpt lat="44.0360765" lon="12.1101905"><ele>341.0</ele><time>2026-04-26T07:54:51.025Z</time></trkpt><trkpt lat="44.0359052" lon="12.110217"><ele>341.0</ele><time>2026-04-26T07:54:52.021Z</time></trkpt><trkpt lat="44.0357238" lon="12.1102596"><ele>342.5</ele><time>2026-04-26T07:54:53.043Z</time></trkpt><trkpt lat="44.035561" lon="12.110323"><ele>344.0</ele><time>2026-04-26T07:54:54.017Z</time></trkpt><trkpt lat="44.0354253" lon="12.1104026"><ele>345.5</ele><time>2026-04-26T07:54:55.008Z</time></trkpt><trkpt lat="44.035321" lon="12.1104551"><ele>347.0</ele><time>2026-04-26T07:54:56.005Z</time></trkpt><trkpt lat="44.0352237" lon="12.11049"><ele>347.0</ele><time>2026-04-26T07:54:57.032Z</time></trkpt><trkpt lat="44.0351287" lon="12.1104938"><ele>347.0</ele><time>2026-04-26T07:54:58.023Z</time></trkpt><trkpt lat="44.0350361" lon="12.110464"><ele>347.0</ele><time>2026-04-26T07:54:59.017Z</time></trkpt><trkpt lat="44.0349609" lon="12.1104205"><ele>347.0</ele><time>2026-04-26T07:55:00.023Z</time></trkpt><trkpt lat="44.0349111" lon="12.1103539"><ele>347.0</ele><time>2026-04-26T07:55:01.026Z</time></trkpt><trkpt lat="44.0348736" lon="12.1102692"><ele>347.0</ele><time>2026-04-26T07:55:02.023Z</time></trkpt><trkpt lat="44.0348463" lon="12.1101783"><ele>345.8</ele><time>2026-04-26T07:55:03.001Z</time></trkpt><trkpt lat="44.0347912" lon="12.1101031"><ele>344.6</ele><time>2026-04-26T07:55:05.012Z</time></trkpt><trkpt lat="44.0347256" lon="12.1101517"><ele>343.40000000000003</ele><time>2026-04-26T07:55:07.014Z</time></trkpt><trkpt lat="44.0346471" lon="12.110316"><ele>342.20000000000005</ele><time>2026-04-26T07:55:09.023Z</time></trkpt><trkpt lat="44.0345819" lon="12.1104198"><ele>341.0</ele><time>2026-04-26T07:55:10.023Z</time></trkpt><trkpt lat="44.0345093" lon="12.1105381"><ele>341.0</ele><time>2026-04-26T07:55:11.021Z</time></trkpt><trkpt lat="44.034433" lon="12.1106568"><ele>341.0</ele><time>2026-04-26T07:55:12.018Z</time></trkpt><trkpt lat="44.0343573" lon="12.1107728"><ele>341.0</ele><time>2026-04-26T07:55:13.011Z</time></trkpt><trkpt lat="44.03428" lon="12.1108874"><ele>341.0</ele><time>2026-04-26T07:55:14.031Z</time></trkpt><trkpt lat="44.0342034" lon="12.1109976"><ele>337.0</ele><time>2026-04-26T07:55:15.023Z</time></trkpt><trkpt lat="44.0341339" lon="12.1110991"><ele>333.0</ele><time>2026-04-26T07:55:16.029Z</time></trkpt><trkpt lat="44.0340677" lon="12.1111977"><ele>329.0</ele><time>2026-04-26T07:55:17.031Z</time></trkpt><trkpt lat="44.0340121" lon="12.1112927"><ele>325.0</ele><time>2026-04-26T07:55:18.016Z</time></trkpt><trkpt lat="44.0339745" lon="12.1113882"><ele>321.0</ele><time>2026-04-26T07:55:19.016Z</time></trkpt><trkpt lat="44.0339443" lon="12.1115154"><ele>320.40000000000003</ele><time>2026-04-26T07:55:20.014Z</time></trkpt><trkpt lat="44.0339163" lon="12.1116793"><ele>319.8</ele><time>2026-04-26T07:55:21.021Z</time></trkpt><trkpt lat="44.0338935" lon="12.111844"><ele>319.20000000000005</ele><time>2026-04-26T07:55:22.022Z</time></trkpt><trkpt lat="44.0338757" lon="12.1119786"><ele>318.6</ele><time>2026-04-26T07:55:23.028Z</time></trkpt><trkpt lat="44.0338505" lon="12.1121091"><ele>318.0</ele><time>2026-04-26T07:55:24.018Z</time></trkpt><trkpt lat="44.0338273" lon="12.1122393"><ele>318.0</ele><time>2026-04-26T07:55:25.022Z</time></trkpt><trkpt lat="44.0338037" lon="12.1123607"><ele>318.0</ele><time>2026-04-26T07:55:26.015Z</time></trkpt><trkpt lat="44.0337808" lon="12.1124824"><ele>318.0</ele><time>2026-04-26T07:55:27.015Z</time></trkpt><trkpt lat="44.0337669" lon="12.1126014"><ele>318.0</ele><time>2026-04-26T07:55:28.021Z</time></trkpt><trkpt lat="44.0337526" lon="12.1127164"><ele>318.0</ele><time>2026-04-26T07:55:29.021Z</time></trkpt><trkpt lat="44.0337371" lon="12.1128174"><ele>318.0</ele><time>2026-04-26T07:55:30.023Z</time></trkpt><trkpt lat="44.0337144" lon="12.1128999"><ele>317.7142857142857</ele><time>2026-04-26T07:55:31.025Z</time></trkpt><trkpt lat="44.033676" lon="12.1129709"><ele>317.42857142857144</ele><time>2026-04-26T07:55:32.022Z</time></trkpt><trkpt lat="44.0336201" lon="12.1130219"><ele>317.14285714285717</ele><time>2026-04-26T07:55:33.015Z</time></trkpt><trkpt lat="44.0335529" lon="12.1130508"><ele>316.8571428571429</ele><time>2026-04-26T07:55:34.015Z</time></trkpt><trkpt lat="44.0334904" lon="12.1130359"><ele>316.57142857142856</ele><time>2026-04-26T07:55:35.012Z</time></trkpt><trkpt lat="44.03342" lon="12.1130303"><ele>316.28571428571433</ele><time>2026-04-26T07:55:36.015Z</time></trkpt><trkpt lat="44.0333401" lon="12.1130007"><ele>316.0</ele><time>2026-04-26T07:55:37.012Z</time></trkpt><trkpt lat="44.0332467" lon="12.1129592"><ele>313.16666666666663</ele><time>2026-04-26T07:55:38.01Z</time></trkpt><trkpt lat="44.0331665" lon="12.1129244"><ele>310.3333333333333</ele><time>2026-04-26T07:55:39.018Z</time></trkpt><trkpt lat="44.0330988" lon="12.112897"><ele>307.5</ele><time>2026-04-26T07:55:40.026Z</time></trkpt><trkpt lat="44.0330326" lon="12.1128826"><ele>304.6666666666667</ele><time>2026-04-26T07:55:41.019Z</time></trkpt><trkpt lat="44.0329215" lon="12.1129102"><ele>301.83333333333337</ele><time>2026-04-26T07:55:43.018Z</time></trkpt><trkpt lat="44.0328564" lon="12.1130338"><ele>299.0</ele><time>2026-04-26T07:55:45.013Z</time></trkpt><trkpt lat="44.0328624" lon="12.1132205"><ele>298.4</ele><time>2026-04-26T07:55:47.013Z</time></trkpt><trkpt lat="44.032866" lon="12.1133445"><ele>297.79999999999995</ele><time>2026-04-26T07:55:48.027Z</time></trkpt><trkpt lat="44.0328537" lon="12.1134716"><ele>297.20000000000005</ele><time>2026-04-26T07:55:49.02Z</time></trkpt><trkpt lat="44.0328249" lon="12.113594"><ele>296.6</ele><time>2026-04-26T07:55:50.019Z</time></trkpt><trkpt lat="44.0327828" lon="12.113728"><ele>296.0</ele><time>2026-04-26T07:55:51.011Z</time></trkpt><trkpt lat="44.0327259" lon="12.1138713"><ele>296.0</ele><time>2026-04-26T07:55:52.028Z</time></trkpt><trkpt lat="44.032667" lon="12.1140192"><ele>296.0</ele><time>2026-04-26T07:55:53.021Z</time></trkpt><trkpt lat="44.0326064" lon="12.1141797"><ele>296.0</ele><time>2026-04-26T07:55:54.021Z</time></trkpt><trkpt lat="44.0325488" lon="12.1143356"><ele>296.0</ele><time>2026-04-26T07:55:55.01Z</time></trkpt><trkpt lat="44.0324936" lon="12.1144911"><ele>292.0</ele><time>2026-04-26T07:55:56.017Z</time></trkpt><trkpt lat="44.0324325" lon="12.114646"><ele>288.0</ele><time>2026-04-26T07:55:57.014Z</time></trkpt><trkpt lat="44.032356" lon="12.1148048"><ele>284.0</ele><time>2026-04-26T07:55:58.018Z</time></trkpt><trkpt lat="44.0322687" lon="12.11496"><ele>280.0</ele><time>2026-04-26T07:55:59.028Z</time></trkpt><trkpt lat="44.0321709" lon="12.1150959"><ele>279.5</ele><time>2026-04-26T07:56:00.009Z</time></trkpt><trkpt lat="44.032076" lon="12.1152234"><ele>279.0</ele><time>2026-04-26T07:56:01.004Z</time></trkpt><trkpt lat="44.0319885" lon="12.1153629"><ele>278.5</ele><time>2026-04-26T07:56:02.025Z</time></trkpt><trkpt lat="44.031914" lon="12.1155144"><ele>278.0</ele><time>2026-04-26T07:56:03.038Z</time></trkpt><trkpt lat="44.03186" lon="12.1156844"><ele>277.6666666666667</ele><time>2026-04-26T07:56:04.024Z</time></trkpt><trkpt lat="44.0318071" lon="12.1158846"><ele>277.3333333333333</ele><time>2026-04-26T07:56:05.012Z</time></trkpt><trkpt lat="44.0317589" lon="12.1160994"><ele>277.0</ele><time>2026-04-26T07:56:06.021Z</time></trkpt><trkpt lat="44.0317112" lon="12.1163309"><ele>276.3333333333333</ele><time>2026-04-26T07:56:07.02Z</time></trkpt><trkpt lat="44.0316624" lon="12.1165786"><ele>275.6666666666667</ele><time>2026-04-26T07:56:08.02Z</time></trkpt><trkpt lat="44.0316063" lon="12.1168451"><ele>275.0</ele><time>2026-04-26T07:56:09.016Z</time></trkpt><trkpt lat="44.0315483" lon="12.1171066"><ele>272.6666666666667</ele><time>2026-04-26T07:56:10.029Z</time></trkpt><trkpt lat="44.0314969" lon="12.1173428"><ele>270.3333333333333</ele><time>2026-04-26T07:56:11.011Z</time></trkpt><trkpt lat="44.0314519" lon="12.1175532"><ele>268.0</ele><time>2026-04-26T07:56:12.02Z</time></trkpt><trkpt lat="44.0313981" lon="12.1177482"><ele>268.0</ele><time>2026-04-26T07:56:13.018Z</time></trkpt><trkpt lat="44.0313268" lon="12.1179437"><ele>268.0</ele><time>2026-04-26T07:56:14.029Z</time></trkpt><trkpt lat="44.031238" lon="12.1181493"><ele>268.0</ele><time>2026-04-26T07:56:15.022Z</time></trkpt><trkpt lat="44.0311403" lon="12.1183684"><ele>269.3333333333333</ele><time>2026-04-26T07:56:16.018Z</time></trkpt><trkpt lat="44.0310367" lon="12.1185992"><ele>270.6666666666667</ele><time>2026-04-26T07:56:17.016Z</time></trkpt><trkpt lat="44.0309359" lon="12.1188158"><ele>272.0</ele><time>2026-04-26T07:56:18.038Z</time></trkpt><trkpt lat="44.0308457" lon="12.1190078"><ele>269.0</ele><time>2026-04-26T07:56:19.013Z</time></trkpt><trkpt lat="44.0307601" lon="12.119187"><ele>266.0</ele><time>2026-04-26T07:56:20.022Z</time></trkpt><trkpt lat="44.0306838" lon="12.1193495"><ele>263.0</ele><time>2026-04-26T07:56:21.019Z</time></trkpt><trkpt lat="44.0306179" lon="12.1194948"><ele>260.0</ele><time>2026-04-26T07:56:22.017Z</time></trkpt><trkpt lat="44.0305624" lon="12.1196139"><ele>260.0</ele><time>2026-04-26T07:56:23.008Z</time></trkpt><trkpt lat="44.0305062" lon="12.1197278"><ele>260.0</ele><time>2026-04-26T07:56:24.017Z</time></trkpt><trkpt lat="44.0304474" lon="12.119824"><ele>260.0</ele><time>2026-04-26T07:56:25.012Z</time></trkpt><trkpt lat="44.0303742" lon="12.1199032"><ele>260.0</ele><time>2026-04-26T07:56:26.016Z</time></trkpt><trkpt lat="44.0302797" lon="12.1199601"><ele>260.0</ele><time>2026-04-26T07:56:27.023Z</time></trkpt><trkpt lat="44.0301757" lon="12.1199897"><ele>259.5714285714286</ele><time>2026-04-26T07:56:28.017Z</time></trkpt><trkpt lat="44.0300833" lon="12.1200198"><ele>259.14285714285717</ele><time>2026-04-26T07:56:29.019Z</time></trkpt><trkpt lat="44.0300141" lon="12.1200584"><ele>258.7142857142857</ele><time>2026-04-26T07:56:30.001Z</time></trkpt><trkpt lat="44.0299556" lon="12.1201208"><ele>258.28571428571433</ele><time>2026-04-26T07:56:31.019Z</time></trkpt><trkpt lat="44.0299216" lon="12.1201977"><ele>257.8571428571429</ele><time>2026-04-26T07:56:32.02Z</time></trkpt><trkpt lat="44.0298938" lon="12.1202835"><ele>257.42857142857144</ele><time>2026-04-26T07:56:33.02Z</time></trkpt><trkpt lat="44.0298742" lon="12.1203789"><ele>257.0</ele><time>2026-04-26T07:56:34.026Z</time></trkpt><trkpt lat="44.0298653" lon="12.1204912"><ele>257.0</ele><time>2026-04-26T07:56:35.021Z</time></trkpt><trkpt lat="44.0298696" lon="12.1205966"><ele>257.0</ele><time>2026-04-26T07:56:36.02Z</time></trkpt><trkpt lat="44.0298814" lon="12.1207121"><ele>257.0</ele><time>2026-04-26T07:56:37.009Z</time></trkpt><trkpt lat="44.0299092" lon="12.1208332"><ele>257.0</ele><time>2026-04-26T07:56:38.019Z</time></trkpt><trkpt lat="44.029941" lon="12.1209544"><ele>257.0</ele><time>2026-04-26T07:56:39.014Z</time></trkpt><trkpt lat="44.029983" lon="12.1210818"><ele>257.0</ele><time>2026-04-26T07:56:40.017Z</time></trkpt><trkpt lat="44.0300237" lon="12.1212105"><ele>257.6</ele><time>2026-04-26T07:56:41.016Z</time></trkpt><trkpt lat="44.0300708" lon="12.1213283"><ele>258.2</ele><time>2026-04-26T07:56:42.02Z</time></trkpt><trkpt lat="44.0301174" lon="12.1214464"><ele>258.8</ele><time>2026-04-26T07:56:43.012Z</time></trkpt><trkpt lat="44.0301655" lon="12.1215738"><ele>259.4</ele><time>2026-04-26T07:56:44.016Z</time></trkpt><trkpt lat="44.0302221" lon="12.1217134"><ele>260.0</ele><time>2026-04-26T07:56:45.012Z</time></trkpt><trkpt lat="44.0302747" lon="12.1218447"><ele>260.0</ele><time>2026-04-26T07:56:46.018Z</time></trkpt><trkpt lat="44.030329" lon="12.1219621"><ele>260.0</ele><time>2026-04-26T07:56:47.01Z</time></trkpt><trkpt lat="44.0303874" lon="12.1220701"><ele>260.0</ele><time>2026-04-26T07:56:48.008Z</time></trkpt><trkpt lat="44.0304384" lon="12.1221768"><ele>260.0</ele><time>2026-04-26T07:56:49.003Z</time></trkpt><trkpt lat="44.0304811" lon="12.1222699"><ele>260.0</ele><time>2026-04-26T07:56:50.015Z</time></trkpt><trkpt lat="44.0305215" lon="12.1223635"><ele>260.0</ele><time>2026-04-26T07:56:51.012Z</time></trkpt><trkpt lat="44.0305573" lon="12.1224508"><ele>258.33333333333337</ele><time>2026-04-26T07:56:52.018Z</time></trkpt><trkpt lat="44.0305832" lon="12.1225332"><ele>256.6666666666667</ele><time>2026-04-26T07:56:53.011Z</time></trkpt><trkpt lat="44.0305961" lon="12.1226329"><ele>255.0</ele><time>2026-04-26T07:56:54.013Z</time></trkpt><trkpt lat="44.0305946" lon="12.1227247"><ele>253.33333333333331</ele><time>2026-04-26T07:56:54.995Z</time></trkpt><trkpt lat="44.030587" lon="12.1228145"><ele>251.66666666666666</ele><time>2026-04-26T07:56:56.018Z</time></trkpt><trkpt lat="44.0305695" lon="12.1229352"><ele>250.0</ele><time>2026-04-26T07:56:57.013Z</time></trkpt><trkpt lat="44.0305632" lon="12.1230666"><ele>249.99999999999997</ele><time>2026-04-26T07:56:58.021Z</time></trkpt><trkpt lat="44.030565" lon="12.1232"><ele>250.0</ele><time>2026-04-26T07:56:59.012Z</time></trkpt><trkpt lat="44.0305571" lon="12.12332"><ele>250.0</ele><time>2026-04-26T07:57:00.019Z</time></trkpt><trkpt lat="44.0305534" lon="12.1234284"><ele>250.0</ele><time>2026-04-26T07:57:01.004Z</time></trkpt><trkpt lat="44.0305275" lon="12.1235209"><ele>249.99999999999997</ele><time>2026-04-26T07:57:02.01Z</time></trkpt><trkpt lat="44.0304711" lon="12.1235894"><ele>250.0</ele><time>2026-04-26T07:57:03.002Z</time></trkpt><trkpt lat="44.030401" lon="12.1236409"><ele>248.33333333333331</ele><time>2026-04-26T07:57:04.014Z</time></trkpt><trkpt lat="44.0302997" lon="12.1236702"><ele>246.66666666666666</ele><time>2026-04-26T07:57:05.006Z</time></trkpt><trkpt lat="44.0302074" lon="12.1236912"><ele>245.0</ele><time>2026-04-26T07:57:06.006Z</time></trkpt><trkpt lat="44.0301341" lon="12.1236498"><ele>243.33333333333331</ele><time>2026-04-26T07:57:07.011Z</time></trkpt><trkpt lat="44.0300669" lon="12.123618"><ele>241.66666666666666</ele><time>2026-04-26T07:57:08.022Z</time></trkpt><trkpt lat="44.0299998" lon="12.1235715"><ele>240.0</ele><time>2026-04-26T07:57:09.007Z</time></trkpt><trkpt lat="44.0299275" lon="12.1235134"><ele>239.83333333333334</ele><time>2026-04-26T07:57:10.018Z</time></trkpt><trkpt lat="44.0298485" lon="12.1234563"><ele>239.66666666666669</ele><time>2026-04-26T07:57:11.001Z</time></trkpt><trkpt lat="44.0297566" lon="12.1233965"><ele>239.5</ele><time>2026-04-26T07:57:12.006Z</time></trkpt><trkpt lat="44.0296705" lon="12.1233492"><ele>239.33333333333334</ele><time>2026-04-26T07:57:13Z</time></trkpt><trkpt lat="44.0295999" lon="12.1232931"><ele>239.16666666666669</ele><time>2026-04-26T07:57:14.01Z</time></trkpt><trkpt lat="44.0295334" lon="12.1232347"><ele>239.0</ele><time>2026-04-26T07:57:15.004Z</time></trkpt><trkpt lat="44.0294273" lon="12.1231993"><ele>236.6</ele><time>2026-04-26T07:57:17.006Z</time></trkpt><trkpt lat="44.0293523" lon="12.1233301"><ele>234.2</ele><time>2026-04-26T07:57:19.008Z</time></trkpt><trkpt lat="44.0293482" lon="12.1234178"><ele>231.79999999999998</ele><time>2026-04-26T07:57:20.011Z</time></trkpt><trkpt lat="44.0293594" lon="12.1235377"><ele>229.39999999999998</ele><time>2026-04-26T07:57:21.012Z</time></trkpt><trkpt lat="44.0293807" lon="12.1236846"><ele>227.0</ele><time>2026-04-26T07:57:22.018Z</time></trkpt><trkpt lat="44.0293961" lon="12.1238292"><ele>227.0</ele><time>2026-04-26T07:57:23.023Z</time></trkpt><trkpt lat="44.029412" lon="12.1239634"><ele>227.0</ele><time>2026-04-26T07:57:24.026Z</time></trkpt><trkpt lat="44.0294318" lon="12.1241009"><ele>227.0</ele><time>2026-04-26T07:57:25.017Z</time></trkpt><trkpt lat="44.0294508" lon="12.1242335"><ele>227.0</ele><time>2026-04-26T07:57:26.019Z</time></trkpt><trkpt lat="44.0294586" lon="12.1243624"><ele>227.0</ele><time>2026-04-26T07:57:27.012Z</time></trkpt><trkpt lat="44.0294676" lon="12.1244779"><ele>225.66666666666669</ele><time>2026-04-26T07:57:28.022Z</time></trkpt><trkpt lat="44.029477" lon="12.1245893"><ele>224.33333333333334</ele><time>2026-04-26T07:57:29.011Z</time></trkpt><trkpt lat="44.029506" lon="12.1247061"><ele>223.0</ele><time>2026-04-26T07:57:30.022Z</time></trkpt><trkpt lat="44.0295461" lon="12.124821"><ele>221.66666666666669</ele><time>2026-04-26T07:57:31.008Z</time></trkpt><trkpt lat="44.0296" lon="12.1249236"><ele>220.33333333333334</ele><time>2026-04-26T07:57:32.005Z</time></trkpt><trkpt lat="44.0296458" lon="12.1250168"><ele>219.0</ele><time>2026-04-26T07:57:32.999Z</time></trkpt><trkpt lat="44.0296874" lon="12.1251077"><ele>217.85714285714286</ele><time>2026-04-26T07:57:34.017Z</time></trkpt><trkpt lat="44.0297313" lon="12.1251991"><ele>216.7142857142857</ele><time>2026-04-26T07:57:35.021Z</time></trkpt><trkpt lat="44.0297639" lon="12.125288"><ele>215.57142857142856</ele><time>2026-04-26T07:57:36.012Z</time></trkpt><trkpt lat="44.0297777" lon="12.1253935"><ele>214.42857142857144</ele><time>2026-04-26T07:57:37.013Z</time></trkpt><trkpt lat="44.0297695" lon="12.1254846"><ele>213.28571428571428</ele><time>2026-04-26T07:57:38.014Z</time></trkpt><trkpt lat="44.0297396" lon="12.1255766"><ele>212.14285714285714</ele><time>2026-04-26T07:57:39.01Z</time></trkpt><trkpt lat="44.0296782" lon="12.1256407"><ele>211.0</ele><time>2026-04-26T07:57:40.013Z</time></trkpt><trkpt lat="44.0296173" lon="12.125674"><ele>211.0</ele><time>2026-04-26T07:57:41.021Z</time></trkpt><trkpt lat="44.0295399" lon="12.1256901"><ele>211.0</ele><time>2026-04-26T07:57:42.01Z</time></trkpt><trkpt lat="44.029422" lon="12.1256143"><ele>211.0</ele><time>2026-04-26T07:57:44.012Z</time></trkpt><trkpt lat="44.0293105" lon="12.1255636"><ele>211.0</ele><time>2026-04-26T07:57:46.031Z</time></trkpt><trkpt lat="44.0292478" lon="12.1256801"><ele>211.0</ele><time>2026-04-26T07:57:48.017Z</time></trkpt><trkpt lat="44.0293197" lon="12.1258443"><ele>209.57142857142858</ele><time>2026-04-26T07:57:50.024Z</time></trkpt><trkpt lat="44.0293705" lon="12.1259153"><ele>208.14285714285717</ele><time>2026-04-26T07:57:51.008Z</time></trkpt><trkpt lat="44.0294028" lon="12.1260013"><ele>206.71428571428572</ele><time>2026-04-26T07:57:52.013Z</time></trkpt><trkpt lat="44.0293862" lon="12.1260991"><ele>205.28571428571428</ele><time>2026-04-26T07:57:53.015Z</time></trkpt><trkpt lat="44.0293417" lon="12.1261678"><ele>203.85714285714286</ele><time>2026-04-26T07:57:54.02Z</time></trkpt><trkpt lat="44.029277" lon="12.1261752"><ele>202.42857142857142</ele><time>2026-04-26T07:57:55.014Z</time></trkpt><trkpt lat="44.0292132" lon="12.1261559"><ele>201.0</ele><time>2026-04-26T07:57:56.011Z</time></trkpt><trkpt lat="44.0291493" lon="12.1261354"><ele>198.83333333333334</ele><time>2026-04-26T07:57:57.002Z</time></trkpt><trkpt lat="44.0290865" lon="12.1261202"><ele>196.66666666666666</ele><time>2026-04-26T07:57:58.013Z</time></trkpt><trkpt lat="44.0290149" lon="12.1261207"><ele>194.5</ele><time>2026-04-26T07:57:59.007Z</time></trkpt><trkpt lat="44.0289395" lon="12.1261173"><ele>192.33333333333331</ele><time>2026-04-26T07:58:00.012Z</time></trkpt><trkpt lat="44.0288695" lon="12.1261191"><ele>190.16666666666666</ele><time>2026-04-26T07:58:01.003Z</time></trkpt><trkpt lat="44.028801" lon="12.1261114"><ele>188.0</ele><time>2026-04-26T07:58:02.007Z</time></trkpt><trkpt lat="44.0286861" lon="12.1260799"><ele>188.0</ele><time>2026-04-26T07:58:04.009Z</time></trkpt><trkpt lat="44.0285918" lon="12.1260467"><ele>188.0</ele><time>2026-04-26T07:58:06.009Z</time></trkpt><trkpt lat="44.0285046" lon="12.1260066"><ele>188.0</ele><time>2026-04-26T07:58:08.014Z</time></trkpt><trkpt lat="44.0284097" lon="12.1259542"><ele>188.0</ele><time>2026-04-26T07:58:10.028Z</time></trkpt><trkpt lat="44.0282912" lon="12.125908"><ele>188.0</ele><time>2026-04-26T07:58:12.023Z</time></trkpt><trkpt lat="44.0282253" lon="12.1258842"><ele>186.71428571428572</ele><time>2026-04-26T07:58:13.023Z</time></trkpt><trkpt lat="44.0281555" lon="12.1258678"><ele>185.42857142857142</ele><time>2026-04-26T07:58:14.019Z</time></trkpt><trkpt lat="44.0280923" lon="12.1258515"><ele>184.14285714285717</ele><time>2026-04-26T07:58:15.017Z</time></trkpt><trkpt lat="44.0280301" lon="12.1258262"><ele>182.85714285714286</ele><time>2026-04-26T07:58:16.015Z</time></trkpt><trkpt lat="44.0279631" lon="12.1257997"><ele>181.57142857142858</ele><time>2026-04-26T07:58:17.021Z</time></trkpt><trkpt lat="44.027889" lon="12.1257836"><ele>180.2857142857143</ele><time>2026-04-26T07:58:18.033Z</time></trkpt><trkpt lat="44.0278107" lon="12.125772"><ele>179.0</ele><time>2026-04-26T07:58:19.025Z</time></trkpt><trkpt lat="44.0277244" lon="12.1257821"><ele>179.0</ele><time>2026-04-26T07:58:20.015Z</time></trkpt><trkpt lat="44.0276356" lon="12.1258014"><ele>179.0</ele><time>2026-04-26T07:58:21.015Z</time></trkpt><trkpt lat="44.0275579" lon="12.1258374"><ele>179.0</ele><time>2026-04-26T07:58:22.019Z</time></trkpt><trkpt lat="44.0274743" lon="12.1259056"><ele>179.0</ele><time>2026-04-26T07:58:23.023Z</time></trkpt><trkpt lat="44.0273921" lon="12.1259888"><ele>179.0</ele><time>2026-04-26T07:58:24.025Z</time></trkpt><trkpt lat="44.0273223" lon="12.1260798"><ele>176.66666666666666</ele><time>2026-04-26T07:58:25.036Z</time></trkpt><trkpt lat="44.0272538" lon="12.1261733"><ele>174.33333333333331</ele><time>2026-04-26T07:58:26.029Z</time></trkpt><trkpt lat="44.0271949" lon="12.126267"><ele>172.0</ele><time>2026-04-26T07:58:27.028Z</time></trkpt><trkpt lat="44.0271373" lon="12.126348"><ele>169.66666666666666</ele><time>2026-04-26T07:58:28.035Z</time></trkpt><trkpt lat="44.0270742" lon="12.1264198"><ele>167.33333333333334</ele><time>2026-04-26T07:58:29.007Z</time></trkpt><trkpt lat="44.0270022" lon="12.1264815"><ele>165.0</ele><time>2026-04-26T07:58:30.027Z</time></trkpt><trkpt lat="44.0269277" lon="12.1265378"><ele>165.66666666666666</ele><time>2026-04-26T07:58:31.004Z</time></trkpt><trkpt lat="44.0268431" lon="12.1265835"><ele>166.33333333333334</ele><time>2026-04-26T07:58:32.026Z</time></trkpt><trkpt lat="44.0267603" lon="12.1266154"><ele>167.0</ele><time>2026-04-26T07:58:33.021Z</time></trkpt><trkpt lat="44.0266828" lon="12.1266392"><ele>167.66666666666669</ele><time>2026-04-26T07:58:34.024Z</time></trkpt><trkpt lat="44.0266036" lon="12.1266507"><ele>168.33333333333334</ele><time>2026-04-26T07:58:35.039Z</time></trkpt><trkpt lat="44.02653" lon="12.1266667"><ele>169.0</ele><time>2026-04-26T07:58:36.025Z</time></trkpt><trkpt lat="44.0264594" lon="12.1266933"><ele>166.33333333333334</ele><time>2026-04-26T07:58:37.02Z</time></trkpt><trkpt lat="44.0263987" lon="12.1267289"><ele>163.66666666666669</ele><time>2026-04-26T07:58:38.021Z</time></trkpt><trkpt lat="44.0263572" lon="12.1267951"><ele>161.0</ele><time>2026-04-26T07:58:39.03Z</time></trkpt><trkpt lat="44.026334" lon="12.1268868"><ele>158.33333333333334</ele><time>2026-04-26T07:58:40.023Z</time></trkpt><trkpt lat="44.0263303" lon="12.1269844"><ele>155.66666666666666</ele><time>2026-04-26T07:58:41.016Z</time></trkpt><trkpt lat="44.0263552" lon="12.1270999"><ele>153.0</ele><time>2026-04-26T07:58:42.009Z</time></trkpt><trkpt lat="44.0263938" lon="12.1272191"><ele>153.0</ele><time>2026-04-26T07:58:43.025Z</time></trkpt><trkpt lat="44.0264284" lon="12.1273229"><ele>153.0</ele><time>2026-04-26T07:58:44.039Z</time></trkpt><trkpt lat="44.0264609" lon="12.1274149"><ele>153.0</ele><time>2026-04-26T07:58:45.014Z</time></trkpt><trkpt lat="44.0264943" lon="12.1275066"><ele>153.0</ele><time>2026-04-26T07:58:46.034Z</time></trkpt><trkpt lat="44.0265304" lon="12.1276014"><ele>153.0</ele><time>2026-04-26T07:58:47.018Z</time></trkpt><trkpt lat="44.0265754" lon="12.1277149"><ele>153.0</ele><time>2026-04-26T07:58:48.015Z</time></trkpt><trkpt lat="44.0266343" lon="12.1278339"><ele>152.6</ele><time>2026-04-26T07:58:49.018Z</time></trkpt><trkpt lat="44.0267078" lon="12.1279519"><ele>152.20000000000002</ele><time>2026-04-26T07:58:50.033Z</time></trkpt><trkpt lat="44.0267849" lon="12.1280629"><ele>151.8</ele><time>2026-04-26T07:58:51.023Z</time></trkpt><trkpt lat="44.0268555" lon="12.1281656"><ele>151.4</ele><time>2026-04-26T07:58:52.023Z</time></trkpt><trkpt lat="44.0269222" lon="12.1282667"><ele>151.0</ele><time>2026-04-26T07:58:53.014Z</time></trkpt><trkpt lat="44.0269858" lon="12.128358"><ele>151.0</ele><time>2026-04-26T07:58:54.04Z</time></trkpt><trkpt lat="44.0270483" lon="12.1284595"><ele>151.0</ele><time>2026-04-26T07:58:55.026Z</time></trkpt><trkpt lat="44.0271129" lon="12.1285514"><ele>151.0</ele><time>2026-04-26T07:58:56.026Z</time></trkpt><trkpt lat="44.0271791" lon="12.1286426"><ele>151.0</ele><time>2026-04-26T07:58:57.005Z</time></trkpt><trkpt lat="44.0272508" lon="12.1287139"><ele>151.0</ele><time>2026-04-26T07:58:58.038Z</time></trkpt><trkpt lat="44.0273175" lon="12.12879"><ele>151.0</ele><time>2026-04-26T07:58:59.026Z</time></trkpt><trkpt lat="44.027385" lon="12.1288597"><ele>151.0</ele><time>2026-04-26T07:59:00.032Z</time></trkpt><trkpt lat="44.0274535" lon="12.1289245"><ele>151.0</ele><time>2026-04-26T07:59:01.025Z</time></trkpt><trkpt lat="44.0275187" lon="12.1289841"><ele>151.0</ele><time>2026-04-26T07:59:02.03Z</time></trkpt><trkpt lat="44.0275809" lon="12.1290461"><ele>151.0</ele><time>2026-04-26T07:59:03.02Z</time></trkpt><trkpt lat="44.0276441" lon="12.1290986"><ele>151.0</ele><time>2026-04-26T07:59:04.026Z</time></trkpt><trkpt lat="44.02771" lon="12.129139"><ele>149.0</ele><time>2026-04-26T07:59:05.024Z</time></trkpt><trkpt lat="44.02778" lon="12.1291704"><ele>147.0</ele><time>2026-04-26T07:59:06.033Z</time></trkpt><trkpt lat="44.027856" lon="12.129186"><ele>145.0</ele><time>2026-04-26T07:59:07.031Z</time></trkpt><trkpt lat="44.0279276" lon="12.1291947"><ele>143.0</ele><time>2026-04-26T07:59:08.039Z</time></trkpt><trkpt lat="44.0279975" lon="12.1291934"><ele>141.0</ele><time>2026-04-26T07:59:09.027Z</time></trkpt><trkpt lat="44.0281088" lon="12.1292285"><ele>139.0</ele><time>2026-04-26T07:59:11.042Z</time></trkpt><trkpt lat="44.0281822" lon="12.1293476"><ele>139.0</ele><time>2026-04-26T07:59:13.017Z</time></trkpt><trkpt lat="44.0281645" lon="12.1295206"><ele>139.0</ele><time>2026-04-26T07:59:15.016Z</time></trkpt><trkpt lat="44.0280755" lon="12.1296387"><ele>139.0</ele><time>2026-04-26T07:59:17.019Z</time></trkpt><trkpt lat="44.0279646" lon="12.129718"><ele>139.0</ele><time>2026-04-26T07:59:19.02Z</time></trkpt><trkpt lat="44.0278536" lon="12.1297858"><ele>136.8</ele><time>2026-04-26T07:59:21.019Z</time></trkpt><trkpt lat="44.0278033" lon="12.1299021"><ele>134.60000000000002</ele><time>2026-04-26T07:59:23.015Z</time></trkpt><trkpt lat="44.0278535" lon="12.1300405"><ele>132.4</ele><time>2026-04-26T07:59:25.018Z</time></trkpt><trkpt lat="44.0279499" lon="12.1300946"><ele>130.20000000000002</ele><time>2026-04-26T07:59:27.021Z</time></trkpt><trkpt lat="44.0280188" lon="12.130145"><ele>128.0</ele><time>2026-04-26T07:59:29.032Z</time></trkpt><trkpt lat="44.0280646" lon="12.130208"><ele>128.0</ele><time>2026-04-26T07:59:32.022Z</time></trkpt><trkpt lat="44.0281036" lon="12.1302834"><ele>128.0</ele><time>2026-04-26T07:59:34.024Z</time></trkpt><trkpt lat="44.0280991" lon="12.1304002"><ele>128.0</ele><time>2026-04-26T07:59:36.023Z</time></trkpt><trkpt lat="44.0280276" lon="12.1304707"><ele>128.0</ele><time>2026-04-26T07:59:38.015Z</time></trkpt><trkpt lat="44.0279414" lon="12.1305227"><ele>128.0</ele><time>2026-04-26T07:59:40.014Z</time></trkpt><trkpt lat="44.0278134" lon="12.1305783"><ele>128.0</ele><time>2026-04-26T07:59:42.017Z</time></trkpt><trkpt lat="44.0277313" lon="12.1306089"><ele>128.0</ele><time>2026-04-26T07:59:43.019Z</time></trkpt><trkpt lat="44.0276388" lon="12.1306353"><ele>128.0</ele><time>2026-04-26T07:59:44.011Z</time></trkpt><trkpt lat="44.0275458" lon="12.1306453"><ele>128.0</ele><time>2026-04-26T07:59:45.019Z</time></trkpt><trkpt lat="44.027454" lon="12.1306481"><ele>128.0</ele><time>2026-04-26T07:59:46.02Z</time></trkpt><trkpt lat="44.0273682" lon="12.1306358"><ele>127.33333333333333</ele><time>2026-04-26T07:59:47.014Z</time></trkpt><trkpt lat="44.0272788" lon="12.130632"><ele>126.66666666666666</ele><time>2026-04-26T07:59:48.015Z</time></trkpt><trkpt lat="44.0271844" lon="12.1306253"><ele>126.0</ele><time>2026-04-26T07:59:49.018Z</time></trkpt><trkpt lat="44.0271032" lon="12.130606"><ele>125.33333333333334</ele><time>2026-04-26T07:59:50.013Z</time></trkpt><trkpt lat="44.0270202" lon="12.1305847"><ele>124.66666666666667</ele><time>2026-04-26T07:59:51.007Z</time></trkpt><trkpt lat="44.0269434" lon="12.1305651"><ele>124.0</ele><time>2026-04-26T07:59:52.017Z</time></trkpt><trkpt lat="44.0268756" lon="12.1305487"><ele>124.0</ele><time>2026-04-26T07:59:53.021Z</time></trkpt><trkpt lat="44.0267718" lon="12.1305082"><ele>124.0</ele><time>2026-04-26T07:59:55.024Z</time></trkpt><trkpt lat="44.0267024" lon="12.1305055"><ele>124.0</ele><time>2026-04-26T07:59:57.02Z</time></trkpt><trkpt lat="44.0266044" lon="12.1305339"><ele>124.0</ele><time>2026-04-26T08:00:00.035Z</time></trkpt><trkpt lat="44.0265149" lon="12.1306407"><ele>124.0</ele><time>2026-04-26T08:00:02.03Z</time></trkpt><trkpt lat="44.0264778" lon="12.130771"><ele>121.0</ele><time>2026-04-26T08:00:03.023Z</time></trkpt><trkpt lat="44.0264515" lon="12.1309093"><ele>118.0</ele><time>2026-04-26T08:00:04.035Z</time></trkpt><trkpt lat="44.0264121" lon="12.1310871"><ele>115.0</ele><time>2026-04-26T08:00:05.009Z</time></trkpt><trkpt lat="44.0263624" lon="12.1312865"><ele>112.0</ele><time>2026-04-26T08:00:06.007Z</time></trkpt><trkpt lat="44.0262999" lon="12.1315067"><ele>111.33333333333334</ele><time>2026-04-26T08:00:07.029Z</time></trkpt><trkpt lat="44.0262328" lon="12.1317328"><ele>110.66666666666666</ele><time>2026-04-26T08:00:08.029Z</time></trkpt><trkpt lat="44.0261723" lon="12.131944"><ele>110.0</ele><time>2026-04-26T08:00:09.02Z</time></trkpt><trkpt lat="44.0261189" lon="12.1321578"><ele>110.0</ele><time>2026-04-26T08:00:10.022Z</time></trkpt><trkpt lat="44.0260639" lon="12.1323564"><ele>110.0</ele><time>2026-04-26T08:00:11.026Z</time></trkpt><trkpt lat="44.0260154" lon="12.132546"><ele>110.0</ele><time>2026-04-26T08:00:12.014Z</time></trkpt><trkpt lat="44.0259654" lon="12.1327355"><ele>110.0</ele><time>2026-04-26T08:00:13.019Z</time></trkpt><trkpt lat="44.0259167" lon="12.1329151"><ele>110.25</ele><time>2026-04-26T08:00:14.019Z</time></trkpt><trkpt lat="44.0258754" lon="12.1330872"><ele>110.5</ele><time>2026-04-26T08:00:15.024Z</time></trkpt><trkpt lat="44.0258501" lon="12.1332543"><ele>110.75</ele><time>2026-04-26T08:00:16.023Z</time></trkpt><trkpt lat="44.0258496" lon="12.13342"><ele>111.0</ele><time>2026-04-26T08:00:17.018Z</time></trkpt><trkpt lat="44.0258697" lon="12.1335812"><ele>111.75</ele><time>2026-04-26T08:00:18.024Z</time></trkpt><trkpt lat="44.0259027" lon="12.1337439"><ele>112.5</ele><time>2026-04-26T08:00:19.008Z</time></trkpt><trkpt lat="44.0259462" lon="12.1339113"><ele>113.25</ele><time>2026-04-26T08:00:20.015Z</time></trkpt><trkpt lat="44.0259943" lon="12.1340824"><ele>114.0</ele><time>2026-04-26T08:00:21.017Z</time></trkpt><trkpt lat="44.0260383" lon="12.1342418"><ele>115.16666666666667</ele><time>2026-04-26T08:00:22.009Z</time></trkpt><trkpt lat="44.026059" lon="12.1343601"><ele>116.33333333333334</ele><time>2026-04-26T08:00:23.029Z</time></trkpt><trkpt lat="44.026081" lon="12.1344712"><ele>117.5</ele><time>2026-04-26T08:00:24.033Z</time></trkpt><trkpt lat="44.0260967" lon="12.1345804"><ele>118.66666666666667</ele><time>2026-04-26T08:00:25.027Z</time></trkpt><trkpt lat="44.0261086" lon="12.1347011"><ele>119.83333333333334</ele><time>2026-04-26T08:00:26.026Z</time></trkpt><trkpt lat="44.0261127" lon="12.1348479"><ele>121.0</ele><time>2026-04-26T08:00:27.026Z</time></trkpt><trkpt lat="44.0261136" lon="12.1350076"><ele>121.0</ele><time>2026-04-26T08:00:28.031Z</time></trkpt><trkpt lat="44.026116" lon="12.135169"><ele>121.0</ele><time>2026-04-26T08:00:29.026Z</time></trkpt><trkpt lat="44.0261044" lon="12.1353178"><ele>121.0</ele><time>2026-04-26T08:00:30.022Z</time></trkpt><trkpt lat="44.0260777" lon="12.1354627"><ele>121.0</ele><time>2026-04-26T08:00:31.025Z</time></trkpt><trkpt lat="44.0260148" lon="12.1355984"><ele>121.0</ele><time>2026-04-26T08:00:32.036Z</time></trkpt><trkpt lat="44.0259399" lon="12.1357342"><ele>120.66666666666667</ele><time>2026-04-26T08:00:33.019Z</time></trkpt><trkpt lat="44.0258771" lon="12.1358413"><ele>120.33333333333334</ele><time>2026-04-26T08:00:34.032Z</time></trkpt><trkpt lat="44.0258396" lon="12.1359343"><ele>120.0</ele><time>2026-04-26T08:00:35.036Z</time></trkpt><trkpt lat="44.0258299" lon="12.1360249"><ele>119.66666666666666</ele><time>2026-04-26T08:00:36.039Z</time></trkpt><trkpt lat="44.0258887" lon="12.1361401"><ele>119.33333333333333</ele><time>2026-04-26T08:00:38.019Z</time></trkpt><trkpt lat="44.0259552" lon="12.1361795"><ele>119.0</ele><time>2026-04-26T08:00:39.01Z</time></trkpt><trkpt lat="44.0260455" lon="12.1362025"><ele>119.0</ele><time>2026-04-26T08:00:40.033Z</time></trkpt><trkpt lat="44.0261539" lon="12.1362456"><ele>119.0</ele><time>2026-04-26T08:00:41.053Z</time></trkpt><trkpt lat="44.0262663" lon="12.1362915"><ele>119.0</ele><time>2026-04-26T08:00:42.034Z</time></trkpt><trkpt lat="44.0263689" lon="12.1363489"><ele>119.0</ele><time>2026-04-26T08:00:43.018Z</time></trkpt><trkpt lat="44.0264704" lon="12.1364055"><ele>118.99999999999999</ele><time>2026-04-26T08:00:44.034Z</time></trkpt><trkpt lat="44.0265532" lon="12.1364541"><ele>119.0</ele><time>2026-04-26T08:00:45.038Z</time></trkpt><trkpt lat="44.0266202" lon="12.136519"><ele>119.0</ele><time>2026-04-26T08:00:46.023Z</time></trkpt><trkpt lat="44.0266642" lon="12.1365947"><ele>119.0</ele><time>2026-04-26T08:00:47.026Z</time></trkpt><trkpt lat="44.0266723" lon="12.1367301"><ele>118.99999999999999</ele><time>2026-04-26T08:00:49.013Z</time></trkpt><trkpt lat="44.0266154" lon="12.1367758"><ele>119.0</ele><time>2026-04-26T08:00:51.015Z</time></trkpt><trkpt lat="44.0265048" lon="12.1367779"><ele>121.16666666666666</ele><time>2026-04-26T08:00:53.024Z</time></trkpt><trkpt lat="44.026432" lon="12.1367885"><ele>123.33333333333333</ele><time>2026-04-26T08:00:54.02Z</time></trkpt><trkpt lat="44.0263506" lon="12.1368204"><ele>125.5</ele><time>2026-04-26T08:00:55.022Z</time></trkpt><trkpt lat="44.0262749" lon="12.1368704"><ele>127.66666666666666</ele><time>2026-04-26T08:00:56.023Z</time></trkpt><trkpt lat="44.0261861" lon="12.1369393"><ele>129.83333333333334</ele><time>2026-04-26T08:00:57.025Z</time></trkpt><trkpt lat="44.026106" lon="12.1370154"><ele>132.0</ele><time>2026-04-26T08:00:58.016Z</time></trkpt><trkpt lat="44.0260193" lon="12.1371076"><ele>132.0</ele><time>2026-04-26T08:00:59.022Z</time></trkpt><trkpt lat="44.0259496" lon="12.1372155"><ele>132.0</ele><time>2026-04-26T08:01:00.019Z</time></trkpt><trkpt lat="44.0258767" lon="12.1373212"><ele>132.0</ele><time>2026-04-26T08:01:01.012Z</time></trkpt><trkpt lat="44.0258009" lon="12.1374321"><ele>132.0</ele><time>2026-04-26T08:01:02.021Z</time></trkpt><trkpt lat="44.025728" lon="12.1375298"><ele>132.0</ele><time>2026-04-26T08:01:03.011Z</time></trkpt><trkpt lat="44.0256437" lon="12.1376182"><ele>133.79999999999998</ele><time>2026-04-26T08:01:04.016Z</time></trkpt><trkpt lat="44.0255506" lon="12.137685"><ele>135.6</ele><time>2026-04-26T08:01:05.017Z</time></trkpt><trkpt lat="44.0254474" lon="12.1377482"><ele>137.39999999999998</ele><time>2026-04-26T08:01:06.014Z</time></trkpt><trkpt lat="44.0253494" lon="12.1378294"><ele>139.2</ele><time>2026-04-26T08:01:07.02Z</time></trkpt><trkpt lat="44.0252471" lon="12.1379024"><ele>141.0</ele><time>2026-04-26T08:01:08.022Z</time></trkpt><trkpt lat="44.0251358" lon="12.1379722"><ele>141.0</ele><time>2026-04-26T08:01:09.007Z</time></trkpt><trkpt lat="44.0250229" lon="12.1380327"><ele>141.0</ele><time>2026-04-26T08:01:10.028Z</time></trkpt><trkpt lat="44.0249128" lon="12.1380937"><ele>141.0</ele><time>2026-04-26T08:01:11.007Z</time></trkpt><trkpt lat="44.0248103" lon="12.1381557"><ele>141.0</ele><time>2026-04-26T08:01:12.018Z</time></trkpt><trkpt lat="44.0247088" lon="12.1382128"><ele>143.25</ele><time>2026-04-26T08:01:13.01Z</time></trkpt><trkpt lat="44.0245994" lon="12.1382625"><ele>145.5</ele><time>2026-04-26T08:01:14.029Z</time></trkpt><trkpt lat="44.0244856" lon="12.1383106"><ele>147.75</ele><time>2026-04-26T08:01:15.014Z</time></trkpt><trkpt lat="44.0243676" lon="12.138355"><ele>150.0</ele><time>2026-04-26T08:01:16.022Z</time></trkpt><trkpt lat="44.0242564" lon="12.1383972"><ele>150.0</ele><time>2026-04-26T08:01:17.007Z</time></trkpt><trkpt lat="44.0241597" lon="12.1384374"><ele>150.0</ele><time>2026-04-26T08:01:18.031Z</time></trkpt><trkpt lat="44.0240675" lon="12.1384785"><ele>150.0</ele><time>2026-04-26T08:01:19.02Z</time></trkpt><trkpt lat="44.023979" lon="12.1385276"><ele>150.0</ele><time>2026-04-26T08:01:20.01Z</time></trkpt><trkpt lat="44.0238931" lon="12.1385652"><ele>150.0</ele><time>2026-04-26T08:01:21.025Z</time></trkpt><trkpt lat="44.0238044" lon="12.1385911"><ele>149.8</ele><time>2026-04-26T08:01:22.014Z</time></trkpt><trkpt lat="44.023703" lon="12.1386141"><ele>149.6</ele><time>2026-04-26T08:01:23.01Z</time></trkpt><trkpt lat="44.0235931" lon="12.1386261"><ele>149.4</ele><time>2026-04-26T08:01:24.034Z</time></trkpt><trkpt lat="44.0234814" lon="12.1386399"><ele>149.2</ele><time>2026-04-26T08:01:25.014Z</time></trkpt><trkpt lat="44.0233754" lon="12.1386543"><ele>149.0</ele><time>2026-04-26T08:01:26.014Z</time></trkpt><trkpt lat="44.0232736" lon="12.1386675"><ele>148.83333333333331</ele><time>2026-04-26T08:01:27.007Z</time></trkpt><trkpt lat="44.0231878" lon="12.1386849"><ele>148.66666666666666</ele><time>2026-04-26T08:01:28.022Z</time></trkpt><trkpt lat="44.0231088" lon="12.1387143"><ele>148.5</ele><time>2026-04-26T08:01:29.016Z</time></trkpt><trkpt lat="44.0230432" lon="12.1387593"><ele>148.33333333333334</ele><time>2026-04-26T08:01:30.017Z</time></trkpt><trkpt lat="44.0229911" lon="12.1388325"><ele>148.16666666666669</ele><time>2026-04-26T08:01:30.999Z</time></trkpt><trkpt lat="44.0229526" lon="12.138926"><ele>148.0</ele><time>2026-04-26T08:01:32.012Z</time></trkpt><trkpt lat="44.0229071" lon="12.1390336"><ele>151.0</ele><time>2026-04-26T08:01:33.006Z</time></trkpt><trkpt lat="44.0228425" lon="12.1391167"><ele>154.0</ele><time>2026-04-26T08:01:34.016Z</time></trkpt><trkpt lat="44.0227701" lon="12.1391539"><ele>157.0</ele><time>2026-04-26T08:01:35.009Z</time></trkpt><trkpt lat="44.0226798" lon="12.1391734"><ele>160.0</ele><time>2026-04-26T08:01:36.018Z</time></trkpt><trkpt lat="44.0225743" lon="12.1391713"><ele>163.0</ele><time>2026-04-26T08:01:37.014Z</time></trkpt><trkpt lat="44.0224688" lon="12.1391623"><ele>163.60000000000002</ele><time>2026-04-26T08:01:38.016Z</time></trkpt><trkpt lat="44.0223648" lon="12.1391581"><ele>164.20000000000002</ele><time>2026-04-26T08:01:39.016Z</time></trkpt><trkpt lat="44.0222722" lon="12.1391651"><ele>164.8</ele><time>2026-04-26T08:01:40.034Z</time></trkpt><trkpt lat="44.0221914" lon="12.1391911"><ele>165.4</ele><time>2026-04-26T08:01:41.015Z</time></trkpt><trkpt lat="44.0221233" lon="12.139236"><ele>166.0</ele><time>2026-04-26T08:01:42.007Z</time></trkpt><trkpt lat="44.0220331" lon="12.1393364"><ele>166.0</ele><time>2026-04-26T08:01:44.025Z</time></trkpt><trkpt lat="44.0219557" lon="12.1394353"><ele>166.0</ele><time>2026-04-26T08:01:46.022Z</time></trkpt><trkpt lat="44.0219086" lon="12.1394979"><ele>166.0</ele><time>2026-04-26T08:01:47.006Z</time></trkpt><trkpt lat="44.0218327" lon="12.1396154"><ele>166.0</ele><time>2026-04-26T08:01:49.017Z</time></trkpt><trkpt lat="44.0217511" lon="12.1397499"><ele>166.0</ele><time>2026-04-26T08:01:51.015Z</time></trkpt><trkpt lat="44.0216786" lon="12.1398716"><ele>166.0</ele><time>2026-04-26T08:01:53.008Z</time></trkpt><trkpt lat="44.0216262" lon="12.1399521"><ele>166.0</ele><time>2026-04-26T08:01:56.013Z</time></trkpt><trkpt lat="44.0216863" lon="12.1399195"><ele>166.0</ele><time>2026-04-26T08:02:21.014Z</time></trkpt><trkpt lat="44.0217168" lon="12.1398176"><ele>166.0</ele><time>2026-04-26T08:02:24.025Z</time></trkpt><trkpt lat="44.0217726" lon="12.1397075"><ele>166.0</ele><time>2026-04-26T08:02:27.002Z</time></trkpt><trkpt lat="44.0218154" lon="12.139643"><ele>166.0</ele><time>2026-04-26T08:02:29.01Z</time></trkpt><trkpt lat="44.021776" lon="12.1397171"><ele>166.0</ele><time>2026-04-26T08:03:23.015Z</time></trkpt><trkpt lat="44.0217319" lon="12.1397959"><ele>166.0</ele><time>2026-04-26T08:03:24.011Z</time></trkpt><trkpt lat="44.0216793" lon="12.1398867"><ele>166.0</ele><time>2026-04-26T08:03:25.014Z</time></trkpt><trkpt lat="44.0216165" lon="12.1399885"><ele>166.0</ele><time>2026-04-26T08:03:26.026Z</time></trkpt><trkpt lat="44.0215465" lon="12.1401065"><ele>166.0</ele><time>2026-04-26T08:03:27.008Z</time></trkpt><trkpt lat="44.0214641" lon="12.1402476"><ele>166.0</ele><time>2026-04-26T08:03:28.006Z</time></trkpt><trkpt lat="44.0213822" lon="12.1403967"><ele>166.0</ele><time>2026-04-26T08:03:29.015Z</time></trkpt><trkpt lat="44.0212991" lon="12.1405454"><ele>166.0</ele><time>2026-04-26T08:03:30.017Z</time></trkpt><trkpt lat="44.0212072" lon="12.140676"><ele>166.0</ele><time>2026-04-26T08:03:31.012Z</time></trkpt><trkpt lat="44.0211117" lon="12.1408108"><ele>166.0</ele><time>2026-04-26T08:03:32.023Z</time></trkpt><trkpt lat="44.0210141" lon="12.1409655"><ele>169.0</ele><time>2026-04-26T08:03:33.014Z</time></trkpt><trkpt lat="44.0209189" lon="12.1411274"><ele>172.0</ele><time>2026-04-26T08:03:34.02Z</time></trkpt><trkpt lat="44.0208372" lon="12.1412786"><ele>175.0</ele><time>2026-04-26T08:03:35.014Z</time></trkpt><trkpt lat="44.020772" lon="12.1414032"><ele>178.0</ele><time>2026-04-26T08:03:36.025Z</time></trkpt><trkpt lat="44.0207124" lon="12.1415044"><ele>181.2</ele><time>2026-04-26T08:03:37.013Z</time></trkpt><trkpt lat="44.0206689" lon="12.1415848"><ele>184.4</ele><time>2026-04-26T08:03:38.025Z</time></trkpt><trkpt lat="44.0205965" lon="12.1417017"><ele>187.6</ele><time>2026-04-26T08:03:40.017Z</time></trkpt><trkpt lat="44.0205436" lon="12.1417643"><ele>190.79999999999998</ele><time>2026-04-26T08:03:42.009Z</time></trkpt><trkpt lat="44.0204651" lon="12.141877"><ele>194.0</ele><time>2026-04-26T08:03:44.022Z</time></trkpt><trkpt lat="44.0203933" lon="12.1419601"><ele>194.0</ele><time>2026-04-26T08:03:45.013Z</time></trkpt><trkpt lat="44.0203176" lon="12.1420637"><ele>194.0</ele><time>2026-04-26T08:03:46.012Z</time></trkpt><trkpt lat="44.0202425" lon="12.1421644"><ele>194.0</ele><time>2026-04-26T08:03:47.02Z</time></trkpt><trkpt lat="44.0201547" lon="12.1422542"><ele>194.0</ele><time>2026-04-26T08:03:48.013Z</time></trkpt><trkpt lat="44.0200625" lon="12.1423442"><ele>194.0</ele><time>2026-04-26T08:03:49.01Z</time></trkpt><trkpt lat="44.0199748" lon="12.1424461"><ele>197.2</ele><time>2026-04-26T08:03:50.014Z</time></trkpt><trkpt lat="44.0198836" lon="12.1425539"><ele>200.39999999999998</ele><time>2026-04-26T08:03:51.012Z</time></trkpt><trkpt lat="44.0197965" lon="12.1426575"><ele>203.6</ele><time>2026-04-26T08:03:52.022Z</time></trkpt><trkpt lat="44.0197175" lon="12.1427538"><ele>206.8</ele><time>2026-04-26T08:03:53.019Z</time></trkpt><trkpt lat="44.0196349" lon="12.1428433"><ele>210.0</ele><time>2026-04-26T08:03:54.021Z</time></trkpt><trkpt lat="44.0195529" lon="12.1429272"><ele>210.0</ele><time>2026-04-26T08:03:55.019Z</time></trkpt><trkpt lat="44.0194646" lon="12.1430225"><ele>210.0</ele><time>2026-04-26T08:03:56.016Z</time></trkpt><trkpt lat="44.0193788" lon="12.1431236"><ele>210.0</ele><time>2026-04-26T08:03:57.016Z</time></trkpt><trkpt lat="44.0193032" lon="12.1432339"><ele>210.0</ele><time>2026-04-26T08:03:58.017Z</time></trkpt><trkpt lat="44.0192535" lon="12.1433166"><ele>210.0</ele><time>2026-04-26T08:03:59.018Z</time></trkpt><trkpt lat="44.0192161" lon="12.1433898"><ele>211.33333333333334</ele><time>2026-04-26T08:04:01.007Z</time></trkpt><trkpt lat="44.0191533" lon="12.1433997"><ele>212.66666666666669</ele><time>2026-04-26T08:04:05.031Z</time></trkpt><trkpt lat="44.0190871" lon="12.1433887"><ele>214.0</ele><time>2026-04-26T08:04:08.016Z</time></trkpt><trkpt lat="44.0190616" lon="12.1435222"><ele>215.33333333333334</ele><time>2026-04-26T08:04:11.019Z</time></trkpt><trkpt lat="44.0190793" lon="12.1436866"><ele>216.66666666666669</ele><time>2026-04-26T08:04:13.01Z</time></trkpt><trkpt lat="44.0190469" lon="12.1437756"><ele>218.0</ele><time>2026-04-26T08:04:15.023Z</time></trkpt><trkpt lat="44.0189663" lon="12.1438731"><ele>219.00000000000003</ele><time>2026-04-26T08:04:17.004Z</time></trkpt><trkpt lat="44.0189178" lon="12.1439329"><ele>220.0</ele><time>2026-04-26T08:04:18.001Z</time></trkpt><trkpt lat="44.0188486" lon="12.1440274"><ele>221.0</ele><time>2026-04-26T08:04:20.013Z</time></trkpt><trkpt lat="44.0187917" lon="12.1441266"><ele>222.0</ele><time>2026-04-26T08:04:24.039Z</time></trkpt><trkpt lat="44.0187312" lon="12.1442114"><ele>223.00000000000003</ele><time>2026-04-26T08:04:26.03Z</time></trkpt><trkpt lat="44.0186696" lon="12.1443056"><ele>224.0</ele><time>2026-04-26T08:04:28.029Z</time></trkpt><trkpt lat="44.0185976" lon="12.144388"><ele>225.33333333333334</ele><time>2026-04-26T08:04:30.026Z</time></trkpt><trkpt lat="44.0185545" lon="12.1444564"><ele>226.66666666666669</ele><time>2026-04-26T08:04:31.025Z</time></trkpt><trkpt lat="44.0185057" lon="12.144528"><ele>228.0</ele><time>2026-04-26T08:04:32.021Z</time></trkpt><trkpt lat="44.0184506" lon="12.1445993"><ele>229.33333333333331</ele><time>2026-04-26T08:04:33.022Z</time></trkpt><trkpt lat="44.0184025" lon="12.1446661"><ele>230.66666666666666</ele><time>2026-04-26T08:04:34.023Z</time></trkpt><trkpt lat="44.0183256" lon="12.1447529"><ele>232.0</ele><time>2026-04-26T08:04:36.023Z</time></trkpt><trkpt lat="44.0182408" lon="12.1448605"><ele>234.49999999999997</ele><time>2026-04-26T08:04:38.022Z</time></trkpt><trkpt lat="44.0181928" lon="12.1449262"><ele>237.0</ele><time>2026-04-26T08:04:39.032Z</time></trkpt><trkpt lat="44.0181374" lon="12.1450025"><ele>239.5</ele><time>2026-04-26T08:04:40.022Z</time></trkpt><trkpt lat="44.0180759" lon="12.1450858"><ele>242.0</ele><time>2026-04-26T08:04:41.026Z</time></trkpt><trkpt lat="44.0180128" lon="12.1451806"><ele>244.49999999999997</ele><time>2026-04-26T08:04:42.024Z</time></trkpt><trkpt lat="44.0179528" lon="12.1452747"><ele>247.0</ele><time>2026-04-26T08:04:43.015Z</time></trkpt><trkpt lat="44.0178897" lon="12.1453705"><ele>247.0</ele><time>2026-04-26T08:04:44.017Z</time></trkpt><trkpt lat="44.0178189" lon="12.1454745"><ele>247.0</ele><time>2026-04-26T08:04:45.036Z</time></trkpt><trkpt lat="44.0177417" lon="12.1455779"><ele>247.0</ele><time>2026-04-26T08:04:46.022Z</time></trkpt><trkpt lat="44.0176629" lon="12.1456782"><ele>247.0</ele><time>2026-04-26T08:04:47.011Z</time></trkpt><trkpt lat="44.0175821" lon="12.1457867"><ele>247.0</ele><time>2026-04-26T08:04:48.012Z</time></trkpt><trkpt lat="44.0175126" lon="12.145885"><ele>249.2</ele><time>2026-04-26T08:04:49.026Z</time></trkpt><trkpt lat="44.0174584" lon="12.1459577"><ele>251.39999999999998</ele><time>2026-04-26T08:04:50.03Z</time></trkpt><trkpt lat="44.0173944" lon="12.1460355"><ele>253.60000000000002</ele><time>2026-04-26T08:04:52.016Z</time></trkpt><trkpt lat="44.0173003" lon="12.1460566"><ele>255.8</ele><time>2026-04-26T08:04:55.01Z</time></trkpt><trkpt lat="44.0171884" lon="12.146013"><ele>258.0</ele><time>2026-04-26T08:04:57.012Z</time></trkpt><trkpt lat="44.0171092" lon="12.1460006"><ele>258.0</ele><time>2026-04-26T08:04:58.011Z</time></trkpt><trkpt lat="44.0170246" lon="12.1460001"><ele>258.0</ele><time>2026-04-26T08:04:59.026Z</time></trkpt><trkpt lat="44.0169258" lon="12.1460128"><ele>258.0</ele><time>2026-04-26T08:05:00.025Z</time></trkpt><trkpt lat="44.016816" lon="12.1460244"><ele>258.0</ele><time>2026-04-26T08:05:01.009Z</time></trkpt><trkpt lat="44.0166865" lon="12.1460403"><ele>258.0</ele><time>2026-04-26T08:05:02.015Z</time></trkpt><trkpt lat="44.0165591" lon="12.1460503"><ele>258.5</ele><time>2026-04-26T08:05:03.028Z</time></trkpt><trkpt lat="44.0164293" lon="12.1460655"><ele>259.0</ele><time>2026-04-26T08:05:04.031Z</time></trkpt><trkpt lat="44.0162845" lon="12.1460794"><ele>259.5</ele><time>2026-04-26T08:05:05.021Z</time></trkpt><trkpt lat="44.0161354" lon="12.1460936"><ele>260.0</ele><time>2026-04-26T08:05:06.023Z</time></trkpt><trkpt lat="44.0159924" lon="12.1460992"><ele>260.0</ele><time>2026-04-26T08:05:07.03Z</time></trkpt><trkpt lat="44.0158606" lon="12.146125"><ele>260.0</ele><time>2026-04-26T08:05:08.018Z</time></trkpt><trkpt lat="44.0157285" lon="12.1461528"><ele>260.0</ele><time>2026-04-26T08:05:09.022Z</time></trkpt><trkpt lat="44.0155953" lon="12.1461917"><ele>260.0</ele><time>2026-04-26T08:05:10.031Z</time></trkpt><trkpt lat="44.0154675" lon="12.1462316"><ele>260.25</ele><time>2026-04-26T08:05:11.015Z</time></trkpt><trkpt lat="44.0153441" lon="12.1462659"><ele>260.5</ele><time>2026-04-26T08:05:12.018Z</time></trkpt><trkpt lat="44.0152141" lon="12.1462845"><ele>260.75</ele><time>2026-04-26T08:05:13.012Z</time></trkpt><trkpt lat="44.015083" lon="12.1462862"><ele>261.0</ele><time>2026-04-26T08:05:14.017Z</time></trkpt><trkpt lat="44.0149486" lon="12.1462625"><ele>261.5</ele><time>2026-04-26T08:05:15.01Z</time></trkpt><trkpt lat="44.0148057" lon="12.1462172"><ele>262.0</ele><time>2026-04-26T08:05:16.023Z</time></trkpt><trkpt lat="44.0146756" lon="12.1461728"><ele>262.5</ele><time>2026-04-26T08:05:17.011Z</time></trkpt><trkpt lat="44.0145551" lon="12.1461243"><ele>263.0</ele><time>2026-04-26T08:05:18.024Z</time></trkpt><trkpt lat="44.0144377" lon="12.1460786"><ele>263.0</ele><time>2026-04-26T08:05:19.022Z</time></trkpt><trkpt lat="44.014325" lon="12.1460237"><ele>263.0</ele><time>2026-04-26T08:05:20.032Z</time></trkpt><trkpt lat="44.0142261" lon="12.1459796"><ele>263.0</ele><time>2026-04-26T08:05:21.007Z</time></trkpt><trkpt lat="44.0141322" lon="12.1459436"><ele>263.0</ele><time>2026-04-26T08:05:22.027Z</time></trkpt><trkpt lat="44.0140424" lon="12.1459048"><ele>263.0</ele><time>2026-04-26T08:05:23.022Z</time></trkpt><trkpt lat="44.0139354" lon="12.1458634"><ele>262.6</ele><time>2026-04-26T08:05:24.004Z</time></trkpt><trkpt lat="44.0138252" lon="12.1458009"><ele>262.20000000000005</ele><time>2026-04-26T08:05:25.02Z</time></trkpt><trkpt lat="44.0137341" lon="12.1457347"><ele>261.8</ele><time>2026-04-26T08:05:26.008Z</time></trkpt><trkpt lat="44.0136565" lon="12.1456417"><ele>261.40000000000003</ele><time>2026-04-26T08:05:27.015Z</time></trkpt><trkpt lat="44.0135902" lon="12.1455299"><ele>261.0</ele><time>2026-04-26T08:05:28.019Z</time></trkpt><trkpt lat="44.0135316" lon="12.1454055"><ele>261.0</ele><time>2026-04-26T08:05:29.017Z</time></trkpt><trkpt lat="44.0134783" lon="12.1452598"><ele>261.0</ele><time>2026-04-26T08:05:30.018Z</time></trkpt><trkpt lat="44.013415" lon="12.1451108"><ele>261.0</ele><time>2026-04-26T08:05:31.012Z</time></trkpt><trkpt lat="44.0133407" lon="12.1449645"><ele>261.0</ele><time>2026-04-26T08:05:32.015Z</time></trkpt><trkpt lat="44.0132578" lon="12.1448084"><ele>263.0</ele><time>2026-04-26T08:05:33.007Z</time></trkpt><trkpt lat="44.0131604" lon="12.1446491"><ele>265.0</ele><time>2026-04-26T08:05:34.013Z</time></trkpt><trkpt lat="44.0130636" lon="12.1444861"><ele>267.0</ele><time>2026-04-26T08:05:35.012Z</time></trkpt><trkpt lat="44.0129658" lon="12.1443165"><ele>267.0</ele><time>2026-04-26T08:05:36.018Z</time></trkpt><trkpt lat="44.0128661" lon="12.1441404"><ele>267.0</ele><time>2026-04-26T08:05:37.012Z</time></trkpt><trkpt lat="44.012753" lon="12.1439427"><ele>267.0</ele><time>2026-04-26T08:05:38.018Z</time></trkpt><trkpt lat="44.0126421" lon="12.1437529"><ele>268.0</ele><time>2026-04-26T08:05:39.02Z</time></trkpt><trkpt lat="44.0125455" lon="12.1435877"><ele>269.0</ele><time>2026-04-26T08:05:40.028Z</time></trkpt><trkpt lat="44.0124542" lon="12.1434303"><ele>270.0</ele><time>2026-04-26T08:05:41.036Z</time></trkpt><trkpt lat="44.0123765" lon="12.1432915"><ele>271.0</ele><time>2026-04-26T08:05:42.021Z</time></trkpt><trkpt lat="44.0122998" lon="12.1431517"><ele>274.0</ele><time>2026-04-26T08:05:43.02Z</time></trkpt><trkpt lat="44.0122301" lon="12.1430065"><ele>277.0</ele><time>2026-04-26T08:05:44.02Z</time></trkpt><trkpt lat="44.0121622" lon="12.1428631"><ele>280.0</ele><time>2026-04-26T08:05:45.015Z</time></trkpt><trkpt lat="44.0121016" lon="12.1427044"><ele>283.0</ele><time>2026-04-26T08:05:46.019Z</time></trkpt><trkpt lat="44.0120514" lon="12.1425393"><ele>283.5</ele><time>2026-04-26T08:05:47.026Z</time></trkpt><trkpt lat="44.0120089" lon="12.1423629"><ele>284.0</ele><time>2026-04-26T08:05:48.019Z</time></trkpt><trkpt lat="44.0119691" lon="12.1421716"><ele>284.5</ele><time>2026-04-26T08:05:49.015Z</time></trkpt><trkpt lat="44.0119332" lon="12.1419707"><ele>285.0</ele><time>2026-04-26T08:05:50.02Z</time></trkpt><trkpt lat="44.011896" lon="12.1417787"><ele>285.0</ele><time>2026-04-26T08:05:51.029Z</time></trkpt><trkpt lat="44.0118568" lon="12.1415988"><ele>285.0</ele><time>2026-04-26T08:05:52.021Z</time></trkpt><trkpt lat="44.0118138" lon="12.1414047"><ele>285.0</ele><time>2026-04-26T08:05:53.022Z</time></trkpt><trkpt lat="44.0117712" lon="12.1412001"><ele>285.0</ele><time>2026-04-26T08:05:54.016Z</time></trkpt><trkpt lat="44.0117162" lon="12.1409879"><ele>285.25</ele><time>2026-04-26T08:05:55.019Z</time></trkpt><trkpt lat="44.0116739" lon="12.1408158"><ele>285.5</ele><time>2026-04-26T08:05:56.009Z</time></trkpt><trkpt lat="44.0116297" lon="12.140653"><ele>285.75</ele><time>2026-04-26T08:05:57.006Z</time></trkpt><trkpt lat="44.011589" lon="12.1404971"><ele>286.0</ele><time>2026-04-26T08:05:58.006Z</time></trkpt><trkpt lat="44.0115535" lon="12.1403394"><ele>287.75</ele><time>2026-04-26T08:05:59.01Z</time></trkpt><trkpt lat="44.0115338" lon="12.1401717"><ele>289.5</ele><time>2026-04-26T08:06:00.01Z</time></trkpt><trkpt lat="44.0115191" lon="12.1399886"><ele>291.25</ele><time>2026-04-26T08:06:01.006Z</time></trkpt><trkpt lat="44.0115112" lon="12.1398066"><ele>293.0</ele><time>2026-04-26T08:06:02.01Z</time></trkpt><trkpt lat="44.0115146" lon="12.1396189"><ele>293.5</ele><time>2026-04-26T08:06:03.016Z</time></trkpt><trkpt lat="44.011524" lon="12.1394335"><ele>294.0</ele><time>2026-04-26T08:06:04.019Z</time></trkpt><trkpt lat="44.0115267" lon="12.1392509"><ele>294.5</ele><time>2026-04-26T08:06:05.015Z</time></trkpt><trkpt lat="44.0115308" lon="12.1390759"><ele>295.0</ele><time>2026-04-26T08:06:06.013Z</time></trkpt><trkpt lat="44.0115304" lon="12.1389012"><ele>295.25</ele><time>2026-04-26T08:06:07.018Z</time></trkpt><trkpt lat="44.011535" lon="12.1387182"><ele>295.5</ele><time>2026-04-26T08:06:08.038Z</time></trkpt><trkpt lat="44.0115485" lon="12.1385417"><ele>295.75</ele><time>2026-04-26T08:06:09.011Z</time></trkpt><trkpt lat="44.0115715" lon="12.1383635"><ele>296.0</ele><time>2026-04-26T08:06:10.012Z</time></trkpt><trkpt lat="44.0116021" lon="12.1381843"><ele>296.40000000000003</ele><time>2026-04-26T08:06:11.014Z</time></trkpt><trkpt lat="44.0116394" lon="12.1380237"><ele>296.8</ele><time>2026-04-26T08:06:12.02Z</time></trkpt><trkpt lat="44.0116797" lon="12.1378906"><ele>297.20000000000005</ele><time>2026-04-26T08:06:13.028Z</time></trkpt><trkpt lat="44.0117256" lon="12.1377653"><ele>297.6</ele><time>2026-04-26T08:06:14.013Z</time></trkpt><trkpt lat="44.0117877" lon="12.1376422"><ele>298.0</ele><time>2026-04-26T08:06:15.014Z</time></trkpt><trkpt lat="44.011848" lon="12.1375232"><ele>296.8</ele><time>2026-04-26T08:06:16.022Z</time></trkpt><trkpt lat="44.0119027" lon="12.1374109"><ele>295.6</ele><time>2026-04-26T08:06:17.012Z</time></trkpt><trkpt lat="44.0119452" lon="12.1373012"><ele>294.4</ele><time>2026-04-26T08:06:18.016Z</time></trkpt><trkpt lat="44.0119782" lon="12.1371735"><ele>293.2</ele><time>2026-04-26T08:06:19.01Z</time></trkpt><trkpt lat="44.0120048" lon="12.1370269"><ele>292.0</ele><time>2026-04-26T08:06:20Z</time></trkpt><trkpt lat="44.0120387" lon="12.1368505"><ele>292.0</ele><time>2026-04-26T08:06:21.021Z</time></trkpt><trkpt lat="44.0120763" lon="12.136691"><ele>292.0</ele><time>2026-04-26T08:06:22.011Z</time></trkpt><trkpt lat="44.0120871" lon="12.1365668"><ele>292.0</ele><time>2026-04-26T08:06:23.02Z</time></trkpt><trkpt lat="44.0120855" lon="12.1364492"><ele>292.0</ele><time>2026-04-26T08:06:24.019Z</time></trkpt><trkpt lat="44.0120515" lon="12.1363268"><ele>292.0</ele><time>2026-04-26T08:06:25.02Z</time></trkpt><trkpt lat="44.0119997" lon="12.1362058"><ele>291.75</ele><time>2026-04-26T08:06:26.005Z</time></trkpt><trkpt lat="44.0119279" lon="12.1360959"><ele>291.5</ele><time>2026-04-26T08:06:27.013Z</time></trkpt><trkpt lat="44.0118377" lon="12.1359827"><ele>291.25</ele><time>2026-04-26T08:06:28.012Z</time></trkpt><trkpt lat="44.0117355" lon="12.135862"><ele>291.0</ele><time>2026-04-26T08:06:29.012Z</time></trkpt><trkpt lat="44.0116214" lon="12.1357311"><ele>289.0</ele><time>2026-04-26T08:06:30.018Z</time></trkpt><trkpt lat="44.0114938" lon="12.1356111"><ele>287.0</ele><time>2026-04-26T08:06:31.013Z</time></trkpt><trkpt lat="44.0113577" lon="12.1354828"><ele>285.0</ele><time>2026-04-26T08:06:32.014Z</time></trkpt><trkpt lat="44.0112052" lon="12.1353406"><ele>285.0</ele><time>2026-04-26T08:06:33.013Z</time></trkpt><trkpt lat="44.0110495" lon="12.1351959"><ele>285.0</ele><time>2026-04-26T08:06:34.013Z</time></trkpt><trkpt lat="44.0108944" lon="12.1350568"><ele>285.0</ele><time>2026-04-26T08:06:35.031Z</time></trkpt><trkpt lat="44.0107457" lon="12.1349317"><ele>285.5</ele><time>2026-04-26T08:06:36.019Z</time></trkpt><trkpt lat="44.0106091" lon="12.1348188"><ele>286.0</ele><time>2026-04-26T08:06:37.011Z</time></trkpt><trkpt lat="44.0104833" lon="12.1347235"><ele>286.5</ele><time>2026-04-26T08:06:38.017Z</time></trkpt><trkpt lat="44.0103577" lon="12.1346399"><ele>287.0</ele><time>2026-04-26T08:06:39.025Z</time></trkpt><trkpt lat="44.0102294" lon="12.1345622"><ele>287.0</ele><time>2026-04-26T08:06:40.024Z</time></trkpt><trkpt lat="44.0100915" lon="12.1345092"><ele>287.0</ele><time>2026-04-26T08:06:40.999Z</time></trkpt><trkpt lat="44.0099569" lon="12.1344717"><ele>287.0</ele><time>2026-04-26T08:06:42.014Z</time></trkpt><trkpt lat="44.0098342" lon="12.1344334"><ele>287.0</ele><time>2026-04-26T08:06:43.006Z</time></trkpt><trkpt lat="44.0097123" lon="12.1343967"><ele>286.25</ele><time>2026-04-26T08:06:44.007Z</time></trkpt><trkpt lat="44.0095899" lon="12.1343549"><ele>285.5</ele><time>2026-04-26T08:06:45.021Z</time></trkpt><trkpt lat="44.0094607" lon="12.1343041"><ele>284.75</ele><time>2026-04-26T08:06:46.015Z</time></trkpt><trkpt lat="44.0093277" lon="12.1342495"><ele>284.0</ele><time>2026-04-26T08:06:47.017Z</time></trkpt><trkpt lat="44.0091839" lon="12.1341894"><ele>284.5</ele><time>2026-04-26T08:06:48.013Z</time></trkpt><trkpt lat="44.0090391" lon="12.1341249"><ele>285.0</ele><time>2026-04-26T08:06:49.017Z</time></trkpt><trkpt lat="44.0089029" lon="12.1340515"><ele>285.5</ele><time>2026-04-26T08:06:50.028Z</time></trkpt><trkpt lat="44.0087687" lon="12.1339781"><ele>286.0</ele><time>2026-04-26T08:06:51.007Z</time></trkpt><trkpt lat="44.008627" lon="12.133909"><ele>286.0</ele><time>2026-04-26T08:06:52.016Z</time></trkpt><trkpt lat="44.0084714" lon="12.1338448"><ele>286.0</ele><time>2026-04-26T08:06:53.011Z</time></trkpt><trkpt lat="44.0083112" lon="12.1337848"><ele>286.0</ele><time>2026-04-26T08:06:54.017Z</time></trkpt><trkpt lat="44.0081536" lon="12.1337326"><ele>283.66666666666663</ele><time>2026-04-26T08:06:55.014Z</time></trkpt><trkpt lat="44.0079944" lon="12.1336764"><ele>281.3333333333333</ele><time>2026-04-26T08:06:56.026Z</time></trkpt><trkpt lat="44.0078279" lon="12.1336321"><ele>279.0</ele><time>2026-04-26T08:06:57.012Z</time></trkpt><trkpt lat="44.0076567" lon="12.133598"><ele>277.3333333333333</ele><time>2026-04-26T08:06:58.022Z</time></trkpt><trkpt lat="44.0074908" lon="12.1335643"><ele>275.66666666666663</ele><time>2026-04-26T08:06:59.015Z</time></trkpt><trkpt lat="44.0073314" lon="12.1335235"><ele>274.0</ele><time>2026-04-26T08:07:00.006Z</time></trkpt><trkpt lat="44.0071781" lon="12.1334741"><ele>274.0</ele><time>2026-04-26T08:07:01.015Z</time></trkpt><trkpt lat="44.0070248" lon="12.1334208"><ele>274.0</ele><time>2026-04-26T08:07:02.014Z</time></trkpt><trkpt lat="44.006873" lon="12.1333769"><ele>274.0</ele><time>2026-04-26T08:07:03.015Z</time></trkpt><trkpt lat="44.0067304" lon="12.1333363"><ele>272.0</ele><time>2026-04-26T08:07:04.009Z</time></trkpt><trkpt lat="44.0066087" lon="12.133308"><ele>270.0</ele><time>2026-04-26T08:07:05.011Z</time></trkpt><trkpt lat="44.0064879" lon="12.1332808"><ele>268.0</ele><time>2026-04-26T08:07:06.016Z</time></trkpt><trkpt lat="44.0063673" lon="12.1332777"><ele>266.0</ele><time>2026-04-26T08:07:07.009Z</time></trkpt><trkpt lat="44.0062472" lon="12.1332928"><ele>266.0</ele><time>2026-04-26T08:07:08.017Z</time></trkpt><trkpt lat="44.0061222" lon="12.1333306"><ele>266.0</ele><time>2026-04-26T08:07:09.006Z</time></trkpt><trkpt lat="44.0059945" lon="12.1333958"><ele>266.0</ele><time>2026-04-26T08:07:10.01Z</time></trkpt><trkpt lat="44.0058508" lon="12.1334735"><ele>266.0</ele><time>2026-04-26T08:07:11.014Z</time></trkpt><trkpt lat="44.0057024" lon="12.1335632"><ele>265.6666666666667</ele><time>2026-04-26T08:07:12.021Z</time></trkpt><trkpt lat="44.0055517" lon="12.1336642"><ele>265.3333333333333</ele><time>2026-04-26T08:07:13.011Z</time></trkpt><trkpt lat="44.0054025" lon="12.133763"><ele>265.0</ele><time>2026-04-26T08:07:14.03Z</time></trkpt><trkpt lat="44.0052461" lon="12.1338569"><ele>265.0</ele><time>2026-04-26T08:07:15.016Z</time></trkpt><trkpt lat="44.0050766" lon="12.1339511"><ele>265.0</ele><time>2026-04-26T08:07:16.018Z</time></trkpt><trkpt lat="44.0048953" lon="12.1340547"><ele>265.0</ele><time>2026-04-26T08:07:17.014Z</time></trkpt><trkpt lat="44.0047192" lon="12.1341537"><ele>268.0</ele><time>2026-04-26T08:07:18.029Z</time></trkpt><trkpt lat="44.004547" lon="12.1342476"><ele>271.0</ele><time>2026-04-26T08:07:19.011Z</time></trkpt><trkpt lat="44.004398" lon="12.1343402"><ele>274.0</ele><time>2026-04-26T08:07:20.01Z</time></trkpt><trkpt lat="44.0042662" lon="12.134415"><ele>273.25</ele><time>2026-04-26T08:07:21.009Z</time></trkpt><trkpt lat="44.0041385" lon="12.1344821"><ele>272.5</ele><time>2026-04-26T08:07:22.021Z</time></trkpt><trkpt lat="44.0040172" lon="12.1345343"><ele>271.75</ele><time>2026-04-26T08:07:23.013Z</time></trkpt><trkpt lat="44.0038849" lon="12.1345878"><ele>271.0</ele><time>2026-04-26T08:07:24.005Z</time></trkpt><trkpt lat="44.0037538" lon="12.1346321"><ele>271.0</ele><time>2026-04-26T08:07:25.006Z</time></trkpt><trkpt lat="44.00364" lon="12.1346727"><ele>271.0</ele><time>2026-04-26T08:07:26.019Z</time></trkpt><trkpt lat="44.0035506" lon="12.1347283"><ele>271.0</ele><time>2026-04-26T08:07:27.021Z</time></trkpt><trkpt lat="44.0034682" lon="12.1348054"><ele>271.0</ele><time>2026-04-26T08:07:28.017Z</time></trkpt><trkpt lat="44.0033923" lon="12.1348887"><ele>271.0</ele><time>2026-04-26T08:07:29.017Z</time></trkpt><trkpt lat="44.00332" lon="12.1349955"><ele>271.75</ele><time>2026-04-26T08:07:30.013Z</time></trkpt><trkpt lat="44.0032351" lon="12.1351338"><ele>272.5</ele><time>2026-04-26T08:07:31.011Z</time></trkpt><trkpt lat="44.0031502" lon="12.1352852"><ele>273.25</ele><time>2026-04-26T08:07:32.013Z</time></trkpt><trkpt lat="44.0030534" lon="12.1354487"><ele>274.0</ele><time>2026-04-26T08:07:33.008Z</time></trkpt><trkpt lat="44.0029547" lon="12.1356214"><ele>276.66666666666663</ele><time>2026-04-26T08:07:34.022Z</time></trkpt><trkpt lat="44.0028497" lon="12.1357974"><ele>279.3333333333333</ele><time>2026-04-26T08:07:35.007Z</time></trkpt><trkpt lat="44.0027417" lon="12.1359812"><ele>282.0</ele><time>2026-04-26T08:07:36.016Z</time></trkpt><trkpt lat="44.0026382" lon="12.1361734"><ele>282.0</ele><time>2026-04-26T08:07:37.008Z</time></trkpt><trkpt lat="44.0025348" lon="12.1363464"><ele>282.0</ele><time>2026-04-26T08:07:38.009Z</time></trkpt><trkpt lat="44.0024462" lon="12.1364977"><ele>282.0</ele><time>2026-04-26T08:07:39.007Z</time></trkpt><trkpt lat="44.0023682" lon="12.1366068"><ele>282.0</ele><time>2026-04-26T08:07:40.021Z</time></trkpt><trkpt lat="44.0022834" lon="12.1366989"><ele>283.75</ele><time>2026-04-26T08:07:41.011Z</time></trkpt><trkpt lat="44.002173" lon="12.1367962"><ele>285.5</ele><time>2026-04-26T08:07:42.017Z</time></trkpt><trkpt lat="44.0020571" lon="12.136901"><ele>287.25</ele><time>2026-04-26T08:07:43.013Z</time></trkpt><trkpt lat="44.0019307" lon="12.1370116"><ele>289.0</ele><time>2026-04-26T08:07:44.011Z</time></trkpt><trkpt lat="44.0018101" lon="12.1371113"><ele>289.0</ele><time>2026-04-26T08:07:45.009Z</time></trkpt><trkpt lat="44.0017013" lon="12.1372032"><ele>289.0</ele><time>2026-04-26T08:07:46.014Z</time></trkpt><trkpt lat="44.0015927" lon="12.137274"><ele>289.0</ele><time>2026-04-26T08:07:47.022Z</time></trkpt><trkpt lat="44.0014865" lon="12.1373264"><ele>289.0</ele><time>2026-04-26T08:07:48.012Z</time></trkpt><trkpt lat="44.0013745" lon="12.1373641"><ele>288.0</ele><time>2026-04-26T08:07:49.001Z</time></trkpt><trkpt lat="44.0012439" lon="12.1374115"><ele>287.0</ele><time>2026-04-26T08:07:50.017Z</time></trkpt><trkpt lat="44.0010939" lon="12.1374703"><ele>286.0</ele><time>2026-04-26T08:07:51.005Z</time></trkpt><trkpt lat="44.0009579" lon="12.1375234"><ele>285.0</ele><time>2026-04-26T08:07:52.012Z</time></trkpt><trkpt lat="44.0008229" lon="12.137567"><ele>285.0</ele><time>2026-04-26T08:07:53.025Z</time></trkpt><trkpt lat="44.0006874" lon="12.137616"><ele>285.0</ele><time>2026-04-26T08:07:54.019Z</time></trkpt><trkpt lat="44.0005634" lon="12.1376707"><ele>285.0</ele><time>2026-04-26T08:07:55.019Z</time></trkpt><trkpt lat="44.0004431" lon="12.1377278"><ele>285.0</ele><time>2026-04-26T08:07:56.009Z</time></trkpt><trkpt lat="44.0003411" lon="12.1378138"><ele>285.0</ele><time>2026-04-26T08:07:57.006Z</time></trkpt><trkpt lat="44.0002476" lon="12.1379212"><ele>285.0</ele><time>2026-04-26T08:07:58.008Z</time></trkpt><trkpt lat="44.0001539" lon="12.138061"><ele>285.0</ele><time>2026-04-26T08:07:59.005Z</time></trkpt><trkpt lat="44.0000651" lon="12.1382047"><ele>285.0</ele><time>2026-04-26T08:08:00.01Z</time></trkpt><trkpt lat="43.9999905" lon="12.1383413"><ele>284.2</ele><time>2026-04-26T08:08:01.005Z</time></trkpt><trkpt lat="43.9999176" lon="12.1384517"><ele>283.4</ele><time>2026-04-26T08:08:02.011Z</time></trkpt><trkpt lat="43.9998376" lon="12.138533"><ele>282.6</ele><time>2026-04-26T08:08:03.009Z</time></trkpt><trkpt lat="43.9997429" lon="12.1385981"><ele>281.8</ele><time>2026-04-26T08:08:04.018Z</time></trkpt><trkpt lat="43.9996334" lon="12.1386482"><ele>281.0</ele><time>2026-04-26T08:08:05.015Z</time></trkpt><trkpt lat="43.9994982" lon="12.138717"><ele>281.0</ele><time>2026-04-26T08:08:06.011Z</time></trkpt><trkpt lat="43.9993702" lon="12.1387711"><ele>281.0</ele><time>2026-04-26T08:08:07.018Z</time></trkpt><trkpt lat="43.999256" lon="12.138825"><ele>281.0</ele><time>2026-04-26T08:08:08.008Z</time></trkpt><trkpt lat="43.9991519" lon="12.1389047"><ele>281.0</ele><time>2026-04-26T08:08:09.002Z</time></trkpt><trkpt lat="43.9990581" lon="12.1390061"><ele>280.33333333333337</ele><time>2026-04-26T08:08:10.006Z</time></trkpt><trkpt lat="43.9989584" lon="12.1391478"><ele>279.6666666666667</ele><time>2026-04-26T08:08:11.01Z</time></trkpt><trkpt lat="43.9988533" lon="12.1393048"><ele>279.0</ele><time>2026-04-26T08:08:12.011Z</time></trkpt><trkpt lat="43.9987489" lon="12.1394598"><ele>279.0</ele><time>2026-04-26T08:08:13.014Z</time></trkpt><trkpt lat="43.9986577" lon="12.1395853"><ele>279.0</ele><time>2026-04-26T08:08:14.018Z</time></trkpt><trkpt lat="43.9985649" lon="12.1396742"><ele>279.0</ele><time>2026-04-26T08:08:15Z</time></trkpt><trkpt lat="43.9984962" lon="12.1397342"><ele>279.0</ele><time>2026-04-26T08:08:16.011Z</time></trkpt><trkpt lat="43.9984327" lon="12.1397696"><ele>279.0</ele><time>2026-04-26T08:08:17.005Z</time></trkpt><trkpt lat="43.9983698" lon="12.1397807"><ele>279.59999999999997</ele><time>2026-04-26T08:08:18.025Z</time></trkpt><trkpt lat="43.998263" lon="12.1397577"><ele>280.2</ele><time>2026-04-26T08:08:20.009Z</time></trkpt><trkpt lat="43.9981345" lon="12.1397122"><ele>280.79999999999995</ele><time>2026-04-26T08:08:22.016Z</time></trkpt><trkpt lat="43.998066" lon="12.1396814"><ele>281.4</ele><time>2026-04-26T08:08:23.005Z</time></trkpt><trkpt lat="43.9979928" lon="12.1396569"><ele>282.0</ele><time>2026-04-26T08:08:24.005Z</time></trkpt><trkpt lat="43.997917" lon="12.1396322"><ele>282.0</ele><time>2026-04-26T08:08:25.012Z</time></trkpt><trkpt lat="43.9978328" lon="12.1396022"><ele>282.0</ele><time>2026-04-26T08:08:26.005Z</time></trkpt><trkpt lat="43.9977433" lon="12.1395686"><ele>282.0</ele><time>2026-04-26T08:08:27.012Z</time></trkpt><trkpt lat="43.9976456" lon="12.1395348"><ele>282.0</ele><time>2026-04-26T08:08:28.008Z</time></trkpt><trkpt lat="43.9975502" lon="12.1394695"><ele>282.0</ele><time>2026-04-26T08:08:29.005Z</time></trkpt><trkpt lat="43.9974632" lon="12.1393821"><ele>284.75</ele><time>2026-04-26T08:08:30.007Z</time></trkpt><trkpt lat="43.9973709" lon="12.1392825"><ele>287.5</ele><time>2026-04-26T08:08:31.007Z</time></trkpt><trkpt lat="43.9972777" lon="12.1391746"><ele>290.25</ele><time>2026-04-26T08:08:32.012Z</time></trkpt><trkpt lat="43.9971818" lon="12.1390624"><ele>293.0</ele><time>2026-04-26T08:08:33.008Z</time></trkpt><trkpt lat="43.9970864" lon="12.1389437"><ele>293.0</ele><time>2026-04-26T08:08:34.022Z</time></trkpt><trkpt lat="43.9969928" lon="12.1388192"><ele>293.0</ele><time>2026-04-26T08:08:35.002Z</time></trkpt><trkpt lat="43.9969053" lon="12.1387154"><ele>293.0</ele><time>2026-04-26T08:08:36.012Z</time></trkpt><trkpt lat="43.9968144" lon="12.1386307"><ele>293.0</ele><time>2026-04-26T08:08:37.001Z</time></trkpt><trkpt lat="43.9967215" lon="12.138548"><ele>295.1666666666667</ele><time>2026-04-26T08:08:38.009Z</time></trkpt><trkpt lat="43.9966292" lon="12.1384744"><ele>297.33333333333337</ele><time>2026-04-26T08:08:39.006Z</time></trkpt><trkpt lat="43.9965514" lon="12.1384166"><ele>299.5</ele><time>2026-04-26T08:08:40.019Z</time></trkpt><trkpt lat="43.9964742" lon="12.1383832"><ele>301.6666666666667</ele><time>2026-04-26T08:08:41.003Z</time></trkpt><trkpt lat="43.9964009" lon="12.1383737"><ele>303.8333333333333</ele><time>2026-04-26T08:08:42.015Z</time></trkpt><trkpt lat="43.9963176" lon="12.1383836"><ele>306.0</ele><time>2026-04-26T08:08:43.008Z</time></trkpt><trkpt lat="43.9962306" lon="12.1384046"><ele>306.0</ele><time>2026-04-26T08:08:44.012Z</time></trkpt><trkpt lat="43.9961394" lon="12.1384467"><ele>306.0</ele><time>2026-04-26T08:08:45.011Z</time></trkpt><trkpt lat="43.9960416" lon="12.1384989"><ele>306.0</ele><time>2026-04-26T08:08:46.025Z</time></trkpt><trkpt lat="43.9959359" lon="12.1385614"><ele>306.0</ele><time>2026-04-26T08:08:46.993Z</time></trkpt><trkpt lat="43.9958265" lon="12.1386241"><ele>306.0</ele><time>2026-04-26T08:08:48.014Z</time></trkpt><trkpt lat="43.9957182" lon="12.1386884"><ele>308.0</ele><time>2026-04-26T08:08:49.028Z</time></trkpt><trkpt lat="43.9956046" lon="12.1387551"><ele>310.0</ele><time>2026-04-26T08:08:50.018Z</time></trkpt><trkpt lat="43.9955003" lon="12.1388187"><ele>312.0</ele><time>2026-04-26T08:08:51.023Z</time></trkpt><trkpt lat="43.9954097" lon="12.1388859"><ele>314.0</ele><time>2026-04-26T08:08:52.019Z</time></trkpt><trkpt lat="43.9953231" lon="12.1389489"><ele>316.0</ele><time>2026-04-26T08:08:53.017Z</time></trkpt><trkpt lat="43.9952305" lon="12.1390167"><ele>315.6</ele><time>2026-04-26T08:08:54.012Z</time></trkpt><trkpt lat="43.9951347" lon="12.1390948"><ele>315.20000000000005</ele><time>2026-04-26T08:08:55.016Z</time></trkpt><trkpt lat="43.9950408" lon="12.1391749"><ele>314.79999999999995</ele><time>2026-04-26T08:08:56.017Z</time></trkpt><trkpt lat="43.9949469" lon="12.1392499"><ele>314.4</ele><time>2026-04-26T08:08:57.015Z</time></trkpt><trkpt lat="43.9948509" lon="12.1393085"><ele>314.0</ele><time>2026-04-26T08:08:58.011Z</time></trkpt><trkpt lat="43.9947479" lon="12.1393675"><ele>315.5</ele><time>2026-04-26T08:08:59.003Z</time></trkpt><trkpt lat="43.9946451" lon="12.139432"><ele>317.0</ele><time>2026-04-26T08:09:00.02Z</time></trkpt><trkpt lat="43.9945442" lon="12.1394847"><ele>318.5</ele><time>2026-04-26T08:09:01.006Z</time></trkpt><trkpt lat="43.9944341" lon="12.1395238"><ele>320.0</ele><time>2026-04-26T08:09:02.011Z</time></trkpt><trkpt lat="43.9943132" lon="12.1395499"><ele>320.0</ele><time>2026-04-26T08:09:03.018Z</time></trkpt><trkpt lat="43.994192" lon="12.1395787"><ele>320.0</ele><time>2026-04-26T08:09:04.011Z</time></trkpt><trkpt lat="43.9940677" lon="12.1396073"><ele>320.0</ele><time>2026-04-26T08:09:05.023Z</time></trkpt><trkpt lat="43.993956" lon="12.1396496"><ele>320.0</ele><time>2026-04-26T08:09:06.017Z</time></trkpt><trkpt lat="43.9938569" lon="12.1396803"><ele>319.33333333333337</ele><time>2026-04-26T08:09:07.033Z</time></trkpt><trkpt lat="43.9937726" lon="12.1397091"><ele>318.6666666666667</ele><time>2026-04-26T08:09:08.013Z</time></trkpt><trkpt lat="43.9936867" lon="12.1397427"><ele>318.0</ele><time>2026-04-26T08:09:09.012Z</time></trkpt><trkpt lat="43.9936051" lon="12.1397656"><ele>317.3333333333333</ele><time>2026-04-26T08:09:10.013Z</time></trkpt><trkpt lat="43.9935166" lon="12.1397775"><ele>316.66666666666663</ele><time>2026-04-26T08:09:11.016Z</time></trkpt><trkpt lat="43.9934311" lon="12.1397737"><ele>316.0</ele><time>2026-04-26T08:09:12.012Z</time></trkpt><trkpt lat="43.9933592" lon="12.1397632"><ele>317.16666666666663</ele><time>2026-04-26T08:09:13.019Z</time></trkpt><trkpt lat="43.9932434" lon="12.1397198"><ele>318.3333333333333</ele><time>2026-04-26T08:09:15.006Z</time></trkpt><trkpt lat="43.9931866" lon="12.1396763"><ele>319.5</ele><time>2026-04-26T08:09:16.012Z</time></trkpt><trkpt lat="43.9931283" lon="12.1396206"><ele>320.6666666666667</ele><time>2026-04-26T08:09:17.007Z</time></trkpt><trkpt lat="43.9930624" lon="12.1395546"><ele>321.83333333333337</ele><time>2026-04-26T08:09:18.01Z</time></trkpt><trkpt lat="43.9929953" lon="12.1394825"><ele>323.0</ele><time>2026-04-26T08:09:19.013Z</time></trkpt><trkpt lat="43.9929364" lon="12.1394162"><ele>323.0</ele><time>2026-04-26T08:09:20.009Z</time></trkpt><trkpt lat="43.9928897" lon="12.1392758"><ele>323.0</ele><time>2026-04-26T08:09:22.007Z</time></trkpt><trkpt lat="43.9928544" lon="12.139171"><ele>323.0</ele><time>2026-04-26T08:09:24.014Z</time></trkpt><trkpt lat="43.9927653" lon="12.1391496"><ele>323.0</ele><time>2026-04-26T08:09:26.022Z</time></trkpt><trkpt lat="43.992683" lon="12.1392112"><ele>323.0</ele><time>2026-04-26T08:09:28.014Z</time></trkpt><trkpt lat="43.9925546" lon="12.139268"><ele>323.1666666666667</ele><time>2026-04-26T08:09:30.008Z</time></trkpt><trkpt lat="43.9924791" lon="12.1392719"><ele>323.33333333333337</ele><time>2026-04-26T08:09:31.011Z</time></trkpt><trkpt lat="43.9924056" lon="12.1392692"><ele>323.5</ele><time>2026-04-26T08:09:32.03Z</time></trkpt><trkpt lat="43.9922909" lon="12.1392639"><ele>323.6666666666667</ele><time>2026-04-26T08:09:34.012Z</time></trkpt><trkpt lat="43.9922196" lon="12.1392529"><ele>323.8333333333333</ele><time>2026-04-26T08:09:35.018Z</time></trkpt><trkpt lat="43.9921388" lon="12.1392444"><ele>324.0</ele><time>2026-04-26T08:09:36.007Z</time></trkpt><trkpt lat="43.9920439" lon="12.1392277"><ele>324.0</ele><time>2026-04-26T08:09:37.007Z</time></trkpt><trkpt lat="43.9919371" lon="12.1392185"><ele>324.0</ele><time>2026-04-26T08:09:38.013Z</time></trkpt><trkpt lat="43.9918456" lon="12.1392111"><ele>324.0</ele><time>2026-04-26T08:09:39.018Z</time></trkpt><trkpt lat="43.9917697" lon="12.139211"><ele>324.0</ele><time>2026-04-26T08:09:40.016Z</time></trkpt><trkpt lat="43.9917083" lon="12.139188"><ele>324.0</ele><time>2026-04-26T08:09:41.004Z</time></trkpt><trkpt lat="43.9916315" lon="12.1391339"><ele>324.0</ele><time>2026-04-26T08:09:42.018Z</time></trkpt><trkpt lat="43.991537" lon="12.1390676"><ele>326.3333333333333</ele><time>2026-04-26T08:09:43.005Z</time></trkpt><trkpt lat="43.9914534" lon="12.1390058"><ele>328.6666666666667</ele><time>2026-04-26T08:09:44.012Z</time></trkpt><trkpt lat="43.9913839" lon="12.1389712"><ele>331.0</ele><time>2026-04-26T08:09:45.012Z</time></trkpt><trkpt lat="43.9912981" lon="12.1389648"><ele>333.33333333333337</ele><time>2026-04-26T08:09:46.025Z</time></trkpt><trkpt lat="43.9912118" lon="12.1389525"><ele>335.6666666666667</ele><time>2026-04-26T08:09:47.024Z</time></trkpt><trkpt lat="43.9911226" lon="12.1389434"><ele>338.0</ele><time>2026-04-26T08:09:48.014Z</time></trkpt><trkpt lat="43.9910324" lon="12.1389299"><ele>338.0</ele><time>2026-04-26T08:09:49.011Z</time></trkpt><trkpt lat="43.9909454" lon="12.1389086"><ele>338.0</ele><time>2026-04-26T08:09:50.014Z</time></trkpt><trkpt lat="43.990859" lon="12.1388753"><ele>338.0</ele><time>2026-04-26T08:09:51.01Z</time></trkpt><trkpt lat="43.9907797" lon="12.1388287"><ele>338.0</ele><time>2026-04-26T08:09:52.009Z</time></trkpt><trkpt lat="43.9907173" lon="12.1387784"><ele>338.0</ele><time>2026-04-26T08:09:53.011Z</time></trkpt><trkpt lat="43.9906647" lon="12.1387159"><ele>338.0</ele><time>2026-04-26T08:09:54.02Z</time></trkpt><trkpt lat="43.9906203" lon="12.1386354"><ele>338.33333333333337</ele><time>2026-04-26T08:09:55.004Z</time></trkpt><trkpt lat="43.990576" lon="12.1385359"><ele>338.6666666666667</ele><time>2026-04-26T08:09:56.01Z</time></trkpt><trkpt lat="43.9905493" lon="12.1384345"><ele>339.0</ele><time>2026-04-26T08:09:57.005Z</time></trkpt><trkpt lat="43.9905329" lon="12.1383473"><ele>339.3333333333333</ele><time>2026-04-26T08:09:58.009Z</time></trkpt><trkpt lat="43.9905309" lon="12.1382594"><ele>339.66666666666663</ele><time>2026-04-26T08:09:59.006Z</time></trkpt><trkpt lat="43.9905197" lon="12.1381099"><ele>340.0</ele><time>2026-04-26T08:10:01.008Z</time></trkpt><trkpt lat="43.9904529" lon="12.1380036"><ele>340.0</ele><time>2026-04-26T08:10:03.017Z</time></trkpt><trkpt lat="43.990376" lon="12.1379674"><ele>340.0</ele><time>2026-04-26T08:10:05.024Z</time></trkpt><trkpt lat="43.9902762" lon="12.1380109"><ele>340.0</ele><time>2026-04-26T08:10:07.018Z</time></trkpt><trkpt lat="43.9901996" lon="12.1381172"><ele>340.0</ele><time>2026-04-26T08:10:09.005Z</time></trkpt><trkpt lat="43.9901331" lon="12.1382301"><ele>340.0</ele><time>2026-04-26T08:10:11.015Z</time></trkpt><trkpt lat="43.9900357" lon="12.1383252"><ele>342.7142857142857</ele><time>2026-04-26T08:10:13.02Z</time></trkpt><trkpt lat="43.989973" lon="12.1383667"><ele>345.4285714285714</ele><time>2026-04-26T08:10:14.011Z</time></trkpt><trkpt lat="43.9899131" lon="12.138405"><ele>348.1428571428571</ele><time>2026-04-26T08:10:15.017Z</time></trkpt><trkpt lat="43.9898528" lon="12.1384394"><ele>350.8571428571429</ele><time>2026-04-26T08:10:16.007Z</time></trkpt><trkpt lat="43.9897891" lon="12.1384489"><ele>353.57142857142856</ele><time>2026-04-26T08:10:17.005Z</time></trkpt><trkpt lat="43.9897221" lon="12.138447"><ele>356.2857142857143</ele><time>2026-04-26T08:10:18.012Z</time></trkpt><trkpt lat="43.9896079" lon="12.138424"><ele>359.0</ele><time>2026-04-26T08:10:20.018Z</time></trkpt><trkpt lat="43.9895412" lon="12.1384276"><ele>359.0</ele><time>2026-04-26T08:10:21.01Z</time></trkpt><trkpt lat="43.9894674" lon="12.1384376"><ele>359.0</ele><time>2026-04-26T08:10:22.021Z</time></trkpt><trkpt lat="43.9893941" lon="12.1384226"><ele>359.0</ele><time>2026-04-26T08:10:23.009Z</time></trkpt><trkpt lat="43.9893247" lon="12.1384074"><ele>359.0</ele><time>2026-04-26T08:10:24.018Z</time></trkpt><trkpt lat="43.9892598" lon="12.138393"><ele>359.0</ele><time>2026-04-26T08:10:25.012Z</time></trkpt><trkpt lat="43.9891422" lon="12.1383489"><ele>359.0</ele><time>2026-04-26T08:10:27.015Z</time></trkpt><trkpt lat="43.9890847" lon="12.1383069"><ele>360.0</ele><time>2026-04-26T08:10:28.029Z</time></trkpt><trkpt lat="43.9889792" lon="12.1381792"><ele>361.0</ele><time>2026-04-26T08:10:30.021Z</time></trkpt><trkpt lat="43.9889175" lon="12.1380878"><ele>362.0</ele><time>2026-04-26T08:10:31.011Z</time></trkpt><trkpt lat="43.988857" lon="12.1380229"><ele>363.0</ele><time>2026-04-26T08:10:32.01Z</time></trkpt><trkpt lat="43.9887985" lon="12.1379736"><ele>364.0</ele><time>2026-04-26T08:10:33.008Z</time></trkpt><trkpt lat="43.9887365" lon="12.1379452"><ele>365.0</ele><time>2026-04-26T08:10:34.015Z</time></trkpt><trkpt lat="43.9886666" lon="12.1379367"><ele>365.0</ele><time>2026-04-26T08:10:35.017Z</time></trkpt><trkpt lat="43.9885931" lon="12.1379393"><ele>365.0</ele><time>2026-04-26T08:10:36.022Z</time></trkpt><trkpt lat="43.988508" lon="12.1379466"><ele>365.0</ele><time>2026-04-26T08:10:37.01Z</time></trkpt><trkpt lat="43.988422" lon="12.1379409"><ele>365.0</ele><time>2026-04-26T08:10:38.014Z</time></trkpt><trkpt lat="43.9883424" lon="12.1379072"><ele>365.0</ele><time>2026-04-26T08:10:39.014Z</time></trkpt><trkpt lat="43.9882592" lon="12.137862"><ele>365.0</ele><time>2026-04-26T08:10:40.013Z</time></trkpt><trkpt lat="43.9881783" lon="12.137802"><ele>367.0</ele><time>2026-04-26T08:10:41.018Z</time></trkpt><trkpt lat="43.9881115" lon="12.1377458"><ele>369.0</ele><time>2026-04-26T08:10:42.01Z</time></trkpt><trkpt lat="43.9880496" lon="12.1377112"><ele>371.0</ele><time>2026-04-26T08:10:43.002Z</time></trkpt><trkpt lat="43.9879269" lon="12.1377067"><ele>373.0</ele><time>2026-04-26T08:10:45.013Z</time></trkpt><trkpt lat="43.9878588" lon="12.1377451"><ele>375.0</ele><time>2026-04-26T08:10:46.006Z</time></trkpt><trkpt lat="43.9877888" lon="12.1377977"><ele>377.0</ele><time>2026-04-26T08:10:47.021Z</time></trkpt><trkpt lat="43.987727" lon="12.1378647"><ele>377.0</ele><time>2026-04-26T08:10:48.022Z</time></trkpt><trkpt lat="43.9876327" lon="12.1378991"><ele>377.0</ele><time>2026-04-26T08:10:49.016Z</time></trkpt><trkpt lat="43.9875426" lon="12.1379342"><ele>377.0</ele><time>2026-04-26T08:10:50.021Z</time></trkpt><trkpt lat="43.9874583" lon="12.1379738"><ele>377.0</ele><time>2026-04-26T08:10:51.005Z</time></trkpt><trkpt lat="43.9873784" lon="12.1380246"><ele>377.0</ele><time>2026-04-26T08:10:52.018Z</time></trkpt><trkpt lat="43.9872987" lon="12.1380898"><ele>379.20000000000005</ele><time>2026-04-26T08:10:53.005Z</time></trkpt><trkpt lat="43.9872176" lon="12.1381771"><ele>381.4</ele><time>2026-04-26T08:10:54.014Z</time></trkpt><trkpt lat="43.9871348" lon="12.1382798"><ele>383.6</ele><time>2026-04-26T08:10:55.011Z</time></trkpt><trkpt lat="43.9870459" lon="12.1383838"><ele>385.79999999999995</ele><time>2026-04-26T08:10:56.01Z</time></trkpt><trkpt lat="43.9869628" lon="12.13849"><ele>388.0</ele><time>2026-04-26T08:10:57.006Z</time></trkpt><trkpt lat="43.9868845" lon="12.1386092"><ele>390.0</ele><time>2026-04-26T08:10:58.021Z</time></trkpt><trkpt lat="43.9868177" lon="12.1387321"><ele>392.0</ele><time>2026-04-26T08:10:59.008Z</time></trkpt><trkpt lat="43.9867354" lon="12.1388251"><ele>394.0</ele><time>2026-04-26T08:11:00.022Z</time></trkpt><trkpt lat="43.9866486" lon="12.138907"><ele>396.0</ele><time>2026-04-26T08:11:01.006Z</time></trkpt><trkpt lat="43.9865652" lon="12.1389794"><ele>398.0</ele><time>2026-04-26T08:11:02.015Z</time></trkpt><trkpt lat="43.9864936" lon="12.1390565"><ele>401.79999999999995</ele><time>2026-04-26T08:11:03.013Z</time></trkpt><trkpt lat="43.986417" lon="12.1391318"><ele>405.6</ele><time>2026-04-26T08:11:04.008Z</time></trkpt><trkpt lat="43.9863485" lon="12.1392141"><ele>409.4</ele><time>2026-04-26T08:11:05.015Z</time></trkpt><trkpt lat="43.9862828" lon="12.1393148"><ele>413.20000000000005</ele><time>2026-04-26T08:11:06.009Z</time></trkpt><trkpt lat="43.9862242" lon="12.1394198"><ele>417.0</ele><time>2026-04-26T08:11:06.997Z</time></trkpt><trkpt lat="43.9861539" lon="12.1395319"><ele>417.0</ele><time>2026-04-26T08:11:08.003Z</time></trkpt><trkpt lat="43.9860749" lon="12.1396592"><ele>417.0</ele><time>2026-04-26T08:11:09.003Z</time></trkpt><trkpt lat="43.9859982" lon="12.1397711"><ele>417.0</ele><time>2026-04-26T08:11:10.019Z</time></trkpt><trkpt lat="43.9859196" lon="12.1398539"><ele>417.0</ele><time>2026-04-26T08:11:10.998Z</time></trkpt><trkpt lat="43.985847" lon="12.1399313"><ele>417.0</ele><time>2026-04-26T08:11:12.008Z</time></trkpt><trkpt lat="43.9857678" lon="12.1399812"><ele>418.20000000000005</ele><time>2026-04-26T08:11:13.011Z</time></trkpt><trkpt lat="43.9856805" lon="12.1400182"><ele>419.4</ele><time>2026-04-26T08:11:14.018Z</time></trkpt><trkpt lat="43.9855831" lon="12.1400422"><ele>420.6</ele><time>2026-04-26T08:11:15.003Z</time></trkpt><trkpt lat="43.9854861" lon="12.1400611"><ele>421.79999999999995</ele><time>2026-04-26T08:11:16.011Z</time></trkpt><trkpt lat="43.9853909" lon="12.1400889"><ele>423.0</ele><time>2026-04-26T08:11:17.002Z</time></trkpt><trkpt lat="43.9852957" lon="12.1401242"><ele>423.0</ele><time>2026-04-26T08:11:18.004Z</time></trkpt><trkpt lat="43.985194" lon="12.1401659"><ele>423.0</ele><time>2026-04-26T08:11:18.997Z</time></trkpt><trkpt lat="43.9850866" lon="12.1402184"><ele>423.0</ele><time>2026-04-26T08:11:20.011Z</time></trkpt><trkpt lat="43.9849877" lon="12.1402681"><ele>423.0</ele><time>2026-04-26T08:11:21.005Z</time></trkpt><trkpt lat="43.9848969" lon="12.140303"><ele>423.0</ele><time>2026-04-26T08:11:22.003Z</time></trkpt><trkpt lat="43.9848159" lon="12.140332"><ele>427.2</ele><time>2026-04-26T08:11:23.012Z</time></trkpt><trkpt lat="43.9847455" lon="12.140372"><ele>431.4</ele><time>2026-04-26T08:11:25Z</time></trkpt><trkpt lat="43.9847628" lon="12.1404728"><ele>435.59999999999997</ele><time>2026-04-26T08:11:40.01Z</time></trkpt><trkpt lat="43.9846898" lon="12.1405594"><ele>439.79999999999995</ele><time>2026-04-26T08:11:42.014Z</time></trkpt><trkpt lat="43.9846119" lon="12.1406687"><ele>444.0</ele><time>2026-04-26T08:11:44.007Z</time></trkpt><trkpt lat="43.9845802" lon="12.1408074"><ele>444.0</ele><time>2026-04-26T08:11:46.012Z</time></trkpt><trkpt lat="43.9845701" lon="12.1408964"><ele>444.0</ele><time>2026-04-26T08:11:47.004Z</time></trkpt><trkpt lat="43.9845529" lon="12.1409987"><ele>444.0</ele><time>2026-04-26T08:11:48.015Z</time></trkpt><trkpt lat="43.9845338" lon="12.1411239"><ele>444.0</ele><time>2026-04-26T08:11:49.014Z</time></trkpt><trkpt lat="43.9845138" lon="12.1412441"><ele>444.0</ele><time>2026-04-26T08:11:50.009Z</time></trkpt><trkpt lat="43.9844975" lon="12.1413355"><ele>444.0</ele><time>2026-04-26T08:11:51.007Z</time></trkpt><trkpt lat="43.9844468" lon="12.1414236"><ele>444.0</ele><time>2026-04-26T08:11:53.015Z</time></trkpt><trkpt lat="43.9843439" lon="12.1414274"><ele>444.0</ele><time>2026-04-26T08:11:55.009Z</time></trkpt><trkpt lat="43.9842702" lon="12.1414075"><ele>444.0</ele><time>2026-04-26T08:11:56.014Z</time></trkpt><trkpt lat="43.984192" lon="12.1414216"><ele>444.0</ele><time>2026-04-26T08:11:57.008Z</time></trkpt><trkpt lat="43.984098" lon="12.141454"><ele>444.0</ele><time>2026-04-26T08:11:58.028Z</time></trkpt><trkpt lat="43.9840043" lon="12.1414885"><ele>447.5</ele><time>2026-04-26T08:11:59.003Z</time></trkpt><trkpt lat="43.9839242" lon="12.141517"><ele>451.0</ele><time>2026-04-26T08:12:00.013Z</time></trkpt><trkpt lat="43.9838526" lon="12.1415439"><ele>454.5</ele><time>2026-04-26T08:12:01.013Z</time></trkpt><trkpt lat="43.9837349" lon="12.1415917"><ele>458.0</ele><time>2026-04-26T08:12:03.011Z</time></trkpt><trkpt lat="43.9836595" lon="12.14164"><ele>461.5</ele><time>2026-04-26T08:12:05.013Z</time></trkpt><trkpt lat="43.9835789" lon="12.1416775"><ele>465.0</ele><time>2026-04-26T08:12:51.01Z</time></trkpt><trkpt lat="43.9834687" lon="12.1417829"><ele>465.0</ele><time>2026-04-26T08:12:53.009Z</time></trkpt><trkpt lat="43.9834029" lon="12.1418492"><ele>465.0</ele><time>2026-04-26T08:12:54.012Z</time></trkpt><trkpt lat="43.9833273" lon="12.141927"><ele>465.0</ele><time>2026-04-26T08:12:55.001Z</time></trkpt><trkpt lat="43.9832485" lon="12.1420031"><ele>465.0</ele><time>2026-04-26T08:12:56.008Z</time></trkpt><trkpt lat="43.9831655" lon="12.142079"><ele>465.0</ele><time>2026-04-26T08:12:57.004Z</time></trkpt><trkpt lat="43.9830744" lon="12.1421584"><ele>465.4</ele><time>2026-04-26T08:12:58.014Z</time></trkpt><trkpt lat="43.9829811" lon="12.1422491"><ele>465.8</ele><time>2026-04-26T08:12:59.002Z</time></trkpt><trkpt lat="43.9828973" lon="12.1423399"><ele>466.20000000000005</ele><time>2026-04-26T08:13:00.017Z</time></trkpt><trkpt lat="43.9828243" lon="12.142416"><ele>466.6</ele><time>2026-04-26T08:13:01.024Z</time></trkpt><trkpt lat="43.9827633" lon="12.1424821"><ele>467.0</ele><time>2026-04-26T08:13:02.018Z</time></trkpt><trkpt lat="43.9826681" lon="12.1425013"><ele>467.0</ele><time>2026-04-26T08:13:04.017Z</time></trkpt><trkpt lat="43.9825867" lon="12.1424078"><ele>467.00000000000006</ele><time>2026-04-26T08:13:06.015Z</time></trkpt><trkpt lat="43.9825338" lon="12.1423255"><ele>467.00000000000006</ele><time>2026-04-26T08:13:07.009Z</time></trkpt><trkpt lat="43.9824883" lon="12.1422355"><ele>467.0</ele><time>2026-04-26T08:13:08.008Z</time></trkpt><trkpt lat="43.9824351" lon="12.14213"><ele>467.0</ele><time>2026-04-26T08:13:09.01Z</time></trkpt><trkpt lat="43.9823766" lon="12.1420171"><ele>472.6</ele><time>2026-04-26T08:13:10.014Z</time></trkpt><trkpt lat="43.9823189" lon="12.1419115"><ele>478.20000000000005</ele><time>2026-04-26T08:13:11.012Z</time></trkpt><trkpt lat="43.982257" lon="12.1418061"><ele>483.8</ele><time>2026-04-26T08:13:12.011Z</time></trkpt><trkpt lat="43.982187" lon="12.1417034"><ele>489.4</ele><time>2026-04-26T08:13:13.007Z</time></trkpt><trkpt lat="43.9821048" lon="12.141616"><ele>495.0</ele><time>2026-04-26T08:13:14.016Z</time></trkpt><trkpt lat="43.9820231" lon="12.1415378"><ele>495.0</ele><time>2026-04-26T08:13:15.008Z</time></trkpt><trkpt lat="43.9819293" lon="12.1414588"><ele>495.0</ele><time>2026-04-26T08:13:16.003Z</time></trkpt><trkpt lat="43.9818351" lon="12.1413568"><ele>495.0</ele><time>2026-04-26T08:13:17.021Z</time></trkpt><trkpt lat="43.9817438" lon="12.1412473"><ele>495.0</ele><time>2026-04-26T08:13:18.025Z</time></trkpt><trkpt lat="43.9816553" lon="12.1411281"><ele>498.6666666666667</ele><time>2026-04-26T08:13:19.016Z</time></trkpt><trkpt lat="43.9815702" lon="12.1410367"><ele>502.33333333333337</ele><time>2026-04-26T08:13:20.023Z</time></trkpt><trkpt lat="43.981506" lon="12.1409734"><ele>506.0</ele><time>2026-04-26T08:13:21.009Z</time></trkpt><trkpt lat="43.9814385" lon="12.1409395"><ele>509.6666666666667</ele><time>2026-04-26T08:13:22.022Z</time></trkpt><trkpt lat="43.9813576" lon="12.1409138"><ele>513.3333333333334</ele><time>2026-04-26T08:13:23.01Z</time></trkpt><trkpt lat="43.9812689" lon="12.1408764"><ele>517.0</ele><time>2026-04-26T08:13:24.017Z</time></trkpt><trkpt lat="43.9811734" lon="12.140808"><ele>517.0</ele><time>2026-04-26T08:13:25.02Z</time></trkpt><trkpt lat="43.9810793" lon="12.1407258"><ele>517.0</ele><time>2026-04-26T08:13:26.02Z</time></trkpt><trkpt lat="43.9810044" lon="12.1406418"><ele>517.0</ele><time>2026-04-26T08:13:27.016Z</time></trkpt><trkpt lat="43.9809424" lon="12.1405472"><ele>517.0</ele><time>2026-04-26T08:13:28.024Z</time></trkpt><trkpt lat="43.9808785" lon="12.1404324"><ele>517.0</ele><time>2026-04-26T08:13:29.037Z</time></trkpt><trkpt lat="43.9808198" lon="12.1403216"><ele>518.6666666666667</ele><time>2026-04-26T08:13:30.019Z</time></trkpt><trkpt lat="43.9807755" lon="12.1402147"><ele>520.3333333333334</ele><time>2026-04-26T08:13:31.016Z</time></trkpt><trkpt lat="43.9807483" lon="12.1401252"><ele>522.0</ele><time>2026-04-26T08:13:31.994Z</time></trkpt><trkpt lat="43.980697" lon="12.1400662"><ele>523.6666666666666</ele><time>2026-04-26T08:13:35.009Z</time></trkpt><trkpt lat="43.9806031" lon="12.1400772"><ele>525.3333333333333</ele><time>2026-04-26T08:13:36.998Z</time></trkpt><trkpt lat="43.980537" lon="12.1400911"><ele>527.0</ele><time>2026-04-26T08:13:38.007Z</time></trkpt><trkpt lat="43.9804759" lon="12.140119"><ele>527.0</ele><time>2026-04-26T08:13:39.001Z</time></trkpt><trkpt lat="43.9804087" lon="12.1401542"><ele>527.0</ele><time>2026-04-26T08:13:40.038Z</time></trkpt><trkpt lat="43.9803349" lon="12.1401992"><ele>527.0</ele><time>2026-04-26T08:13:41.022Z</time></trkpt><trkpt lat="43.9802642" lon="12.1402439"><ele>527.0</ele><time>2026-04-26T08:13:42.008Z</time></trkpt><trkpt lat="43.980187" lon="12.1402979"><ele>527.0</ele><time>2026-04-26T08:13:43.025Z</time></trkpt><trkpt lat="43.9800965" lon="12.1403708"><ele>527.0</ele><time>2026-04-26T08:13:44.017Z</time></trkpt><trkpt lat="43.979992" lon="12.1404812"><ele>528.3333333333333</ele><time>2026-04-26T08:13:45.022Z</time></trkpt><trkpt lat="43.9798723" lon="12.1406138"><ele>529.6666666666666</ele><time>2026-04-26T08:13:46.023Z</time></trkpt><trkpt lat="43.9797375" lon="12.1407493"><ele>531.0</ele><time>2026-04-26T08:13:47.005Z</time></trkpt><trkpt lat="43.9795781" lon="12.1409003"><ele>531.0</ele><time>2026-04-26T08:13:48.014Z</time></trkpt><trkpt lat="43.9794167" lon="12.1410526"><ele>531.0</ele><time>2026-04-26T08:13:49.02Z</time></trkpt><trkpt lat="43.979285" lon="12.1411872"><ele>531.0</ele><time>2026-04-26T08:13:50.018Z</time></trkpt><trkpt lat="43.9791738" lon="12.1413099"><ele>532.0</ele><time>2026-04-26T08:13:51.013Z</time></trkpt><trkpt lat="43.9790761" lon="12.1414125"><ele>533.0</ele><time>2026-04-26T08:13:52.027Z</time></trkpt><trkpt lat="43.9789892" lon="12.1415075"><ele>534.0</ele><time>2026-04-26T08:13:53.034Z</time></trkpt><trkpt lat="43.9789176" lon="12.1415968"><ele>535.0</ele><time>2026-04-26T08:13:54.015Z</time></trkpt><trkpt lat="43.978865" lon="12.1416615"><ele>536.0</ele><time>2026-04-26T08:13:55.009Z</time></trkpt><trkpt lat="43.9788031" lon="12.1417201"><ele>536.0</ele><time>2026-04-26T08:13:57.015Z</time></trkpt><trkpt lat="43.9786813" lon="12.1417536"><ele>536.0</ele><time>2026-04-26T08:14:01.017Z</time></trkpt><trkpt lat="43.9785786" lon="12.1417724"><ele>536.0</ele><time>2026-04-26T08:14:02.008Z</time></trkpt><trkpt lat="43.9784682" lon="12.14177"><ele>536.0</ele><time>2026-04-26T08:14:03.008Z</time></trkpt><trkpt lat="43.9783459" lon="12.1417395"><ele>538.5</ele><time>2026-04-26T08:14:04.007Z</time></trkpt><trkpt lat="43.9782525" lon="12.1417189"><ele>541.0</ele><time>2026-04-26T08:14:05Z</time></trkpt><trkpt lat="43.9781767" lon="12.1417034"><ele>543.5</ele><time>2026-04-26T08:14:06.023Z</time></trkpt><trkpt lat="43.9780951" lon="12.1417025"><ele>546.0</ele><time>2026-04-26T08:14:07.024Z</time></trkpt><trkpt lat="43.9780112" lon="12.1417245"><ele>548.5</ele><time>2026-04-26T08:14:08.012Z</time></trkpt><trkpt lat="43.9779442" lon="12.1417793"><ele>551.0</ele><time>2026-04-26T08:14:09.01Z</time></trkpt><trkpt lat="43.9778857" lon="12.1418513"><ele>551.0</ele><time>2026-04-26T08:14:10.01Z</time></trkpt><trkpt lat="43.9778369" lon="12.1419377"><ele>551.0</ele><time>2026-04-26T08:14:11.013Z</time></trkpt><trkpt lat="43.9778006" lon="12.1420433"><ele>551.0</ele><time>2026-04-26T08:14:12.008Z</time></trkpt><trkpt lat="43.9777751" lon="12.1422105"><ele>551.0</ele><time>2026-04-26T08:14:13.008Z</time></trkpt><trkpt lat="43.9777534" lon="12.1424072"><ele>551.0</ele><time>2026-04-26T08:14:14.013Z</time></trkpt><trkpt lat="43.9776759" lon="12.1425941"><ele>547.0</ele><time>2026-04-26T08:14:15.011Z</time></trkpt><trkpt lat="43.9776036" lon="12.1427682"><ele>543.0</ele><time>2026-04-26T08:14:16.022Z</time></trkpt><trkpt lat="43.9775724" lon="12.142933"><ele>539.0</ele><time>2026-04-26T08:14:17Z</time></trkpt><trkpt lat="43.9775598" lon="12.1430961"><ele>535.0</ele><time>2026-04-26T08:14:18.011Z</time></trkpt><trkpt lat="43.9775419" lon="12.1432577"><ele>538.75</ele><time>2026-04-26T08:14:19.01Z</time></trkpt><trkpt lat="43.9775013" lon="12.1434337"><ele>542.5</ele><time>2026-04-26T08:14:20.012Z</time></trkpt><trkpt lat="43.9774434" lon="12.1436084"><ele>546.25</ele><time>2026-04-26T08:14:21.005Z</time></trkpt><trkpt lat="43.9773799" lon="12.143783"><ele>550.0</ele><time>2026-04-26T08:14:22.02Z</time></trkpt><trkpt lat="43.9773285" lon="12.1439542"><ele>548.0</ele><time>2026-04-26T08:14:23.018Z</time></trkpt><trkpt lat="43.9772809" lon="12.1441192"><ele>546.0</ele><time>2026-04-26T08:14:24.017Z</time></trkpt><trkpt lat="43.9772441" lon="12.1442823"><ele>544.0</ele><time>2026-04-26T08:14:25.012Z</time></trkpt><trkpt lat="43.9772296" lon="12.1444443"><ele>542.0</ele><time>2026-04-26T08:14:26.021Z</time></trkpt><trkpt lat="43.9772152" lon="12.1445957"><ele>542.0</ele><time>2026-04-26T08:14:27.009Z</time></trkpt><trkpt lat="43.9772054" lon="12.1447421"><ele>542.0</ele><time>2026-04-26T08:14:28.035Z</time></trkpt><trkpt lat="43.977193" lon="12.1449016"><ele>542.0</ele><time>2026-04-26T08:14:29.014Z</time></trkpt><trkpt lat="43.9771691" lon="12.1450622"><ele>542.0</ele><time>2026-04-26T08:14:30.013Z</time></trkpt><trkpt lat="43.9771317" lon="12.1452334"><ele>539.25</ele><time>2026-04-26T08:14:31.03Z</time></trkpt><trkpt lat="43.9770836" lon="12.1454034"><ele>536.5</ele><time>2026-04-26T08:14:32.008Z</time></trkpt><trkpt lat="43.9770445" lon="12.1455723"><ele>533.75</ele><time>2026-04-26T08:14:33.044Z</time></trkpt><trkpt lat="43.977017" lon="12.1457428"><ele>531.0</ele><time>2026-04-26T08:14:34.041Z</time></trkpt><trkpt lat="43.9769885" lon="12.1459025"><ele>528.0</ele><time>2026-04-26T08:14:35.001Z</time></trkpt><trkpt lat="43.9769555" lon="12.1460531"><ele>525.0</ele><time>2026-04-26T08:14:36.029Z</time></trkpt><trkpt lat="43.9769338" lon="12.1461929"><ele>522.0</ele><time>2026-04-26T08:14:37.012Z</time></trkpt><trkpt lat="43.9769122" lon="12.1463227"><ele>519.0</ele><time>2026-04-26T08:14:38.005Z</time></trkpt><trkpt lat="43.976898" lon="12.1464346"><ele>516.0</ele><time>2026-04-26T08:14:39.038Z</time></trkpt><trkpt lat="43.9768777" lon="12.1465991"><ele>514.8</ele><time>2026-04-26T08:14:41.019Z</time></trkpt><trkpt lat="43.9768033" lon="12.1466481"><ele>513.6</ele><time>2026-04-26T08:14:44.013Z</time></trkpt><trkpt lat="43.9767105" lon="12.1465488"><ele>512.4</ele><time>2026-04-26T08:14:46.015Z</time></trkpt><trkpt lat="43.97665" lon="12.1464536"><ele>511.2</ele><time>2026-04-26T08:14:47.007Z</time></trkpt><trkpt lat="43.9765664" lon="12.1463078"><ele>510.0</ele><time>2026-04-26T08:14:48.003Z</time></trkpt><trkpt lat="43.9764634" lon="12.1461312"><ele>519.0</ele><time>2026-04-26T08:14:49.012Z</time></trkpt><trkpt lat="43.9763448" lon="12.1459583"><ele>528.0</ele><time>2026-04-26T08:14:50.02Z</time></trkpt><trkpt lat="43.9762525" lon="12.1458087"><ele>537.0</ele><time>2026-04-26T08:14:51.015Z</time></trkpt><trkpt lat="43.9761697" lon="12.1456758"><ele>546.0</ele><time>2026-04-26T08:14:52.011Z</time></trkpt><trkpt lat="43.976082" lon="12.1455908"><ele>550.0</ele><time>2026-04-26T08:14:53.023Z</time></trkpt><trkpt lat="43.975961" lon="12.1455458"><ele>554.0</ele><time>2026-04-26T08:14:54.017Z</time></trkpt><trkpt lat="43.9758268" lon="12.1455048"><ele>558.0</ele><time>2026-04-26T08:14:55.014Z</time></trkpt><trkpt lat="43.9756782" lon="12.1454447"><ele>562.0</ele><time>2026-04-26T08:14:56.031Z</time></trkpt><trkpt lat="43.9755118" lon="12.1453562"><ele>563.75</ele><time>2026-04-26T08:14:57.041Z</time></trkpt><trkpt lat="43.9753678" lon="12.1452695"><ele>565.5</ele><time>2026-04-26T08:14:58.011Z</time></trkpt><trkpt lat="43.97524" lon="12.1451943"><ele>567.25</ele><time>2026-04-26T08:14:59.002Z</time></trkpt><trkpt lat="43.9751211" lon="12.1451186"><ele>569.0</ele><time>2026-04-26T08:15:00.033Z</time></trkpt><trkpt lat="43.9750082" lon="12.145056"><ele>569.0</ele><time>2026-04-26T08:15:01.032Z</time></trkpt><trkpt lat="43.9748917" lon="12.1449931"><ele>569.0</ele><time>2026-04-26T08:15:02.019Z</time></trkpt><trkpt lat="43.9747823" lon="12.1448973"><ele>569.0</ele><time>2026-04-26T08:15:03.012Z</time></trkpt><trkpt lat="43.9746848" lon="12.1447985"><ele>569.0</ele><time>2026-04-26T08:15:04.015Z</time></trkpt><trkpt lat="43.9745938" lon="12.1447121"><ele>569.5</ele><time>2026-04-26T08:15:05.028Z</time></trkpt><trkpt lat="43.9744877" lon="12.1446251"><ele>570.0</ele><time>2026-04-26T08:15:06.022Z</time></trkpt><trkpt lat="43.9743689" lon="12.1445401"><ele>570.5</ele><time>2026-04-26T08:15:07.027Z</time></trkpt><trkpt lat="43.9742545" lon="12.1444804"><ele>571.0</ele><time>2026-04-26T08:15:08.034Z</time></trkpt><trkpt lat="43.9741327" lon="12.1444593"><ele>572.0</ele><time>2026-04-26T08:15:09.007Z</time></trkpt><trkpt lat="43.9739973" lon="12.1444489"><ele>573.0</ele><time>2026-04-26T08:15:10.008Z</time></trkpt><trkpt lat="43.9738625" lon="12.1444535"><ele>574.0</ele><time>2026-04-26T08:15:11.022Z</time></trkpt><trkpt lat="43.973738" lon="12.1444705"><ele>575.0</ele><time>2026-04-26T08:15:12.024Z</time></trkpt><trkpt lat="43.9736251" lon="12.144469"><ele>575.0</ele><time>2026-04-26T08:15:13.016Z</time></trkpt><trkpt lat="43.9735184" lon="12.1444545"><ele>575.0</ele><time>2026-04-26T08:15:14.04Z</time></trkpt><trkpt lat="43.9734216" lon="12.1444235"><ele>575.0</ele><time>2026-04-26T08:15:15.013Z</time></trkpt><trkpt lat="43.9733373" lon="12.144385"><ele>575.0</ele><time>2026-04-26T08:15:16.015Z</time></trkpt><trkpt lat="43.9732496" lon="12.1443218"><ele>575.0</ele><time>2026-04-26T08:15:17.048Z</time></trkpt><trkpt lat="43.9731359" lon="12.1442317"><ele>573.25</ele><time>2026-04-26T08:15:18.021Z</time></trkpt><trkpt lat="43.9730222" lon="12.144133"><ele>571.5</ele><time>2026-04-26T08:15:19.009Z</time></trkpt><trkpt lat="43.9729083" lon="12.1440419"><ele>569.75</ele><time>2026-04-26T08:15:20.026Z</time></trkpt><trkpt lat="43.9727841" lon="12.1439824"><ele>568.0</ele><time>2026-04-26T08:15:21.009Z</time></trkpt><trkpt lat="43.9726464" lon="12.1439663"><ele>565.75</ele><time>2026-04-26T08:15:22.023Z</time></trkpt><trkpt lat="43.9725129" lon="12.1439661"><ele>563.5</ele><time>2026-04-26T08:15:23.011Z</time></trkpt><trkpt lat="43.9723865" lon="12.1439448"><ele>561.25</ele><time>2026-04-26T08:15:24.016Z</time></trkpt><trkpt lat="43.9722578" lon="12.1438923"><ele>559.0</ele><time>2026-04-26T08:15:25.004Z</time></trkpt><trkpt lat="43.9721367" lon="12.1438236"><ele>559.0</ele><time>2026-04-26T08:15:26.031Z</time></trkpt><trkpt lat="43.9720344" lon="12.1437457"><ele>559.0</ele><time>2026-04-26T08:15:27.003Z</time></trkpt><trkpt lat="43.9719442" lon="12.1436695"><ele>559.0</ele><time>2026-04-26T08:15:28.04Z</time></trkpt><trkpt lat="43.9718404" lon="12.1436183"><ele>559.0</ele><time>2026-04-26T08:15:29.008Z</time></trkpt><trkpt lat="43.9717225" lon="12.1435875"><ele>556.0</ele><time>2026-04-26T08:15:30.013Z</time></trkpt><trkpt lat="43.9715958" lon="12.1435936"><ele>553.0</ele><time>2026-04-26T08:15:31.004Z</time></trkpt><trkpt lat="43.9714723" lon="12.1436187"><ele>550.0</ele><time>2026-04-26T08:15:32.023Z</time></trkpt><trkpt lat="43.9713536" lon="12.1436455"><ele>547.0</ele><time>2026-04-26T08:15:33.018Z</time></trkpt><trkpt lat="43.9712413" lon="12.1436502"><ele>547.0</ele><time>2026-04-26T08:15:34.022Z</time></trkpt><trkpt lat="43.9711354" lon="12.1436138"><ele>547.0</ele><time>2026-04-26T08:15:35.014Z</time></trkpt><trkpt lat="43.9710256" lon="12.1435352"><ele>547.0</ele><time>2026-04-26T08:15:36.009Z</time></trkpt><trkpt lat="43.9709029" lon="12.1434411"><ele>547.0</ele><time>2026-04-26T08:15:37.006Z</time></trkpt><trkpt lat="43.9707785" lon="12.1433341"><ele>546.25</ele><time>2026-04-26T08:15:38.007Z</time></trkpt><trkpt lat="43.9706731" lon="12.1432313"><ele>545.5</ele><time>2026-04-26T08:15:39.013Z</time></trkpt><trkpt lat="43.9705973" lon="12.1430966"><ele>544.75</ele><time>2026-04-26T08:15:40.009Z</time></trkpt><trkpt lat="43.9705435" lon="12.1429415"><ele>544.0</ele><time>2026-04-26T08:15:41.003Z</time></trkpt><trkpt lat="43.9705009" lon="12.1427727"><ele>544.0</ele><time>2026-04-26T08:15:42.007Z</time></trkpt><trkpt lat="43.9704276" lon="12.1426026"><ele>544.0</ele><time>2026-04-26T08:15:43.004Z</time></trkpt><trkpt lat="43.9703448" lon="12.1424308"><ele>544.0</ele><time>2026-04-26T08:15:44.005Z</time></trkpt><trkpt lat="43.9702686" lon="12.1422755"><ele>544.0</ele><time>2026-04-26T08:15:45.009Z</time></trkpt><trkpt lat="43.970204" lon="12.142127"><ele>542.5</ele><time>2026-04-26T08:15:46.011Z</time></trkpt><trkpt lat="43.9701542" lon="12.1419508"><ele>541.0</ele><time>2026-04-26T08:15:47.015Z</time></trkpt><trkpt lat="43.970113" lon="12.141756"><ele>539.5</ele><time>2026-04-26T08:15:48.007Z</time></trkpt><trkpt lat="43.9700664" lon="12.1415726"><ele>538.0</ele><time>2026-04-26T08:15:49.003Z</time></trkpt><trkpt lat="43.9700249" lon="12.1414236"><ele>542.6</ele><time>2026-04-26T08:15:50.01Z</time></trkpt><trkpt lat="43.9699858" lon="12.1412994"><ele>547.1999999999999</ele><time>2026-04-26T08:15:51.006Z</time></trkpt><trkpt lat="43.9699426" lon="12.1411907"><ele>551.8</ele><time>2026-04-26T08:15:52.006Z</time></trkpt><trkpt lat="43.9698805" lon="12.1411176"><ele>556.4</ele><time>2026-04-26T08:15:53.005Z</time></trkpt><trkpt lat="43.9697908" lon="12.1410646"><ele>561.0</ele><time>2026-04-26T08:15:54.013Z</time></trkpt><trkpt lat="43.9696904" lon="12.1410398"><ele>561.0</ele><time>2026-04-26T08:15:55.013Z</time></trkpt><trkpt lat="43.9695778" lon="12.1410461"><ele>561.0</ele><time>2026-04-26T08:15:56.007Z</time></trkpt><trkpt lat="43.9694629" lon="12.1410706"><ele>561.0</ele><time>2026-04-26T08:15:57.003Z</time></trkpt><trkpt lat="43.9693663" lon="12.1411036"><ele>561.0</ele><time>2026-04-26T08:15:57.999Z</time></trkpt><trkpt lat="43.9692701" lon="12.1411105"><ele>561.0</ele><time>2026-04-26T08:15:59.003Z</time></trkpt><trkpt lat="43.9691853" lon="12.1410421"><ele>562.75</ele><time>2026-04-26T08:16:00.009Z</time></trkpt><trkpt lat="43.9691001" lon="12.1409044"><ele>564.5</ele><time>2026-04-26T08:16:01.006Z</time></trkpt><trkpt lat="43.9690168" lon="12.1407222"><ele>566.25</ele><time>2026-04-26T08:16:02.009Z</time></trkpt><trkpt lat="43.9689374" lon="12.1405487"><ele>568.0</ele><time>2026-04-26T08:16:03.012Z</time></trkpt><trkpt lat="43.9688763" lon="12.1403982"><ele>564.8</ele><time>2026-04-26T08:16:04.022Z</time></trkpt><trkpt lat="43.9688233" lon="12.1402683"><ele>561.5999999999999</ele><time>2026-04-26T08:16:05.003Z</time></trkpt><trkpt lat="43.9687587" lon="12.1401875"><ele>558.4000000000001</ele><time>2026-04-26T08:16:06.012Z</time></trkpt><trkpt lat="43.9686734" lon="12.140173"><ele>555.2</ele><time>2026-04-26T08:16:07.011Z</time></trkpt><trkpt lat="43.9685829" lon="12.1401757"><ele>552.0</ele><time>2026-04-26T08:16:08.009Z</time></trkpt><trkpt lat="43.9684773" lon="12.1402146"><ele>556.0</ele><time>2026-04-26T08:16:09.003Z</time></trkpt><trkpt lat="43.9683493" lon="12.140241"><ele>560.0</ele><time>2026-04-26T08:16:10.015Z</time></trkpt><trkpt lat="43.9682221" lon="12.1401909"><ele>564.0</ele><time>2026-04-26T08:16:11.003Z</time></trkpt><trkpt lat="43.9681174" lon="12.1401018"><ele>568.0</ele><time>2026-04-26T08:16:12.005Z</time></trkpt><trkpt lat="43.9680219" lon="12.1399585"><ele>563.75</ele><time>2026-04-26T08:16:13.022Z</time></trkpt><trkpt lat="43.9679426" lon="12.139822"><ele>559.5</ele><time>2026-04-26T08:16:14.019Z</time></trkpt><trkpt lat="43.9678417" lon="12.1397259"><ele>555.25</ele><time>2026-04-26T08:16:15.02Z</time></trkpt><trkpt lat="43.9677261" lon="12.1396336"><ele>551.0</ele><time>2026-04-26T08:16:16.016Z</time></trkpt><trkpt lat="43.9676455" lon="12.1395268"><ele>551.0</ele><time>2026-04-26T08:16:17.008Z</time></trkpt><trkpt lat="43.9676025" lon="12.1393913"><ele>551.0</ele><time>2026-04-26T08:16:18.011Z</time></trkpt><trkpt lat="43.9675543" lon="12.1392405"><ele>551.0</ele><time>2026-04-26T08:16:19.009Z</time></trkpt><trkpt lat="43.9674882" lon="12.1391068"><ele>551.0</ele><time>2026-04-26T08:16:20.002Z</time></trkpt><trkpt lat="43.9673894" lon="12.1390031"><ele>556.25</ele><time>2026-04-26T08:16:21.002Z</time></trkpt><trkpt lat="43.9672885" lon="12.1389095"><ele>561.5</ele><time>2026-04-26T08:16:22.005Z</time></trkpt><trkpt lat="43.9671969" lon="12.1388032"><ele>566.75</ele><time>2026-04-26T08:16:23.015Z</time></trkpt><trkpt lat="43.9671209" lon="12.1386874"><ele>572.0</ele><time>2026-04-26T08:16:24.009Z</time></trkpt><trkpt lat="43.9670578" lon="12.1385816"><ele>572.0</ele><time>2026-04-26T08:16:24.993Z</time></trkpt><trkpt lat="43.9670087" lon="12.1384843"><ele>572.0</ele><time>2026-04-26T08:16:26.01Z</time></trkpt><trkpt lat="43.9669696" lon="12.1383926"><ele>572.0</ele><time>2026-04-26T08:16:27.002Z</time></trkpt><trkpt lat="43.966942" lon="12.1382768"><ele>572.0</ele><time>2026-04-26T08:16:28.006Z</time></trkpt><trkpt lat="43.9668843" lon="12.1381267"><ele>572.0</ele><time>2026-04-26T08:16:28.996Z</time></trkpt><trkpt lat="43.966828" lon="12.1379547"><ele>575.25</ele><time>2026-04-26T08:16:30.016Z</time></trkpt><trkpt lat="43.9667796" lon="12.137778"><ele>578.5</ele><time>2026-04-26T08:16:31Z</time></trkpt><trkpt lat="43.9667456" lon="12.1376019"><ele>581.75</ele><time>2026-04-26T08:16:32.001Z</time></trkpt><trkpt lat="43.9667242" lon="12.1374321"><ele>585.0</ele><time>2026-04-26T08:16:33Z</time></trkpt><trkpt lat="43.9667083" lon="12.137274"><ele>581.75</ele><time>2026-04-26T08:16:34.008Z</time></trkpt><trkpt lat="43.9666924" lon="12.1371229"><ele>578.5</ele><time>2026-04-26T08:16:35.017Z</time></trkpt><trkpt lat="43.9666796" lon="12.1369751"><ele>575.25</ele><time>2026-04-26T08:16:36.007Z</time></trkpt><trkpt lat="43.9666345" lon="12.1368178"><ele>572.0</ele><time>2026-04-26T08:16:37.003Z</time></trkpt><trkpt lat="43.9665875" lon="12.1366685"><ele>570.6</ele><time>2026-04-26T08:16:38.022Z</time></trkpt><trkpt lat="43.9665335" lon="12.1365319"><ele>569.2</ele><time>2026-04-26T08:16:39.002Z</time></trkpt><trkpt lat="43.9664916" lon="12.1363962"><ele>567.8</ele><time>2026-04-26T08:16:40.006Z</time></trkpt><trkpt lat="43.966467" lon="12.1362516"><ele>566.4</ele><time>2026-04-26T08:16:41Z</time></trkpt><trkpt lat="43.966452" lon="12.1360926"><ele>565.0</ele><time>2026-04-26T08:16:42.006Z</time></trkpt><trkpt lat="43.9664488" lon="12.1359237"><ele>565.0</ele><time>2026-04-26T08:16:42.999Z</time></trkpt><trkpt lat="43.9664421" lon="12.1357709"><ele>565.0</ele><time>2026-04-26T08:16:44.006Z</time></trkpt><trkpt lat="43.9664217" lon="12.1356278"><ele>565.0</ele><time>2026-04-26T08:16:45Z</time></trkpt><trkpt lat="43.9664053" lon="12.1354881"><ele>565.0</ele><time>2026-04-26T08:16:46.007Z</time></trkpt><trkpt lat="43.9663632" lon="12.1353678"><ele>565.0</ele><time>2026-04-26T08:16:46.997Z</time></trkpt><trkpt lat="43.9662931" lon="12.135275"><ele>563.4</ele><time>2026-04-26T08:16:48.002Z</time></trkpt><trkpt lat="43.9662119" lon="12.1351866"><ele>561.8</ele><time>2026-04-26T08:16:49.004Z</time></trkpt><trkpt lat="43.9661347" lon="12.1351072"><ele>560.2</ele><time>2026-04-26T08:16:50.005Z</time></trkpt><trkpt lat="43.9660567" lon="12.1350475"><ele>558.6</ele><time>2026-04-26T08:16:50.995Z</time></trkpt><trkpt lat="43.965964" lon="12.1349981"><ele>557.0</ele><time>2026-04-26T08:16:52.002Z</time></trkpt><trkpt lat="43.9658705" lon="12.1349423"><ele>558.0</ele><time>2026-04-26T08:16:53.003Z</time></trkpt><trkpt lat="43.9657776" lon="12.1348795"><ele>559.0</ele><time>2026-04-26T08:16:54.005Z</time></trkpt><trkpt lat="43.9656906" lon="12.1347893"><ele>560.0</ele><time>2026-04-26T08:16:55.017Z</time></trkpt><trkpt lat="43.9656053" lon="12.1346717"><ele>561.0</ele><time>2026-04-26T08:16:56.003Z</time></trkpt><trkpt lat="43.965521" lon="12.1345354"><ele>561.0</ele><time>2026-04-26T08:16:56.998Z</time></trkpt><trkpt lat="43.9654368" lon="12.1343964"><ele>561.0</ele><time>2026-04-26T08:16:58.006Z</time></trkpt><trkpt lat="43.9653503" lon="12.134262"><ele>561.0</ele><time>2026-04-26T08:16:59.008Z</time></trkpt><trkpt lat="43.9652562" lon="12.1341509"><ele>561.0</ele><time>2026-04-26T08:17:00.008Z</time></trkpt><trkpt lat="43.9651487" lon="12.13406"><ele>559.25</ele><time>2026-04-26T08:17:01.009Z</time></trkpt><trkpt lat="43.965039" lon="12.1339805"><ele>557.5</ele><time>2026-04-26T08:17:02.007Z</time></trkpt><trkpt lat="43.9649313" lon="12.1338942"><ele>555.75</ele><time>2026-04-26T08:17:03.007Z</time></trkpt><trkpt lat="43.964827" lon="12.1338037"><ele>554.0</ele><time>2026-04-26T08:17:04.009Z</time></trkpt><trkpt lat="43.9647158" lon="12.133705"><ele>554.0</ele><time>2026-04-26T08:17:05Z</time></trkpt><trkpt lat="43.9646015" lon="12.1336158"><ele>554.0</ele><time>2026-04-26T08:17:06.008Z</time></trkpt><trkpt lat="43.9644942" lon="12.1335259"><ele>554.0</ele><time>2026-04-26T08:17:07.004Z</time></trkpt><trkpt lat="43.9643929" lon="12.1334321"><ele>554.0</ele><time>2026-04-26T08:17:07.997Z</time></trkpt><trkpt lat="43.9643063" lon="12.1333342"><ele>554.0</ele><time>2026-04-26T08:17:09.004Z</time></trkpt><trkpt lat="43.9642204" lon="12.1332277"><ele>554.0</ele><time>2026-04-26T08:17:10.007Z</time></trkpt><trkpt lat="43.9641289" lon="12.1331439"><ele>554.0</ele><time>2026-04-26T08:17:11.002Z</time></trkpt><trkpt lat="43.9640116" lon="12.1330827"><ele>554.0</ele><time>2026-04-26T08:17:12.007Z</time></trkpt><trkpt lat="43.9638902" lon="12.1330446"><ele>544.75</ele><time>2026-04-26T08:17:13.009Z</time></trkpt><trkpt lat="43.9637859" lon="12.1330243"><ele>535.5</ele><time>2026-04-26T08:17:14.009Z</time></trkpt><trkpt lat="43.963686" lon="12.1330293"><ele>526.25</ele><time>2026-04-26T08:17:15.009Z</time></trkpt><trkpt lat="43.9635594" lon="12.1330651"><ele>517.0</ele><time>2026-04-26T08:17:16.016Z</time></trkpt><trkpt lat="43.9634134" lon="12.1331301"><ele>515.0</ele><time>2026-04-26T08:17:17.019Z</time></trkpt><trkpt lat="43.9632674" lon="12.1331745"><ele>513.0</ele><time>2026-04-26T08:17:18.012Z</time></trkpt><trkpt lat="43.9631238" lon="12.1332068"><ele>511.0</ele><time>2026-04-26T08:17:19.021Z</time></trkpt><trkpt lat="43.9629628" lon="12.133223"><ele>511.0</ele><time>2026-04-26T08:17:20.014Z</time></trkpt><trkpt lat="43.9627801" lon="12.1332125"><ele>511.0</ele><time>2026-04-26T08:17:21.007Z</time></trkpt><trkpt lat="43.9626026" lon="12.1332063"><ele>511.0</ele><time>2026-04-26T08:17:22.01Z</time></trkpt><trkpt lat="43.962436" lon="12.1332098"><ele>513.0</ele><time>2026-04-26T08:17:23.016Z</time></trkpt><trkpt lat="43.9623027" lon="12.1332225"><ele>515.0</ele><time>2026-04-26T08:17:24.01Z</time></trkpt><trkpt lat="43.9621923" lon="12.1331954"><ele>517.0</ele><time>2026-04-26T08:17:24.992Z</time></trkpt><trkpt lat="43.9620935" lon="12.133153"><ele>519.0</ele><time>2026-04-26T08:17:26.014Z</time></trkpt><trkpt lat="43.9619891" lon="12.1330753"><ele>519.0</ele><time>2026-04-26T08:17:27.018Z</time></trkpt><trkpt lat="43.9618776" lon="12.1329989"><ele>519.0</ele><time>2026-04-26T08:17:28.014Z</time></trkpt><trkpt lat="43.9617661" lon="12.1329302"><ele>519.0</ele><time>2026-04-26T08:17:29.013Z</time></trkpt><trkpt lat="43.9616565" lon="12.1328988"><ele>519.0</ele><time>2026-04-26T08:17:30.01Z</time></trkpt><trkpt lat="43.9615473" lon="12.1328918"><ele>521.8</ele><time>2026-04-26T08:17:31.008Z</time></trkpt><trkpt lat="43.9614488" lon="12.1328587"><ele>524.5999999999999</ele><time>2026-04-26T08:17:32.011Z</time></trkpt><trkpt lat="43.9613607" lon="12.1327922"><ele>527.4</ele><time>2026-04-26T08:17:33.002Z</time></trkpt><trkpt lat="43.9612722" lon="12.1327304"><ele>530.1999999999999</ele><time>2026-04-26T08:17:34.008Z</time></trkpt><trkpt lat="43.961175" lon="12.1326869"><ele>533.0</ele><time>2026-04-26T08:17:35.012Z</time></trkpt><trkpt lat="43.9610809" lon="12.1326527"><ele>533.0</ele><time>2026-04-26T08:17:36.011Z</time></trkpt><trkpt lat="43.9609916" lon="12.1326443"><ele>533.0</ele><time>2026-04-26T08:17:37.012Z</time></trkpt><trkpt lat="43.960918" lon="12.1326434"><ele>533.0</ele><time>2026-04-26T08:17:38.014Z</time></trkpt><trkpt lat="43.9608037" lon="12.1327364"><ele>533.0</ele><time>2026-04-26T08:17:40.006Z</time></trkpt><trkpt lat="43.9607426" lon="12.132838"><ele>533.0</ele><time>2026-04-26T08:17:41.013Z</time></trkpt><trkpt lat="43.9606701" lon="12.1329724"><ele>532.5</ele><time>2026-04-26T08:17:42.015Z</time></trkpt><trkpt lat="43.9605759" lon="12.1331051"><ele>532.0</ele><time>2026-04-26T08:17:43.016Z</time></trkpt><trkpt lat="43.9604762" lon="12.1332523"><ele>531.5</ele><time>2026-04-26T08:17:44.014Z</time></trkpt><trkpt lat="43.960371" lon="12.1333938"><ele>531.0</ele><time>2026-04-26T08:17:45.007Z</time></trkpt><trkpt lat="43.9602588" lon="12.133506"><ele>531.0</ele><time>2026-04-26T08:17:46.007Z</time></trkpt><trkpt lat="43.9601474" lon="12.1335888"><ele>531.0</ele><time>2026-04-26T08:17:47.004Z</time></trkpt><trkpt lat="43.9600296" lon="12.1336683"><ele>531.0</ele><time>2026-04-26T08:17:48.007Z</time></trkpt><trkpt lat="43.9599134" lon="12.1337258"><ele>531.0</ele><time>2026-04-26T08:17:49.013Z</time></trkpt><trkpt lat="43.9597963" lon="12.1337885"><ele>530.8</ele><time>2026-04-26T08:17:50.011Z</time></trkpt><trkpt lat="43.9596844" lon="12.1338454"><ele>530.6</ele><time>2026-04-26T08:17:51.009Z</time></trkpt><trkpt lat="43.9595922" lon="12.1339051"><ele>530.4</ele><time>2026-04-26T08:17:52.015Z</time></trkpt><trkpt lat="43.9595001" lon="12.1339682"><ele>530.2</ele><time>2026-04-26T08:17:53.01Z</time></trkpt><trkpt lat="43.9594114" lon="12.134042"><ele>530.0</ele><time>2026-04-26T08:17:54.014Z</time></trkpt><trkpt lat="43.9593224" lon="12.134121"><ele>530.0</ele><time>2026-04-26T08:17:55.016Z</time></trkpt><trkpt lat="43.959228" lon="12.1341789"><ele>530.0</ele><time>2026-04-26T08:17:56.01Z</time></trkpt><trkpt lat="43.9591377" lon="12.1342126"><ele>530.0</ele><time>2026-04-26T08:17:57.013Z</time></trkpt><trkpt lat="43.959051" lon="12.1342291"><ele>530.0</ele><time>2026-04-26T08:17:58.011Z</time></trkpt><trkpt lat="43.9589646" lon="12.1342298"><ele>530.0</ele><time>2026-04-26T08:17:59.015Z</time></trkpt><trkpt lat="43.958877" lon="12.1342276"><ele>528.8</ele><time>2026-04-26T08:18:00.009Z</time></trkpt><trkpt lat="43.9587903" lon="12.1342266"><ele>527.6</ele><time>2026-04-26T08:18:01.005Z</time></trkpt><trkpt lat="43.9587093" lon="12.1342529"><ele>526.4</ele><time>2026-04-26T08:18:02.016Z</time></trkpt><trkpt lat="43.9586264" lon="12.1342945"><ele>525.2</ele><time>2026-04-26T08:18:03.007Z</time></trkpt><trkpt lat="43.9585396" lon="12.1343612"><ele>524.0</ele><time>2026-04-26T08:18:04.014Z</time></trkpt><trkpt lat="43.958452" lon="12.1344595"><ele>524.0</ele><time>2026-04-26T08:18:05.006Z</time></trkpt><trkpt lat="43.9583631" lon="12.1345755"><ele>524.0</ele><time>2026-04-26T08:18:06.014Z</time></trkpt><trkpt lat="43.9582617" lon="12.1347113"><ele>524.0</ele><time>2026-04-26T08:18:07.011Z</time></trkpt><trkpt lat="43.9581684" lon="12.1348748"><ele>524.0</ele><time>2026-04-26T08:18:08.019Z</time></trkpt><trkpt lat="43.9580832" lon="12.1350429"><ele>524.0</ele><time>2026-04-26T08:18:09.003Z</time></trkpt><trkpt lat="43.958019" lon="12.1351876"><ele>524.0</ele><time>2026-04-26T08:18:10.013Z</time></trkpt><trkpt lat="43.9579443" lon="12.1352908"><ele>524.0</ele><time>2026-04-26T08:18:11Z</time></trkpt><trkpt lat="43.9578477" lon="12.1353554"><ele>524.0</ele><time>2026-04-26T08:18:12.014Z</time></trkpt><trkpt lat="43.9577451" lon="12.135356"><ele>524.0</ele><time>2026-04-26T08:18:13.009Z</time></trkpt><trkpt lat="43.9576254" lon="12.1353227"><ele>530.75</ele><time>2026-04-26T08:18:14.015Z</time></trkpt><trkpt lat="43.9574989" lon="12.1352773"><ele>537.5</ele><time>2026-04-26T08:18:15.001Z</time></trkpt><trkpt lat="43.9573597" lon="12.1352304"><ele>544.25</ele><time>2026-04-26T08:18:16.008Z</time></trkpt><trkpt lat="43.9572326" lon="12.1352032"><ele>551.0</ele><time>2026-04-26T08:18:17.007Z</time></trkpt><trkpt lat="43.9571092" lon="12.1352188"><ele>551.0</ele><time>2026-04-26T08:18:18.008Z</time></trkpt><trkpt lat="43.956971" lon="12.13527"><ele>551.0</ele><time>2026-04-26T08:18:19.015Z</time></trkpt><trkpt lat="43.9568139" lon="12.1353397"><ele>551.0</ele><time>2026-04-26T08:18:20.006Z</time></trkpt><trkpt lat="43.9566447" lon="12.1354111"><ele>555.3333333333333</ele><time>2026-04-26T08:18:21.011Z</time></trkpt><trkpt lat="43.9564647" lon="12.1355167"><ele>559.6666666666666</ele><time>2026-04-26T08:18:22.008Z</time></trkpt><trkpt lat="43.9562953" lon="12.135623"><ele>564.0</ele><time>2026-04-26T08:18:23.01Z</time></trkpt><trkpt lat="43.9561473" lon="12.1356943"><ele>562.6</ele><time>2026-04-26T08:18:24.003Z</time></trkpt><trkpt lat="43.9560196" lon="12.1357517"><ele>561.2</ele><time>2026-04-26T08:18:25.009Z</time></trkpt><trkpt lat="43.9559091" lon="12.1357732"><ele>559.8000000000001</ele><time>2026-04-26T08:18:26.008Z</time></trkpt><trkpt lat="43.9558182" lon="12.1357707"><ele>558.4</ele><time>2026-04-26T08:18:27.007Z</time></trkpt><trkpt lat="43.9557274" lon="12.1357297"><ele>557.0</ele><time>2026-04-26T08:18:28.005Z</time></trkpt><trkpt lat="43.9556466" lon="12.1356575"><ele>561.75</ele><time>2026-04-26T08:18:28.997Z</time></trkpt><trkpt lat="43.9555711" lon="12.1355378"><ele>566.5</ele><time>2026-04-26T08:18:30.01Z</time></trkpt><trkpt lat="43.9555129" lon="12.1353838"><ele>571.25</ele><time>2026-04-26T08:18:31.007Z</time></trkpt><trkpt lat="43.9554517" lon="12.1352068"><ele>576.0</ele><time>2026-04-26T08:18:32.008Z</time></trkpt><trkpt lat="43.9553706" lon="12.1350705"><ele>576.0</ele><time>2026-04-26T08:18:33.006Z</time></trkpt><trkpt lat="43.9552653" lon="12.1349582"><ele>576.0</ele><time>2026-04-26T08:18:34.007Z</time></trkpt><trkpt lat="43.9551385" lon="12.1348801"><ele>576.0</ele><time>2026-04-26T08:18:35.005Z</time></trkpt><trkpt lat="43.9549927" lon="12.1348133"><ele>576.0</ele><time>2026-04-26T08:18:36.007Z</time></trkpt><trkpt lat="43.9548397" lon="12.1347618"><ele>573.75</ele><time>2026-04-26T08:18:37.008Z</time></trkpt><trkpt lat="43.9546872" lon="12.1347274"><ele>571.5</ele><time>2026-04-26T08:18:38.016Z</time></trkpt><trkpt lat="43.9545444" lon="12.1347141"><ele>569.25</ele><time>2026-04-26T08:18:39.012Z</time></trkpt><trkpt lat="43.9544219" lon="12.1347152"><ele>567.0</ele><time>2026-04-26T08:18:40.011Z</time></trkpt><trkpt lat="43.9543116" lon="12.1347359"><ele>565.8000000000001</ele><time>2026-04-26T08:18:41.026Z</time></trkpt><trkpt lat="43.9542036" lon="12.134777"><ele>564.6</ele><time>2026-04-26T08:18:42.016Z</time></trkpt><trkpt lat="43.9541034" lon="12.1348289"><ele>563.4000000000001</ele><time>2026-04-26T08:18:43.017Z</time></trkpt><trkpt lat="43.9540113" lon="12.1348906"><ele>562.2</ele><time>2026-04-26T08:18:44.01Z</time></trkpt><trkpt lat="43.9539334" lon="12.1349595"><ele>561.0</ele><time>2026-04-26T08:18:45.01Z</time></trkpt><trkpt lat="43.9538615" lon="12.1350172"><ele>561.0</ele><time>2026-04-26T08:18:46.004Z</time></trkpt><trkpt lat="43.9537893" lon="12.1350742"><ele>561.0</ele><time>2026-04-26T08:18:47.006Z</time></trkpt><trkpt lat="43.9537173" lon="12.1351284"><ele>561.0</ele><time>2026-04-26T08:18:48.009Z</time></trkpt><trkpt lat="43.9536378" lon="12.1351772"><ele>561.0</ele><time>2026-04-26T08:18:49.006Z</time></trkpt><trkpt lat="43.9535574" lon="12.1352389"><ele>561.0</ele><time>2026-04-26T08:18:50.016Z</time></trkpt><trkpt lat="43.9534801" lon="12.1352957"><ele>561.0</ele><time>2026-04-26T08:18:51.006Z</time></trkpt><trkpt lat="43.9533965" lon="12.1353496"><ele>563.4</ele><time>2026-04-26T08:18:52.009Z</time></trkpt><trkpt lat="43.9533091" lon="12.1353904"><ele>565.8</ele><time>2026-04-26T08:18:53.011Z</time></trkpt><trkpt lat="43.9532162" lon="12.1354118"><ele>568.1999999999999</ele><time>2026-04-26T08:18:54.015Z</time></trkpt><trkpt lat="43.9531214" lon="12.1354207"><ele>570.6</ele><time>2026-04-26T08:18:55.005Z</time></trkpt><trkpt lat="43.9530332" lon="12.1354176"><ele>573.0</ele><time>2026-04-26T08:18:56.005Z</time></trkpt><trkpt lat="43.9529452" lon="12.1353949"><ele>573.0</ele><time>2026-04-26T08:18:57.011Z</time></trkpt><trkpt lat="43.9528524" lon="12.1353468"><ele>573.0</ele><time>2026-04-26T08:18:58.013Z</time></trkpt><trkpt lat="43.9527597" lon="12.1353021"><ele>573.0</ele><time>2026-04-26T08:18:59.025Z</time></trkpt><trkpt lat="43.952673" lon="12.1352522"><ele>573.0</ele><time>2026-04-26T08:19:00.017Z</time></trkpt><trkpt lat="43.9525911" lon="12.1351913"><ele>573.0</ele><time>2026-04-26T08:19:01.02Z</time></trkpt><trkpt lat="43.9525079" lon="12.1351419"><ele>572.5</ele><time>2026-04-26T08:19:02.015Z</time></trkpt><trkpt lat="43.952419" lon="12.1350999"><ele>572.0</ele><time>2026-04-26T08:19:03.008Z</time></trkpt><trkpt lat="43.9523156" lon="12.1350767"><ele>571.5</ele><time>2026-04-26T08:19:04.012Z</time></trkpt><trkpt lat="43.9521894" lon="12.1350811"><ele>571.0</ele><time>2026-04-26T08:19:05.016Z</time></trkpt><trkpt lat="43.9520393" lon="12.1350978"><ele>571.0</ele><time>2026-04-26T08:19:06.013Z</time></trkpt><trkpt lat="43.9518584" lon="12.1350885"><ele>571.0</ele><time>2026-04-26T08:19:07.048Z</time></trkpt><trkpt lat="43.951668" lon="12.1350835"><ele>571.0</ele><time>2026-04-26T08:19:08.006Z</time></trkpt><trkpt lat="43.9514886" lon="12.1350787"><ele>569.0</ele><time>2026-04-26T08:19:09.013Z</time></trkpt><trkpt lat="43.9513173" lon="12.1350716"><ele>567.0</ele><time>2026-04-26T08:19:10.015Z</time></trkpt><trkpt lat="43.9511612" lon="12.1350648"><ele>565.0</ele><time>2026-04-26T08:19:11.017Z</time></trkpt><trkpt lat="43.9510125" lon="12.1350561"><ele>566.0</ele><time>2026-04-26T08:19:11.997Z</time></trkpt><trkpt lat="43.9508661" lon="12.1350434"><ele>567.0</ele><time>2026-04-26T08:19:13.01Z</time></trkpt><trkpt lat="43.9507192" lon="12.135001"><ele>568.0</ele><time>2026-04-26T08:19:14.023Z</time></trkpt><trkpt lat="43.9505921" lon="12.1349455"><ele>569.0</ele><time>2026-04-26T08:19:15Z</time></trkpt><trkpt lat="43.9504763" lon="12.134879"><ele>566.6</ele><time>2026-04-26T08:19:16.009Z</time></trkpt><trkpt lat="43.9503783" lon="12.1348016"><ele>564.2</ele><time>2026-04-26T08:19:17.008Z</time></trkpt><trkpt lat="43.9502981" lon="12.1347213"><ele>561.8000000000001</ele><time>2026-04-26T08:19:18.012Z</time></trkpt><trkpt lat="43.9502282" lon="12.1346319"><ele>559.4</ele><time>2026-04-26T08:19:19Z</time></trkpt><trkpt lat="43.9501737" lon="12.1345355"><ele>557.0</ele><time>2026-04-26T08:19:20.008Z</time></trkpt><trkpt lat="43.9501286" lon="12.1344199"><ele>557.0</ele><time>2026-04-26T08:19:21.016Z</time></trkpt><trkpt lat="43.9500881" lon="12.1342699"><ele>557.0</ele><time>2026-04-26T08:19:22.021Z</time></trkpt><trkpt lat="43.9500579" lon="12.1340912"><ele>557.0</ele><time>2026-04-26T08:19:23.013Z</time></trkpt><trkpt lat="43.9500397" lon="12.1338896"><ele>557.0</ele><time>2026-04-26T08:19:24.003Z</time></trkpt><trkpt lat="43.9500331" lon="12.133669"><ele>561.0</ele><time>2026-04-26T08:19:25.004Z</time></trkpt><trkpt lat="43.9500228" lon="12.1334592"><ele>565.0</ele><time>2026-04-26T08:19:26.011Z</time></trkpt><trkpt lat="43.9500106" lon="12.1332492"><ele>569.0</ele><time>2026-04-26T08:19:27.007Z</time></trkpt><trkpt lat="43.9500073" lon="12.1330809"><ele>573.0</ele><time>2026-04-26T08:19:28.017Z</time></trkpt><trkpt lat="43.9500153" lon="12.1329302"><ele>570.1999999999999</ele><time>2026-04-26T08:19:29.012Z</time></trkpt><trkpt lat="43.9500686" lon="12.1328029"><ele>567.4</ele><time>2026-04-26T08:19:30.017Z</time></trkpt><trkpt lat="43.9501423" lon="12.132709"><ele>564.5999999999999</ele><time>2026-04-26T08:19:31.011Z</time></trkpt><trkpt lat="43.9502346" lon="12.1326474"><ele>561.8</ele><time>2026-04-26T08:19:32.017Z</time></trkpt><trkpt lat="43.9503542" lon="12.1326051"><ele>559.0</ele><time>2026-04-26T08:19:33.008Z</time></trkpt><trkpt lat="43.9504873" lon="12.1325578"><ele>559.0</ele><time>2026-04-26T08:19:34.011Z</time></trkpt><trkpt lat="43.9506229" lon="12.1325002"><ele>559.0</ele><time>2026-04-26T08:19:35.02Z</time></trkpt><trkpt lat="43.9507415" lon="12.132425"><ele>559.0</ele><time>2026-04-26T08:19:36.008Z</time></trkpt><trkpt lat="43.9508314" lon="12.1323305"><ele>559.0</ele><time>2026-04-26T08:19:37.016Z</time></trkpt><trkpt lat="43.9508892" lon="12.1322154"><ele>560.0</ele><time>2026-04-26T08:19:38.008Z</time></trkpt><trkpt lat="43.9509185" lon="12.1320834"><ele>561.0</ele><time>2026-04-26T08:19:39.007Z</time></trkpt><trkpt lat="43.9509282" lon="12.1319638"><ele>562.0</ele><time>2026-04-26T08:19:40.008Z</time></trkpt><trkpt lat="43.950927" lon="12.1318701"><ele>563.0</ele><time>2026-04-26T08:19:41.017Z</time></trkpt><trkpt lat="43.9509099" lon="12.1317772"><ele>564.0</ele><time>2026-04-26T08:19:42.018Z</time></trkpt><trkpt lat="43.9508808" lon="12.1316453"><ele>565.0</ele><time>2026-04-26T08:19:44.021Z</time></trkpt><trkpt lat="43.9507762" lon="12.1316047"><ele>565.0</ele><time>2026-04-26T08:19:46.008Z</time></trkpt><trkpt lat="43.9507109" lon="12.1316261"><ele>565.0</ele><time>2026-04-26T08:19:47.015Z</time></trkpt><trkpt lat="43.9506449" lon="12.131699"><ele>565.0</ele><time>2026-04-26T08:19:48.013Z</time></trkpt><trkpt lat="43.9505672" lon="12.1317719"><ele>565.0</ele><time>2026-04-26T08:19:49.012Z</time></trkpt><trkpt lat="43.9504657" lon="12.1318338"><ele>565.0</ele><time>2026-04-26T08:19:50.01Z</time></trkpt><trkpt lat="43.9503303" lon="12.1318656"><ele>565.0</ele><time>2026-04-26T08:19:51.018Z</time></trkpt><trkpt lat="43.9501969" lon="12.1318529"><ele>565.0</ele><time>2026-04-26T08:19:52.01Z</time></trkpt><trkpt lat="43.9500583" lon="12.1318351"><ele>565.0</ele><time>2026-04-26T08:19:53.007Z</time></trkpt><trkpt lat="43.9499302" lon="12.1318562"><ele>565.0</ele><time>2026-04-26T08:19:54.017Z</time></trkpt><trkpt lat="43.9498037" lon="12.1318899"><ele>565.75</ele><time>2026-04-26T08:19:55.009Z</time></trkpt><trkpt lat="43.9496772" lon="12.1319036"><ele>566.5</ele><time>2026-04-26T08:19:56.018Z</time></trkpt><trkpt lat="43.949564" lon="12.1318614"><ele>567.25</ele><time>2026-04-26T08:19:57.001Z</time></trkpt><trkpt lat="43.9494686" lon="12.1317655"><ele>568.0</ele><time>2026-04-26T08:19:58.009Z</time></trkpt><trkpt lat="43.9493853" lon="12.1316531"><ele>568.0</ele><time>2026-04-26T08:19:59.005Z</time></trkpt><trkpt lat="43.9492924" lon="12.1315592"><ele>568.0</ele><time>2026-04-26T08:20:00.019Z</time></trkpt><trkpt lat="43.9491906" lon="12.1314993"><ele>568.0</ele><time>2026-04-26T08:20:01.019Z</time></trkpt><trkpt lat="43.949076" lon="12.1314792"><ele>568.0</ele><time>2026-04-26T08:20:02.01Z</time></trkpt><trkpt lat="43.9489601" lon="12.1314943"><ele>566.4</ele><time>2026-04-26T08:20:03.027Z</time></trkpt><trkpt lat="43.9488606" lon="12.1315456"><ele>564.8</ele><time>2026-04-26T08:20:04.018Z</time></trkpt><trkpt lat="43.9487777" lon="12.1316374"><ele>563.2</ele><time>2026-04-26T08:20:05.016Z</time></trkpt><trkpt lat="43.9487218" lon="12.1317671"><ele>561.6</ele><time>2026-04-26T08:20:06.007Z</time></trkpt><trkpt lat="43.9486497" lon="12.1319126"><ele>560.0</ele><time>2026-04-26T08:20:07.01Z</time></trkpt><trkpt lat="43.9485638" lon="12.1320661"><ele>564.5</ele><time>2026-04-26T08:20:08.019Z</time></trkpt><trkpt lat="43.9484672" lon="12.1322006"><ele>569.0</ele><time>2026-04-26T08:20:09.012Z</time></trkpt><trkpt lat="43.9483605" lon="12.1322872"><ele>573.5</ele><time>2026-04-26T08:20:10.013Z</time></trkpt><trkpt lat="43.9482343" lon="12.1323497"><ele>578.0</ele><time>2026-04-26T08:20:11.006Z</time></trkpt><trkpt lat="43.9481134" lon="12.1324034"><ele>583.5</ele><time>2026-04-26T08:20:12.015Z</time></trkpt><trkpt lat="43.9480247" lon="12.1324745"><ele>589.0</ele><time>2026-04-26T08:20:13.011Z</time></trkpt><trkpt lat="43.9479479" lon="12.1325745"><ele>594.5</ele><time>2026-04-26T08:20:14.008Z</time></trkpt><trkpt lat="43.9478943" lon="12.1327255"><ele>600.0</ele><time>2026-04-26T08:20:15.006Z</time></trkpt><trkpt lat="43.9478408" lon="12.1328929"><ele>600.0</ele><time>2026-04-26T08:20:15.999Z</time></trkpt><trkpt lat="43.9477849" lon="12.1330621"><ele>600.0</ele><time>2026-04-26T08:20:17.004Z</time></trkpt><trkpt lat="43.9477089" lon="12.1332118"><ele>600.0</ele><time>2026-04-26T08:20:18.008Z</time></trkpt><trkpt lat="43.9476245" lon="12.1333328"><ele>600.0</ele><time>2026-04-26T08:20:19.012Z</time></trkpt><trkpt lat="43.9475307" lon="12.1333942"><ele>601.0</ele><time>2026-04-26T08:20:20.017Z</time></trkpt><trkpt lat="43.9474085" lon="12.1334246"><ele>602.0</ele><time>2026-04-26T08:20:21.006Z</time></trkpt><trkpt lat="43.9472894" lon="12.1334291"><ele>603.0</ele><time>2026-04-26T08:20:22.013Z</time></trkpt><trkpt lat="43.9471696" lon="12.1334328"><ele>604.0</ele><time>2026-04-26T08:20:23.013Z</time></trkpt><trkpt lat="43.9470556" lon="12.1334257"><ele>604.0</ele><time>2026-04-26T08:20:24.017Z</time></trkpt><trkpt lat="43.9469563" lon="12.1334179"><ele>604.0</ele><time>2026-04-26T08:20:25.011Z</time></trkpt><trkpt lat="43.9468624" lon="12.1334089"><ele>604.0</ele><time>2026-04-26T08:20:26.03Z</time></trkpt><trkpt lat="43.9467738" lon="12.1334175"><ele>604.0</ele><time>2026-04-26T08:20:27.012Z</time></trkpt><trkpt lat="43.9466832" lon="12.1334546"><ele>604.0</ele><time>2026-04-26T08:20:28.028Z</time></trkpt><trkpt lat="43.9466017" lon="12.1335001"><ele>604.1666666666667</ele><time>2026-04-26T08:20:28.992Z</time></trkpt><trkpt lat="43.946544" lon="12.1335525"><ele>604.3333333333334</ele><time>2026-04-26T08:20:30.012Z</time></trkpt><trkpt lat="43.946479" lon="12.1336019"><ele>604.5</ele><time>2026-04-26T08:20:31.015Z</time></trkpt><trkpt lat="43.9463849" lon="12.1336388"><ele>604.6666666666666</ele><time>2026-04-26T08:20:32.006Z</time></trkpt><trkpt lat="43.9462776" lon="12.1336548"><ele>604.8333333333333</ele><time>2026-04-26T08:20:33.01Z</time></trkpt><trkpt lat="43.9461928" lon="12.1336522"><ele>605.0</ele><time>2026-04-26T08:20:34.008Z</time></trkpt><trkpt lat="43.9461083" lon="12.1336371"><ele>605.0</ele><time>2026-04-26T08:20:35.009Z</time></trkpt><trkpt lat="43.9460266" lon="12.1335839"><ele>605.0</ele><time>2026-04-26T08:20:36.013Z</time></trkpt><trkpt lat="43.9459476" lon="12.1335124"><ele>605.0</ele><time>2026-04-26T08:20:37.009Z</time></trkpt><trkpt lat="43.9458682" lon="12.1334159"><ele>605.0</ele><time>2026-04-26T08:20:38.02Z</time></trkpt><trkpt lat="43.9457994" lon="12.1332949"><ele>605.0</ele><time>2026-04-26T08:20:39Z</time></trkpt><trkpt lat="43.9457303" lon="12.1331461"><ele>605.5</ele><time>2026-04-26T08:20:40.016Z</time></trkpt><trkpt lat="43.9456614" lon="12.1329702"><ele>606.0</ele><time>2026-04-26T08:20:40.991Z</time></trkpt><trkpt lat="43.9456083" lon="12.1328171"><ele>606.5</ele><time>2026-04-26T08:20:42.002Z</time></trkpt><trkpt lat="43.9455647" lon="12.1326912"><ele>607.0</ele><time>2026-04-26T08:20:43.003Z</time></trkpt><trkpt lat="43.9455311" lon="12.1325852"><ele>607.0</ele><time>2026-04-26T08:20:44.021Z</time></trkpt><trkpt lat="43.9454988" lon="12.132488"><ele>607.0</ele><time>2026-04-26T08:20:45.034Z</time></trkpt><trkpt lat="43.9454757" lon="12.1323754"><ele>607.0</ele><time>2026-04-26T08:20:46.023Z</time></trkpt><trkpt lat="43.9454678" lon="12.1322635"><ele>607.0</ele><time>2026-04-26T08:20:47.023Z</time></trkpt><trkpt lat="43.9454841" lon="12.1321578"><ele>607.0</ele><time>2026-04-26T08:20:48.023Z</time></trkpt><trkpt lat="43.9454868" lon="12.1320637"><ele>607.0</ele><time>2026-04-26T08:20:49.03Z</time></trkpt><trkpt lat="43.9454951" lon="12.1319741"><ele>606.8000000000001</ele><time>2026-04-26T08:20:50.033Z</time></trkpt><trkpt lat="43.9454961" lon="12.1318545"><ele>606.6</ele><time>2026-04-26T08:20:52.016Z</time></trkpt><trkpt lat="43.9454112" lon="12.1317896"><ele>606.4000000000001</ele><time>2026-04-26T08:20:54.024Z</time></trkpt><trkpt lat="43.9453537" lon="12.1316462"><ele>606.2</ele><time>2026-04-26T08:20:56.034Z</time></trkpt><trkpt lat="43.9453541" lon="12.1315584"><ele>606.0</ele><time>2026-04-26T08:20:57.004Z</time></trkpt><trkpt lat="43.9453168" lon="12.131385"><ele>607.0</ele><time>2026-04-26T08:20:59.004Z</time></trkpt><trkpt lat="43.9452711" lon="12.1312785"><ele>608.0</ele><time>2026-04-26T08:21:00.018Z</time></trkpt><trkpt lat="43.9452448" lon="12.1311444"><ele>609.0</ele><time>2026-04-26T08:21:01.017Z</time></trkpt><trkpt lat="43.9452126" lon="12.13101"><ele>610.0</ele><time>2026-04-26T08:21:02.011Z</time></trkpt><trkpt lat="43.94518" lon="12.1308783"><ele>611.0</ele><time>2026-04-26T08:21:02.998Z</time></trkpt><trkpt lat="43.9451311" lon="12.1307401"><ele>611.75</ele><time>2026-04-26T08:21:04.001Z</time></trkpt><trkpt lat="43.9450836" lon="12.1306004"><ele>612.5</ele><time>2026-04-26T08:21:05.006Z</time></trkpt><trkpt lat="43.9450407" lon="12.1304501"><ele>613.25</ele><time>2026-04-26T08:21:06.028Z</time></trkpt><trkpt lat="43.9450088" lon="12.1302948"><ele>614.0</ele><time>2026-04-26T08:21:07.011Z</time></trkpt><trkpt lat="43.9449817" lon="12.1301412"><ele>618.6</ele><time>2026-04-26T08:21:08.018Z</time></trkpt><trkpt lat="43.9449686" lon="12.129993"><ele>623.2</ele><time>2026-04-26T08:21:08.991Z</time></trkpt><trkpt lat="43.9449433" lon="12.1298646"><ele>627.8000000000001</ele><time>2026-04-26T08:21:10.008Z</time></trkpt><trkpt lat="43.9449033" lon="12.1297382"><ele>632.4</ele><time>2026-04-26T08:21:11.013Z</time></trkpt><trkpt lat="43.9448647" lon="12.1296372"><ele>637.0</ele><time>2026-04-26T08:21:12.014Z</time></trkpt><trkpt lat="43.9448209" lon="12.1295543"><ele>637.4285714285714</ele><time>2026-04-26T08:21:13.002Z</time></trkpt><trkpt lat="43.9447724" lon="12.1294861"><ele>637.8571428571429</ele><time>2026-04-26T08:21:14.002Z</time></trkpt><trkpt lat="43.9447175" lon="12.1294241"><ele>638.2857142857142</ele><time>2026-04-26T08:21:15.009Z</time></trkpt><trkpt lat="43.9446616" lon="12.1293766"><ele>638.7142857142858</ele><time>2026-04-26T08:21:16.011Z</time></trkpt><trkpt lat="43.9445964" lon="12.1293564"><ele>639.1428571428571</ele><time>2026-04-26T08:21:17.004Z</time></trkpt><trkpt lat="43.9445319" lon="12.1293107"><ele>639.5714285714286</ele><time>2026-04-26T08:21:18.008Z</time></trkpt><trkpt lat="43.9444641" lon="12.1292674"><ele>640.0</ele><time>2026-04-26T08:21:19.011Z</time></trkpt><trkpt lat="43.9444267" lon="12.1291828"><ele>638.2</ele><time>2026-04-26T08:21:20.006Z</time></trkpt><trkpt lat="43.9444156" lon="12.1290454"><ele>636.4</ele><time>2026-04-26T08:21:21.001Z</time></trkpt><trkpt lat="43.9444011" lon="12.1289109"><ele>634.6</ele><time>2026-04-26T08:21:22.009Z</time></trkpt><trkpt lat="43.9443985" lon="12.128749"><ele>632.8</ele><time>2026-04-26T08:21:23.004Z</time></trkpt><trkpt lat="43.9443969" lon="12.1285789"><ele>631.0</ele><time>2026-04-26T08:21:24.01Z</time></trkpt><trkpt lat="43.9443871" lon="12.128414"><ele>631.0</ele><time>2026-04-26T08:21:25.016Z</time></trkpt><trkpt lat="43.9443854" lon="12.1282599"><ele>631.0</ele><time>2026-04-26T08:21:26.006Z</time></trkpt><trkpt lat="43.9443917" lon="12.1281241"><ele>631.0</ele><time>2026-04-26T08:21:27.005Z</time></trkpt><trkpt lat="43.9444027" lon="12.1279964"><ele>631.0</ele><time>2026-04-26T08:21:28.008Z</time></trkpt><trkpt lat="43.944406" lon="12.1278659"><ele>631.0</ele><time>2026-04-26T08:21:29.008Z</time></trkpt><trkpt lat="43.9443911" lon="12.1277528"><ele>627.8333333333334</ele><time>2026-04-26T08:21:30.004Z</time></trkpt><trkpt lat="43.9443618" lon="12.1276344"><ele>624.6666666666667</ele><time>2026-04-26T08:21:31.006Z</time></trkpt><trkpt lat="43.9443278" lon="12.1275232"><ele>621.5</ele><time>2026-04-26T08:21:32.009Z</time></trkpt><trkpt lat="43.9442897" lon="12.12741"><ele>618.3333333333334</ele><time>2026-04-26T08:21:33.002Z</time></trkpt><trkpt lat="43.9442401" lon="12.1273025"><ele>615.1666666666666</ele><time>2026-04-26T08:21:34.005Z</time></trkpt><trkpt lat="43.9441854" lon="12.127206"><ele>612.0</ele><time>2026-04-26T08:21:35.004Z</time></trkpt><trkpt lat="43.9441204" lon="12.1271137"><ele>611.6666666666666</ele><time>2026-04-26T08:21:36.008Z</time></trkpt><trkpt lat="43.9440509" lon="12.1270412"><ele>611.3333333333334</ele><time>2026-04-26T08:21:37.001Z</time></trkpt><trkpt lat="43.943976" lon="12.1269824"><ele>611.0</ele><time>2026-04-26T08:21:38.006Z</time></trkpt><trkpt lat="43.9438925" lon="12.1269644"><ele>610.6666666666667</ele><time>2026-04-26T08:21:39.003Z</time></trkpt><trkpt lat="43.9438077" lon="12.1269571"><ele>610.3333333333334</ele><time>2026-04-26T08:21:40.006Z</time></trkpt><trkpt lat="43.9437174" lon="12.1269647"><ele>610.0</ele><time>2026-04-26T08:21:41.037Z</time></trkpt><trkpt lat="43.9436251" lon="12.1269853"><ele>610.0</ele><time>2026-04-26T08:21:42.02Z</time></trkpt><trkpt lat="43.9435336" lon="12.1270222"><ele>610.0</ele><time>2026-04-26T08:21:43.006Z</time></trkpt><trkpt lat="43.9434489" lon="12.1270782"><ele>610.0</ele><time>2026-04-26T08:21:44.013Z</time></trkpt><trkpt lat="43.943371" lon="12.1271471"><ele>610.0</ele><time>2026-04-26T08:21:45.008Z</time></trkpt><trkpt lat="43.9432929" lon="12.1272216"><ele>610.0</ele><time>2026-04-26T08:21:46.013Z</time></trkpt><trkpt lat="43.9432197" lon="12.1272867"><ele>608.0</ele><time>2026-04-26T08:21:47.006Z</time></trkpt><trkpt lat="43.9431378" lon="12.1273303"><ele>606.0</ele><time>2026-04-26T08:21:48.008Z</time></trkpt><trkpt lat="43.9430491" lon="12.1273562"><ele>604.0</ele><time>2026-04-26T08:21:49Z</time></trkpt><trkpt lat="43.9429588" lon="12.1273646"><ele>602.0</ele><time>2026-04-26T08:21:50.016Z</time></trkpt><trkpt lat="43.9428595" lon="12.1273573"><ele>600.0</ele><time>2026-04-26T08:21:51.014Z</time></trkpt><trkpt lat="43.9427585" lon="12.1273458"><ele>600.0</ele><time>2026-04-26T08:21:52.011Z</time></trkpt><trkpt lat="43.9426659" lon="12.1273309"><ele>600.0</ele><time>2026-04-26T08:21:53.011Z</time></trkpt><trkpt lat="43.9425733" lon="12.1272856"><ele>600.0</ele><time>2026-04-26T08:21:54.01Z</time></trkpt><trkpt lat="43.9424868" lon="12.1272275"><ele>600.0</ele><time>2026-04-26T08:21:55.012Z</time></trkpt><trkpt lat="43.9424038" lon="12.1271434"><ele>600.0</ele><time>2026-04-26T08:21:56.007Z</time></trkpt><trkpt lat="43.9423251" lon="12.1270414"><ele>597.5</ele><time>2026-04-26T08:21:57.007Z</time></trkpt><trkpt lat="43.9422434" lon="12.1269284"><ele>595.0</ele><time>2026-04-26T08:21:58.005Z</time></trkpt><trkpt lat="43.9421568" lon="12.1268035"><ele>592.5</ele><time>2026-04-26T08:21:59.015Z</time></trkpt><trkpt lat="43.9420735" lon="12.1266626"><ele>590.0</ele><time>2026-04-26T08:22:00.005Z</time></trkpt><trkpt lat="43.9419968" lon="12.1265284"><ele>588.6</ele><time>2026-04-26T08:22:01.006Z</time></trkpt><trkpt lat="43.941926" lon="12.1264011"><ele>587.2</ele><time>2026-04-26T08:22:02.013Z</time></trkpt><trkpt lat="43.9418606" lon="12.1262753"><ele>585.8</ele><time>2026-04-26T08:22:03.001Z</time></trkpt><trkpt lat="43.9417992" lon="12.1261543"><ele>584.4</ele><time>2026-04-26T08:22:04.008Z</time></trkpt><trkpt lat="43.9417454" lon="12.1260338"><ele>583.0</ele><time>2026-04-26T08:22:05.008Z</time></trkpt><trkpt lat="43.9417147" lon="12.125923"><ele>583.0000000000001</ele><time>2026-04-26T08:22:06.013Z</time></trkpt><trkpt lat="43.941694" lon="12.1258158"><ele>583.0</ele><time>2026-04-26T08:22:07.008Z</time></trkpt><trkpt lat="43.9416601" lon="12.1257259"><ele>583.0</ele><time>2026-04-26T08:22:08.003Z</time></trkpt><trkpt lat="43.9416009" lon="12.1256731"><ele>583.0</ele><time>2026-04-26T08:22:09.004Z</time></trkpt><trkpt lat="43.9415347" lon="12.125662"><ele>583.0</ele><time>2026-04-26T08:22:10.004Z</time></trkpt><trkpt lat="43.9414706" lon="12.1256743"><ele>583.0000000000001</ele><time>2026-04-26T08:22:11.007Z</time></trkpt><trkpt lat="43.9414074" lon="12.1257208"><ele>583.0</ele><time>2026-04-26T08:22:12.014Z</time></trkpt><trkpt lat="43.9413512" lon="12.1257785"><ele>583.0</ele><time>2026-04-26T08:22:13.007Z</time></trkpt><trkpt lat="43.9412878" lon="12.1258541"><ele>583.0</ele><time>2026-04-26T08:22:14.011Z</time></trkpt><trkpt lat="43.9412067" lon="12.1259364"><ele>583.0</ele><time>2026-04-26T08:22:14.999Z</time></trkpt><trkpt lat="43.9411108" lon="12.1260183"><ele>583.0</ele><time>2026-04-26T08:22:15.991Z</time></trkpt><trkpt lat="43.9410133" lon="12.1260995"><ele>583.0</ele><time>2026-04-26T08:22:17Z</time></trkpt><trkpt lat="43.9409331" lon="12.1262105"><ele>583.4</ele><time>2026-04-26T08:22:18.012Z</time></trkpt><trkpt lat="43.9408745" lon="12.1263453"><ele>583.8</ele><time>2026-04-26T08:22:19.004Z</time></trkpt><trkpt lat="43.9408229" lon="12.1264682"><ele>584.2</ele><time>2026-04-26T08:22:20.017Z</time></trkpt><trkpt lat="43.9407791" lon="12.1265923"><ele>584.6</ele><time>2026-04-26T08:22:21.01Z</time></trkpt><trkpt lat="43.940741" lon="12.1267286"><ele>585.0</ele><time>2026-04-26T08:22:22.009Z</time></trkpt><trkpt lat="43.9407205" lon="12.1268687"><ele>585.0</ele><time>2026-04-26T08:22:23.012Z</time></trkpt><trkpt lat="43.9407084" lon="12.1269971"><ele>585.0</ele><time>2026-04-26T08:22:24.006Z</time></trkpt><trkpt lat="43.9406788" lon="12.1271031"><ele>585.0</ele><time>2026-04-26T08:22:25.013Z</time></trkpt><trkpt lat="43.9406153" lon="12.1271838"><ele>585.0</ele><time>2026-04-26T08:22:26.012Z</time></trkpt><trkpt lat="43.9405381" lon="12.1272408"><ele>585.0</ele><time>2026-04-26T08:22:27.011Z</time></trkpt><trkpt lat="43.9404562" lon="12.1272533"><ele>585.0</ele><time>2026-04-26T08:22:28.003Z</time></trkpt><trkpt lat="43.9403769" lon="12.1272485"><ele>585.0</ele><time>2026-04-26T08:22:29.006Z</time></trkpt><trkpt lat="43.9402526" lon="12.1272295"><ele>585.0</ele><time>2026-04-26T08:22:31.011Z</time></trkpt><trkpt lat="43.9401502" lon="12.1271984"><ele>585.0</ele><time>2026-04-26T08:22:33.011Z</time></trkpt><trkpt lat="43.9400617" lon="12.1271443"><ele>585.0</ele><time>2026-04-26T08:22:35.011Z</time></trkpt><trkpt lat="43.9399709" lon="12.1270321"><ele>585.0</ele><time>2026-04-26T08:22:37.011Z</time></trkpt><trkpt lat="43.9399149" lon="12.1269337"><ele>581.5</ele><time>2026-04-26T08:22:38.007Z</time></trkpt><trkpt lat="43.9398487" lon="12.1268151"><ele>578.0</ele><time>2026-04-26T08:22:39.024Z</time></trkpt><trkpt lat="43.9397832" lon="12.12669"><ele>574.5</ele><time>2026-04-26T08:22:40.014Z</time></trkpt><trkpt lat="43.9397328" lon="12.126527"><ele>571.0</ele><time>2026-04-26T08:22:41.009Z</time></trkpt><trkpt lat="43.9396947" lon="12.1263623"><ele>568.2</ele><time>2026-04-26T08:22:42.006Z</time></trkpt><trkpt lat="43.9396429" lon="12.1262167"><ele>565.4000000000001</ele><time>2026-04-26T08:22:43.015Z</time></trkpt><trkpt lat="43.9395866" lon="12.1260966"><ele>562.6</ele><time>2026-04-26T08:22:44.01Z</time></trkpt><trkpt lat="43.9395237" lon="12.1259953"><ele>559.8000000000001</ele><time>2026-04-26T08:22:45.008Z</time></trkpt><trkpt lat="43.9394544" lon="12.1259352"><ele>557.0</ele><time>2026-04-26T08:22:46.014Z</time></trkpt><trkpt lat="43.9393742" lon="12.1259039"><ele>557.0</ele><time>2026-04-26T08:22:47.002Z</time></trkpt><trkpt lat="43.9392842" lon="12.1258958"><ele>557.0</ele><time>2026-04-26T08:22:48.009Z</time></trkpt><trkpt lat="43.939181" lon="12.1258787"><ele>557.0</ele><time>2026-04-26T08:22:49.007Z</time></trkpt><trkpt lat="43.9390662" lon="12.1258701"><ele>557.0</ele><time>2026-04-26T08:22:50.011Z</time></trkpt><trkpt lat="43.9389638" lon="12.1258857"><ele>557.0</ele><time>2026-04-26T08:22:51.022Z</time></trkpt><trkpt lat="43.9388753" lon="12.1259212"><ele>560.6</ele><time>2026-04-26T08:22:52.006Z</time></trkpt><trkpt lat="43.9387877" lon="12.1259423"><ele>564.2</ele><time>2026-04-26T08:22:53.006Z</time></trkpt><trkpt lat="43.9386955" lon="12.1259225"><ele>567.8</ele><time>2026-04-26T08:22:54.003Z</time></trkpt><trkpt lat="43.9386097" lon="12.1258705"><ele>571.4</ele><time>2026-04-26T08:22:55.017Z</time></trkpt><trkpt lat="43.9385126" lon="12.125779"><ele>575.0</ele><time>2026-04-26T08:22:56.012Z</time></trkpt><trkpt lat="43.9384125" lon="12.1256716"><ele>577.0</ele><time>2026-04-26T08:22:57.006Z</time></trkpt><trkpt lat="43.9383119" lon="12.1255566"><ele>579.0</ele><time>2026-04-26T08:22:58.022Z</time></trkpt><trkpt lat="43.9382103" lon="12.1254655"><ele>581.0</ele><time>2026-04-26T08:22:59.003Z</time></trkpt><trkpt lat="43.9381052" lon="12.1253931"><ele>583.0</ele><time>2026-04-26T08:23:00.022Z</time></trkpt><trkpt lat="43.9380005" lon="12.1253286"><ele>583.0</ele><time>2026-04-26T08:23:01.013Z</time></trkpt><trkpt lat="43.9379064" lon="12.1252633"><ele>583.0</ele><time>2026-04-26T08:23:02.016Z</time></trkpt><trkpt lat="43.93783" lon="12.1251811"><ele>583.0</ele><time>2026-04-26T08:23:03.022Z</time></trkpt><trkpt lat="43.9377723" lon="12.1251014"><ele>583.0</ele><time>2026-04-26T08:23:04.034Z</time></trkpt><trkpt lat="43.9377288" lon="12.125008"><ele>583.0</ele><time>2026-04-26T08:23:05.011Z</time></trkpt><trkpt lat="43.9376989" lon="12.1249"><ele>583.0</ele><time>2026-04-26T08:23:06.013Z</time></trkpt><trkpt lat="43.9377006" lon="12.1247804"><ele>582.1999999999999</ele><time>2026-04-26T08:23:07.014Z</time></trkpt><trkpt lat="43.9377099" lon="12.1246601"><ele>581.4</ele><time>2026-04-26T08:23:08.017Z</time></trkpt><trkpt lat="43.9377097" lon="12.124542"><ele>580.5999999999999</ele><time>2026-04-26T08:23:09.005Z</time></trkpt><trkpt lat="43.9376962" lon="12.124409"><ele>579.8</ele><time>2026-04-26T08:23:10.014Z</time></trkpt><trkpt lat="43.9376687" lon="12.1242599"><ele>579.0</ele><time>2026-04-26T08:23:11.036Z</time></trkpt><trkpt lat="43.9376376" lon="12.1241095"><ele>573.4</ele><time>2026-04-26T08:23:12.011Z</time></trkpt><trkpt lat="43.9376056" lon="12.1239482"><ele>567.8</ele><time>2026-04-26T08:23:13.009Z</time></trkpt><trkpt lat="43.9375675" lon="12.1238018"><ele>562.2</ele><time>2026-04-26T08:23:14.017Z</time></trkpt><trkpt lat="43.937524" lon="12.1236718"><ele>556.6</ele><time>2026-04-26T08:23:15.005Z</time></trkpt><trkpt lat="43.937463" lon="12.1235594"><ele>551.0</ele><time>2026-04-26T08:23:16.021Z</time></trkpt><trkpt lat="43.9373897" lon="12.1234641"><ele>551.0</ele><time>2026-04-26T08:23:17.014Z</time></trkpt><trkpt lat="43.9373126" lon="12.123387"><ele>551.0</ele><time>2026-04-26T08:23:18.007Z</time></trkpt><trkpt lat="43.9372421" lon="12.12331"><ele>551.0</ele><time>2026-04-26T08:23:19.009Z</time></trkpt><trkpt lat="43.9372021" lon="12.1232154"><ele>551.0</ele><time>2026-04-26T08:23:20.012Z</time></trkpt><trkpt lat="43.9371746" lon="12.1230973"><ele>551.0</ele><time>2026-04-26T08:23:21.011Z</time></trkpt><trkpt lat="43.937151" lon="12.1229603"><ele>550.5</ele><time>2026-04-26T08:23:22.008Z</time></trkpt><trkpt lat="43.9371259" lon="12.122809"><ele>550.0</ele><time>2026-04-26T08:23:23.005Z</time></trkpt><trkpt lat="43.9370902" lon="12.1226517"><ele>549.5</ele><time>2026-04-26T08:23:24.017Z</time></trkpt><trkpt lat="43.9370488" lon="12.1224954"><ele>549.0</ele><time>2026-04-26T08:23:25.002Z</time></trkpt><trkpt lat="43.9369934" lon="12.1223446"><ele>549.5</ele><time>2026-04-26T08:23:26.023Z</time></trkpt><trkpt lat="43.9369213" lon="12.1221991"><ele>550.0</ele><time>2026-04-26T08:23:27.007Z</time></trkpt><trkpt lat="43.936835" lon="12.1220535"><ele>550.5</ele><time>2026-04-26T08:23:28.006Z</time></trkpt><trkpt lat="43.9367367" lon="12.1219032"><ele>551.0</ele><time>2026-04-26T08:23:29.014Z</time></trkpt><trkpt lat="43.9366383" lon="12.1217501"><ele>551.0</ele><time>2026-04-26T08:23:30.021Z</time></trkpt><trkpt lat="43.9365427" lon="12.1215947"><ele>551.0</ele><time>2026-04-26T08:23:31.027Z</time></trkpt><trkpt lat="43.9364693" lon="12.1214455"><ele>551.0</ele><time>2026-04-26T08:23:32.022Z</time></trkpt><trkpt lat="43.9363963" lon="12.1213226"><ele>551.0</ele><time>2026-04-26T08:23:33.012Z</time></trkpt><trkpt lat="43.9363186" lon="12.1212274"><ele>556.25</ele><time>2026-04-26T08:23:34.016Z</time></trkpt><trkpt lat="43.9362226" lon="12.1211481"><ele>561.5</ele><time>2026-04-26T08:23:35.01Z</time></trkpt><trkpt lat="43.9361232" lon="12.1210951"><ele>566.75</ele><time>2026-04-26T08:23:36.01Z</time></trkpt><trkpt lat="43.9360062" lon="12.1210615"><ele>572.0</ele><time>2026-04-26T08:23:37.009Z</time></trkpt><trkpt lat="43.9358913" lon="12.1210382"><ele>571.0</ele><time>2026-04-26T08:23:38.019Z</time></trkpt><trkpt lat="43.9357869" lon="12.1210006"><ele>570.0</ele><time>2026-04-26T08:23:39.004Z</time></trkpt><trkpt lat="43.9356822" lon="12.1209502"><ele>569.0</ele><time>2026-04-26T08:23:40.009Z</time></trkpt><trkpt lat="43.9355788" lon="12.1208983"><ele>568.0</ele><time>2026-04-26T08:23:41.002Z</time></trkpt><trkpt lat="43.9354913" lon="12.1208719"><ele>567.0</ele><time>2026-04-26T08:23:42.016Z</time></trkpt><trkpt lat="43.9354026" lon="12.1208818"><ele>567.0</ele><time>2026-04-26T08:23:43.01Z</time></trkpt><trkpt lat="43.9353264" lon="12.1209007"><ele>567.0</ele><time>2026-04-26T08:23:44.014Z</time></trkpt><trkpt lat="43.9352524" lon="12.1209074"><ele>567.0</ele><time>2026-04-26T08:23:45.016Z</time></trkpt><trkpt lat="43.9351901" lon="12.1208841"><ele>567.0</ele><time>2026-04-26T08:23:46.024Z</time></trkpt><trkpt lat="43.9351403" lon="12.1208262"><ele>567.0</ele><time>2026-04-26T08:23:47.009Z</time></trkpt><trkpt lat="43.9351155" lon="12.1207394"><ele>567.0</ele><time>2026-04-26T08:23:48.037Z</time></trkpt><trkpt lat="43.9351142" lon="12.1206305"><ele>567.0</ele><time>2026-04-26T08:23:49.009Z</time></trkpt><trkpt lat="43.9351363" lon="12.120525"><ele>565.3333333333334</ele><time>2026-04-26T08:23:50.014Z</time></trkpt><trkpt lat="43.9351622" lon="12.1204302"><ele>563.6666666666666</ele><time>2026-04-26T08:23:51.019Z</time></trkpt><trkpt lat="43.9352046" lon="12.1203369"><ele>562.0</ele><time>2026-04-26T08:23:52.018Z</time></trkpt><trkpt lat="43.9352586" lon="12.1202666"><ele>560.3333333333333</ele><time>2026-04-26T08:23:53.012Z</time></trkpt><trkpt lat="43.93533" lon="12.120215"><ele>558.6666666666666</ele><time>2026-04-26T08:23:54.044Z</time></trkpt><trkpt lat="43.9354188" lon="12.1201712"><ele>557.0</ele><time>2026-04-26T08:23:55.029Z</time></trkpt><trkpt lat="43.9355074" lon="12.1201279"><ele>557.0</ele><time>2026-04-26T08:23:56.029Z</time></trkpt><trkpt lat="43.9355863" lon="12.12009"><ele>557.0</ele><time>2026-04-26T08:23:57.014Z</time></trkpt><trkpt lat="43.9356644" lon="12.1200613"><ele>557.0</ele><time>2026-04-26T08:23:58.014Z</time></trkpt><trkpt lat="43.9357415" lon="12.1200363"><ele>557.0</ele><time>2026-04-26T08:23:59.013Z</time></trkpt><trkpt lat="43.9358128" lon="12.1200077"><ele>557.0</ele><time>2026-04-26T08:24:00.01Z</time></trkpt><trkpt lat="43.935887" lon="12.1199704"><ele>557.0</ele><time>2026-04-26T08:24:01.012Z</time></trkpt><trkpt lat="43.9359629" lon="12.1199048"><ele>556.5</ele><time>2026-04-26T08:24:02.005Z</time></trkpt><trkpt lat="43.9360467" lon="12.1198282"><ele>556.0</ele><time>2026-04-26T08:24:03.012Z</time></trkpt><trkpt lat="43.9361302" lon="12.1197287"><ele>555.5</ele><time>2026-04-26T08:24:04.015Z</time></trkpt><trkpt lat="43.9362201" lon="12.1196293"><ele>555.0</ele><time>2026-04-26T08:24:05.012Z</time></trkpt><trkpt lat="43.9363382" lon="12.1195441"><ele>555.0</ele><time>2026-04-26T08:24:06.013Z</time></trkpt><trkpt lat="43.9364333" lon="12.119431"><ele>555.0</ele><time>2026-04-26T08:24:07.019Z</time></trkpt><trkpt lat="43.9365171" lon="12.1193085"><ele>555.0</ele><time>2026-04-26T08:24:08.01Z</time></trkpt><trkpt lat="43.9365944" lon="12.1191754"><ele>555.0</ele><time>2026-04-26T08:24:09.006Z</time></trkpt><trkpt lat="43.9366567" lon="12.1190475"><ele>555.0</ele><time>2026-04-26T08:24:10.026Z</time></trkpt><trkpt lat="43.9367057" lon="12.1189261"><ele>555.0</ele><time>2026-04-26T08:24:11.016Z</time></trkpt><trkpt lat="43.9367638" lon="12.1188166"><ele>555.0</ele><time>2026-04-26T08:24:12.017Z</time></trkpt><trkpt lat="43.9367995" lon="12.1187278"><ele>555.0</ele><time>2026-04-26T08:24:13.038Z</time></trkpt><trkpt lat="43.9368468" lon="12.1185687"><ele>555.0</ele><time>2026-04-26T08:24:15.007Z</time></trkpt><trkpt lat="43.9369127" lon="12.1184478"><ele>555.0</ele><time>2026-04-26T08:24:17.011Z</time></trkpt><trkpt lat="43.9370119" lon="12.1183745"><ele>555.0</ele><time>2026-04-26T08:24:19.014Z</time></trkpt><trkpt lat="43.9371184" lon="12.1183558"><ele>555.0</ele><time>2026-04-26T08:24:21.01Z</time></trkpt><trkpt lat="43.9371894" lon="12.1183611"><ele>555.0</ele><time>2026-04-26T08:24:22.028Z</time></trkpt><trkpt lat="43.9372798" lon="12.1183622"><ele>555.0</ele><time>2026-04-26T08:24:23.019Z</time></trkpt><trkpt lat="43.9373629" lon="12.1183365"><ele>555.0</ele><time>2026-04-26T08:24:24.017Z</time></trkpt><trkpt lat="43.9374393" lon="12.11828"><ele>555.0</ele><time>2026-04-26T08:24:25.018Z</time></trkpt><trkpt lat="43.9375051" lon="12.1182112"><ele>555.0</ele><time>2026-04-26T08:24:26.005Z</time></trkpt><trkpt lat="43.9375645" lon="12.1181171"><ele>555.0</ele><time>2026-04-26T08:24:27.012Z</time></trkpt><trkpt lat="43.9376094" lon="12.1180148"><ele>555.0</ele><time>2026-04-26T08:24:28.021Z</time></trkpt><trkpt lat="43.937648" lon="12.1178882"><ele>555.0</ele><time>2026-04-26T08:24:29.03Z</time></trkpt><trkpt lat="43.9376679" lon="12.1177607"><ele>554.1666666666666</ele><time>2026-04-26T08:24:30.015Z</time></trkpt><trkpt lat="43.9376818" lon="12.1176376"><ele>553.3333333333334</ele><time>2026-04-26T08:24:31.016Z</time></trkpt><trkpt lat="43.9376983" lon="12.1175245"><ele>552.5</ele><time>2026-04-26T08:24:32.015Z</time></trkpt><trkpt lat="43.9377321" lon="12.1174388"><ele>551.6666666666667</ele><time>2026-04-26T08:24:33.006Z</time></trkpt><trkpt lat="43.9378124" lon="12.1173218"><ele>550.8333333333334</ele><time>2026-04-26T08:24:35.014Z</time></trkpt><trkpt lat="43.9378864" lon="12.1172945"><ele>550.0</ele><time>2026-04-26T08:24:36.017Z</time></trkpt><trkpt lat="43.9379743" lon="12.1172917"><ele>547.2</ele><time>2026-04-26T08:24:37.01Z</time></trkpt><trkpt lat="43.9380628" lon="12.1172804"><ele>544.4</ele><time>2026-04-26T08:24:38.013Z</time></trkpt><trkpt lat="43.9381506" lon="12.1172423"><ele>541.6</ele><time>2026-04-26T08:24:39.019Z</time></trkpt><trkpt lat="43.9382306" lon="12.1171871"><ele>538.8</ele><time>2026-04-26T08:24:40.008Z</time></trkpt><trkpt lat="43.9382931" lon="12.117106"><ele>536.0</ele><time>2026-04-26T08:24:41.005Z</time></trkpt><trkpt lat="43.9383528" lon="12.1169977"><ele>536.75</ele><time>2026-04-26T08:24:42.013Z</time></trkpt><trkpt lat="43.9384" lon="12.1168594"><ele>537.5</ele><time>2026-04-26T08:24:43.012Z</time></trkpt><trkpt lat="43.938434" lon="12.1167043"><ele>538.25</ele><time>2026-04-26T08:24:44.006Z</time></trkpt><trkpt lat="43.938465" lon="12.1165491"><ele>539.0</ele><time>2026-04-26T08:24:45.01Z</time></trkpt><trkpt lat="43.9384779" lon="12.1163842"><ele>538.25</ele><time>2026-04-26T08:24:46.015Z</time></trkpt><trkpt lat="43.9384799" lon="12.1162232"><ele>537.5</ele><time>2026-04-26T08:24:47.005Z</time></trkpt><trkpt lat="43.9384943" lon="12.1160559"><ele>536.75</ele><time>2026-04-26T08:24:48.013Z</time></trkpt><trkpt lat="43.9385198" lon="12.1158758"><ele>536.0</ele><time>2026-04-26T08:24:49.009Z</time></trkpt><trkpt lat="43.9385499" lon="12.1156914"><ele>536.0</ele><time>2026-04-26T08:24:50.017Z</time></trkpt><trkpt lat="43.9385864" lon="12.1154888"><ele>536.0</ele><time>2026-04-26T08:24:51.005Z</time></trkpt><trkpt lat="43.9386217" lon="12.1152841"><ele>536.0</ele><time>2026-04-26T08:24:52.023Z</time></trkpt><trkpt lat="43.9386594" lon="12.1150921"><ele>536.0</ele><time>2026-04-26T08:24:53.01Z</time></trkpt><trkpt lat="43.9386915" lon="12.1149075"><ele>540.0</ele><time>2026-04-26T08:24:54.014Z</time></trkpt><trkpt lat="43.9387097" lon="12.1147361"><ele>544.0</ele><time>2026-04-26T08:24:55.018Z</time></trkpt><trkpt lat="43.9387192" lon="12.1145577"><ele>548.0</ele><time>2026-04-26T08:24:56.02Z</time></trkpt><trkpt lat="43.9387283" lon="12.1143657"><ele>552.0</ele><time>2026-04-26T08:24:57.009Z</time></trkpt><trkpt lat="43.938746" lon="12.1141536"><ele>550.8000000000001</ele><time>2026-04-26T08:24:58.011Z</time></trkpt><trkpt lat="43.9387561" lon="12.1139823"><ele>549.6</ele><time>2026-04-26T08:24:59.011Z</time></trkpt><trkpt lat="43.9387729" lon="12.1138467"><ele>548.4000000000001</ele><time>2026-04-26T08:25:00.013Z</time></trkpt><trkpt lat="43.9388019" lon="12.1137212"><ele>547.2</ele><time>2026-04-26T08:25:01.02Z</time></trkpt><trkpt lat="43.9388594" lon="12.1136034"><ele>546.0</ele><time>2026-04-26T08:25:02.026Z</time></trkpt><trkpt lat="43.9389355" lon="12.1135212"><ele>546.0</ele><time>2026-04-26T08:25:03.01Z</time></trkpt><trkpt lat="43.9390231" lon="12.1134486"><ele>546.0</ele><time>2026-04-26T08:25:04.018Z</time></trkpt><trkpt lat="43.9391256" lon="12.1133825"><ele>546.0</ele><time>2026-04-26T08:25:05.007Z</time></trkpt><trkpt lat="43.9392366" lon="12.1133136"><ele>546.0</ele><time>2026-04-26T08:25:06.014Z</time></trkpt><trkpt lat="43.9393393" lon="12.1132333"><ele>543.0</ele><time>2026-04-26T08:25:07.01Z</time></trkpt><trkpt lat="43.9394283" lon="12.1131315"><ele>540.0</ele><time>2026-04-26T08:25:08.013Z</time></trkpt><trkpt lat="43.9395033" lon="12.1130129"><ele>537.0</ele><time>2026-04-26T08:25:09.005Z</time></trkpt><trkpt lat="43.9395651" lon="12.1128787"><ele>534.0</ele><time>2026-04-26T08:25:10.015Z</time></trkpt><trkpt lat="43.9396166" lon="12.1127439"><ele>534.0</ele><time>2026-04-26T08:25:11.007Z</time></trkpt><trkpt lat="43.9396698" lon="12.1125821"><ele>534.0</ele><time>2026-04-26T08:25:12.019Z</time></trkpt><trkpt lat="43.9397214" lon="12.1123892"><ele>534.0</ele><time>2026-04-26T08:25:13.02Z</time></trkpt><trkpt lat="43.9397707" lon="12.112177"><ele>534.0</ele><time>2026-04-26T08:25:14.017Z</time></trkpt><trkpt lat="43.939818" lon="12.1119558"><ele>534.3333333333334</ele><time>2026-04-26T08:25:15.004Z</time></trkpt><trkpt lat="43.9398667" lon="12.1117481"><ele>534.6666666666667</ele><time>2026-04-26T08:25:16.013Z</time></trkpt><trkpt lat="43.9399222" lon="12.1115293"><ele>535.0</ele><time>2026-04-26T08:25:17.009Z</time></trkpt><trkpt lat="43.939978" lon="12.111321"><ele>535.25</ele><time>2026-04-26T08:25:18.015Z</time></trkpt><trkpt lat="43.9400197" lon="12.1111244"><ele>535.5</ele><time>2026-04-26T08:25:19.016Z</time></trkpt><trkpt lat="43.9400359" lon="12.1109442"><ele>535.75</ele><time>2026-04-26T08:25:20.02Z</time></trkpt><trkpt lat="43.9400407" lon="12.1107663"><ele>536.0</ele><time>2026-04-26T08:25:21.018Z</time></trkpt><trkpt lat="43.9400391" lon="12.1106044"><ele>537.8</ele><time>2026-04-26T08:25:21.998Z</time></trkpt><trkpt lat="43.94005" lon="12.1104734"><ele>539.6</ele><time>2026-04-26T08:25:23.012Z</time></trkpt><trkpt lat="43.9400876" lon="12.1103743"><ele>541.4</ele><time>2026-04-26T08:25:24.015Z</time></trkpt><trkpt lat="43.9401497" lon="12.1102695"><ele>543.2</ele><time>2026-04-26T08:25:25.026Z</time></trkpt><trkpt lat="43.9402201" lon="12.1101718"><ele>545.0</ele><time>2026-04-26T08:25:26.017Z</time></trkpt><trkpt lat="43.9402919" lon="12.1100657"><ele>545.0</ele><time>2026-04-26T08:25:27.008Z</time></trkpt><trkpt lat="43.9403559" lon="12.1099583"><ele>545.0</ele><time>2026-04-26T08:25:28.011Z</time></trkpt><trkpt lat="43.9403979" lon="12.1098473"><ele>545.0</ele><time>2026-04-26T08:25:29.007Z</time></trkpt><trkpt lat="43.9404286" lon="12.1097175"><ele>545.0</ele><time>2026-04-26T08:25:30.018Z</time></trkpt><trkpt lat="43.9404431" lon="12.109584"><ele>545.0</ele><time>2026-04-26T08:25:31.011Z</time></trkpt><trkpt lat="43.9404347" lon="12.1094447"><ele>546.6</ele><time>2026-04-26T08:25:32.007Z</time></trkpt><trkpt lat="43.9404124" lon="12.1093178"><ele>548.2</ele><time>2026-04-26T08:25:33.006Z</time></trkpt><trkpt lat="43.940378" lon="12.1091744"><ele>549.8</ele><time>2026-04-26T08:25:34.024Z</time></trkpt><trkpt lat="43.9403678" lon="12.1090232"><ele>551.4</ele><time>2026-04-26T08:25:35.009Z</time></trkpt><trkpt lat="43.940389" lon="12.1088639"><ele>553.0</ele><time>2026-04-26T08:25:36.007Z</time></trkpt><trkpt lat="43.9404238" lon="12.108707"><ele>553.0</ele><time>2026-04-26T08:25:37.012Z</time></trkpt><trkpt lat="43.9404615" lon="12.1085695"><ele>553.0</ele><time>2026-04-26T08:25:38.011Z</time></trkpt><trkpt lat="43.9404852" lon="12.1084576"><ele>553.0</ele><time>2026-04-26T08:25:39.013Z</time></trkpt><trkpt lat="43.9404783" lon="12.1083493"><ele>553.0</ele><time>2026-04-26T08:25:40.012Z</time></trkpt><trkpt lat="43.9404583" lon="12.1082376"><ele>553.0</ele><time>2026-04-26T08:25:41.013Z</time></trkpt><trkpt lat="43.9404127" lon="12.108115"><ele>555.0</ele><time>2026-04-26T08:25:42.011Z</time></trkpt><trkpt lat="43.9403567" lon="12.1079928"><ele>557.0</ele><time>2026-04-26T08:25:43.009Z</time></trkpt><trkpt lat="43.9402995" lon="12.1078706"><ele>559.0</ele><time>2026-04-26T08:25:43.998Z</time></trkpt><trkpt lat="43.9402514" lon="12.1077476"><ele>561.0</ele><time>2026-04-26T08:25:45.008Z</time></trkpt><trkpt lat="43.9402285" lon="12.1076213"><ele>563.0</ele><time>2026-04-26T08:25:46.006Z</time></trkpt><trkpt lat="43.9402156" lon="12.107474"><ele>565.8</ele><time>2026-04-26T08:25:47.006Z</time></trkpt><trkpt lat="43.9402136" lon="12.1073252"><ele>568.5999999999999</ele><time>2026-04-26T08:25:48.01Z</time></trkpt><trkpt lat="43.9402077" lon="12.1071722"><ele>571.4000000000001</ele><time>2026-04-26T08:25:49.013Z</time></trkpt><trkpt lat="43.9401987" lon="12.1070354"><ele>574.2</ele><time>2026-04-26T08:25:50.027Z</time></trkpt><trkpt lat="43.940211" lon="12.1069018"><ele>577.0</ele><time>2026-04-26T08:25:51.003Z</time></trkpt><trkpt lat="43.9402265" lon="12.1067828"><ele>577.0</ele><time>2026-04-26T08:25:52.009Z</time></trkpt><trkpt lat="43.9402144" lon="12.106681"><ele>577.0</ele><time>2026-04-26T08:25:53.01Z</time></trkpt><trkpt lat="43.9401751" lon="12.106583"><ele>577.0</ele><time>2026-04-26T08:25:54.01Z</time></trkpt><trkpt lat="43.9401337" lon="12.1064897"><ele>577.0</ele><time>2026-04-26T08:25:55.008Z</time></trkpt><trkpt lat="43.9401067" lon="12.1063972"><ele>577.0</ele><time>2026-04-26T08:25:56.008Z</time></trkpt><trkpt lat="43.9400972" lon="12.1062978"><ele>577.0</ele><time>2026-04-26T08:25:57.017Z</time></trkpt><trkpt lat="43.9401183" lon="12.1061854"><ele>576.0</ele><time>2026-04-26T08:25:58.013Z</time></trkpt><trkpt lat="43.9401569" lon="12.1060639"><ele>575.0</ele><time>2026-04-26T08:25:59.009Z</time></trkpt><trkpt lat="43.9401969" lon="12.1059333"><ele>574.0</ele><time>2026-04-26T08:26:00.004Z</time></trkpt><trkpt lat="43.9402443" lon="12.1058184"><ele>573.0</ele><time>2026-04-26T08:26:01.014Z</time></trkpt><trkpt lat="43.940307" lon="12.1057047"><ele>572.0</ele><time>2026-04-26T08:26:02.011Z</time></trkpt><trkpt lat="43.9403695" lon="12.1055873"><ele>572.2</ele><time>2026-04-26T08:26:03.023Z</time></trkpt><trkpt lat="43.940416" lon="12.1054777"><ele>572.4000000000001</ele><time>2026-04-26T08:26:04.011Z</time></trkpt><trkpt lat="43.9404414" lon="12.1053426"><ele>572.5999999999999</ele><time>2026-04-26T08:26:05.013Z</time></trkpt><trkpt lat="43.9404505" lon="12.1051871"><ele>572.8</ele><time>2026-04-26T08:26:06.012Z</time></trkpt><trkpt lat="43.9404466" lon="12.1050304"><ele>573.0</ele><time>2026-04-26T08:26:07.008Z</time></trkpt><trkpt lat="43.9404365" lon="12.1048665"><ele>573.0</ele><time>2026-04-26T08:26:08.015Z</time></trkpt><trkpt lat="43.9404244" lon="12.104714"><ele>573.0</ele><time>2026-04-26T08:26:09.022Z</time></trkpt><trkpt lat="43.9404075" lon="12.1045712"><ele>573.0</ele><time>2026-04-26T08:26:10.018Z</time></trkpt><trkpt lat="43.9403909" lon="12.1044325"><ele>573.0</ele><time>2026-04-26T08:26:11.011Z</time></trkpt><trkpt lat="43.9403683" lon="12.1043174"><ele>573.0</ele><time>2026-04-26T08:26:12.015Z</time></trkpt><trkpt lat="43.9403372" lon="12.1042148"><ele>573.0</ele><time>2026-04-26T08:26:13.01Z</time></trkpt><trkpt lat="43.9402922" lon="12.1041135"><ele>573.0</ele><time>2026-04-26T08:26:14.013Z</time></trkpt><trkpt lat="43.9402453" lon="12.1040007"><ele>573.0</ele><time>2026-04-26T08:26:15.03Z</time></trkpt><trkpt lat="43.9402039" lon="12.1038668"><ele>573.0</ele><time>2026-04-26T08:26:16.017Z</time></trkpt><trkpt lat="43.9401705" lon="12.1037421"><ele>573.0</ele><time>2026-04-26T08:26:17Z</time></trkpt><trkpt lat="43.9401192" lon="12.1036433"><ele>574.8333333333334</ele><time>2026-04-26T08:26:18.016Z</time></trkpt><trkpt lat="43.9400511" lon="12.1035719"><ele>576.6666666666666</ele><time>2026-04-26T08:26:19.011Z</time></trkpt><trkpt lat="43.9399775" lon="12.1035102"><ele>578.5</ele><time>2026-04-26T08:26:20.019Z</time></trkpt><trkpt lat="43.9399039" lon="12.1034421"><ele>580.3333333333333</ele><time>2026-04-26T08:26:21.017Z</time></trkpt><trkpt lat="43.9398507" lon="12.1033819"><ele>582.1666666666666</ele><time>2026-04-26T08:26:22.008Z</time></trkpt><trkpt lat="43.9398303" lon="12.1032884"><ele>584.0</ele><time>2026-04-26T08:26:24.014Z</time></trkpt><trkpt lat="43.9398407" lon="12.1031963"><ele>586.0</ele><time>2026-04-26T08:26:33.004Z</time></trkpt><trkpt lat="43.9399032" lon="12.1030347"><ele>588.0</ele><time>2026-04-26T08:26:35.009Z</time></trkpt><trkpt lat="43.9399315" lon="12.1029492"><ele>590.0</ele><time>2026-04-26T08:26:36.011Z</time></trkpt><trkpt lat="43.9399511" lon="12.1028575"><ele>592.0</ele><time>2026-04-26T08:26:37.007Z</time></trkpt><trkpt lat="43.9399616" lon="12.1027402"><ele>594.0</ele><time>2026-04-26T08:26:38.014Z</time></trkpt><trkpt lat="43.9399698" lon="12.1026114"><ele>596.0</ele><time>2026-04-26T08:26:38.999Z</time></trkpt><trkpt lat="43.9399719" lon="12.1024805"><ele>596.1666666666666</ele><time>2026-04-26T08:26:40.016Z</time></trkpt><trkpt lat="43.9399797" lon="12.1023696"><ele>596.3333333333333</ele><time>2026-04-26T08:26:41.012Z</time></trkpt><trkpt lat="43.9399973" lon="12.1022762"><ele>596.5</ele><time>2026-04-26T08:26:42.017Z</time></trkpt><trkpt lat="43.940013" lon="12.1021845"><ele>596.6666666666666</ele><time>2026-04-26T08:26:43.009Z</time></trkpt><trkpt lat="43.9400167" lon="12.102085"><ele>596.8333333333334</ele><time>2026-04-26T08:26:44.015Z</time></trkpt><trkpt lat="43.9400092" lon="12.1019777"><ele>597.0</ele><time>2026-04-26T08:26:45.011Z</time></trkpt><trkpt lat="43.9399969" lon="12.1018513"><ele>597.0</ele><time>2026-04-26T08:26:46.014Z</time></trkpt><trkpt lat="43.9399772" lon="12.1017048"><ele>597.0</ele><time>2026-04-26T08:26:47.009Z</time></trkpt><trkpt lat="43.9399752" lon="12.1015757"><ele>597.0</ele><time>2026-04-26T08:26:48.015Z</time></trkpt><trkpt lat="43.9400011" lon="12.1014644"><ele>597.0</ele><time>2026-04-26T08:26:49.019Z</time></trkpt><trkpt lat="43.9400442" lon="12.1013733"><ele>597.0</ele><time>2026-04-26T08:26:50.019Z</time></trkpt><trkpt lat="43.9400833" lon="12.1012919"><ele>597.0</ele><time>2026-04-26T08:26:51.024Z</time></trkpt><trkpt lat="43.9401176" lon="12.1011282"><ele>598.2</ele><time>2026-04-26T08:26:53.003Z</time></trkpt><trkpt lat="43.9400804" lon="12.1009434"><ele>599.4000000000001</ele><time>2026-04-26T08:26:55.008Z</time></trkpt><trkpt lat="43.9400281" lon="12.1008249"><ele>600.5999999999999</ele><time>2026-04-26T08:26:56.009Z</time></trkpt><trkpt lat="43.9399727" lon="12.1007121"><ele>601.8</ele><time>2026-04-26T08:26:57.005Z</time></trkpt><trkpt lat="43.9399376" lon="12.1006006"><ele>603.0</ele><time>2026-04-26T08:26:58.015Z</time></trkpt><trkpt lat="43.9399269" lon="12.1004932"><ele>604.6</ele><time>2026-04-26T08:26:59.007Z</time></trkpt><trkpt lat="43.9399286" lon="12.1003767"><ele>606.1999999999999</ele><time>2026-04-26T08:27:00.015Z</time></trkpt><trkpt lat="43.9399224" lon="12.1002502"><ele>607.8</ele><time>2026-04-26T08:27:01.013Z</time></trkpt><trkpt lat="43.9398965" lon="12.1001223"><ele>609.4</ele><time>2026-04-26T08:27:02.014Z</time></trkpt><trkpt lat="43.9398539" lon="12.0999922"><ele>611.0</ele><time>2026-04-26T08:27:03.013Z</time></trkpt><trkpt lat="43.9398001" lon="12.0998707"><ele>614.4</ele><time>2026-04-26T08:27:04.014Z</time></trkpt><trkpt lat="43.9397447" lon="12.0997594"><ele>617.8</ele><time>2026-04-26T08:27:05.008Z</time></trkpt><trkpt lat="43.9396964" lon="12.0996453"><ele>621.1999999999999</ele><time>2026-04-26T08:27:06.008Z</time></trkpt><trkpt lat="43.9396556" lon="12.0995357"><ele>624.6</ele><time>2026-04-26T08:27:07.006Z</time></trkpt><trkpt lat="43.939633" lon="12.0994154"><ele>628.0</ele><time>2026-04-26T08:27:08.017Z</time></trkpt><trkpt lat="43.9395935" lon="12.0992719"><ele>628.0</ele><time>2026-04-26T08:27:08.998Z</time></trkpt><trkpt lat="43.9395525" lon="12.099136"><ele>628.0</ele><time>2026-04-26T08:27:10.021Z</time></trkpt><trkpt lat="43.939506" lon="12.0990043"><ele>628.0</ele><time>2026-04-26T08:27:11.008Z</time></trkpt><trkpt lat="43.9394632" lon="12.0988939"><ele>628.0</ele><time>2026-04-26T08:27:12.011Z</time></trkpt><trkpt lat="43.9394232" lon="12.0987951"><ele>628.0</ele><time>2026-04-26T08:27:13.009Z</time></trkpt><trkpt lat="43.9393544" lon="12.0986957"><ele>630.0</ele><time>2026-04-26T08:27:14.009Z</time></trkpt><trkpt lat="43.9392614" lon="12.0986103"><ele>632.0</ele><time>2026-04-26T08:27:15.003Z</time></trkpt><trkpt lat="43.9391458" lon="12.0985153"><ele>634.0</ele><time>2026-04-26T08:27:16.032Z</time></trkpt><trkpt lat="43.9390138" lon="12.0984137"><ele>636.0</ele><time>2026-04-26T08:27:17.014Z</time></trkpt><trkpt lat="43.9388877" lon="12.0983236"><ele>627.8</ele><time>2026-04-26T08:27:18.014Z</time></trkpt><trkpt lat="43.9387751" lon="12.0982451"><ele>619.6</ele><time>2026-04-26T08:27:19.013Z</time></trkpt><trkpt lat="43.9386827" lon="12.0981935"><ele>611.4</ele><time>2026-04-26T08:27:20.008Z</time></trkpt><trkpt lat="43.9386" lon="12.0981805"><ele>603.2</ele><time>2026-04-26T08:27:21.009Z</time></trkpt><trkpt lat="43.9385174" lon="12.0982015"><ele>595.0</ele><time>2026-04-26T08:27:22.012Z</time></trkpt><trkpt lat="43.9384306" lon="12.0982422"><ele>597.1666666666667</ele><time>2026-04-26T08:27:23.013Z</time></trkpt><trkpt lat="43.9383544" lon="12.0982929"><ele>599.3333333333334</ele><time>2026-04-26T08:27:24.027Z</time></trkpt><trkpt lat="43.9382887" lon="12.098288"><ele>601.5</ele><time>2026-04-26T08:27:25.012Z</time></trkpt><trkpt lat="43.9382014" lon="12.0981819"><ele>603.6666666666666</ele><time>2026-04-26T08:27:27.006Z</time></trkpt><trkpt lat="43.9381635" lon="12.0981062"><ele>605.8333333333333</ele><time>2026-04-26T08:27:28.014Z</time></trkpt><trkpt lat="43.9381161" lon="12.0980152"><ele>608.0</ele><time>2026-04-26T08:27:29.011Z</time></trkpt><trkpt lat="43.9380531" lon="12.0979485"><ele>608.0</ele><time>2026-04-26T08:27:30.016Z</time></trkpt><trkpt lat="43.9379692" lon="12.0978934"><ele>608.0</ele><time>2026-04-26T08:27:31.009Z</time></trkpt><trkpt lat="43.9378835" lon="12.0978446"><ele>608.0</ele><time>2026-04-26T08:27:32.012Z</time></trkpt><trkpt lat="43.9378008" lon="12.0978106"><ele>608.0</ele><time>2026-04-26T08:27:33.01Z</time></trkpt><trkpt lat="43.9377213" lon="12.0977666"><ele>608.0</ele><time>2026-04-26T08:27:34.013Z</time></trkpt><trkpt lat="43.937645" lon="12.0976993"><ele>608.0</ele><time>2026-04-26T08:27:35.008Z</time></trkpt><trkpt lat="43.9375736" lon="12.0976061"><ele>612.4</ele><time>2026-04-26T08:27:36.026Z</time></trkpt><trkpt lat="43.9375084" lon="12.097509"><ele>616.8</ele><time>2026-04-26T08:27:37.005Z</time></trkpt><trkpt lat="43.9374311" lon="12.0974138"><ele>621.2</ele><time>2026-04-26T08:27:38.016Z</time></trkpt><trkpt lat="43.9373414" lon="12.0973418"><ele>625.6</ele><time>2026-04-26T08:27:39.005Z</time></trkpt><trkpt lat="43.9372399" lon="12.0972989"><ele>630.0</ele><time>2026-04-26T08:27:40.008Z</time></trkpt><trkpt lat="43.9371388" lon="12.0972628"><ele>630.6</ele><time>2026-04-26T08:27:41.005Z</time></trkpt><trkpt lat="43.9370267" lon="12.0972303"><ele>631.2</ele><time>2026-04-26T08:27:42.011Z</time></trkpt><trkpt lat="43.9369127" lon="12.0971979"><ele>631.8</ele><time>2026-04-26T08:27:43.028Z</time></trkpt><trkpt lat="43.9368109" lon="12.0971621"><ele>632.4</ele><time>2026-04-26T08:27:44.009Z</time></trkpt><trkpt lat="43.9367145" lon="12.0971376"><ele>633.0</ele><time>2026-04-26T08:27:45.008Z</time></trkpt><trkpt lat="43.9366178" lon="12.0971278"><ele>636.7142857142857</ele><time>2026-04-26T08:27:46.007Z</time></trkpt><trkpt lat="43.9365287" lon="12.0971349"><ele>640.4285714285714</ele><time>2026-04-26T08:27:47.005Z</time></trkpt><trkpt lat="43.9364567" lon="12.0971432"><ele>644.1428571428571</ele><time>2026-04-26T08:27:48.008Z</time></trkpt><trkpt lat="43.9363882" lon="12.0971611"><ele>647.8571428571429</ele><time>2026-04-26T08:27:49.005Z</time></trkpt><trkpt lat="43.9363182" lon="12.0972039"><ele>651.5714285714286</ele><time>2026-04-26T08:27:50.011Z</time></trkpt><trkpt lat="43.9362545" lon="12.0972374"><ele>655.2857142857143</ele><time>2026-04-26T08:27:51.006Z</time></trkpt><trkpt lat="43.9361922" lon="12.0972593"><ele>659.0</ele><time>2026-04-26T08:27:52.013Z</time></trkpt><trkpt lat="43.936094" lon="12.0972059"><ele>659.0</ele><time>2026-04-26T08:27:54.025Z</time></trkpt><trkpt lat="43.9360457" lon="12.0971409"><ele>659.0</ele><time>2026-04-26T08:27:55.003Z</time></trkpt><trkpt lat="43.9359938" lon="12.0970585"><ele>659.0</ele><time>2026-04-26T08:27:56.009Z</time></trkpt><trkpt lat="43.9359404" lon="12.0969434"><ele>659.0</ele><time>2026-04-26T08:27:57.004Z</time></trkpt><trkpt lat="43.9358969" lon="12.0968155"><ele>659.0</ele><time>2026-04-26T08:27:58.004Z</time></trkpt><trkpt lat="43.9358557" lon="12.0966845"><ele>659.0</ele><time>2026-04-26T08:27:59.005Z</time></trkpt><trkpt lat="43.9358138" lon="12.0965607"><ele>655.8333333333333</ele><time>2026-04-26T08:28:00.014Z</time></trkpt><trkpt lat="43.9357731" lon="12.0964551"><ele>652.6666666666666</ele><time>2026-04-26T08:28:01.012Z</time></trkpt><trkpt lat="43.9357303" lon="12.0963683"><ele>649.5</ele><time>2026-04-26T08:28:02.027Z</time></trkpt><trkpt lat="43.9356714" lon="12.0963037"><ele>646.3333333333334</ele><time>2026-04-26T08:28:03.007Z</time></trkpt><trkpt lat="43.9355907" lon="12.0962405"><ele>643.1666666666667</ele><time>2026-04-26T08:28:04.006Z</time></trkpt><trkpt lat="43.9355069" lon="12.096153"><ele>640.0</ele><time>2026-04-26T08:28:05.006Z</time></trkpt><trkpt lat="43.9354211" lon="12.0960431"><ele>640.0</ele><time>2026-04-26T08:28:06.021Z</time></trkpt><trkpt lat="43.9353208" lon="12.0959381"><ele>640.0</ele><time>2026-04-26T08:28:07.011Z</time></trkpt><trkpt lat="43.9352082" lon="12.0958582"><ele>640.0</ele><time>2026-04-26T08:28:08.013Z</time></trkpt><trkpt lat="43.9350851" lon="12.0957883"><ele>640.0</ele><time>2026-04-26T08:28:09.018Z</time></trkpt><trkpt lat="43.9349605" lon="12.0957285"><ele>635.4</ele><time>2026-04-26T08:28:10.02Z</time></trkpt><trkpt lat="43.9348387" lon="12.0956785"><ele>630.8</ele><time>2026-04-26T08:28:11.011Z</time></trkpt><trkpt lat="43.9347266" lon="12.0956326"><ele>626.2</ele><time>2026-04-26T08:28:12.013Z</time></trkpt><trkpt lat="43.9346346" lon="12.095599"><ele>621.6</ele><time>2026-04-26T08:28:13.012Z</time></trkpt><trkpt lat="43.9345597" lon="12.0955698"><ele>617.0</ele><time>2026-04-26T08:28:14.018Z</time></trkpt><trkpt lat="43.9345042" lon="12.0955249"><ele>617.0</ele><time>2026-04-26T08:28:15.007Z</time></trkpt><trkpt lat="43.9344645" lon="12.0954546"><ele>617.0</ele><time>2026-04-26T08:28:16.021Z</time></trkpt><trkpt lat="43.9344201" lon="12.0953698"><ele>617.0</ele><time>2026-04-26T08:28:17.016Z</time></trkpt><trkpt lat="43.9343643" lon="12.0952866"><ele>617.0</ele><time>2026-04-26T08:28:18.014Z</time></trkpt><trkpt lat="43.9342961" lon="12.0952077"><ele>617.0</ele><time>2026-04-26T08:28:19.028Z</time></trkpt><trkpt lat="43.9342232" lon="12.095118"><ele>617.0</ele><time>2026-04-26T08:28:20.01Z</time></trkpt><trkpt lat="43.9341379" lon="12.0950252"><ele>619.25</ele><time>2026-04-26T08:28:21.009Z</time></trkpt><trkpt lat="43.9340435" lon="12.094946"><ele>621.5</ele><time>2026-04-26T08:28:22.016Z</time></trkpt><trkpt lat="43.9339381" lon="12.0948715"><ele>623.75</ele><time>2026-04-26T08:28:23.001Z</time></trkpt><trkpt lat="43.9338273" lon="12.0948028"><ele>626.0</ele><time>2026-04-26T08:28:24.012Z</time></trkpt><trkpt lat="43.9337091" lon="12.0947337"><ele>626.0</ele><time>2026-04-26T08:28:25.026Z</time></trkpt><trkpt lat="43.9335975" lon="12.0946837"><ele>626.0</ele><time>2026-04-26T08:28:26.01Z</time></trkpt><trkpt lat="43.9334918" lon="12.0946461"><ele>626.0</ele><time>2026-04-26T08:28:27.023Z</time></trkpt><trkpt lat="43.9333855" lon="12.0946218"><ele>626.0</ele><time>2026-04-26T08:28:28.026Z</time></trkpt><trkpt lat="43.933282" lon="12.0945808"><ele>626.0</ele><time>2026-04-26T08:28:29.033Z</time></trkpt><trkpt lat="43.9331774" lon="12.0945068"><ele>629.2</ele><time>2026-04-26T08:28:30.028Z</time></trkpt><trkpt lat="43.9330826" lon="12.0944146"><ele>632.4000000000001</ele><time>2026-04-26T08:28:31.027Z</time></trkpt><trkpt lat="43.9329975" lon="12.094324"><ele>635.6</ele><time>2026-04-26T08:28:32.022Z</time></trkpt><trkpt lat="43.9329315" lon="12.0942522"><ele>638.8000000000001</ele><time>2026-04-26T08:28:33.015Z</time></trkpt><trkpt lat="43.9328616" lon="12.0942135"><ele>642.0</ele><time>2026-04-26T08:28:34.015Z</time></trkpt><trkpt lat="43.9327888" lon="12.0942068"><ele>642.0</ele><time>2026-04-26T08:28:35.004Z</time></trkpt><trkpt lat="43.9327041" lon="12.0942203"><ele>642.0</ele><time>2026-04-26T08:28:36.014Z</time></trkpt><trkpt lat="43.9326104" lon="12.0942282"><ele>642.0</ele><time>2026-04-26T08:28:37.022Z</time></trkpt><trkpt lat="43.9325124" lon="12.0942084"><ele>642.0</ele><time>2026-04-26T08:28:38.007Z</time></trkpt><trkpt lat="43.9324161" lon="12.0941652"><ele>642.0</ele><time>2026-04-26T08:28:39.016Z</time></trkpt><trkpt lat="43.9323207" lon="12.0941244"><ele>643.8</ele><time>2026-04-26T08:28:40.005Z</time></trkpt><trkpt lat="43.9322239" lon="12.0940882"><ele>645.6</ele><time>2026-04-26T08:28:41.012Z</time></trkpt><trkpt lat="43.9321128" lon="12.0940523"><ele>647.4</ele><time>2026-04-26T08:28:42.007Z</time></trkpt><trkpt lat="43.9320099" lon="12.0939927"><ele>649.1999999999999</ele><time>2026-04-26T08:28:43.014Z</time></trkpt><trkpt lat="43.9319274" lon="12.0939333"><ele>651.0</ele><time>2026-04-26T08:28:44.017Z</time></trkpt><trkpt lat="43.9318444" lon="12.093896"><ele>651.0</ele><time>2026-04-26T08:28:45.011Z</time></trkpt><trkpt lat="43.9317452" lon="12.0938844"><ele>651.0</ele><time>2026-04-26T08:28:46.016Z</time></trkpt><trkpt lat="43.9316459" lon="12.0938779"><ele>651.0</ele><time>2026-04-26T08:28:47.021Z</time></trkpt><trkpt lat="43.9315504" lon="12.0938666"><ele>651.0</ele><time>2026-04-26T08:28:48.012Z</time></trkpt><trkpt lat="43.9314632" lon="12.0938519"><ele>651.0</ele><time>2026-04-26T08:28:49.006Z</time></trkpt><trkpt lat="43.9313893" lon="12.0938186"><ele>658.0</ele><time>2026-04-26T08:28:50.009Z</time></trkpt><trkpt lat="43.9313015" lon="12.0938131"><ele>665.0</ele><time>2026-04-26T08:28:52.016Z</time></trkpt><trkpt lat="43.9312325" lon="12.0938846"><ele>672.0</ele><time>2026-04-26T08:28:54.016Z</time></trkpt><trkpt lat="43.9311788" lon="12.0939307"><ele>679.0</ele><time>2026-04-26T08:28:55.019Z</time></trkpt><trkpt lat="43.9311162" lon="12.0939673"><ele>686.0</ele><time>2026-04-26T08:28:56.016Z</time></trkpt><trkpt lat="43.9310452" lon="12.0939969"><ele>693.0</ele><time>2026-04-26T08:28:57.017Z</time></trkpt><trkpt lat="43.9309771" lon="12.0940231"><ele>693.0</ele><time>2026-04-26T08:28:58.019Z</time></trkpt><trkpt lat="43.930909" lon="12.0940346"><ele>693.0</ele><time>2026-04-26T08:28:59.009Z</time></trkpt><trkpt lat="43.9308436" lon="12.0940328"><ele>693.0</ele><time>2026-04-26T08:29:00.014Z</time></trkpt><trkpt lat="43.930771" lon="12.0940406"><ele>693.0</ele><time>2026-04-26T08:29:01.01Z</time></trkpt><trkpt lat="43.9307046" lon="12.0940247"><ele>693.0</ele><time>2026-04-26T08:29:02.008Z</time></trkpt><trkpt lat="43.9306344" lon="12.0939893"><ele>693.0</ele><time>2026-04-26T08:29:03.013Z</time></trkpt><trkpt lat="43.9305683" lon="12.0939546"><ele>693.0</ele><time>2026-04-26T08:29:04.016Z</time></trkpt><trkpt lat="43.9304936" lon="12.0939346"><ele>695.1666666666666</ele><time>2026-04-26T08:29:05.008Z</time></trkpt><trkpt lat="43.9304294" lon="12.0939336"><ele>697.3333333333334</ele><time>2026-04-26T08:29:06.015Z</time></trkpt><trkpt lat="43.9303291" lon="12.0939677"><ele>699.5</ele><time>2026-04-26T08:29:08.025Z</time></trkpt><trkpt lat="43.9302845" lon="12.0938876"><ele>701.6666666666667</ele><time>2026-04-26T08:33:27.023Z</time></trkpt><trkpt lat="43.9303229" lon="12.0938077"><ele>703.8333333333334</ele><time>2026-04-26T08:33:29.018Z</time></trkpt><trkpt lat="43.9304032" lon="12.0937069"><ele>706.0</ele><time>2026-04-26T08:33:31Z</time></trkpt><trkpt lat="43.9304835" lon="12.0936842"><ele>706.0</ele><time>2026-04-26T08:33:33.014Z</time></trkpt><trkpt lat="43.9305622" lon="12.093686"><ele>706.0</ele><time>2026-04-26T08:33:36.015Z</time></trkpt><trkpt lat="43.9306311" lon="12.0936731"><ele>706.0</ele><time>2026-04-26T08:33:38.039Z</time></trkpt><trkpt lat="43.9307395" lon="12.0936336"><ele>706.0</ele><time>2026-04-26T08:33:40.017Z</time></trkpt><trkpt lat="43.930795" lon="12.0935763"><ele>706.0</ele><time>2026-04-26T08:33:41.031Z</time></trkpt><trkpt lat="43.930851" lon="12.0934889"><ele>706.0</ele><time>2026-04-26T08:33:42.013Z</time></trkpt><trkpt lat="43.9308978" lon="12.0934203"><ele>704.1999999999999</ele><time>2026-04-26T08:33:43.016Z</time></trkpt><trkpt lat="43.9309901" lon="12.0932982"><ele>702.4</ele><time>2026-04-26T08:33:45.008Z</time></trkpt><trkpt lat="43.9310527" lon="12.0932332"><ele>700.6</ele><time>2026-04-26T08:33:46.018Z</time></trkpt><trkpt lat="43.9311076" lon="12.0931496"><ele>698.8</ele><time>2026-04-26T08:33:47.02Z</time></trkpt><trkpt lat="43.9311426" lon="12.0930651"><ele>697.0</ele><time>2026-04-26T08:33:48.015Z</time></trkpt><trkpt lat="43.9311504" lon="12.092912"><ele>697.0</ele><time>2026-04-26T08:33:50.014Z</time></trkpt><trkpt lat="43.9310935" lon="12.0927935"><ele>697.0</ele><time>2026-04-26T08:33:52.01Z</time></trkpt><trkpt lat="43.9310429" lon="12.0927289"><ele>697.0</ele><time>2026-04-26T08:33:54.019Z</time></trkpt><trkpt lat="43.9309595" lon="12.0926507"><ele>697.0</ele><time>2026-04-26T08:34:15.014Z</time></trkpt><trkpt lat="43.9308513" lon="12.0925599"><ele>697.0</ele><time>2026-04-26T08:34:17.009Z</time></trkpt><trkpt lat="43.9308061" lon="12.092484"><ele>701.6</ele><time>2026-04-26T08:34:18.022Z</time></trkpt><trkpt lat="43.9307644" lon="12.0923876"><ele>706.2</ele><time>2026-04-26T08:34:19.006Z</time></trkpt><trkpt lat="43.9306957" lon="12.0922321"><ele>710.8</ele><time>2026-04-26T08:34:21.009Z</time></trkpt><trkpt lat="43.9306192" lon="12.0921747"><ele>715.4</ele><time>2026-04-26T08:34:22.016Z</time></trkpt><trkpt lat="43.9305351" lon="12.0921136"><ele>720.0</ele><time>2026-04-26T08:34:23.018Z</time></trkpt><trkpt lat="43.9304485" lon="12.0920614"><ele>720.0</ele><time>2026-04-26T08:34:24.008Z</time></trkpt><trkpt lat="43.9303633" lon="12.0920286"><ele>720.0</ele><time>2026-04-26T08:34:25.004Z</time></trkpt><trkpt lat="43.9302868" lon="12.091999"><ele>720.0</ele><time>2026-04-26T08:34:26.02Z</time></trkpt><trkpt lat="43.9302063" lon="12.091956"><ele>720.0</ele><time>2026-04-26T08:34:27.016Z</time></trkpt><trkpt lat="43.9301292" lon="12.0918917"><ele>720.0</ele><time>2026-04-26T08:34:28.021Z</time></trkpt><trkpt lat="43.9300559" lon="12.0918153"><ele>720.0</ele><time>2026-04-26T08:34:29.023Z</time></trkpt><trkpt lat="43.929981" lon="12.0917277"><ele>718.3333333333334</ele><time>2026-04-26T08:34:30.024Z</time></trkpt><trkpt lat="43.9299092" lon="12.091622"><ele>716.6666666666666</ele><time>2026-04-26T08:34:31.015Z</time></trkpt><trkpt lat="43.9298487" lon="12.0915272"><ele>715.0</ele><time>2026-04-26T08:34:32.006Z</time></trkpt><trkpt lat="43.9297846" lon="12.0914497"><ele>713.3333333333333</ele><time>2026-04-26T08:34:33.002Z</time></trkpt><trkpt lat="43.9297113" lon="12.0913987"><ele>711.6666666666666</ele><time>2026-04-26T08:34:34.009Z</time></trkpt><trkpt lat="43.9296385" lon="12.0913521"><ele>710.0</ele><time>2026-04-26T08:34:35.006Z</time></trkpt><trkpt lat="43.9295554" lon="12.0913183"><ele>711.0</ele><time>2026-04-26T08:34:36.003Z</time></trkpt><trkpt lat="43.9294805" lon="12.0913086"><ele>712.0</ele><time>2026-04-26T08:34:37.012Z</time></trkpt><trkpt lat="43.9294063" lon="12.0913232"><ele>713.0</ele><time>2026-04-26T08:34:38.012Z</time></trkpt><trkpt lat="43.9293408" lon="12.091354"><ele>714.0</ele><time>2026-04-26T08:34:39.018Z</time></trkpt><trkpt lat="43.9292779" lon="12.0913775"><ele>715.0</ele><time>2026-04-26T08:34:40.025Z</time></trkpt><trkpt lat="43.9291889" lon="12.0914168"><ele>716.0</ele><time>2026-04-26T08:34:42.013Z</time></trkpt><trkpt lat="43.9291556" lon="12.0915024"><ele>717.0</ele><time>2026-04-26T08:35:04.025Z</time></trkpt><trkpt lat="43.929104" lon="12.0915771"><ele>717.0</ele><time>2026-04-26T08:35:09.005Z</time></trkpt><trkpt lat="43.9291534" lon="12.091468"><ele>717.0</ele><time>2026-04-26T08:35:15.015Z</time></trkpt><trkpt lat="43.9291454" lon="12.0913492"><ele>717.0</ele><time>2026-04-26T08:35:18.011Z</time></trkpt><trkpt lat="43.9290996" lon="12.0911987"><ele>717.0</ele><time>2026-04-26T08:35:20.019Z</time></trkpt><trkpt lat="43.9290849" lon="12.0910903"><ele>717.0</ele><time>2026-04-26T08:35:21.006Z</time></trkpt><trkpt lat="43.9290668" lon="12.0909726"><ele>717.0</ele><time>2026-04-26T08:35:22.017Z</time></trkpt><trkpt lat="43.9290415" lon="12.0908329"><ele>717.0</ele><time>2026-04-26T08:35:23.013Z</time></trkpt><trkpt lat="43.9290249" lon="12.0907031"><ele>717.0</ele><time>2026-04-26T08:35:24.017Z</time></trkpt><trkpt lat="43.9290191" lon="12.0905668"><ele>717.0</ele><time>2026-04-26T08:35:25.016Z</time></trkpt><trkpt lat="43.9290043" lon="12.0904259"><ele>717.0</ele><time>2026-04-26T08:35:26.005Z</time></trkpt><trkpt lat="43.9289879" lon="12.0902995"><ele>715.2</ele><time>2026-04-26T08:35:27.009Z</time></trkpt><trkpt lat="43.9289612" lon="12.0901923"><ele>713.4000000000001</ele><time>2026-04-26T08:35:28.018Z</time></trkpt><trkpt lat="43.928919" lon="12.0900788"><ele>711.5999999999999</ele><time>2026-04-26T08:35:29.015Z</time></trkpt><trkpt lat="43.9288544" lon="12.0899969"><ele>709.8</ele><time>2026-04-26T08:35:30.025Z</time></trkpt><trkpt lat="43.9287711" lon="12.0899249"><ele>708.0</ele><time>2026-04-26T08:35:31.007Z</time></trkpt><trkpt lat="43.9286858" lon="12.0898575"><ele>708.0</ele><time>2026-04-26T08:35:32.011Z</time></trkpt><trkpt lat="43.9286059" lon="12.0898046"><ele>708.0</ele><time>2026-04-26T08:35:33.016Z</time></trkpt><trkpt lat="43.9285399" lon="12.089759"><ele>708.0</ele><time>2026-04-26T08:35:34.012Z</time></trkpt><trkpt lat="43.9284904" lon="12.0896895"><ele>708.0</ele><time>2026-04-26T08:35:35.009Z</time></trkpt><trkpt lat="43.9284554" lon="12.0896056"><ele>708.0</ele><time>2026-04-26T08:35:36.016Z</time></trkpt><trkpt lat="43.9284281" lon="12.0895053"><ele>708.0</ele><time>2026-04-26T08:35:37.004Z</time></trkpt><trkpt lat="43.9284046" lon="12.0893815"><ele>708.2</ele><time>2026-04-26T08:35:38.008Z</time></trkpt><trkpt lat="43.9283759" lon="12.0892485"><ele>708.4</ele><time>2026-04-26T08:35:39.008Z</time></trkpt><trkpt lat="43.9283433" lon="12.0891099"><ele>708.6</ele><time>2026-04-26T08:35:40.013Z</time></trkpt><trkpt lat="43.9283003" lon="12.0889755"><ele>708.8000000000001</ele><time>2026-04-26T08:35:41.019Z</time></trkpt><trkpt lat="43.9282524" lon="12.0888488"><ele>709.0</ele><time>2026-04-26T08:35:42.016Z</time></trkpt><trkpt lat="43.9281989" lon="12.0887292"><ele>709.0</ele><time>2026-04-26T08:35:43.007Z</time></trkpt><trkpt lat="43.9281294" lon="12.0886258"><ele>709.0</ele><time>2026-04-26T08:35:44.015Z</time></trkpt><trkpt lat="43.9280462" lon="12.0885215"><ele>709.0</ele><time>2026-04-26T08:35:45.007Z</time></trkpt><trkpt lat="43.9279566" lon="12.088412"><ele>709.0</ele><time>2026-04-26T08:35:46.023Z</time></trkpt><trkpt lat="43.9278668" lon="12.0883038"><ele>703.75</ele><time>2026-04-26T08:35:47.01Z</time></trkpt><trkpt lat="43.9277859" lon="12.088185"><ele>698.5</ele><time>2026-04-26T08:35:48.004Z</time></trkpt><trkpt lat="43.9277044" lon="12.0880612"><ele>693.25</ele><time>2026-04-26T08:35:49.018Z</time></trkpt><trkpt lat="43.9276317" lon="12.0879311"><ele>688.0</ele><time>2026-04-26T08:35:50.009Z</time></trkpt><trkpt lat="43.927566" lon="12.0878172"><ele>694.0</ele><time>2026-04-26T08:35:51.013Z</time></trkpt><trkpt lat="43.9275156" lon="12.0877073"><ele>700.0</ele><time>2026-04-26T08:35:52.011Z</time></trkpt><trkpt lat="43.9274738" lon="12.0876032"><ele>706.0</ele><time>2026-04-26T08:35:53.018Z</time></trkpt><trkpt lat="43.9274379" lon="12.0874929"><ele>712.0</ele><time>2026-04-26T08:35:54.017Z</time></trkpt><trkpt lat="43.9274139" lon="12.0873634"><ele>718.0</ele><time>2026-04-26T08:35:55.014Z</time></trkpt><trkpt lat="43.9273911" lon="12.0872246"><ele>718.0</ele><time>2026-04-26T08:35:56.014Z</time></trkpt><trkpt lat="43.9273667" lon="12.0870935"><ele>718.0</ele><time>2026-04-26T08:35:57.016Z</time></trkpt><trkpt lat="43.9273366" lon="12.0869578"><ele>718.0</ele><time>2026-04-26T08:35:58.014Z</time></trkpt><trkpt lat="43.9273109" lon="12.0868281"><ele>718.0</ele><time>2026-04-26T08:35:59.007Z</time></trkpt><trkpt lat="43.9272809" lon="12.0867133"><ele>718.0</ele><time>2026-04-26T08:36:00.013Z</time></trkpt><trkpt lat="43.927252" lon="12.086603"><ele>715.3333333333334</ele><time>2026-04-26T08:36:01.017Z</time></trkpt><trkpt lat="43.9272129" lon="12.0864976"><ele>712.6666666666667</ele><time>2026-04-26T08:36:02.02Z</time></trkpt><trkpt lat="43.9271706" lon="12.0864033"><ele>710.0</ele><time>2026-04-26T08:36:03.012Z</time></trkpt><trkpt lat="43.9271227" lon="12.0863273"><ele>707.3333333333334</ele><time>2026-04-26T08:36:04.015Z</time></trkpt><trkpt lat="43.9270619" lon="12.0862847"><ele>704.6666666666666</ele><time>2026-04-26T08:36:05.005Z</time></trkpt><trkpt lat="43.9269761" lon="12.0862861"><ele>702.0</ele><time>2026-04-26T08:36:06.006Z</time></trkpt><trkpt lat="43.9268918" lon="12.0862879"><ele>702.0</ele><time>2026-04-26T08:36:07.009Z</time></trkpt><trkpt lat="43.9268084" lon="12.0862832"><ele>702.0</ele><time>2026-04-26T08:36:08.007Z</time></trkpt><trkpt lat="43.9267294" lon="12.0862553"><ele>702.0</ele><time>2026-04-26T08:36:09.017Z</time></trkpt><trkpt lat="43.9266662" lon="12.0861915"><ele>702.0</ele><time>2026-04-26T08:36:10.011Z</time></trkpt><trkpt lat="43.926621" lon="12.0860965"><ele>702.0</ele><time>2026-04-26T08:36:11.012Z</time></trkpt><trkpt lat="43.9265839" lon="12.085977"><ele>702.0</ele><time>2026-04-26T08:36:12.005Z</time></trkpt><trkpt lat="43.9265539" lon="12.0858414"><ele>704.2</ele><time>2026-04-26T08:36:13.013Z</time></trkpt><trkpt lat="43.9265162" lon="12.0857201"><ele>706.4000000000001</ele><time>2026-04-26T08:36:14.012Z</time></trkpt><trkpt lat="43.9264736" lon="12.0856073"><ele>708.5999999999999</ele><time>2026-04-26T08:36:15.011Z</time></trkpt><trkpt lat="43.9264097" lon="12.0855148"><ele>710.8</ele><time>2026-04-26T08:36:16.019Z</time></trkpt><trkpt lat="43.9263409" lon="12.0854042"><ele>713.0</ele><time>2026-04-26T08:36:17.001Z</time></trkpt><trkpt lat="43.9262796" lon="12.0852893"><ele>713.0</ele><time>2026-04-26T08:36:18.017Z</time></trkpt><trkpt lat="43.9262206" lon="12.0851774"><ele>713.0</ele><time>2026-04-26T08:36:19.015Z</time></trkpt><trkpt lat="43.9261567" lon="12.0850588"><ele>713.0</ele><time>2026-04-26T08:36:20.016Z</time></trkpt><trkpt lat="43.9260969" lon="12.0849313"><ele>713.0</ele><time>2026-04-26T08:36:21.018Z</time></trkpt><trkpt lat="43.9260431" lon="12.084811"><ele>713.0</ele><time>2026-04-26T08:36:22.016Z</time></trkpt><trkpt lat="43.9260063" lon="12.0846925"><ele>712.2</ele><time>2026-04-26T08:36:23.011Z</time></trkpt><trkpt lat="43.9259907" lon="12.0845766"><ele>711.4</ele><time>2026-04-26T08:36:24.01Z</time></trkpt><trkpt lat="43.9259892" lon="12.0844519"><ele>710.6</ele><time>2026-04-26T08:36:25.018Z</time></trkpt><trkpt lat="43.9259969" lon="12.0843061"><ele>709.8000000000001</ele><time>2026-04-26T08:36:26.006Z</time></trkpt><trkpt lat="43.9260148" lon="12.0841513"><ele>709.0</ele><time>2026-04-26T08:36:27.01Z</time></trkpt><trkpt lat="43.926024" lon="12.0839998"><ele>709.0</ele><time>2026-04-26T08:36:28.001Z</time></trkpt><trkpt lat="43.9260218" lon="12.0838609"><ele>709.0</ele><time>2026-04-26T08:36:29.015Z</time></trkpt><trkpt lat="43.9260019" lon="12.0837391"><ele>709.0</ele><time>2026-04-26T08:36:30.019Z</time></trkpt><trkpt lat="43.9259878" lon="12.0836302"><ele>709.0</ele><time>2026-04-26T08:36:31.013Z</time></trkpt><trkpt lat="43.9259786" lon="12.0835074"><ele>709.0</ele><time>2026-04-26T08:36:32.013Z</time></trkpt><trkpt lat="43.925981" lon="12.0833889"><ele>709.0</ele><time>2026-04-26T08:36:33.01Z</time></trkpt><trkpt lat="43.9259941" lon="12.0832766"><ele>706.6666666666667</ele><time>2026-04-26T08:36:34.018Z</time></trkpt><trkpt lat="43.9260129" lon="12.0831699"><ele>704.3333333333334</ele><time>2026-04-26T08:36:35.014Z</time></trkpt><trkpt lat="43.9260202" lon="12.0830764"><ele>702.0</ele><time>2026-04-26T08:36:36.026Z</time></trkpt><trkpt lat="43.9259917" lon="12.0829502"><ele>699.6666666666666</ele><time>2026-04-26T08:36:38.01Z</time></trkpt><trkpt lat="43.9259077" lon="12.0828511"><ele>697.3333333333333</ele><time>2026-04-26T08:36:40.017Z</time></trkpt><trkpt lat="43.9258337" lon="12.0828216"><ele>695.0</ele><time>2026-04-26T08:36:41.02Z</time></trkpt><trkpt lat="43.925735" lon="12.0827846"><ele>705.25</ele><time>2026-04-26T08:36:42.013Z</time></trkpt><trkpt lat="43.925628" lon="12.0827439"><ele>715.5</ele><time>2026-04-26T08:36:43.006Z</time></trkpt><trkpt lat="43.9255267" lon="12.0826772"><ele>725.75</ele><time>2026-04-26T08:36:44.009Z</time></trkpt><trkpt lat="43.9254181" lon="12.0826198"><ele>736.0</ele><time>2026-04-26T08:36:44.997Z</time></trkpt><trkpt lat="43.9253091" lon="12.0825792"><ele>736.0</ele><time>2026-04-26T08:36:46.009Z</time></trkpt><trkpt lat="43.9252152" lon="12.0825589"><ele>736.0</ele><time>2026-04-26T08:36:47.008Z</time></trkpt><trkpt lat="43.9251293" lon="12.0825568"><ele>736.0</ele><time>2026-04-26T08:36:48.014Z</time></trkpt><trkpt lat="43.9250507" lon="12.0825506"><ele>736.0</ele><time>2026-04-26T08:36:49.005Z</time></trkpt><trkpt lat="43.9249832" lon="12.0825315"><ele>736.0</ele><time>2026-04-26T08:36:50.018Z</time></trkpt><trkpt lat="43.9249187" lon="12.0824776"><ele>736.0</ele><time>2026-04-26T08:36:51.006Z</time></trkpt><trkpt lat="43.9248555" lon="12.0824071"><ele>739.3333333333334</ele><time>2026-04-26T08:36:52.007Z</time></trkpt><trkpt lat="43.9247884" lon="12.0823239"><ele>742.6666666666667</ele><time>2026-04-26T08:36:53.022Z</time></trkpt><trkpt lat="43.9247136" lon="12.082252"><ele>746.0</ele><time>2026-04-26T08:36:54.013Z</time></trkpt><trkpt lat="43.9246515" lon="12.0821788"><ele>749.3333333333334</ele><time>2026-04-26T08:36:55.008Z</time></trkpt><trkpt lat="43.9246048" lon="12.0821018"><ele>752.6666666666666</ele><time>2026-04-26T08:36:56.01Z</time></trkpt><trkpt lat="43.9245811" lon="12.082018"><ele>756.0</ele><time>2026-04-26T08:36:57Z</time></trkpt><trkpt lat="43.9245726" lon="12.0818781"><ele>756.0</ele><time>2026-04-26T08:36:59.003Z</time></trkpt><trkpt lat="43.9245154" lon="12.081751"><ele>756.0</ele><time>2026-04-26T08:37:01Z</time></trkpt><trkpt lat="43.9243867" lon="12.0816637"><ele>756.0</ele><time>2026-04-26T08:37:03.007Z</time></trkpt><trkpt lat="43.9242991" lon="12.0816386"><ele>756.0</ele><time>2026-04-26T08:37:04.003Z</time></trkpt><trkpt lat="43.9242308" lon="12.0815946"><ele>756.0</ele><time>2026-04-26T08:37:05.008Z</time></trkpt><trkpt lat="43.9241735" lon="12.0815068"><ele>755.0</ele><time>2026-04-26T08:37:06.009Z</time></trkpt><trkpt lat="43.92413" lon="12.081416"><ele>754.0</ele><time>2026-04-26T08:37:07.005Z</time></trkpt><trkpt lat="43.9241107" lon="12.0813275"><ele>753.0</ele><time>2026-04-26T08:37:08.009Z</time></trkpt><trkpt lat="43.9241166" lon="12.0812264"><ele>752.0</ele><time>2026-04-26T08:37:08.994Z</time></trkpt><trkpt lat="43.9241232" lon="12.0811174"><ele>751.0</ele><time>2026-04-26T08:37:10.008Z</time></trkpt><trkpt lat="43.9241161" lon="12.0810064"><ele>750.0</ele><time>2026-04-26T08:37:11.003Z</time></trkpt><trkpt lat="43.9240945" lon="12.0809015"><ele>750.0</ele><time>2026-04-26T08:37:12.022Z</time></trkpt><trkpt lat="43.9240423" lon="12.0808427"><ele>750.0</ele><time>2026-04-26T08:37:13.006Z</time></trkpt><trkpt lat="43.9239834" lon="12.0808018"><ele>750.0</ele><time>2026-04-26T08:37:14.014Z</time></trkpt><trkpt lat="43.9239149" lon="12.0807712"><ele>750.0</ele><time>2026-04-26T08:37:15.011Z</time></trkpt><trkpt lat="43.9238323" lon="12.0807374"><ele>750.0</ele><time>2026-04-26T08:37:16.017Z</time></trkpt><trkpt lat="43.9237518" lon="12.0806996"><ele>750.0</ele><time>2026-04-26T08:37:17.014Z</time></trkpt><trkpt lat="43.9236801" lon="12.0806591"><ele>753.2</ele><time>2026-04-26T08:37:18.01Z</time></trkpt><trkpt lat="43.9236237" lon="12.0805277"><ele>756.4</ele><time>2026-04-26T08:37:20.009Z</time></trkpt><trkpt lat="43.9236272" lon="12.0803829"><ele>759.5999999999999</ele><time>2026-04-26T08:37:22.007Z</time></trkpt><trkpt lat="43.9236346" lon="12.0802239"><ele>762.8</ele><time>2026-04-26T08:37:24.023Z</time></trkpt><trkpt lat="43.9235779" lon="12.0801022"><ele>766.0</ele><time>2026-04-26T08:37:26.017Z</time></trkpt><trkpt lat="43.9235235" lon="12.0800483"><ele>766.0</ele><time>2026-04-26T08:37:26.997Z</time></trkpt><trkpt lat="43.9234719" lon="12.0799965"><ele>766.0</ele><time>2026-04-26T08:37:28.005Z</time></trkpt><trkpt lat="43.9234406" lon="12.0799149"><ele>766.0</ele><time>2026-04-26T08:37:29.005Z</time></trkpt><trkpt lat="43.9234509" lon="12.0798087"><ele>766.0</ele><time>2026-04-26T08:37:30.011Z</time></trkpt><trkpt lat="43.9234847" lon="12.0797005"><ele>766.0</ele><time>2026-04-26T08:37:31.011Z</time></trkpt><trkpt lat="43.923525" lon="12.0796001"><ele>766.0</ele><time>2026-04-26T08:37:32.007Z</time></trkpt><trkpt lat="43.923554" lon="12.0794974"><ele>766.6666666666667</ele><time>2026-04-26T08:37:33.006Z</time></trkpt><trkpt lat="43.9235611" lon="12.0793838"><ele>767.3333333333334</ele><time>2026-04-26T08:37:34.008Z</time></trkpt><trkpt lat="43.9235521" lon="12.0792806"><ele>768.0</ele><time>2026-04-26T08:37:35.008Z</time></trkpt><trkpt lat="43.9235232" lon="12.0791818"><ele>768.6666666666667</ele><time>2026-04-26T08:37:36.008Z</time></trkpt><trkpt lat="43.9234765" lon="12.0791083"><ele>769.3333333333334</ele><time>2026-04-26T08:37:36.998Z</time></trkpt><trkpt lat="43.9234126" lon="12.0790496"><ele>770.0</ele><time>2026-04-26T08:37:38.012Z</time></trkpt><trkpt lat="43.9233334" lon="12.0790103"><ele>770.3333333333334</ele><time>2026-04-26T08:37:39.001Z</time></trkpt><trkpt lat="43.9232603" lon="12.0789631"><ele>770.6666666666667</ele><time>2026-04-26T08:37:40.009Z</time></trkpt><trkpt lat="43.9231798" lon="12.0789074"><ele>771.0</ele><time>2026-04-26T08:37:41.007Z</time></trkpt><trkpt lat="43.9230962" lon="12.0788691"><ele>771.3333333333333</ele><time>2026-04-26T08:37:42.015Z</time></trkpt><trkpt lat="43.9230106" lon="12.0788349"><ele>771.6666666666666</ele><time>2026-04-26T08:37:43.007Z</time></trkpt><trkpt lat="43.9229196" lon="12.0788094"><ele>772.0</ele><time>2026-04-26T08:37:44.016Z</time></trkpt><trkpt lat="43.9228268" lon="12.0787991"><ele>771.9999999999999</ele><time>2026-04-26T08:37:45.011Z</time></trkpt><trkpt lat="43.9227332" lon="12.0787997"><ele>772.0</ele><time>2026-04-26T08:37:46.011Z</time></trkpt><trkpt lat="43.9226394" lon="12.0787926"><ele>772.0</ele><time>2026-04-26T08:37:47.015Z</time></trkpt><trkpt lat="43.922556" lon="12.0787722"><ele>772.0</ele><time>2026-04-26T08:37:48.009Z</time></trkpt><trkpt lat="43.9224816" lon="12.0787524"><ele>771.9999999999999</ele><time>2026-04-26T08:37:49.011Z</time></trkpt><trkpt lat="43.9224032" lon="12.0787199"><ele>772.0</ele><time>2026-04-26T08:37:50.017Z</time></trkpt><trkpt lat="43.9223168" lon="12.0787061"><ele>770.9999999999999</ele><time>2026-04-26T08:37:51.014Z</time></trkpt><trkpt lat="43.9222345" lon="12.0786922"><ele>770.0</ele><time>2026-04-26T08:37:52.011Z</time></trkpt><trkpt lat="43.9221512" lon="12.0786729"><ele>769.0</ele><time>2026-04-26T08:37:53.016Z</time></trkpt><trkpt lat="43.9220697" lon="12.078656"><ele>768.0</ele><time>2026-04-26T08:37:54.012Z</time></trkpt><trkpt lat="43.921985" lon="12.0786465"><ele>767.0</ele><time>2026-04-26T08:37:55.005Z</time></trkpt><trkpt lat="43.9218956" lon="12.0786579"><ele>766.0</ele><time>2026-04-26T08:37:56.007Z</time></trkpt><trkpt lat="43.9217967" lon="12.0786815"><ele>762.4</ele><time>2026-04-26T08:37:57.003Z</time></trkpt><trkpt lat="43.9216929" lon="12.0787058"><ele>758.8</ele><time>2026-04-26T08:37:58.008Z</time></trkpt><trkpt lat="43.9215964" lon="12.0787265"><ele>755.1999999999999</ele><time>2026-04-26T08:37:59.012Z</time></trkpt><trkpt lat="43.9214975" lon="12.0787422"><ele>751.5999999999999</ele><time>2026-04-26T08:38:00.006Z</time></trkpt><trkpt lat="43.9213989" lon="12.0787561"><ele>748.0</ele><time>2026-04-26T08:38:01.003Z</time></trkpt><trkpt lat="43.9213011" lon="12.07877"><ele>748.0</ele><time>2026-04-26T08:38:02.009Z</time></trkpt><trkpt lat="43.9211999" lon="12.0787829"><ele>748.0</ele><time>2026-04-26T08:38:03.015Z</time></trkpt><trkpt lat="43.9211088" lon="12.0787929"><ele>748.0</ele><time>2026-04-26T08:38:04.003Z</time></trkpt><trkpt lat="43.9210263" lon="12.0788138"><ele>748.0</ele><time>2026-04-26T08:38:05.013Z</time></trkpt><trkpt lat="43.9209523" lon="12.0788484"><ele>748.0</ele><time>2026-04-26T08:38:06.016Z</time></trkpt><trkpt lat="43.9208954" lon="12.0789131"><ele>748.0</ele><time>2026-04-26T08:38:07.011Z</time></trkpt><trkpt lat="43.9208411" lon="12.0789961"><ele>744.0</ele><time>2026-04-26T08:38:08.009Z</time></trkpt><trkpt lat="43.920801" lon="12.0790763"><ele>740.0</ele><time>2026-04-26T08:38:09.006Z</time></trkpt><trkpt lat="43.9207741" lon="12.0791602"><ele>736.0</ele><time>2026-04-26T08:38:10.027Z</time></trkpt><trkpt lat="43.920712" lon="12.0792476"><ele>732.0</ele><time>2026-04-26T08:38:12.014Z</time></trkpt><trkpt lat="43.9206253" lon="12.079206"><ele>728.0</ele><time>2026-04-26T08:38:14.011Z</time></trkpt><trkpt lat="43.9206374" lon="12.0790488"><ele>724.0</ele><time>2026-04-26T08:38:16.012Z</time></trkpt><trkpt lat="43.920661" lon="12.0789556"><ele>724.0</ele><time>2026-04-26T08:38:17.019Z</time></trkpt><trkpt lat="43.9206881" lon="12.0788484"><ele>724.0</ele><time>2026-04-26T08:38:18.012Z</time></trkpt><trkpt lat="43.9207081" lon="12.0787309"><ele>724.0</ele><time>2026-04-26T08:38:19.039Z</time></trkpt><trkpt lat="43.9207222" lon="12.0786133"><ele>724.0</ele><time>2026-04-26T08:38:20.001Z</time></trkpt><trkpt lat="43.9207277" lon="12.0784899"><ele>724.0</ele><time>2026-04-26T08:38:21.012Z</time></trkpt><trkpt lat="43.9207421" lon="12.0783604"><ele>724.0</ele><time>2026-04-26T08:38:22.023Z</time></trkpt><trkpt lat="43.9207538" lon="12.0782289"><ele>723.8333333333334</ele><time>2026-04-26T08:38:23.017Z</time></trkpt><trkpt lat="43.9207663" lon="12.0781055"><ele>723.6666666666667</ele><time>2026-04-26T08:38:24.024Z</time></trkpt><trkpt lat="43.9207834" lon="12.0779768"><ele>723.5</ele><time>2026-04-26T08:38:25.021Z</time></trkpt><trkpt lat="43.9207928" lon="12.0778491"><ele>723.3333333333334</ele><time>2026-04-26T08:38:26.049Z</time></trkpt><trkpt lat="43.9207891" lon="12.0777284"><ele>723.1666666666666</ele><time>2026-04-26T08:38:27.011Z</time></trkpt><trkpt lat="43.9207694" lon="12.0776129"><ele>723.0</ele><time>2026-04-26T08:38:28.016Z</time></trkpt><trkpt lat="43.920747" lon="12.0774884"><ele>722.8</ele><time>2026-04-26T08:38:29.017Z</time></trkpt><trkpt lat="43.9207231" lon="12.0773491"><ele>722.5999999999999</ele><time>2026-04-26T08:38:30.007Z</time></trkpt><trkpt lat="43.9207018" lon="12.0772138"><ele>722.4000000000001</ele><time>2026-04-26T08:38:31.003Z</time></trkpt><trkpt lat="43.9206907" lon="12.0770897"><ele>722.2</ele><time>2026-04-26T08:38:32.023Z</time></trkpt><trkpt lat="43.9206788" lon="12.0769723"><ele>722.0</ele><time>2026-04-26T08:38:33.002Z</time></trkpt><trkpt lat="43.9206613" lon="12.0768566"><ele>722.0</ele><time>2026-04-26T08:38:34.022Z</time></trkpt><trkpt lat="43.9206412" lon="12.0767663"><ele>722.0</ele><time>2026-04-26T08:38:35.003Z</time></trkpt><trkpt lat="43.9206079" lon="12.0766912"><ele>722.0</ele><time>2026-04-26T08:38:36.013Z</time></trkpt><trkpt lat="43.9205165" lon="12.0766297"><ele>722.0</ele><time>2026-04-26T08:38:38.009Z</time></trkpt><trkpt lat="43.9204199" lon="12.0766984"><ele>722.0</ele><time>2026-04-26T08:38:40.008Z</time></trkpt><trkpt lat="43.9203789" lon="12.076869"><ele>722.0</ele><time>2026-04-26T08:38:42.003Z</time></trkpt><trkpt lat="43.9203694" lon="12.076974"><ele>722.0</ele><time>2026-04-26T08:38:43.014Z</time></trkpt><trkpt lat="43.9203703" lon="12.0770894"><ele>722.0</ele><time>2026-04-26T08:38:44.018Z</time></trkpt><trkpt lat="43.9203815" lon="12.0772042"><ele>722.0</ele><time>2026-04-26T08:38:45.01Z</time></trkpt><trkpt lat="43.9203995" lon="12.0773172"><ele>722.0</ele><time>2026-04-26T08:38:46.014Z</time></trkpt><trkpt lat="43.9204178" lon="12.0774249"><ele>722.0</ele><time>2026-04-26T08:38:47.014Z</time></trkpt><trkpt lat="43.920439" lon="12.0775332"><ele>722.1428571428572</ele><time>2026-04-26T08:38:48.014Z</time></trkpt><trkpt lat="43.920455" lon="12.0776471"><ele>722.2857142857142</ele><time>2026-04-26T08:38:49.009Z</time></trkpt><trkpt lat="43.9204558" lon="12.0777504"><ele>722.4285714285714</ele><time>2026-04-26T08:38:50.016Z</time></trkpt><trkpt lat="43.9204225" lon="12.0778357"><ele>722.5714285714287</ele><time>2026-04-26T08:38:51.013Z</time></trkpt><trkpt lat="43.9203723" lon="12.0779007"><ele>722.7142857142858</ele><time>2026-04-26T08:38:52.03Z</time></trkpt><trkpt lat="43.9203157" lon="12.0779561"><ele>722.8571428571429</ele><time>2026-04-26T08:38:53.009Z</time></trkpt><trkpt lat="43.9202571" lon="12.0780196"><ele>723.0</ele><time>2026-04-26T08:38:54.016Z</time></trkpt><trkpt lat="43.9201777" lon="12.078082"><ele>723.0</ele><time>2026-04-26T08:38:55.012Z</time></trkpt><trkpt lat="43.9201029" lon="12.0781436"><ele>723.0</ele><time>2026-04-26T08:38:56.006Z</time></trkpt><trkpt lat="43.9200291" lon="12.0782194"><ele>723.0</ele><time>2026-04-26T08:38:57.01Z</time></trkpt><trkpt lat="43.9199546" lon="12.0782912"><ele>723.0</ele><time>2026-04-26T08:38:58.013Z</time></trkpt><trkpt lat="43.9198824" lon="12.0783713"><ele>723.0</ele><time>2026-04-26T08:38:59.014Z</time></trkpt><trkpt lat="43.9198145" lon="12.0784296"><ele>723.0</ele><time>2026-04-26T08:39:00.009Z</time></trkpt><trkpt lat="43.9197482" lon="12.0784996"><ele>719.3333333333334</ele><time>2026-04-26T08:39:01.015Z</time></trkpt><trkpt lat="43.9196837" lon="12.0785866"><ele>715.6666666666666</ele><time>2026-04-26T08:39:02.007Z</time></trkpt><trkpt lat="43.9196231" lon="12.0786946"><ele>712.0</ele><time>2026-04-26T08:39:03.013Z</time></trkpt><trkpt lat="43.9195731" lon="12.0787965"><ele>708.3333333333333</ele><time>2026-04-26T08:39:04.001Z</time></trkpt><trkpt lat="43.9195272" lon="12.078899"><ele>704.6666666666666</ele><time>2026-04-26T08:39:05.001Z</time></trkpt><trkpt lat="43.9194923" lon="12.0789898"><ele>701.0</ele><time>2026-04-26T08:39:06.01Z</time></trkpt><trkpt lat="43.9194471" lon="12.0790578"><ele>702.0</ele><time>2026-04-26T08:39:06.994Z</time></trkpt><trkpt lat="43.9193828" lon="12.0791089"><ele>703.0</ele><time>2026-04-26T08:39:08.009Z</time></trkpt><trkpt lat="43.9193137" lon="12.0791436"><ele>704.0</ele><time>2026-04-26T08:39:09.003Z</time></trkpt><trkpt lat="43.9192384" lon="12.0791654"><ele>705.0</ele><time>2026-04-26T08:39:10.017Z</time></trkpt><trkpt lat="43.9191603" lon="12.0791994"><ele>706.0</ele><time>2026-04-26T08:39:11.008Z</time></trkpt><trkpt lat="43.9190933" lon="12.0792538"><ele>707.0</ele><time>2026-04-26T08:39:12.003Z</time></trkpt><trkpt lat="43.9190442" lon="12.0793473"><ele>703.8</ele><time>2026-04-26T08:39:13.013Z</time></trkpt><trkpt lat="43.9189957" lon="12.0794581"><ele>700.6</ele><time>2026-04-26T08:39:14.005Z</time></trkpt><trkpt lat="43.9189499" lon="12.0795831"><ele>697.4</ele><time>2026-04-26T08:39:15.001Z</time></trkpt><trkpt lat="43.9189117" lon="12.079716"><ele>694.1999999999999</ele><time>2026-04-26T08:39:16.017Z</time></trkpt><trkpt lat="43.9188782" lon="12.0798435"><ele>691.0</ele><time>2026-04-26T08:39:17.002Z</time></trkpt><trkpt lat="43.9188421" lon="12.0799681"><ele>691.0</ele><time>2026-04-26T08:39:17.997Z</time></trkpt><trkpt lat="43.9188015" lon="12.0800922"><ele>691.0</ele><time>2026-04-26T08:39:19.002Z</time></trkpt><trkpt lat="43.9187482" lon="12.0801982"><ele>691.0</ele><time>2026-04-26T08:39:20.02Z</time></trkpt><trkpt lat="43.9186785" lon="12.0802869"><ele>691.0</ele><time>2026-04-26T08:39:21.01Z</time></trkpt><trkpt lat="43.9186127" lon="12.0803594"><ele>691.0</ele><time>2026-04-26T08:39:22.004Z</time></trkpt><trkpt lat="43.9185422" lon="12.0804352"><ele>691.0</ele><time>2026-04-26T08:39:23.006Z</time></trkpt><trkpt lat="43.9184758" lon="12.0805109"><ele>691.0</ele><time>2026-04-26T08:39:24.012Z</time></trkpt><trkpt lat="43.9183926" lon="12.0806018"><ele>691.0</ele><time>2026-04-26T08:39:26.009Z</time></trkpt><trkpt lat="43.9183121" lon="12.0806127"><ele>691.0</ele><time>2026-04-26T08:39:29.005Z</time></trkpt><trkpt lat="43.9183296" lon="12.0804671"><ele>691.0</ele><time>2026-04-26T08:39:33.012Z</time></trkpt><trkpt lat="43.9183846" lon="12.0803856"><ele>691.0</ele><time>2026-04-26T08:39:34.006Z</time></trkpt><trkpt lat="43.9184409" lon="12.0803192"><ele>691.0</ele><time>2026-04-26T08:39:35.01Z</time></trkpt><trkpt lat="43.9185012" lon="12.0802518"><ele>691.0</ele><time>2026-04-26T08:39:36.029Z</time></trkpt><trkpt lat="43.9185656" lon="12.080108"><ele>691.0</ele><time>2026-04-26T08:39:38.016Z</time></trkpt><trkpt lat="43.9185827" lon="12.0800092"><ele>691.0</ele><time>2026-04-26T08:39:39.014Z</time></trkpt><trkpt lat="43.9185981" lon="12.0798917"><ele>691.0</ele><time>2026-04-26T08:39:40.016Z</time></trkpt><trkpt lat="43.9185906" lon="12.0797649"><ele>690.8</ele><time>2026-04-26T08:39:41.019Z</time></trkpt><trkpt lat="43.9185917" lon="12.0796145"><ele>690.5999999999999</ele><time>2026-04-26T08:39:42.011Z</time></trkpt><trkpt lat="43.9185955" lon="12.0794622"><ele>690.4</ele><time>2026-04-26T08:39:43.002Z</time></trkpt><trkpt lat="43.9186006" lon="12.0793203"><ele>690.2</ele><time>2026-04-26T08:39:44.011Z</time></trkpt><trkpt lat="43.918605" lon="12.0791875"><ele>690.0</ele><time>2026-04-26T08:39:45.027Z</time></trkpt><trkpt lat="43.9186243" lon="12.079069"><ele>687.6</ele><time>2026-04-26T08:39:46.01Z</time></trkpt><trkpt lat="43.9186676" lon="12.0789399"><ele>685.2</ele><time>2026-04-26T08:39:47.015Z</time></trkpt><trkpt lat="43.9187226" lon="12.0788308"><ele>682.8</ele><time>2026-04-26T08:39:48.021Z</time></trkpt><trkpt lat="43.9187718" lon="12.0787426"><ele>680.4</ele><time>2026-04-26T08:39:49.027Z</time></trkpt><trkpt lat="43.918805" lon="12.0786549"><ele>678.0</ele><time>2026-04-26T08:39:50.014Z</time></trkpt><trkpt lat="43.918801" lon="12.0784839"><ele>678.0</ele><time>2026-04-26T08:39:52.009Z</time></trkpt><trkpt lat="43.9187129" lon="12.0783557"><ele>678.0</ele><time>2026-04-26T08:39:54.003Z</time></trkpt><trkpt lat="43.918652" lon="12.0783049"><ele>678.0</ele><time>2026-04-26T08:39:55.013Z</time></trkpt><trkpt lat="43.9185823" lon="12.0782809"><ele>678.0</ele><time>2026-04-26T08:39:55.995Z</time></trkpt><trkpt lat="43.91851" lon="12.0782682"><ele>678.0</ele><time>2026-04-26T08:39:56.994Z</time></trkpt><trkpt lat="43.9184311" lon="12.0782704"><ele>678.0</ele><time>2026-04-26T08:39:58.013Z</time></trkpt><trkpt lat="43.918355" lon="12.0782786"><ele>675.4285714285714</ele><time>2026-04-26T08:39:59.005Z</time></trkpt><trkpt lat="43.9182854" lon="12.0782715"><ele>672.8571428571429</ele><time>2026-04-26T08:39:59.996Z</time></trkpt><trkpt lat="43.9182208" lon="12.0782388"><ele>670.2857142857143</ele><time>2026-04-26T08:40:01.016Z</time></trkpt><trkpt lat="43.9181661" lon="12.0781863"><ele>667.7142857142858</ele><time>2026-04-26T08:40:02.001Z</time></trkpt><trkpt lat="43.9181262" lon="12.0781141"><ele>665.1428571428571</ele><time>2026-04-26T08:40:03.003Z</time></trkpt><trkpt lat="43.9180913" lon="12.0780289"><ele>662.5714285714287</ele><time>2026-04-26T08:40:04.013Z</time></trkpt><trkpt lat="43.9180624" lon="12.0779154"><ele>660.0</ele><time>2026-04-26T08:40:05.022Z</time></trkpt><trkpt lat="43.9180491" lon="12.0777854"><ele>660.0</ele><time>2026-04-26T08:40:06.017Z</time></trkpt><trkpt lat="43.9180314" lon="12.0776638"><ele>660.0</ele><time>2026-04-26T08:40:07.023Z</time></trkpt><trkpt lat="43.9180094" lon="12.0775403"><ele>660.0</ele><time>2026-04-26T08:40:08.003Z</time></trkpt><trkpt lat="43.917981" lon="12.0774163"><ele>660.0</ele><time>2026-04-26T08:40:09.012Z</time></trkpt><trkpt lat="43.9179452" lon="12.0772935"><ele>660.0</ele><time>2026-04-26T08:40:10.022Z</time></trkpt><trkpt lat="43.9179105" lon="12.0771762"><ele>659.6666666666666</ele><time>2026-04-26T08:40:11.003Z</time></trkpt><trkpt lat="43.9178783" lon="12.077055"><ele>659.3333333333334</ele><time>2026-04-26T08:40:12.006Z</time></trkpt><trkpt lat="43.9178554" lon="12.076938"><ele>659.0</ele><time>2026-04-26T08:40:13.011Z</time></trkpt><trkpt lat="43.9178352" lon="12.0768205"><ele>658.6666666666667</ele><time>2026-04-26T08:40:14.001Z</time></trkpt><trkpt lat="43.9178191" lon="12.07671"><ele>658.3333333333334</ele><time>2026-04-26T08:40:14.997Z</time></trkpt><trkpt lat="43.9178134" lon="12.0765984"><ele>658.0</ele><time>2026-04-26T08:40:16.028Z</time></trkpt><trkpt lat="43.917817" lon="12.0764706"><ele>657.2</ele><time>2026-04-26T08:40:17.008Z</time></trkpt><trkpt lat="43.9178234" lon="12.0763427"><ele>656.4</ele><time>2026-04-26T08:40:18.014Z</time></trkpt><trkpt lat="43.9178339" lon="12.0762122"><ele>655.6</ele><time>2026-04-26T08:40:19.011Z</time></trkpt><trkpt lat="43.9178428" lon="12.0760844"><ele>654.8000000000001</ele><time>2026-04-26T08:40:20.029Z</time></trkpt><trkpt lat="43.9178543" lon="12.0759454"><ele>654.0</ele><time>2026-04-26T08:40:21.02Z</time></trkpt><trkpt lat="43.9178742" lon="12.0758107"><ele>652.6</ele><time>2026-04-26T08:40:22.017Z</time></trkpt><trkpt lat="43.9178927" lon="12.0756773"><ele>651.2</ele><time>2026-04-26T08:40:23.017Z</time></trkpt><trkpt lat="43.9179109" lon="12.0755393"><ele>649.8000000000001</ele><time>2026-04-26T08:40:24.022Z</time></trkpt><trkpt lat="43.9179317" lon="12.0754045"><ele>648.4000000000001</ele><time>2026-04-26T08:40:25.01Z</time></trkpt><trkpt lat="43.917949" lon="12.0752588"><ele>647.0</ele><time>2026-04-26T08:40:26.014Z</time></trkpt><trkpt lat="43.9179609" lon="12.0751173"><ele>647.0</ele><time>2026-04-26T08:40:27.011Z</time></trkpt><trkpt lat="43.9179746" lon="12.0749806"><ele>647.0</ele><time>2026-04-26T08:40:28.021Z</time></trkpt><trkpt lat="43.9179831" lon="12.0748673"><ele>647.0</ele><time>2026-04-26T08:40:29.014Z</time></trkpt><trkpt lat="43.9179992" lon="12.0747618"><ele>647.0</ele><time>2026-04-26T08:40:30.012Z</time></trkpt><trkpt lat="43.9180166" lon="12.074675"><ele>647.0</ele><time>2026-04-26T08:40:31.002Z</time></trkpt><trkpt lat="43.9180282" lon="12.074527"><ele>647.0</ele><time>2026-04-26T08:40:33.017Z</time></trkpt><trkpt lat="43.9179797" lon="12.0744383"><ele>647.0</ele><time>2026-04-26T08:40:35.033Z</time></trkpt><trkpt lat="43.9178767" lon="12.0744968"><ele>647.0</ele><time>2026-04-26T08:40:37.017Z</time></trkpt><trkpt lat="43.9178182" lon="12.0746495"><ele>647.0</ele><time>2026-04-26T08:40:38.999Z</time></trkpt><trkpt lat="43.9177974" lon="12.0747492"><ele>647.0</ele><time>2026-04-26T08:40:40.002Z</time></trkpt><trkpt lat="43.9177715" lon="12.0748593"><ele>647.0</ele><time>2026-04-26T08:40:41.007Z</time></trkpt><trkpt lat="43.9177421" lon="12.0749581"><ele>647.0</ele><time>2026-04-26T08:40:42.002Z</time></trkpt><trkpt lat="43.91771" lon="12.0750452"><ele>647.0</ele><time>2026-04-26T08:40:43Z</time></trkpt><trkpt lat="43.9176712" lon="12.0751266"><ele>647.0</ele><time>2026-04-26T08:40:44.014Z</time></trkpt><trkpt lat="43.9176279" lon="12.0752051"><ele>647.0</ele><time>2026-04-26T08:40:45.015Z</time></trkpt><trkpt lat="43.917587" lon="12.0752803"><ele>647.0</ele><time>2026-04-26T08:40:46.013Z</time></trkpt><trkpt lat="43.9175327" lon="12.0753406"><ele>647.0</ele><time>2026-04-26T08:40:47.024Z</time></trkpt><trkpt lat="43.9174667" lon="12.0754029"><ele>647.0</ele><time>2026-04-26T08:40:48.026Z</time></trkpt><trkpt lat="43.9173962" lon="12.075463"><ele>644.7142857142857</ele><time>2026-04-26T08:40:49.008Z</time></trkpt><trkpt lat="43.9173303" lon="12.075522"><ele>642.4285714285714</ele><time>2026-04-26T08:40:50.016Z</time></trkpt><trkpt lat="43.9172661" lon="12.0755759"><ele>640.1428571428571</ele><time>2026-04-26T08:40:51.01Z</time></trkpt><trkpt lat="43.9172019" lon="12.0756222"><ele>637.8571428571429</ele><time>2026-04-26T08:40:52.003Z</time></trkpt><trkpt lat="43.9171419" lon="12.0756735"><ele>635.5714285714286</ele><time>2026-04-26T08:40:53.012Z</time></trkpt><trkpt lat="43.9170829" lon="12.0757175"><ele>633.2857142857143</ele><time>2026-04-26T08:40:54.006Z</time></trkpt><trkpt lat="43.9170224" lon="12.0757577"><ele>631.0</ele><time>2026-04-26T08:40:55.016Z</time></trkpt><trkpt lat="43.9169587" lon="12.0758024"><ele>631.0</ele><time>2026-04-26T08:40:56.011Z</time></trkpt><trkpt lat="43.9168909" lon="12.0758457"><ele>631.0</ele><time>2026-04-26T08:40:57.008Z</time></trkpt><trkpt lat="43.9168214" lon="12.0758904"><ele>631.0</ele><time>2026-04-26T08:40:58.026Z</time></trkpt><trkpt lat="43.9167504" lon="12.0759223"><ele>631.0</ele><time>2026-04-26T08:40:59.01Z</time></trkpt><trkpt lat="43.9166784" lon="12.0759553"><ele>631.0</ele><time>2026-04-26T08:41:00.026Z</time></trkpt><trkpt lat="43.9166063" lon="12.0759822"><ele>631.0</ele><time>2026-04-26T08:41:01.006Z</time></trkpt><trkpt lat="43.9165281" lon="12.0760119"><ele>628.4285714285714</ele><time>2026-04-26T08:41:02.011Z</time></trkpt><trkpt lat="43.9164513" lon="12.0760345"><ele>625.8571428571428</ele><time>2026-04-26T08:41:03.01Z</time></trkpt><trkpt lat="43.9163783" lon="12.0760575"><ele>623.2857142857142</ele><time>2026-04-26T08:41:04.007Z</time></trkpt><trkpt lat="43.9163118" lon="12.0760937"><ele>620.7142857142858</ele><time>2026-04-26T08:41:05.018Z</time></trkpt><trkpt lat="43.9162489" lon="12.0761319"><ele>618.1428571428571</ele><time>2026-04-26T08:41:06.019Z</time></trkpt><trkpt lat="43.9161931" lon="12.0761837"><ele>615.5714285714286</ele><time>2026-04-26T08:41:07.019Z</time></trkpt><trkpt lat="43.9161489" lon="12.0762548"><ele>613.0</ele><time>2026-04-26T08:41:08.017Z</time></trkpt><trkpt lat="43.9161228" lon="12.0763529"><ele>613.0</ele><time>2026-04-26T08:41:09.004Z</time></trkpt><trkpt lat="43.9161043" lon="12.0764569"><ele>613.0</ele><time>2026-04-26T08:41:10.022Z</time></trkpt><trkpt lat="43.9161128" lon="12.0765722"><ele>613.0</ele><time>2026-04-26T08:41:11.007Z</time></trkpt><trkpt lat="43.9161349" lon="12.0766815"><ele>613.0</ele><time>2026-04-26T08:41:12.016Z</time></trkpt><trkpt lat="43.9161639" lon="12.0767856"><ele>613.0</ele><time>2026-04-26T08:41:13.007Z</time></trkpt><trkpt lat="43.9161926" lon="12.0768885"><ele>613.0</ele><time>2026-04-26T08:41:14.009Z</time></trkpt><trkpt lat="43.9162188" lon="12.076996"><ele>613.0</ele><time>2026-04-26T08:41:15.006Z</time></trkpt><trkpt lat="43.9162403" lon="12.0771037"><ele>613.0</ele><time>2026-04-26T08:41:16.009Z</time></trkpt><trkpt lat="43.9162595" lon="12.0772116"><ele>613.0</ele><time>2026-04-26T08:41:17.014Z</time></trkpt><trkpt lat="43.9162739" lon="12.0773232"><ele>613.0</ele><time>2026-04-26T08:41:18.016Z</time></trkpt><trkpt lat="43.9162945" lon="12.0774348"><ele>613.0</ele><time>2026-04-26T08:41:19.014Z</time></trkpt><trkpt lat="43.9163145" lon="12.0775492"><ele>613.0</ele><time>2026-04-26T08:41:20.008Z</time></trkpt><trkpt lat="43.9163307" lon="12.0776533"><ele>612.8333333333334</ele><time>2026-04-26T08:41:21.005Z</time></trkpt><trkpt lat="43.9163368" lon="12.0777612"><ele>612.6666666666667</ele><time>2026-04-26T08:41:22.024Z</time></trkpt><trkpt lat="43.9163379" lon="12.0778692"><ele>612.5</ele><time>2026-04-26T08:41:23.013Z</time></trkpt><trkpt lat="43.9163377" lon="12.0779818"><ele>612.3333333333334</ele><time>2026-04-26T08:41:24.016Z</time></trkpt><trkpt lat="43.9163403" lon="12.0780937"><ele>612.1666666666666</ele><time>2026-04-26T08:41:25.002Z</time></trkpt><trkpt lat="43.9163456" lon="12.0782066"><ele>612.0</ele><time>2026-04-26T08:41:26.011Z</time></trkpt><trkpt lat="43.9163492" lon="12.0783167"><ele>611.8333333333334</ele><time>2026-04-26T08:41:27.012Z</time></trkpt><trkpt lat="43.9163525" lon="12.0784279"><ele>611.6666666666666</ele><time>2026-04-26T08:41:28.011Z</time></trkpt><trkpt lat="43.9163491" lon="12.0785482"><ele>611.5</ele><time>2026-04-26T08:41:29.015Z</time></trkpt><trkpt lat="43.9163371" lon="12.0786603"><ele>611.3333333333333</ele><time>2026-04-26T08:41:30.014Z</time></trkpt><trkpt lat="43.916326" lon="12.0787699"><ele>611.1666666666666</ele><time>2026-04-26T08:41:31.006Z</time></trkpt><trkpt lat="43.9163155" lon="12.0788829"><ele>611.0</ele><time>2026-04-26T08:41:32.015Z</time></trkpt><trkpt lat="43.9163018" lon="12.0789876"><ele>611.0</ele><time>2026-04-26T08:41:33.031Z</time></trkpt><trkpt lat="43.9163056" lon="12.0790808"><ele>611.0</ele><time>2026-04-26T08:41:34.013Z</time></trkpt><trkpt lat="43.9163728" lon="12.0792282"><ele>611.0</ele><time>2026-04-26T08:41:36.014Z</time></trkpt><trkpt lat="43.9164184" lon="12.079308"><ele>611.0</ele><time>2026-04-26T08:41:37.001Z</time></trkpt><trkpt lat="43.9164506" lon="12.079384"><ele>611.0</ele><time>2026-04-26T08:41:38.012Z</time></trkpt><trkpt lat="43.9164742" lon="12.0795498"><ele>610.1666666666666</ele><time>2026-04-26T08:41:40.006Z</time></trkpt><trkpt lat="43.9164564" lon="12.079646"><ele>609.3333333333333</ele><time>2026-04-26T08:41:41.002Z</time></trkpt><trkpt lat="43.9163994" lon="12.0797367"><ele>608.5</ele><time>2026-04-26T08:41:42.007Z</time></trkpt><trkpt lat="43.9163388" lon="12.0798274"><ele>607.6666666666666</ele><time>2026-04-26T08:41:42.991Z</time></trkpt><trkpt lat="43.916276" lon="12.0799266"><ele>606.8333333333334</ele><time>2026-04-26T08:41:43.996Z</time></trkpt><trkpt lat="43.9162188" lon="12.080024"><ele>606.0</ele><time>2026-04-26T08:41:45Z</time></trkpt><trkpt lat="43.9161595" lon="12.0801237"><ele>605.5</ele><time>2026-04-26T08:41:46.007Z</time></trkpt><trkpt lat="43.9161039" lon="12.0802068"><ele>605.0</ele><time>2026-04-26T08:41:47.007Z</time></trkpt><trkpt lat="43.9160484" lon="12.0802913"><ele>604.5</ele><time>2026-04-26T08:41:48.003Z</time></trkpt><trkpt lat="43.9159902" lon="12.0803842"><ele>604.0</ele><time>2026-04-26T08:41:48.995Z</time></trkpt><trkpt lat="43.9159338" lon="12.0804756"><ele>603.5</ele><time>2026-04-26T08:41:50.006Z</time></trkpt><trkpt lat="43.9158796" lon="12.0805738"><ele>603.0</ele><time>2026-04-26T08:41:51.011Z</time></trkpt><trkpt lat="43.9158228" lon="12.0806671"><ele>599.1666666666666</ele><time>2026-04-26T08:41:52.006Z</time></trkpt><trkpt lat="43.9157686" lon="12.080755"><ele>595.3333333333334</ele><time>2026-04-26T08:41:52.994Z</time></trkpt><trkpt lat="43.9157131" lon="12.0808449"><ele>591.5</ele><time>2026-04-26T08:41:54.015Z</time></trkpt><trkpt lat="43.9156595" lon="12.0809344"><ele>587.6666666666667</ele><time>2026-04-26T08:41:55.003Z</time></trkpt><trkpt lat="43.9156063" lon="12.0810344"><ele>583.8333333333334</ele><time>2026-04-26T08:41:56Z</time></trkpt><trkpt lat="43.915565" lon="12.0811462"><ele>580.0</ele><time>2026-04-26T08:41:57Z</time></trkpt><trkpt lat="43.9155303" lon="12.0812608"><ele>580.0</ele><time>2026-04-26T08:41:58.008Z</time></trkpt><trkpt lat="43.915508" lon="12.0813802"><ele>580.0</ele><time>2026-04-26T08:41:58.999Z</time></trkpt><trkpt lat="43.9154866" lon="12.0815084"><ele>580.0</ele><time>2026-04-26T08:42:00.007Z</time></trkpt><trkpt lat="43.9154556" lon="12.0816245"><ele>580.0</ele><time>2026-04-26T08:42:01.003Z</time></trkpt><trkpt lat="43.9154177" lon="12.0817399"><ele>580.0</ele><time>2026-04-26T08:42:01.998Z</time></trkpt><trkpt lat="43.9153726" lon="12.0818433"><ele>581.0</ele><time>2026-04-26T08:42:03.001Z</time></trkpt><trkpt lat="43.9153253" lon="12.0819481"><ele>582.0</ele><time>2026-04-26T08:42:04.011Z</time></trkpt><trkpt lat="43.9152734" lon="12.0820514"><ele>583.0</ele><time>2026-04-26T08:42:05.006Z</time></trkpt><trkpt lat="43.9152218" lon="12.0821515"><ele>584.0</ele><time>2026-04-26T08:42:06.014Z</time></trkpt><trkpt lat="43.9151733" lon="12.0822433"><ele>585.0</ele><time>2026-04-26T08:42:07.009Z</time></trkpt><trkpt lat="43.9151214" lon="12.0823385"><ele>586.0</ele><time>2026-04-26T08:42:08.007Z</time></trkpt><trkpt lat="43.9150691" lon="12.0824174"><ele>582.0</ele><time>2026-04-26T08:42:09.005Z</time></trkpt><trkpt lat="43.9150104" lon="12.0825019"><ele>578.0</ele><time>2026-04-26T08:42:10.015Z</time></trkpt><trkpt lat="43.9149387" lon="12.0825671"><ele>574.0</ele><time>2026-04-26T08:42:11.01Z</time></trkpt><trkpt lat="43.9148603" lon="12.0825904"><ele>570.0</ele><time>2026-04-26T08:42:12.001Z</time></trkpt><trkpt lat="43.9147919" lon="12.0826026"><ele>566.0</ele><time>2026-04-26T08:42:13.003Z</time></trkpt><trkpt lat="43.914691" lon="12.0826552"><ele>562.0</ele><time>2026-04-26T08:42:15.02Z</time></trkpt><trkpt lat="43.9146578" lon="12.0827853"><ele>562.0</ele><time>2026-04-26T08:42:17.002Z</time></trkpt><trkpt lat="43.9147216" lon="12.0829066"><ele>562.0</ele><time>2026-04-26T08:42:19.007Z</time></trkpt><trkpt lat="43.9147837" lon="12.0829286"><ele>562.0</ele><time>2026-04-26T08:42:20.013Z</time></trkpt><trkpt lat="43.9148519" lon="12.082935"><ele>562.0</ele><time>2026-04-26T08:42:21.001Z</time></trkpt><trkpt lat="43.914925" lon="12.0829335"><ele>562.0</ele><time>2026-04-26T08:42:22.006Z</time></trkpt><trkpt lat="43.9150123" lon="12.0829282"><ele>562.0</ele><time>2026-04-26T08:42:22.996Z</time></trkpt><trkpt lat="43.9150945" lon="12.0829168"><ele>562.6666666666667</ele><time>2026-04-26T08:42:24.008Z</time></trkpt><trkpt lat="43.9151719" lon="12.0829062"><ele>563.3333333333334</ele><time>2026-04-26T08:42:25.01Z</time></trkpt><trkpt lat="43.9152524" lon="12.0828919"><ele>564.0</ele><time>2026-04-26T08:42:26.008Z</time></trkpt><trkpt lat="43.9153324" lon="12.0828722"><ele>564.6666666666666</ele><time>2026-04-26T08:42:27.011Z</time></trkpt><trkpt lat="43.9154162" lon="12.0828563"><ele>565.3333333333333</ele><time>2026-04-26T08:42:28.003Z</time></trkpt><trkpt lat="43.9154966" lon="12.0828341"><ele>566.0</ele><time>2026-04-26T08:42:29.01Z</time></trkpt><trkpt lat="43.9155756" lon="12.0828021"><ele>566.0</ele><time>2026-04-26T08:42:30.016Z</time></trkpt><trkpt lat="43.9156595" lon="12.0827705"><ele>566.0</ele><time>2026-04-26T08:42:31.013Z</time></trkpt><trkpt lat="43.915745" lon="12.0827503"><ele>566.0</ele><time>2026-04-26T08:42:32.016Z</time></trkpt><trkpt lat="43.9158272" lon="12.0827226"><ele>566.0</ele><time>2026-04-26T08:42:33.014Z</time></trkpt><trkpt lat="43.915906" lon="12.0827031"><ele>566.0</ele><time>2026-04-26T08:42:34.018Z</time></trkpt><trkpt lat="43.9159856" lon="12.0827124"><ele>566.0</ele><time>2026-04-26T08:42:35.002Z</time></trkpt><trkpt lat="43.9160692" lon="12.0827484"><ele>567.0</ele><time>2026-04-26T08:42:36.012Z</time></trkpt><trkpt lat="43.9161389" lon="12.0827933"><ele>568.0</ele><time>2026-04-26T08:42:37.003Z</time></trkpt><trkpt lat="43.9161957" lon="12.0828554"><ele>569.0</ele><time>2026-04-26T08:42:38Z</time></trkpt><trkpt lat="43.9162373" lon="12.0829536"><ele>570.0</ele><time>2026-04-26T08:42:39Z</time></trkpt><trkpt lat="43.9162675" lon="12.0830769"><ele>571.0</ele><time>2026-04-26T08:42:40.003Z</time></trkpt><trkpt lat="43.916299" lon="12.0832005"><ele>572.0</ele><time>2026-04-26T08:42:41.006Z</time></trkpt><trkpt lat="43.9163348" lon="12.0833168"><ele>568.5</ele><time>2026-04-26T08:42:42Z</time></trkpt><trkpt lat="43.9163783" lon="12.08343"><ele>565.0</ele><time>2026-04-26T08:42:43.009Z</time></trkpt><trkpt lat="43.9164136" lon="12.0835322"><ele>561.5</ele><time>2026-04-26T08:42:44.005Z</time></trkpt><trkpt lat="43.9164478" lon="12.0836201"><ele>558.0</ele><time>2026-04-26T08:42:45.013Z</time></trkpt><trkpt lat="43.9164951" lon="12.0836936"><ele>554.5</ele><time>2026-04-26T08:42:46.016Z</time></trkpt><trkpt lat="43.9165473" lon="12.0837582"><ele>551.0</ele><time>2026-04-26T08:42:47.009Z</time></trkpt><trkpt lat="43.9165992" lon="12.0838318"><ele>551.0</ele><time>2026-04-26T08:42:48.004Z</time></trkpt><trkpt lat="43.9166443" lon="12.0839368"><ele>551.0</ele><time>2026-04-26T08:42:49.01Z</time></trkpt><trkpt lat="43.9166656" lon="12.0840569"><ele>551.0</ele><time>2026-04-26T08:42:50.005Z</time></trkpt><trkpt lat="43.9166845" lon="12.0841732"><ele>551.0</ele><time>2026-04-26T08:42:51.006Z</time></trkpt><trkpt lat="43.9167028" lon="12.0842903"><ele>551.0</ele><time>2026-04-26T08:42:52.01Z</time></trkpt><trkpt lat="43.9167164" lon="12.0844113"><ele>551.0</ele><time>2026-04-26T08:42:53.009Z</time></trkpt><trkpt lat="43.9167253" lon="12.0845289"><ele>549.6666666666666</ele><time>2026-04-26T08:42:54.013Z</time></trkpt><trkpt lat="43.9167423" lon="12.0846428"><ele>548.3333333333333</ele><time>2026-04-26T08:42:55.005Z</time></trkpt><trkpt lat="43.916767" lon="12.0847544"><ele>547.0</ele><time>2026-04-26T08:42:56.006Z</time></trkpt><trkpt lat="43.9168067" lon="12.0848492"><ele>545.6666666666666</ele><time>2026-04-26T08:42:57.001Z</time></trkpt><trkpt lat="43.9168539" lon="12.0849239"><ele>544.3333333333334</ele><time>2026-04-26T08:42:58.004Z</time></trkpt><trkpt lat="43.9169005" lon="12.0850008"><ele>543.0</ele><time>2026-04-26T08:42:58.999Z</time></trkpt><trkpt lat="43.9169612" lon="12.0851086"><ele>543.0</ele><time>2026-04-26T08:43:00.998Z</time></trkpt><trkpt lat="43.9169171" lon="12.0852141"><ele>543.0</ele><time>2026-04-26T08:43:03.003Z</time></trkpt><trkpt lat="43.9168194" lon="12.0852252"><ele>543.0</ele><time>2026-04-26T08:43:04.994Z</time></trkpt><trkpt lat="43.9167397" lon="12.0851597"><ele>543.0</ele><time>2026-04-26T08:43:07.015Z</time></trkpt><trkpt lat="43.9166859" lon="12.0850553"><ele>543.0</ele><time>2026-04-26T08:43:08.999Z</time></trkpt><trkpt lat="43.9166288" lon="12.0849345"><ele>542.3333333333334</ele><time>2026-04-26T08:43:11.008Z</time></trkpt><trkpt lat="43.9165852" lon="12.084864"><ele>541.6666666666666</ele><time>2026-04-26T08:43:12.006Z</time></trkpt><trkpt lat="43.9165298" lon="12.0847802"><ele>541.0</ele><time>2026-04-26T08:43:12.997Z</time></trkpt><trkpt lat="43.9164705" lon="12.0847044"><ele>540.3333333333333</ele><time>2026-04-26T08:43:14.023Z</time></trkpt><trkpt lat="43.9164093" lon="12.0846247"><ele>539.6666666666666</ele><time>2026-04-26T08:43:15.013Z</time></trkpt><trkpt lat="43.9163421" lon="12.084545"><ele>539.0</ele><time>2026-04-26T08:43:16.004Z</time></trkpt><trkpt lat="43.9162767" lon="12.084466"><ele>539.0</ele><time>2026-04-26T08:43:17.004Z</time></trkpt><trkpt lat="43.916207" lon="12.0843983"><ele>539.0</ele><time>2026-04-26T08:43:18.008Z</time></trkpt><trkpt lat="43.9161369" lon="12.0843243"><ele>539.0</ele><time>2026-04-26T08:43:19.003Z</time></trkpt><trkpt lat="43.916069" lon="12.0842527"><ele>539.0</ele><time>2026-04-26T08:43:20.025Z</time></trkpt><trkpt lat="43.9160024" lon="12.0841851"><ele>539.0</ele><time>2026-04-26T08:43:21.011Z</time></trkpt><trkpt lat="43.9159441" lon="12.0841208"><ele>539.0</ele><time>2026-04-26T08:43:22.002Z</time></trkpt><trkpt lat="43.9158527" lon="12.0840482"><ele>535.6666666666666</ele><time>2026-04-26T08:43:24.004Z</time></trkpt><trkpt lat="43.9157751" lon="12.0841445"><ele>532.3333333333333</ele><time>2026-04-26T08:43:26.009Z</time></trkpt><trkpt lat="43.9157773" lon="12.0842989"><ele>529.0</ele><time>2026-04-26T08:43:28.004Z</time></trkpt><trkpt lat="43.9157948" lon="12.0843876"><ele>525.6666666666666</ele><time>2026-04-26T08:43:29.003Z</time></trkpt><trkpt lat="43.9158097" lon="12.0844745"><ele>522.3333333333334</ele><time>2026-04-26T08:43:30.007Z</time></trkpt><trkpt lat="43.9158225" lon="12.0845718"><ele>519.0</ele><time>2026-04-26T08:43:31Z</time></trkpt><trkpt lat="43.9158489" lon="12.0846687"><ele>519.0</ele><time>2026-04-26T08:43:32.017Z</time></trkpt><trkpt lat="43.915888" lon="12.0847549"><ele>519.0</ele><time>2026-04-26T08:43:32.996Z</time></trkpt><trkpt lat="43.9159369" lon="12.0848302"><ele>519.0</ele><time>2026-04-26T08:43:34.007Z</time></trkpt><trkpt lat="43.9160078" lon="12.0849017"><ele>519.0</ele><time>2026-04-26T08:43:34.999Z</time></trkpt><trkpt lat="43.9160822" lon="12.0849589"><ele>519.0</ele><time>2026-04-26T08:43:36.002Z</time></trkpt><trkpt lat="43.9161451" lon="12.085023"><ele>519.0</ele><time>2026-04-26T08:43:36.998Z</time></trkpt><trkpt lat="43.9162077" lon="12.0850827"><ele>520.4</ele><time>2026-04-26T08:43:38.004Z</time></trkpt><trkpt lat="43.9162789" lon="12.0851404"><ele>521.8</ele><time>2026-04-26T08:43:38.998Z</time></trkpt><trkpt lat="43.9163377" lon="12.0851967"><ele>523.2</ele><time>2026-04-26T08:43:40.017Z</time></trkpt><trkpt lat="43.9164235" lon="12.0852986"><ele>524.6</ele><time>2026-04-26T08:43:42.006Z</time></trkpt><trkpt lat="43.916439" lon="12.0854399"><ele>526.0</ele><time>2026-04-26T08:43:44.006Z</time></trkpt><trkpt lat="43.9163546" lon="12.0855092"><ele>526.0</ele><time>2026-04-26T08:43:46.001Z</time></trkpt><trkpt lat="43.9162612" lon="12.0854538"><ele>526.0</ele><time>2026-04-26T08:43:48.003Z</time></trkpt><trkpt lat="43.9161531" lon="12.085357"><ele>526.0</ele><time>2026-04-26T08:43:50Z</time></trkpt><trkpt lat="43.9160875" lon="12.0853157"><ele>526.0</ele><time>2026-04-26T08:43:51.004Z</time></trkpt><trkpt lat="43.9160287" lon="12.0852785"><ele>526.0</ele><time>2026-04-26T08:43:52.01Z</time></trkpt><trkpt lat="43.9159615" lon="12.0852537"><ele>526.0</ele><time>2026-04-26T08:43:53.02Z</time></trkpt><trkpt lat="43.9158867" lon="12.0852406"><ele>522.3333333333334</ele><time>2026-04-26T08:43:54.012Z</time></trkpt><trkpt lat="43.9158144" lon="12.0852302"><ele>518.6666666666667</ele><time>2026-04-26T08:43:54.999Z</time></trkpt><trkpt lat="43.9157456" lon="12.085225"><ele>515.0</ele><time>2026-04-26T08:43:56.007Z</time></trkpt><trkpt lat="43.9156772" lon="12.0852211"><ele>511.33333333333337</ele><time>2026-04-26T08:43:56.999Z</time></trkpt><trkpt lat="43.9156101" lon="12.0852069"><ele>507.6666666666667</ele><time>2026-04-26T08:43:58Z</time></trkpt><trkpt lat="43.9154958" lon="12.0851976"><ele>504.0</ele><time>2026-04-26T08:44:00.015Z</time></trkpt><trkpt lat="43.9154332" lon="12.0851768"><ele>504.0</ele><time>2026-04-26T08:44:01.016Z</time></trkpt><trkpt lat="43.9153757" lon="12.0851405"><ele>504.0</ele><time>2026-04-26T08:44:02.019Z</time></trkpt><trkpt lat="43.9153016" lon="12.0850091"><ele>504.0</ele><time>2026-04-26T08:44:04.007Z</time></trkpt><trkpt lat="43.9152813" lon="12.0849156"><ele>504.0</ele><time>2026-04-26T08:44:05.01Z</time></trkpt><trkpt lat="43.9152547" lon="12.0848106"><ele>504.0</ele><time>2026-04-26T08:44:06.005Z</time></trkpt><trkpt lat="43.9152363" lon="12.0847106"><ele>504.0</ele><time>2026-04-26T08:44:07.009Z</time></trkpt><trkpt lat="43.9152162" lon="12.0846196"><ele>503.6666666666667</ele><time>2026-04-26T08:44:08.008Z</time></trkpt><trkpt lat="43.9151938" lon="12.0845323"><ele>503.33333333333337</ele><time>2026-04-26T08:44:09.002Z</time></trkpt><trkpt lat="43.9151552" lon="12.0844578"><ele>503.0</ele><time>2026-04-26T08:44:10.01Z</time></trkpt><trkpt lat="43.9150532" lon="12.0843522"><ele>502.6666666666667</ele><time>2026-04-26T08:44:12.013Z</time></trkpt><trkpt lat="43.9149911" lon="12.0843103"><ele>502.33333333333337</ele><time>2026-04-26T08:44:13.008Z</time></trkpt><trkpt lat="43.914918" lon="12.0842887"><ele>502.0</ele><time>2026-04-26T08:44:14.01Z</time></trkpt><trkpt lat="43.9148365" lon="12.0842796"><ele>502.00000000000006</ele><time>2026-04-26T08:44:15.015Z</time></trkpt><trkpt lat="43.9147488" lon="12.0842801"><ele>502.0</ele><time>2026-04-26T08:44:16.01Z</time></trkpt><trkpt lat="43.9146601" lon="12.0842833"><ele>502.0</ele><time>2026-04-26T08:44:17.005Z</time></trkpt><trkpt lat="43.9145724" lon="12.0842846"><ele>502.0</ele><time>2026-04-26T08:44:18.005Z</time></trkpt><trkpt lat="43.9144822" lon="12.084289"><ele>502.00000000000006</ele><time>2026-04-26T08:44:19.009Z</time></trkpt><trkpt lat="43.914397" lon="12.084288"><ele>502.0</ele><time>2026-04-26T08:44:20.004Z</time></trkpt><trkpt lat="43.9143144" lon="12.0842887"><ele>500.00000000000006</ele><time>2026-04-26T08:44:21.009Z</time></trkpt><trkpt lat="43.9142287" lon="12.0843016"><ele>498.0</ele><time>2026-04-26T08:44:22.011Z</time></trkpt><trkpt lat="43.9141433" lon="12.0843133"><ele>496.0</ele><time>2026-04-26T08:44:22.999Z</time></trkpt><trkpt lat="43.9140594" lon="12.0843191"><ele>494.0</ele><time>2026-04-26T08:44:24.025Z</time></trkpt><trkpt lat="43.9139728" lon="12.0843211"><ele>492.00000000000006</ele><time>2026-04-26T08:44:25.013Z</time></trkpt><trkpt lat="43.9138834" lon="12.0843312"><ele>490.0</ele><time>2026-04-26T08:44:26.007Z</time></trkpt><trkpt lat="43.9137915" lon="12.0843422"><ele>490.00000000000006</ele><time>2026-04-26T08:44:27.006Z</time></trkpt><trkpt lat="43.9137069" lon="12.0843621"><ele>490.0</ele><time>2026-04-26T08:44:28.008Z</time></trkpt><trkpt lat="43.9136324" lon="12.0844044"><ele>490.0</ele><time>2026-04-26T08:44:28.996Z</time></trkpt><trkpt lat="43.9135685" lon="12.0844522"><ele>490.0</ele><time>2026-04-26T08:44:30.006Z</time></trkpt><trkpt lat="43.913503" lon="12.0844943"><ele>490.00000000000006</ele><time>2026-04-26T08:44:31.011Z</time></trkpt><trkpt lat="43.9134399" lon="12.0845133"><ele>490.0</ele><time>2026-04-26T08:44:32.001Z</time></trkpt><trkpt lat="43.9133262" lon="12.0844787"><ele>488.0</ele><time>2026-04-26T08:44:34.016Z</time></trkpt><trkpt lat="43.9132512" lon="12.0843648"><ele>486.0</ele><time>2026-04-26T08:44:36.006Z</time></trkpt><trkpt lat="43.9132437" lon="12.0841893"><ele>484.0</ele><time>2026-04-26T08:44:38.011Z</time></trkpt><trkpt lat="43.9132578" lon="12.0840911"><ele>482.0</ele><time>2026-04-26T08:44:39.001Z</time></trkpt><trkpt lat="43.913282" lon="12.0839849"><ele>480.0</ele><time>2026-04-26T08:44:40.012Z</time></trkpt><trkpt lat="43.9133012" lon="12.0838849"><ele>480.0</ele><time>2026-04-26T08:44:41.006Z</time></trkpt><trkpt lat="43.9133156" lon="12.0837793"><ele>480.0</ele><time>2026-04-26T08:44:42.013Z</time></trkpt><trkpt lat="43.9133109" lon="12.0836753"><ele>480.0</ele><time>2026-04-26T08:44:43.005Z</time></trkpt><trkpt lat="43.9132907" lon="12.0835747"><ele>480.0</ele><time>2026-04-26T08:44:44.007Z</time></trkpt><trkpt lat="43.9132649" lon="12.0834711"><ele>480.0</ele><time>2026-04-26T08:44:45.008Z</time></trkpt><trkpt lat="43.9132236" lon="12.0833825"><ele>480.0</ele><time>2026-04-26T08:44:46.009Z</time></trkpt><trkpt lat="43.9131797" lon="12.0832937"><ele>479.6666666666667</ele><time>2026-04-26T08:44:47.001Z</time></trkpt><trkpt lat="43.9131405" lon="12.0832102"><ele>479.33333333333337</ele><time>2026-04-26T08:44:48.012Z</time></trkpt><trkpt lat="43.9131019" lon="12.0831259"><ele>479.0</ele><time>2026-04-26T08:44:49.016Z</time></trkpt><trkpt lat="43.9130685" lon="12.0830345"><ele>478.6666666666667</ele><time>2026-04-26T08:44:50.001Z</time></trkpt><trkpt lat="43.9130438" lon="12.0829473"><ele>478.33333333333337</ele><time>2026-04-26T08:44:51.004Z</time></trkpt><trkpt lat="43.9130319" lon="12.0828588"><ele>478.0</ele><time>2026-04-26T08:44:52.011Z</time></trkpt><trkpt lat="43.9130331" lon="12.0826718"><ele>478.00000000000006</ele><time>2026-04-26T08:44:54.009Z</time></trkpt><trkpt lat="43.9130376" lon="12.0825692"><ele>478.0</ele><time>2026-04-26T08:44:55.004Z</time></trkpt><trkpt lat="43.9130338" lon="12.0824622"><ele>478.0</ele><time>2026-04-26T08:44:56Z</time></trkpt><trkpt lat="43.9130226" lon="12.0823539"><ele>478.0</ele><time>2026-04-26T08:44:57.002Z</time></trkpt><trkpt lat="43.9130037" lon="12.0822451"><ele>478.00000000000006</ele><time>2026-04-26T08:44:58.003Z</time></trkpt><trkpt lat="43.9129807" lon="12.0821396"><ele>478.0</ele><time>2026-04-26T08:44:59.01Z</time></trkpt><trkpt lat="43.9129552" lon="12.0820329"><ele>477.83333333333337</ele><time>2026-04-26T08:45:00.002Z</time></trkpt><trkpt lat="43.9129358" lon="12.0819274"><ele>477.6666666666667</ele><time>2026-04-26T08:45:01.005Z</time></trkpt><trkpt lat="43.9129216" lon="12.081822"><ele>477.5</ele><time>2026-04-26T08:45:02.003Z</time></trkpt><trkpt lat="43.9129295" lon="12.081703"><ele>477.33333333333337</ele><time>2026-04-26T08:45:03.005Z</time></trkpt><trkpt lat="43.9129483" lon="12.0815805"><ele>477.1666666666667</ele><time>2026-04-26T08:45:04.003Z</time></trkpt><trkpt lat="43.912983" lon="12.0814678"><ele>477.0</ele><time>2026-04-26T08:45:05.001Z</time></trkpt><trkpt lat="43.91302" lon="12.0813744"><ele>476.6</ele><time>2026-04-26T08:45:05.997Z</time></trkpt><trkpt lat="43.9130492" lon="12.0812911"><ele>476.20000000000005</ele><time>2026-04-26T08:45:06.989Z</time></trkpt><trkpt lat="43.9130697" lon="12.081139"><ele>475.8</ele><time>2026-04-26T08:45:09.003Z</time></trkpt><trkpt lat="43.9130088" lon="12.081023"><ele>475.4</ele><time>2026-04-26T08:45:11.006Z</time></trkpt><trkpt lat="43.9128955" lon="12.0810464"><ele>475.0</ele><time>2026-04-26T08:45:12.997Z</time></trkpt><trkpt lat="43.9128386" lon="12.0811137"><ele>475.00000000000006</ele><time>2026-04-26T08:45:13.993Z</time></trkpt><trkpt lat="43.9127853" lon="12.0812059"><ele>475.0</ele><time>2026-04-26T08:45:15.001Z</time></trkpt><trkpt lat="43.9127316" lon="12.0812987"><ele>475.0</ele><time>2026-04-26T08:45:16.003Z</time></trkpt><trkpt lat="43.9126761" lon="12.0813943"><ele>475.0</ele><time>2026-04-26T08:45:17Z</time></trkpt><trkpt lat="43.9126261" lon="12.0814946"><ele>475.00000000000006</ele><time>2026-04-26T08:45:17.998Z</time></trkpt><trkpt lat="43.9125787" lon="12.0816044"><ele>475.0</ele><time>2026-04-26T08:45:18.994Z</time></trkpt><trkpt lat="43.9125392" lon="12.0817374"><ele>472.0</ele><time>2026-04-26T08:45:20.005Z</time></trkpt><trkpt lat="43.9125113" lon="12.0818887"><ele>469.0</ele><time>2026-04-26T08:45:20.989Z</time></trkpt><trkpt lat="43.9124838" lon="12.0820429"><ele>466.0</ele><time>2026-04-26T08:45:22.004Z</time></trkpt><trkpt lat="43.912461" lon="12.0821973"><ele>463.0</ele><time>2026-04-26T08:45:22.999Z</time></trkpt><trkpt lat="43.9124334" lon="12.0823599"><ele>460.25</ele><time>2026-04-26T08:45:23.998Z</time></trkpt><trkpt lat="43.9123971" lon="12.0825189"><ele>457.5</ele><time>2026-04-26T08:45:24.999Z</time></trkpt><trkpt lat="43.9123526" lon="12.0826785"><ele>454.75</ele><time>2026-04-26T08:45:25.997Z</time></trkpt><trkpt lat="43.912308" lon="12.0828365"><ele>452.0</ele><time>2026-04-26T08:45:27.006Z</time></trkpt><trkpt lat="43.9122793" lon="12.0829955"><ele>452.0</ele><time>2026-04-26T08:45:28.001Z</time></trkpt><trkpt lat="43.9122569" lon="12.0831541"><ele>452.00000000000006</ele><time>2026-04-26T08:45:28.99Z</time></trkpt><trkpt lat="43.9122381" lon="12.083306"><ele>452.00000000000006</ele><time>2026-04-26T08:45:30.001Z</time></trkpt><trkpt lat="43.9122235" lon="12.0834477"><ele>452.0</ele><time>2026-04-26T08:45:30.998Z</time></trkpt><trkpt lat="43.912212" lon="12.0835751"><ele>452.0</ele><time>2026-04-26T08:45:32.011Z</time></trkpt><trkpt lat="43.9121832" lon="12.0836824"><ele>450.99999999999994</ele><time>2026-04-26T08:45:33.001Z</time></trkpt><trkpt lat="43.9121409" lon="12.0837815"><ele>450.0</ele><time>2026-04-26T08:45:34.004Z</time></trkpt><trkpt lat="43.9120939" lon="12.0838752"><ele>449.0</ele><time>2026-04-26T08:45:35.001Z</time></trkpt><trkpt lat="43.9120581" lon="12.083964"><ele>448.0</ele><time>2026-04-26T08:45:35.997Z</time></trkpt><trkpt lat="43.9120717" lon="12.0841189"><ele>446.99999999999994</ele><time>2026-04-26T08:45:38.009Z</time></trkpt><trkpt lat="43.9121235" lon="12.0841885"><ele>446.0</ele><time>2026-04-26T08:45:39.004Z</time></trkpt><trkpt lat="43.9121895" lon="12.0842576"><ele>445.49999999999994</ele><time>2026-04-26T08:45:39.998Z</time></trkpt><trkpt lat="43.91227" lon="12.084333"><ele>445.0</ele><time>2026-04-26T08:45:41.003Z</time></trkpt><trkpt lat="43.9123305" lon="12.0844242"><ele>444.5</ele><time>2026-04-26T08:45:42.003Z</time></trkpt><trkpt lat="43.9123473" lon="12.0845224"><ele>444.0</ele><time>2026-04-26T08:45:43.003Z</time></trkpt><trkpt lat="43.9123171" lon="12.0846314"><ele>443.49999999999994</ele><time>2026-04-26T08:45:44.006Z</time></trkpt><trkpt lat="43.9122852" lon="12.0847188"><ele>443.0</ele><time>2026-04-26T08:45:45.006Z</time></trkpt><trkpt lat="43.9122228" lon="12.0848029"><ele>443.0</ele><time>2026-04-26T08:45:45.999Z</time></trkpt><trkpt lat="43.9121513" lon="12.0848557"><ele>442.99999999999994</ele><time>2026-04-26T08:45:46.996Z</time></trkpt><trkpt lat="43.9120673" lon="12.0849127"><ele>442.99999999999994</ele><time>2026-04-26T08:45:48.005Z</time></trkpt><trkpt lat="43.9120023" lon="12.0849814"><ele>443.0</ele><time>2026-04-26T08:45:49.004Z</time></trkpt><trkpt lat="43.9119938" lon="12.0851508"><ele>443.0</ele><time>2026-04-26T08:45:51.002Z</time></trkpt><trkpt lat="43.9120233" lon="12.0852428"><ele>441.66666666666663</ele><time>2026-04-26T08:45:51.992Z</time></trkpt><trkpt lat="43.9120817" lon="12.0853164"><ele>440.3333333333333</ele><time>2026-04-26T08:45:53.004Z</time></trkpt><trkpt lat="43.9121493" lon="12.0853784"><ele>439.0</ele><time>2026-04-26T08:45:54.009Z</time></trkpt><trkpt lat="43.9122105" lon="12.0854529"><ele>437.66666666666663</ele><time>2026-04-26T08:45:55.007Z</time></trkpt><trkpt lat="43.9122565" lon="12.0855701"><ele>436.3333333333333</ele><time>2026-04-26T08:45:56.002Z</time></trkpt><trkpt lat="43.9122802" lon="12.0856828"><ele>435.0</ele><time>2026-04-26T08:45:57.001Z</time></trkpt><trkpt lat="43.9122728" lon="12.0858057"><ele>434.2</ele><time>2026-04-26T08:45:57.998Z</time></trkpt><trkpt lat="43.9122365" lon="12.0859363"><ele>433.4</ele><time>2026-04-26T08:45:59.001Z</time></trkpt><trkpt lat="43.9121935" lon="12.0860442"><ele>432.6</ele><time>2026-04-26T08:45:59.998Z</time></trkpt><trkpt lat="43.9121407" lon="12.0861574"><ele>431.8</ele><time>2026-04-26T08:46:00.996Z</time></trkpt><trkpt lat="43.9121105" lon="12.0862735"><ele>431.0</ele><time>2026-04-26T08:46:01.998Z</time></trkpt><trkpt lat="43.9120885" lon="12.0864124"><ele>431.0</ele><time>2026-04-26T08:46:03.002Z</time></trkpt><trkpt lat="43.9120604" lon="12.0865668"><ele>431.0</ele><time>2026-04-26T08:46:04.006Z</time></trkpt><trkpt lat="43.9120323" lon="12.0867434"><ele>431.0</ele><time>2026-04-26T08:46:05Z</time></trkpt><trkpt lat="43.9120024" lon="12.0869294"><ele>431.0</ele><time>2026-04-26T08:46:06.012Z</time></trkpt><trkpt lat="43.91198" lon="12.0870929"><ele>431.49999999999994</ele><time>2026-04-26T08:46:07.002Z</time></trkpt><trkpt lat="43.9119606" lon="12.087244"><ele>432.0</ele><time>2026-04-26T08:46:07.995Z</time></trkpt><trkpt lat="43.9119492" lon="12.0873639"><ele>432.5</ele><time>2026-04-26T08:46:08.998Z</time></trkpt><trkpt lat="43.9119441" lon="12.0874666"><ele>433.0</ele><time>2026-04-26T08:46:10.003Z</time></trkpt><trkpt lat="43.9119676" lon="12.0875533"><ele>433.49999999999994</ele><time>2026-04-26T08:46:10.993Z</time></trkpt><trkpt lat="43.9120263" lon="12.0876418"><ele>434.0</ele><time>2026-04-26T08:46:11.994Z</time></trkpt><trkpt lat="43.912095" lon="12.0877047"><ele>436.4</ele><time>2026-04-26T08:46:13Z</time></trkpt><trkpt lat="43.9122342" lon="12.087745"><ele>438.79999999999995</ele><time>2026-04-26T08:46:15Z</time></trkpt><trkpt lat="43.9123272" lon="12.087754"><ele>441.20000000000005</ele><time>2026-04-26T08:46:15.993Z</time></trkpt><trkpt lat="43.9124252" lon="12.0877457"><ele>443.6</ele><time>2026-04-26T08:46:16.994Z</time></trkpt><trkpt lat="43.9125365" lon="12.0877252"><ele>446.0</ele><time>2026-04-26T08:46:18.007Z</time></trkpt><trkpt lat="43.9126536" lon="12.0877165"><ele>441.20000000000005</ele><time>2026-04-26T08:46:18.996Z</time></trkpt><trkpt lat="43.9127499" lon="12.0877186"><ele>436.40000000000003</ele><time>2026-04-26T08:46:20.003Z</time></trkpt><trkpt lat="43.9128285" lon="12.0877479"><ele>431.6</ele><time>2026-04-26T08:46:21.004Z</time></trkpt><trkpt lat="43.9128948" lon="12.0877817"><ele>426.8</ele><time>2026-04-26T08:46:21.999Z</time></trkpt><trkpt lat="43.9129612" lon="12.0878933"><ele>422.0</ele><time>2026-04-26T08:46:24.005Z</time></trkpt><trkpt lat="43.9129763" lon="12.088071"><ele>421.99999999999994</ele><time>2026-04-26T08:46:26.02Z</time></trkpt><trkpt lat="43.9129631" lon="12.0881805"><ele>422.0</ele><time>2026-04-26T08:46:27.005Z</time></trkpt><trkpt lat="43.9129501" lon="12.0882958"><ele>422.0</ele><time>2026-04-26T08:46:28.01Z</time></trkpt><trkpt lat="43.9129493" lon="12.0884062"><ele>422.0</ele><time>2026-04-26T08:46:28.995Z</time></trkpt><trkpt lat="43.9129598" lon="12.0885129"><ele>421.99999999999994</ele><time>2026-04-26T08:46:30.005Z</time></trkpt><trkpt lat="43.9129782" lon="12.0886224"><ele>422.0</ele><time>2026-04-26T08:46:30.987Z</time></trkpt><trkpt lat="43.9130065" lon="12.0887337"><ele>425.6</ele><time>2026-04-26T08:46:32.007Z</time></trkpt><trkpt lat="43.913037" lon="12.0888528"><ele>429.20000000000005</ele><time>2026-04-26T08:46:32.999Z</time></trkpt><trkpt lat="43.9130586" lon="12.0889749"><ele>432.8</ele><time>2026-04-26T08:46:34.003Z</time></trkpt><trkpt lat="43.9130753" lon="12.0891062"><ele>436.4</ele><time>2026-04-26T08:46:35.004Z</time></trkpt><trkpt lat="43.9130836" lon="12.089256"><ele>440.0</ele><time>2026-04-26T08:46:36Z</time></trkpt><trkpt lat="43.9130791" lon="12.0894147"><ele>440.0</ele><time>2026-04-26T08:46:36.999Z</time></trkpt><trkpt lat="43.9130771" lon="12.089563"><ele>440.0</ele><time>2026-04-26T08:46:38.005Z</time></trkpt><trkpt lat="43.9130736" lon="12.0896938"><ele>440.0</ele><time>2026-04-26T08:46:39.013Z</time></trkpt><trkpt lat="43.9130627" lon="12.0898305"><ele>440.0</ele><time>2026-04-26T08:46:40.005Z</time></trkpt><trkpt lat="43.9130519" lon="12.0899575"><ele>440.0</ele><time>2026-04-26T08:46:41.005Z</time></trkpt><trkpt lat="43.9130427" lon="12.0900871"><ele>440.0</ele><time>2026-04-26T08:46:42.002Z</time></trkpt><trkpt lat="43.91305" lon="12.0902105"><ele>440.0</ele><time>2026-04-26T08:46:42.998Z</time></trkpt><trkpt lat="43.9130615" lon="12.0903456"><ele>440.0</ele><time>2026-04-26T08:46:44.009Z</time></trkpt><trkpt lat="43.9130655" lon="12.090486"><ele>440.0</ele><time>2026-04-26T08:46:44.996Z</time></trkpt><trkpt lat="43.9130556" lon="12.0906407"><ele>440.0</ele><time>2026-04-26T08:46:46.01Z</time></trkpt><trkpt lat="43.9130432" lon="12.0907824"><ele>438.4</ele><time>2026-04-26T08:46:46.998Z</time></trkpt><trkpt lat="43.9130172" lon="12.090917"><ele>436.8</ele><time>2026-04-26T08:46:48.01Z</time></trkpt><trkpt lat="43.9129724" lon="12.091049"><ele>435.20000000000005</ele><time>2026-04-26T08:46:48.996Z</time></trkpt><trkpt lat="43.9129289" lon="12.091182"><ele>433.6</ele><time>2026-04-26T08:46:49.996Z</time></trkpt><trkpt lat="43.9128722" lon="12.0913018"><ele>432.0</ele><time>2026-04-26T08:46:50.996Z</time></trkpt><trkpt lat="43.9128177" lon="12.0914088"><ele>432.0</ele><time>2026-04-26T08:46:51.997Z</time></trkpt><trkpt lat="43.9127582" lon="12.0915062"><ele>432.0</ele><time>2026-04-26T08:46:53.009Z</time></trkpt><trkpt lat="43.9127189" lon="12.091595"><ele>432.0</ele><time>2026-04-26T08:46:54.002Z</time></trkpt><trkpt lat="43.9126901" lon="12.0917569"><ele>432.0</ele><time>2026-04-26T08:46:56.001Z</time></trkpt><trkpt lat="43.9127207" lon="12.0918399"><ele>432.0</ele><time>2026-04-26T08:46:57.004Z</time></trkpt><trkpt lat="43.9127752" lon="12.0919105"><ele>432.0</ele><time>2026-04-26T08:46:58Z</time></trkpt><trkpt lat="43.9128468" lon="12.0919703"><ele>430.1666666666667</ele><time>2026-04-26T08:46:58.989Z</time></trkpt><trkpt lat="43.9129174" lon="12.0920394"><ele>428.33333333333337</ele><time>2026-04-26T08:46:59.996Z</time></trkpt><trkpt lat="43.9129744" lon="12.0921259"><ele>426.5</ele><time>2026-04-26T08:47:00.998Z</time></trkpt><trkpt lat="43.913013" lon="12.0922383"><ele>424.6666666666667</ele><time>2026-04-26T08:47:02.001Z</time></trkpt><trkpt lat="43.9130353" lon="12.0923504"><ele>422.83333333333337</ele><time>2026-04-26T08:47:02.997Z</time></trkpt><trkpt lat="43.9130491" lon="12.0924706"><ele>421.0</ele><time>2026-04-26T08:47:04Z</time></trkpt><trkpt lat="43.9130604" lon="12.0925823"><ele>420.50000000000006</ele><time>2026-04-26T08:47:05.001Z</time></trkpt><trkpt lat="43.9130732" lon="12.0926827"><ele>420.0</ele><time>2026-04-26T08:47:06.009Z</time></trkpt><trkpt lat="43.9130549" lon="12.0927816"><ele>419.5</ele><time>2026-04-26T08:47:07.001Z</time></trkpt><trkpt lat="43.9130151" lon="12.0928857"><ele>419.0</ele><time>2026-04-26T08:47:08.002Z</time></trkpt><trkpt lat="43.9129566" lon="12.0929805"><ele>418.50000000000006</ele><time>2026-04-26T08:47:08.996Z</time></trkpt><trkpt lat="43.9129092" lon="12.0930631"><ele>418.0</ele><time>2026-04-26T08:47:10.006Z</time></trkpt><trkpt lat="43.9128853" lon="12.093217"><ele>417.00000000000006</ele><time>2026-04-26T08:47:11.995Z</time></trkpt><trkpt lat="43.912912" lon="12.0933549"><ele>416.0</ele><time>2026-04-26T08:47:14.008Z</time></trkpt><trkpt lat="43.912952" lon="12.0934371"><ele>415.0</ele><time>2026-04-26T08:47:14.997Z</time></trkpt><trkpt lat="43.9130017" lon="12.0935263"><ele>414.0</ele><time>2026-04-26T08:47:15.999Z</time></trkpt><trkpt lat="43.9130481" lon="12.0936231"><ele>413.00000000000006</ele><time>2026-04-26T08:47:16.998Z</time></trkpt><trkpt lat="43.9130722" lon="12.0937313"><ele>412.0</ele><time>2026-04-26T08:47:18.005Z</time></trkpt><trkpt lat="43.9130865" lon="12.0938445"><ele>412.0</ele><time>2026-04-26T08:47:18.994Z</time></trkpt><trkpt lat="43.9130892" lon="12.0939794"><ele>412.0</ele><time>2026-04-26T08:47:19.998Z</time></trkpt><trkpt lat="43.9130941" lon="12.0941205"><ele>412.0</ele><time>2026-04-26T08:47:21.003Z</time></trkpt><trkpt lat="43.9131061" lon="12.0942484"><ele>412.0</ele><time>2026-04-26T08:47:22.013Z</time></trkpt><trkpt lat="43.9131136" lon="12.0943815"><ele>412.0</ele><time>2026-04-26T08:47:23.004Z</time></trkpt><trkpt lat="43.9131299" lon="12.0945112"><ele>412.0</ele><time>2026-04-26T08:47:24.002Z</time></trkpt><trkpt lat="43.9131487" lon="12.094643"><ele>412.0</ele><time>2026-04-26T08:47:24.998Z</time></trkpt><trkpt lat="43.9131693" lon="12.0947789"><ele>412.0</ele><time>2026-04-26T08:47:26.009Z</time></trkpt><trkpt lat="43.9131783" lon="12.094906"><ele>412.0</ele><time>2026-04-26T08:47:27Z</time></trkpt><trkpt lat="43.9131767" lon="12.0950195"><ele>412.0</ele><time>2026-04-26T08:47:28.001Z</time></trkpt><trkpt lat="43.9131661" lon="12.0951307"><ele>412.00000000000006</ele><time>2026-04-26T08:47:28.992Z</time></trkpt><trkpt lat="43.9131449" lon="12.0952387"><ele>412.0</ele><time>2026-04-26T08:47:30.007Z</time></trkpt><trkpt lat="43.9131025" lon="12.0953348"><ele>412.0</ele><time>2026-04-26T08:47:30.994Z</time></trkpt><trkpt lat="43.9130629" lon="12.0954211"><ele>412.0</ele><time>2026-04-26T08:47:31.997Z</time></trkpt><trkpt lat="43.9129919" lon="12.0954931"><ele>412.00000000000006</ele><time>2026-04-26T08:47:32.998Z</time></trkpt><trkpt lat="43.9129113" lon="12.0955523"><ele>412.0</ele><time>2026-04-26T08:47:34.001Z</time></trkpt><trkpt lat="43.9128323" lon="12.0955952"><ele>412.00000000000006</ele><time>2026-04-26T08:47:35.006Z</time></trkpt><trkpt lat="43.9127499" lon="12.0956179"><ele>412.0</ele><time>2026-04-26T08:47:35.994Z</time></trkpt><trkpt lat="43.9126709" lon="12.0956246"><ele>412.0</ele><time>2026-04-26T08:47:37.001Z</time></trkpt><trkpt lat="43.9125872" lon="12.0956992"><ele>412.0</ele><time>2026-04-26T08:47:38.996Z</time></trkpt><trkpt lat="43.9125717" lon="12.0958421"><ele>412.00000000000006</ele><time>2026-04-26T08:47:40.999Z</time></trkpt><trkpt lat="43.9125886" lon="12.0959319"><ele>412.0</ele><time>2026-04-26T08:47:42.006Z</time></trkpt><trkpt lat="43.9126173" lon="12.0960162"><ele>408.33333333333337</ele><time>2026-04-26T08:47:42.996Z</time></trkpt><trkpt lat="43.9126631" lon="12.0961061"><ele>404.6666666666667</ele><time>2026-04-26T08:47:44.005Z</time></trkpt><trkpt lat="43.9127025" lon="12.0961792"><ele>401.0</ele><time>2026-04-26T08:47:44.996Z</time></trkpt><trkpt lat="43.9127365" lon="12.0962537"><ele>397.33333333333337</ele><time>2026-04-26T08:47:45.999Z</time></trkpt><trkpt lat="43.9127341" lon="12.0964205"><ele>393.6666666666667</ele><time>2026-04-26T08:47:48.002Z</time></trkpt><trkpt lat="43.9126925" lon="12.0965153"><ele>390.0</ele><time>2026-04-26T08:47:48.996Z</time></trkpt><trkpt lat="43.9126485" lon="12.0966144"><ele>385.8</ele><time>2026-04-26T08:47:49.989Z</time></trkpt><trkpt lat="43.912583" lon="12.0967321"><ele>381.6</ele><time>2026-04-26T08:47:50.997Z</time></trkpt><trkpt lat="43.9125247" lon="12.0968607"><ele>377.4</ele><time>2026-04-26T08:47:51.996Z</time></trkpt><trkpt lat="43.9124656" lon="12.0969766"><ele>373.2</ele><time>2026-04-26T08:47:52.998Z</time></trkpt><trkpt lat="43.912403" lon="12.0970892"><ele>369.0</ele><time>2026-04-26T08:47:54Z</time></trkpt><trkpt lat="43.9123454" lon="12.0971888"><ele>371.6</ele><time>2026-04-26T08:47:54.995Z</time></trkpt><trkpt lat="43.9122827" lon="12.0972914"><ele>374.2</ele><time>2026-04-26T08:47:56.021Z</time></trkpt><trkpt lat="43.9122228" lon="12.0973977"><ele>376.8</ele><time>2026-04-26T08:47:57.004Z</time></trkpt><trkpt lat="43.9121759" lon="12.097506"><ele>379.40000000000003</ele><time>2026-04-26T08:47:58.011Z</time></trkpt><trkpt lat="43.9121405" lon="12.0976116"><ele>382.0</ele><time>2026-04-26T08:47:58.998Z</time></trkpt><trkpt lat="43.9121127" lon="12.0977188"><ele>382.0</ele><time>2026-04-26T08:48:00.009Z</time></trkpt><trkpt lat="43.9120827" lon="12.0978195"><ele>382.0</ele><time>2026-04-26T08:48:01.004Z</time></trkpt><trkpt lat="43.9120525" lon="12.0979222"><ele>382.0</ele><time>2026-04-26T08:48:01.998Z</time></trkpt><trkpt lat="43.9120182" lon="12.0980246"><ele>382.0</ele><time>2026-04-26T08:48:03Z</time></trkpt><trkpt lat="43.9119836" lon="12.098119"><ele>382.0</ele><time>2026-04-26T08:48:03.995Z</time></trkpt><trkpt lat="43.9119442" lon="12.0982085"><ele>382.0</ele><time>2026-04-26T08:48:05.001Z</time></trkpt><trkpt lat="43.9118324" lon="12.0983144"><ele>379.16666666666663</ele><time>2026-04-26T08:48:07Z</time></trkpt><trkpt lat="43.9117684" lon="12.0983563"><ele>376.3333333333333</ele><time>2026-04-26T08:48:07.996Z</time></trkpt><trkpt lat="43.9117056" lon="12.0983968"><ele>373.5</ele><time>2026-04-26T08:48:08.996Z</time></trkpt><trkpt lat="43.9116112" lon="12.0984599"><ele>370.6666666666667</ele><time>2026-04-26T08:48:11.001Z</time></trkpt><trkpt lat="43.9115575" lon="12.0985224"><ele>367.83333333333337</ele><time>2026-04-26T08:48:13.007Z</time></trkpt><trkpt lat="43.911502" lon="12.0985851"><ele>365.0</ele><time>2026-04-26T08:48:48.996Z</time></trkpt><trkpt lat="43.9114294" lon="12.098676"><ele>365.33333333333337</ele><time>2026-04-26T08:48:51.006Z</time></trkpt><trkpt lat="43.911332" lon="12.0987846"><ele>365.6666666666667</ele><time>2026-04-26T08:48:52.995Z</time></trkpt><trkpt lat="43.9112804" lon="12.0988526"><ele>366.0</ele><time>2026-04-26T08:48:54.007Z</time></trkpt><trkpt lat="43.9112256" lon="12.0989279"><ele>366.3333333333333</ele><time>2026-04-26T08:48:54.994Z</time></trkpt><trkpt lat="43.9111793" lon="12.0990145"><ele>366.66666666666663</ele><time>2026-04-26T08:48:56.007Z</time></trkpt><trkpt lat="43.9111295" lon="12.099111"><ele>367.0</ele><time>2026-04-26T08:48:57Z</time></trkpt><trkpt lat="43.9110791" lon="12.0992326"><ele>367.0</ele><time>2026-04-26T08:48:58.004Z</time></trkpt><trkpt lat="43.911027" lon="12.0993602"><ele>367.0</ele><time>2026-04-26T08:48:58.995Z</time></trkpt><trkpt lat="43.910975" lon="12.0994797"><ele>367.0</ele><time>2026-04-26T08:49:00.003Z</time></trkpt><trkpt lat="43.9109322" lon="12.0996023"><ele>367.0</ele><time>2026-04-26T08:49:01.005Z</time></trkpt><trkpt lat="43.9108866" lon="12.0997175"><ele>367.0</ele><time>2026-04-26T08:49:01.995Z</time></trkpt><trkpt lat="43.9108485" lon="12.0998373"><ele>369.5</ele><time>2026-04-26T08:49:02.991Z</time></trkpt><trkpt lat="43.9108154" lon="12.0999427"><ele>372.0</ele><time>2026-04-26T08:49:04.008Z</time></trkpt><trkpt lat="43.9107856" lon="12.100036"><ele>374.5</ele><time>2026-04-26T08:49:05.012Z</time></trkpt><trkpt lat="43.9107081" lon="12.1001646"><ele>377.0</ele><time>2026-04-26T08:49:06.996Z</time></trkpt><trkpt lat="43.9106026" lon="12.1001888"><ele>379.5</ele><time>2026-04-26T08:49:09.002Z</time></trkpt><trkpt lat="43.9105443" lon="12.1001503"><ele>382.0</ele><time>2026-04-26T08:49:10.003Z</time></trkpt><trkpt lat="43.9104797" lon="12.1001216"><ele>382.0</ele><time>2026-04-26T08:49:11.011Z</time></trkpt><trkpt lat="43.9104076" lon="12.1001177"><ele>382.0</ele><time>2026-04-26T08:49:12.006Z</time></trkpt><trkpt lat="43.9103254" lon="12.100143"><ele>382.0</ele><time>2026-04-26T08:49:13.006Z</time></trkpt><trkpt lat="43.9102522" lon="12.1001975"><ele>382.0</ele><time>2026-04-26T08:49:14.019Z</time></trkpt><trkpt lat="43.9101806" lon="12.1002692"><ele>382.0</ele><time>2026-04-26T08:49:14.997Z</time></trkpt><trkpt lat="43.9101093" lon="12.1003345"><ele>382.0</ele><time>2026-04-26T08:49:16.012Z</time></trkpt><trkpt lat="43.9100431" lon="12.1003986"><ele>382.40000000000003</ele><time>2026-04-26T08:49:17.024Z</time></trkpt><trkpt lat="43.909975" lon="12.1004564"><ele>382.8</ele><time>2026-04-26T08:49:18.004Z</time></trkpt><trkpt lat="43.9099257" lon="12.1005146"><ele>383.2</ele><time>2026-04-26T08:49:19.001Z</time></trkpt><trkpt lat="43.9098956" lon="12.1006568"><ele>383.6</ele><time>2026-04-26T08:49:20.995Z</time></trkpt><trkpt lat="43.9099405" lon="12.1007836"><ele>384.0</ele><time>2026-04-26T08:49:23Z</time></trkpt><trkpt lat="43.9100008" lon="12.1009172"><ele>384.0</ele><time>2026-04-26T08:49:25.008Z</time></trkpt><trkpt lat="43.9100305" lon="12.1009984"><ele>384.0</ele><time>2026-04-26T08:49:26.005Z</time></trkpt><trkpt lat="43.9100562" lon="12.1010807"><ele>384.0</ele><time>2026-04-26T08:49:27Z</time></trkpt><trkpt lat="43.9100821" lon="12.1011647"><ele>384.0</ele><time>2026-04-26T08:49:28.005Z</time></trkpt><trkpt lat="43.9101187" lon="12.1013226"><ele>384.0</ele><time>2026-04-26T08:49:30.007Z</time></trkpt><trkpt lat="43.9100631" lon="12.1014706"><ele>384.0</ele><time>2026-04-26T08:49:32Z</time></trkpt><trkpt lat="43.9099462" lon="12.1015546"><ele>384.0</ele><time>2026-04-26T08:49:34.006Z</time></trkpt><trkpt lat="43.9098755" lon="12.1015742"><ele>384.0</ele><time>2026-04-26T08:49:34.995Z</time></trkpt><trkpt lat="43.9097959" lon="12.1015981"><ele>384.0</ele><time>2026-04-26T08:49:36.004Z</time></trkpt><trkpt lat="43.909713" lon="12.1016315"><ele>384.0</ele><time>2026-04-26T08:49:37.006Z</time></trkpt><trkpt lat="43.9096324" lon="12.1016797"><ele>384.0</ele><time>2026-04-26T08:49:38.004Z</time></trkpt><trkpt lat="43.9095509" lon="12.10174"><ele>384.0</ele><time>2026-04-26T08:49:38.996Z</time></trkpt><trkpt lat="43.9094718" lon="12.1018124"><ele>385.5</ele><time>2026-04-26T08:49:40.006Z</time></trkpt><trkpt lat="43.909402" lon="12.1018938"><ele>387.0</ele><time>2026-04-26T08:49:41.001Z</time></trkpt><trkpt lat="43.909337" lon="12.1019709"><ele>388.5</ele><time>2026-04-26T08:49:42.004Z</time></trkpt><trkpt lat="43.9092803" lon="12.1020456"><ele>390.0</ele><time>2026-04-26T08:49:43.007Z</time></trkpt><trkpt lat="43.9092186" lon="12.1020904"><ele>391.5</ele><time>2026-04-26T08:49:44.003Z</time></trkpt><trkpt lat="43.9091534" lon="12.1021152"><ele>393.0</ele><time>2026-04-26T08:49:45.001Z</time></trkpt><trkpt lat="43.9090915" lon="12.1020963"><ele>393.00000000000006</ele><time>2026-04-26T08:49:46.031Z</time></trkpt><trkpt lat="43.9090254" lon="12.1020597"><ele>393.0</ele><time>2026-04-26T08:49:46.997Z</time></trkpt><trkpt lat="43.9089539" lon="12.1020159"><ele>393.0</ele><time>2026-04-26T08:49:48.001Z</time></trkpt><trkpt lat="43.9088798" lon="12.1019816"><ele>393.0</ele><time>2026-04-26T08:49:49.01Z</time></trkpt><trkpt lat="43.9088079" lon="12.1019692"><ele>393.0</ele><time>2026-04-26T08:49:49.999Z</time></trkpt><trkpt lat="43.908741" lon="12.101978"><ele>393.00000000000006</ele><time>2026-04-26T08:49:51Z</time></trkpt><trkpt lat="43.9086807" lon="12.1020265"><ele>393.0</ele><time>2026-04-26T08:49:52.013Z</time></trkpt><trkpt lat="43.9086292" lon="12.1020948"><ele>393.0</ele><time>2026-04-26T08:49:53.006Z</time></trkpt><trkpt lat="43.908582" lon="12.1021899"><ele>393.0</ele><time>2026-04-26T08:49:53.997Z</time></trkpt><trkpt lat="43.9085561" lon="12.1022893"><ele>393.0</ele><time>2026-04-26T08:49:55.005Z</time></trkpt><trkpt lat="43.9085327" lon="12.1024098"><ele>393.0</ele><time>2026-04-26T08:49:56Z</time></trkpt><trkpt lat="43.9085128" lon="12.1025473"><ele>393.0</ele><time>2026-04-26T08:49:57.001Z</time></trkpt><trkpt lat="43.9085059" lon="12.1026521"><ele>393.0</ele><time>2026-04-26T08:49:57.998Z</time></trkpt><trkpt lat="43.9084804" lon="12.102757"><ele>387.2</ele><time>2026-04-26T08:49:58.993Z</time></trkpt><trkpt lat="43.9084409" lon="12.1028261"><ele>381.4</ele><time>2026-04-26T08:49:59.997Z</time></trkpt><trkpt lat="43.9083887" lon="12.1028794"><ele>375.59999999999997</ele><time>2026-04-26T08:50:01.005Z</time></trkpt><trkpt lat="43.9082718" lon="12.1028617"><ele>369.79999999999995</ele><time>2026-04-26T08:50:03.001Z</time></trkpt><trkpt lat="43.9081943" lon="12.1027272"><ele>364.0</ele><time>2026-04-26T08:50:05.006Z</time></trkpt><trkpt lat="43.9081631" lon="12.1026214"><ele>364.0</ele><time>2026-04-26T08:50:06.023Z</time></trkpt><trkpt lat="43.9081284" lon="12.1025228"><ele>364.0</ele><time>2026-04-26T08:50:07.009Z</time></trkpt><trkpt lat="43.9080745" lon="12.1024292"><ele>364.0</ele><time>2026-04-26T08:50:08.019Z</time></trkpt><trkpt lat="43.9080054" lon="12.102349"><ele>364.0</ele><time>2026-04-26T08:50:09.006Z</time></trkpt><trkpt lat="43.9079285" lon="12.1022887"><ele>364.0</ele><time>2026-04-26T08:50:10.015Z</time></trkpt><trkpt lat="43.9078593" lon="12.1022438"><ele>364.0</ele><time>2026-04-26T08:50:11.017Z</time></trkpt><trkpt lat="43.9077956" lon="12.1022032"><ele>364.66666666666663</ele><time>2026-04-26T08:50:12.037Z</time></trkpt><trkpt lat="43.9076852" lon="12.1021817"><ele>365.3333333333333</ele><time>2026-04-26T08:50:14.014Z</time></trkpt><trkpt lat="43.9076219" lon="12.1022068"><ele>366.0</ele><time>2026-04-26T08:50:15.005Z</time></trkpt><trkpt lat="43.9075657" lon="12.1022707"><ele>366.6666666666667</ele><time>2026-04-26T08:50:15.985Z</time></trkpt><trkpt lat="43.9075228" lon="12.1023536"><ele>367.33333333333337</ele><time>2026-04-26T08:50:17.001Z</time></trkpt><trkpt lat="43.9074858" lon="12.1024664"><ele>368.0</ele><time>2026-04-26T08:50:18.023Z</time></trkpt><trkpt lat="43.9074553" lon="12.1025911"><ele>368.0</ele><time>2026-04-26T08:50:19.002Z</time></trkpt><trkpt lat="43.9074369" lon="12.1027254"><ele>368.0</ele><time>2026-04-26T08:50:20.001Z</time></trkpt><trkpt lat="43.9074387" lon="12.1028576"><ele>368.0</ele><time>2026-04-26T08:50:20.997Z</time></trkpt><trkpt lat="43.9074581" lon="12.1029987"><ele>368.0</ele><time>2026-04-26T08:50:22.008Z</time></trkpt><trkpt lat="43.9074768" lon="12.1031366"><ele>368.0</ele><time>2026-04-26T08:50:23.014Z</time></trkpt><trkpt lat="43.9074943" lon="12.1032684"><ele>366.1666666666667</ele><time>2026-04-26T08:50:24.003Z</time></trkpt><trkpt lat="43.9075054" lon="12.1034072"><ele>364.33333333333337</ele><time>2026-04-26T08:50:25.005Z</time></trkpt><trkpt lat="43.9075086" lon="12.103537"><ele>362.5</ele><time>2026-04-26T08:50:25.998Z</time></trkpt><trkpt lat="43.9075113" lon="12.1036521"><ele>360.6666666666667</ele><time>2026-04-26T08:50:26.993Z</time></trkpt><trkpt lat="43.9075065" lon="12.1037693"><ele>358.8333333333333</ele><time>2026-04-26T08:50:28.012Z</time></trkpt><trkpt lat="43.9074968" lon="12.1038612"><ele>357.0</ele><time>2026-04-26T08:50:28.999Z</time></trkpt><trkpt lat="43.9074255" lon="12.1039776"><ele>357.0</ele><time>2026-04-26T08:50:31.01Z</time></trkpt><trkpt lat="43.9073038" lon="12.1040272"><ele>357.0</ele><time>2026-04-26T08:50:32.999Z</time></trkpt><trkpt lat="43.907227" lon="12.1040407"><ele>357.0</ele><time>2026-04-26T08:50:33.998Z</time></trkpt><trkpt lat="43.9071529" lon="12.1040521"><ele>357.0</ele><time>2026-04-26T08:50:34.998Z</time></trkpt><trkpt lat="43.907078" lon="12.104068"><ele>357.0</ele><time>2026-04-26T08:50:36.002Z</time></trkpt><trkpt lat="43.9070086" lon="12.104092"><ele>357.0</ele><time>2026-04-26T08:50:36.999Z</time></trkpt><trkpt lat="43.9069454" lon="12.1041252"><ele>356.3333333333333</ele><time>2026-04-26T08:50:38.001Z</time></trkpt><trkpt lat="43.9068879" lon="12.1041686"><ele>355.6666666666667</ele><time>2026-04-26T08:50:39.004Z</time></trkpt><trkpt lat="43.9068292" lon="12.1042371"><ele>355.0</ele><time>2026-04-26T08:50:40.003Z</time></trkpt><trkpt lat="43.906771" lon="12.1043163"><ele>354.33333333333337</ele><time>2026-04-26T08:50:41.002Z</time></trkpt><trkpt lat="43.9067133" lon="12.1044"><ele>353.6666666666667</ele><time>2026-04-26T08:50:42.004Z</time></trkpt><trkpt lat="43.9066542" lon="12.1044707"><ele>353.0</ele><time>2026-04-26T08:50:43.001Z</time></trkpt><trkpt lat="43.9065954" lon="12.1045287"><ele>353.0</ele><time>2026-04-26T08:50:44.001Z</time></trkpt><trkpt lat="43.9065356" lon="12.1045626"><ele>353.0</ele><time>2026-04-26T08:50:45.056Z</time></trkpt><trkpt lat="43.9064658" lon="12.104565"><ele>353.0</ele><time>2026-04-26T08:50:46.011Z</time></trkpt><trkpt lat="43.9063923" lon="12.1045529"><ele>353.0</ele><time>2026-04-26T08:50:47.005Z</time></trkpt><trkpt lat="43.9063139" lon="12.1045323"><ele>353.0</ele><time>2026-04-26T08:50:48.002Z</time></trkpt><trkpt lat="43.9062376" lon="12.1045245"><ele>353.0</ele><time>2026-04-26T08:50:49.01Z</time></trkpt><trkpt lat="43.906164" lon="12.1045225"><ele>353.0</ele><time>2026-04-26T08:50:50.005Z</time></trkpt><trkpt lat="43.9060924" lon="12.1045435"><ele>353.0</ele><time>2026-04-26T08:50:50.999Z</time></trkpt><trkpt lat="43.906024" lon="12.1045952"><ele>353.0</ele><time>2026-04-26T08:50:52.009Z</time></trkpt><trkpt lat="43.9059562" lon="12.1046393"><ele>353.0</ele><time>2026-04-26T08:50:53.011Z</time></trkpt><trkpt lat="43.90588" lon="12.1046591"><ele>353.0</ele><time>2026-04-26T08:50:54.002Z</time></trkpt><trkpt lat="43.9058031" lon="12.1046597"><ele>353.0</ele><time>2026-04-26T08:50:55.012Z</time></trkpt><trkpt lat="43.9057226" lon="12.1046564"><ele>353.0</ele><time>2026-04-26T08:50:56.006Z</time></trkpt><trkpt lat="43.9056477" lon="12.1046546"><ele>353.85714285714283</ele><time>2026-04-26T08:50:57.005Z</time></trkpt><trkpt lat="43.9055725" lon="12.1046665"><ele>354.7142857142857</ele><time>2026-04-26T08:50:58.008Z</time></trkpt><trkpt lat="43.9055008" lon="12.1046774"><ele>355.57142857142856</ele><time>2026-04-26T08:50:59.002Z</time></trkpt><trkpt lat="43.9054293" lon="12.1047038"><ele>356.42857142857144</ele><time>2026-04-26T08:50:59.996Z</time></trkpt><trkpt lat="43.9053566" lon="12.1047279"><ele>357.28571428571433</ele><time>2026-04-26T08:51:00.995Z</time></trkpt><trkpt lat="43.9052876" lon="12.1047553"><ele>358.14285714285717</ele><time>2026-04-26T08:51:02.007Z</time></trkpt><trkpt lat="43.9052209" lon="12.104796"><ele>359.0</ele><time>2026-04-26T08:51:02.998Z</time></trkpt><trkpt lat="43.9051578" lon="12.1048654"><ele>354.1666666666667</ele><time>2026-04-26T08:51:04.004Z</time></trkpt><trkpt lat="43.9050908" lon="12.1049493"><ele>349.33333333333337</ele><time>2026-04-26T08:51:05.006Z</time></trkpt><trkpt lat="43.9050301" lon="12.1050235"><ele>344.5</ele><time>2026-04-26T08:51:06.001Z</time></trkpt><trkpt lat="43.9049678" lon="12.1051005"><ele>339.6666666666667</ele><time>2026-04-26T08:51:07.002Z</time></trkpt><trkpt lat="43.9049145" lon="12.105188"><ele>334.8333333333333</ele><time>2026-04-26T08:51:07.989Z</time></trkpt><trkpt lat="43.9048592" lon="12.105271"><ele>330.0</ele><time>2026-04-26T08:51:09Z</time></trkpt><trkpt lat="43.9048105" lon="12.1053352"><ele>330.0</ele><time>2026-04-26T08:51:10.004Z</time></trkpt><trkpt lat="43.9047559" lon="12.1054012"><ele>330.0</ele><time>2026-04-26T08:51:10.997Z</time></trkpt><trkpt lat="43.904686" lon="12.105445"><ele>330.0</ele><time>2026-04-26T08:51:12.027Z</time></trkpt><trkpt lat="43.9046149" lon="12.1054684"><ele>330.0</ele><time>2026-04-26T08:51:13.02Z</time></trkpt><trkpt lat="43.9045372" lon="12.1054699"><ele>330.0</ele><time>2026-04-26T08:51:14.023Z</time></trkpt><trkpt lat="43.9044476" lon="12.1054708"><ele>330.0</ele><time>2026-04-26T08:51:15.023Z</time></trkpt><trkpt lat="43.9043576" lon="12.1054793"><ele>330.0</ele><time>2026-04-26T08:51:16.024Z</time></trkpt><trkpt lat="43.9042671" lon="12.1054906"><ele>330.0</ele><time>2026-04-26T08:51:17.021Z</time></trkpt><trkpt lat="43.904179" lon="12.1054932"><ele>330.0</ele><time>2026-04-26T08:51:18.029Z</time></trkpt><trkpt lat="43.9040948" lon="12.1055052"><ele>330.0</ele><time>2026-04-26T08:51:19.054Z</time></trkpt><trkpt lat="43.9040183" lon="12.1055334"><ele>330.0</ele><time>2026-04-26T08:51:20.006Z</time></trkpt><trkpt lat="43.903948" lon="12.1055826"><ele>330.0</ele><time>2026-04-26T08:51:21.007Z</time></trkpt><trkpt lat="43.9038833" lon="12.1056564"><ele>332.6666666666667</ele><time>2026-04-26T08:51:22.03Z</time></trkpt><trkpt lat="43.9038181" lon="12.1057375"><ele>335.3333333333333</ele><time>2026-04-26T08:51:23.024Z</time></trkpt><trkpt lat="43.9037564" lon="12.1058206"><ele>338.0</ele><time>2026-04-26T08:51:24.049Z</time></trkpt><trkpt lat="43.9036968" lon="12.1059023"><ele>340.66666666666663</ele><time>2026-04-26T08:51:25.017Z</time></trkpt><trkpt lat="43.9036405" lon="12.1059859"><ele>343.3333333333333</ele><time>2026-04-26T08:51:26.008Z</time></trkpt><trkpt lat="43.9035765" lon="12.1060703"><ele>346.0</ele><time>2026-04-26T08:51:27.013Z</time></trkpt><trkpt lat="43.9035138" lon="12.1061392"><ele>341.8333333333333</ele><time>2026-04-26T08:51:28.023Z</time></trkpt><trkpt lat="43.9034397" lon="12.1061846"><ele>337.66666666666663</ele><time>2026-04-26T08:51:29.008Z</time></trkpt><trkpt lat="43.9033617" lon="12.1062213"><ele>333.5</ele><time>2026-04-26T08:51:30.003Z</time></trkpt><trkpt lat="43.903276" lon="12.1062414"><ele>329.3333333333333</ele><time>2026-04-26T08:51:31.022Z</time></trkpt><trkpt lat="43.9031892" lon="12.1062662"><ele>325.1666666666667</ele><time>2026-04-26T08:51:32.021Z</time></trkpt><trkpt lat="43.9031043" lon="12.106297"><ele>321.0</ele><time>2026-04-26T08:51:32.999Z</time></trkpt><trkpt lat="43.9030273" lon="12.1063225"><ele>321.0</ele><time>2026-04-26T08:51:34.001Z</time></trkpt><trkpt lat="43.9029504" lon="12.1063503"><ele>321.0</ele><time>2026-04-26T08:51:35.003Z</time></trkpt><trkpt lat="43.9028769" lon="12.1063782"><ele>321.0</ele><time>2026-04-26T08:51:36.005Z</time></trkpt><trkpt lat="43.9028078" lon="12.1064182"><ele>321.0</ele><time>2026-04-26T08:51:37.017Z</time></trkpt><trkpt lat="43.9027484" lon="12.1064733"><ele>321.0</ele><time>2026-04-26T08:51:38.032Z</time></trkpt><trkpt lat="43.9026909" lon="12.1065349"><ele>321.0</ele><time>2026-04-26T08:51:38.999Z</time></trkpt><trkpt lat="43.9026364" lon="12.1066111"><ele>318.5</ele><time>2026-04-26T08:51:40.009Z</time></trkpt><trkpt lat="43.9025859" lon="12.1066841"><ele>316.0</ele><time>2026-04-26T08:51:40.995Z</time></trkpt><trkpt lat="43.9025386" lon="12.1067544"><ele>313.5</ele><time>2026-04-26T08:51:42.004Z</time></trkpt><trkpt lat="43.9024925" lon="12.1068434"><ele>311.0</ele><time>2026-04-26T08:51:42.998Z</time></trkpt><trkpt lat="43.902459" lon="12.106948"><ele>308.5</ele><time>2026-04-26T08:51:44.001Z</time></trkpt><trkpt lat="43.9024249" lon="12.1070602"><ele>306.0</ele><time>2026-04-26T08:51:45.002Z</time></trkpt><trkpt lat="43.9023812" lon="12.1071575"><ele>306.0</ele><time>2026-04-26T08:51:46.019Z</time></trkpt><trkpt lat="43.9023091" lon="12.1072418"><ele>306.0</ele><time>2026-04-26T08:51:47Z</time></trkpt><trkpt lat="43.902249" lon="12.1073316"><ele>306.0</ele><time>2026-04-26T08:51:48.011Z</time></trkpt><trkpt lat="43.9021921" lon="12.1074221"><ele>306.0</ele><time>2026-04-26T08:51:49.001Z</time></trkpt><trkpt lat="43.9021358" lon="12.1075016"><ele>306.0</ele><time>2026-04-26T08:51:50.014Z</time></trkpt><trkpt lat="43.9020839" lon="12.1075681"><ele>306.0</ele><time>2026-04-26T08:51:51.016Z</time></trkpt><trkpt lat="43.9020203" lon="12.1076197"><ele>302.3333333333333</ele><time>2026-04-26T08:51:52.016Z</time></trkpt><trkpt lat="43.9019522" lon="12.1076746"><ele>298.6666666666667</ele><time>2026-04-26T08:51:53.011Z</time></trkpt><trkpt lat="43.9018851" lon="12.1077446"><ele>295.0</ele><time>2026-04-26T08:51:54.017Z</time></trkpt><trkpt lat="43.901819" lon="12.1078103"><ele>291.33333333333337</ele><time>2026-04-26T08:51:55.016Z</time></trkpt><trkpt lat="43.9017617" lon="12.1078701"><ele>287.6666666666667</ele><time>2026-04-26T08:51:56.015Z</time></trkpt><trkpt lat="43.9016973" lon="12.1079282"><ele>284.0</ele><time>2026-04-26T08:51:57.007Z</time></trkpt><trkpt lat="43.9016284" lon="12.1079812"><ele>284.0</ele><time>2026-04-26T08:51:58.027Z</time></trkpt><trkpt lat="43.9015585" lon="12.1080341"><ele>284.0</ele><time>2026-04-26T08:51:59.029Z</time></trkpt><trkpt lat="43.9014891" lon="12.1080976"><ele>284.0</ele><time>2026-04-26T08:52:00.024Z</time></trkpt><trkpt lat="43.9014314" lon="12.1081685"><ele>284.0</ele><time>2026-04-26T08:52:01Z</time></trkpt><trkpt lat="43.9013749" lon="12.1082409"><ele>284.0</ele><time>2026-04-26T08:52:02.012Z</time></trkpt><trkpt lat="43.9013141" lon="12.1083234"><ele>284.0</ele><time>2026-04-26T08:52:03.017Z</time></trkpt><trkpt lat="43.9012672" lon="12.1084096"><ele>280.5</ele><time>2026-04-26T08:52:03.997Z</time></trkpt><trkpt lat="43.9012172" lon="12.1085016"><ele>277.0</ele><time>2026-04-26T08:52:05.004Z</time></trkpt><trkpt lat="43.9011672" lon="12.1085922"><ele>273.5</ele><time>2026-04-26T08:52:06.004Z</time></trkpt><trkpt lat="43.901113" lon="12.1086945"><ele>270.0</ele><time>2026-04-26T08:52:06.997Z</time></trkpt><trkpt lat="43.9010482" lon="12.1087898"><ele>266.5</ele><time>2026-04-26T08:52:08Z</time></trkpt><trkpt lat="43.9009975" lon="12.1088748"><ele>263.0</ele><time>2026-04-26T08:52:09.003Z</time></trkpt><trkpt lat="43.9009576" lon="12.1089651"><ele>263.0</ele><time>2026-04-26T08:52:10.007Z</time></trkpt><trkpt lat="43.9009417" lon="12.1090591"><ele>263.0</ele><time>2026-04-26T08:52:10.987Z</time></trkpt><trkpt lat="43.9009844" lon="12.1092285"><ele>263.0</ele><time>2026-04-26T08:52:13.001Z</time></trkpt><trkpt lat="43.9010369" lon="12.109319"><ele>263.0</ele><time>2026-04-26T08:52:14.006Z</time></trkpt><trkpt lat="43.9010848" lon="12.1094119"><ele>263.0</ele><time>2026-04-26T08:52:15.011Z</time></trkpt><trkpt lat="43.9011172" lon="12.109527"><ele>261.6666666666667</ele><time>2026-04-26T08:52:16.003Z</time></trkpt><trkpt lat="43.9011229" lon="12.1096441"><ele>260.33333333333337</ele><time>2026-04-26T08:52:17.014Z</time></trkpt><trkpt lat="43.9011199" lon="12.1097428"><ele>259.0</ele><time>2026-04-26T08:52:18.012Z</time></trkpt><trkpt lat="43.9010758" lon="12.1098746"><ele>257.6666666666667</ele><time>2026-04-26T08:52:20.019Z</time></trkpt><trkpt lat="43.9010405" lon="12.1099472"><ele>256.3333333333333</ele><time>2026-04-26T08:52:23.015Z</time></trkpt><trkpt lat="43.9010977" lon="12.1100792"><ele>255.0</ele><time>2026-04-26T08:52:26.003Z</time></trkpt><trkpt lat="43.9011555" lon="12.1101845"><ele>254.75</ele><time>2026-04-26T08:52:27.004Z</time></trkpt><trkpt lat="43.9012279" lon="12.110314"><ele>254.5</ele><time>2026-04-26T08:52:28.008Z</time></trkpt><trkpt lat="43.9013171" lon="12.1104755"><ele>254.25</ele><time>2026-04-26T08:52:29.005Z</time></trkpt><trkpt lat="43.9014007" lon="12.110635"><ele>254.0</ele><time>2026-04-26T08:52:30Z</time></trkpt><trkpt lat="43.9014671" lon="12.1107824"><ele>255.25</ele><time>2026-04-26T08:52:31.005Z</time></trkpt><trkpt lat="43.901506" lon="12.1109313"><ele>256.5</ele><time>2026-04-26T08:52:32.001Z</time></trkpt><trkpt lat="43.9014977" lon="12.1110961"><ele>257.75</ele><time>2026-04-26T08:52:32.99Z</time></trkpt><trkpt lat="43.9014602" lon="12.1112601"><ele>259.0</ele><time>2026-04-26T08:52:34.001Z</time></trkpt><trkpt lat="43.9014098" lon="12.1114392"><ele>261.5</ele><time>2026-04-26T08:52:34.999Z</time></trkpt><trkpt lat="43.9013439" lon="12.1116196"><ele>264.0</ele><time>2026-04-26T08:52:35.999Z</time></trkpt><trkpt lat="43.9013126" lon="12.1118057"><ele>266.5</ele><time>2026-04-26T08:52:36.99Z</time></trkpt><trkpt lat="43.9013131" lon="12.1119727"><ele>269.0</ele><time>2026-04-26T08:52:38.005Z</time></trkpt><trkpt lat="43.9013394" lon="12.1121314"><ele>269.0</ele><time>2026-04-26T08:52:39.01Z</time></trkpt><trkpt lat="43.9013968" lon="12.1122785"><ele>269.0</ele><time>2026-04-26T08:52:40.016Z</time></trkpt><trkpt lat="43.9014785" lon="12.1124321"><ele>269.0</ele><time>2026-04-26T08:52:41.01Z</time></trkpt><trkpt lat="43.90157" lon="12.1126023"><ele>269.0</ele><time>2026-04-26T08:52:42.015Z</time></trkpt><trkpt lat="43.9016668" lon="12.1128001"><ele>269.33333333333337</ele><time>2026-04-26T08:52:42.993Z</time></trkpt><trkpt lat="43.9017645" lon="12.1130121"><ele>269.6666666666667</ele><time>2026-04-26T08:52:43.989Z</time></trkpt><trkpt lat="43.9018639" lon="12.1132115"><ele>270.0</ele><time>2026-04-26T08:52:45.001Z</time></trkpt><trkpt lat="43.9019562" lon="12.1134044"><ele>270.0</ele><time>2026-04-26T08:52:46.005Z</time></trkpt><trkpt lat="43.9020408" lon="12.1135813"><ele>270.0</ele><time>2026-04-26T08:52:46.998Z</time></trkpt><trkpt lat="43.9021172" lon="12.1137371"><ele>270.0</ele><time>2026-04-26T08:52:48.004Z</time></trkpt><trkpt lat="43.9021839" lon="12.113866"><ele>270.0</ele><time>2026-04-26T08:52:49.007Z</time></trkpt><trkpt lat="43.9022377" lon="12.1139646"><ele>270.0</ele><time>2026-04-26T08:52:50.017Z</time></trkpt><trkpt lat="43.9023088" lon="12.114042"><ele>270.0</ele><time>2026-04-26T08:52:52.003Z</time></trkpt><trkpt lat="43.9023781" lon="12.1140951"><ele>270.0</ele><time>2026-04-26T08:54:07.003Z</time></trkpt><trkpt lat="43.9024888" lon="12.1141435"><ele>270.0</ele><time>2026-04-26T08:54:09.004Z</time></trkpt><trkpt lat="43.9025549" lon="12.114153"><ele>270.0</ele><time>2026-04-26T08:54:10.022Z</time></trkpt><trkpt lat="43.9026309" lon="12.1141373"><ele>270.0</ele><time>2026-04-26T08:54:11.006Z</time></trkpt><trkpt lat="43.9027082" lon="12.1141035"><ele>267.5</ele><time>2026-04-26T08:54:12.014Z</time></trkpt><trkpt lat="43.9027999" lon="12.11401"><ele>265.0</ele><time>2026-04-26T08:54:13.018Z</time></trkpt><trkpt lat="43.9029029" lon="12.1138887"><ele>262.5</ele><time>2026-04-26T08:54:14.004Z</time></trkpt><trkpt lat="43.9030183" lon="12.1137496"><ele>260.0</ele><time>2026-04-26T08:54:15.001Z</time></trkpt><trkpt lat="43.9031314" lon="12.113617"><ele>260.0</ele><time>2026-04-26T08:54:16.006Z</time></trkpt><trkpt lat="43.9032367" lon="12.1135086"><ele>260.0</ele><time>2026-04-26T08:54:16.998Z</time></trkpt><trkpt lat="43.9033434" lon="12.1134096"><ele>260.0</ele><time>2026-04-26T08:54:18.011Z</time></trkpt><trkpt lat="43.9034562" lon="12.1133084"><ele>260.0</ele><time>2026-04-26T08:54:19.007Z</time></trkpt><trkpt lat="43.9035666" lon="12.1132196"><ele>263.75</ele><time>2026-04-26T08:54:20.008Z</time></trkpt><trkpt lat="43.9036831" lon="12.1131273"><ele>267.5</ele><time>2026-04-26T08:54:21.005Z</time></trkpt><trkpt lat="43.9038183" lon="12.1130492"><ele>271.25</ele><time>2026-04-26T08:54:22.004Z</time></trkpt><trkpt lat="43.9039683" lon="12.1129908"><ele>275.0</ele><time>2026-04-26T08:54:23.003Z</time></trkpt><trkpt lat="43.9041198" lon="12.1129556"><ele>275.0</ele><time>2026-04-26T08:54:24.011Z</time></trkpt><trkpt lat="43.9042672" lon="12.1129421"><ele>275.0</ele><time>2026-04-26T08:54:25.009Z</time></trkpt><trkpt lat="43.9044162" lon="12.1129293"><ele>275.0</ele><time>2026-04-26T08:54:26.003Z</time></trkpt><trkpt lat="43.904576" lon="12.1129367"><ele>275.0</ele><time>2026-04-26T08:54:27.007Z</time></trkpt><trkpt lat="43.9047452" lon="12.1129686"><ele>275.0</ele><time>2026-04-26T08:54:28.016Z</time></trkpt><trkpt lat="43.9049264" lon="12.1130189"><ele>275.0</ele><time>2026-04-26T08:54:29.007Z</time></trkpt><trkpt lat="43.9051224" lon="12.1130655"><ele>279.6666666666667</ele><time>2026-04-26T08:54:30.009Z</time></trkpt><trkpt lat="43.9053375" lon="12.1131353"><ele>284.3333333333333</ele><time>2026-04-26T08:54:30.998Z</time></trkpt><trkpt lat="43.9055204" lon="12.1131857"><ele>289.0</ele><time>2026-04-26T08:54:32.007Z</time></trkpt><trkpt lat="43.9056833" lon="12.1132225"><ele>286.5</ele><time>2026-04-26T08:54:33.006Z</time></trkpt><trkpt lat="43.9058352" lon="12.1132552"><ele>284.0</ele><time>2026-04-26T08:54:34.015Z</time></trkpt><trkpt lat="43.9059742" lon="12.1132882"><ele>281.5</ele><time>2026-04-26T08:54:34.997Z</time></trkpt><trkpt lat="43.9060939" lon="12.1133302"><ele>279.0</ele><time>2026-04-26T08:54:36.002Z</time></trkpt><trkpt lat="43.9062208" lon="12.1133751"><ele>279.0</ele><time>2026-04-26T08:54:37.003Z</time></trkpt><trkpt lat="43.9063589" lon="12.113446"><ele>279.0</ele><time>2026-04-26T08:54:38.003Z</time></trkpt><trkpt lat="43.9064895" lon="12.1135513"><ele>279.0</ele><time>2026-04-26T08:54:39.002Z</time></trkpt><trkpt lat="43.9066043" lon="12.1136991"><ele>279.0</ele><time>2026-04-26T08:54:39.998Z</time></trkpt><trkpt lat="43.9067239" lon="12.1138854"><ele>279.0</ele><time>2026-04-26T08:54:40.996Z</time></trkpt><trkpt lat="43.9068445" lon="12.1140831"><ele>279.0</ele><time>2026-04-26T08:54:41.996Z</time></trkpt><trkpt lat="43.9069722" lon="12.114277"><ele>278.0</ele><time>2026-04-26T08:54:43.002Z</time></trkpt><trkpt lat="43.9070954" lon="12.1144563"><ele>277.0</ele><time>2026-04-26T08:54:44.004Z</time></trkpt><trkpt lat="43.9072092" lon="12.1146206"><ele>276.0</ele><time>2026-04-26T08:54:45.006Z</time></trkpt><trkpt lat="43.9073135" lon="12.1147817"><ele>272.3333333333333</ele><time>2026-04-26T08:54:46.003Z</time></trkpt><trkpt lat="43.9074052" lon="12.1149494"><ele>268.66666666666663</ele><time>2026-04-26T08:54:47.009Z</time></trkpt><trkpt lat="43.9074668" lon="12.1151603"><ele>265.0</ele><time>2026-04-26T08:54:48.004Z</time></trkpt><trkpt lat="43.9075313" lon="12.1154113"><ele>270.66666666666663</ele><time>2026-04-26T08:54:48.998Z</time></trkpt><trkpt lat="43.9075956" lon="12.1156737"><ele>276.3333333333333</ele><time>2026-04-26T08:54:50.004Z</time></trkpt><trkpt lat="43.9076619" lon="12.1159134"><ele>282.0</ele><time>2026-04-26T08:54:51.007Z</time></trkpt><trkpt lat="43.9077162" lon="12.1161352"><ele>282.0</ele><time>2026-04-26T08:54:51.999Z</time></trkpt><trkpt lat="43.9077625" lon="12.1163252"><ele>282.0</ele><time>2026-04-26T08:54:52.999Z</time></trkpt><trkpt lat="43.9077968" lon="12.116495"><ele>282.0</ele><time>2026-04-26T08:54:54.007Z</time></trkpt><trkpt lat="43.9078372" lon="12.1166428"><ele>282.0</ele><time>2026-04-26T08:54:54.993Z</time></trkpt><trkpt lat="43.9078803" lon="12.1167647"><ele>277.0</ele><time>2026-04-26T08:54:56.002Z</time></trkpt><trkpt lat="43.907957" lon="12.1168377"><ele>272.0</ele><time>2026-04-26T08:54:57.001Z</time></trkpt><trkpt lat="43.908046" lon="12.1168665"><ele>267.0</ele><time>2026-04-26T08:54:58.001Z</time></trkpt><trkpt lat="43.9081389" lon="12.1168395"><ele>262.0</ele><time>2026-04-26T08:54:59.006Z</time></trkpt><trkpt lat="43.9082387" lon="12.1167696"><ele>257.0</ele><time>2026-04-26T08:54:59.998Z</time></trkpt><trkpt lat="43.9083605" lon="12.1166835"><ele>259.0</ele><time>2026-04-26T08:55:00.998Z</time></trkpt><trkpt lat="43.9084886" lon="12.1166094"><ele>261.0</ele><time>2026-04-26T08:55:02.004Z</time></trkpt><trkpt lat="43.908609" lon="12.1165613"><ele>263.0</ele><time>2026-04-26T08:55:03.002Z</time></trkpt><trkpt lat="43.9087167" lon="12.1165595"><ele>265.0</ele><time>2026-04-26T08:55:04.007Z</time></trkpt><trkpt lat="43.9088117" lon="12.1166049"><ele>265.0</ele><time>2026-04-26T08:55:05.014Z</time></trkpt><trkpt lat="43.9088907" lon="12.116676"><ele>265.0</ele><time>2026-04-26T08:55:06.003Z</time></trkpt><trkpt lat="43.908948" lon="12.1168092"><ele>265.0</ele><time>2026-04-26T08:55:06.997Z</time></trkpt><trkpt lat="43.9089629" lon="12.1169518"><ele>265.0</ele><time>2026-04-26T08:55:08.004Z</time></trkpt><trkpt lat="43.9089349" lon="12.1170961"><ele>265.0</ele><time>2026-04-26T08:55:08.988Z</time></trkpt><trkpt lat="43.908883" lon="12.1172216"><ele>265.0</ele><time>2026-04-26T08:55:10.015Z</time></trkpt><trkpt lat="43.908815" lon="12.1173101"><ele>265.0</ele><time>2026-04-26T08:55:11.005Z</time></trkpt><trkpt lat="43.9087266" lon="12.1174086"><ele>265.0</ele><time>2026-04-26T08:55:12.003Z</time></trkpt><trkpt lat="43.9086306" lon="12.1175328"><ele>265.0</ele><time>2026-04-26T08:55:13.006Z</time></trkpt><trkpt lat="43.908552" lon="12.117644"><ele>266.0</ele><time>2026-04-26T08:55:14.013Z</time></trkpt><trkpt lat="43.9084932" lon="12.1177484"><ele>267.0</ele><time>2026-04-26T08:55:14.997Z</time></trkpt><trkpt lat="43.9084568" lon="12.1178617"><ele>268.0</ele><time>2026-04-26T08:55:16.01Z</time></trkpt><trkpt lat="43.9084614" lon="12.117986"><ele>269.0</ele><time>2026-04-26T08:55:17.005Z</time></trkpt><trkpt lat="43.9084879" lon="12.118124"><ele>270.0</ele><time>2026-04-26T08:55:18.007Z</time></trkpt><trkpt lat="43.9085484" lon="12.1182755"><ele>270.0</ele><time>2026-04-26T08:55:19.008Z</time></trkpt><trkpt lat="43.9086321" lon="12.1184159"><ele>270.0</ele><time>2026-04-26T08:55:20.002Z</time></trkpt><trkpt lat="43.9087151" lon="12.118598"><ele>270.0</ele><time>2026-04-26T08:55:21.002Z</time></trkpt><trkpt lat="43.9088026" lon="12.1187835"><ele>270.0</ele><time>2026-04-26T08:55:22.02Z</time></trkpt><trkpt lat="43.9089038" lon="12.1189667"><ele>267.0</ele><time>2026-04-26T08:55:23.014Z</time></trkpt><trkpt lat="43.908999" lon="12.1191532"><ele>264.0</ele><time>2026-04-26T08:55:24.011Z</time></trkpt><trkpt lat="43.9090932" lon="12.1193407"><ele>261.0</ele><time>2026-04-26T08:55:25.003Z</time></trkpt><trkpt lat="43.9091851" lon="12.1195323"><ele>263.3333333333333</ele><time>2026-04-26T08:55:26.004Z</time></trkpt><trkpt lat="43.909281" lon="12.119723"><ele>265.66666666666663</ele><time>2026-04-26T08:55:27.007Z</time></trkpt><trkpt lat="43.909379" lon="12.1199152"><ele>268.0</ele><time>2026-04-26T08:55:28.009Z</time></trkpt><trkpt lat="43.9094739" lon="12.1201074"><ele>268.0</ele><time>2026-04-26T08:55:29.008Z</time></trkpt><trkpt lat="43.909569" lon="12.1202917"><ele>268.0</ele><time>2026-04-26T08:55:30.004Z</time></trkpt><trkpt lat="43.9096498" lon="12.1204678"><ele>268.0</ele><time>2026-04-26T08:55:31.005Z</time></trkpt><trkpt lat="43.9097231" lon="12.120639"><ele>264.3333333333333</ele><time>2026-04-26T08:55:31.998Z</time></trkpt><trkpt lat="43.9097925" lon="12.1208069"><ele>260.6666666666667</ele><time>2026-04-26T08:55:33.008Z</time></trkpt><trkpt lat="43.9098824" lon="12.1209789"><ele>257.0</ele><time>2026-04-26T08:55:34.008Z</time></trkpt><trkpt lat="43.9099902" lon="12.1211595"><ele>256.6666666666667</ele><time>2026-04-26T08:55:35.008Z</time></trkpt><trkpt lat="43.910122" lon="12.1213449"><ele>256.3333333333333</ele><time>2026-04-26T08:55:36.01Z</time></trkpt><trkpt lat="43.9102642" lon="12.1215218"><ele>256.0</ele><time>2026-04-26T08:55:37.003Z</time></trkpt><trkpt lat="43.9104124" lon="12.1216945"><ele>256.0</ele><time>2026-04-26T08:55:38.005Z</time></trkpt><trkpt lat="43.9105535" lon="12.1218571"><ele>256.0</ele><time>2026-04-26T08:55:39.004Z</time></trkpt><trkpt lat="43.9106747" lon="12.1220116"><ele>256.0</ele><time>2026-04-26T08:55:40.008Z</time></trkpt><trkpt lat="43.9107764" lon="12.1221768"><ele>256.0</ele><time>2026-04-26T08:55:41.002Z</time></trkpt><trkpt lat="43.9108686" lon="12.1223379"><ele>256.0</ele><time>2026-04-26T08:55:42.004Z</time></trkpt><trkpt lat="43.9109543" lon="12.1225014"><ele>256.0</ele><time>2026-04-26T08:55:43.004Z</time></trkpt><trkpt lat="43.9110366" lon="12.1226731"><ele>256.0</ele><time>2026-04-26T08:55:44.016Z</time></trkpt><trkpt lat="43.9111196" lon="12.1228466"><ele>256.5</ele><time>2026-04-26T08:55:45.005Z</time></trkpt><trkpt lat="43.9112002" lon="12.1230194"><ele>257.0</ele><time>2026-04-26T08:55:46.009Z</time></trkpt><trkpt lat="43.9112828" lon="12.1231927"><ele>257.5</ele><time>2026-04-26T08:55:47Z</time></trkpt><trkpt lat="43.9113697" lon="12.1233565"><ele>258.0</ele><time>2026-04-26T08:55:48.005Z</time></trkpt><trkpt lat="43.9114587" lon="12.1235132"><ele>258.0</ele><time>2026-04-26T08:55:49.005Z</time></trkpt><trkpt lat="43.9115392" lon="12.1236593"><ele>258.0</ele><time>2026-04-26T08:55:50.01Z</time></trkpt><trkpt lat="43.9116224" lon="12.1237961"><ele>258.0</ele><time>2026-04-26T08:55:51.007Z</time></trkpt><trkpt lat="43.9117116" lon="12.1239182"><ele>258.0</ele><time>2026-04-26T08:55:52.009Z</time></trkpt><trkpt lat="43.9118031" lon="12.1240174"><ele>258.4</ele><time>2026-04-26T08:55:53.002Z</time></trkpt><trkpt lat="43.9119011" lon="12.1240879"><ele>258.8</ele><time>2026-04-26T08:55:54.018Z</time></trkpt><trkpt lat="43.9120004" lon="12.1241162"><ele>259.2</ele><time>2026-04-26T08:55:55Z</time></trkpt><trkpt lat="43.9120924" lon="12.1241163"><ele>259.6</ele><time>2026-04-26T08:55:56Z</time></trkpt><trkpt lat="43.9121842" lon="12.1240658"><ele>260.0</ele><time>2026-04-26T08:55:57.004Z</time></trkpt><trkpt lat="43.9122635" lon="12.1240073"><ele>260.0</ele><time>2026-04-26T08:55:58.005Z</time></trkpt><trkpt lat="43.9123397" lon="12.1239764"><ele>260.0</ele><time>2026-04-26T08:55:59.005Z</time></trkpt><trkpt lat="43.9124108" lon="12.1239887"><ele>260.0</ele><time>2026-04-26T08:56:00Z</time></trkpt><trkpt lat="43.9124806" lon="12.1240623"><ele>260.0</ele><time>2026-04-26T08:56:01.001Z</time></trkpt><trkpt lat="43.91253" lon="12.1241706"><ele>260.0</ele><time>2026-04-26T08:56:02.001Z</time></trkpt><trkpt lat="43.9125596" lon="12.124299"><ele>260.0</ele><time>2026-04-26T08:56:03.001Z</time></trkpt><trkpt lat="43.9125658" lon="12.1244572"><ele>258.6</ele><time>2026-04-26T08:56:04.01Z</time></trkpt><trkpt lat="43.9125494" lon="12.1246104"><ele>257.2</ele><time>2026-04-26T08:56:04.993Z</time></trkpt><trkpt lat="43.9125254" lon="12.1247622"><ele>255.8</ele><time>2026-04-26T08:56:06.01Z</time></trkpt><trkpt lat="43.912486" lon="12.1249057"><ele>254.4</ele><time>2026-04-26T08:56:07.015Z</time></trkpt><trkpt lat="43.9124409" lon="12.1250439"><ele>253.0</ele><time>2026-04-26T08:56:08.007Z</time></trkpt><trkpt lat="43.9123912" lon="12.12519"><ele>252.0</ele><time>2026-04-26T08:56:09.012Z</time></trkpt><trkpt lat="43.9123479" lon="12.1253598"><ele>251.0</ele><time>2026-04-26T08:56:10.005Z</time></trkpt><trkpt lat="43.9123162" lon="12.1255354"><ele>250.0</ele><time>2026-04-26T08:56:11.016Z</time></trkpt><trkpt lat="43.912295" lon="12.1257108"><ele>249.0</ele><time>2026-04-26T08:56:12.009Z</time></trkpt><trkpt lat="43.9122938" lon="12.1258862"><ele>248.25</ele><time>2026-04-26T08:56:13.008Z</time></trkpt><trkpt lat="43.9123185" lon="12.1260556"><ele>247.5</ele><time>2026-04-26T08:56:14.013Z</time></trkpt><trkpt lat="43.9123689" lon="12.1262404"><ele>246.75</ele><time>2026-04-26T08:56:15.008Z</time></trkpt><trkpt lat="43.9124495" lon="12.1264339"><ele>246.0</ele><time>2026-04-26T08:56:16.006Z</time></trkpt><trkpt lat="43.9125308" lon="12.1266194"><ele>251.75</ele><time>2026-04-26T08:56:17.004Z</time></trkpt><trkpt lat="43.9126026" lon="12.12679"><ele>257.5</ele><time>2026-04-26T08:56:18.009Z</time></trkpt><trkpt lat="43.912678" lon="12.1269596"><ele>263.25</ele><time>2026-04-26T08:56:19.001Z</time></trkpt><trkpt lat="43.9127565" lon="12.1271329"><ele>269.0</ele><time>2026-04-26T08:56:20.01Z</time></trkpt><trkpt lat="43.9128537" lon="12.1273095"><ele>263.33333333333337</ele><time>2026-04-26T08:56:20.999Z</time></trkpt><trkpt lat="43.9129862" lon="12.1274823"><ele>257.6666666666667</ele><time>2026-04-26T08:56:22.004Z</time></trkpt><trkpt lat="43.9131287" lon="12.127663"><ele>252.0</ele><time>2026-04-26T08:56:23.001Z</time></trkpt><trkpt lat="43.9132764" lon="12.1278479"><ele>255.33333333333331</ele><time>2026-04-26T08:56:24.009Z</time></trkpt><trkpt lat="43.9134146" lon="12.1280387"><ele>258.66666666666663</ele><time>2026-04-26T08:56:25.004Z</time></trkpt><trkpt lat="43.9135367" lon="12.1282261"><ele>262.0</ele><time>2026-04-26T08:56:26.002Z</time></trkpt><trkpt lat="43.9136603" lon="12.1283851"><ele>262.0</ele><time>2026-04-26T08:56:26.998Z</time></trkpt><trkpt lat="43.9137823" lon="12.1285255"><ele>262.0</ele><time>2026-04-26T08:56:28.006Z</time></trkpt><trkpt lat="43.9139061" lon="12.1286528"><ele>262.0</ele><time>2026-04-26T08:56:29.006Z</time></trkpt><trkpt lat="43.9140256" lon="12.1287895"><ele>262.0</ele><time>2026-04-26T08:56:30.002Z</time></trkpt><trkpt lat="43.9141266" lon="12.12896"><ele>262.0</ele><time>2026-04-26T08:56:31.001Z</time></trkpt><trkpt lat="43.9142026" lon="12.1291548"><ele>262.0</ele><time>2026-04-26T08:56:32Z</time></trkpt><trkpt lat="43.9142684" lon="12.1293361"><ele>266.5</ele><time>2026-04-26T08:56:32.998Z</time></trkpt><trkpt lat="43.914327" lon="12.1294907"><ele>271.0</ele><time>2026-04-26T08:56:34.011Z</time></trkpt><trkpt lat="43.9143715" lon="12.1296372"><ele>275.5</ele><time>2026-04-26T08:56:34.993Z</time></trkpt><trkpt lat="43.9144062" lon="12.1297791"><ele>280.0</ele><time>2026-04-26T08:56:36.002Z</time></trkpt><trkpt lat="43.9144197" lon="12.12995"><ele>280.0</ele><time>2026-04-26T08:56:36.995Z</time></trkpt><trkpt lat="43.9144202" lon="12.1301589"><ele>280.0</ele><time>2026-04-26T08:56:38Z</time></trkpt><trkpt lat="43.9144096" lon="12.1303888"><ele>280.0</ele><time>2026-04-26T08:56:39.01Z</time></trkpt><trkpt lat="43.9144084" lon="12.130657"><ele>278.0</ele><time>2026-04-26T08:56:40.014Z</time></trkpt><trkpt lat="43.9144119" lon="12.1309427"><ele>276.0</ele><time>2026-04-26T08:56:41Z</time></trkpt><trkpt lat="43.914404" lon="12.1311984"><ele>274.0</ele><time>2026-04-26T08:56:42.008Z</time></trkpt><trkpt lat="43.9144051" lon="12.1314177"><ele>272.0</ele><time>2026-04-26T08:56:42.996Z</time></trkpt><trkpt lat="43.9144051" lon="12.1316305"><ele>270.0</ele><time>2026-04-26T08:56:44.007Z</time></trkpt><trkpt lat="43.9144015" lon="12.1318405"><ele>268.0</ele><time>2026-04-26T08:56:45.001Z</time></trkpt><trkpt lat="43.9143934" lon="12.132041"><ele>266.0</ele><time>2026-04-26T08:56:46.002Z</time></trkpt><trkpt lat="43.9143862" lon="12.1322269"><ele>265.25</ele><time>2026-04-26T08:56:46.991Z</time></trkpt><trkpt lat="43.9143848" lon="12.1323958"><ele>264.5</ele><time>2026-04-26T08:56:48.007Z</time></trkpt><trkpt lat="43.9143922" lon="12.1325739"><ele>263.75</ele><time>2026-04-26T08:56:49.001Z</time></trkpt><trkpt lat="43.9144169" lon="12.1327534"><ele>263.0</ele><time>2026-04-26T08:56:50.006Z</time></trkpt><trkpt lat="43.9144696" lon="12.1329265"><ele>263.0</ele><time>2026-04-26T08:56:51.015Z</time></trkpt><trkpt lat="43.9145393" lon="12.1331198"><ele>263.0</ele><time>2026-04-26T08:56:52.007Z</time></trkpt><trkpt lat="43.9146152" lon="12.1333249"><ele>263.0</ele><time>2026-04-26T08:56:53.01Z</time></trkpt><trkpt lat="43.9146836" lon="12.1335331"><ele>261.0</ele><time>2026-04-26T08:56:54Z</time></trkpt><trkpt lat="43.9147384" lon="12.1337517"><ele>259.0</ele><time>2026-04-26T08:56:54.998Z</time></trkpt><trkpt lat="43.9147803" lon="12.1339595"><ele>257.0</ele><time>2026-04-26T08:56:55.998Z</time></trkpt><trkpt lat="43.9148123" lon="12.1341552"><ele>255.0</ele><time>2026-04-26T08:56:57.002Z</time></trkpt><trkpt lat="43.9148452" lon="12.1343337"><ele>253.0</ele><time>2026-04-26T08:56:58.009Z</time></trkpt><trkpt lat="43.9148696" lon="12.1344961"><ele>251.0</ele><time>2026-04-26T08:56:59.006Z</time></trkpt><trkpt lat="43.9148912" lon="12.1346593"><ele>249.0</ele><time>2026-04-26T08:57:00.002Z</time></trkpt><trkpt lat="43.9149042" lon="12.1347986"><ele>247.0</ele><time>2026-04-26T08:57:00.998Z</time></trkpt><trkpt lat="43.9149098" lon="12.1349105"><ele>245.0</ele><time>2026-04-26T08:57:02.007Z</time></trkpt><trkpt lat="43.9149224" lon="12.1350151"><ele>243.0</ele><time>2026-04-26T08:57:03.002Z</time></trkpt><trkpt lat="43.9149416" lon="12.1351213"><ele>241.0</ele><time>2026-04-26T08:57:04.009Z</time></trkpt><trkpt lat="43.9149644" lon="12.1352291"><ele>239.0</ele><time>2026-04-26T08:57:05.003Z</time></trkpt><trkpt lat="43.914983" lon="12.1353281"><ele>237.0</ele><time>2026-04-26T08:57:06.01Z</time></trkpt><trkpt lat="43.9150188" lon="12.1354736"><ele>237.0</ele><time>2026-04-26T08:57:08.001Z</time></trkpt><trkpt lat="43.9150393" lon="12.1355732"><ele>237.0</ele><time>2026-04-26T08:57:11.003Z</time></trkpt><trkpt lat="43.9150475" lon="12.1356777"><ele>237.0</ele><time>2026-04-26T08:58:46.001Z</time></trkpt><trkpt lat="43.9150646" lon="12.13582"><ele>237.0</ele><time>2026-04-26T08:58:47.005Z</time></trkpt><trkpt lat="43.9150926" lon="12.1360052"><ele>237.0</ele><time>2026-04-26T08:58:47.998Z</time></trkpt><trkpt lat="43.9151044" lon="12.1362184"><ele>236.25</ele><time>2026-04-26T08:58:49.005Z</time></trkpt><trkpt lat="43.9151035" lon="12.1364272"><ele>235.5</ele><time>2026-04-26T08:58:50.002Z</time></trkpt><trkpt lat="43.9150969" lon="12.1366303"><ele>234.75</ele><time>2026-04-26T08:58:50.997Z</time></trkpt><trkpt lat="43.9150875" lon="12.1368229"><ele>234.0</ele><time>2026-04-26T08:58:51.999Z</time></trkpt><trkpt lat="43.915076" lon="12.1370093"><ele>229.25</ele><time>2026-04-26T08:58:52.998Z</time></trkpt><trkpt lat="43.9150664" lon="12.1371887"><ele>224.5</ele><time>2026-04-26T08:58:54.001Z</time></trkpt><trkpt lat="43.9150524" lon="12.1373784"><ele>219.75</ele><time>2026-04-26T08:58:54.989Z</time></trkpt><trkpt lat="43.915038" lon="12.137565"><ele>215.0</ele><time>2026-04-26T08:58:56Z</time></trkpt><trkpt lat="43.9150272" lon="12.137733"><ele>214.6</ele><time>2026-04-26T08:58:56.995Z</time></trkpt><trkpt lat="43.915034" lon="12.1378739"><ele>214.2</ele><time>2026-04-26T08:58:57.998Z</time></trkpt><trkpt lat="43.9150605" lon="12.1380111"><ele>213.8</ele><time>2026-04-26T08:58:58.999Z</time></trkpt><trkpt lat="43.9151" lon="12.1381319"><ele>213.4</ele><time>2026-04-26T08:59:00.005Z</time></trkpt><trkpt lat="43.9151692" lon="12.1382287"><ele>213.0</ele><time>2026-04-26T08:59:01.006Z</time></trkpt><trkpt lat="43.9152742" lon="12.1383177"><ele>218.0</ele><time>2026-04-26T08:59:01.998Z</time></trkpt><trkpt lat="43.9154065" lon="12.138398"><ele>223.0</ele><time>2026-04-26T08:59:03.002Z</time></trkpt><trkpt lat="43.9155417" lon="12.1384773"><ele>228.0</ele><time>2026-04-26T08:59:04Z</time></trkpt><trkpt lat="43.9156645" lon="12.1385657"><ele>233.0</ele><time>2026-04-26T08:59:05.002Z</time></trkpt><trkpt lat="43.9157722" lon="12.1386609"><ele>233.0</ele><time>2026-04-26T08:59:06Z</time></trkpt><trkpt lat="43.9158742" lon="12.1387738"><ele>233.0</ele><time>2026-04-26T08:59:06.996Z</time></trkpt><trkpt lat="43.9159749" lon="12.1389113"><ele>233.0</ele><time>2026-04-26T08:59:07.996Z</time></trkpt><trkpt lat="43.9160776" lon="12.1390707"><ele>233.0</ele><time>2026-04-26T08:59:08.998Z</time></trkpt><trkpt lat="43.9161868" lon="12.139243"><ele>232.66666666666669</ele><time>2026-04-26T08:59:10.011Z</time></trkpt><trkpt lat="43.9162913" lon="12.1394109"><ele>232.33333333333331</ele><time>2026-04-26T08:59:10.999Z</time></trkpt><trkpt lat="43.9163992" lon="12.1395704"><ele>232.0</ele><time>2026-04-26T08:59:12.006Z</time></trkpt><trkpt lat="43.9165073" lon="12.1397274"><ele>226.66666666666666</ele><time>2026-04-26T08:59:13.012Z</time></trkpt><trkpt lat="43.9166129" lon="12.1398885"><ele>221.33333333333331</ele><time>2026-04-26T08:59:13.999Z</time></trkpt><trkpt lat="43.9167132" lon="12.1400594"><ele>216.0</ele><time>2026-04-26T08:59:14.998Z</time></trkpt><trkpt lat="43.9168182" lon="12.1402284"><ele>215.0</ele><time>2026-04-26T08:59:16.021Z</time></trkpt><trkpt lat="43.9169231" lon="12.1403841"><ele>214.0</ele><time>2026-04-26T08:59:17.006Z</time></trkpt><trkpt lat="43.9170136" lon="12.1405321"><ele>213.0</ele><time>2026-04-26T08:59:18.008Z</time></trkpt><trkpt lat="43.9170969" lon="12.1406832"><ele>212.0</ele><time>2026-04-26T08:59:19.007Z</time></trkpt><trkpt lat="43.9171728" lon="12.1408458"><ele>216.5</ele><time>2026-04-26T08:59:20.001Z</time></trkpt><trkpt lat="43.9172375" lon="12.1410204"><ele>221.0</ele><time>2026-04-26T08:59:20.998Z</time></trkpt><trkpt lat="43.9172783" lon="12.1412162"><ele>225.5</ele><time>2026-04-26T08:59:22.001Z</time></trkpt><trkpt lat="43.9173087" lon="12.1414284"><ele>230.0</ele><time>2026-04-26T08:59:22.999Z</time></trkpt><trkpt lat="43.9173125" lon="12.1416483"><ele>231.5</ele><time>2026-04-26T08:59:24.008Z</time></trkpt><trkpt lat="43.9172979" lon="12.1418479"><ele>233.0</ele><time>2026-04-26T08:59:25Z</time></trkpt><trkpt lat="43.9172815" lon="12.1420396"><ele>234.5</ele><time>2026-04-26T08:59:26Z</time></trkpt><trkpt lat="43.9172921" lon="12.1422402"><ele>236.0</ele><time>2026-04-26T08:59:27.009Z</time></trkpt><trkpt lat="43.9173227" lon="12.1424456"><ele>236.5</ele><time>2026-04-26T08:59:28.005Z</time></trkpt><trkpt lat="43.9173656" lon="12.1426351"><ele>237.0</ele><time>2026-04-26T08:59:29.006Z</time></trkpt><trkpt lat="43.9174232" lon="12.1427834"><ele>237.5</ele><time>2026-04-26T08:59:30.008Z</time></trkpt><trkpt lat="43.9174653" lon="12.1429172"><ele>238.0</ele><time>2026-04-26T08:59:31.01Z</time></trkpt><trkpt lat="43.917493" lon="12.143025"><ele>237.99999999999997</ele><time>2026-04-26T08:59:32.003Z</time></trkpt><trkpt lat="43.9175145" lon="12.143123"><ele>238.0</ele><time>2026-04-26T08:59:33.008Z</time></trkpt><trkpt lat="43.917518" lon="12.1432335"><ele>238.0</ele><time>2026-04-26T08:59:35.01Z</time></trkpt><trkpt lat="43.91754" lon="12.1433252"><ele>238.0</ele><time>2026-04-26T09:03:30.025Z</time></trkpt><trkpt lat="43.9176003" lon="12.143295"><ele>237.99999999999997</ele><time>2026-04-26T09:07:53.007Z</time></trkpt><trkpt lat="43.9175582" lon="12.1431416"><ele>238.0</ele><time>2026-04-26T09:07:55.003Z</time></trkpt><trkpt lat="43.9175281" lon="12.142977"><ele>238.0</ele><time>2026-04-26T09:07:57.002Z</time></trkpt><trkpt lat="43.9174402" lon="12.142806"><ele>238.0</ele><time>2026-04-26T09:07:59.004Z</time></trkpt><trkpt lat="43.9174004" lon="12.1426488"><ele>238.0</ele><time>2026-04-26T09:08:00.011Z</time></trkpt><trkpt lat="43.9173554" lon="12.1424555"><ele>238.0</ele><time>2026-04-26T09:08:01.007Z</time></trkpt><trkpt lat="43.917313" lon="12.1422438"><ele>237.33333333333331</ele><time>2026-04-26T09:08:01.999Z</time></trkpt><trkpt lat="43.9173069" lon="12.1420323"><ele>236.66666666666669</ele><time>2026-04-26T09:08:03Z</time></trkpt><trkpt lat="43.9173132" lon="12.1418154"><ele>236.0</ele><time>2026-04-26T09:08:04.001Z</time></trkpt><trkpt lat="43.9173299" lon="12.1416101"><ele>234.5</ele><time>2026-04-26T09:08:05Z</time></trkpt><trkpt lat="43.9173295" lon="12.141426"><ele>233.0</ele><time>2026-04-26T09:08:06.001Z</time></trkpt><trkpt lat="43.9173163" lon="12.1412337"><ele>231.5</ele><time>2026-04-26T09:08:06.999Z</time></trkpt><trkpt lat="43.9172664" lon="12.1410433"><ele>230.0</ele><time>2026-04-26T09:08:08.002Z</time></trkpt><trkpt lat="43.9172064" lon="12.1408481"><ele>224.0</ele><time>2026-04-26T09:08:09.006Z</time></trkpt><trkpt lat="43.9171212" lon="12.1406583"><ele>218.0</ele><time>2026-04-26T09:08:10.01Z</time></trkpt><trkpt lat="43.9170163" lon="12.1404855"><ele>212.0</ele><time>2026-04-26T09:08:11.017Z</time></trkpt><trkpt lat="43.9168921" lon="12.1402926"><ele>212.0</ele><time>2026-04-26T09:08:12.005Z</time></trkpt><trkpt lat="43.9167497" lon="12.140072"><ele>212.0</ele><time>2026-04-26T09:08:13.013Z</time></trkpt><trkpt lat="43.9166177" lon="12.1398622"><ele>212.0</ele><time>2026-04-26T09:08:13.997Z</time></trkpt><trkpt lat="43.9165002" lon="12.139673"><ele>218.66666666666669</ele><time>2026-04-26T09:08:15.001Z</time></trkpt><trkpt lat="43.9163902" lon="12.1394975"><ele>225.33333333333331</ele><time>2026-04-26T09:08:15.995Z</time></trkpt><trkpt lat="43.9162851" lon="12.1393214"><ele>232.0</ele><time>2026-04-26T09:08:16.99Z</time></trkpt><trkpt lat="43.916189" lon="12.1391525"><ele>232.25</ele><time>2026-04-26T09:08:17.997Z</time></trkpt><trkpt lat="43.9161001" lon="12.1390086"><ele>232.5</ele><time>2026-04-26T09:08:18.999Z</time></trkpt><trkpt lat="43.9160117" lon="12.1388774"><ele>232.75</ele><time>2026-04-26T09:08:19.998Z</time></trkpt><trkpt lat="43.9159282" lon="12.1387578"><ele>233.0</ele><time>2026-04-26T09:08:21.003Z</time></trkpt><trkpt lat="43.9158432" lon="12.1386648"><ele>233.00000000000003</ele><time>2026-04-26T09:08:22.004Z</time></trkpt><trkpt lat="43.9157652" lon="12.1385982"><ele>233.0</ele><time>2026-04-26T09:08:23.003Z</time></trkpt><trkpt lat="43.9156893" lon="12.1385507"><ele>233.0</ele><time>2026-04-26T09:08:24.003Z</time></trkpt><trkpt lat="43.9156256" lon="12.1385135"><ele>233.0</ele><time>2026-04-26T09:08:25.003Z</time></trkpt><trkpt lat="43.9155317" lon="12.1384606"><ele>233.00000000000003</ele><time>2026-04-26T09:08:26.997Z</time></trkpt><trkpt lat="43.9154467" lon="12.1384226"><ele>233.0</ele><time>2026-04-26T09:08:29.002Z</time></trkpt><trkpt lat="43.9153848" lon="12.138399"><ele>233.0</ele><time>2026-04-26T09:08:31Z</time></trkpt><trkpt lat="43.9153293" lon="12.1383431"><ele>233.0</ele><time>2026-04-26T09:08:34.998Z</time></trkpt><trkpt lat="43.9152695" lon="12.1382824"><ele>233.0</ele><time>2026-04-26T09:10:06.999Z</time></trkpt><trkpt lat="43.9151865" lon="12.1381999"><ele>233.0</ele><time>2026-04-26T09:10:08.011Z</time></trkpt><trkpt lat="43.9151185" lon="12.1380971"><ele>233.0</ele><time>2026-04-26T09:10:09.013Z</time></trkpt><trkpt lat="43.9150849" lon="12.1379431"><ele>227.0</ele><time>2026-04-26T09:10:10.002Z</time></trkpt><trkpt lat="43.9150635" lon="12.1377567"><ele>221.0</ele><time>2026-04-26T09:10:11.006Z</time></trkpt><trkpt lat="43.9150505" lon="12.1375345"><ele>215.0</ele><time>2026-04-26T09:10:11.997Z</time></trkpt><trkpt lat="43.9150576" lon="12.1372933"><ele>221.33333333333334</ele><time>2026-04-26T09:10:12.996Z</time></trkpt><trkpt lat="43.9150714" lon="12.1370319"><ele>227.66666666666669</ele><time>2026-04-26T09:10:14.001Z</time></trkpt><trkpt lat="43.9150885" lon="12.1367873"><ele>234.0</ele><time>2026-04-26T09:10:14.997Z</time></trkpt><trkpt lat="43.9151003" lon="12.1365512"><ele>231.0</ele><time>2026-04-26T09:10:16.007Z</time></trkpt><trkpt lat="43.9151024" lon="12.1363052"><ele>228.0</ele><time>2026-04-26T09:10:16.995Z</time></trkpt><trkpt lat="43.9150897" lon="12.1360702"><ele>225.0</ele><time>2026-04-26T09:10:18.007Z</time></trkpt><trkpt lat="43.9150679" lon="12.1358203"><ele>229.0</ele><time>2026-04-26T09:10:19Z</time></trkpt><trkpt lat="43.9150291" lon="12.1355474"><ele>233.0</ele><time>2026-04-26T09:10:20.002Z</time></trkpt><trkpt lat="43.914982" lon="12.1352642"><ele>237.0</ele><time>2026-04-26T09:10:21.001Z</time></trkpt><trkpt lat="43.9149372" lon="12.1350006"><ele>241.0</ele><time>2026-04-26T09:10:22.011Z</time></trkpt><trkpt lat="43.9148992" lon="12.1347578"><ele>245.0</ele><time>2026-04-26T09:10:22.992Z</time></trkpt><trkpt lat="43.9148638" lon="12.1345136"><ele>249.0</ele><time>2026-04-26T09:10:24.004Z</time></trkpt><trkpt lat="43.9148325" lon="12.134261"><ele>251.66666666666669</ele><time>2026-04-26T09:10:25.01Z</time></trkpt><trkpt lat="43.9147873" lon="12.1340123"><ele>254.33333333333334</ele><time>2026-04-26T09:10:25.995Z</time></trkpt><trkpt lat="43.9147349" lon="12.13376"><ele>257.0</ele><time>2026-04-26T09:10:27.023Z</time></trkpt><trkpt lat="43.9146695" lon="12.1335155"><ele>257.0</ele><time>2026-04-26T09:10:28.003Z</time></trkpt><trkpt lat="43.9145984" lon="12.1332791"><ele>257.0</ele><time>2026-04-26T09:10:29Z</time></trkpt><trkpt lat="43.9145274" lon="12.1330623"><ele>257.0</ele><time>2026-04-26T09:10:30.016Z</time></trkpt><trkpt lat="43.9144686" lon="12.1328581"><ele>259.0</ele><time>2026-04-26T09:10:31.007Z</time></trkpt><trkpt lat="43.9144216" lon="12.1326658"><ele>261.0</ele><time>2026-04-26T09:10:32Z</time></trkpt><trkpt lat="43.9143995" lon="12.1324593"><ele>263.0</ele><time>2026-04-26T09:10:32.997Z</time></trkpt><trkpt lat="43.9143994" lon="12.1322417"><ele>264.0</ele><time>2026-04-26T09:10:34.005Z</time></trkpt><trkpt lat="43.9144111" lon="12.1320138"><ele>265.0</ele><time>2026-04-26T09:10:35.004Z</time></trkpt><trkpt lat="43.9144234" lon="12.1317454"><ele>266.0</ele><time>2026-04-26T09:10:36.006Z</time></trkpt><trkpt lat="43.9144301" lon="12.1314549"><ele>268.6666666666667</ele><time>2026-04-26T09:10:36.998Z</time></trkpt><trkpt lat="43.9144276" lon="12.1311417"><ele>271.3333333333333</ele><time>2026-04-26T09:10:37.996Z</time></trkpt><trkpt lat="43.9144224" lon="12.1308334"><ele>274.0</ele><time>2026-04-26T09:10:38.999Z</time></trkpt><trkpt lat="43.9144211" lon="12.1305553"><ele>276.0</ele><time>2026-04-26T09:10:40.009Z</time></trkpt><trkpt lat="43.9144129" lon="12.1303183"><ele>278.0</ele><time>2026-04-26T09:10:41.003Z</time></trkpt><trkpt lat="43.9144072" lon="12.1300918"><ele>280.0</ele><time>2026-04-26T09:10:41.997Z</time></trkpt><trkpt lat="43.9144002" lon="12.1298948"><ele>283.25</ele><time>2026-04-26T09:10:42.997Z</time></trkpt><trkpt lat="43.9143731" lon="12.1297196"><ele>286.5</ele><time>2026-04-26T09:10:44.001Z</time></trkpt><trkpt lat="43.9143165" lon="12.1295329"><ele>289.75</ele><time>2026-04-26T09:10:44.989Z</time></trkpt><trkpt lat="43.9142326" lon="12.1293324"><ele>293.0</ele><time>2026-04-26T09:10:45.994Z</time></trkpt><trkpt lat="43.91415" lon="12.1291242"><ele>282.6666666666667</ele><time>2026-04-26T09:10:47.002Z</time></trkpt><trkpt lat="43.9140697" lon="12.1289337"><ele>272.3333333333333</ele><time>2026-04-26T09:10:48Z</time></trkpt><trkpt lat="43.9139703" lon="12.128754"><ele>262.0</ele><time>2026-04-26T09:10:48.987Z</time></trkpt><trkpt lat="43.913839" lon="12.1285742"><ele>262.0</ele><time>2026-04-26T09:10:49.996Z</time></trkpt><trkpt lat="43.9136727" lon="12.1283953"><ele>262.0</ele><time>2026-04-26T09:10:51.002Z</time></trkpt><trkpt lat="43.9135149" lon="12.1281935"><ele>262.0</ele><time>2026-04-26T09:10:51.999Z</time></trkpt><trkpt lat="43.9133727" lon="12.127988"><ele>258.66666666666663</ele><time>2026-04-26T09:10:53.005Z</time></trkpt><trkpt lat="43.9132476" lon="12.1277927"><ele>255.33333333333331</ele><time>2026-04-26T09:10:54.005Z</time></trkpt><trkpt lat="43.9131235" lon="12.1276237"><ele>252.0</ele><time>2026-04-26T09:10:54.999Z</time></trkpt><trkpt lat="43.9129986" lon="12.12747"><ele>256.25</ele><time>2026-04-26T09:10:55.994Z</time></trkpt><trkpt lat="43.9128902" lon="12.127326"><ele>260.5</ele><time>2026-04-26T09:10:56.99Z</time></trkpt><trkpt lat="43.9128016" lon="12.1271764"><ele>264.75</ele><time>2026-04-26T09:10:58.001Z</time></trkpt><trkpt lat="43.9127248" lon="12.1270266"><ele>269.0</ele><time>2026-04-26T09:10:58.996Z</time></trkpt><trkpt lat="43.9126564" lon="12.1268722"><ele>269.0</ele><time>2026-04-26T09:11:00.001Z</time></trkpt><trkpt lat="43.9125813" lon="12.1267046"><ele>269.0</ele><time>2026-04-26T09:11:00.996Z</time></trkpt><trkpt lat="43.9124942" lon="12.1265186"><ele>269.0</ele><time>2026-04-26T09:11:02.003Z</time></trkpt><trkpt lat="43.9124137" lon="12.1263162"><ele>262.33333333333337</ele><time>2026-04-26T09:11:02.994Z</time></trkpt><trkpt lat="43.912344" lon="12.126108"><ele>255.66666666666669</ele><time>2026-04-26T09:11:04.003Z</time></trkpt><trkpt lat="43.9123026" lon="12.1259085"><ele>249.0</ele><time>2026-04-26T09:11:04.998Z</time></trkpt><trkpt lat="43.9122989" lon="12.1257133"><ele>249.0</ele><time>2026-04-26T09:11:06.009Z</time></trkpt><trkpt lat="43.9123291" lon="12.1254962"><ele>249.0</ele><time>2026-04-26T09:11:07.01Z</time></trkpt><trkpt lat="43.9123857" lon="12.1252672"><ele>249.0</ele><time>2026-04-26T09:11:07.991Z</time></trkpt><trkpt lat="43.912451" lon="12.1250466"><ele>250.0</ele><time>2026-04-26T09:11:08.995Z</time></trkpt><trkpt lat="43.9125183" lon="12.1248594"><ele>251.0</ele><time>2026-04-26T09:11:10.001Z</time></trkpt><trkpt lat="43.9125703" lon="12.1246694"><ele>252.0</ele><time>2026-04-26T09:11:11.003Z</time></trkpt><trkpt lat="43.9125982" lon="12.1244885"><ele>253.0</ele><time>2026-04-26T09:11:12.002Z</time></trkpt><trkpt lat="43.9125962" lon="12.1243264"><ele>253.0</ele><time>2026-04-26T09:11:12.992Z</time></trkpt><trkpt lat="43.9125707" lon="12.124182"><ele>253.0</ele><time>2026-04-26T09:11:14.007Z</time></trkpt><trkpt lat="43.9125093" lon="12.1240582"><ele>253.0</ele><time>2026-04-26T09:11:14.985Z</time></trkpt><trkpt lat="43.9124285" lon="12.123962"><ele>253.0</ele><time>2026-04-26T09:11:15.999Z</time></trkpt><trkpt lat="43.9123605" lon="12.1239293"><ele>253.0</ele><time>2026-04-26T09:11:16.998Z</time></trkpt><trkpt lat="43.9122796" lon="12.1239385"><ele>253.0</ele><time>2026-04-26T09:11:17.999Z</time></trkpt><trkpt lat="43.912178" lon="12.1240248"><ele>253.0</ele><time>2026-04-26T09:11:19.03Z</time></trkpt><trkpt lat="43.9120819" lon="12.1240898"><ele>253.0</ele><time>2026-04-26T09:11:20.007Z</time></trkpt><trkpt lat="43.9119728" lon="12.1240872"><ele>253.0</ele><time>2026-04-26T09:11:21Z</time></trkpt><trkpt lat="43.9118604" lon="12.1240349"><ele>254.25</ele><time>2026-04-26T09:11:22.015Z</time></trkpt><trkpt lat="43.9117459" lon="12.1239473"><ele>255.5</ele><time>2026-04-26T09:11:22.998Z</time></trkpt><trkpt lat="43.9116453" lon="12.1238055"><ele>256.75</ele><time>2026-04-26T09:11:24.001Z</time></trkpt><trkpt lat="43.9115408" lon="12.123639"><ele>258.0</ele><time>2026-04-26T09:11:25.006Z</time></trkpt><trkpt lat="43.9114293" lon="12.1234231"><ele>259.6666666666667</ele><time>2026-04-26T09:11:26.003Z</time></trkpt><trkpt lat="43.9113044" lon="12.1231925"><ele>261.33333333333337</ele><time>2026-04-26T09:11:27.005Z</time></trkpt><trkpt lat="43.9112036" lon="12.1229674"><ele>263.0</ele><time>2026-04-26T09:11:28.005Z</time></trkpt><trkpt lat="43.9111126" lon="12.1227627"><ele>263.0</ele><time>2026-04-26T09:11:29.003Z</time></trkpt><trkpt lat="43.9110266" lon="12.1225656"><ele>263.0</ele><time>2026-04-26T09:11:30.007Z</time></trkpt><trkpt lat="43.9109368" lon="12.1223907"><ele>263.0</ele><time>2026-04-26T09:11:31.002Z</time></trkpt><trkpt lat="43.9108366" lon="12.1222181"><ele>260.6666666666667</ele><time>2026-04-26T09:11:32.006Z</time></trkpt><trkpt lat="43.9107239" lon="12.1220501"><ele>258.3333333333333</ele><time>2026-04-26T09:11:32.998Z</time></trkpt><trkpt lat="43.91059" lon="12.1218737"><ele>256.0</ele><time>2026-04-26T09:11:33.995Z</time></trkpt><trkpt lat="43.9104421" lon="12.1217021"><ele>256.3333333333333</ele><time>2026-04-26T09:11:35.004Z</time></trkpt><trkpt lat="43.9102978" lon="12.1215251"><ele>256.6666666666667</ele><time>2026-04-26T09:11:35.998Z</time></trkpt><trkpt lat="43.9101615" lon="12.1213481"><ele>257.0</ele><time>2026-04-26T09:11:37.005Z</time></trkpt><trkpt lat="43.9100331" lon="12.1211687"><ele>257.0</ele><time>2026-04-26T09:11:37.998Z</time></trkpt><trkpt lat="43.9099141" lon="12.120978"><ele>257.0</ele><time>2026-04-26T09:11:39Z</time></trkpt><trkpt lat="43.9098036" lon="12.1207688"><ele>257.0</ele><time>2026-04-26T09:11:39.997Z</time></trkpt><trkpt lat="43.9096944" lon="12.120532"><ele>262.5</ele><time>2026-04-26T09:11:41.003Z</time></trkpt><trkpt lat="43.9095711" lon="12.1202693"><ele>268.0</ele><time>2026-04-26T09:11:42.006Z</time></trkpt><trkpt lat="43.9094385" lon="12.1199768"><ele>264.5</ele><time>2026-04-26T09:11:42.998Z</time></trkpt><trkpt lat="43.9092847" lon="12.1196837"><ele>261.0</ele><time>2026-04-26T09:11:44.004Z</time></trkpt><trkpt lat="43.9091431" lon="12.1194048"><ele>261.0</ele><time>2026-04-26T09:11:44.996Z</time></trkpt><trkpt lat="43.9090111" lon="12.1191594"><ele>261.0</ele><time>2026-04-26T09:11:46.004Z</time></trkpt><trkpt lat="43.908895" lon="12.1189245"><ele>261.0</ele><time>2026-04-26T09:11:46.998Z</time></trkpt><trkpt lat="43.9087863" lon="12.1187052"><ele>264.0</ele><time>2026-04-26T09:11:48Z</time></trkpt><trkpt lat="43.9086809" lon="12.1185102"><ele>267.0</ele><time>2026-04-26T09:11:49.009Z</time></trkpt><trkpt lat="43.9085912" lon="12.1183273"><ele>270.0</ele><time>2026-04-26T09:11:49.997Z</time></trkpt><trkpt lat="43.9085166" lon="12.1181763"><ele>270.6</ele><time>2026-04-26T09:11:50.997Z</time></trkpt><trkpt lat="43.9084701" lon="12.1180299"><ele>271.2</ele><time>2026-04-26T09:11:52.006Z</time></trkpt><trkpt lat="43.9084618" lon="12.1178915"><ele>271.8</ele><time>2026-04-26T09:11:52.999Z</time></trkpt><trkpt lat="43.9084854" lon="12.117777"><ele>272.4</ele><time>2026-04-26T09:11:53.997Z</time></trkpt><trkpt lat="43.9085529" lon="12.1176611"><ele>273.0</ele><time>2026-04-26T09:11:55.003Z</time></trkpt><trkpt lat="43.9086511" lon="12.1175506"><ele>273.0</ele><time>2026-04-26T09:11:56.006Z</time></trkpt><trkpt lat="43.908761" lon="12.1174246"><ele>273.0</ele><time>2026-04-26T09:11:57Z</time></trkpt><trkpt lat="43.9088581" lon="12.11729"><ele>273.0</ele><time>2026-04-26T09:11:57.997Z</time></trkpt><trkpt lat="43.9089282" lon="12.1171681"><ele>273.0</ele><time>2026-04-26T09:11:58.99Z</time></trkpt><trkpt lat="43.9089772" lon="12.117025"><ele>271.4</ele><time>2026-04-26T09:12:00.008Z</time></trkpt><trkpt lat="43.9089742" lon="12.116892"><ele>269.8</ele><time>2026-04-26T09:12:00.999Z</time></trkpt><trkpt lat="43.9089369" lon="12.116749"><ele>268.2</ele><time>2026-04-26T09:12:01.998Z</time></trkpt><trkpt lat="43.9088796" lon="12.1166354"><ele>266.6</ele><time>2026-04-26T09:12:03.002Z</time></trkpt><trkpt lat="43.9088137" lon="12.1165577"><ele>265.0</ele><time>2026-04-26T09:12:03.996Z</time></trkpt><trkpt lat="43.9087334" lon="12.1165303"><ele>265.0</ele><time>2026-04-26T09:12:05Z</time></trkpt><trkpt lat="43.9086314" lon="12.116554"><ele>265.0</ele><time>2026-04-26T09:12:06.004Z</time></trkpt><trkpt lat="43.9085184" lon="12.116603"><ele>265.0</ele><time>2026-04-26T09:12:06.997Z</time></trkpt><trkpt lat="43.9083936" lon="12.1166772"><ele>265.0</ele><time>2026-04-26T09:12:08.011Z</time></trkpt><trkpt lat="43.9082638" lon="12.116745"><ele>263.4</ele><time>2026-04-26T09:12:08.999Z</time></trkpt><trkpt lat="43.9081423" lon="12.1167963"><ele>261.8</ele><time>2026-04-26T09:12:10.002Z</time></trkpt><trkpt lat="43.9080395" lon="12.1168289"><ele>260.2</ele><time>2026-04-26T09:12:11.007Z</time></trkpt><trkpt lat="43.9079527" lon="12.1168058"><ele>258.6</ele><time>2026-04-26T09:12:12.002Z</time></trkpt><trkpt lat="43.9078727" lon="12.1167291"><ele>257.0</ele><time>2026-04-26T09:12:13.006Z</time></trkpt><trkpt lat="43.9078234" lon="12.1166026"><ele>263.25</ele><time>2026-04-26T09:12:14.001Z</time></trkpt><trkpt lat="43.9077848" lon="12.1164522"><ele>269.5</ele><time>2026-04-26T09:12:15.004Z</time></trkpt><trkpt lat="43.9077455" lon="12.1162584"><ele>275.75</ele><time>2026-04-26T09:12:16.004Z</time></trkpt><trkpt lat="43.9076941" lon="12.1160284"><ele>282.0</ele><time>2026-04-26T09:12:17.005Z</time></trkpt><trkpt lat="43.9076324" lon="12.1157611"><ele>276.3333333333333</ele><time>2026-04-26T09:12:17.999Z</time></trkpt><trkpt lat="43.9075706" lon="12.1155012"><ele>270.66666666666663</ele><time>2026-04-26T09:12:18.998Z</time></trkpt><trkpt lat="43.907515" lon="12.1152748"><ele>265.0</ele><time>2026-04-26T09:12:20.005Z</time></trkpt><trkpt lat="43.9074492" lon="12.1150577"><ele>268.66666666666663</ele><time>2026-04-26T09:12:21.004Z</time></trkpt><trkpt lat="43.9073572" lon="12.1148567"><ele>272.3333333333333</ele><time>2026-04-26T09:12:22.003Z</time></trkpt><trkpt lat="43.907234" lon="12.1146391"><ele>276.0</ele><time>2026-04-26T09:12:22.997Z</time></trkpt><trkpt lat="43.9070821" lon="12.1144137"><ele>276.0</ele><time>2026-04-26T09:12:24.001Z</time></trkpt><trkpt lat="43.9069304" lon="12.1141921"><ele>276.0</ele><time>2026-04-26T09:12:25.006Z</time></trkpt><trkpt lat="43.9067964" lon="12.1139778"><ele>276.0</ele><time>2026-04-26T09:12:26Z</time></trkpt><trkpt lat="43.9066743" lon="12.1137902"><ele>277.0</ele><time>2026-04-26T09:12:26.992Z</time></trkpt><trkpt lat="43.9065526" lon="12.1136298"><ele>278.0</ele><time>2026-04-26T09:12:27.998Z</time></trkpt><trkpt lat="43.9064149" lon="12.1134904"><ele>279.0</ele><time>2026-04-26T09:12:28.997Z</time></trkpt><trkpt lat="43.9062493" lon="12.1133901"><ele>279.0</ele><time>2026-04-26T09:12:30.002Z</time></trkpt><trkpt lat="43.9060637" lon="12.1133121"><ele>279.0</ele><time>2026-04-26T09:12:31Z</time></trkpt><trkpt lat="43.9058611" lon="12.1132543"><ele>279.0</ele><time>2026-04-26T09:12:32Z</time></trkpt><trkpt lat="43.9056698" lon="12.1131862"><ele>282.3333333333333</ele><time>2026-04-26T09:12:33.001Z</time></trkpt><trkpt lat="43.9054992" lon="12.1131331"><ele>285.66666666666663</ele><time>2026-04-26T09:12:34.003Z</time></trkpt><trkpt lat="43.9053293" lon="12.11308"><ele>289.0</ele><time>2026-04-26T09:12:35.003Z</time></trkpt><trkpt lat="43.9051723" lon="12.1130178"><ele>284.3333333333333</ele><time>2026-04-26T09:12:36.007Z</time></trkpt><trkpt lat="43.9050163" lon="12.1129573"><ele>279.6666666666667</ele><time>2026-04-26T09:12:36.994Z</time></trkpt><trkpt lat="43.9048644" lon="12.1129193"><ele>275.0</ele><time>2026-04-26T09:12:38.002Z</time></trkpt><trkpt lat="43.9047204" lon="12.1128925"><ele>275.0</ele><time>2026-04-26T09:12:38.997Z</time></trkpt><trkpt lat="43.904577" lon="12.1128679"><ele>275.0</ele><time>2026-04-26T09:12:40Z</time></trkpt><trkpt lat="43.904426" lon="12.1128515"><ele>275.0</ele><time>2026-04-26T09:12:40.992Z</time></trkpt><trkpt lat="43.9042903" lon="12.1128648"><ele>275.0</ele><time>2026-04-26T09:12:42.005Z</time></trkpt><trkpt lat="43.9041652" lon="12.1128832"><ele>275.0</ele><time>2026-04-26T09:12:42.995Z</time></trkpt><trkpt lat="43.9040536" lon="12.1129088"><ele>275.0</ele><time>2026-04-26T09:12:43.997Z</time></trkpt><trkpt lat="43.9039548" lon="12.1129417"><ele>275.0</ele><time>2026-04-26T09:12:45.006Z</time></trkpt><trkpt lat="43.9038533" lon="12.1129786"><ele>275.0</ele><time>2026-04-26T09:12:46.013Z</time></trkpt><trkpt lat="43.9037675" lon="12.1130187"><ele>275.0</ele><time>2026-04-26T09:12:47.004Z</time></trkpt><trkpt lat="43.9036954" lon="12.1130553"><ele>275.0</ele><time>2026-04-26T09:12:48.002Z</time></trkpt><trkpt lat="43.9035842" lon="12.1131342"><ele>275.0</ele><time>2026-04-26T09:12:50.003Z</time></trkpt><trkpt lat="43.9035252" lon="12.113192"><ele>275.0</ele><time>2026-04-26T09:12:51.999Z</time></trkpt><trkpt lat="43.9034781" lon="12.1132846"><ele>275.0</ele><time>2026-04-26T09:13:44.008Z</time></trkpt><trkpt lat="43.9033646" lon="12.1134024"><ele>275.0</ele><time>2026-04-26T09:13:46.002Z</time></trkpt><trkpt lat="43.9032839" lon="12.1134904"><ele>272.0</ele><time>2026-04-26T09:13:46.991Z</time></trkpt><trkpt lat="43.9032078" lon="12.1135732"><ele>269.0</ele><time>2026-04-26T09:13:47.999Z</time></trkpt><trkpt lat="43.9031196" lon="12.1136591"><ele>266.0</ele><time>2026-04-26T09:13:48.997Z</time></trkpt><trkpt lat="43.9030341" lon="12.1137549"><ele>263.0</ele><time>2026-04-26T09:13:50Z</time></trkpt><trkpt lat="43.9029561" lon="12.11385"><ele>260.0</ele><time>2026-04-26T09:13:51Z</time></trkpt><trkpt lat="43.9028701" lon="12.1139359"><ele>260.0</ele><time>2026-04-26T09:13:52.008Z</time></trkpt><trkpt lat="43.9027952" lon="12.11401"><ele>260.0</ele><time>2026-04-26T09:13:52.984Z</time></trkpt><trkpt lat="43.902718" lon="12.1140741"><ele>260.0</ele><time>2026-04-26T09:13:54.007Z</time></trkpt><trkpt lat="43.9026391" lon="12.114126"><ele>260.0</ele><time>2026-04-26T09:13:55.005Z</time></trkpt><trkpt lat="43.9025505" lon="12.1141489"><ele>260.0</ele><time>2026-04-26T09:13:56.006Z</time></trkpt><trkpt lat="43.9024648" lon="12.1141261"><ele>260.0</ele><time>2026-04-26T09:13:56.999Z</time></trkpt><trkpt lat="43.9023744" lon="12.1140699"><ele>262.5</ele><time>2026-04-26T09:13:57.999Z</time></trkpt><trkpt lat="43.9022818" lon="12.1139762"><ele>265.0</ele><time>2026-04-26T09:13:58.994Z</time></trkpt><trkpt lat="43.9021987" lon="12.1138383"><ele>267.5</ele><time>2026-04-26T09:14:00.002Z</time></trkpt><trkpt lat="43.9021127" lon="12.1136596"><ele>270.0</ele><time>2026-04-26T09:14:00.999Z</time></trkpt><trkpt lat="43.9020324" lon="12.1134851"><ele>270.0</ele><time>2026-04-26T09:14:01.989Z</time></trkpt><trkpt lat="43.901946" lon="12.1133193"><ele>270.0</ele><time>2026-04-26T09:14:02.998Z</time></trkpt><trkpt lat="43.9018561" lon="12.1131525"><ele>270.0</ele><time>2026-04-26T09:14:04.001Z</time></trkpt><trkpt lat="43.901767" lon="12.1129749"><ele>268.0</ele><time>2026-04-26T09:14:04.993Z</time></trkpt><trkpt lat="43.9016808" lon="12.1127959"><ele>266.0</ele><time>2026-04-26T09:14:05.995Z</time></trkpt><trkpt lat="43.9015922" lon="12.1126204"><ele>264.0</ele><time>2026-04-26T09:14:06.995Z</time></trkpt><trkpt lat="43.90151" lon="12.1124595"><ele>265.25</ele><time>2026-04-26T09:14:07.998Z</time></trkpt><trkpt lat="43.9014297" lon="12.1123174"><ele>266.5</ele><time>2026-04-26T09:14:08.99Z</time></trkpt><trkpt lat="43.9013671" lon="12.1121619"><ele>267.75</ele><time>2026-04-26T09:14:09.999Z</time></trkpt><trkpt lat="43.9013315" lon="12.1119973"><ele>269.0</ele><time>2026-04-26T09:14:10.989Z</time></trkpt><trkpt lat="43.901327" lon="12.1118337"><ele>269.0</ele><time>2026-04-26T09:14:11.99Z</time></trkpt><trkpt lat="43.9013534" lon="12.1116698"><ele>269.0</ele><time>2026-04-26T09:14:13.001Z</time></trkpt><trkpt lat="43.9013997" lon="12.1115083"><ele>269.0</ele><time>2026-04-26T09:14:14.005Z</time></trkpt><trkpt lat="43.9014572" lon="12.1113618"><ele>269.0</ele><time>2026-04-26T09:14:14.999Z</time></trkpt><trkpt lat="43.9014973" lon="12.1112209"><ele>267.0</ele><time>2026-04-26T09:14:15.991Z</time></trkpt><trkpt lat="43.9015208" lon="12.1110732"><ele>265.0</ele><time>2026-04-26T09:14:16.991Z</time></trkpt><trkpt lat="43.9015153" lon="12.1109225"><ele>263.0</ele><time>2026-04-26T09:14:17.999Z</time></trkpt><trkpt lat="43.9014815" lon="12.1107868"><ele>261.0</ele><time>2026-04-26T09:14:18.992Z</time></trkpt><trkpt lat="43.9014116" lon="12.110658"><ele>259.0</ele><time>2026-04-26T09:14:19.997Z</time></trkpt><trkpt lat="43.9013238" lon="12.1104985"><ele>257.3333333333333</ele><time>2026-04-26T09:14:20.99Z</time></trkpt><trkpt lat="43.9012317" lon="12.1103111"><ele>255.66666666666669</ele><time>2026-04-26T09:14:21.995Z</time></trkpt><trkpt lat="43.9011384" lon="12.1101212"><ele>254.0</ele><time>2026-04-26T09:14:22.995Z</time></trkpt><trkpt lat="43.9010414" lon="12.1099356"><ele>254.33333333333334</ele><time>2026-04-26T09:14:23.993Z</time></trkpt><trkpt lat="43.9009503" lon="12.1097492"><ele>254.66666666666669</ele><time>2026-04-26T09:14:24.992Z</time></trkpt><trkpt lat="43.9008651" lon="12.1095723"><ele>255.0</ele><time>2026-04-26T09:14:25.994Z</time></trkpt><trkpt lat="43.9007985" lon="12.1093785"><ele>253.0</ele><time>2026-04-26T09:14:26.997Z</time></trkpt><trkpt lat="43.9007455" lon="12.1091563"><ele>251.0</ele><time>2026-04-26T09:14:27.989Z</time></trkpt><trkpt lat="43.9007074" lon="12.1089219"><ele>249.0</ele><time>2026-04-26T09:14:28.995Z</time></trkpt><trkpt lat="43.9006939" lon="12.1086878"><ele>253.33333333333331</ele><time>2026-04-26T09:14:29.997Z</time></trkpt><trkpt lat="43.9006996" lon="12.108448"><ele>257.66666666666663</ele><time>2026-04-26T09:14:30.99Z</time></trkpt><trkpt lat="43.9007259" lon="12.1081929"><ele>262.0</ele><time>2026-04-26T09:14:32.001Z</time></trkpt><trkpt lat="43.9007565" lon="12.107912"><ele>263.0</ele><time>2026-04-26T09:14:32.99Z</time></trkpt><trkpt lat="43.9007871" lon="12.1075966"><ele>264.0</ele><time>2026-04-26T09:14:34.002Z</time></trkpt><trkpt lat="43.9008081" lon="12.1072912"><ele>265.6666666666667</ele><time>2026-04-26T09:14:35.002Z</time></trkpt><trkpt lat="43.9008289" lon="12.1070083"><ele>267.33333333333337</ele><time>2026-04-26T09:14:36.002Z</time></trkpt><trkpt lat="43.9008265" lon="12.1067543"><ele>269.0</ele><time>2026-04-26T09:14:36.999Z</time></trkpt><trkpt lat="43.9008192" lon="12.1064963"><ele>269.0</ele><time>2026-04-26T09:14:38.005Z</time></trkpt><trkpt lat="43.9007986" lon="12.1062481"><ele>269.0</ele><time>2026-04-26T09:14:38.994Z</time></trkpt><trkpt lat="43.9007472" lon="12.1060023"><ele>269.0</ele><time>2026-04-26T09:14:40.007Z</time></trkpt><trkpt lat="43.9006783" lon="12.1057595"><ele>274.6666666666667</ele><time>2026-04-26T09:14:41.001Z</time></trkpt><trkpt lat="43.9005935" lon="12.1055009"><ele>280.3333333333333</ele><time>2026-04-26T09:14:42.001Z</time></trkpt><trkpt lat="43.9005128" lon="12.1052615"><ele>286.0</ele><time>2026-04-26T09:14:42.996Z</time></trkpt><trkpt lat="43.9004423" lon="12.1050455"><ele>290.0</ele><time>2026-04-26T09:14:43.996Z</time></trkpt><trkpt lat="43.9003826" lon="12.1048505"><ele>294.0</ele><time>2026-04-26T09:14:44.997Z</time></trkpt><trkpt lat="43.9003185" lon="12.104651"><ele>298.0</ele><time>2026-04-26T09:14:45.997Z</time></trkpt><trkpt lat="43.9002623" lon="12.1044391"><ele>298.0</ele><time>2026-04-26T09:14:47.002Z</time></trkpt><trkpt lat="43.9002182" lon="12.1042095"><ele>298.0</ele><time>2026-04-26T09:14:47.998Z</time></trkpt><trkpt lat="43.9001917" lon="12.1039684"><ele>298.0</ele><time>2026-04-26T09:14:48.995Z</time></trkpt><trkpt lat="43.9001792" lon="12.103716"><ele>297.66666666666663</ele><time>2026-04-26T09:14:49.992Z</time></trkpt><trkpt lat="43.9001707" lon="12.1034678"><ele>297.3333333333333</ele><time>2026-04-26T09:14:50.998Z</time></trkpt><trkpt lat="43.900167" lon="12.1032497"><ele>297.0</ele><time>2026-04-26T09:14:52.001Z</time></trkpt><trkpt lat="43.9001627" lon="12.1030508"><ele>297.0</ele><time>2026-04-26T09:14:52.998Z</time></trkpt><trkpt lat="43.9001852" lon="12.1028913"><ele>297.0</ele><time>2026-04-26T09:14:53.999Z</time></trkpt><trkpt lat="43.9002246" lon="12.1027534"><ele>297.0</ele><time>2026-04-26T09:14:55.01Z</time></trkpt><trkpt lat="43.9002877" lon="12.1026167"><ele>297.0</ele><time>2026-04-26T09:14:55.998Z</time></trkpt><trkpt lat="43.900386" lon="12.1024998"><ele>295.0</ele><time>2026-04-26T09:14:56.992Z</time></trkpt><trkpt lat="43.9004869" lon="12.1023937"><ele>293.0</ele><time>2026-04-26T09:14:57.999Z</time></trkpt><trkpt lat="43.9005787" lon="12.1022941"><ele>291.0</ele><time>2026-04-26T09:14:59Z</time></trkpt><trkpt lat="43.9006422" lon="12.1021707"><ele>289.0</ele><time>2026-04-26T09:15:00.014Z</time></trkpt><trkpt lat="43.9006621" lon="12.1020331"><ele>289.0</ele><time>2026-04-26T09:15:00.987Z</time></trkpt><trkpt lat="43.9006512" lon="12.1019039"><ele>289.0</ele><time>2026-04-26T09:15:01.999Z</time></trkpt><trkpt lat="43.9006177" lon="12.1017962"><ele>289.0</ele><time>2026-04-26T09:15:02.999Z</time></trkpt><trkpt lat="43.9005405" lon="12.1017093"><ele>289.0</ele><time>2026-04-26T09:15:03.984Z</time></trkpt><trkpt lat="43.9004463" lon="12.1016594"><ele>289.0</ele><time>2026-04-26T09:15:05.002Z</time></trkpt><trkpt lat="43.9003344" lon="12.1016414"><ele>289.0</ele><time>2026-04-26T09:15:05.999Z</time></trkpt><trkpt lat="43.9002049" lon="12.1016047"><ele>289.0</ele><time>2026-04-26T09:15:06.995Z</time></trkpt><trkpt lat="43.9000942" lon="12.1015175"><ele>289.0</ele><time>2026-04-26T09:15:08.002Z</time></trkpt><trkpt lat="43.9000145" lon="12.1013797"><ele>289.0</ele><time>2026-04-26T09:15:08.992Z</time></trkpt><trkpt lat="43.8999427" lon="12.1012131"><ele>289.75</ele><time>2026-04-26T09:15:09.991Z</time></trkpt><trkpt lat="43.8998473" lon="12.1010773"><ele>290.5</ele><time>2026-04-26T09:15:11.002Z</time></trkpt><trkpt lat="43.8997401" lon="12.1009582"><ele>291.25</ele><time>2026-04-26T09:15:11.999Z</time></trkpt><trkpt lat="43.8996149" lon="12.1008821"><ele>292.0</ele><time>2026-04-26T09:15:12.997Z</time></trkpt><trkpt lat="43.8994919" lon="12.1008052"><ele>294.75</ele><time>2026-04-26T09:15:13.994Z</time></trkpt><trkpt lat="43.8994201" lon="12.1006863"><ele>297.5</ele><time>2026-04-26T09:15:14.996Z</time></trkpt><trkpt lat="43.8993851" lon="12.1005412"><ele>300.25</ele><time>2026-04-26T09:15:16.001Z</time></trkpt><trkpt lat="43.8993787" lon="12.1003924"><ele>303.0</ele><time>2026-04-26T09:15:16.987Z</time></trkpt><trkpt lat="43.899387" lon="12.1002251"><ele>303.0</ele><time>2026-04-26T09:15:17.991Z</time></trkpt><trkpt lat="43.8994121" lon="12.1000452"><ele>303.0</ele><time>2026-04-26T09:15:18.998Z</time></trkpt><trkpt lat="43.8994278" lon="12.0998625"><ele>303.0</ele><time>2026-04-26T09:15:19.997Z</time></trkpt><trkpt lat="43.8994413" lon="12.0996597"><ele>303.0</ele><time>2026-04-26T09:15:20.997Z</time></trkpt><trkpt lat="43.8994328" lon="12.0994604"><ele>304.3333333333333</ele><time>2026-04-26T09:15:21.998Z</time></trkpt><trkpt lat="43.8993759" lon="12.0992766"><ele>305.66666666666663</ele><time>2026-04-26T09:15:23.037Z</time></trkpt><trkpt lat="43.8992808" lon="12.0990971"><ele>307.0</ele><time>2026-04-26T09:15:23.993Z</time></trkpt><trkpt lat="43.8991767" lon="12.0989162"><ele>304.0</ele><time>2026-04-26T09:15:24.995Z</time></trkpt><trkpt lat="43.8990988" lon="12.0987077"><ele>301.0</ele><time>2026-04-26T09:15:25.995Z</time></trkpt><trkpt lat="43.8990485" lon="12.098496"><ele>298.0</ele><time>2026-04-26T09:15:26.988Z</time></trkpt><trkpt lat="43.8990077" lon="12.0982969"><ele>304.75</ele><time>2026-04-26T09:15:27.996Z</time></trkpt><trkpt lat="43.8989491" lon="12.0981411"><ele>311.5</ele><time>2026-04-26T09:15:28.997Z</time></trkpt><trkpt lat="43.8988618" lon="12.0980132"><ele>318.25</ele><time>2026-04-26T09:15:29.997Z</time></trkpt><trkpt lat="43.8987337" lon="12.0979243"><ele>325.0</ele><time>2026-04-26T09:15:30.989Z</time></trkpt><trkpt lat="43.898594" lon="12.0978541"><ele>325.0</ele><time>2026-04-26T09:15:32.001Z</time></trkpt><trkpt lat="43.8984761" lon="12.0977779"><ele>325.0</ele><time>2026-04-26T09:15:32.996Z</time></trkpt><trkpt lat="43.8983657" lon="12.0976601"><ele>325.0</ele><time>2026-04-26T09:15:34.009Z</time></trkpt><trkpt lat="43.898289" lon="12.0975138"><ele>325.0</ele><time>2026-04-26T09:15:34.988Z</time></trkpt><trkpt lat="43.8982379" lon="12.0973823"><ele>321.5</ele><time>2026-04-26T09:15:36.002Z</time></trkpt><trkpt lat="43.8981989" lon="12.0973071"><ele>318.0</ele><time>2026-04-26T09:18:59.998Z</time></trkpt><trkpt lat="43.8981345" lon="12.0970748"><ele>314.5</ele><time>2026-04-26T09:19:01.993Z</time></trkpt><trkpt lat="43.8980818" lon="12.0969101"><ele>311.0</ele><time>2026-04-26T09:19:02.99Z</time></trkpt><trkpt lat="43.8980279" lon="12.0967449"><ele>312.0</ele><time>2026-04-26T09:19:03.989Z</time></trkpt><trkpt lat="43.8979995" lon="12.0965711"><ele>313.0</ele><time>2026-04-26T09:19:04.999Z</time></trkpt><trkpt lat="43.8979869" lon="12.0963774"><ele>314.0</ele><time>2026-04-26T09:19:05.996Z</time></trkpt><trkpt lat="43.8979958" lon="12.0961946"><ele>315.0</ele><time>2026-04-26T09:19:06.991Z</time></trkpt><trkpt lat="43.8980318" lon="12.0960226"><ele>315.0</ele><time>2026-04-26T09:19:08.011Z</time></trkpt><trkpt lat="43.8980645" lon="12.095884"><ele>315.0</ele><time>2026-04-26T09:19:08.997Z</time></trkpt><trkpt lat="43.8980919" lon="12.0957646"><ele>315.0</ele><time>2026-04-26T09:19:10.001Z</time></trkpt><trkpt lat="43.8980995" lon="12.095649"><ele>315.0</ele><time>2026-04-26T09:19:10.998Z</time></trkpt><trkpt lat="43.8980583" lon="12.0955535"><ele>315.0</ele><time>2026-04-26T09:19:12.003Z</time></trkpt><trkpt lat="43.8979782" lon="12.0954817"><ele>314.2</ele><time>2026-04-26T09:19:12.994Z</time></trkpt><trkpt lat="43.8978859" lon="12.0954412"><ele>313.4</ele><time>2026-04-26T09:19:13.995Z</time></trkpt><trkpt lat="43.8977814" lon="12.0954247"><ele>312.6</ele><time>2026-04-26T09:19:14.998Z</time></trkpt><trkpt lat="43.8976616" lon="12.0954133"><ele>311.8</ele><time>2026-04-26T09:19:16.005Z</time></trkpt><trkpt lat="43.8975639" lon="12.0953649"><ele>311.0</ele><time>2026-04-26T09:19:16.996Z</time></trkpt><trkpt lat="43.8974797" lon="12.0952801"><ele>311.0</ele><time>2026-04-26T09:19:17.998Z</time></trkpt><trkpt lat="43.8974172" lon="12.095157"><ele>311.0</ele><time>2026-04-26T09:19:19.007Z</time></trkpt><trkpt lat="43.8973769" lon="12.0949954"><ele>311.0</ele><time>2026-04-26T09:19:19.998Z</time></trkpt><trkpt lat="43.8973385" lon="12.094795"><ele>311.0</ele><time>2026-04-26T09:19:21Z</time></trkpt><trkpt lat="43.8972933" lon="12.0946"><ele>315.6</ele><time>2026-04-26T09:19:21.996Z</time></trkpt><trkpt lat="43.8972363" lon="12.0944421"><ele>320.20000000000005</ele><time>2026-04-26T09:19:22.989Z</time></trkpt><trkpt lat="43.8971696" lon="12.0943011"><ele>324.79999999999995</ele><time>2026-04-26T09:19:24Z</time></trkpt><trkpt lat="43.8971093" lon="12.0941822"><ele>329.4</ele><time>2026-04-26T09:19:24.991Z</time></trkpt><trkpt lat="43.8970764" lon="12.094068"><ele>334.0</ele><time>2026-04-26T09:19:25.997Z</time></trkpt><trkpt lat="43.8970671" lon="12.0939213"><ele>333.6</ele><time>2026-04-26T09:19:26.992Z</time></trkpt><trkpt lat="43.8970899" lon="12.0937334"><ele>333.2</ele><time>2026-04-26T09:19:28Z</time></trkpt><trkpt lat="43.8971198" lon="12.0935593"><ele>332.8</ele><time>2026-04-26T09:19:28.999Z</time></trkpt><trkpt lat="43.8971294" lon="12.0934219"><ele>332.40000000000003</ele><time>2026-04-26T09:19:29.993Z</time></trkpt><trkpt lat="43.8971088" lon="12.0933106"><ele>332.0</ele><time>2026-04-26T09:19:30.993Z</time></trkpt><trkpt lat="43.8970503" lon="12.0932268"><ele>332.0</ele><time>2026-04-26T09:19:31.998Z</time></trkpt><trkpt lat="43.8969594" lon="12.0931491"><ele>332.0</ele><time>2026-04-26T09:19:32.99Z</time></trkpt><trkpt lat="43.8968604" lon="12.0931171"><ele>332.0</ele><time>2026-04-26T09:19:33.995Z</time></trkpt><trkpt lat="43.896761" lon="12.0931361"><ele>332.0</ele><time>2026-04-26T09:19:34.999Z</time></trkpt><trkpt lat="43.8966814" lon="12.0932352"><ele>332.0</ele><time>2026-04-26T09:19:35.996Z</time></trkpt><trkpt lat="43.8965951" lon="12.093367"><ele>327.75</ele><time>2026-04-26T09:19:36.996Z</time></trkpt><trkpt lat="43.8965195" lon="12.093511"><ele>323.5</ele><time>2026-04-26T09:19:37.995Z</time></trkpt><trkpt lat="43.8964286" lon="12.0936305"><ele>319.25</ele><time>2026-04-26T09:19:38.987Z</time></trkpt><trkpt lat="43.8963259" lon="12.0937127"><ele>315.0</ele><time>2026-04-26T09:19:39.993Z</time></trkpt><trkpt lat="43.896202" lon="12.0937734"><ele>315.0</ele><time>2026-04-26T09:19:40.994Z</time></trkpt><trkpt lat="43.8960674" lon="12.0938091"><ele>315.0</ele><time>2026-04-26T09:19:42.006Z</time></trkpt><trkpt lat="43.8959387" lon="12.0938111"><ele>315.0</ele><time>2026-04-26T09:19:42.994Z</time></trkpt><trkpt lat="43.8958343" lon="12.093755"><ele>315.0</ele><time>2026-04-26T09:19:43.997Z</time></trkpt><trkpt lat="43.8957197" lon="12.0936435"><ele>321.3333333333333</ele><time>2026-04-26T09:19:44.988Z</time></trkpt><trkpt lat="43.8955887" lon="12.093506"><ele>327.66666666666663</ele><time>2026-04-26T09:19:45.995Z</time></trkpt><trkpt lat="43.8954395" lon="12.0933506"><ele>334.0</ele><time>2026-04-26T09:19:46.988Z</time></trkpt><trkpt lat="43.8952531" lon="12.093189"><ele>338.0</ele><time>2026-04-26T09:19:47.99Z</time></trkpt><trkpt lat="43.8950514" lon="12.093034"><ele>342.0</ele><time>2026-04-26T09:19:49.007Z</time></trkpt><trkpt lat="43.8948407" lon="12.0928741"><ele>342.0</ele><time>2026-04-26T09:19:49.993Z</time></trkpt><trkpt lat="43.8946309" lon="12.0927387"><ele>342.0</ele><time>2026-04-26T09:19:50.998Z</time></trkpt><trkpt lat="43.8944403" lon="12.0926202"><ele>342.0</ele><time>2026-04-26T09:19:51.997Z</time></trkpt><trkpt lat="43.8942628" lon="12.0925221"><ele>338.6666666666667</ele><time>2026-04-26T09:19:52.99Z</time></trkpt><trkpt lat="43.8941039" lon="12.0924259"><ele>335.33333333333337</ele><time>2026-04-26T09:19:53.997Z</time></trkpt><trkpt lat="43.8939608" lon="12.0923268"><ele>332.0</ele><time>2026-04-26T09:19:54.998Z</time></trkpt><trkpt lat="43.8938481" lon="12.0922412"><ele>332.0</ele><time>2026-04-26T09:19:55.995Z</time></trkpt><trkpt lat="43.8937594" lon="12.092142"><ele>332.0</ele><time>2026-04-26T09:19:57.001Z</time></trkpt><trkpt lat="43.8937172" lon="12.0920161"><ele>332.0</ele><time>2026-04-26T09:19:58.003Z</time></trkpt><trkpt lat="43.8937112" lon="12.0918753"><ele>332.0</ele><time>2026-04-26T09:19:59.002Z</time></trkpt><trkpt lat="43.8937449" lon="12.0917291"><ele>332.0</ele><time>2026-04-26T09:20:00.016Z</time></trkpt><trkpt lat="43.8938272" lon="12.0915791"><ele>331.0</ele><time>2026-04-26T09:20:01.003Z</time></trkpt><trkpt lat="43.8939234" lon="12.0914173"><ele>330.0</ele><time>2026-04-26T09:20:02Z</time></trkpt><trkpt lat="43.8940266" lon="12.0912409"><ele>329.0</ele><time>2026-04-26T09:20:02.998Z</time></trkpt><trkpt lat="43.894118" lon="12.0910577"><ele>329.0</ele><time>2026-04-26T09:20:04.006Z</time></trkpt><trkpt lat="43.8941823" lon="12.0908646"><ele>329.0</ele><time>2026-04-26T09:20:05.015Z</time></trkpt><trkpt lat="43.8942211" lon="12.090654"><ele>329.0</ele><time>2026-04-26T09:20:06.001Z</time></trkpt><trkpt lat="43.8942277" lon="12.0904239"><ele>328.33333333333337</ele><time>2026-04-26T09:20:06.993Z</time></trkpt><trkpt lat="43.8942144" lon="12.0901968"><ele>327.6666666666667</ele><time>2026-04-26T09:20:08.002Z</time></trkpt><trkpt lat="43.8942064" lon="12.089969"><ele>327.0</ele><time>2026-04-26T09:20:08.999Z</time></trkpt><trkpt lat="43.8941903" lon="12.089767"><ele>329.5</ele><time>2026-04-26T09:20:10.015Z</time></trkpt><trkpt lat="43.8941592" lon="12.0895957"><ele>332.0</ele><time>2026-04-26T09:20:10.998Z</time></trkpt><trkpt lat="43.8940964" lon="12.0894533"><ele>334.5</ele><time>2026-04-26T09:20:12.005Z</time></trkpt><trkpt lat="43.8940035" lon="12.0893427"><ele>337.0</ele><time>2026-04-26T09:20:13.003Z</time></trkpt><trkpt lat="43.8938934" lon="12.0892765"><ele>337.0</ele><time>2026-04-26T09:20:13.992Z</time></trkpt><trkpt lat="43.8937589" lon="12.0892522"><ele>337.0</ele><time>2026-04-26T09:20:14.999Z</time></trkpt><trkpt lat="43.8936097" lon="12.0892475"><ele>337.0</ele><time>2026-04-26T09:20:16.004Z</time></trkpt><trkpt lat="43.8934223" lon="12.0892383"><ele>338.3333333333333</ele><time>2026-04-26T09:20:16.997Z</time></trkpt><trkpt lat="43.8932043" lon="12.0892284"><ele>339.6666666666667</ele><time>2026-04-26T09:20:18.003Z</time></trkpt><trkpt lat="43.8929767" lon="12.0892591"><ele>341.0</ele><time>2026-04-26T09:20:18.998Z</time></trkpt><trkpt lat="43.8927695" lon="12.089292"><ele>341.0</ele><time>2026-04-26T09:20:20Z</time></trkpt><trkpt lat="43.8925849" lon="12.0893386"><ele>341.0</ele><time>2026-04-26T09:20:21.005Z</time></trkpt><trkpt lat="43.8924158" lon="12.0893647"><ele>341.0</ele><time>2026-04-26T09:20:22.005Z</time></trkpt><trkpt lat="43.8922723" lon="12.0893557"><ele>341.0</ele><time>2026-04-26T09:20:23.004Z</time></trkpt><trkpt lat="43.8921667" lon="12.0892995"><ele>341.0</ele><time>2026-04-26T09:20:24.018Z</time></trkpt><trkpt lat="43.8920797" lon="12.0891902"><ele>341.0</ele><time>2026-04-26T09:20:25.006Z</time></trkpt><trkpt lat="43.8920331" lon="12.0890644"><ele>341.0</ele><time>2026-04-26T09:20:26.006Z</time></trkpt><trkpt lat="43.8920083" lon="12.0889142"><ele>341.0</ele><time>2026-04-26T09:20:27.007Z</time></trkpt><trkpt lat="43.8920062" lon="12.0887298"><ele>343.0</ele><time>2026-04-26T09:20:28.003Z</time></trkpt><trkpt lat="43.892021" lon="12.0885239"><ele>345.0</ele><time>2026-04-26T09:20:28.992Z</time></trkpt><trkpt lat="43.8920164" lon="12.0882731"><ele>347.0</ele><time>2026-04-26T09:20:30.008Z</time></trkpt><trkpt lat="43.8920088" lon="12.0879846"><ele>347.5</ele><time>2026-04-26T09:20:31.002Z</time></trkpt><trkpt lat="43.8920091" lon="12.0876581"><ele>348.0</ele><time>2026-04-26T09:20:32.012Z</time></trkpt><trkpt lat="43.8920132" lon="12.087342"><ele>348.6666666666667</ele><time>2026-04-26T09:20:32.998Z</time></trkpt><trkpt lat="43.8920165" lon="12.0870492"><ele>349.33333333333337</ele><time>2026-04-26T09:20:34.002Z</time></trkpt><trkpt lat="43.8920135" lon="12.0867853"><ele>350.0</ele><time>2026-04-26T09:20:35.021Z</time></trkpt><trkpt lat="43.8920084" lon="12.0865332"><ele>352.33333333333337</ele><time>2026-04-26T09:20:35.993Z</time></trkpt><trkpt lat="43.8920077" lon="12.086301"><ele>354.6666666666667</ele><time>2026-04-26T09:20:36.994Z</time></trkpt><trkpt lat="43.8920065" lon="12.0860787"><ele>357.0</ele><time>2026-04-26T09:20:37.992Z</time></trkpt><trkpt lat="43.8920076" lon="12.0858683"><ele>358.25</ele><time>2026-04-26T09:20:38.999Z</time></trkpt><trkpt lat="43.8920066" lon="12.0856687"><ele>359.5</ele><time>2026-04-26T09:20:40Z</time></trkpt><trkpt lat="43.8920108" lon="12.0854786"><ele>360.75</ele><time>2026-04-26T09:20:40.993Z</time></trkpt><trkpt lat="43.8920181" lon="12.0852863"><ele>362.0</ele><time>2026-04-26T09:20:42.011Z</time></trkpt><trkpt lat="43.8920422" lon="12.0850876"><ele>359.0</ele><time>2026-04-26T09:20:43.002Z</time></trkpt><trkpt lat="43.8920784" lon="12.0848853"><ele>356.0</ele><time>2026-04-26T09:20:44.005Z</time></trkpt><trkpt lat="43.8921113" lon="12.0847011"><ele>353.0</ele><time>2026-04-26T09:20:44.997Z</time></trkpt><trkpt lat="43.8921498" lon="12.0845349"><ele>350.0</ele><time>2026-04-26T09:20:45.998Z</time></trkpt><trkpt lat="43.8921842" lon="12.0843772"><ele>350.0</ele><time>2026-04-26T09:20:47.013Z</time></trkpt><trkpt lat="43.8922151" lon="12.0842367"><ele>350.0</ele><time>2026-04-26T09:20:47.995Z</time></trkpt><trkpt lat="43.8922376" lon="12.0841188"><ele>350.0</ele><time>2026-04-26T09:20:48.993Z</time></trkpt><trkpt lat="43.8922586" lon="12.0840228"><ele>350.0</ele><time>2026-04-26T09:20:49.999Z</time></trkpt><trkpt lat="43.8922864" lon="12.0839399"><ele>350.0</ele><time>2026-04-26T09:20:50.995Z</time></trkpt><trkpt lat="43.8922926" lon="12.0838482"><ele>350.0</ele><time>2026-04-26T09:20:54.003Z</time></trkpt><trkpt lat="43.8923121" lon="12.083749"><ele>349.4</ele><time>2026-04-26T09:20:57.999Z</time></trkpt><trkpt lat="43.8922676" lon="12.0836865"><ele>348.8</ele><time>2026-04-26T09:25:12.996Z</time></trkpt><trkpt lat="43.8922564" lon="12.0835923"><ele>348.20000000000005</ele><time>2026-04-26T09:25:13.996Z</time></trkpt><trkpt lat="43.8922388" lon="12.083447"><ele>347.6</ele><time>2026-04-26T09:25:14.983Z</time></trkpt><trkpt lat="43.8922097" lon="12.0832825"><ele>347.0</ele><time>2026-04-26T09:25:15.994Z</time></trkpt><trkpt lat="43.8921845" lon="12.0831158"><ele>346.6</ele><time>2026-04-26T09:25:16.992Z</time></trkpt><trkpt lat="43.8921756" lon="12.0829652"><ele>346.20000000000005</ele><time>2026-04-26T09:25:17.993Z</time></trkpt><trkpt lat="43.8921749" lon="12.0828221"><ele>345.8</ele><time>2026-04-26T09:25:18.992Z</time></trkpt><trkpt lat="43.8922048" lon="12.0826947"><ele>345.4</ele><time>2026-04-26T09:25:19.988Z</time></trkpt><trkpt lat="43.8922551" lon="12.0825788"><ele>345.0</ele><time>2026-04-26T09:25:20.996Z</time></trkpt><trkpt lat="43.8923278" lon="12.0824754"><ele>343.6</ele><time>2026-04-26T09:25:21.998Z</time></trkpt><trkpt lat="43.8924184" lon="12.0823853"><ele>342.2</ele><time>2026-04-26T09:25:22.989Z</time></trkpt><trkpt lat="43.8924988" lon="12.0822901"><ele>340.79999999999995</ele><time>2026-04-26T09:25:23.996Z</time></trkpt><trkpt lat="43.8925592" lon="12.0821647"><ele>339.4</ele><time>2026-04-26T09:25:25.002Z</time></trkpt><trkpt lat="43.8925939" lon="12.0820365"><ele>338.0</ele><time>2026-04-26T09:25:26.007Z</time></trkpt><trkpt lat="43.8926027" lon="12.0819041"><ele>338.0</ele><time>2026-04-26T09:25:26.991Z</time></trkpt><trkpt lat="43.8925982" lon="12.0817856"><ele>338.0</ele><time>2026-04-26T09:25:27.997Z</time></trkpt><trkpt lat="43.8925813" lon="12.0816778"><ele>338.0</ele><time>2026-04-26T09:25:28.993Z</time></trkpt><trkpt lat="43.8925543" lon="12.0815789"><ele>338.0</ele><time>2026-04-26T09:25:29.991Z</time></trkpt><trkpt lat="43.8925019" lon="12.0814752"><ele>338.0</ele><time>2026-04-26T09:25:31.002Z</time></trkpt><trkpt lat="43.8924238" lon="12.0814068"><ele>338.0</ele><time>2026-04-26T09:25:31.997Z</time></trkpt><trkpt lat="43.8923301" lon="12.0813362"><ele>340.59999999999997</ele><time>2026-04-26T09:25:32.982Z</time></trkpt><trkpt lat="43.8922266" lon="12.0812703"><ele>343.2</ele><time>2026-04-26T09:25:33.992Z</time></trkpt><trkpt lat="43.8921256" lon="12.0812185"><ele>345.8</ele><time>2026-04-26T09:25:34.992Z</time></trkpt><trkpt lat="43.8920328" lon="12.0811551"><ele>348.4</ele><time>2026-04-26T09:25:36Z</time></trkpt><trkpt lat="43.8919437" lon="12.0810608"><ele>351.0</ele><time>2026-04-26T09:25:36.99Z</time></trkpt><trkpt lat="43.8918777" lon="12.0809197"><ele>352.25</ele><time>2026-04-26T09:25:37.994Z</time></trkpt><trkpt lat="43.8918376" lon="12.0807608"><ele>353.5</ele><time>2026-04-26T09:25:38.989Z</time></trkpt><trkpt lat="43.8918023" lon="12.0805842"><ele>354.75</ele><time>2026-04-26T09:25:39.999Z</time></trkpt><trkpt lat="43.8917526" lon="12.0804193"><ele>356.0</ele><time>2026-04-26T09:25:40.992Z</time></trkpt><trkpt lat="43.8917063" lon="12.0802582"><ele>354.0</ele><time>2026-04-26T09:25:42.004Z</time></trkpt><trkpt lat="43.8916553" lon="12.0801094"><ele>352.0</ele><time>2026-04-26T09:25:42.994Z</time></trkpt><trkpt lat="43.8915848" lon="12.0799822"><ele>350.0</ele><time>2026-04-26T09:25:43.989Z</time></trkpt><trkpt lat="43.8914914" lon="12.0798709"><ele>348.0</ele><time>2026-04-26T09:25:44.996Z</time></trkpt><trkpt lat="43.8913838" lon="12.0797567"><ele>348.0</ele><time>2026-04-26T09:25:45.998Z</time></trkpt><trkpt lat="43.8912672" lon="12.0796558"><ele>348.0</ele><time>2026-04-26T09:25:46.982Z</time></trkpt><trkpt lat="43.8911607" lon="12.0795633"><ele>348.0</ele><time>2026-04-26T09:25:47.995Z</time></trkpt><trkpt lat="43.8910634" lon="12.0794617"><ele>348.0</ele><time>2026-04-26T09:25:48.997Z</time></trkpt><trkpt lat="43.8909625" lon="12.0793389"><ele>344.0</ele><time>2026-04-26T09:25:49.989Z</time></trkpt><trkpt lat="43.890865" lon="12.0791964"><ele>340.0</ele><time>2026-04-26T09:25:51.001Z</time></trkpt><trkpt lat="43.8907656" lon="12.0790388"><ele>336.0</ele><time>2026-04-26T09:25:51.999Z</time></trkpt><trkpt lat="43.8906656" lon="12.0788688"><ele>336.0</ele><time>2026-04-26T09:25:53.002Z</time></trkpt><trkpt lat="43.8905607" lon="12.0786924"><ele>336.0</ele><time>2026-04-26T09:25:53.995Z</time></trkpt><trkpt lat="43.8904616" lon="12.0785132"><ele>336.0</ele><time>2026-04-26T09:25:54.995Z</time></trkpt><trkpt lat="43.890357" lon="12.0783443"><ele>333.3333333333333</ele><time>2026-04-26T09:25:55.999Z</time></trkpt><trkpt lat="43.8902517" lon="12.0781711"><ele>330.66666666666663</ele><time>2026-04-26T09:25:56.989Z</time></trkpt><trkpt lat="43.8901509" lon="12.0779991"><ele>328.0</ele><time>2026-04-26T09:25:57.993Z</time></trkpt><trkpt lat="43.8900527" lon="12.0778368"><ele>328.0</ele><time>2026-04-26T09:25:58.997Z</time></trkpt><trkpt lat="43.8899582" lon="12.0776825"><ele>328.0</ele><time>2026-04-26T09:26:00Z</time></trkpt><trkpt lat="43.8898684" lon="12.0775359"><ele>328.0</ele><time>2026-04-26T09:26:00.996Z</time></trkpt><trkpt lat="43.8897965" lon="12.077395"><ele>328.0</ele><time>2026-04-26T09:26:01.989Z</time></trkpt><trkpt lat="43.8897541" lon="12.0772466"><ele>328.75</ele><time>2026-04-26T09:26:02.991Z</time></trkpt><trkpt lat="43.8897349" lon="12.0770828"><ele>329.5</ele><time>2026-04-26T09:26:03.992Z</time></trkpt><trkpt lat="43.8897447" lon="12.0768993"><ele>330.25</ele><time>2026-04-26T09:26:04.996Z</time></trkpt><trkpt lat="43.8897807" lon="12.0767183"><ele>331.0</ele><time>2026-04-26T09:26:05.992Z</time></trkpt><trkpt lat="43.8898401" lon="12.0765224"><ele>329.25</ele><time>2026-04-26T09:26:07.003Z</time></trkpt><trkpt lat="43.8899003" lon="12.0763456"><ele>327.5</ele><time>2026-04-26T09:26:08.002Z</time></trkpt><trkpt lat="43.8899588" lon="12.07618"><ele>325.75</ele><time>2026-04-26T09:26:08.988Z</time></trkpt><trkpt lat="43.890001" lon="12.0760387"><ele>324.0</ele><time>2026-04-26T09:26:09.99Z</time></trkpt><trkpt lat="43.8900206" lon="12.0759149"><ele>324.0</ele><time>2026-04-26T09:26:10.997Z</time></trkpt><trkpt lat="43.8900066" lon="12.0757952"><ele>324.0</ele><time>2026-04-26T09:26:11.997Z</time></trkpt><trkpt lat="43.8899574" lon="12.0756865"><ele>324.0</ele><time>2026-04-26T09:26:12.995Z</time></trkpt><trkpt lat="43.8898829" lon="12.0756035"><ele>324.0</ele><time>2026-04-26T09:26:13.99Z</time></trkpt><trkpt lat="43.8897998" lon="12.0755214"><ele>324.0</ele><time>2026-04-26T09:26:14.992Z</time></trkpt><trkpt lat="43.889708" lon="12.0754148"><ele>323.6</ele><time>2026-04-26T09:26:15.995Z</time></trkpt><trkpt lat="43.8896246" lon="12.0752917"><ele>323.2</ele><time>2026-04-26T09:26:16.991Z</time></trkpt><trkpt lat="43.8895829" lon="12.0751558"><ele>322.8</ele><time>2026-04-26T09:26:17.995Z</time></trkpt><trkpt lat="43.8895684" lon="12.0750197"><ele>322.40000000000003</ele><time>2026-04-26T09:26:18.986Z</time></trkpt><trkpt lat="43.8895784" lon="12.0748861"><ele>322.0</ele><time>2026-04-26T09:26:20.001Z</time></trkpt><trkpt lat="43.8896244" lon="12.0747576"><ele>323.0</ele><time>2026-04-26T09:26:20.994Z</time></trkpt><trkpt lat="43.8896915" lon="12.0746591"><ele>324.0</ele><time>2026-04-26T09:26:21.991Z</time></trkpt><trkpt lat="43.8897804" lon="12.0745877"><ele>325.0</ele><time>2026-04-26T09:26:22.993Z</time></trkpt><trkpt lat="43.8898742" lon="12.0745629"><ele>326.0</ele><time>2026-04-26T09:26:24.002Z</time></trkpt><trkpt lat="43.8899789" lon="12.074599"><ele>327.0</ele><time>2026-04-26T09:26:24.991Z</time></trkpt><trkpt lat="43.890075" lon="12.0746629"><ele>329.25</ele><time>2026-04-26T09:26:26.001Z</time></trkpt><trkpt lat="43.8901789" lon="12.0747646"><ele>331.5</ele><time>2026-04-26T09:26:26.994Z</time></trkpt><trkpt lat="43.8902938" lon="12.07488"><ele>333.75</ele><time>2026-04-26T09:26:27.999Z</time></trkpt><trkpt lat="43.8904212" lon="12.0750141"><ele>336.0</ele><time>2026-04-26T09:26:28.992Z</time></trkpt><trkpt lat="43.8905501" lon="12.0751533"><ele>336.0</ele><time>2026-04-26T09:26:29.998Z</time></trkpt><trkpt lat="43.8906807" lon="12.0752829"><ele>336.0</ele><time>2026-04-26T09:26:30.996Z</time></trkpt><trkpt lat="43.8908084" lon="12.0754066"><ele>336.0</ele><time>2026-04-26T09:26:32.005Z</time></trkpt><trkpt lat="43.8909339" lon="12.0755281"><ele>344.6666666666667</ele><time>2026-04-26T09:26:32.996Z</time></trkpt><trkpt lat="43.8910588" lon="12.0756528"><ele>353.33333333333337</ele><time>2026-04-26T09:26:33.985Z</time></trkpt><trkpt lat="43.8911853" lon="12.0757838"><ele>362.0</ele><time>2026-04-26T09:26:34.989Z</time></trkpt><trkpt lat="43.891328" lon="12.0759208"><ele>364.33333333333337</ele><time>2026-04-26T09:26:35.972Z</time></trkpt><trkpt lat="43.8914806" lon="12.0760633"><ele>366.6666666666667</ele><time>2026-04-26T09:26:36.97Z</time></trkpt><trkpt lat="43.8916392" lon="12.0762201"><ele>369.0</ele><time>2026-04-26T09:26:37.97Z</time></trkpt><trkpt lat="43.8918051" lon="12.0763803"><ele>374.66666666666663</ele><time>2026-04-26T09:26:38.97Z</time></trkpt><trkpt lat="43.8919766" lon="12.0765531"><ele>380.3333333333333</ele><time>2026-04-26T09:26:39.977Z</time></trkpt><trkpt lat="43.8921543" lon="12.0767364"><ele>386.0</ele><time>2026-04-26T09:26:40.965Z</time></trkpt><trkpt lat="43.8923361" lon="12.0769364"><ele>393.0</ele><time>2026-04-26T09:26:41.965Z</time></trkpt><trkpt lat="43.8925272" lon="12.0771385"><ele>400.0</ele><time>2026-04-26T09:26:42.975Z</time></trkpt><trkpt lat="43.8927243" lon="12.0773447"><ele>310.0</ele><time>2026-04-26T09:26:43.965Z</time></trkpt><trkpt lat="43.9001647" lon="12.101547"><ele>299.5</ele><time>2026-04-26T09:28:16.982Z</time></trkpt><trkpt lat="43.9002191" lon="12.1018572"><ele>289.0</ele><time>2026-04-26T09:28:17.991Z</time></trkpt><trkpt lat="43.9002619" lon="12.1021683"><ele>291.66666666666663</ele><time>2026-04-26T09:28:18.984Z</time></trkpt><trkpt lat="43.9003184" lon="12.1024499"><ele>294.3333333333333</ele><time>2026-04-26T09:28:19.983Z</time></trkpt><trkpt lat="43.9003547" lon="12.1027517"><ele>297.0</ele><time>2026-04-26T09:28:20.978Z</time></trkpt><trkpt lat="43.900395" lon="12.1030492"><ele>299.3333333333333</ele><time>2026-04-26T09:28:21.999Z</time></trkpt><trkpt lat="43.9004552" lon="12.1033358"><ele>301.66666666666663</ele><time>2026-04-26T09:28:22.989Z</time></trkpt><trkpt lat="43.9005002" lon="12.1036308"><ele>304.0</ele><time>2026-04-26T09:28:23.982Z</time></trkpt><trkpt lat="43.9005486" lon="12.1039291"><ele>302.0</ele><time>2026-04-26T09:28:24.992Z</time></trkpt><trkpt lat="43.9005922" lon="12.1042279"><ele>300.0</ele><time>2026-04-26T09:28:25.987Z</time></trkpt><trkpt lat="43.900645" lon="12.1045242"><ele>298.0</ele><time>2026-04-26T09:28:26.987Z</time></trkpt><trkpt lat="43.9006913" lon="12.1048246"><ele>294.0</ele><time>2026-04-26T09:28:27.988Z</time></trkpt><trkpt lat="43.9007376" lon="12.1051212"><ele>290.0</ele><time>2026-04-26T09:28:28.98Z</time></trkpt><trkpt lat="43.9007863" lon="12.1054194"><ele>286.0</ele><time>2026-04-26T09:28:29.993Z</time></trkpt><trkpt lat="43.9008328" lon="12.1057175"><ele>289.66666666666663</ele><time>2026-04-26T09:28:30.993Z</time></trkpt><trkpt lat="43.9008787" lon="12.1060163"><ele>293.3333333333333</ele><time>2026-04-26T09:28:31.991Z</time></trkpt><trkpt lat="43.9009356" lon="12.1063148"><ele>297.0</ele><time>2026-04-26T09:28:32.981Z</time></trkpt><trkpt lat="43.901" lon="12.1066058"><ele>297.0</ele><time>2026-04-26T09:28:33.986Z</time></trkpt><trkpt lat="43.9010725" lon="12.1068935"><ele>297.0</ele><time>2026-04-26T09:28:34.983Z</time></trkpt><trkpt lat="43.901147" lon="12.1071747"><ele>297.0</ele><time>2026-04-26T09:28:35.99Z</time></trkpt><trkpt lat="43.9012367" lon="12.1074517"><ele>292.6666666666667</ele><time>2026-04-26T09:28:36.983Z</time></trkpt><trkpt lat="43.9013272" lon="12.1077322"><ele>288.33333333333337</ele><time>2026-04-26T09:28:37.989Z</time></trkpt><trkpt lat="43.9014244" lon="12.1080072"><ele>284.0</ele><time>2026-04-26T09:28:38.992Z</time></trkpt><trkpt lat="43.9015259" lon="12.1082804"><ele>277.6666666666667</ele><time>2026-04-26T09:28:39.995Z</time></trkpt><trkpt lat="43.9016339" lon="12.1085462"><ele>271.3333333333333</ele><time>2026-04-26T09:28:41.006Z</time></trkpt><trkpt lat="43.9017462" lon="12.1088085"><ele>265.0</ele><time>2026-04-26T09:28:41.987Z</time></trkpt><trkpt lat="43.9018665" lon="12.1090649"><ele>270.0</ele><time>2026-04-26T09:28:42.992Z</time></trkpt><trkpt lat="43.901994" lon="12.1093145"><ele>275.0</ele><time>2026-04-26T09:28:43.984Z</time></trkpt><trkpt lat="43.9021274" lon="12.1095539"><ele>280.0</ele><time>2026-04-26T09:28:44.996Z</time></trkpt><trkpt lat="43.902269" lon="12.1097945"><ele>283.0</ele><time>2026-04-26T09:28:45.99Z</time></trkpt><trkpt lat="43.9024228" lon="12.1100235"><ele>286.0</ele><time>2026-04-26T09:28:46.979Z</time></trkpt><trkpt lat="43.90258" lon="12.1102472"><ele>297.5</ele><time>2026-04-26T09:28:47.985Z</time></trkpt><trkpt lat="43.9027428" lon="12.1104732"><ele>309.0</ele><time>2026-04-26T09:28:48.978Z</time></trkpt><trkpt lat="43.9029113" lon="12.1106913"><ele>302.0</ele><time>2026-04-26T09:28:49.987Z</time></trkpt><trkpt lat="43.9030873" lon="12.1109062"><ele>295.0</ele><time>2026-04-26T09:28:50.974Z</time></trkpt><trkpt lat="43.9032655" lon="12.1111246"><ele>298.5</ele><time>2026-04-26T09:28:51.977Z</time></trkpt><trkpt lat="43.903451" lon="12.1113414"><ele>302.0</ele><time>2026-04-26T09:28:52.977Z</time></trkpt><trkpt lat="43.903643" lon="12.1115515"><ele>297.0</ele><time>2026-04-26T09:28:53.968Z</time></trkpt><trkpt lat="43.903835" lon="12.1117715"><ele>292.0</ele><time>2026-04-26T09:28:54.967Z</time></trkpt><trkpt lat="43.9040287" lon="12.1119916"><ele>292.0</ele><time>2026-04-26T09:28:55.972Z</time></trkpt><trkpt lat="43.9042265" lon="12.1122194"><ele>292.0</ele><time>2026-04-26T09:28:56.968Z</time></trkpt><trkpt lat="43.90443" lon="12.1124513"><ele>290.5</ele><time>2026-04-26T09:28:57.974Z</time></trkpt><trkpt lat="43.9046379" lon="12.1126879"><ele>289.0</ele><time>2026-04-26T09:28:58.972Z</time></trkpt><trkpt lat="43.9051277" lon="12.113122"><ele>280.3333333333333</ele><time>2026-04-26T09:29:02.982Z</time></trkpt><trkpt lat="43.9053062" lon="12.1133043"><ele>271.6666666666667</ele><time>2026-04-26T09:29:03.996Z</time></trkpt><trkpt lat="43.9054774" lon="12.1134918"><ele>263.0</ele><time>2026-04-26T09:29:04.988Z</time></trkpt><trkpt lat="43.9056559" lon="12.1136785"><ele>263.0</ele><time>2026-04-26T09:29:05.984Z</time></trkpt><trkpt lat="43.9058285" lon="12.1138704"><ele>263.0</ele><time>2026-04-26T09:29:06.999Z</time></trkpt><trkpt lat="43.9060007" lon="12.1140662"><ele>263.0</ele><time>2026-04-26T09:29:07.987Z</time></trkpt><trkpt lat="43.9061652" lon="12.1142734"><ele>261.6666666666667</ele><time>2026-04-26T09:29:08.984Z</time></trkpt><trkpt lat="43.9063212" lon="12.1144849"><ele>260.3333333333333</ele><time>2026-04-26T09:29:09.989Z</time></trkpt><trkpt lat="43.9064755" lon="12.1147045"><ele>259.0</ele><time>2026-04-26T09:29:10.984Z</time></trkpt><trkpt lat="43.9066215" lon="12.1149301"><ele>261.0</ele><time>2026-04-26T09:29:12Z</time></trkpt><trkpt lat="43.9067618" lon="12.1151639"><ele>263.0</ele><time>2026-04-26T09:29:12.994Z</time></trkpt><trkpt lat="43.9068965" lon="12.1154033"><ele>265.0</ele><time>2026-04-26T09:29:13.993Z</time></trkpt><trkpt lat="43.9070219" lon="12.1156513"><ele>263.0</ele><time>2026-04-26T09:29:15.004Z</time></trkpt><trkpt lat="43.907147" lon="12.1159014"><ele>261.0</ele><time>2026-04-26T09:29:15.998Z</time></trkpt><trkpt lat="43.9072686" lon="12.1161595"><ele>259.0</ele><time>2026-04-26T09:29:16.988Z</time></trkpt><trkpt lat="43.9073886" lon="12.1164143"><ele>258.3333333333333</ele><time>2026-04-26T09:29:17.993Z</time></trkpt><trkpt lat="43.9075129" lon="12.1166673"><ele>257.6666666666667</ele><time>2026-04-26T09:29:18.995Z</time></trkpt><trkpt lat="43.9076353" lon="12.1169186"><ele>257.0</ele><time>2026-04-26T09:29:19.996Z</time></trkpt><trkpt lat="43.9077592" lon="12.1171678"><ele>254.33333333333334</ele><time>2026-04-26T09:29:20.992Z</time></trkpt><trkpt lat="43.9078806" lon="12.1174212"><ele>251.66666666666669</ele><time>2026-04-26T09:29:22.004Z</time></trkpt><trkpt lat="43.9080048" lon="12.1176718"><ele>249.0</ele><time>2026-04-26T09:29:22.996Z</time></trkpt><trkpt lat="43.9081274" lon="12.1179238"><ele>249.0</ele><time>2026-04-26T09:29:23.998Z</time></trkpt><trkpt lat="43.9082505" lon="12.1181761"><ele>249.0</ele><time>2026-04-26T09:29:24.995Z</time></trkpt><trkpt lat="43.908376" lon="12.1184305"><ele>249.0</ele><time>2026-04-26T09:29:25.995Z</time></trkpt><trkpt lat="43.9085037" lon="12.1186827"><ele>253.0</ele><time>2026-04-26T09:29:26.99Z</time></trkpt><trkpt lat="43.908633" lon="12.1189322"><ele>257.0</ele><time>2026-04-26T09:29:27.993Z</time></trkpt><trkpt lat="43.9087583" lon="12.1191828"><ele>261.0</ele><time>2026-04-26T09:29:28.983Z</time></trkpt><trkpt lat="43.9088786" lon="12.1194342"><ele>261.0</ele><time>2026-04-26T09:29:30.003Z</time></trkpt><trkpt lat="43.9090017" lon="12.1196851"><ele>261.0</ele><time>2026-04-26T09:29:30.985Z</time></trkpt><trkpt lat="43.9091305" lon="12.1199344"><ele>261.0</ele><time>2026-04-26T09:29:31.993Z</time></trkpt><trkpt lat="43.909255" lon="12.1201898"><ele>259.6666666666667</ele><time>2026-04-26T09:29:32.993Z</time></trkpt><trkpt lat="43.909379" lon="12.120441"><ele>258.33333333333337</ele><time>2026-04-26T09:29:34.003Z</time></trkpt><trkpt lat="43.9094987" lon="12.1206979"><ele>257.0</ele><time>2026-04-26T09:29:34.994Z</time></trkpt><trkpt lat="43.9096205" lon="12.1209475"><ele>257.0</ele><time>2026-04-26T09:29:35.992Z</time></trkpt><trkpt lat="43.9097437" lon="12.1212023"><ele>257.0</ele><time>2026-04-26T09:29:37Z</time></trkpt><trkpt lat="43.9098643" lon="12.1214577"><ele>257.0</ele><time>2026-04-26T09:29:37.999Z</time></trkpt><trkpt lat="43.909981" lon="12.1217121"><ele>256.6666666666667</ele><time>2026-04-26T09:29:38.999Z</time></trkpt><trkpt lat="43.910099" lon="12.1219622"><ele>256.3333333333333</ele><time>2026-04-26T09:29:40.014Z</time></trkpt><trkpt lat="43.910222" lon="12.1222132"><ele>256.0</ele><time>2026-04-26T09:29:40.993Z</time></trkpt><trkpt lat="43.9103443" lon="12.1224683"><ele>253.0</ele><time>2026-04-26T09:29:42.012Z</time></trkpt><trkpt lat="43.9104679" lon="12.1227185"><ele>250.0</ele><time>2026-04-26T09:29:43Z</time></trkpt><trkpt lat="43.9105939" lon="12.1229694"><ele>247.0</ele><time>2026-04-26T09:29:43.996Z</time></trkpt><trkpt lat="43.9107197" lon="12.1232286"><ele>244.0</ele><time>2026-04-26T09:29:44.992Z</time></trkpt><trkpt lat="43.9108549" lon="12.1235096"><ele>241.0</ele><time>2026-04-26T09:29:45.993Z</time></trkpt><trkpt lat="43.9110008" lon="12.1237944"><ele>243.5</ele><time>2026-04-26T09:29:46.995Z</time></trkpt><trkpt lat="43.9111426" lon="12.1240718"><ele>246.0</ele><time>2026-04-26T09:29:47.99Z</time></trkpt><trkpt lat="43.9112713" lon="12.1243302"><ele>246.0</ele><time>2026-04-26T09:29:48.984Z</time></trkpt><trkpt lat="43.911394" lon="12.1245718"><ele>246.0</ele><time>2026-04-26T09:29:49.994Z</time></trkpt><trkpt lat="43.9115102" lon="12.1248145"><ele>246.0</ele><time>2026-04-26T09:29:50.999Z</time></trkpt><trkpt lat="43.9116297" lon="12.1250625"><ele>246.0</ele><time>2026-04-26T09:29:52.005Z</time></trkpt><trkpt lat="43.9117457" lon="12.1253203"><ele>246.0</ele><time>2026-04-26T09:29:52.983Z</time></trkpt><trkpt lat="43.9118554" lon="12.1255863"><ele>246.0</ele><time>2026-04-26T09:29:53.995Z</time></trkpt><trkpt lat="43.9119566" lon="12.1258531"><ele>246.0</ele><time>2026-04-26T09:29:54.99Z</time></trkpt><trkpt lat="43.9120502" lon="12.1261256"><ele>246.0</ele><time>2026-04-26T09:29:55.994Z</time></trkpt><trkpt lat="43.9121388" lon="12.1264051"><ele>246.0</ele><time>2026-04-26T09:29:56.987Z</time></trkpt><trkpt lat="43.9122228" lon="12.1266845"><ele>244.0</ele><time>2026-04-26T09:29:57.993Z</time></trkpt><trkpt lat="43.9122971" lon="12.1269704"><ele>242.0</ele><time>2026-04-26T09:29:58.983Z</time></trkpt><trkpt lat="43.912371" lon="12.1272551"><ele>240.0</ele><time>2026-04-26T09:29:59.991Z</time></trkpt><trkpt lat="43.9124349" lon="12.1275465"><ele>237.33333333333331</ele><time>2026-04-26T09:30:00.987Z</time></trkpt><trkpt lat="43.9124916" lon="12.1278426"><ele>234.66666666666666</ele><time>2026-04-26T09:30:02Z</time></trkpt><trkpt lat="43.9125396" lon="12.1281463"><ele>232.0</ele><time>2026-04-26T09:30:02.999Z</time></trkpt><trkpt lat="43.9125821" lon="12.1284472"><ele>232.0</ele><time>2026-04-26T09:30:03.996Z</time></trkpt><trkpt lat="43.9126209" lon="12.1287498"><ele>232.0</ele><time>2026-04-26T09:30:04.987Z</time></trkpt><trkpt lat="43.912648" lon="12.1290534"><ele>232.0</ele><time>2026-04-26T09:30:05.993Z</time></trkpt><trkpt lat="43.9126667" lon="12.1293579"><ele>225.0</ele><time>2026-04-26T09:30:06.996Z</time></trkpt><trkpt lat="43.9126749" lon="12.1296601"><ele>218.0</ele><time>2026-04-26T09:30:07.994Z</time></trkpt><trkpt lat="43.91268" lon="12.1299609"><ele>211.0</ele><time>2026-04-26T09:30:08.992Z</time></trkpt><trkpt lat="43.9126801" lon="12.1302683"><ele>204.66666666666666</ele><time>2026-04-26T09:30:09.993Z</time></trkpt><trkpt lat="43.9126704" lon="12.1305728"><ele>198.33333333333331</ele><time>2026-04-26T09:30:10.992Z</time></trkpt><trkpt lat="43.9126576" lon="12.1308721"><ele>192.0</ele><time>2026-04-26T09:30:11.994Z</time></trkpt><trkpt lat="43.9126396" lon="12.131176"><ele>191.66666666666666</ele><time>2026-04-26T09:30:12.99Z</time></trkpt><trkpt lat="43.9126186" lon="12.1314777"><ele>191.33333333333331</ele><time>2026-04-26T09:30:13.99Z</time></trkpt><trkpt lat="43.9125999" lon="12.1317799"><ele>191.0</ele><time>2026-04-26T09:30:14.985Z</time></trkpt><trkpt lat="43.9125766" lon="12.1320792"><ele>194.66666666666666</ele><time>2026-04-26T09:30:16.002Z</time></trkpt><trkpt lat="43.9125619" lon="12.1323857"><ele>198.33333333333331</ele><time>2026-04-26T09:30:16.992Z</time></trkpt><trkpt lat="43.9125416" lon="12.1326877"><ele>202.0</ele><time>2026-04-26T09:30:17.997Z</time></trkpt><trkpt lat="43.9125183" lon="12.1329907"><ele>201.0</ele><time>2026-04-26T09:30:19.003Z</time></trkpt><trkpt lat="43.9124975" lon="12.1332982"><ele>200.0</ele><time>2026-04-26T09:30:19.991Z</time></trkpt><trkpt lat="43.9124849" lon="12.1336031"><ele>199.0</ele><time>2026-04-26T09:30:20.988Z</time></trkpt><trkpt lat="43.9124836" lon="12.1339085"><ele>199.33333333333331</ele><time>2026-04-26T09:30:22.001Z</time></trkpt><trkpt lat="43.9124884" lon="12.1342123"><ele>199.66666666666669</ele><time>2026-04-26T09:30:22.992Z</time></trkpt><trkpt lat="43.9124977" lon="12.134514"><ele>200.0</ele><time>2026-04-26T09:30:24.006Z</time></trkpt><trkpt lat="43.9125138" lon="12.1348204"><ele>200.66666666666669</ele><time>2026-04-26T09:30:24.992Z</time></trkpt><trkpt lat="43.9125354" lon="12.13512"><ele>201.33333333333331</ele><time>2026-04-26T09:30:25.999Z</time></trkpt><trkpt lat="43.9125557" lon="12.1354237"><ele>202.0</ele><time>2026-04-26T09:30:26.99Z</time></trkpt><trkpt lat="43.912583" lon="12.1357272"><ele>188.0</ele><time>2026-04-26T09:30:27.98Z</time></trkpt><trkpt lat="43.9139718" lon="12.1402135"><ele>188.0</ele><time>2026-04-26T09:30:43.981Z</time></trkpt><trkpt lat="43.914036" lon="12.1404778"><ele>188.0</ele><time>2026-04-26T09:30:44.981Z</time></trkpt><trkpt lat="43.9141498" lon="12.1407192"><ele>188.0</ele><time>2026-04-26T09:30:45.989Z</time></trkpt><trkpt lat="43.9142803" lon="12.1409723"><ele>188.66666666666666</ele><time>2026-04-26T09:30:46.994Z</time></trkpt><trkpt lat="43.9144234" lon="12.1412074"><ele>189.33333333333334</ele><time>2026-04-26T09:30:47.99Z</time></trkpt><trkpt lat="43.9145602" lon="12.141439"><ele>190.0</ele><time>2026-04-26T09:30:48.982Z</time></trkpt><trkpt lat="43.9147033" lon="12.1416651"><ele>190.0</ele><time>2026-04-26T09:30:50.009Z</time></trkpt><trkpt lat="43.9148637" lon="12.1418827"><ele>190.0</ele><time>2026-04-26T09:30:50.983Z</time></trkpt><trkpt lat="43.9150264" lon="12.1420878"><ele>190.0</ele><time>2026-04-26T09:30:51.987Z</time></trkpt><trkpt lat="43.915193" lon="12.1422916"><ele>191.0</ele><time>2026-04-26T09:30:52.983Z</time></trkpt><trkpt lat="43.9153524" lon="12.1424931"><ele>192.0</ele><time>2026-04-26T09:30:53.981Z</time></trkpt><trkpt lat="43.9158358" lon="12.1431215"><ele>198.0</ele><time>2026-04-26T09:30:56.994Z</time></trkpt><trkpt lat="43.9160044" lon="12.1433107"><ele>204.0</ele><time>2026-04-26T09:30:57.995Z</time></trkpt><trkpt lat="43.9161659" lon="12.1435221"><ele>210.0</ele><time>2026-04-26T09:30:58.983Z</time></trkpt><trkpt lat="43.9163306" lon="12.1437325"><ele>204.0</ele><time>2026-04-26T09:30:59.977Z</time></trkpt><trkpt lat="43.9185562" lon="12.1464623"><ele>195.0</ele><time>2026-04-26T09:31:12.982Z</time></trkpt><trkpt lat="43.9186265" lon="12.146599"><ele>186.0</ele><time>2026-04-26T09:31:13.999Z</time></trkpt><trkpt lat="43.9187838" lon="12.14679"><ele>177.0</ele><time>2026-04-26T09:31:14.985Z</time></trkpt><trkpt lat="43.9189455" lon="12.1469954"><ele>177.0</ele><time>2026-04-26T09:31:15.988Z</time></trkpt><trkpt lat="43.91911" lon="12.1471922"><ele>177.0</ele><time>2026-04-26T09:31:16.992Z</time></trkpt><trkpt lat="43.9192773" lon="12.147387"><ele>177.0</ele><time>2026-04-26T09:31:17.992Z</time></trkpt><trkpt lat="43.9194369" lon="12.1475897"><ele>177.33333333333334</ele><time>2026-04-26T09:31:18.988Z</time></trkpt><trkpt lat="43.9195978" lon="12.147795"><ele>177.66666666666669</ele><time>2026-04-26T09:31:19.986Z</time></trkpt><trkpt lat="43.919763" lon="12.1479993"><ele>178.0</ele><time>2026-04-26T09:31:20.99Z</time></trkpt><trkpt lat="43.9199293" lon="12.1481992"><ele>177.66666666666669</ele><time>2026-04-26T09:31:21.993Z</time></trkpt><trkpt lat="43.9200893" lon="12.1484036"><ele>177.33333333333334</ele><time>2026-04-26T09:31:22.985Z</time></trkpt><trkpt lat="43.9202487" lon="12.1486106"><ele>177.0</ele><time>2026-04-26T09:31:23.998Z</time></trkpt><trkpt lat="43.9204098" lon="12.1488185"><ele>177.0</ele><time>2026-04-26T09:31:24.991Z</time></trkpt><trkpt lat="43.920571" lon="12.1490287"><ele>177.0</ele><time>2026-04-26T09:31:25.999Z</time></trkpt><trkpt lat="43.9207253" lon="12.1492463"><ele>177.0</ele><time>2026-04-26T09:31:26.994Z</time></trkpt><trkpt lat="43.9208774" lon="12.1494701"><ele>176.0</ele><time>2026-04-26T09:31:27.991Z</time></trkpt><trkpt lat="43.9210258" lon="12.1496961"><ele>175.0</ele><time>2026-04-26T09:31:28.992Z</time></trkpt><trkpt lat="43.9211641" lon="12.1499301"><ele>174.0</ele><time>2026-04-26T09:31:29.991Z</time></trkpt><trkpt lat="43.921303" lon="12.1501649"><ele>174.0</ele><time>2026-04-26T09:31:30.992Z</time></trkpt><trkpt lat="43.9214366" lon="12.1504064"><ele>174.0</ele><time>2026-04-26T09:31:31.994Z</time></trkpt><trkpt lat="43.9215685" lon="12.1506505"><ele>174.0</ele><time>2026-04-26T09:31:32.989Z</time></trkpt><trkpt lat="43.921692" lon="12.1509044"><ele>174.66666666666666</ele><time>2026-04-26T09:31:33.99Z</time></trkpt><trkpt lat="43.9218072" lon="12.1511651"><ele>175.33333333333331</ele><time>2026-04-26T09:31:35.001Z</time></trkpt><trkpt lat="43.9219176" lon="12.1514299"><ele>176.0</ele><time>2026-04-26T09:31:35.991Z</time></trkpt><trkpt lat="43.9220267" lon="12.1516889"><ele>175.0</ele><time>2026-04-26T09:31:36.988Z</time></trkpt><trkpt lat="43.9221276" lon="12.1519549"><ele>174.0</ele><time>2026-04-26T09:31:37.992Z</time></trkpt><trkpt lat="43.9222251" lon="12.152231"><ele>173.0</ele><time>2026-04-26T09:31:38.983Z</time></trkpt><trkpt lat="43.9223116" lon="12.1525109"><ele>173.0</ele><time>2026-04-26T09:31:39.999Z</time></trkpt><trkpt lat="43.9223983" lon="12.1527881"><ele>173.0</ele><time>2026-04-26T09:31:40.983Z</time></trkpt><trkpt lat="43.92248" lon="12.1530725"><ele>173.0</ele><time>2026-04-26T09:31:41.986Z</time></trkpt><trkpt lat="43.9225534" lon="12.1533578"><ele>174.66666666666666</ele><time>2026-04-26T09:31:42.988Z</time></trkpt><trkpt lat="43.9226221" lon="12.1536432"><ele>176.33333333333334</ele><time>2026-04-26T09:31:43.989Z</time></trkpt><trkpt lat="43.9226844" lon="12.1539295"><ele>178.0</ele><time>2026-04-26T09:31:44.984Z</time></trkpt><trkpt lat="43.9227419" lon="12.1542236"><ele>178.0</ele><time>2026-04-26T09:31:45.995Z</time></trkpt><trkpt lat="43.9227969" lon="12.1545196"><ele>178.0</ele><time>2026-04-26T09:31:47.002Z</time></trkpt><trkpt lat="43.9228434" lon="12.1548081"><ele>178.0</ele><time>2026-04-26T09:31:47.998Z</time></trkpt><trkpt lat="43.922884" lon="12.155106"><ele>176.0</ele><time>2026-04-26T09:31:48.997Z</time></trkpt><trkpt lat="43.9229224" lon="12.1554081"><ele>174.0</ele><time>2026-04-26T09:31:49.993Z</time></trkpt><trkpt lat="43.9229563" lon="12.1557113"><ele>172.0</ele><time>2026-04-26T09:31:50.987Z</time></trkpt><trkpt lat="43.9229847" lon="12.1560147"><ele>172.0</ele><time>2026-04-26T09:31:51.996Z</time></trkpt><trkpt lat="43.9230134" lon="12.1563163"><ele>172.0</ele><time>2026-04-26T09:31:52.989Z</time></trkpt><trkpt lat="43.9230458" lon="12.1566159"><ele>172.0</ele><time>2026-04-26T09:31:53.989Z</time></trkpt><trkpt lat="43.9230726" lon="12.1569188"><ele>172.33333333333334</ele><time>2026-04-26T09:31:54.99Z</time></trkpt><trkpt lat="43.9231018" lon="12.1572205"><ele>172.66666666666666</ele><time>2026-04-26T09:31:55.99Z</time></trkpt><trkpt lat="43.9231269" lon="12.1575235"><ele>173.0</ele><time>2026-04-26T09:31:56.994Z</time></trkpt><trkpt lat="43.9231427" lon="12.1578278"><ele>174.0</ele><time>2026-04-26T09:31:58.001Z</time></trkpt><trkpt lat="43.9231599" lon="12.1581268"><ele>175.0</ele><time>2026-04-26T09:31:58.99Z</time></trkpt><trkpt lat="43.9231721" lon="12.1584332"><ele>176.0</ele><time>2026-04-26T09:31:59.991Z</time></trkpt><trkpt lat="43.9231911" lon="12.1587369"><ele>179.0</ele><time>2026-04-26T09:32:00.981Z</time></trkpt><trkpt lat="43.9232185" lon="12.159038"><ele>182.0</ele><time>2026-04-26T09:32:01.989Z</time></trkpt><trkpt lat="43.9232457" lon="12.1593405"><ele>185.0</ele><time>2026-04-26T09:32:02.985Z</time></trkpt><trkpt lat="43.9232757" lon="12.1596416"><ele>185.0</ele><time>2026-04-26T09:32:03.992Z</time></trkpt><trkpt lat="43.9233031" lon="12.1599436"><ele>185.0</ele><time>2026-04-26T09:32:04.988Z</time></trkpt><trkpt lat="43.9233383" lon="12.1602458"><ele>185.0</ele><time>2026-04-26T09:32:05.994Z</time></trkpt><trkpt lat="43.923372" lon="12.1605468"><ele>191.0</ele><time>2026-04-26T09:32:06.994Z</time></trkpt><trkpt lat="43.9234108" lon="12.1608487"><ele>197.0</ele><time>2026-04-26T09:32:07.997Z</time></trkpt><trkpt lat="43.9234387" lon="12.1611476"><ele>203.0</ele><time>2026-04-26T09:32:08.989Z</time></trkpt><trkpt lat="43.9234543" lon="12.1614497"><ele>200.66666666666669</ele><time>2026-04-26T09:32:09.99Z</time></trkpt><trkpt lat="43.9234743" lon="12.1617524"><ele>198.33333333333331</ele><time>2026-04-26T09:32:10.996Z</time></trkpt><trkpt lat="43.9234994" lon="12.1620561"><ele>196.0</ele><time>2026-04-26T09:32:11.988Z</time></trkpt><trkpt lat="43.9235223" lon="12.1623587"><ele>192.0</ele><time>2026-04-26T09:32:12.989Z</time></trkpt><trkpt lat="43.9235465" lon="12.1626597"><ele>188.0</ele><time>2026-04-26T09:32:13.999Z</time></trkpt><trkpt lat="43.9235648" lon="12.1629638"><ele>184.0</ele><time>2026-04-26T09:32:14.999Z</time></trkpt><trkpt lat="43.9235809" lon="12.1632684"><ele>185.66666666666669</ele><time>2026-04-26T09:32:16.003Z</time></trkpt><trkpt lat="43.923601" lon="12.163571"><ele>187.33333333333334</ele><time>2026-04-26T09:32:16.991Z</time></trkpt><trkpt lat="43.9236247" lon="12.1638699"><ele>189.0</ele><time>2026-04-26T09:32:18.002Z</time></trkpt><trkpt lat="43.9236433" lon="12.1641742"><ele>181.0</ele><time>2026-04-26T09:32:18.986Z</time></trkpt><trkpt lat="43.9238959" lon="12.1669162"><ele>181.0</ele><time>2026-04-26T09:32:28.001Z</time></trkpt><trkpt lat="43.9239134" lon="12.1672121"><ele>181.0</ele><time>2026-04-26T09:32:29.001Z</time></trkpt><trkpt lat="43.9239403" lon="12.1675215"><ele>181.0</ele><time>2026-04-26T09:32:29.997Z</time></trkpt><trkpt lat="43.9239661" lon="12.1678274"><ele>180.0</ele><time>2026-04-26T09:32:30.991Z</time></trkpt><trkpt lat="43.9240141" lon="12.1681254"><ele>179.0</ele><time>2026-04-26T09:32:31.999Z</time></trkpt><trkpt lat="43.9240631" lon="12.168419"><ele>178.0</ele><time>2026-04-26T09:32:32.985Z</time></trkpt><trkpt lat="43.9241212" lon="12.1687137"><ele>177.33333333333334</ele><time>2026-04-26T09:32:33.989Z</time></trkpt><trkpt lat="43.9241904" lon="12.1690004"><ele>176.66666666666666</ele><time>2026-04-26T09:32:34.991Z</time></trkpt><trkpt lat="43.9242729" lon="12.169284"><ele>176.0</ele><time>2026-04-26T09:32:35.991Z</time></trkpt><trkpt lat="43.9243569" lon="12.1695628"><ele>176.0</ele><time>2026-04-26T09:32:36.984Z</time></trkpt><trkpt lat="43.9244557" lon="12.1698375"><ele>176.0</ele><time>2026-04-26T09:32:37.983Z</time></trkpt><trkpt lat="43.9245622" lon="12.1701011"><ele>176.0</ele><time>2026-04-26T09:32:38.995Z</time></trkpt><trkpt lat="43.9246831" lon="12.1703548"><ele>176.66666666666666</ele><time>2026-04-26T09:32:39.992Z</time></trkpt><trkpt lat="43.9248105" lon="12.1706031"><ele>177.33333333333334</ele><time>2026-04-26T09:32:40.989Z</time></trkpt><trkpt lat="43.9249499" lon="12.1708382"><ele>178.0</ele><time>2026-04-26T09:32:41.988Z</time></trkpt><trkpt lat="43.9250965" lon="12.1710688"><ele>175.66666666666669</ele><time>2026-04-26T09:32:42.992Z</time></trkpt><trkpt lat="43.9252558" lon="12.1712864"><ele>173.33333333333334</ele><time>2026-04-26T09:32:43.989Z</time></trkpt><trkpt lat="43.9254232" lon="12.1714917"><ele>171.0</ele><time>2026-04-26T09:32:44.997Z</time></trkpt><trkpt lat="43.92559" lon="12.1716812"><ele>171.0</ele><time>2026-04-26T09:32:45.998Z</time></trkpt><trkpt lat="43.9257705" lon="12.1718598"><ele>171.0</ele><time>2026-04-26T09:32:46.988Z</time></trkpt><trkpt lat="43.9259548" lon="12.1720232"><ele>171.0</ele><time>2026-04-26T09:32:47.998Z</time></trkpt><trkpt lat="43.9261456" lon="12.1721676"><ele>173.33333333333334</ele><time>2026-04-26T09:32:48.989Z</time></trkpt><trkpt lat="43.9263405" lon="12.1722961"><ele>175.66666666666669</ele><time>2026-04-26T09:32:49.998Z</time></trkpt><trkpt lat="43.9265376" lon="12.1724207"><ele>178.0</ele><time>2026-04-26T09:32:50.995Z</time></trkpt><trkpt lat="43.9267407" lon="12.1725271"><ele>181.0</ele><time>2026-04-26T09:32:51.994Z</time></trkpt><trkpt lat="43.9269495" lon="12.1726241"><ele>184.0</ele><time>2026-04-26T09:32:52.993Z</time></trkpt><trkpt lat="43.9271597" lon="12.1727127"><ele>187.0</ele><time>2026-04-26T09:32:53.996Z</time></trkpt><trkpt lat="43.9273752" lon="12.1727827"><ele>186.0</ele><time>2026-04-26T09:32:54.995Z</time></trkpt><trkpt lat="43.9275922" lon="12.172842"><ele>185.0</ele><time>2026-04-26T09:32:55.991Z</time></trkpt><trkpt lat="43.9278113" lon="12.1728998"><ele>184.0</ele><time>2026-04-26T09:32:56.989Z</time></trkpt><trkpt lat="43.9280278" lon="12.1729559"><ele>184.0</ele><time>2026-04-26T09:32:57.987Z</time></trkpt><trkpt lat="43.9282411" lon="12.173015"><ele>184.0</ele><time>2026-04-26T09:32:58.991Z</time></trkpt><trkpt lat="43.9284568" lon="12.173072"><ele>184.0</ele><time>2026-04-26T09:32:59.994Z</time></trkpt><trkpt lat="43.9286758" lon="12.173133"><ele>185.66666666666669</ele><time>2026-04-26T09:33:00.994Z</time></trkpt><trkpt lat="43.9288958" lon="12.17319"><ele>187.33333333333334</ele><time>2026-04-26T09:33:01.992Z</time></trkpt><trkpt lat="43.9291107" lon="12.1732517"><ele>189.0</ele><time>2026-04-26T09:33:02.99Z</time></trkpt><trkpt lat="43.9293264" lon="12.1733092"><ele>185.0</ele><time>2026-04-26T09:33:03.992Z</time></trkpt><trkpt lat="43.9295433" lon="12.1733645"><ele>181.0</ele><time>2026-04-26T09:33:04.998Z</time></trkpt><trkpt lat="43.9297577" lon="12.1734201"><ele>177.0</ele><time>2026-04-26T09:33:05.997Z</time></trkpt><trkpt lat="43.929973" lon="12.1734827"><ele>172.0</ele><time>2026-04-26T09:33:06.991Z</time></trkpt><trkpt lat="43.9301878" lon="12.1735465"><ele>167.0</ele><time>2026-04-26T09:33:08Z</time></trkpt><trkpt lat="43.9304041" lon="12.1736105"><ele>162.0</ele><time>2026-04-26T09:33:08.975Z</time></trkpt><trkpt lat="43.9306194" lon="12.1736796"><ele>162.0</ele><time>2026-04-26T09:33:09.992Z</time></trkpt><trkpt lat="43.9308329" lon="12.1737665"><ele>162.0</ele><time>2026-04-26T09:33:10.997Z</time></trkpt><trkpt lat="43.9310433" lon="12.1738615"><ele>162.0</ele><time>2026-04-26T09:33:11.999Z</time></trkpt><trkpt lat="43.9312529" lon="12.1739679"><ele>161.33333333333334</ele><time>2026-04-26T09:33:12.997Z</time></trkpt><trkpt lat="43.931454" lon="12.1740884"><ele>160.66666666666669</ele><time>2026-04-26T09:33:13.996Z</time></trkpt><trkpt lat="43.9316504" lon="12.1742303"><ele>160.0</ele><time>2026-04-26T09:33:14.996Z</time></trkpt><trkpt lat="43.9318413" lon="12.1743853"><ele>158.0</ele><time>2026-04-26T09:33:15.992Z</time></trkpt><trkpt lat="43.9320271" lon="12.174551"><ele>156.0</ele><time>2026-04-26T09:33:16.992Z</time></trkpt><trkpt lat="43.9322071" lon="12.1747317"><ele>154.0</ele><time>2026-04-26T09:33:18.005Z</time></trkpt><trkpt lat="43.9323771" lon="12.1749182"><ele>158.33333333333334</ele><time>2026-04-26T09:33:18.99Z</time></trkpt><trkpt lat="43.932544" lon="12.175119"><ele>162.66666666666666</ele><time>2026-04-26T09:33:19.99Z</time></trkpt><trkpt lat="43.9327053" lon="12.1753281"><ele>167.0</ele><time>2026-04-26T09:33:20.995Z</time></trkpt><trkpt lat="43.9328554" lon="12.1755494"><ele>173.66666666666666</ele><time>2026-04-26T09:33:21.996Z</time></trkpt><trkpt lat="43.9329963" lon="12.1757827"><ele>180.33333333333334</ele><time>2026-04-26T09:33:22.986Z</time></trkpt><trkpt lat="43.933133" lon="12.1760229"><ele>187.0</ele><time>2026-04-26T09:33:23.993Z</time></trkpt><trkpt lat="43.9332701" lon="12.176267"><ele>187.33333333333334</ele><time>2026-04-26T09:33:24.994Z</time></trkpt><trkpt lat="43.9334048" lon="12.1765124"><ele>187.66666666666666</ele><time>2026-04-26T09:33:25.99Z</time></trkpt><trkpt lat="43.9335379" lon="12.1767566"><ele>188.0</ele><time>2026-04-26T09:33:26.983Z</time></trkpt><trkpt lat="43.9336668" lon="12.1770036"><ele>188.0</ele><time>2026-04-26T09:33:27.996Z</time></trkpt><trkpt lat="43.9337983" lon="12.1772487"><ele>188.0</ele><time>2026-04-26T09:33:28.992Z</time></trkpt><trkpt lat="43.9339238" lon="12.1774961"><ele>188.0</ele><time>2026-04-26T09:33:30.002Z</time></trkpt><trkpt lat="43.9340517" lon="12.1777456"><ele>188.0</ele><time>2026-04-26T09:33:30.993Z</time></trkpt><trkpt lat="43.9341808" lon="12.1779947"><ele>188.0</ele><time>2026-04-26T09:33:31.989Z</time></trkpt><trkpt lat="43.9343105" lon="12.178241"><ele>188.0</ele><time>2026-04-26T09:33:32.985Z</time></trkpt><trkpt lat="43.9344365" lon="12.1784953"><ele>188.0</ele><time>2026-04-26T09:33:33.998Z</time></trkpt><trkpt lat="43.934561" lon="12.1787436"><ele>188.0</ele><time>2026-04-26T09:33:34.995Z</time></trkpt><trkpt lat="43.9346849" lon="12.178996"><ele>188.0</ele><time>2026-04-26T09:33:35.989Z</time></trkpt><trkpt lat="43.9348125" lon="12.1792439"><ele>189.66666666666666</ele><time>2026-04-26T09:33:36.982Z</time></trkpt><trkpt lat="43.9349432" lon="12.179491"><ele>191.33333333333331</ele><time>2026-04-26T09:33:37.998Z</time></trkpt><trkpt lat="43.9350758" lon="12.179739"><ele>193.0</ele><time>2026-04-26T09:33:38.991Z</time></trkpt><trkpt lat="43.9352076" lon="12.1799869"><ele>193.0</ele><time>2026-04-26T09:33:39.987Z</time></trkpt><trkpt lat="43.9353334" lon="12.1802376"><ele>193.0</ele><time>2026-04-26T09:33:40.994Z</time></trkpt><trkpt lat="43.9354564" lon="12.1804894"><ele>193.0</ele><time>2026-04-26T09:33:41.994Z</time></trkpt><trkpt lat="43.935581" lon="12.1807419"><ele>192.33333333333331</ele><time>2026-04-26T09:33:42.995Z</time></trkpt><trkpt lat="43.93571" lon="12.1809914"><ele>191.66666666666666</ele><time>2026-04-26T09:33:43.993Z</time></trkpt><trkpt lat="43.9358388" lon="12.1812369"><ele>191.0</ele><time>2026-04-26T09:33:44.992Z</time></trkpt><trkpt lat="43.9359722" lon="12.1814787"><ele>191.66666666666666</ele><time>2026-04-26T09:33:45.993Z</time></trkpt><trkpt lat="43.9361124" lon="12.1817163"><ele>192.33333333333331</ele><time>2026-04-26T09:33:46.987Z</time></trkpt><trkpt lat="43.9362596" lon="12.1819521"><ele>193.0</ele><time>2026-04-26T09:33:47.989Z</time></trkpt><trkpt lat="43.9364054" lon="12.1821797"><ele>194.66666666666666</ele><time>2026-04-26T09:33:48.99Z</time></trkpt><trkpt lat="43.9365537" lon="12.182408"><ele>196.33333333333331</ele><time>2026-04-26T09:33:49.989Z</time></trkpt><trkpt lat="43.9367029" lon="12.1826289"><ele>198.0</ele><time>2026-04-26T09:33:50.991Z</time></trkpt><trkpt lat="43.9368577" lon="12.1828425"><ele>196.0</ele><time>2026-04-26T09:33:51.993Z</time></trkpt><trkpt lat="43.9370163" lon="12.1830495"><ele>194.0</ele><time>2026-04-26T09:33:52.995Z</time></trkpt><trkpt lat="43.9371811" lon="12.1832478"><ele>192.0</ele><time>2026-04-26T09:33:53.987Z</time></trkpt><trkpt lat="43.937358" lon="12.1834399"><ele>192.0</ele><time>2026-04-26T09:33:54.982Z</time></trkpt><trkpt lat="43.9375323" lon="12.1836283"><ele>192.0</ele><time>2026-04-26T09:33:55.988Z</time></trkpt><trkpt lat="43.9377084" lon="12.1838126"><ele>192.0</ele><time>2026-04-26T09:33:56.983Z</time></trkpt><trkpt lat="43.9378909" lon="12.183994"><ele>193.33333333333331</ele><time>2026-04-26T09:33:57.984Z</time></trkpt><trkpt lat="43.9380761" lon="12.1841673"><ele>194.66666666666666</ele><time>2026-04-26T09:33:58.986Z</time></trkpt><trkpt lat="43.9382639" lon="12.1843283"><ele>196.0</ele><time>2026-04-26T09:33:59.988Z</time></trkpt><trkpt lat="43.9384559" lon="12.1844815"><ele>197.0</ele><time>2026-04-26T09:34:00.985Z</time></trkpt><trkpt lat="43.9386518" lon="12.1846263"><ele>198.0</ele><time>2026-04-26T09:34:01.994Z</time></trkpt><trkpt lat="43.9388458" lon="12.1847677"><ele>199.0</ele><time>2026-04-26T09:34:02.996Z</time></trkpt><trkpt lat="43.9390437" lon="12.1849032"><ele>192.0</ele><time>2026-04-26T09:34:03.984Z</time></trkpt><trkpt lat="43.9392435" lon="12.1850338"><ele>185.0</ele><time>2026-04-26T09:34:04.989Z</time></trkpt><trkpt lat="43.9394478" lon="12.1851523"><ele>178.0</ele><time>2026-04-26T09:34:05.979Z</time></trkpt><trkpt lat="43.9396528" lon="12.1852675"><ele>178.0</ele><time>2026-04-26T09:34:06.984Z</time></trkpt><trkpt lat="43.939862" lon="12.1853745"><ele>178.0</ele><time>2026-04-26T09:34:07.989Z</time></trkpt><trkpt lat="43.9400705" lon="12.1854737"><ele>178.0</ele><time>2026-04-26T09:34:08.986Z</time></trkpt><trkpt lat="43.9402827" lon="12.1855702"><ele>176.66666666666669</ele><time>2026-04-26T09:34:09.989Z</time></trkpt><trkpt lat="43.9404952" lon="12.1856593"><ele>175.33333333333334</ele><time>2026-04-26T09:34:10.989Z</time></trkpt><trkpt lat="43.9407082" lon="12.1857381"><ele>174.0</ele><time>2026-04-26T09:34:11.983Z</time></trkpt><trkpt lat="43.9409199" lon="12.1858096"><ele>174.0</ele><time>2026-04-26T09:34:12.987Z</time></trkpt><trkpt lat="43.9411337" lon="12.1858792"><ele>174.0</ele><time>2026-04-26T09:34:13.991Z</time></trkpt><trkpt lat="43.9413487" lon="12.1859411"><ele>174.0</ele><time>2026-04-26T09:34:14.987Z</time></trkpt><trkpt lat="43.9415618" lon="12.1860057"><ele>165.66666666666666</ele><time>2026-04-26T09:34:15.985Z</time></trkpt><trkpt lat="43.9417711" lon="12.1860639"><ele>157.33333333333331</ele><time>2026-04-26T09:34:16.985Z</time></trkpt><trkpt lat="43.9419844" lon="12.186134"><ele>149.0</ele><time>2026-04-26T09:34:17.98Z</time></trkpt><trkpt lat="43.9421995" lon="12.1862014"><ele>149.0</ele><time>2026-04-26T09:34:18.994Z</time></trkpt><trkpt lat="43.9424141" lon="12.1862644"><ele>149.0</ele><time>2026-04-26T09:34:19.989Z</time></trkpt><trkpt lat="43.9426303" lon="12.1863287"><ele>149.0</ele><time>2026-04-26T09:34:20.981Z</time></trkpt><trkpt lat="43.9428412" lon="12.1863918"><ele>149.33333333333331</ele><time>2026-04-26T09:34:21.991Z</time></trkpt><trkpt lat="43.9430491" lon="12.1864564"><ele>149.66666666666666</ele><time>2026-04-26T09:34:22.987Z</time></trkpt><trkpt lat="43.9432595" lon="12.1865203"><ele>150.0</ele><time>2026-04-26T09:34:23.998Z</time></trkpt><trkpt lat="43.9434749" lon="12.1865849"><ele>146.66666666666666</ele><time>2026-04-26T09:34:24.986Z</time></trkpt><trkpt lat="43.9436883" lon="12.1866509"><ele>143.33333333333331</ele><time>2026-04-26T09:34:25.987Z</time></trkpt><trkpt lat="43.9439023" lon="12.1867213"><ele>140.0</ele><time>2026-04-26T09:34:26.986Z</time></trkpt><trkpt lat="43.9441171" lon="12.1867808"><ele>140.0</ele><time>2026-04-26T09:34:27.986Z</time></trkpt><trkpt lat="43.944333" lon="12.1868472"><ele>140.0</ele><time>2026-04-26T09:34:28.992Z</time></trkpt><trkpt lat="43.9445499" lon="12.1869121"><ele>140.0</ele><time>2026-04-26T09:34:29.991Z</time></trkpt><trkpt lat="43.9447686" lon="12.1869764"><ele>140.0</ele><time>2026-04-26T09:34:30.99Z</time></trkpt><trkpt lat="43.9449846" lon="12.1870404"><ele>140.0</ele><time>2026-04-26T09:34:31.993Z</time></trkpt><trkpt lat="43.9451959" lon="12.1871051"><ele>140.0</ele><time>2026-04-26T09:34:32.989Z</time></trkpt><trkpt lat="43.9454069" lon="12.1871721"><ele>141.0</ele><time>2026-04-26T09:34:33.995Z</time></trkpt><trkpt lat="43.945621" lon="12.1872408"><ele>142.0</ele><time>2026-04-26T09:34:34.995Z</time></trkpt><trkpt lat="43.9458369" lon="12.1873191"><ele>143.0</ele><time>2026-04-26T09:34:35.987Z</time></trkpt><trkpt lat="43.9460484" lon="12.1874068"><ele>144.33333333333331</ele><time>2026-04-26T09:34:36.985Z</time></trkpt><trkpt lat="43.9462581" lon="12.1874999"><ele>145.66666666666666</ele><time>2026-04-26T09:34:37.999Z</time></trkpt><trkpt lat="43.9464693" lon="12.187603"><ele>147.0</ele><time>2026-04-26T09:34:39.001Z</time></trkpt><trkpt lat="43.9466751" lon="12.1877079"><ele>156.33333333333334</ele><time>2026-04-26T09:34:39.989Z</time></trkpt><trkpt lat="43.9468787" lon="12.1878238"><ele>165.66666666666669</ele><time>2026-04-26T09:34:40.992Z</time></trkpt><trkpt lat="43.9470805" lon="12.1879453"><ele>175.0</ele><time>2026-04-26T09:34:41.992Z</time></trkpt><trkpt lat="43.947283" lon="12.1880708"><ele>180.0</ele><time>2026-04-26T09:34:42.994Z</time></trkpt><trkpt lat="43.9474809" lon="12.188205"><ele>185.0</ele><time>2026-04-26T09:34:43.981Z</time></trkpt><trkpt lat="43.9476785" lon="12.1883439"><ele>190.0</ele><time>2026-04-26T09:34:44.99Z</time></trkpt><trkpt lat="43.9478692" lon="12.1884899"><ele>191.0</ele><time>2026-04-26T09:34:45.993Z</time></trkpt><trkpt lat="43.9480597" lon="12.1886442"><ele>192.0</ele><time>2026-04-26T09:34:46.99Z</time></trkpt><trkpt lat="43.9482436" lon="12.1888094"><ele>193.0</ele><time>2026-04-26T09:34:47.994Z</time></trkpt><trkpt lat="43.9484308" lon="12.1889732"><ele>193.66666666666666</ele><time>2026-04-26T09:34:48.989Z</time></trkpt><trkpt lat="43.9486073" lon="12.1891519"><ele>194.33333333333331</ele><time>2026-04-26T09:34:49.992Z</time></trkpt><trkpt lat="43.9487863" lon="12.1893365"><ele>195.0</ele><time>2026-04-26T09:34:50.987Z</time></trkpt><trkpt lat="43.9489607" lon="12.1895267"><ele>195.0</ele><time>2026-04-26T09:34:51.99Z</time></trkpt><trkpt lat="43.9491324" lon="12.1897266"><ele>195.0</ele><time>2026-04-26T09:34:52.987Z</time></trkpt><trkpt lat="43.9493027" lon="12.1899299"><ele>195.0</ele><time>2026-04-26T09:34:53.995Z</time></trkpt><trkpt lat="43.9494695" lon="12.1901365"><ele>194.33333333333331</ele><time>2026-04-26T09:34:54.999Z</time></trkpt><trkpt lat="43.949628" lon="12.1903481"><ele>193.66666666666666</ele><time>2026-04-26T09:34:55.993Z</time></trkpt><trkpt lat="43.9497824" lon="12.1905668"><ele>193.0</ele><time>2026-04-26T09:34:56.99Z</time></trkpt><trkpt lat="43.9499367" lon="12.1907853"><ele>192.66666666666666</ele><time>2026-04-26T09:34:57.991Z</time></trkpt><trkpt lat="43.9500866" lon="12.1910126"><ele>192.33333333333331</ele><time>2026-04-26T09:34:58.988Z</time></trkpt><trkpt lat="43.9502342" lon="12.191241"><ele>192.0</ele><time>2026-04-26T09:34:59.986Z</time></trkpt><trkpt lat="43.9503772" lon="12.191476"><ele>191.66666666666666</ele><time>2026-04-26T09:35:00.988Z</time></trkpt><trkpt lat="43.9505222" lon="12.1917051"><ele>191.33333333333331</ele><time>2026-04-26T09:35:01.986Z</time></trkpt><trkpt lat="43.9506719" lon="12.1919319"><ele>191.0</ele><time>2026-04-26T09:35:02.995Z</time></trkpt><trkpt lat="43.9508255" lon="12.1921533"><ele>189.66666666666666</ele><time>2026-04-26T09:35:03.997Z</time></trkpt><trkpt lat="43.9509811" lon="12.1923743"><ele>188.33333333333334</ele><time>2026-04-26T09:35:04.988Z</time></trkpt><trkpt lat="43.9511279" lon="12.1926052"><ele>187.0</ele><time>2026-04-26T09:35:05.996Z</time></trkpt><trkpt lat="43.9512684" lon="12.1928396"><ele>187.0</ele><time>2026-04-26T09:35:06.995Z</time></trkpt><trkpt lat="43.9514092" lon="12.1930738"><ele>187.0</ele><time>2026-04-26T09:35:07.993Z</time></trkpt><trkpt lat="43.9515533" lon="12.1933064"><ele>187.0</ele><time>2026-04-26T09:35:08.99Z</time></trkpt><trkpt lat="43.951698" lon="12.1935398"><ele>186.33333333333334</ele><time>2026-04-26T09:35:09.993Z</time></trkpt><trkpt lat="43.951839" lon="12.1937709"><ele>185.66666666666666</ele><time>2026-04-26T09:35:10.991Z</time></trkpt><trkpt lat="43.9519815" lon="12.1940035"><ele>185.0</ele><time>2026-04-26T09:35:12.008Z</time></trkpt><trkpt lat="43.9521272" lon="12.1942304"><ele>185.0</ele><time>2026-04-26T09:35:12.994Z</time></trkpt><trkpt lat="43.9522678" lon="12.1944598"><ele>185.0</ele><time>2026-04-26T09:35:13.995Z</time></trkpt><trkpt lat="43.952408" lon="12.1946884"><ele>185.0</ele><time>2026-04-26T09:35:14.989Z</time></trkpt><trkpt lat="43.9525481" lon="12.1949163"><ele>179.33333333333331</ele><time>2026-04-26T09:35:15.994Z</time></trkpt><trkpt lat="43.9526811" lon="12.1951385"><ele>173.66666666666666</ele><time>2026-04-26T09:35:16.991Z</time></trkpt><trkpt lat="43.9528079" lon="12.1953412"><ele>168.0</ele><time>2026-04-26T09:35:17.993Z</time></trkpt><trkpt lat="43.9529235" lon="12.1955245"><ele>169.66666666666666</ele><time>2026-04-26T09:35:18.981Z</time></trkpt><trkpt lat="43.953032" lon="12.1956903"><ele>171.33333333333331</ele><time>2026-04-26T09:35:20.002Z</time></trkpt><trkpt lat="43.9531349" lon="12.1958394"><ele>173.0</ele><time>2026-04-26T09:35:20.987Z</time></trkpt><trkpt lat="43.9532425" lon="12.1959844"><ele>173.0</ele><time>2026-04-26T09:35:22.003Z</time></trkpt><trkpt lat="43.9533495" lon="12.1961358"><ele>173.0</ele><time>2026-04-26T09:35:22.995Z</time></trkpt><trkpt lat="43.9534638" lon="12.1963042"><ele>173.0</ele><time>2026-04-26T09:35:23.999Z</time></trkpt><trkpt lat="43.9535778" lon="12.1964843"><ele>174.33333333333331</ele><time>2026-04-26T09:35:24.992Z</time></trkpt><trkpt lat="43.9536843" lon="12.1966615"><ele>175.66666666666666</ele><time>2026-04-26T09:35:26.001Z</time></trkpt><trkpt lat="43.9537835" lon="12.1968319"><ele>177.0</ele><time>2026-04-26T09:35:26.993Z</time></trkpt><trkpt lat="43.9538866" lon="12.1970001"><ele>177.0</ele><time>2026-04-26T09:35:27.989Z</time></trkpt><trkpt lat="43.953992" lon="12.1971678"><ele>177.0</ele><time>2026-04-26T09:35:28.999Z</time></trkpt><trkpt lat="43.9540978" lon="12.197336"><ele>177.0</ele><time>2026-04-26T09:35:29.991Z</time></trkpt><trkpt lat="43.9542021" lon="12.197503"><ele>176.33333333333334</ele><time>2026-04-26T09:35:30.992Z</time></trkpt><trkpt lat="43.9543038" lon="12.1976759"><ele>175.66666666666669</ele><time>2026-04-26T09:35:31.983Z</time></trkpt><trkpt lat="43.9544162" lon="12.1978472"><ele>175.0</ele><time>2026-04-26T09:35:32.988Z</time></trkpt><trkpt lat="43.9545364" lon="12.1980145"><ele>177.66666666666669</ele><time>2026-04-26T09:35:33.992Z</time></trkpt><trkpt lat="43.9546636" lon="12.1981829"><ele>180.33333333333334</ele><time>2026-04-26T09:35:34.988Z</time></trkpt><trkpt lat="43.9547972" lon="12.1983419"><ele>183.0</ele><time>2026-04-26T09:35:35.996Z</time></trkpt><trkpt lat="43.9549376" lon="12.1985031"><ele>180.66666666666666</ele><time>2026-04-26T09:35:37.007Z</time></trkpt><trkpt lat="43.9550886" lon="12.1986618"><ele>178.33333333333331</ele><time>2026-04-26T09:35:37.986Z</time></trkpt><trkpt lat="43.9552463" lon="12.1988198"><ele>176.0</ele><time>2026-04-26T09:35:38.986Z</time></trkpt><trkpt lat="43.9554098" lon="12.1989718"><ele>180.0</ele><time>2026-04-26T09:35:39.989Z</time></trkpt><trkpt lat="43.9555743" lon="12.1991189"><ele>184.0</ele><time>2026-04-26T09:35:40.982Z</time></trkpt><trkpt lat="43.9561058" lon="12.1995037"><ele>176.66666666666669</ele><time>2026-04-26T09:35:43.994Z</time></trkpt><trkpt lat="43.9562904" lon="12.1996046"><ele>169.33333333333334</ele><time>2026-04-26T09:35:44.989Z</time></trkpt><trkpt lat="43.9564808" lon="12.1997061"><ele>162.0</ele><time>2026-04-26T09:35:45.991Z</time></trkpt><trkpt lat="43.9566821" lon="12.1997964"><ele>163.66666666666666</ele><time>2026-04-26T09:35:46.994Z</time></trkpt><trkpt lat="43.9568841" lon="12.1998776"><ele>165.33333333333331</ele><time>2026-04-26T09:35:47.99Z</time></trkpt><trkpt lat="43.9570884" lon="12.1999556"><ele>167.0</ele><time>2026-04-26T09:35:48.986Z</time></trkpt><trkpt lat="43.9572873" lon="12.2000159"><ele>167.0</ele><time>2026-04-26T09:35:49.999Z</time></trkpt><trkpt lat="43.9574789" lon="12.2000623"><ele>167.0</ele><time>2026-04-26T09:35:50.985Z</time></trkpt><trkpt lat="43.9576639" lon="12.2001007"><ele>167.0</ele><time>2026-04-26T09:35:51.987Z</time></trkpt><trkpt lat="43.9578507" lon="12.2001423"><ele>166.0</ele><time>2026-04-26T09:35:52.989Z</time></trkpt><trkpt lat="43.9580322" lon="12.2001787"><ele>165.0</ele><time>2026-04-26T09:35:53.989Z</time></trkpt><trkpt lat="43.9582086" lon="12.2002155"><ele>164.0</ele><time>2026-04-26T09:35:54.985Z</time></trkpt><trkpt lat="43.9583804" lon="12.200252"><ele>162.66666666666666</ele><time>2026-04-26T09:35:55.99Z</time></trkpt><trkpt lat="43.9585585" lon="12.2002976"><ele>161.33333333333334</ele><time>2026-04-26T09:35:56.981Z</time></trkpt><trkpt lat="43.9587393" lon="12.200354"><ele>160.0</ele><time>2026-04-26T09:35:57.99Z</time></trkpt><trkpt lat="43.9589207" lon="12.2004206"><ele>160.0</ele><time>2026-04-26T09:35:58.987Z</time></trkpt><trkpt lat="43.9591225" lon="12.2004802"><ele>160.0</ele><time>2026-04-26T09:35:59.985Z</time></trkpt><trkpt lat="43.959344" lon="12.200532"><ele>160.0</ele><time>2026-04-26T09:36:00.99Z</time></trkpt><trkpt lat="43.9595866" lon="12.2005822"><ele>159.0</ele><time>2026-04-26T09:36:01.996Z</time></trkpt><trkpt lat="43.9598467" lon="12.2006506"><ele>158.0</ele><time>2026-04-26T09:36:02.987Z</time></trkpt><trkpt lat="43.9601193" lon="12.2007423"><ele>158.0</ele><time>2026-04-26T09:36:03.992Z</time></trkpt><trkpt lat="43.9603876" lon="12.200846"><ele>158.0</ele><time>2026-04-26T09:36:04.983Z</time></trkpt><trkpt lat="43.9606505" lon="12.2009642"><ele>157.0</ele><time>2026-04-26T09:36:05.989Z</time></trkpt><trkpt lat="43.9609056" lon="12.2010906"><ele>156.0</ele><time>2026-04-26T09:36:06.99Z</time></trkpt><trkpt lat="43.9611602" lon="12.2012194"><ele>156.0</ele><time>2026-04-26T09:36:07.994Z</time></trkpt><trkpt lat="43.9614105" lon="12.2013525"><ele>156.0</ele><time>2026-04-26T09:36:08.993Z</time></trkpt><trkpt lat="43.961658" lon="12.2014921"><ele>153.5</ele><time>2026-04-26T09:36:09.993Z</time></trkpt><trkpt lat="43.9619053" lon="12.2016272"><ele>151.0</ele><time>2026-04-26T09:36:11.005Z</time></trkpt><trkpt lat="43.9621491" lon="12.2017613"><ele>151.0</ele><time>2026-04-26T09:36:11.992Z</time></trkpt><trkpt lat="43.9623832" lon="12.201889"><ele>151.0</ele><time>2026-04-26T09:36:12.989Z</time></trkpt><trkpt lat="43.9626023" lon="12.2020122"><ele>142.0</ele><time>2026-04-26T09:36:13.995Z</time></trkpt><trkpt lat="43.9628159" lon="12.2021221"><ele>133.0</ele><time>2026-04-26T09:36:14.987Z</time></trkpt><trkpt lat="43.9630303" lon="12.20223"><ele>137.0</ele><time>2026-04-26T09:36:15.994Z</time></trkpt><trkpt lat="43.9632465" lon="12.202349"><ele>141.0</ele><time>2026-04-26T09:36:16.992Z</time></trkpt><trkpt lat="43.9634659" lon="12.2024673"><ele>141.0</ele><time>2026-04-26T09:36:17.989Z</time></trkpt><trkpt lat="43.9636892" lon="12.2025763"><ele>141.0</ele><time>2026-04-26T09:36:18.993Z</time></trkpt><trkpt lat="43.9639129" lon="12.2026725"><ele>141.0</ele><time>2026-04-26T09:36:19.991Z</time></trkpt><trkpt lat="43.9641482" lon="12.202761"><ele>141.0</ele><time>2026-04-26T09:36:21.002Z</time></trkpt><trkpt lat="43.9643821" lon="12.2028314"><ele>139.5</ele><time>2026-04-26T09:36:21.988Z</time></trkpt><trkpt lat="43.9646195" lon="12.2028873"><ele>138.0</ele><time>2026-04-26T09:36:22.987Z</time></trkpt><trkpt lat="43.9648558" lon="12.2029283"><ele>132.0</ele><time>2026-04-26T09:36:23.983Z</time></trkpt><trkpt lat="43.9650924" lon="12.2029551"><ele>126.0</ele><time>2026-04-26T09:36:24.986Z</time></trkpt><trkpt lat="43.9653282" lon="12.2029709"><ele>126.0</ele><time>2026-04-26T09:36:25.988Z</time></trkpt><trkpt lat="43.965565" lon="12.2029838"><ele>126.0</ele><time>2026-04-26T09:36:26.989Z</time></trkpt><trkpt lat="43.9657994" lon="12.2029938"><ele>127.0</ele><time>2026-04-26T09:36:27.989Z</time></trkpt><trkpt lat="43.9660333" lon="12.2030008"><ele>128.0</ele><time>2026-04-26T09:36:28.993Z</time></trkpt><trkpt lat="43.9662702" lon="12.2029938"><ele>128.0</ele><time>2026-04-26T09:36:29.996Z</time></trkpt><trkpt lat="43.9664993" lon="12.2029903"><ele>128.0</ele><time>2026-04-26T09:36:30.984Z</time></trkpt><trkpt lat="43.966716" lon="12.2029959"><ele>128.0</ele><time>2026-04-26T09:36:31.992Z</time></trkpt><trkpt lat="43.9669249" lon="12.2030024"><ele>128.0</ele><time>2026-04-26T09:36:32.984Z</time></trkpt><trkpt lat="43.9671389" lon="12.203002"><ele>128.0</ele><time>2026-04-26T09:36:33.983Z</time></trkpt><trkpt lat="43.967358" lon="12.2030016"><ele>128.0</ele><time>2026-04-26T09:36:34.984Z</time></trkpt><trkpt lat="43.9675837" lon="12.2029994"><ele>126.5</ele><time>2026-04-26T09:36:35.986Z</time></trkpt><trkpt lat="43.9678095" lon="12.2030058"><ele>125.0</ele><time>2026-04-26T09:36:36.994Z</time></trkpt><trkpt lat="43.9680359" lon="12.2030091"><ele>125.0</ele><time>2026-04-26T09:36:37.983Z</time></trkpt><trkpt lat="43.9682618" lon="12.2030138"><ele>125.0</ele><time>2026-04-26T09:36:38.982Z</time></trkpt><trkpt lat="43.9684856" lon="12.2030143"><ele>124.0</ele><time>2026-04-26T09:36:39.984Z</time></trkpt><trkpt lat="43.9687087" lon="12.2030249"><ele>123.0</ele><time>2026-04-26T09:36:40.986Z</time></trkpt><trkpt lat="43.9689356" lon="12.2030279"><ele>123.0</ele><time>2026-04-26T09:36:41.99Z</time></trkpt><trkpt lat="43.9691585" lon="12.2030324"><ele>123.0</ele><time>2026-04-26T09:36:42.985Z</time></trkpt><trkpt lat="43.9693828" lon="12.2030397"><ele>123.0</ele><time>2026-04-26T09:36:43.986Z</time></trkpt><trkpt lat="43.9696086" lon="12.2030475"><ele>122.66666666666666</ele><time>2026-04-26T09:36:44.98Z</time></trkpt><trkpt lat="43.9698325" lon="12.203056"><ele>122.33333333333333</ele><time>2026-04-26T09:36:45.984Z</time></trkpt><trkpt lat="43.9700534" lon="12.203071"><ele>122.0</ele><time>2026-04-26T09:36:46.995Z</time></trkpt><trkpt lat="43.9702762" lon="12.2030874"><ele>122.0</ele><time>2026-04-26T09:36:47.987Z</time></trkpt><trkpt lat="43.9705" lon="12.2031099"><ele>122.0</ele><time>2026-04-26T09:36:48.985Z</time></trkpt><trkpt lat="43.9707206" lon="12.2031352"><ele>122.0</ele><time>2026-04-26T09:36:49.993Z</time></trkpt><trkpt lat="43.9709409" lon="12.2031694"><ele>120.33333333333333</ele><time>2026-04-26T09:36:50.995Z</time></trkpt><trkpt lat="43.971163" lon="12.2032046"><ele>118.66666666666666</ele><time>2026-04-26T09:36:51.988Z</time></trkpt><trkpt lat="43.9713805" lon="12.2032431"><ele>117.0</ele><time>2026-04-26T09:36:52.985Z</time></trkpt><trkpt lat="43.9716037" lon="12.2032897"><ele>117.66666666666666</ele><time>2026-04-26T09:36:53.995Z</time></trkpt><trkpt lat="43.9718267" lon="12.2033372"><ele>118.33333333333333</ele><time>2026-04-26T09:36:54.986Z</time></trkpt><trkpt lat="43.9720444" lon="12.2033876"><ele>119.0</ele><time>2026-04-26T09:36:55.992Z</time></trkpt><trkpt lat="43.9722633" lon="12.2034358"><ele>119.0</ele><time>2026-04-26T09:36:56.986Z</time></trkpt><trkpt lat="43.9724866" lon="12.2034806"><ele>119.0</ele><time>2026-04-26T09:36:57.995Z</time></trkpt><trkpt lat="43.9727094" lon="12.2035253"><ele>120.5</ele><time>2026-04-26T09:36:58.991Z</time></trkpt><trkpt lat="43.9729315" lon="12.2035703"><ele>122.0</ele><time>2026-04-26T09:36:59.992Z</time></trkpt><trkpt lat="43.9731544" lon="12.203619"><ele>122.66666666666666</ele><time>2026-04-26T09:37:00.994Z</time></trkpt><trkpt lat="43.9733734" lon="12.2036695"><ele>123.33333333333334</ele><time>2026-04-26T09:37:01.988Z</time></trkpt><trkpt lat="43.9735933" lon="12.203717"><ele>124.0</ele><time>2026-04-26T09:37:02.987Z</time></trkpt><trkpt lat="43.9738092" lon="12.2037628"><ele>124.0</ele><time>2026-04-26T09:37:03.989Z</time></trkpt><trkpt lat="43.9740263" lon="12.2038073"><ele>124.0</ele><time>2026-04-26T09:37:04.995Z</time></trkpt><trkpt lat="43.9742475" lon="12.2038546"><ele>124.0</ele><time>2026-04-26T09:37:06.01Z</time></trkpt><trkpt lat="43.9744681" lon="12.2038996"><ele>120.66666666666667</ele><time>2026-04-26T09:37:06.998Z</time></trkpt><trkpt lat="43.9746886" lon="12.2039433"><ele>117.33333333333334</ele><time>2026-04-26T09:37:07.989Z</time></trkpt><trkpt lat="43.9749065" lon="12.2039942"><ele>114.0</ele><time>2026-04-26T09:37:08.985Z</time></trkpt><trkpt lat="43.9751291" lon="12.2040446"><ele>113.0</ele><time>2026-04-26T09:37:09.989Z</time></trkpt><trkpt lat="43.9753493" lon="12.2040955"><ele>112.0</ele><time>2026-04-26T09:37:10.987Z</time></trkpt><trkpt lat="43.9755675" lon="12.2041465"><ele>111.0</ele><time>2026-04-26T09:37:11.997Z</time></trkpt><trkpt lat="43.9757857" lon="12.2041969"><ele>111.66666666666666</ele><time>2026-04-26T09:37:12.992Z</time></trkpt><trkpt lat="43.9760034" lon="12.204242"><ele>112.33333333333333</ele><time>2026-04-26T09:37:13.999Z</time></trkpt><trkpt lat="43.9762236" lon="12.2042904"><ele>113.0</ele><time>2026-04-26T09:37:14.989Z</time></trkpt><trkpt lat="43.9764441" lon="12.2043369"><ele>113.0</ele><time>2026-04-26T09:37:15.99Z</time></trkpt><trkpt lat="43.9766676" lon="12.2043819"><ele>113.0</ele><time>2026-04-26T09:37:16.994Z</time></trkpt><trkpt lat="43.9768827" lon="12.2044312"><ele>113.0</ele><time>2026-04-26T09:37:17.996Z</time></trkpt><trkpt lat="43.9771019" lon="12.2044787"><ele>113.33333333333333</ele><time>2026-04-26T09:37:18.996Z</time></trkpt><trkpt lat="43.9773188" lon="12.204527"><ele>113.66666666666666</ele><time>2026-04-26T09:37:19.994Z</time></trkpt><trkpt lat="43.977542" lon="12.204575"><ele>114.0</ele><time>2026-04-26T09:37:20.992Z</time></trkpt><trkpt lat="43.9777601" lon="12.2046261"><ele>113.0</ele><time>2026-04-26T09:37:21.994Z</time></trkpt><trkpt lat="43.9779774" lon="12.2046798"><ele>112.0</ele><time>2026-04-26T09:37:22.993Z</time></trkpt><trkpt lat="43.9781967" lon="12.2047254"><ele>111.0</ele><time>2026-04-26T09:37:23.991Z</time></trkpt><trkpt lat="43.9784165" lon="12.2047734"><ele>110.66666666666666</ele><time>2026-04-26T09:37:24.984Z</time></trkpt><trkpt lat="43.9786385" lon="12.2048221"><ele>110.33333333333333</ele><time>2026-04-26T09:37:25.99Z</time></trkpt><trkpt lat="43.9788588" lon="12.2048709"><ele>110.0</ele><time>2026-04-26T09:37:26.985Z</time></trkpt><trkpt lat="43.9790836" lon="12.2049174"><ele>109.33333333333333</ele><time>2026-04-26T09:37:27.994Z</time></trkpt><trkpt lat="43.9793031" lon="12.2049662"><ele>108.66666666666666</ele><time>2026-04-26T09:37:28.991Z</time></trkpt><trkpt lat="43.979525" lon="12.2050081"><ele>108.0</ele><time>2026-04-26T09:37:29.993Z</time></trkpt><trkpt lat="43.9797462" lon="12.2050514"><ele>108.0</ele><time>2026-04-26T09:37:30.991Z</time></trkpt><trkpt lat="43.9799684" lon="12.2050997"><ele>108.0</ele><time>2026-04-26T09:37:32Z</time></trkpt><trkpt lat="43.9801886" lon="12.2051468"><ele>108.0</ele><time>2026-04-26T09:37:33.009Z</time></trkpt><trkpt lat="43.9804086" lon="12.2051986"><ele>108.33333333333334</ele><time>2026-04-26T09:37:33.985Z</time></trkpt><trkpt lat="43.9806271" lon="12.2052482"><ele>108.66666666666667</ele><time>2026-04-26T09:37:35.002Z</time></trkpt><trkpt lat="43.9808455" lon="12.2052922"><ele>109.0</ele><time>2026-04-26T09:37:35.992Z</time></trkpt><trkpt lat="43.9810652" lon="12.2053345"><ele>109.0</ele><time>2026-04-26T09:37:36.984Z</time></trkpt><trkpt lat="43.981287" lon="12.2053729"><ele>109.0</ele><time>2026-04-26T09:37:38Z</time></trkpt><trkpt lat="43.9815119" lon="12.2054081"><ele>108.33333333333334</ele><time>2026-04-26T09:37:38.99Z</time></trkpt><trkpt lat="43.981732" lon="12.2054402"><ele>107.66666666666666</ele><time>2026-04-26T09:37:40.009Z</time></trkpt><trkpt lat="43.9819529" lon="12.2054578"><ele>107.0</ele><time>2026-04-26T09:37:41Z</time></trkpt><trkpt lat="43.9821779" lon="12.2054689"><ele>107.0</ele><time>2026-04-26T09:37:41.989Z</time></trkpt><trkpt lat="43.9824007" lon="12.2054674"><ele>107.0</ele><time>2026-04-26T09:37:42.985Z</time></trkpt><trkpt lat="43.9826263" lon="12.2054635"><ele>107.0</ele><time>2026-04-26T09:37:43.991Z</time></trkpt><trkpt lat="43.9828497" lon="12.2054578"><ele>107.33333333333333</ele><time>2026-04-26T09:37:44.987Z</time></trkpt><trkpt lat="43.9830721" lon="12.2054508"><ele>107.66666666666666</ele><time>2026-04-26T09:37:45.991Z</time></trkpt><trkpt lat="43.9832974" lon="12.2054414"><ele>108.0</ele><time>2026-04-26T09:37:47.002Z</time></trkpt><trkpt lat="43.9835215" lon="12.2054353"><ele>107.0</ele><time>2026-04-26T09:37:47.992Z</time></trkpt><trkpt lat="43.9837463" lon="12.205426"><ele>106.0</ele><time>2026-04-26T09:37:48.985Z</time></trkpt><trkpt lat="43.9839682" lon="12.205416"><ele>105.0</ele><time>2026-04-26T09:37:49.99Z</time></trkpt><trkpt lat="43.9841918" lon="12.205408"><ele>104.66666666666666</ele><time>2026-04-26T09:37:50.984Z</time></trkpt><trkpt lat="43.9844135" lon="12.205403"><ele>104.33333333333333</ele><time>2026-04-26T09:37:51.991Z</time></trkpt><trkpt lat="43.9846372" lon="12.2053967"><ele>104.0</ele><time>2026-04-26T09:37:52.988Z</time></trkpt><trkpt lat="43.9848552" lon="12.2053967"><ele>104.66666666666666</ele><time>2026-04-26T09:37:53.988Z</time></trkpt><trkpt lat="43.9850763" lon="12.2053894"><ele>105.33333333333334</ele><time>2026-04-26T09:37:54.985Z</time></trkpt><trkpt lat="43.9853" lon="12.2053814"><ele>106.0</ele><time>2026-04-26T09:37:55.984Z</time></trkpt><trkpt lat="43.9855233" lon="12.2053686"><ele>106.0</ele><time>2026-04-26T09:37:56.994Z</time></trkpt><trkpt lat="43.9857492" lon="12.2053593"><ele>106.0</ele><time>2026-04-26T09:37:57.989Z</time></trkpt><trkpt lat="43.9859701" lon="12.2053502"><ele>106.0</ele><time>2026-04-26T09:37:58.993Z</time></trkpt><trkpt lat="43.9861909" lon="12.2053372"><ele>106.33333333333334</ele><time>2026-04-26T09:37:59.991Z</time></trkpt><trkpt lat="43.9864174" lon="12.2053231"><ele>106.66666666666666</ele><time>2026-04-26T09:38:00.994Z</time></trkpt><trkpt lat="43.9866396" lon="12.2053147"><ele>107.0</ele><time>2026-04-26T09:38:02.006Z</time></trkpt><trkpt lat="43.986863" lon="12.2053066"><ele>106.33333333333333</ele><time>2026-04-26T09:38:02.991Z</time></trkpt><trkpt lat="43.9870847" lon="12.2052944"><ele>105.66666666666666</ele><time>2026-04-26T09:38:03.99Z</time></trkpt><trkpt lat="43.9873075" lon="12.205277"><ele>105.0</ele><time>2026-04-26T09:38:04.989Z</time></trkpt><trkpt lat="43.9875305" lon="12.2052584"><ele>104.0</ele><time>2026-04-26T09:38:05.983Z</time></trkpt><trkpt lat="43.9877555" lon="12.2052391"><ele>103.0</ele><time>2026-04-26T09:38:06.983Z</time></trkpt><trkpt lat="43.9879802" lon="12.2052163"><ele>103.0</ele><time>2026-04-26T09:38:07.991Z</time></trkpt><trkpt lat="43.9882042" lon="12.2051915"><ele>103.0</ele><time>2026-04-26T09:38:08.994Z</time></trkpt><trkpt lat="43.9884265" lon="12.205164"><ele>103.0</ele><time>2026-04-26T09:38:09.994Z</time></trkpt><trkpt lat="43.9886494" lon="12.2051356"><ele>102.0</ele><time>2026-04-26T09:38:10.993Z</time></trkpt><trkpt lat="43.9888701" lon="12.2051007"><ele>101.0</ele><time>2026-04-26T09:38:11.994Z</time></trkpt><trkpt lat="43.9890897" lon="12.2050653"><ele>100.0</ele><time>2026-04-26T09:38:12.988Z</time></trkpt><trkpt lat="43.9893134" lon="12.2050345"><ele>98.33333333333334</ele><time>2026-04-26T09:38:13.998Z</time></trkpt><trkpt lat="43.989535" lon="12.205005"><ele>96.66666666666667</ele><time>2026-04-26T09:38:14.989Z</time></trkpt><trkpt lat="43.9897598" lon="12.2049763"><ele>95.0</ele><time>2026-04-26T09:38:15.988Z</time></trkpt><trkpt lat="43.9899774" lon="12.2049445"><ele>95.66666666666667</ele><time>2026-04-26T09:38:16.986Z</time></trkpt><trkpt lat="43.9901998" lon="12.2049144"><ele>96.33333333333334</ele><time>2026-04-26T09:38:17.99Z</time></trkpt><trkpt lat="43.9904224" lon="12.204881"><ele>97.0</ele><time>2026-04-26T09:38:18.993Z</time></trkpt><trkpt lat="43.9906411" lon="12.2048525"><ele>97.0</ele><time>2026-04-26T09:38:19.99Z</time></trkpt><trkpt lat="43.9908636" lon="12.2048176"><ele>97.0</ele><time>2026-04-26T09:38:20.985Z</time></trkpt><trkpt lat="43.9910859" lon="12.2047871"><ele>97.0</ele><time>2026-04-26T09:38:21.997Z</time></trkpt><trkpt lat="43.9913094" lon="12.2047511"><ele>97.0</ele><time>2026-04-26T09:38:22.998Z</time></trkpt><trkpt lat="43.9915301" lon="12.2047127"><ele>97.0</ele><time>2026-04-26T09:38:23.999Z</time></trkpt><trkpt lat="43.9917547" lon="12.2046798"><ele>97.0</ele><time>2026-04-26T09:38:24.993Z</time></trkpt><trkpt lat="43.9919726" lon="12.2046497"><ele>97.0</ele><time>2026-04-26T09:38:25.986Z</time></trkpt><trkpt lat="43.9921933" lon="12.2046194"><ele>97.0</ele><time>2026-04-26T09:38:27.002Z</time></trkpt><trkpt lat="43.9924167" lon="12.2045873"><ele>97.0</ele><time>2026-04-26T09:38:27.988Z</time></trkpt><trkpt lat="43.9926362" lon="12.2045539"><ele>97.0</ele><time>2026-04-26T09:38:28.995Z</time></trkpt><trkpt lat="43.992862" lon="12.2045211"><ele>97.0</ele><time>2026-04-26T09:38:29.993Z</time></trkpt><trkpt lat="43.9930816" lon="12.2044883"><ele>97.0</ele><time>2026-04-26T09:38:30.992Z</time></trkpt><trkpt lat="43.9933039" lon="12.204458"><ele>96.66666666666667</ele><time>2026-04-26T09:38:31.995Z</time></trkpt><trkpt lat="43.993526" lon="12.2044289"><ele>96.33333333333334</ele><time>2026-04-26T09:38:32.99Z</time></trkpt><trkpt lat="43.9937471" lon="12.2043948"><ele>96.0</ele><time>2026-04-26T09:38:33.986Z</time></trkpt><trkpt lat="43.9939656" lon="12.2043635"><ele>95.5</ele><time>2026-04-26T09:38:34.987Z</time></trkpt><trkpt lat="43.9941878" lon="12.2043316"><ele>95.0</ele><time>2026-04-26T09:38:35.986Z</time></trkpt><trkpt lat="43.9944131" lon="12.2042995"><ele>95.0</ele><time>2026-04-26T09:38:36.984Z</time></trkpt><trkpt lat="43.9946374" lon="12.2042618"><ele>95.0</ele><time>2026-04-26T09:38:37.987Z</time></trkpt><trkpt lat="43.9948585" lon="12.2042252"><ele>95.0</ele><time>2026-04-26T09:38:38.991Z</time></trkpt><trkpt lat="43.9950811" lon="12.2041926"><ele>96.33333333333334</ele><time>2026-04-26T09:38:39.999Z</time></trkpt><trkpt lat="43.9953018" lon="12.2041599"><ele>97.66666666666667</ele><time>2026-04-26T09:38:40.99Z</time></trkpt><trkpt lat="43.9955212" lon="12.204127"><ele>99.0</ele><time>2026-04-26T09:38:41.998Z</time></trkpt><trkpt lat="43.9957449" lon="12.2040926"><ele>99.66666666666666</ele><time>2026-04-26T09:38:42.99Z</time></trkpt><trkpt lat="43.9959684" lon="12.2040602"><ele>100.33333333333333</ele><time>2026-04-26T09:38:43.99Z</time></trkpt><trkpt lat="43.9961906" lon="12.2040283"><ele>101.0</ele><time>2026-04-26T09:38:44.986Z</time></trkpt><trkpt lat="43.9964119" lon="12.2039951"><ele>99.66666666666666</ele><time>2026-04-26T09:38:45.987Z</time></trkpt><trkpt lat="43.9966333" lon="12.2039659"><ele>98.33333333333334</ele><time>2026-04-26T09:38:47.009Z</time></trkpt><trkpt lat="43.9968529" lon="12.2039368"><ele>97.0</ele><time>2026-04-26T09:38:47.989Z</time></trkpt><trkpt lat="43.997074" lon="12.2039025"><ele>97.0</ele><time>2026-04-26T09:38:48.988Z</time></trkpt><trkpt lat="43.9972986" lon="12.2038693"><ele>97.0</ele><time>2026-04-26T09:38:50Z</time></trkpt><trkpt lat="43.9975205" lon="12.2038374"><ele>97.0</ele><time>2026-04-26T09:38:50.989Z</time></trkpt><trkpt lat="43.9977432" lon="12.2038146"><ele>96.66666666666667</ele><time>2026-04-26T09:38:51.996Z</time></trkpt><trkpt lat="43.9979652" lon="12.2037942"><ele>96.33333333333334</ele><time>2026-04-26T09:38:52.995Z</time></trkpt><trkpt lat="43.9981847" lon="12.2037744"><ele>96.0</ele><time>2026-04-26T09:38:53.993Z</time></trkpt><trkpt lat="43.9984087" lon="12.2037621"><ele>96.66666666666666</ele><time>2026-04-26T09:38:54.988Z</time></trkpt><trkpt lat="43.9986302" lon="12.2037491"><ele>97.33333333333333</ele><time>2026-04-26T09:38:55.993Z</time></trkpt><trkpt lat="43.9988521" lon="12.2037349"><ele>98.0</ele><time>2026-04-26T09:38:56.987Z</time></trkpt><trkpt lat="43.9990776" lon="12.2037231"><ele>96.66666666666666</ele><time>2026-04-26T09:38:57.993Z</time></trkpt><trkpt lat="43.9993014" lon="12.2037085"><ele>95.33333333333333</ele><time>2026-04-26T09:38:58.992Z</time></trkpt><trkpt lat="43.9995241" lon="12.2037006"><ele>94.0</ele><time>2026-04-26T09:38:59.991Z</time></trkpt><trkpt lat="43.9997479" lon="12.2036872"><ele>94.0</ele><time>2026-04-26T09:39:00.977Z</time></trkpt><trkpt lat="43.9999699" lon="12.2036685"><ele>94.0</ele><time>2026-04-26T09:39:01.996Z</time></trkpt><trkpt lat="44.0001894" lon="12.2036571"><ele>94.0</ele><time>2026-04-26T09:39:02.99Z</time></trkpt><trkpt lat="44.0004128" lon="12.2036371"><ele>94.0</ele><time>2026-04-26T09:39:03.99Z</time></trkpt><trkpt lat="44.0006347" lon="12.203623"><ele>94.0</ele><time>2026-04-26T09:39:04.983Z</time></trkpt><trkpt lat="44.0008573" lon="12.2036055"><ele>94.0</ele><time>2026-04-26T09:39:05.992Z</time></trkpt><trkpt lat="44.0010778" lon="12.2035881"><ele>93.33333333333333</ele><time>2026-04-26T09:39:06.992Z</time></trkpt><trkpt lat="44.0013039" lon="12.2035753"><ele>92.66666666666667</ele><time>2026-04-26T09:39:07.992Z</time></trkpt><trkpt lat="44.001526" lon="12.2035633"><ele>92.0</ele><time>2026-04-26T09:39:08.99Z</time></trkpt><trkpt lat="44.0017509" lon="12.2035472"><ele>91.0</ele><time>2026-04-26T09:39:09.988Z</time></trkpt><trkpt lat="44.0019711" lon="12.2035405"><ele>90.0</ele><time>2026-04-26T09:39:10.984Z</time></trkpt><trkpt lat="44.0021947" lon="12.2035263"><ele>89.0</ele><time>2026-04-26T09:39:11.992Z</time></trkpt><trkpt lat="44.0024181" lon="12.2035166"><ele>89.33333333333334</ele><time>2026-04-26T09:39:12.992Z</time></trkpt><trkpt lat="44.0026409" lon="12.2035061"><ele>89.66666666666667</ele><time>2026-04-26T09:39:13.992Z</time></trkpt><trkpt lat="44.0028643" lon="12.2034924"><ele>90.0</ele><time>2026-04-26T09:39:14.987Z</time></trkpt><trkpt lat="44.0030885" lon="12.2034757"><ele>90.0</ele><time>2026-04-26T09:39:15.997Z</time></trkpt><trkpt lat="44.0033128" lon="12.2034616"><ele>90.0</ele><time>2026-04-26T09:39:16.976Z</time></trkpt><trkpt lat="44.0035366" lon="12.2034475"><ele>90.0</ele><time>2026-04-26T09:39:18Z</time></trkpt><trkpt lat="44.003761" lon="12.2034337"><ele>89.66666666666667</ele><time>2026-04-26T09:39:18.992Z</time></trkpt><trkpt lat="44.0039828" lon="12.203427"><ele>89.33333333333334</ele><time>2026-04-26T09:39:19.997Z</time></trkpt><trkpt lat="44.0042063" lon="12.2034174"><ele>89.0</ele><time>2026-04-26T09:39:20.983Z</time></trkpt><trkpt lat="44.0044302" lon="12.2034023"><ele>89.0</ele><time>2026-04-26T09:39:21.992Z</time></trkpt><trkpt lat="44.0046518" lon="12.2033868"><ele>89.0</ele><time>2026-04-26T09:39:22.992Z</time></trkpt><trkpt lat="44.0048756" lon="12.2033703"><ele>89.0</ele><time>2026-04-26T09:39:23.997Z</time></trkpt><trkpt lat="44.0050969" lon="12.2033536"><ele>88.66666666666667</ele><time>2026-04-26T09:39:24.986Z</time></trkpt><trkpt lat="44.0053185" lon="12.2033372"><ele>88.33333333333333</ele><time>2026-04-26T09:39:25.99Z</time></trkpt><trkpt lat="44.0055387" lon="12.2033237"><ele>88.0</ele><time>2026-04-26T09:39:26.986Z</time></trkpt><trkpt lat="44.0057611" lon="12.2033187"><ele>88.0</ele><time>2026-04-26T09:39:27.993Z</time></trkpt><trkpt lat="44.0059811" lon="12.2033059"><ele>88.0</ele><time>2026-04-26T09:39:28.982Z</time></trkpt><trkpt lat="44.0062031" lon="12.2032957"><ele>88.0</ele><time>2026-04-26T09:39:29.991Z</time></trkpt><trkpt lat="44.0064254" lon="12.2032852"><ele>88.0</ele><time>2026-04-26T09:39:30.985Z</time></trkpt><trkpt lat="44.0066457" lon="12.203271"><ele>88.0</ele><time>2026-04-26T09:39:31.988Z</time></trkpt><trkpt lat="44.0068662" lon="12.2032598"><ele>88.0</ele><time>2026-04-26T09:39:32.985Z</time></trkpt><trkpt lat="44.0070902" lon="12.2032419"><ele>88.33333333333333</ele><time>2026-04-26T09:39:33.991Z</time></trkpt><trkpt lat="44.0073133" lon="12.2032233"><ele>88.66666666666667</ele><time>2026-04-26T09:39:34.987Z</time></trkpt><trkpt lat="44.0075383" lon="12.2032106"><ele>89.0</ele><time>2026-04-26T09:39:35.991Z</time></trkpt><trkpt lat="44.0077621" lon="12.2032009"><ele>88.33333333333334</ele><time>2026-04-26T09:39:36.986Z</time></trkpt><trkpt lat="44.0079846" lon="12.2031842"><ele>87.66666666666667</ele><time>2026-04-26T09:39:37.992Z</time></trkpt><trkpt lat="44.0082082" lon="12.2031718"><ele>87.0</ele><time>2026-04-26T09:39:38.988Z</time></trkpt><trkpt lat="44.0084303" lon="12.2031592"><ele>87.0</ele><time>2026-04-26T09:39:39.991Z</time></trkpt><trkpt lat="44.0086542" lon="12.2031478"><ele>87.0</ele><time>2026-04-26T09:39:40.981Z</time></trkpt><trkpt lat="44.0088764" lon="12.2031371"><ele>87.0</ele><time>2026-04-26T09:39:41.984Z</time></trkpt><trkpt lat="44.009099" lon="12.2031195"><ele>86.66666666666667</ele><time>2026-04-26T09:39:42.988Z</time></trkpt><trkpt lat="44.0093225" lon="12.2031065"><ele>86.33333333333334</ele><time>2026-04-26T09:39:44Z</time></trkpt><trkpt lat="44.009548" lon="12.2030979"><ele>86.0</ele><time>2026-04-26T09:39:44.986Z</time></trkpt><trkpt lat="44.0097738" lon="12.2030834"><ele>86.0</ele><time>2026-04-26T09:39:45.984Z</time></trkpt><trkpt lat="44.009995" lon="12.2030736"><ele>86.0</ele><time>2026-04-26T09:39:46.989Z</time></trkpt><trkpt lat="44.0102217" lon="12.203063"><ele>86.0</ele><time>2026-04-26T09:39:47.985Z</time></trkpt><trkpt lat="44.0104465" lon="12.203065"><ele>86.0</ele><time>2026-04-26T09:39:48.986Z</time></trkpt><trkpt lat="44.0106684" lon="12.2030792"><ele>86.0</ele><time>2026-04-26T09:39:49.988Z</time></trkpt><trkpt lat="44.0108884" lon="12.2031026"><ele>86.0</ele><time>2026-04-26T09:39:50.99Z</time></trkpt><trkpt lat="44.0111078" lon="12.2031332"><ele>86.33333333333334</ele><time>2026-04-26T09:39:51.992Z</time></trkpt><trkpt lat="44.0113295" lon="12.2031726"><ele>86.66666666666667</ele><time>2026-04-26T09:39:52.987Z</time></trkpt><trkpt lat="44.0115474" lon="12.203225"><ele>87.0</ele><time>2026-04-26T09:39:53.99Z</time></trkpt><trkpt lat="44.0117712" lon="12.2032848"><ele>87.0</ele><time>2026-04-26T09:39:54.987Z</time></trkpt><trkpt lat="44.011991" lon="12.2033551"><ele>87.0</ele><time>2026-04-26T09:39:55.99Z</time></trkpt><trkpt lat="44.0122079" lon="12.2034387"><ele>87.0</ele><time>2026-04-26T09:39:56.984Z</time></trkpt><trkpt lat="44.0124232" lon="12.203524"><ele>87.0</ele><time>2026-04-26T09:39:57.994Z</time></trkpt><trkpt lat="44.0126359" lon="12.2036181"><ele>87.0</ele><time>2026-04-26T09:39:58.991Z</time></trkpt><trkpt lat="44.0128497" lon="12.2037051"><ele>87.0</ele><time>2026-04-26T09:39:59.991Z</time></trkpt><trkpt lat="44.0130639" lon="12.2037928"><ele>87.0</ele><time>2026-04-26T09:40:00.987Z</time></trkpt><trkpt lat="44.0132762" lon="12.2038791"><ele>87.0</ele><time>2026-04-26T09:40:01.989Z</time></trkpt><trkpt lat="44.0134894" lon="12.203964"><ele>87.0</ele><time>2026-04-26T09:40:02.992Z</time></trkpt><trkpt lat="44.0137009" lon="12.204054"><ele>87.0</ele><time>2026-04-26T09:40:03.99Z</time></trkpt><trkpt lat="44.013913" lon="12.2041425"><ele>87.0</ele><time>2026-04-26T09:40:04.997Z</time></trkpt><trkpt lat="44.0141263" lon="12.2042343"><ele>86.66666666666667</ele><time>2026-04-26T09:40:05.987Z</time></trkpt><trkpt lat="44.0143387" lon="12.204321"><ele>86.33333333333334</ele><time>2026-04-26T09:40:06.993Z</time></trkpt><trkpt lat="44.0145505" lon="12.2044072"><ele>86.0</ele><time>2026-04-26T09:40:07.986Z</time></trkpt><trkpt lat="44.0147623" lon="12.2044921"><ele>86.0</ele><time>2026-04-26T09:40:08.992Z</time></trkpt><trkpt lat="44.014982" lon="12.2045709"><ele>86.0</ele><time>2026-04-26T09:40:09.986Z</time></trkpt><trkpt lat="44.0151988" lon="12.2046412"><ele>86.0</ele><time>2026-04-26T09:40:10.986Z</time></trkpt><trkpt lat="44.0154202" lon="12.2046989"><ele>86.0</ele><time>2026-04-26T09:40:11.993Z</time></trkpt><trkpt lat="44.0156412" lon="12.2047438"><ele>86.0</ele><time>2026-04-26T09:40:12.987Z</time></trkpt><trkpt lat="44.0158642" lon="12.2047776"><ele>86.0</ele><time>2026-04-26T09:40:13.986Z</time></trkpt><trkpt lat="44.0160852" lon="12.2048012"><ele>86.0</ele><time>2026-04-26T09:40:14.99Z</time></trkpt><trkpt lat="44.0163076" lon="12.2048241"><ele>86.0</ele><time>2026-04-26T09:40:15.991Z</time></trkpt><trkpt lat="44.016528" lon="12.2048246"><ele>86.0</ele><time>2026-04-26T09:40:16.996Z</time></trkpt><trkpt lat="44.0167524" lon="12.204811"><ele>85.33333333333334</ele><time>2026-04-26T09:40:17.995Z</time></trkpt><trkpt lat="44.0169712" lon="12.2047895"><ele>84.66666666666667</ele><time>2026-04-26T09:40:18.989Z</time></trkpt><trkpt lat="44.017193" lon="12.2047627"><ele>84.0</ele><time>2026-04-26T09:40:19.995Z</time></trkpt><trkpt lat="44.0174164" lon="12.2047196"><ele>83.66666666666667</ele><time>2026-04-26T09:40:20.993Z</time></trkpt><trkpt lat="44.0176325" lon="12.2046736"><ele>83.33333333333334</ele><time>2026-04-26T09:40:21.99Z</time></trkpt><trkpt lat="44.0178459" lon="12.2046103"><ele>83.0</ele><time>2026-04-26T09:40:22.989Z</time></trkpt><trkpt lat="44.0180621" lon="12.2045391"><ele>83.0</ele><time>2026-04-26T09:40:23.992Z</time></trkpt><trkpt lat="44.0182767" lon="12.2044644"><ele>83.0</ele><time>2026-04-26T09:40:24.986Z</time></trkpt><trkpt lat="44.0184907" lon="12.2043882"><ele>83.0</ele><time>2026-04-26T09:40:25.99Z</time></trkpt><trkpt lat="44.0187085" lon="12.2043122"><ele>84.33333333333334</ele><time>2026-04-26T09:40:26.986Z</time></trkpt><trkpt lat="44.0189233" lon="12.204238"><ele>85.66666666666667</ele><time>2026-04-26T09:40:27.989Z</time></trkpt><trkpt lat="44.0191424" lon="12.2041581"><ele>87.0</ele><time>2026-04-26T09:40:28.985Z</time></trkpt><trkpt lat="44.0193574" lon="12.2040821"><ele>87.0</ele><time>2026-04-26T09:40:29.992Z</time></trkpt><trkpt lat="44.0195712" lon="12.204003"><ele>87.0</ele><time>2026-04-26T09:40:30.99Z</time></trkpt><trkpt lat="44.0197869" lon="12.2039245"><ele>87.0</ele><time>2026-04-26T09:40:31.993Z</time></trkpt><trkpt lat="44.0200056" lon="12.2038475"><ele>87.0</ele><time>2026-04-26T09:40:32.981Z</time></trkpt><trkpt lat="44.0202191" lon="12.2037753"><ele>87.0</ele><time>2026-04-26T09:40:33.992Z</time></trkpt><trkpt lat="44.0204362" lon="12.2037029"><ele>87.0</ele><time>2026-04-26T09:40:34.99Z</time></trkpt><trkpt lat="44.020651" lon="12.2036271"><ele>87.66666666666667</ele><time>2026-04-26T09:40:35.985Z</time></trkpt><trkpt lat="44.0208681" lon="12.2035525"><ele>88.33333333333334</ele><time>2026-04-26T09:40:36.988Z</time></trkpt><trkpt lat="44.0210829" lon="12.2034759"><ele>89.0</ele><time>2026-04-26T09:40:37.998Z</time></trkpt><trkpt lat="44.0212977" lon="12.2033975"><ele>89.0</ele><time>2026-04-26T09:40:38.989Z</time></trkpt><trkpt lat="44.0215137" lon="12.2033203"><ele>89.0</ele><time>2026-04-26T09:40:39.994Z</time></trkpt><trkpt lat="44.0217339" lon="12.2032443"><ele>88.0</ele><time>2026-04-26T09:40:40.983Z</time></trkpt><trkpt lat="44.0219528" lon="12.2031689"><ele>87.0</ele><time>2026-04-26T09:40:41.995Z</time></trkpt><trkpt lat="44.0221726" lon="12.2030977"><ele>86.5</ele><time>2026-04-26T09:40:42.99Z</time></trkpt><trkpt lat="44.0223903" lon="12.2030194"><ele>86.0</ele><time>2026-04-26T09:40:43.998Z</time></trkpt><trkpt lat="44.0226076" lon="12.2029384"><ele>86.0</ele><time>2026-04-26T09:40:44.988Z</time></trkpt><trkpt lat="44.0228257" lon="12.2028563"><ele>86.0</ele><time>2026-04-26T09:40:45.995Z</time></trkpt><trkpt lat="44.0230408" lon="12.2027782"><ele>86.0</ele><time>2026-04-26T09:40:46.994Z</time></trkpt><trkpt lat="44.0232573" lon="12.2027043"><ele>85.0</ele><time>2026-04-26T09:40:47.984Z</time></trkpt><trkpt lat="44.0234708" lon="12.2026252"><ele>84.0</ele><time>2026-04-26T09:40:48.991Z</time></trkpt><trkpt lat="44.0236846" lon="12.2025507"><ele>83.0</ele><time>2026-04-26T09:40:49.985Z</time></trkpt><trkpt lat="44.0239036" lon="12.202475"><ele>83.0</ele><time>2026-04-26T09:40:50.994Z</time></trkpt><trkpt lat="44.0241201" lon="12.2023999"><ele>83.0</ele><time>2026-04-26T09:40:51.987Z</time></trkpt><trkpt lat="44.0243365" lon="12.2023177"><ele>83.0</ele><time>2026-04-26T09:40:52.988Z</time></trkpt><trkpt lat="44.0245509" lon="12.2022279"><ele>82.0</ele><time>2026-04-26T09:40:53.991Z</time></trkpt><trkpt lat="44.0247625" lon="12.2021389"><ele>81.0</ele><time>2026-04-26T09:40:54.99Z</time></trkpt><trkpt lat="44.0249716" lon="12.2020374"><ele>80.0</ele><time>2026-04-26T09:40:55.995Z</time></trkpt><trkpt lat="44.0251778" lon="12.2019213"><ele>80.0</ele><time>2026-04-26T09:40:56.988Z</time></trkpt><trkpt lat="44.025385" lon="12.2018019"><ele>80.0</ele><time>2026-04-26T09:40:57.979Z</time></trkpt><trkpt lat="44.0255882" lon="12.2016777"><ele>80.0</ele><time>2026-04-26T09:40:58.991Z</time></trkpt><trkpt lat="44.0257944" lon="12.2015476"><ele>79.0</ele><time>2026-04-26T09:40:59.994Z</time></trkpt><trkpt lat="44.0259901" lon="12.2014101"><ele>78.0</ele><time>2026-04-26T09:41:00.981Z</time></trkpt><trkpt lat="44.0261833" lon="12.2012623"><ele>77.0</ele><time>2026-04-26T09:41:01.986Z</time></trkpt><trkpt lat="44.026376" lon="12.2011136"><ele>77.0</ele><time>2026-04-26T09:41:02.989Z</time></trkpt><trkpt lat="44.026566" lon="12.2009587"><ele>77.0</ele><time>2026-04-26T09:41:03.989Z</time></trkpt><trkpt lat="44.0267559" lon="12.2007931"><ele>77.0</ele><time>2026-04-26T09:41:04.986Z</time></trkpt><trkpt lat="44.0269453" lon="12.2006242"><ele>77.0</ele><time>2026-04-26T09:41:05.992Z</time></trkpt><trkpt lat="44.0271269" lon="12.2004487"><ele>77.0</ele><time>2026-04-26T09:41:06.985Z</time></trkpt><trkpt lat="44.0273085" lon="12.2002632"><ele>77.0</ele><time>2026-04-26T09:41:07.997Z</time></trkpt><trkpt lat="44.0274845" lon="12.2000729"><ele>77.0</ele><time>2026-04-26T09:41:08.99Z</time></trkpt><trkpt lat="44.0276621" lon="12.1998792"><ele>77.0</ele><time>2026-04-26T09:41:10.001Z</time></trkpt><trkpt lat="44.0278341" lon="12.1996817"><ele>77.0</ele><time>2026-04-26T09:41:10.996Z</time></trkpt><trkpt lat="44.0280055" lon="12.1994842"><ele>76.66666666666667</ele><time>2026-04-26T09:41:11.988Z</time></trkpt><trkpt lat="44.0281797" lon="12.19929"><ele>76.33333333333333</ele><time>2026-04-26T09:41:12.991Z</time></trkpt><trkpt lat="44.0283495" lon="12.1991013"><ele>76.0</ele><time>2026-04-26T09:41:13.991Z</time></trkpt><trkpt lat="44.028522" lon="12.1989163"><ele>75.33333333333333</ele><time>2026-04-26T09:41:14.993Z</time></trkpt><trkpt lat="44.0286972" lon="12.1987217"><ele>74.66666666666667</ele><time>2026-04-26T09:41:15.99Z</time></trkpt><trkpt lat="44.0288716" lon="12.1985344"><ele>74.0</ele><time>2026-04-26T09:41:16.989Z</time></trkpt><trkpt lat="44.0290445" lon="12.1983401"><ele>75.0</ele><time>2026-04-26T09:41:17.993Z</time></trkpt><trkpt lat="44.0292162" lon="12.198144"><ele>76.0</ele><time>2026-04-26T09:41:18.996Z</time></trkpt><trkpt lat="44.0293907" lon="12.1979466"><ele>77.0</ele><time>2026-04-26T09:41:19.99Z</time></trkpt><trkpt lat="44.0295664" lon="12.1977519"><ele>77.0</ele><time>2026-04-26T09:41:20.988Z</time></trkpt><trkpt lat="44.0297417" lon="12.1975594"><ele>77.0</ele><time>2026-04-26T09:41:21.995Z</time></trkpt><trkpt lat="44.0299132" lon="12.197363"><ele>77.0</ele><time>2026-04-26T09:41:22.984Z</time></trkpt><trkpt lat="44.0300875" lon="12.1971696"><ele>78.5</ele><time>2026-04-26T09:41:23.999Z</time></trkpt><trkpt lat="44.0302659" lon="12.196977"><ele>80.0</ele><time>2026-04-26T09:41:24.984Z</time></trkpt><trkpt lat="44.0304424" lon="12.1967832"><ele>80.0</ele><time>2026-04-26T09:41:25.99Z</time></trkpt><trkpt lat="44.0306176" lon="12.1965888"><ele>80.0</ele><time>2026-04-26T09:41:26.992Z</time></trkpt><trkpt lat="44.030794" lon="12.1963935"><ele>82.33333333333334</ele><time>2026-04-26T09:41:27.991Z</time></trkpt><trkpt lat="44.0309694" lon="12.1962024"><ele>84.66666666666667</ele><time>2026-04-26T09:41:28.997Z</time></trkpt><trkpt lat="44.0311421" lon="12.1960056"><ele>87.0</ele><time>2026-04-26T09:41:29.99Z</time></trkpt><trkpt lat="44.0313145" lon="12.1958131"><ele>86.0</ele><time>2026-04-26T09:41:31Z</time></trkpt><trkpt lat="44.0314912" lon="12.195616"><ele>85.0</ele><time>2026-04-26T09:41:31.988Z</time></trkpt><trkpt lat="44.0316666" lon="12.19542"><ele>85.0</ele><time>2026-04-26T09:41:32.983Z</time></trkpt><trkpt lat="44.0318372" lon="12.1952354"><ele>85.0</ele><time>2026-04-26T09:41:33.99Z</time></trkpt><trkpt lat="44.032011" lon="12.1950444"><ele>85.0</ele><time>2026-04-26T09:41:34.988Z</time></trkpt><trkpt lat="44.0321831" lon="12.1948517"><ele>85.66666666666666</ele><time>2026-04-26T09:41:35.987Z</time></trkpt><trkpt lat="44.0323594" lon="12.194653"><ele>86.33333333333333</ele><time>2026-04-26T09:41:36.987Z</time></trkpt><trkpt lat="44.0325301" lon="12.1944606"><ele>87.0</ele><time>2026-04-26T09:41:37.994Z</time></trkpt><trkpt lat="44.0327034" lon="12.1942693"><ele>82.33333333333333</ele><time>2026-04-26T09:41:38.99Z</time></trkpt><trkpt lat="44.0328779" lon="12.1940764"><ele>77.66666666666666</ele><time>2026-04-26T09:41:40.001Z</time></trkpt><trkpt lat="44.0330557" lon="12.1938823"><ele>73.0</ele><time>2026-04-26T09:41:41Z</time></trkpt><trkpt lat="44.0332311" lon="12.193686"><ele>73.33333333333333</ele><time>2026-04-26T09:41:41.994Z</time></trkpt><trkpt lat="44.0334008" lon="12.1934933"><ele>73.66666666666667</ele><time>2026-04-26T09:41:42.996Z</time></trkpt><trkpt lat="44.0335736" lon="12.1933027"><ele>74.0</ele><time>2026-04-26T09:41:43.99Z</time></trkpt><trkpt lat="44.0337437" lon="12.1931137"><ele>73.33333333333334</ele><time>2026-04-26T09:41:44.989Z</time></trkpt><trkpt lat="44.0339189" lon="12.192923"><ele>72.66666666666667</ele><time>2026-04-26T09:41:45.99Z</time></trkpt><trkpt lat="44.0340929" lon="12.1927268"><ele>72.0</ele><time>2026-04-26T09:41:46.998Z</time></trkpt><trkpt lat="44.0342672" lon="12.1925307"><ele>71.0</ele><time>2026-04-26T09:41:47.987Z</time></trkpt><trkpt lat="44.0344424" lon="12.1923376"><ele>70.0</ele><time>2026-04-26T09:41:48.985Z</time></trkpt><trkpt lat="44.0346218" lon="12.1921419"><ele>70.0</ele><time>2026-04-26T09:41:49.993Z</time></trkpt><trkpt lat="44.0347973" lon="12.1919471"><ele>70.0</ele><time>2026-04-26T09:41:50.984Z</time></trkpt><trkpt lat="44.0349706" lon="12.1917521"><ele>70.0</ele><time>2026-04-26T09:41:51.993Z</time></trkpt><trkpt lat="44.0351482" lon="12.1915607"><ele>70.33333333333333</ele><time>2026-04-26T09:41:52.988Z</time></trkpt><trkpt lat="44.0353226" lon="12.1913743"><ele>70.66666666666667</ele><time>2026-04-26T09:41:53.991Z</time></trkpt><trkpt lat="44.0355032" lon="12.1911882"><ele>71.0</ele><time>2026-04-26T09:41:54.993Z</time></trkpt><trkpt lat="44.0356836" lon="12.1910165"><ele>71.33333333333334</ele><time>2026-04-26T09:41:55.992Z</time></trkpt><trkpt lat="44.0358702" lon="12.1908506"><ele>71.66666666666667</ele><time>2026-04-26T09:41:56.985Z</time></trkpt><trkpt lat="44.0360611" lon="12.1906876"><ele>72.0</ele><time>2026-04-26T09:41:57.987Z</time></trkpt><trkpt lat="44.0362521" lon="12.1905331"><ele>72.0</ele><time>2026-04-26T09:41:58.992Z</time></trkpt><trkpt lat="44.0364504" lon="12.1903884"><ele>72.0</ele><time>2026-04-26T09:41:59.994Z</time></trkpt><trkpt lat="44.0366497" lon="12.190245"><ele>72.0</ele><time>2026-04-26T09:42:00.99Z</time></trkpt><trkpt lat="44.0368478" lon="12.1901012"><ele>72.33333333333333</ele><time>2026-04-26T09:42:01.991Z</time></trkpt><trkpt lat="44.037046" lon="12.1899731"><ele>72.66666666666666</ele><time>2026-04-26T09:42:02.984Z</time></trkpt><trkpt lat="44.0372468" lon="12.1898457"><ele>73.0</ele><time>2026-04-26T09:42:03.991Z</time></trkpt><trkpt lat="44.0374507" lon="12.189719"><ele>73.0</ele><time>2026-04-26T09:42:04.991Z</time></trkpt><trkpt lat="44.03766" lon="12.1896064"><ele>73.0</ele><time>2026-04-26T09:42:05.991Z</time></trkpt><trkpt lat="44.0378685" lon="12.1894919"><ele>73.0</ele><time>2026-04-26T09:42:06.986Z</time></trkpt><trkpt lat="44.0380752" lon="12.1893735"><ele>73.0</ele><time>2026-04-26T09:42:07.991Z</time></trkpt><trkpt lat="44.0382795" lon="12.1892578"><ele>73.0</ele><time>2026-04-26T09:42:08.98Z</time></trkpt><trkpt lat="44.0384857" lon="12.1891389"><ele>73.0</ele><time>2026-04-26T09:42:09.992Z</time></trkpt><trkpt lat="44.0386898" lon="12.1890209"><ele>72.0</ele><time>2026-04-26T09:42:10.982Z</time></trkpt><trkpt lat="44.0389019" lon="12.1889046"><ele>71.0</ele><time>2026-04-26T09:42:11.985Z</time></trkpt><trkpt lat="44.0391089" lon="12.188789"><ele>70.5</ele><time>2026-04-26T09:42:12.987Z</time></trkpt><trkpt lat="44.0393165" lon="12.1886738"><ele>70.0</ele><time>2026-04-26T09:42:13.989Z</time></trkpt><trkpt lat="44.0395281" lon="12.1885594"><ele>70.0</ele><time>2026-04-26T09:42:14.983Z</time></trkpt><trkpt lat="44.0397315" lon="12.1884446"><ele>70.0</ele><time>2026-04-26T09:42:15.99Z</time></trkpt><trkpt lat="44.039938" lon="12.1883272"><ele>70.0</ele><time>2026-04-26T09:42:16.991Z</time></trkpt><trkpt lat="44.0401446" lon="12.1882128"><ele>69.33333333333333</ele><time>2026-04-26T09:42:17.993Z</time></trkpt><trkpt lat="44.0403501" lon="12.1880963"><ele>68.66666666666667</ele><time>2026-04-26T09:42:18.984Z</time></trkpt><trkpt lat="44.0405566" lon="12.1879835"><ele>68.0</ele><time>2026-04-26T09:42:19.99Z</time></trkpt><trkpt lat="44.0407621" lon="12.1878682"><ele>68.0</ele><time>2026-04-26T09:42:20.987Z</time></trkpt><trkpt lat="44.0409734" lon="12.1877521"><ele>68.0</ele><time>2026-04-26T09:42:21.992Z</time></trkpt><trkpt lat="44.0411783" lon="12.1876325"><ele>68.0</ele><time>2026-04-26T09:42:22.988Z</time></trkpt><trkpt lat="44.0413844" lon="12.1875193"><ele>68.0</ele><time>2026-04-26T09:42:23.995Z</time></trkpt><trkpt lat="44.0415916" lon="12.1874019"><ele>68.0</ele><time>2026-04-26T09:42:24.985Z</time></trkpt><trkpt lat="44.0417986" lon="12.1872849"><ele>68.0</ele><time>2026-04-26T09:42:25.99Z</time></trkpt><trkpt lat="44.0420052" lon="12.1871698"><ele>69.33333333333334</ele><time>2026-04-26T09:42:26.991Z</time></trkpt><trkpt lat="44.0422112" lon="12.1870531"><ele>70.66666666666667</ele><time>2026-04-26T09:42:27.996Z</time></trkpt><trkpt lat="44.0424147" lon="12.1869337"><ele>72.0</ele><time>2026-04-26T09:42:28.999Z</time></trkpt><trkpt lat="44.0426207" lon="12.1868177"><ele>72.0</ele><time>2026-04-26T09:42:29.992Z</time></trkpt><trkpt lat="44.0428263" lon="12.1867001"><ele>72.0</ele><time>2026-04-26T09:42:31.011Z</time></trkpt><trkpt lat="44.0430316" lon="12.186586"><ele>72.0</ele><time>2026-04-26T09:42:31.99Z</time></trkpt><trkpt lat="44.0432374" lon="12.1864679"><ele>72.33333333333333</ele><time>2026-04-26T09:42:32.989Z</time></trkpt><trkpt lat="44.0434412" lon="12.1863521"><ele>72.66666666666666</ele><time>2026-04-26T09:42:33.996Z</time></trkpt><trkpt lat="44.0436466" lon="12.1862329"><ele>73.0</ele><time>2026-04-26T09:42:34.98Z</time></trkpt><trkpt lat="44.0438559" lon="12.1861169"><ele>73.0</ele><time>2026-04-26T09:42:35.99Z</time></trkpt><trkpt lat="44.0440653" lon="12.1859986"><ele>73.0</ele><time>2026-04-26T09:42:36.992Z</time></trkpt><trkpt lat="44.0442698" lon="12.1858858"><ele>73.0</ele><time>2026-04-26T09:42:37.991Z</time></trkpt><trkpt lat="44.0444654" lon="12.1857798"><ele>74.0</ele><time>2026-04-26T09:42:38.991Z</time></trkpt><trkpt lat="44.0446506" lon="12.185676"><ele>75.0</ele><time>2026-04-26T09:42:39.99Z</time></trkpt><trkpt lat="44.0448295" lon="12.1855734"><ele>76.0</ele><time>2026-04-26T09:42:40.988Z</time></trkpt><trkpt lat="44.0450078" lon="12.1854729"><ele>76.0</ele><time>2026-04-26T09:42:41.99Z</time></trkpt><trkpt lat="44.0451866" lon="12.1853704"><ele>76.0</ele><time>2026-04-26T09:42:42.991Z</time></trkpt><trkpt lat="44.0453687" lon="12.1852644"><ele>76.0</ele><time>2026-04-26T09:42:43.99Z</time></trkpt><trkpt lat="44.0455488" lon="12.1851647"><ele>76.0</ele><time>2026-04-26T09:42:44.986Z</time></trkpt><trkpt lat="44.045721" lon="12.1850696"><ele>76.0</ele><time>2026-04-26T09:42:45.987Z</time></trkpt><trkpt lat="44.0458885" lon="12.1849799"><ele>76.0</ele><time>2026-04-26T09:42:46.993Z</time></trkpt><trkpt lat="44.0460494" lon="12.1848979"><ele>76.5</ele><time>2026-04-26T09:42:47.989Z</time></trkpt><trkpt lat="44.0461921" lon="12.1848224"><ele>77.0</ele><time>2026-04-26T09:42:48.991Z</time></trkpt><trkpt lat="44.0463322" lon="12.1847531"><ele>77.5</ele><time>2026-04-26T09:42:49.997Z</time></trkpt><trkpt lat="44.0464695" lon="12.18468"><ele>78.0</ele><time>2026-04-26T09:42:51Z</time></trkpt><trkpt lat="44.046598" lon="12.1846071"><ele>79.0</ele><time>2026-04-26T09:42:51.984Z</time></trkpt><trkpt lat="44.0467173" lon="12.1845368"><ele>80.0</ele><time>2026-04-26T09:42:52.995Z</time></trkpt><trkpt lat="44.0468322" lon="12.1844801"><ele>81.0</ele><time>2026-04-26T09:42:53.991Z</time></trkpt><trkpt lat="44.0469492" lon="12.1844274"><ele>82.0</ele><time>2026-04-26T09:42:54.996Z</time></trkpt><trkpt lat="44.0470638" lon="12.1843998"><ele>82.0</ele><time>2026-04-26T09:42:56.011Z</time></trkpt><trkpt lat="44.0471785" lon="12.1844056"><ele>82.0</ele><time>2026-04-26T09:42:56.994Z</time></trkpt><trkpt lat="44.0472926" lon="12.1844333"><ele>82.0</ele><time>2026-04-26T09:42:57.997Z</time></trkpt><trkpt lat="44.0474053" lon="12.1844869"><ele>82.0</ele><time>2026-04-26T09:42:58.996Z</time></trkpt><trkpt lat="44.0475115" lon="12.1845711"><ele>82.0</ele><time>2026-04-26T09:43:00Z</time></trkpt><trkpt lat="44.047607" lon="12.1846838"><ele>82.0</ele><time>2026-04-26T09:43:00.992Z</time></trkpt><trkpt lat="44.0476767" lon="12.1848135"><ele>82.0</ele><time>2026-04-26T09:43:01.998Z</time></trkpt><trkpt lat="44.0477295" lon="12.1849371"><ele>82.0</ele><time>2026-04-26T09:43:02.987Z</time></trkpt><trkpt lat="44.0477704" lon="12.1850475"><ele>82.0</ele><time>2026-04-26T09:43:03.994Z</time></trkpt><trkpt lat="44.0478136" lon="12.1851296"><ele>82.0</ele><time>2026-04-26T09:43:04.983Z</time></trkpt><trkpt lat="44.0478767" lon="12.1852042"><ele>82.0</ele><time>2026-04-26T09:43:06.992Z</time></trkpt><trkpt lat="44.0479606" lon="12.1852164"><ele>82.0</ele><time>2026-04-26T09:43:18.997Z</time></trkpt><trkpt lat="44.0480273" lon="12.1851592"><ele>82.0</ele><time>2026-04-26T09:43:19.99Z</time></trkpt><trkpt lat="44.0480791" lon="12.1850647"><ele>82.0</ele><time>2026-04-26T09:43:20.99Z</time></trkpt><trkpt lat="44.0481342" lon="12.1849554"><ele>82.0</ele><time>2026-04-26T09:43:21.997Z</time></trkpt><trkpt lat="44.0481901" lon="12.1848446"><ele>81.5</ele><time>2026-04-26T09:43:23.01Z</time></trkpt><trkpt lat="44.0482466" lon="12.1847095"><ele>81.0</ele><time>2026-04-26T09:43:23.991Z</time></trkpt><trkpt lat="44.0483037" lon="12.1845307"><ele>80.5</ele><time>2026-04-26T09:43:24.984Z</time></trkpt><trkpt lat="44.0483406" lon="12.1843406"><ele>80.0</ele><time>2026-04-26T09:43:25.996Z</time></trkpt><trkpt lat="44.0483545" lon="12.1841327"><ele>79.25</ele><time>2026-04-26T09:43:26.989Z</time></trkpt><trkpt lat="44.0483696" lon="12.1839261"><ele>78.5</ele><time>2026-04-26T09:43:28Z</time></trkpt><trkpt lat="44.0483847" lon="12.1837366"><ele>77.75</ele><time>2026-04-26T09:43:28.993Z</time></trkpt><trkpt lat="44.0484022" lon="12.1835428"><ele>77.0</ele><time>2026-04-26T09:43:29.995Z</time></trkpt><trkpt lat="44.0484193" lon="12.1833548"><ele>78.5</ele><time>2026-04-26T09:43:30.984Z</time></trkpt><trkpt lat="44.0484413" lon="12.1831674"><ele>80.0</ele><time>2026-04-26T09:43:31.996Z</time></trkpt><trkpt lat="44.048481" lon="12.1829923"><ele>81.5</ele><time>2026-04-26T09:43:32.99Z</time></trkpt><trkpt lat="44.0485467" lon="12.1828397"><ele>83.0</ele><time>2026-04-26T09:43:33.999Z</time></trkpt><trkpt lat="44.0486206" lon="12.1827295"><ele>83.0</ele><time>2026-04-26T09:43:34.99Z</time></trkpt><trkpt lat="44.048712" lon="12.1826458"><ele>83.0</ele><time>2026-04-26T09:43:35.993Z</time></trkpt><trkpt lat="44.0488086" lon="12.1825805"><ele>83.0</ele><time>2026-04-26T09:43:36.992Z</time></trkpt><trkpt lat="44.0489546" lon="12.182534"><ele>83.0</ele><time>2026-04-26T09:43:38Z</time></trkpt><trkpt lat="44.0491031" lon="12.1825192"><ele>82.0</ele><time>2026-04-26T09:43:38.995Z</time></trkpt><trkpt lat="44.0492521" lon="12.1825001"><ele>81.0</ele><time>2026-04-26T09:43:39.986Z</time></trkpt><trkpt lat="44.0493872" lon="12.1824855"><ele>80.0</ele><time>2026-04-26T09:43:40.99Z</time></trkpt><trkpt lat="44.0495327" lon="12.1824709"><ele>79.0</ele><time>2026-04-26T09:43:41.989Z</time></trkpt><trkpt lat="44.0496845" lon="12.1824486"><ele>79.0</ele><time>2026-04-26T09:43:42.983Z</time></trkpt><trkpt lat="44.0498512" lon="12.182423"><ele>79.0</ele><time>2026-04-26T09:43:43.996Z</time></trkpt><trkpt lat="44.0500351" lon="12.1823994"><ele>79.0</ele><time>2026-04-26T09:43:44.993Z</time></trkpt><trkpt lat="44.0502143" lon="12.1823625"><ele>81.33333333333333</ele><time>2026-04-26T09:43:45.996Z</time></trkpt><trkpt lat="44.0503594" lon="12.1823062"><ele>83.66666666666667</ele><time>2026-04-26T09:43:46.995Z</time></trkpt><trkpt lat="44.0505006" lon="12.1822235"><ele>86.0</ele><time>2026-04-26T09:43:47.987Z</time></trkpt><trkpt lat="44.0506365" lon="12.1821147"><ele>86.0</ele><time>2026-04-26T09:43:48.996Z</time></trkpt><trkpt lat="44.0507522" lon="12.1819642"><ele>86.0</ele><time>2026-04-26T09:43:49.995Z</time></trkpt><trkpt lat="44.0508335" lon="12.1818085"><ele>86.0</ele><time>2026-04-26T09:43:50.998Z</time></trkpt><trkpt lat="44.0508951" lon="12.1816335"><ele>86.0</ele><time>2026-04-26T09:43:51.991Z</time></trkpt><trkpt lat="44.0509537" lon="12.1814396"><ele>84.33333333333334</ele><time>2026-04-26T09:43:52.993Z</time></trkpt><trkpt lat="44.0509892" lon="12.181228"><ele>82.66666666666667</ele><time>2026-04-26T09:43:53.997Z</time></trkpt><trkpt lat="44.051002" lon="12.1809984"><ele>81.0</ele><time>2026-04-26T09:43:54.988Z</time></trkpt><trkpt lat="44.0509973" lon="12.1807679"><ele>79.66666666666667</ele><time>2026-04-26T09:43:55.999Z</time></trkpt><trkpt lat="44.050981" lon="12.1805337"><ele>78.33333333333334</ele><time>2026-04-26T09:43:56.993Z</time></trkpt><trkpt lat="44.0509624" lon="12.1803099"><ele>77.0</ele><time>2026-04-26T09:43:57.993Z</time></trkpt><trkpt lat="44.0509445" lon="12.1800856"><ele>77.0</ele><time>2026-04-26T09:43:58.978Z</time></trkpt><trkpt lat="44.050927" lon="12.1798622"><ele>77.0</ele><time>2026-04-26T09:44:00.001Z</time></trkpt><trkpt lat="44.0509078" lon="12.1796378"><ele>77.0</ele><time>2026-04-26T09:44:00.993Z</time></trkpt><trkpt lat="44.0508721" lon="12.1794034"><ele>77.0</ele><time>2026-04-26T09:44:01.991Z</time></trkpt><trkpt lat="44.0508133" lon="12.1791879"><ele>77.0</ele><time>2026-04-26T09:44:02.993Z</time></trkpt><trkpt lat="44.050751" lon="12.1789922"><ele>77.0</ele><time>2026-04-26T09:44:03.991Z</time></trkpt><trkpt lat="44.0506942" lon="12.178821"><ele>77.0</ele><time>2026-04-26T09:44:04.992Z</time></trkpt><trkpt lat="44.0506404" lon="12.1786498"><ele>77.0</ele><time>2026-04-26T09:44:05.994Z</time></trkpt><trkpt lat="44.0505994" lon="12.1784648"><ele>77.0</ele><time>2026-04-26T09:44:06.991Z</time></trkpt><trkpt lat="44.0505811" lon="12.1782649"><ele>77.0</ele><time>2026-04-26T09:44:07.995Z</time></trkpt><trkpt lat="44.0505854" lon="12.1780665"><ele>76.0</ele><time>2026-04-26T09:44:08.988Z</time></trkpt><trkpt lat="44.0506093" lon="12.1778706"><ele>75.0</ele><time>2026-04-26T09:44:09.99Z</time></trkpt><trkpt lat="44.0506545" lon="12.1776743"><ele>74.0</ele><time>2026-04-26T09:44:10.991Z</time></trkpt><trkpt lat="44.0507191" lon="12.1774702"><ele>73.0</ele><time>2026-04-26T09:44:11.99Z</time></trkpt><trkpt lat="44.0507938" lon="12.1772557"><ele>72.0</ele><time>2026-04-26T09:44:12.994Z</time></trkpt><trkpt lat="44.0508521" lon="12.177069"><ele>71.0</ele><time>2026-04-26T09:44:13.994Z</time></trkpt><trkpt lat="44.0509011" lon="12.1769044"><ele>70.0</ele><time>2026-04-26T09:44:14.999Z</time></trkpt><trkpt lat="44.050948" lon="12.1767508"><ele>70.0</ele><time>2026-04-26T09:44:15.998Z</time></trkpt><trkpt lat="44.0509948" lon="12.1766094"><ele>70.0</ele><time>2026-04-26T09:44:16.991Z</time></trkpt><trkpt lat="44.0510355" lon="12.1764821"><ele>70.0</ele><time>2026-04-26T09:44:17.999Z</time></trkpt><trkpt lat="44.0510924" lon="12.1763646"><ele>70.0</ele><time>2026-04-26T09:44:18.99Z</time></trkpt><trkpt lat="44.0511611" lon="12.1762636"><ele>70.0</ele><time>2026-04-26T09:44:19.985Z</time></trkpt><trkpt lat="44.0512311" lon="12.1761695"><ele>70.16666666666666</ele><time>2026-04-26T09:44:20.991Z</time></trkpt><trkpt lat="44.0513021" lon="12.1760799"><ele>70.33333333333333</ele><time>2026-04-26T09:44:21.999Z</time></trkpt><trkpt lat="44.0513772" lon="12.1760009"><ele>70.5</ele><time>2026-04-26T09:44:22.992Z</time></trkpt><trkpt lat="44.0514567" lon="12.175941"><ele>70.66666666666667</ele><time>2026-04-26T09:44:23.999Z</time></trkpt><trkpt lat="44.0515279" lon="12.1759148"><ele>70.83333333333334</ele><time>2026-04-26T09:44:24.995Z</time></trkpt><trkpt lat="44.0516079" lon="12.1759105"><ele>71.0</ele><time>2026-04-26T09:44:25.992Z</time></trkpt><trkpt lat="44.0516872" lon="12.1759166"><ele>71.16666666666667</ele><time>2026-04-26T09:44:26.991Z</time></trkpt><trkpt lat="44.0517699" lon="12.1759474"><ele>71.33333333333334</ele><time>2026-04-26T09:44:27.991Z</time></trkpt><trkpt lat="44.0518506" lon="12.1759975"><ele>71.5</ele><time>2026-04-26T09:44:29.013Z</time></trkpt><trkpt lat="44.0519243" lon="12.1760759"><ele>71.66666666666667</ele><time>2026-04-26T09:44:29.993Z</time></trkpt><trkpt lat="44.0519824" lon="12.1761479"><ele>71.83333333333333</ele><time>2026-04-26T09:44:30.988Z</time></trkpt><trkpt lat="44.0520343" lon="12.1762303"><ele>72.0</ele><time>2026-04-26T09:44:31.992Z</time></trkpt><trkpt lat="44.0520825" lon="12.1763045"><ele>72.00000000000001</ele><time>2026-04-26T09:44:32.999Z</time></trkpt><trkpt lat="44.0521333" lon="12.1763804"><ele>72.0</ele><time>2026-04-26T09:44:33.995Z</time></trkpt><trkpt lat="44.0521862" lon="12.1764521"><ele>72.0</ele><time>2026-04-26T09:44:34.988Z</time></trkpt><trkpt lat="44.0522316" lon="12.1765204"><ele>72.0</ele><time>2026-04-26T09:44:35.996Z</time></trkpt><trkpt lat="44.0522741" lon="12.176596"><ele>72.0</ele><time>2026-04-26T09:44:36.993Z</time></trkpt><trkpt lat="44.0523181" lon="12.176669"><ele>72.00000000000001</ele><time>2026-04-26T09:44:37.999Z</time></trkpt><trkpt lat="44.0523649" lon="12.1767557"><ele>72.0</ele><time>2026-04-26T09:44:38.997Z</time></trkpt><trkpt lat="44.0524" lon="12.176862"><ele>72.0</ele><time>2026-04-26T09:44:40.003Z</time></trkpt><trkpt lat="44.052431" lon="12.1769772"><ele>72.0</ele><time>2026-04-26T09:44:40.989Z</time></trkpt><trkpt lat="44.0524793" lon="12.177091"><ele>72.0</ele><time>2026-04-26T09:44:41.994Z</time></trkpt><trkpt lat="44.0525351" lon="12.1771971"><ele>72.0</ele><time>2026-04-26T09:44:42.988Z</time></trkpt><trkpt lat="44.0525915" lon="12.1772925"><ele>72.0</ele><time>2026-04-26T09:44:43.992Z</time></trkpt><trkpt lat="44.0526524" lon="12.1773963"><ele>71.8</ele><time>2026-04-26T09:44:44.999Z</time></trkpt><trkpt lat="44.0527272" lon="12.1774981"><ele>71.6</ele><time>2026-04-26T09:44:45.996Z</time></trkpt><trkpt lat="44.0528113" lon="12.1775922"><ele>71.39999999999999</ele><time>2026-04-26T09:44:47.003Z</time></trkpt><trkpt lat="44.0528863" lon="12.1776797"><ele>71.2</ele><time>2026-04-26T09:44:47.996Z</time></trkpt><trkpt lat="44.0529633" lon="12.1777523"><ele>71.0</ele><time>2026-04-26T09:44:48.994Z</time></trkpt><trkpt lat="44.0530361" lon="12.177805"><ele>71.0</ele><time>2026-04-26T09:44:50Z</time></trkpt><trkpt lat="44.0531063" lon="12.1778555"><ele>71.0</ele><time>2026-04-26T09:44:50.995Z</time></trkpt><trkpt lat="44.0531793" lon="12.1779159"><ele>71.0</ele><time>2026-04-26T09:44:51.993Z</time></trkpt><trkpt lat="44.0532556" lon="12.1779799"><ele>71.0</ele><time>2026-04-26T09:44:52.99Z</time></trkpt><trkpt lat="44.0533364" lon="12.1780493"><ele>71.0</ele><time>2026-04-26T09:44:53.994Z</time></trkpt><trkpt lat="44.053424" lon="12.1781224"><ele>71.6</ele><time>2026-04-26T09:44:54.991Z</time></trkpt><trkpt lat="44.0535181" lon="12.1781954"><ele>72.19999999999999</ele><time>2026-04-26T09:44:55.991Z</time></trkpt><trkpt lat="44.0536098" lon="12.1782703"><ele>72.80000000000001</ele><time>2026-04-26T09:44:56.996Z</time></trkpt><trkpt lat="44.0537094" lon="12.178343"><ele>73.4</ele><time>2026-04-26T09:44:57.992Z</time></trkpt><trkpt lat="44.0538129" lon="12.1784238"><ele>74.0</ele><time>2026-04-26T09:44:58.99Z</time></trkpt><trkpt lat="44.0539207" lon="12.1785098"><ele>74.0</ele><time>2026-04-26T09:44:59.995Z</time></trkpt><trkpt lat="44.0540316" lon="12.1786001"><ele>74.0</ele><time>2026-04-26T09:45:00.996Z</time></trkpt><trkpt lat="44.0541417" lon="12.1786915"><ele>74.0</ele><time>2026-04-26T09:45:01.993Z</time></trkpt><trkpt lat="44.0542518" lon="12.1787864"><ele>74.0</ele><time>2026-04-26T09:45:02.991Z</time></trkpt><trkpt lat="44.0543648" lon="12.1788824"><ele>74.0</ele><time>2026-04-26T09:45:03.997Z</time></trkpt><trkpt lat="44.0544821" lon="12.1789839"><ele>74.0</ele><time>2026-04-26T09:45:04.988Z</time></trkpt><trkpt lat="44.0546038" lon="12.1790863"><ele>74.0</ele><time>2026-04-26T09:45:05.995Z</time></trkpt><trkpt lat="44.0547299" lon="12.1791826"><ele>74.0</ele><time>2026-04-26T09:45:06.986Z</time></trkpt><trkpt lat="44.0548544" lon="12.1792832"><ele>75.75</ele><time>2026-04-26T09:45:07.998Z</time></trkpt><trkpt lat="44.0549755" lon="12.1793859"><ele>77.5</ele><time>2026-04-26T09:45:08.988Z</time></trkpt><trkpt lat="44.0550991" lon="12.179487"><ele>79.25</ele><time>2026-04-26T09:45:09.996Z</time></trkpt><trkpt lat="44.0552254" lon="12.1795804"><ele>81.0</ele><time>2026-04-26T09:45:10.989Z</time></trkpt><trkpt lat="44.0553529" lon="12.179673"><ele>81.0</ele><time>2026-04-26T09:45:11.986Z</time></trkpt><trkpt lat="44.0554847" lon="12.1797526"><ele>81.0</ele><time>2026-04-26T09:45:12.992Z</time></trkpt><trkpt lat="44.0556156" lon="12.1798282"><ele>81.0</ele><time>2026-04-26T09:45:13.996Z</time></trkpt><trkpt lat="44.0557479" lon="12.1799021"><ele>81.0</ele><time>2026-04-26T09:45:14.994Z</time></trkpt><trkpt lat="44.0558815" lon="12.1799671"><ele>80.75</ele><time>2026-04-26T09:45:15.99Z</time></trkpt><trkpt lat="44.05601" lon="12.180035"><ele>80.5</ele><time>2026-04-26T09:45:16.984Z</time></trkpt><trkpt lat="44.0561359" lon="12.1801004"><ele>80.25</ele><time>2026-04-26T09:45:17.991Z</time></trkpt><trkpt lat="44.05625" lon="12.1801657"><ele>80.0</ele><time>2026-04-26T09:45:18.994Z</time></trkpt><trkpt lat="44.056349" lon="12.1802218"><ele>80.0</ele><time>2026-04-26T09:45:19.987Z</time></trkpt><trkpt lat="44.0564523" lon="12.1802575"><ele>80.0</ele><time>2026-04-26T09:45:20.992Z</time></trkpt><trkpt lat="44.0565524" lon="12.1802799"><ele>80.0</ele><time>2026-04-26T09:45:21.99Z</time></trkpt><trkpt lat="44.0566566" lon="12.1802997"><ele>80.0</ele><time>2026-04-26T09:45:22.994Z</time></trkpt><trkpt lat="44.0567651" lon="12.1803125"><ele>80.0</ele><time>2026-04-26T09:45:24Z</time></trkpt><trkpt lat="44.0568826" lon="12.1803388"><ele>81.75</ele><time>2026-04-26T09:45:25.002Z</time></trkpt><trkpt lat="44.0570019" lon="12.1803529"><ele>83.5</ele><time>2026-04-26T09:45:25.986Z</time></trkpt><trkpt lat="44.0571232" lon="12.1803705"><ele>85.25</ele><time>2026-04-26T09:45:26.989Z</time></trkpt><trkpt lat="44.0572456" lon="12.180393"><ele>87.0</ele><time>2026-04-26T09:45:27.99Z</time></trkpt><trkpt lat="44.0573717" lon="12.1804165"><ele>89.0</ele><time>2026-04-26T09:45:28.989Z</time></trkpt><trkpt lat="44.0575026" lon="12.1804506"><ele>91.0</ele><time>2026-04-26T09:45:29.996Z</time></trkpt><trkpt lat="44.0576433" lon="12.1804834"><ele>93.0</ele><time>2026-04-26T09:45:31Z</time></trkpt><trkpt lat="44.0577854" lon="12.1805088"><ele>95.0</ele><time>2026-04-26T09:45:31.988Z</time></trkpt><trkpt lat="44.0579348" lon="12.1805337"><ele>95.0</ele><time>2026-04-26T09:45:32.992Z</time></trkpt><trkpt lat="44.058089" lon="12.1805565"><ele>95.0</ele><time>2026-04-26T09:45:33.992Z</time></trkpt><trkpt lat="44.0582578" lon="12.1805881"><ele>95.0</ele><time>2026-04-26T09:45:34.994Z</time></trkpt><trkpt lat="44.0584209" lon="12.1806182"><ele>95.33333333333334</ele><time>2026-04-26T09:45:36Z</time></trkpt><trkpt lat="44.0585804" lon="12.1806494"><ele>95.66666666666667</ele><time>2026-04-26T09:45:36.983Z</time></trkpt><trkpt lat="44.0587384" lon="12.1806773"><ele>96.0</ele><time>2026-04-26T09:45:37.996Z</time></trkpt><trkpt lat="44.0588943" lon="12.1807069"><ele>94.66666666666667</ele><time>2026-04-26T09:45:39.001Z</time></trkpt><trkpt lat="44.0590514" lon="12.1807453"><ele>93.33333333333334</ele><time>2026-04-26T09:45:39.994Z</time></trkpt><trkpt lat="44.0592026" lon="12.1807837"><ele>92.0</ele><time>2026-04-26T09:45:41Z</time></trkpt><trkpt lat="44.0593576" lon="12.1808225"><ele>91.66666666666667</ele><time>2026-04-26T09:45:42Z</time></trkpt><trkpt lat="44.0595065" lon="12.1808644"><ele>91.33333333333333</ele><time>2026-04-26T09:45:42.991Z</time></trkpt><trkpt lat="44.0596625" lon="12.1809068"><ele>91.0</ele><time>2026-04-26T09:45:43.993Z</time></trkpt><trkpt lat="44.0598264" lon="12.1809481"><ele>91.66666666666666</ele><time>2026-04-26T09:45:44.994Z</time></trkpt><trkpt lat="44.0600072" lon="12.1809936"><ele>92.33333333333333</ele><time>2026-04-26T09:45:46.002Z</time></trkpt><trkpt lat="44.0601976" lon="12.1810486"><ele>93.0</ele><time>2026-04-26T09:45:47.005Z</time></trkpt><trkpt lat="44.060393" lon="12.181109"><ele>93.0</ele><time>2026-04-26T09:45:47.995Z</time></trkpt><trkpt lat="44.0605829" lon="12.1811667"><ele>93.0</ele><time>2026-04-26T09:45:48.992Z</time></trkpt><trkpt lat="44.060753" lon="12.1812224"><ele>93.0</ele><time>2026-04-26T09:45:49.993Z</time></trkpt><trkpt lat="44.0609103" lon="12.1812804"><ele>92.66666666666667</ele><time>2026-04-26T09:45:50.993Z</time></trkpt><trkpt lat="44.0610657" lon="12.1813377"><ele>92.33333333333334</ele><time>2026-04-26T09:45:51.992Z</time></trkpt><trkpt lat="44.0612203" lon="12.1814002"><ele>92.0</ele><time>2026-04-26T09:45:52.993Z</time></trkpt><trkpt lat="44.0613609" lon="12.1814688"><ele>91.5</ele><time>2026-04-26T09:45:53.995Z</time></trkpt><trkpt lat="44.0614972" lon="12.1815414"><ele>91.0</ele><time>2026-04-26T09:45:54.996Z</time></trkpt><trkpt lat="44.0616278" lon="12.1816169"><ele>90.5</ele><time>2026-04-26T09:45:55.995Z</time></trkpt><trkpt lat="44.0617704" lon="12.1816914"><ele>90.0</ele><time>2026-04-26T09:45:56.985Z</time></trkpt><trkpt lat="44.0619184" lon="12.1817687"><ele>89.66666666666667</ele><time>2026-04-26T09:45:57.986Z</time></trkpt><trkpt lat="44.0620698" lon="12.181837"><ele>89.33333333333334</ele><time>2026-04-26T09:45:58.995Z</time></trkpt><trkpt lat="44.0622314" lon="12.1819077"><ele>89.0</ele><time>2026-04-26T09:45:59.994Z</time></trkpt><trkpt lat="44.0623847" lon="12.1819937"><ele>89.0</ele><time>2026-04-26T09:46:00.991Z</time></trkpt><trkpt lat="44.0625452" lon="12.1820808"><ele>89.0</ele><time>2026-04-26T09:46:01.985Z</time></trkpt><trkpt lat="44.0627094" lon="12.1821699"><ele>89.0</ele><time>2026-04-26T09:46:02.992Z</time></trkpt><trkpt lat="44.0628763" lon="12.1822626"><ele>88.66666666666667</ele><time>2026-04-26T09:46:03.987Z</time></trkpt><trkpt lat="44.0630393" lon="12.1823534"><ele>88.33333333333333</ele><time>2026-04-26T09:46:04.991Z</time></trkpt><trkpt lat="44.063201" lon="12.1824388"><ele>88.0</ele><time>2026-04-26T09:46:05.995Z</time></trkpt><trkpt lat="44.0633584" lon="12.1825257"><ele>88.66666666666666</ele><time>2026-04-26T09:46:06.994Z</time></trkpt><trkpt lat="44.0635103" lon="12.1826041"><ele>89.33333333333333</ele><time>2026-04-26T09:46:07.99Z</time></trkpt><trkpt lat="44.0636606" lon="12.1826783"><ele>90.0</ele><time>2026-04-26T09:46:08.992Z</time></trkpt><trkpt lat="44.0638093" lon="12.1827471"><ele>90.0</ele><time>2026-04-26T09:46:09.997Z</time></trkpt><trkpt lat="44.0639462" lon="12.1828093"><ele>90.0</ele><time>2026-04-26T09:46:10.997Z</time></trkpt><trkpt lat="44.0640821" lon="12.1828732"><ele>90.0</ele><time>2026-04-26T09:46:11.984Z</time></trkpt><trkpt lat="44.0642157" lon="12.1829246"><ele>90.0</ele><time>2026-04-26T09:46:12.986Z</time></trkpt><trkpt lat="44.0643447" lon="12.1829686"><ele>90.0</ele><time>2026-04-26T09:46:13.987Z</time></trkpt><trkpt lat="44.0644675" lon="12.1829859"><ele>90.0</ele><time>2026-04-26T09:46:14.995Z</time></trkpt><trkpt lat="44.0645875" lon="12.1829786"><ele>90.0</ele><time>2026-04-26T09:46:15.991Z</time></trkpt><trkpt lat="44.0646964" lon="12.182942"><ele>90.0</ele><time>2026-04-26T09:46:16.989Z</time></trkpt><trkpt lat="44.0647956" lon="12.1828731"><ele>90.0</ele><time>2026-04-26T09:46:17.999Z</time></trkpt><trkpt lat="44.0648837" lon="12.1827572"><ele>90.0</ele><time>2026-04-26T09:46:18.995Z</time></trkpt><trkpt lat="44.0649688" lon="12.1826081"><ele>90.0</ele><time>2026-04-26T09:46:19.99Z</time></trkpt><trkpt lat="44.0650488" lon="12.1824358"><ele>90.0</ele><time>2026-04-26T09:46:20.99Z</time></trkpt><trkpt lat="44.0651463" lon="12.1822806"><ele>88.75</ele><time>2026-04-26T09:46:21.995Z</time></trkpt><trkpt lat="44.0652558" lon="12.1821641"><ele>87.5</ele><time>2026-04-26T09:46:22.986Z</time></trkpt><trkpt lat="44.0653712" lon="12.1820721"><ele>86.25</ele><time>2026-04-26T09:46:23.997Z</time></trkpt><trkpt lat="44.0654803" lon="12.1819861"><ele>85.0</ele><time>2026-04-26T09:46:25.001Z</time></trkpt><trkpt lat="44.0655853" lon="12.181951"><ele>85.0</ele><time>2026-04-26T09:46:25.996Z</time></trkpt><trkpt lat="44.0656996" lon="12.1819668"><ele>85.0</ele><time>2026-04-26T09:46:26.987Z</time></trkpt><trkpt lat="44.0658017" lon="12.1820136"><ele>85.0</ele><time>2026-04-26T09:46:27.994Z</time></trkpt><trkpt lat="44.0658918" lon="12.1820951"><ele>85.0</ele><time>2026-04-26T09:46:28.988Z</time></trkpt><trkpt lat="44.0659599" lon="12.1822113"><ele>85.0</ele><time>2026-04-26T09:46:30.003Z</time></trkpt><trkpt lat="44.0660324" lon="12.1823455"><ele>84.4</ele><time>2026-04-26T09:46:30.991Z</time></trkpt><trkpt lat="44.0660984" lon="12.1824676"><ele>83.8</ele><time>2026-04-26T09:46:32.001Z</time></trkpt><trkpt lat="44.0661652" lon="12.1825773"><ele>83.19999999999999</ele><time>2026-04-26T09:46:32.99Z</time></trkpt><trkpt lat="44.0662279" lon="12.1826846"><ele>82.6</ele><time>2026-04-26T09:46:33.99Z</time></trkpt><trkpt lat="44.0663024" lon="12.1827975"><ele>82.0</ele><time>2026-04-26T09:46:34.985Z</time></trkpt><trkpt lat="44.0663902" lon="12.1829153"><ele>82.0</ele><time>2026-04-26T09:46:35.977Z</time></trkpt><trkpt lat="44.0664952" lon="12.1830305"><ele>82.0</ele><time>2026-04-26T09:46:36.988Z</time></trkpt><trkpt lat="44.0665986" lon="12.183136"><ele>82.0</ele><time>2026-04-26T09:46:37.993Z</time></trkpt><trkpt lat="44.0666967" lon="12.1832294"><ele>82.0</ele><time>2026-04-26T09:46:38.988Z</time></trkpt><trkpt lat="44.0667875" lon="12.1833082"><ele>83.19999999999999</ele><time>2026-04-26T09:46:39.991Z</time></trkpt><trkpt lat="44.0668736" lon="12.1833852"><ele>84.4</ele><time>2026-04-26T09:46:40.991Z</time></trkpt><trkpt lat="44.0669578" lon="12.1834594"><ele>85.6</ele><time>2026-04-26T09:46:41.994Z</time></trkpt><trkpt lat="44.0670431" lon="12.1835255"><ele>86.80000000000001</ele><time>2026-04-26T09:46:43.01Z</time></trkpt><trkpt lat="44.0671276" lon="12.1835915"><ele>88.0</ele><time>2026-04-26T09:46:43.986Z</time></trkpt><trkpt lat="44.0672101" lon="12.1836608"><ele>88.0</ele><time>2026-04-26T09:46:44.996Z</time></trkpt><trkpt lat="44.0672965" lon="12.1837309"><ele>88.0</ele><time>2026-04-26T09:46:45.99Z</time></trkpt><trkpt lat="44.0673857" lon="12.1838008"><ele>88.0</ele><time>2026-04-26T09:46:46.992Z</time></trkpt><trkpt lat="44.0674668" lon="12.1838693"><ele>88.0</ele><time>2026-04-26T09:46:47.992Z</time></trkpt><trkpt lat="44.0675494" lon="12.1839272"><ele>88.0</ele><time>2026-04-26T09:46:48.989Z</time></trkpt><trkpt lat="44.067625" lon="12.1839789"><ele>88.16666666666666</ele><time>2026-04-26T09:46:49.987Z</time></trkpt><trkpt lat="44.0676968" lon="12.1840272"><ele>88.33333333333333</ele><time>2026-04-26T09:46:50.995Z</time></trkpt><trkpt lat="44.0677706" lon="12.1840831"><ele>88.5</ele><time>2026-04-26T09:46:51.993Z</time></trkpt><trkpt lat="44.0678397" lon="12.1841353"><ele>88.66666666666667</ele><time>2026-04-26T09:46:52.992Z</time></trkpt><trkpt lat="44.0679114" lon="12.1841761"><ele>88.83333333333334</ele><time>2026-04-26T09:46:53.988Z</time></trkpt><trkpt lat="44.0679817" lon="12.1842207"><ele>89.0</ele><time>2026-04-26T09:46:54.996Z</time></trkpt><trkpt lat="44.0680536" lon="12.1842598"><ele>89.0</ele><time>2026-04-26T09:46:55.988Z</time></trkpt><trkpt lat="44.0681224" lon="12.1842876"><ele>89.0</ele><time>2026-04-26T09:46:56.991Z</time></trkpt><trkpt lat="44.068193" lon="12.1843114"><ele>89.0</ele><time>2026-04-26T09:46:57.991Z</time></trkpt><trkpt lat="44.0682658" lon="12.1843219"><ele>89.0</ele><time>2026-04-26T09:46:58.99Z</time></trkpt><trkpt lat="44.0683485" lon="12.1843122"><ele>89.0</ele><time>2026-04-26T09:46:59.996Z</time></trkpt><trkpt lat="44.0684367" lon="12.1842779"><ele>89.0</ele><time>2026-04-26T09:47:00.999Z</time></trkpt><trkpt lat="44.0685364" lon="12.1842349"><ele>89.0</ele><time>2026-04-26T09:47:01.996Z</time></trkpt><trkpt lat="44.0686512" lon="12.184176"><ele>89.0</ele><time>2026-04-26T09:47:02.996Z</time></trkpt><trkpt lat="44.0687788" lon="12.1841126"><ele>89.0</ele><time>2026-04-26T09:47:03.997Z</time></trkpt><trkpt lat="44.0689111" lon="12.1840451"><ele>89.0</ele><time>2026-04-26T09:47:04.987Z</time></trkpt><trkpt lat="44.0690372" lon="12.1839857"><ele>89.0</ele><time>2026-04-26T09:47:05.992Z</time></trkpt><trkpt lat="44.069162" lon="12.1839421"><ele>89.0</ele><time>2026-04-26T09:47:06.986Z</time></trkpt><trkpt lat="44.0692974" lon="12.1839103"><ele>89.0</ele><time>2026-04-26T09:47:07.993Z</time></trkpt><trkpt lat="44.0694316" lon="12.1838982"><ele>89.0</ele><time>2026-04-26T09:47:08.979Z</time></trkpt><trkpt lat="44.0695709" lon="12.1839096"><ele>89.0</ele><time>2026-04-26T09:47:09.994Z</time></trkpt><trkpt lat="44.0697185" lon="12.1839272"><ele>89.0</ele><time>2026-04-26T09:47:10.987Z</time></trkpt><trkpt lat="44.0698691" lon="12.1839609"><ele>89.0</ele><time>2026-04-26T09:47:11.991Z</time></trkpt><trkpt lat="44.0700153" lon="12.1839906"><ele>89.0</ele><time>2026-04-26T09:47:12.989Z</time></trkpt><trkpt lat="44.0701615" lon="12.1840098"><ele>89.66666666666667</ele><time>2026-04-26T09:47:13.992Z</time></trkpt><trkpt lat="44.0703215" lon="12.1840341"><ele>90.33333333333333</ele><time>2026-04-26T09:47:14.998Z</time></trkpt><trkpt lat="44.0705237" lon="12.1840931"><ele>91.0</ele><time>2026-04-26T09:47:15.994Z</time></trkpt><trkpt lat="44.0707501" lon="12.1841449"><ele>89.66666666666666</ele><time>2026-04-26T09:47:16.987Z</time></trkpt><trkpt lat="44.0709674" lon="12.1842012"><ele>88.33333333333333</ele><time>2026-04-26T09:47:17.996Z</time></trkpt><trkpt lat="44.0711598" lon="12.1842546"><ele>87.0</ele><time>2026-04-26T09:47:18.992Z</time></trkpt><trkpt lat="44.0713588" lon="12.1843002"><ele>87.0</ele><time>2026-04-26T09:47:19.988Z</time></trkpt><trkpt lat="44.0715512" lon="12.1843432"><ele>87.0</ele><time>2026-04-26T09:47:20.986Z</time></trkpt><trkpt lat="44.0717495" lon="12.1843882"><ele>87.0</ele><time>2026-04-26T09:47:21.983Z</time></trkpt><trkpt lat="44.0719385" lon="12.1844339"><ele>87.66666666666667</ele><time>2026-04-26T09:47:22.988Z</time></trkpt><trkpt lat="44.0721177" lon="12.1844949"><ele>88.33333333333334</ele><time>2026-04-26T09:47:23.997Z</time></trkpt><trkpt lat="44.0722949" lon="12.18457"><ele>89.0</ele><time>2026-04-26T09:47:24.981Z</time></trkpt><trkpt lat="44.072469" lon="12.1846551"><ele>90.66666666666667</ele><time>2026-04-26T09:47:25.998Z</time></trkpt><trkpt lat="44.0726409" lon="12.1847423"><ele>92.33333333333333</ele><time>2026-04-26T09:47:26.988Z</time></trkpt><trkpt lat="44.0728187" lon="12.1848287"><ele>94.0</ele><time>2026-04-26T09:47:27.998Z</time></trkpt><trkpt lat="44.0729966" lon="12.1849176"><ele>91.0</ele><time>2026-04-26T09:47:28.985Z</time></trkpt><trkpt lat="44.0731763" lon="12.1850093"><ele>88.0</ele><time>2026-04-26T09:47:29.994Z</time></trkpt><trkpt lat="44.073359" lon="12.1850934"><ele>85.0</ele><time>2026-04-26T09:47:30.989Z</time></trkpt><trkpt lat="44.0735373" lon="12.1851807"><ele>85.0</ele><time>2026-04-26T09:47:31.991Z</time></trkpt><trkpt lat="44.0737196" lon="12.1852676"><ele>85.0</ele><time>2026-04-26T09:47:33.001Z</time></trkpt><trkpt lat="44.073903" lon="12.1853622"><ele>85.0</ele><time>2026-04-26T09:47:33.983Z</time></trkpt><trkpt lat="44.0740797" lon="12.1854719"><ele>85.0</ele><time>2026-04-26T09:47:34.99Z</time></trkpt><trkpt lat="44.0742547" lon="12.1855978"><ele>85.0</ele><time>2026-04-26T09:47:35.994Z</time></trkpt><trkpt lat="44.0744335" lon="12.1857445"><ele>85.0</ele><time>2026-04-26T09:47:36.989Z</time></trkpt><trkpt lat="44.0746118" lon="12.1858906"><ele>84.66666666666666</ele><time>2026-04-26T09:47:37.999Z</time></trkpt><trkpt lat="44.0747956" lon="12.1860399"><ele>84.33333333333333</ele><time>2026-04-26T09:47:38.986Z</time></trkpt><trkpt lat="44.0749778" lon="12.1861822"><ele>84.0</ele><time>2026-04-26T09:47:39.994Z</time></trkpt><trkpt lat="44.07516" lon="12.1863115"><ele>84.0</ele><time>2026-04-26T09:47:40.991Z</time></trkpt><trkpt lat="44.0753509" lon="12.1864357"><ele>84.0</ele><time>2026-04-26T09:47:41.996Z</time></trkpt><trkpt lat="44.0755444" lon="12.1865602"><ele>84.0</ele><time>2026-04-26T09:47:42.993Z</time></trkpt><trkpt lat="44.0757412" lon="12.1866866"><ele>82.33333333333333</ele><time>2026-04-26T09:47:43.991Z</time></trkpt><trkpt lat="44.0759393" lon="12.18681"><ele>80.66666666666666</ele><time>2026-04-26T09:47:44.988Z</time></trkpt><trkpt lat="44.0761365" lon="12.1869425"><ele>79.0</ele><time>2026-04-26T09:47:45.987Z</time></trkpt><trkpt lat="44.0763379" lon="12.1870768"><ele>79.0</ele><time>2026-04-26T09:47:46.986Z</time></trkpt><trkpt lat="44.0765444" lon="12.1872129"><ele>79.0</ele><time>2026-04-26T09:47:47.989Z</time></trkpt><trkpt lat="44.0767471" lon="12.1873446"><ele>78.0</ele><time>2026-04-26T09:47:48.993Z</time></trkpt><trkpt lat="44.076949" lon="12.187481"><ele>77.0</ele><time>2026-04-26T09:47:49.991Z</time></trkpt><trkpt lat="44.0771513" lon="12.187613"><ele>76.0</ele><time>2026-04-26T09:47:50.985Z</time></trkpt><trkpt lat="44.0773536" lon="12.1877519"><ele>78.0</ele><time>2026-04-26T09:47:51.987Z</time></trkpt><trkpt lat="44.0775555" lon="12.1878874"><ele>80.0</ele><time>2026-04-26T09:47:52.997Z</time></trkpt><trkpt lat="44.0777515" lon="12.1880136"><ele>82.0</ele><time>2026-04-26T09:47:53.993Z</time></trkpt><trkpt lat="44.0779469" lon="12.1881315"><ele>80.33333333333333</ele><time>2026-04-26T09:47:54.998Z</time></trkpt><trkpt lat="44.0781396" lon="12.1882476"><ele>78.66666666666667</ele><time>2026-04-26T09:47:56.001Z</time></trkpt><trkpt lat="44.0783261" lon="12.18836"><ele>77.0</ele><time>2026-04-26T09:47:56.979Z</time></trkpt><trkpt lat="44.0785085" lon="12.1884717"><ele>77.0</ele><time>2026-04-26T09:47:57.989Z</time></trkpt><trkpt lat="44.0786874" lon="12.1885758"><ele>77.0</ele><time>2026-04-26T09:47:58.994Z</time></trkpt><trkpt lat="44.0788575" lon="12.1886791"><ele>77.0</ele><time>2026-04-26T09:48:00Z</time></trkpt><trkpt lat="44.0790156" lon="12.188781"><ele>76.0</ele><time>2026-04-26T09:48:00.995Z</time></trkpt><trkpt lat="44.0791734" lon="12.1888772"><ele>75.0</ele><time>2026-04-26T09:48:01.985Z</time></trkpt><trkpt lat="44.0793337" lon="12.1889659"><ele>74.0</ele><time>2026-04-26T09:48:02.99Z</time></trkpt><trkpt lat="44.0794951" lon="12.1890361"><ele>74.0</ele><time>2026-04-26T09:48:03.994Z</time></trkpt><trkpt lat="44.0796559" lon="12.1890832"><ele>74.0</ele><time>2026-04-26T09:48:04.984Z</time></trkpt><trkpt lat="44.0798237" lon="12.1890952"><ele>74.0</ele><time>2026-04-26T09:48:05.982Z</time></trkpt><trkpt lat="44.0799946" lon="12.1890813"><ele>74.33333333333334</ele><time>2026-04-26T09:48:06.992Z</time></trkpt><trkpt lat="44.0801764" lon="12.1890515"><ele>74.66666666666667</ele><time>2026-04-26T09:48:07.991Z</time></trkpt><trkpt lat="44.0803711" lon="12.1890055"><ele>75.0</ele><time>2026-04-26T09:48:08.989Z</time></trkpt><trkpt lat="44.0805627" lon="12.1889595"><ele>76.33333333333333</ele><time>2026-04-26T09:48:09.986Z</time></trkpt><trkpt lat="44.0807545" lon="12.1889102"><ele>77.66666666666666</ele><time>2026-04-26T09:48:10.983Z</time></trkpt><trkpt lat="44.0809252" lon="12.1888483"><ele>79.0</ele><time>2026-04-26T09:48:11.989Z</time></trkpt><trkpt lat="44.0810886" lon="12.1887848"><ele>79.0</ele><time>2026-04-26T09:48:12.991Z</time></trkpt><trkpt lat="44.0812461" lon="12.1887447"><ele>79.0</ele><time>2026-04-26T09:48:13.993Z</time></trkpt><trkpt lat="44.0814081" lon="12.1887237"><ele>79.0</ele><time>2026-04-26T09:48:14.994Z</time></trkpt><trkpt lat="44.0815636" lon="12.1887481"><ele>76.0</ele><time>2026-04-26T09:48:15.992Z</time></trkpt><trkpt lat="44.0817324" lon="12.1888152"><ele>73.0</ele><time>2026-04-26T09:48:16.998Z</time></trkpt><trkpt lat="44.081897" lon="12.1888887"><ele>70.0</ele><time>2026-04-26T09:48:17.987Z</time></trkpt><trkpt lat="44.0820666" lon="12.1889406"><ele>70.0</ele><time>2026-04-26T09:48:18.987Z</time></trkpt><trkpt lat="44.0822396" lon="12.1889633"><ele>70.0</ele><time>2026-04-26T09:48:19.991Z</time></trkpt><trkpt lat="44.0824254" lon="12.1889519"><ele>70.0</ele><time>2026-04-26T09:48:20.992Z</time></trkpt><trkpt lat="44.0826167" lon="12.1889196"><ele>69.0</ele><time>2026-04-26T09:48:21.98Z</time></trkpt><trkpt lat="44.0828052" lon="12.1888881"><ele>68.0</ele><time>2026-04-26T09:48:22.988Z</time></trkpt><trkpt lat="44.0829809" lon="12.1888938"><ele>67.0</ele><time>2026-04-26T09:48:23.995Z</time></trkpt><trkpt lat="44.0831578" lon="12.1889317"><ele>69.66666666666666</ele><time>2026-04-26T09:48:24.985Z</time></trkpt><trkpt lat="44.0833452" lon="12.1889967"><ele>72.33333333333333</ele><time>2026-04-26T09:48:25.994Z</time></trkpt><trkpt lat="44.0835316" lon="12.1890735"><ele>75.0</ele><time>2026-04-26T09:48:26.99Z</time></trkpt><trkpt lat="44.0837191" lon="12.1891467"><ele>75.0</ele><time>2026-04-26T09:48:27.991Z</time></trkpt><trkpt lat="44.0839033" lon="12.1892094"><ele>75.0</ele><time>2026-04-26T09:48:28.99Z</time></trkpt><trkpt lat="44.0840812" lon="12.1892559"><ele>75.0</ele><time>2026-04-26T09:48:29.989Z</time></trkpt><trkpt lat="44.0842574" lon="12.1892954"><ele>75.66666666666667</ele><time>2026-04-26T09:48:30.987Z</time></trkpt><trkpt lat="44.0844353" lon="12.1893372"><ele>76.33333333333334</ele><time>2026-04-26T09:48:31.992Z</time></trkpt><trkpt lat="44.0846173" lon="12.1893839"><ele>77.0</ele><time>2026-04-26T09:48:32.99Z</time></trkpt><trkpt lat="44.0847992" lon="12.1894401"><ele>77.33333333333334</ele><time>2026-04-26T09:48:33.991Z</time></trkpt><trkpt lat="44.0849764" lon="12.1895111"><ele>77.66666666666667</ele><time>2026-04-26T09:48:34.991Z</time></trkpt><trkpt lat="44.0851572" lon="12.1895926"><ele>78.0</ele><time>2026-04-26T09:48:35.992Z</time></trkpt><trkpt lat="44.0853217" lon="12.189691"><ele>78.0</ele><time>2026-04-26T09:48:36.988Z</time></trkpt><trkpt lat="44.085485" lon="12.1898039"><ele>78.0</ele><time>2026-04-26T09:48:37.994Z</time></trkpt><trkpt lat="44.0856532" lon="12.189926"><ele>78.0</ele><time>2026-04-26T09:48:38.994Z</time></trkpt><trkpt lat="44.0858314" lon="12.1900581"><ele>77.33333333333333</ele><time>2026-04-26T09:48:39.996Z</time></trkpt><trkpt lat="44.0860081" lon="12.19019"><ele>76.66666666666666</ele><time>2026-04-26T09:48:40.991Z</time></trkpt><trkpt lat="44.0861755" lon="12.1903243"><ele>76.0</ele><time>2026-04-26T09:48:41.987Z</time></trkpt><trkpt lat="44.0863458" lon="12.1904589"><ele>76.0</ele><time>2026-04-26T09:48:42.987Z</time></trkpt><trkpt lat="44.0865052" lon="12.1905942"><ele>76.0</ele><time>2026-04-26T09:48:43.992Z</time></trkpt><trkpt lat="44.086665" lon="12.1907238"><ele>76.0</ele><time>2026-04-26T09:48:44.99Z</time></trkpt><trkpt lat="44.0867983" lon="12.1908532"><ele>75.66666666666666</ele><time>2026-04-26T09:48:45.984Z</time></trkpt><trkpt lat="44.0869254" lon="12.1909768"><ele>75.33333333333333</ele><time>2026-04-26T09:48:46.989Z</time></trkpt><trkpt lat="44.0870582" lon="12.1910961"><ele>75.0</ele><time>2026-04-26T09:48:47.993Z</time></trkpt><trkpt lat="44.0871876" lon="12.191219"><ele>75.0</ele><time>2026-04-26T09:48:48.991Z</time></trkpt><trkpt lat="44.0873211" lon="12.1913419"><ele>75.0</ele><time>2026-04-26T09:48:49.993Z</time></trkpt><trkpt lat="44.0874638" lon="12.1914604"><ele>75.0</ele><time>2026-04-26T09:48:50.988Z</time></trkpt><trkpt lat="44.0876054" lon="12.1915667"><ele>74.5</ele><time>2026-04-26T09:48:51.992Z</time></trkpt><trkpt lat="44.087743" lon="12.1916599"><ele>74.0</ele><time>2026-04-26T09:48:52.989Z</time></trkpt><trkpt lat="44.0878703" lon="12.1917479"><ele>73.5</ele><time>2026-04-26T09:48:53.982Z</time></trkpt><trkpt lat="44.0879973" lon="12.1918199"><ele>73.0</ele><time>2026-04-26T09:48:54.99Z</time></trkpt><trkpt lat="44.0881241" lon="12.1918846"><ele>73.0</ele><time>2026-04-26T09:48:55.99Z</time></trkpt><trkpt lat="44.0882476" lon="12.1919444"><ele>73.0</ele><time>2026-04-26T09:48:56.991Z</time></trkpt><trkpt lat="44.0883655" lon="12.1919977"><ele>73.0</ele><time>2026-04-26T09:48:57.991Z</time></trkpt><trkpt lat="44.0884756" lon="12.1920479"><ele>73.0</ele><time>2026-04-26T09:48:58.991Z</time></trkpt><trkpt lat="44.0885798" lon="12.1920941"><ele>73.4</ele><time>2026-04-26T09:48:59.993Z</time></trkpt><trkpt lat="44.0886784" lon="12.192132"><ele>73.8</ele><time>2026-04-26T09:49:00.992Z</time></trkpt><trkpt lat="44.0887746" lon="12.1921667"><ele>74.2</ele><time>2026-04-26T09:49:01.989Z</time></trkpt><trkpt lat="44.0888778" lon="12.1922017"><ele>74.6</ele><time>2026-04-26T09:49:02.989Z</time></trkpt><trkpt lat="44.0889785" lon="12.1922444"><ele>75.0</ele><time>2026-04-26T09:49:03.998Z</time></trkpt><trkpt lat="44.0890839" lon="12.1922836"><ele>74.75</ele><time>2026-04-26T09:49:04.984Z</time></trkpt><trkpt lat="44.0891966" lon="12.1923108"><ele>74.5</ele><time>2026-04-26T09:49:05.989Z</time></trkpt><trkpt lat="44.0893172" lon="12.1923345"><ele>74.25</ele><time>2026-04-26T09:49:06.992Z</time></trkpt><trkpt lat="44.0894395" lon="12.1923469"><ele>74.0</ele><time>2026-04-26T09:49:07.994Z</time></trkpt><trkpt lat="44.0895528" lon="12.1923563"><ele>73.60000000000001</ele><time>2026-04-26T09:49:08.984Z</time></trkpt><trkpt lat="44.0896433" lon="12.1923665"><ele>73.2</ele><time>2026-04-26T09:49:09.999Z</time></trkpt><trkpt lat="44.0897186" lon="12.1923704"><ele>72.80000000000001</ele><time>2026-04-26T09:49:10.984Z</time></trkpt><trkpt lat="44.0898246" lon="12.192393"><ele>72.4</ele><time>2026-04-26T09:49:12.988Z</time></trkpt><trkpt lat="44.0898931" lon="12.1923573"><ele>72.0</ele><time>2026-04-26T09:50:12.982Z</time></trkpt><trkpt lat="44.0900252" lon="12.1923159"><ele>72.0</ele><time>2026-04-26T09:50:15.005Z</time></trkpt><trkpt lat="44.0901312" lon="12.1923013"><ele>72.0</ele><time>2026-04-26T09:50:15.996Z</time></trkpt><trkpt lat="44.0902452" lon="12.1922946"><ele>72.0</ele><time>2026-04-26T09:50:16.995Z</time></trkpt><trkpt lat="44.0903727" lon="12.1922765"><ele>72.0</ele><time>2026-04-26T09:50:17.995Z</time></trkpt><trkpt lat="44.0905137" lon="12.1922594"><ele>72.0</ele><time>2026-04-26T09:50:18.995Z</time></trkpt><trkpt lat="44.0906534" lon="12.1922402"><ele>72.0</ele><time>2026-04-26T09:50:19.996Z</time></trkpt><trkpt lat="44.090785" lon="12.1922213"><ele>72.0</ele><time>2026-04-26T09:50:20.98Z</time></trkpt><trkpt lat="44.0909128" lon="12.1922157"><ele>72.0</ele><time>2026-04-26T09:50:21.99Z</time></trkpt><trkpt lat="44.0910454" lon="12.192235"><ele>70.66666666666667</ele><time>2026-04-26T09:50:22.988Z</time></trkpt><trkpt lat="44.0911947" lon="12.1922837"><ele>69.33333333333334</ele><time>2026-04-26T09:50:23.992Z</time></trkpt><trkpt lat="44.0913436" lon="12.192352"><ele>68.0</ele><time>2026-04-26T09:50:24.996Z</time></trkpt><trkpt lat="44.0915013" lon="12.1924296"><ele>69.0</ele><time>2026-04-26T09:50:25.992Z</time></trkpt><trkpt lat="44.0916625" lon="12.1925111"><ele>70.0</ele><time>2026-04-26T09:50:26.987Z</time></trkpt><trkpt lat="44.0918233" lon="12.1925907"><ele>71.0</ele><time>2026-04-26T09:50:27.996Z</time></trkpt><trkpt lat="44.0919886" lon="12.192679"><ele>71.0</ele><time>2026-04-26T09:50:28.986Z</time></trkpt><trkpt lat="44.0921595" lon="12.1927665"><ele>71.0</ele><time>2026-04-26T09:50:29.992Z</time></trkpt><trkpt lat="44.0923301" lon="12.1928691"><ele>71.0</ele><time>2026-04-26T09:50:30.986Z</time></trkpt><trkpt lat="44.092511" lon="12.1929763"><ele>71.66666666666667</ele><time>2026-04-26T09:50:31.987Z</time></trkpt><trkpt lat="44.0927053" lon="12.1930866"><ele>72.33333333333333</ele><time>2026-04-26T09:50:32.988Z</time></trkpt><trkpt lat="44.0928973" lon="12.193198"><ele>73.0</ele><time>2026-04-26T09:50:33.995Z</time></trkpt><trkpt lat="44.0930846" lon="12.1933005"><ele>71.33333333333333</ele><time>2026-04-26T09:50:34.988Z</time></trkpt><trkpt lat="44.0932674" lon="12.1934073"><ele>69.66666666666667</ele><time>2026-04-26T09:50:35.997Z</time></trkpt><trkpt lat="44.0934556" lon="12.1935181"><ele>68.0</ele><time>2026-04-26T09:50:37.001Z</time></trkpt><trkpt lat="44.093649" lon="12.1936321"><ele>68.0</ele><time>2026-04-26T09:50:37.995Z</time></trkpt><trkpt lat="44.0938406" lon="12.1937427"><ele>68.0</ele><time>2026-04-26T09:50:38.983Z</time></trkpt><trkpt lat="44.0940257" lon="12.1938466"><ele>68.0</ele><time>2026-04-26T09:50:39.995Z</time></trkpt><trkpt lat="44.0942002" lon="12.1939627"><ele>68.0</ele><time>2026-04-26T09:50:40.999Z</time></trkpt><trkpt lat="44.0943709" lon="12.1940969"><ele>68.0</ele><time>2026-04-26T09:50:41.999Z</time></trkpt><trkpt lat="44.0945277" lon="12.1942678"><ele>68.0</ele><time>2026-04-26T09:50:42.992Z</time></trkpt><trkpt lat="44.0946897" lon="12.1944511"><ele>68.0</ele><time>2026-04-26T09:50:44.002Z</time></trkpt><trkpt lat="44.0948484" lon="12.194648"><ele>68.0</ele><time>2026-04-26T09:50:44.982Z</time></trkpt><trkpt lat="44.0950127" lon="12.1948542"><ele>68.0</ele><time>2026-04-26T09:50:45.99Z</time></trkpt><trkpt lat="44.0951693" lon="12.1950653"><ele>67.0</ele><time>2026-04-26T09:50:46.987Z</time></trkpt><trkpt lat="44.0953223" lon="12.1952789"><ele>66.0</ele><time>2026-04-26T09:50:47.988Z</time></trkpt><trkpt lat="44.0954746" lon="12.1954994"><ele>65.0</ele><time>2026-04-26T09:50:48.984Z</time></trkpt><trkpt lat="44.0956238" lon="12.1957216"><ele>64.0</ele><time>2026-04-26T09:50:49.989Z</time></trkpt><trkpt lat="44.0957767" lon="12.1959364"><ele>63.0</ele><time>2026-04-26T09:50:50.997Z</time></trkpt><trkpt lat="44.0959341" lon="12.1961294"><ele>62.0</ele><time>2026-04-26T09:50:51.988Z</time></trkpt><trkpt lat="44.0960963" lon="12.1963083"><ele>62.0</ele><time>2026-04-26T09:50:52.991Z</time></trkpt><trkpt lat="44.0962766" lon="12.1964768"><ele>62.0</ele><time>2026-04-26T09:50:53.996Z</time></trkpt><trkpt lat="44.096474" lon="12.1966314"><ele>62.0</ele><time>2026-04-26T09:50:54.989Z</time></trkpt><trkpt lat="44.096683" lon="12.1967738"><ele>61.5</ele><time>2026-04-26T09:50:55.992Z</time></trkpt><trkpt lat="44.0968996" lon="12.1969096"><ele>61.0</ele><time>2026-04-26T09:50:57.011Z</time></trkpt><trkpt lat="44.0971101" lon="12.1970442"><ele>61.0</ele><time>2026-04-26T09:50:57.995Z</time></trkpt><trkpt lat="44.0973281" lon="12.197167"><ele>61.0</ele><time>2026-04-26T09:50:58.984Z</time></trkpt><trkpt lat="44.0975546" lon="12.1972893"><ele>61.5</ele><time>2026-04-26T09:51:00Z</time></trkpt><trkpt lat="44.0977773" lon="12.1973981"><ele>62.0</ele><time>2026-04-26T09:51:00.996Z</time></trkpt><trkpt lat="44.0979982" lon="12.1974877"><ele>62.0</ele><time>2026-04-26T09:51:01.99Z</time></trkpt><trkpt lat="44.0982231" lon="12.1975578"><ele>62.0</ele><time>2026-04-26T09:51:02.99Z</time></trkpt><trkpt lat="44.0984503" lon="12.1976188"><ele>61.0</ele><time>2026-04-26T09:51:03.991Z</time></trkpt><trkpt lat="44.0986788" lon="12.1976562"><ele>60.0</ele><time>2026-04-26T09:51:04.994Z</time></trkpt><trkpt lat="44.0989154" lon="12.1976765"><ele>60.5</ele><time>2026-04-26T09:51:05.988Z</time></trkpt><trkpt lat="44.0991464" lon="12.1976739"><ele>61.0</ele><time>2026-04-26T09:51:06.999Z</time></trkpt><trkpt lat="44.0993687" lon="12.1976712"><ele>61.0</ele><time>2026-04-26T09:51:08.001Z</time></trkpt><trkpt lat="44.0995772" lon="12.1976736"><ele>61.0</ele><time>2026-04-26T09:51:08.992Z</time></trkpt><trkpt lat="44.0997736" lon="12.1976732"><ele>61.0</ele><time>2026-04-26T09:51:09.993Z</time></trkpt><trkpt lat="44.0999654" lon="12.1976715"><ele>61.0</ele><time>2026-04-26T09:51:10.991Z</time></trkpt><trkpt lat="44.1001594" lon="12.1976664"><ele>61.0</ele><time>2026-04-26T09:51:11.993Z</time></trkpt><trkpt lat="44.1003554" lon="12.1976653"><ele>61.0</ele><time>2026-04-26T09:51:12.996Z</time></trkpt><trkpt lat="44.1005416" lon="12.1976633"><ele>61.0</ele><time>2026-04-26T09:51:13.993Z</time></trkpt><trkpt lat="44.1007133" lon="12.1976596"><ele>61.0</ele><time>2026-04-26T09:51:14.991Z</time></trkpt><trkpt lat="44.1008761" lon="12.1976611"><ele>61.0</ele><time>2026-04-26T09:51:15.997Z</time></trkpt><trkpt lat="44.1010288" lon="12.1976548"><ele>61.5</ele><time>2026-04-26T09:51:16.999Z</time></trkpt><trkpt lat="44.1011735" lon="12.1976374"><ele>62.0</ele><time>2026-04-26T09:51:17.992Z</time></trkpt><trkpt lat="44.1013109" lon="12.1975825"><ele>62.5</ele><time>2026-04-26T09:51:18.989Z</time></trkpt><trkpt lat="44.1014329" lon="12.1974958"><ele>63.0</ele><time>2026-04-26T09:51:19.998Z</time></trkpt><trkpt lat="44.1015651" lon="12.1973635"><ele>62.33333333333333</ele><time>2026-04-26T09:51:20.995Z</time></trkpt><trkpt lat="44.1017016" lon="12.1972057"><ele>61.666666666666664</ele><time>2026-04-26T09:51:21.996Z</time></trkpt><trkpt lat="44.1018438" lon="12.1970428"><ele>61.0</ele><time>2026-04-26T09:51:23Z</time></trkpt><trkpt lat="44.1019845" lon="12.1968951"><ele>61.0</ele><time>2026-04-26T09:51:23.995Z</time></trkpt><trkpt lat="44.1021247" lon="12.1967639"><ele>61.0</ele><time>2026-04-26T09:51:24.995Z</time></trkpt><trkpt lat="44.1022742" lon="12.1966524"><ele>61.0</ele><time>2026-04-26T09:51:26.004Z</time></trkpt><trkpt lat="44.1024376" lon="12.1965615"><ele>60.33333333333333</ele><time>2026-04-26T09:51:26.99Z</time></trkpt><trkpt lat="44.1026114" lon="12.1964934"><ele>59.66666666666667</ele><time>2026-04-26T09:51:27.997Z</time></trkpt><trkpt lat="44.1027751" lon="12.1964351"><ele>59.0</ele><time>2026-04-26T09:51:28.982Z</time></trkpt><trkpt lat="44.1029384" lon="12.1963934"><ele>59.0</ele><time>2026-04-26T09:51:29.997Z</time></trkpt><trkpt lat="44.1030991" lon="12.1963498"><ele>59.0</ele><time>2026-04-26T09:51:30.997Z</time></trkpt><trkpt lat="44.1032609" lon="12.1963144"><ele>59.0</ele><time>2026-04-26T09:51:31.994Z</time></trkpt><trkpt lat="44.1034272" lon="12.1962828"><ele>59.66666666666667</ele><time>2026-04-26T09:51:32.998Z</time></trkpt><trkpt lat="44.1035869" lon="12.1962527"><ele>60.33333333333333</ele><time>2026-04-26T09:51:33.994Z</time></trkpt><trkpt lat="44.1037465" lon="12.1962284"><ele>61.0</ele><time>2026-04-26T09:51:34.987Z</time></trkpt><trkpt lat="44.1039037" lon="12.1962153"><ele>61.0</ele><time>2026-04-26T09:51:35.998Z</time></trkpt><trkpt lat="44.1040623" lon="12.1962111"><ele>61.0</ele><time>2026-04-26T09:51:36.995Z</time></trkpt><trkpt lat="44.1042285" lon="12.1962163"><ele>61.0</ele><time>2026-04-26T09:51:37.998Z</time></trkpt><trkpt lat="44.1043952" lon="12.1962259"><ele>61.0</ele><time>2026-04-26T09:51:38.998Z</time></trkpt><trkpt lat="44.1045572" lon="12.1962351"><ele>61.0</ele><time>2026-04-26T09:51:40.026Z</time></trkpt><trkpt lat="44.1047055" lon="12.1962507"><ele>61.0</ele><time>2026-04-26T09:51:41.004Z</time></trkpt><trkpt lat="44.1048477" lon="12.1962543"><ele>61.0</ele><time>2026-04-26T09:51:42Z</time></trkpt><trkpt lat="44.104969" lon="12.1962554"><ele>60.99999999999999</ele><time>2026-04-26T09:51:42.998Z</time></trkpt><trkpt lat="44.1050713" lon="12.1962579"><ele>60.99999999999999</ele><time>2026-04-26T09:51:43.997Z</time></trkpt><trkpt lat="44.105165" lon="12.1962644"><ele>61.0</ele><time>2026-04-26T09:51:44.998Z</time></trkpt><trkpt lat="44.1052619" lon="12.1962698"><ele>61.0</ele><time>2026-04-26T09:51:46.002Z</time></trkpt><trkpt lat="44.1053433" lon="12.1962734"><ele>61.0</ele><time>2026-04-26T09:51:46.994Z</time></trkpt><trkpt lat="44.1054175" lon="12.1962781"><ele>60.99999999999999</ele><time>2026-04-26T09:51:47.994Z</time></trkpt><trkpt lat="44.1055357" lon="12.1962815"><ele>60.99999999999999</ele><time>2026-04-26T09:51:49.998Z</time></trkpt><trkpt lat="44.1056562" lon="12.1962851"><ele>61.0</ele><time>2026-04-26T09:51:51.993Z</time></trkpt><trkpt lat="44.1057216" lon="12.1962812"><ele>61.0</ele><time>2026-04-26T09:51:52.993Z</time></trkpt><trkpt lat="44.1058185" lon="12.1962678"><ele>60.599999999999994</ele><time>2026-04-26T09:51:54.997Z</time></trkpt><trkpt lat="44.1059242" lon="12.196266"><ele>60.199999999999996</ele><time>2026-04-26T09:51:56.986Z</time></trkpt><trkpt lat="44.1060227" lon="12.1961972"><ele>59.800000000000004</ele><time>2026-04-26T09:51:58.99Z</time></trkpt><trkpt lat="44.106015" lon="12.1960696"><ele>59.400000000000006</ele><time>2026-04-26T09:52:01Z</time></trkpt><trkpt lat="44.1059374" lon="12.1960431"><ele>59.0</ele><time>2026-04-26T09:52:02.994Z</time></trkpt><trkpt lat="44.1058641" lon="12.1961572"><ele>59.0</ele><time>2026-04-26T09:52:04.997Z</time></trkpt><trkpt lat="44.1057815" lon="12.1962447"><ele>59.00000000000001</ele><time>2026-04-26T09:52:06.994Z</time></trkpt><trkpt lat="44.1057167" lon="12.1962491"><ele>59.00000000000001</ele><time>2026-04-26T09:52:08.983Z</time></trkpt><trkpt lat="44.1055813" lon="12.1962579"><ele>59.0</ele><time>2026-04-26T09:52:19.99Z</time></trkpt><trkpt lat="44.1054667" lon="12.1962652"><ele>59.0</ele><time>2026-04-26T09:52:20.975Z</time></trkpt><trkpt lat="44.1053563" lon="12.1962608"><ele>59.333333333333336</ele><time>2026-04-26T09:52:22.005Z</time></trkpt><trkpt lat="44.1052685" lon="12.1962396"><ele>59.66666666666667</ele><time>2026-04-26T09:52:22.983Z</time></trkpt><trkpt lat="44.1052001" lon="12.1962351"><ele>60.0</ele><time>2026-04-26T09:52:24.005Z</time></trkpt><trkpt lat="44.1051017" lon="12.1962141"><ele>60.33333333333333</ele><time>2026-04-26T09:52:26.004Z</time></trkpt><trkpt lat="44.1050974" lon="12.1961209"><ele>60.666666666666664</ele><time>2026-04-26T09:53:35.994Z</time></trkpt><trkpt lat="44.1051062" lon="12.1959792"><ele>61.0</ele><time>2026-04-26T09:53:38.992Z</time></trkpt><trkpt lat="44.1051131" lon="12.1958834"><ele>61.0</ele><time>2026-04-26T09:53:40.984Z</time></trkpt><trkpt lat="44.1051822" lon="12.1957762"><ele>61.0</ele><time>2026-04-26T09:53:57.212Z</time></trkpt></trkseg></trk></gpx>